<?xml version='1.0' encoding='UTF-8'?><gpx version="1.1" creator="JPX - https://github.com/jenetics/jpx" xmlns="http://www.topografix.com/GPX/1/1"><trk><trkseg><trkpt lat="37.8523611" lon="12.4923967"><ele>19.0</ele><time>2026-04-25T15:09:10.35Z</time></trkpt><trkpt lat="37.8523772" lon="12.4922849"><ele>19.0</ele><time>2026-04-25T15:09:24.351Z</time></trkpt><trkpt lat="37.8524456" lon="12.492208"><ele>19.0</ele><time>2026-04-25T15:09:26.351Z</time></trkpt><trkpt lat="37.852542" lon="12.4921093"><ele>19.0</ele><time>2026-04-25T15:09:28.351Z</time></trkpt><trkpt lat="37.8525844" lon="12.4920429"><ele>19.0</ele><time>2026-04-25T15:09:29.351Z</time></trkpt><trkpt lat="37.8526323" lon="12.4919861"><ele>19.0</ele><time>2026-04-25T15:09:30.351Z</time></trkpt><trkpt lat="37.8526889" lon="12.4919254"><ele>18.2</ele><time>2026-04-25T15:09:31.351Z</time></trkpt><trkpt lat="37.8527522" lon="12.4918577"><ele>17.4</ele><time>2026-04-25T15:09:32.351Z</time></trkpt><trkpt lat="37.8528153" lon="12.4917752"><ele>16.6</ele><time>2026-04-25T15:09:33.351Z</time></trkpt><trkpt lat="37.8528912" lon="12.4916937"><ele>15.8</ele><time>2026-04-25T15:09:34.351Z</time></trkpt><trkpt lat="37.852961" lon="12.4916147"><ele>15.0</ele><time>2026-04-25T15:09:35.35Z</time></trkpt><trkpt lat="37.8530389" lon="12.4915434"><ele>15.0</ele><time>2026-04-25T15:09:36.352Z</time></trkpt><trkpt lat="37.8531121" lon="12.4914649"><ele>15.0</ele><time>2026-04-25T15:09:37.351Z</time></trkpt><trkpt lat="37.8531874" lon="12.4913853"><ele>15.0</ele><time>2026-04-25T15:09:38.351Z</time></trkpt><trkpt lat="37.8532634" lon="12.4913009"><ele>15.0</ele><time>2026-04-25T15:09:39.351Z</time></trkpt><trkpt lat="37.8533402" lon="12.491216"><ele>15.0</ele><time>2026-04-25T15:09:40.351Z</time></trkpt><trkpt lat="37.8534179" lon="12.4911304"><ele>15.5</ele><time>2026-04-25T15:09:41.351Z</time></trkpt><trkpt lat="37.8535136" lon="12.4910443"><ele>16.0</ele><time>2026-04-25T15:09:42.351Z</time></trkpt><trkpt lat="37.8535933" lon="12.4909493"><ele>16.5</ele><time>2026-04-25T15:09:43.35Z</time></trkpt><trkpt lat="37.8536736" lon="12.4908434"><ele>17.0</ele><time>2026-04-25T15:09:44.35Z</time></trkpt><trkpt lat="37.8537606" lon="12.4907418"><ele>17.0</ele><time>2026-04-25T15:09:45.35Z</time></trkpt><trkpt lat="37.8538404" lon="12.4906346"><ele>17.0</ele><time>2026-04-25T15:09:46.35Z</time></trkpt><trkpt lat="37.8539172" lon="12.4905272"><ele>17.0</ele><time>2026-04-25T15:09:47.35Z</time></trkpt><trkpt lat="37.8539916" lon="12.4904079"><ele>17.0</ele><time>2026-04-25T15:09:48.35Z</time></trkpt><trkpt lat="37.854062" lon="12.4902811"><ele>16.5</ele><time>2026-04-25T15:09:49.351Z</time></trkpt><trkpt lat="37.8541315" lon="12.4901556"><ele>16.0</ele><time>2026-04-25T15:09:50.351Z</time></trkpt><trkpt lat="37.854198" lon="12.4900238"><ele>15.5</ele><time>2026-04-25T15:09:51.351Z</time></trkpt><trkpt lat="37.8542665" lon="12.4898914"><ele>15.0</ele><time>2026-04-25T15:09:52.35Z</time></trkpt><trkpt lat="37.8543433" lon="12.4897595"><ele>15.0</ele><time>2026-04-25T15:09:53.35Z</time></trkpt><trkpt lat="37.8544147" lon="12.4896244"><ele>15.0</ele><time>2026-04-25T15:09:54.349Z</time></trkpt><trkpt lat="37.8544919" lon="12.4894854"><ele>15.0</ele><time>2026-04-25T15:09:55.351Z</time></trkpt><trkpt lat="37.854565" lon="12.4893385"><ele>15.0</ele><time>2026-04-25T15:09:56.35Z</time></trkpt><trkpt lat="37.8546286" lon="12.4891787"><ele>14.25</ele><time>2026-04-25T15:09:57.351Z</time></trkpt><trkpt lat="37.8546975" lon="12.4890207"><ele>13.5</ele><time>2026-04-25T15:09:58.35Z</time></trkpt><trkpt lat="37.8547697" lon="12.4888664"><ele>12.75</ele><time>2026-04-25T15:09:59.349Z</time></trkpt><trkpt lat="37.8548415" lon="12.4887111"><ele>12.0</ele><time>2026-04-25T15:10:00.35Z</time></trkpt><trkpt lat="37.8549169" lon="12.4885604"><ele>11.75</ele><time>2026-04-25T15:10:01.351Z</time></trkpt><trkpt lat="37.8549943" lon="12.4884023"><ele>11.5</ele><time>2026-04-25T15:10:02.35Z</time></trkpt><trkpt lat="37.8550738" lon="12.4882546"><ele>11.25</ele><time>2026-04-25T15:10:03.351Z</time></trkpt><trkpt lat="37.8551521" lon="12.4881129"><ele>11.0</ele><time>2026-04-25T15:10:04.35Z</time></trkpt><trkpt lat="37.8552243" lon="12.4879635"><ele>11.0</ele><time>2026-04-25T15:10:05.351Z</time></trkpt><trkpt lat="37.855291" lon="12.4878257"><ele>11.0</ele><time>2026-04-25T15:10:06.351Z</time></trkpt><trkpt lat="37.8553615" lon="12.487702"><ele>11.0</ele><time>2026-04-25T15:10:07.351Z</time></trkpt><trkpt lat="37.8554294" lon="12.4875849"><ele>11.0</ele><time>2026-04-25T15:10:08.351Z</time></trkpt><trkpt lat="37.8554844" lon="12.4874759"><ele>11.0</ele><time>2026-04-25T15:10:09.35Z</time></trkpt><trkpt lat="37.8555331" lon="12.4873791"><ele>11.0</ele><time>2026-04-25T15:10:10.349Z</time></trkpt><trkpt lat="37.8555739" lon="12.4872896"><ele>11.0</ele><time>2026-04-25T15:10:11.351Z</time></trkpt><trkpt lat="37.8556212" lon="12.4872261"><ele>11.0</ele><time>2026-04-25T15:10:12.35Z</time></trkpt><trkpt lat="37.8556623" lon="12.4871284"><ele>11.0</ele><time>2026-04-25T15:10:14.35Z</time></trkpt><trkpt lat="37.8557079" lon="12.4870651"><ele>11.0</ele><time>2026-04-25T15:10:17.351Z</time></trkpt><trkpt lat="37.855787" lon="12.4870899"><ele>11.0</ele><time>2026-04-25T15:10:19.351Z</time></trkpt><trkpt lat="37.8558674" lon="12.4871281"><ele>11.0</ele><time>2026-04-25T15:10:21.35Z</time></trkpt><trkpt lat="37.855927" lon="12.4871714"><ele>11.0</ele><time>2026-04-25T15:10:22.351Z</time></trkpt><trkpt lat="37.8560004" lon="12.4872459"><ele>11.0</ele><time>2026-04-25T15:10:23.351Z</time></trkpt><trkpt lat="37.8560819" lon="12.4872998"><ele>11.0</ele><time>2026-04-25T15:10:24.35Z</time></trkpt><trkpt lat="37.8561655" lon="12.4873485"><ele>11.0</ele><time>2026-04-25T15:10:25.352Z</time></trkpt><trkpt lat="37.8562774" lon="12.4874215"><ele>11.0</ele><time>2026-04-25T15:10:26.352Z</time></trkpt><trkpt lat="37.8563757" lon="12.487473"><ele>11.0</ele><time>2026-04-25T15:10:27.351Z</time></trkpt><trkpt lat="37.8564662" lon="12.4875337"><ele>11.0</ele><time>2026-04-25T15:10:28.35Z</time></trkpt><trkpt lat="37.8565638" lon="12.4875996"><ele>11.0</ele><time>2026-04-25T15:10:29.349Z</time></trkpt><trkpt lat="37.8566579" lon="12.4876523"><ele>11.0</ele><time>2026-04-25T15:10:30.351Z</time></trkpt><trkpt lat="37.8567618" lon="12.4877054"><ele>11.0</ele><time>2026-04-25T15:10:31.35Z</time></trkpt><trkpt lat="37.856863" lon="12.4877595"><ele>11.0</ele><time>2026-04-25T15:10:32.35Z</time></trkpt><trkpt lat="37.8569678" lon="12.4878047"><ele>11.0</ele><time>2026-04-25T15:10:33.35Z</time></trkpt><trkpt lat="37.8570565" lon="12.4878692"><ele>11.0</ele><time>2026-04-25T15:10:34.351Z</time></trkpt><trkpt lat="37.8571772" lon="12.4879496"><ele>11.25</ele><time>2026-04-25T15:10:35.35Z</time></trkpt><trkpt lat="37.8572776" lon="12.4880081"><ele>11.5</ele><time>2026-04-25T15:10:36.351Z</time></trkpt><trkpt lat="37.8573813" lon="12.4880687"><ele>11.75</ele><time>2026-04-25T15:10:37.35Z</time></trkpt><trkpt lat="37.8574901" lon="12.4881208"><ele>12.0</ele><time>2026-04-25T15:10:38.351Z</time></trkpt><trkpt lat="37.8575924" lon="12.4881835"><ele>11.5</ele><time>2026-04-25T15:10:39.352Z</time></trkpt><trkpt lat="37.8577029" lon="12.4882441"><ele>11.0</ele><time>2026-04-25T15:10:40.349Z</time></trkpt><trkpt lat="37.8578151" lon="12.4883006"><ele>10.5</ele><time>2026-04-25T15:10:41.351Z</time></trkpt><trkpt lat="37.8579362" lon="12.4883687"><ele>10.0</ele><time>2026-04-25T15:10:42.35Z</time></trkpt><trkpt lat="37.858063" lon="12.4884267"><ele>10.0</ele><time>2026-04-25T15:10:43.35Z</time></trkpt><trkpt lat="37.8581844" lon="12.4884926"><ele>10.0</ele><time>2026-04-25T15:10:44.351Z</time></trkpt><trkpt lat="37.8583121" lon="12.4885591"><ele>10.0</ele><time>2026-04-25T15:10:45.351Z</time></trkpt><trkpt lat="37.8584228" lon="12.4886382"><ele>10.0</ele><time>2026-04-25T15:10:46.35Z</time></trkpt><trkpt lat="37.8585509" lon="12.4887029"><ele>10.5</ele><time>2026-04-25T15:10:47.35Z</time></trkpt><trkpt lat="37.8586779" lon="12.4887789"><ele>11.0</ele><time>2026-04-25T15:10:48.35Z</time></trkpt><trkpt lat="37.8588067" lon="12.4888492"><ele>11.5</ele><time>2026-04-25T15:10:49.351Z</time></trkpt><trkpt lat="37.8589458" lon="12.4889198"><ele>12.0</ele><time>2026-04-25T15:10:50.351Z</time></trkpt><trkpt lat="37.8590879" lon="12.4889901"><ele>12.0</ele><time>2026-04-25T15:10:51.35Z</time></trkpt><trkpt lat="37.8592211" lon="12.4890603"><ele>12.0</ele><time>2026-04-25T15:10:52.351Z</time></trkpt><trkpt lat="37.8593587" lon="12.4891347"><ele>12.0</ele><time>2026-04-25T15:10:53.35Z</time></trkpt><trkpt lat="37.8595043" lon="12.489203"><ele>12.0</ele><time>2026-04-25T15:10:54.349Z</time></trkpt><trkpt lat="37.8596461" lon="12.489274"><ele>11.666666666666666</ele><time>2026-04-25T15:10:55.35Z</time></trkpt><trkpt lat="37.8597904" lon="12.4893498"><ele>11.333333333333332</ele><time>2026-04-25T15:10:56.349Z</time></trkpt><trkpt lat="37.8599348" lon="12.4894239"><ele>11.0</ele><time>2026-04-25T15:10:57.35Z</time></trkpt><trkpt lat="37.8600789" lon="12.4895094"><ele>11.0</ele><time>2026-04-25T15:10:58.351Z</time></trkpt><trkpt lat="37.8602264" lon="12.4895861"><ele>11.0</ele><time>2026-04-25T15:10:59.351Z</time></trkpt><trkpt lat="37.8603811" lon="12.4896627"><ele>11.0</ele><time>2026-04-25T15:11:00.35Z</time></trkpt><trkpt lat="37.8605317" lon="12.489745"><ele>11.0</ele><time>2026-04-25T15:11:01.35Z</time></trkpt><trkpt lat="37.8606815" lon="12.4898282"><ele>11.0</ele><time>2026-04-25T15:11:02.35Z</time></trkpt><trkpt lat="37.8608369" lon="12.4899152"><ele>11.0</ele><time>2026-04-25T15:11:03.35Z</time></trkpt><trkpt lat="37.8609841" lon="12.4899952"><ele>11.666666666666666</ele><time>2026-04-25T15:11:04.351Z</time></trkpt><trkpt lat="37.8611376" lon="12.4900762"><ele>12.333333333333332</ele><time>2026-04-25T15:11:05.351Z</time></trkpt><trkpt lat="37.8612941" lon="12.4901559"><ele>13.0</ele><time>2026-04-25T15:11:06.349Z</time></trkpt><trkpt lat="37.8614465" lon="12.4902338"><ele>13.0</ele><time>2026-04-25T15:11:07.35Z</time></trkpt><trkpt lat="37.8617548" lon="12.4903924"><ele>13.0</ele><time>2026-04-25T15:11:09.351Z</time></trkpt><trkpt lat="37.8618946" lon="12.4904604"><ele>13.25</ele><time>2026-04-25T15:11:10.35Z</time></trkpt><trkpt lat="37.8620326" lon="12.4905387"><ele>13.5</ele><time>2026-04-25T15:11:11.351Z</time></trkpt><trkpt lat="37.8621678" lon="12.4906073"><ele>13.75</ele><time>2026-04-25T15:11:12.35Z</time></trkpt><trkpt lat="37.8622957" lon="12.4906706"><ele>14.0</ele><time>2026-04-25T15:11:13.351Z</time></trkpt><trkpt lat="37.8624173" lon="12.4907269"><ele>14.0</ele><time>2026-04-25T15:11:14.351Z</time></trkpt><trkpt lat="37.862531" lon="12.4907834"><ele>13.999999999999998</ele><time>2026-04-25T15:11:15.35Z</time></trkpt><trkpt lat="37.8626289" lon="12.4908329"><ele>13.999999999999998</ele><time>2026-04-25T15:11:16.349Z</time></trkpt><trkpt lat="37.8627197" lon="12.4908741"><ele>14.0</ele><time>2026-04-25T15:11:17.351Z</time></trkpt><trkpt lat="37.8627951" lon="12.4909041"><ele>14.0</ele><time>2026-04-25T15:11:18.35Z</time></trkpt><trkpt lat="37.8628656" lon="12.490919"><ele>14.166666666666668</ele><time>2026-04-25T15:11:23.349Z</time></trkpt><trkpt lat="37.862955" lon="12.4909445"><ele>14.333333333333334</ele><time>2026-04-25T15:11:26.35Z</time></trkpt><trkpt lat="37.863068" lon="12.4909854"><ele>14.5</ele><time>2026-04-25T15:11:28.351Z</time></trkpt><trkpt lat="37.8631317" lon="12.4910124"><ele>14.666666666666668</ele><time>2026-04-25T15:11:29.35Z</time></trkpt><trkpt lat="37.8632053" lon="12.4910424"><ele>14.833333333333334</ele><time>2026-04-25T15:11:30.351Z</time></trkpt><trkpt lat="37.8632881" lon="12.4910757"><ele>15.0</ele><time>2026-04-25T15:11:31.35Z</time></trkpt><trkpt lat="37.8633826" lon="12.4911127"><ele>15.0</ele><time>2026-04-25T15:11:32.35Z</time></trkpt><trkpt lat="37.863478" lon="12.4911458"><ele>15.0</ele><time>2026-04-25T15:11:33.351Z</time></trkpt><trkpt lat="37.8635793" lon="12.4911773"><ele>15.0</ele><time>2026-04-25T15:11:34.35Z</time></trkpt><trkpt lat="37.8636871" lon="12.4912119"><ele>15.0</ele><time>2026-04-25T15:11:35.35Z</time></trkpt><trkpt lat="37.8638152" lon="12.4912474"><ele>15.0</ele><time>2026-04-25T15:11:36.351Z</time></trkpt><trkpt lat="37.8639409" lon="12.4912923"><ele>15.0</ele><time>2026-04-25T15:11:37.351Z</time></trkpt><trkpt lat="37.8640746" lon="12.4913124"><ele>15.0</ele><time>2026-04-25T15:11:38.351Z</time></trkpt><trkpt lat="37.8642006" lon="12.4913468"><ele>15.0</ele><time>2026-04-25T15:11:39.351Z</time></trkpt><trkpt lat="37.8643253" lon="12.4913791"><ele>15.0</ele><time>2026-04-25T15:11:40.35Z</time></trkpt><trkpt lat="37.8644702" lon="12.4914233"><ele>15.0</ele><time>2026-04-25T15:11:41.35Z</time></trkpt><trkpt lat="37.8646082" lon="12.4914583"><ele>15.0</ele><time>2026-04-25T15:11:42.351Z</time></trkpt><trkpt lat="37.8647427" lon="12.4915"><ele>15.0</ele><time>2026-04-25T15:11:43.35Z</time></trkpt><trkpt lat="37.8648631" lon="12.4915332"><ele>15.0</ele><time>2026-04-25T15:11:44.35Z</time></trkpt><trkpt lat="37.8649831" lon="12.4915629"><ele>14.75</ele><time>2026-04-25T15:11:45.35Z</time></trkpt><trkpt lat="37.8651205" lon="12.4915972"><ele>14.5</ele><time>2026-04-25T15:11:46.351Z</time></trkpt><trkpt lat="37.8652532" lon="12.4916311"><ele>14.25</ele><time>2026-04-25T15:11:47.35Z</time></trkpt><trkpt lat="37.8653949" lon="12.4916797"><ele>14.0</ele><time>2026-04-25T15:11:48.35Z</time></trkpt><trkpt lat="37.86554" lon="12.4917392"><ele>14.0</ele><time>2026-04-25T15:11:49.351Z</time></trkpt><trkpt lat="37.8656862" lon="12.491814"><ele>14.0</ele><time>2026-04-25T15:11:50.351Z</time></trkpt><trkpt lat="37.8658326" lon="12.4918842"><ele>14.0</ele><time>2026-04-25T15:11:51.351Z</time></trkpt><trkpt lat="37.8659879" lon="12.491948"><ele>14.0</ele><time>2026-04-25T15:11:52.351Z</time></trkpt><trkpt lat="37.8662887" lon="12.4920902"><ele>14.0</ele><time>2026-04-25T15:11:54.351Z</time></trkpt><trkpt lat="37.8664429" lon="12.4921761"><ele>14.0</ele><time>2026-04-25T15:11:55.349Z</time></trkpt><trkpt lat="37.8665973" lon="12.4922507"><ele>14.0</ele><time>2026-04-25T15:11:56.351Z</time></trkpt><trkpt lat="37.8667537" lon="12.4923225"><ele>14.0</ele><time>2026-04-25T15:11:57.35Z</time></trkpt><trkpt lat="37.8669106" lon="12.4923832"><ele>14.666666666666668</ele><time>2026-04-25T15:11:58.351Z</time></trkpt><trkpt lat="37.8670692" lon="12.4924482"><ele>15.333333333333332</ele><time>2026-04-25T15:11:59.349Z</time></trkpt><trkpt lat="37.8672263" lon="12.4925025"><ele>16.0</ele><time>2026-04-25T15:12:00.351Z</time></trkpt><trkpt lat="37.8673822" lon="12.4925601"><ele>16.0</ele><time>2026-04-25T15:12:01.35Z</time></trkpt><trkpt lat="37.8675477" lon="12.4926196"><ele>16.0</ele><time>2026-04-25T15:12:02.351Z</time></trkpt><trkpt lat="37.8677053" lon="12.4926728"><ele>16.0</ele><time>2026-04-25T15:12:03.351Z</time></trkpt><trkpt lat="37.8678626" lon="12.4927242"><ele>15.666666666666666</ele><time>2026-04-25T15:12:04.351Z</time></trkpt><trkpt lat="37.8680206" lon="12.4927723"><ele>15.333333333333332</ele><time>2026-04-25T15:12:05.35Z</time></trkpt><trkpt lat="37.8681775" lon="12.4928233"><ele>15.0</ele><time>2026-04-25T15:12:06.351Z</time></trkpt><trkpt lat="37.8683356" lon="12.4928684"><ele>15.666666666666668</ele><time>2026-04-25T15:12:07.35Z</time></trkpt><trkpt lat="37.8684964" lon="12.4929169"><ele>16.333333333333336</ele><time>2026-04-25T15:12:08.349Z</time></trkpt><trkpt lat="37.8686722" lon="12.492967"><ele>17.0</ele><time>2026-04-25T15:12:09.351Z</time></trkpt><trkpt lat="37.868834" lon="12.4930154"><ele>17.0</ele><time>2026-04-25T15:12:10.35Z</time></trkpt><trkpt lat="37.8689947" lon="12.4930673"><ele>17.0</ele><time>2026-04-25T15:12:11.351Z</time></trkpt><trkpt lat="37.8691575" lon="12.4931309"><ele>17.0</ele><time>2026-04-25T15:12:12.35Z</time></trkpt><trkpt lat="37.8693168" lon="12.4931958"><ele>16.666666666666668</ele><time>2026-04-25T15:12:13.351Z</time></trkpt><trkpt lat="37.8694769" lon="12.4932699"><ele>16.333333333333332</ele><time>2026-04-25T15:12:14.351Z</time></trkpt><trkpt lat="37.8696396" lon="12.4933492"><ele>16.0</ele><time>2026-04-25T15:12:15.351Z</time></trkpt><trkpt lat="37.8698012" lon="12.4934232"><ele>16.0</ele><time>2026-04-25T15:12:16.35Z</time></trkpt><trkpt lat="37.8699682" lon="12.4934862"><ele>16.0</ele><time>2026-04-25T15:12:17.351Z</time></trkpt><trkpt lat="37.8703027" lon="12.4935804"><ele>15.666666666666666</ele><time>2026-04-25T15:12:19.351Z</time></trkpt><trkpt lat="37.87047" lon="12.4936287"><ele>15.333333333333332</ele><time>2026-04-25T15:12:20.35Z</time></trkpt><trkpt lat="37.8706336" lon="12.4936795"><ele>15.0</ele><time>2026-04-25T15:12:21.35Z</time></trkpt><trkpt lat="37.8708036" lon="12.4937288"><ele>15.333333333333332</ele><time>2026-04-25T15:12:22.351Z</time></trkpt><trkpt lat="37.8709716" lon="12.4937774"><ele>15.666666666666666</ele><time>2026-04-25T15:12:23.351Z</time></trkpt><trkpt lat="37.8711331" lon="12.4938228"><ele>16.0</ele><time>2026-04-25T15:12:24.35Z</time></trkpt><trkpt lat="37.8713167" lon="12.4938742"><ele>16.0</ele><time>2026-04-25T15:12:25.349Z</time></trkpt><trkpt lat="37.8714901" lon="12.4939221"><ele>16.0</ele><time>2026-04-25T15:12:26.349Z</time></trkpt><trkpt lat="37.8716583" lon="12.4939694"><ele>16.0</ele><time>2026-04-25T15:12:27.351Z</time></trkpt><trkpt lat="37.8718245" lon="12.4940193"><ele>16.666666666666664</ele><time>2026-04-25T15:12:28.351Z</time></trkpt><trkpt lat="37.8719881" lon="12.4940676"><ele>17.333333333333332</ele><time>2026-04-25T15:12:29.351Z</time></trkpt><trkpt lat="37.8721427" lon="12.494105"><ele>18.0</ele><time>2026-04-25T15:12:30.35Z</time></trkpt><trkpt lat="37.8722815" lon="12.4941485"><ele>18.0</ele><time>2026-04-25T15:12:31.351Z</time></trkpt><trkpt lat="37.872409" lon="12.4941969"><ele>18.0</ele><time>2026-04-25T15:12:32.351Z</time></trkpt><trkpt lat="37.8725197" lon="12.4942427"><ele>18.0</ele><time>2026-04-25T15:12:33.351Z</time></trkpt><trkpt lat="37.8726143" lon="12.4942933"><ele>18.0</ele><time>2026-04-25T15:12:34.349Z</time></trkpt><trkpt lat="37.8726889" lon="12.4943431"><ele>18.0</ele><time>2026-04-25T15:12:35.351Z</time></trkpt><trkpt lat="37.8727553" lon="12.494397"><ele>18.4</ele><time>2026-04-25T15:12:36.351Z</time></trkpt><trkpt lat="37.8728302" lon="12.4944445"><ele>18.8</ele><time>2026-04-25T15:12:37.351Z</time></trkpt><trkpt lat="37.8729177" lon="12.4945036"><ele>19.2</ele><time>2026-04-25T15:12:38.351Z</time></trkpt><trkpt lat="37.8730113" lon="12.4945538"><ele>19.6</ele><time>2026-04-25T15:12:39.351Z</time></trkpt><trkpt lat="37.8731142" lon="12.4946016"><ele>20.0</ele><time>2026-04-25T15:12:40.351Z</time></trkpt><trkpt lat="37.8732229" lon="12.494642"><ele>20.0</ele><time>2026-04-25T15:12:41.351Z</time></trkpt><trkpt lat="37.8733336" lon="12.4946844"><ele>20.0</ele><time>2026-04-25T15:12:42.351Z</time></trkpt><trkpt lat="37.8734463" lon="12.4947247"><ele>20.0</ele><time>2026-04-25T15:12:43.351Z</time></trkpt><trkpt lat="37.873568" lon="12.4947711"><ele>20.0</ele><time>2026-04-25T15:12:44.35Z</time></trkpt><trkpt lat="37.8736846" lon="12.4948118"><ele>20.0</ele><time>2026-04-25T15:12:45.351Z</time></trkpt><trkpt lat="37.8737945" lon="12.4948479"><ele>20.0</ele><time>2026-04-25T15:12:46.351Z</time></trkpt><trkpt lat="37.8739097" lon="12.4948877"><ele>20.0</ele><time>2026-04-25T15:12:47.35Z</time></trkpt><trkpt lat="37.8740154" lon="12.4949115"><ele>20.0</ele><time>2026-04-25T15:12:48.351Z</time></trkpt><trkpt lat="37.8741361" lon="12.4949534"><ele>20.0</ele><time>2026-04-25T15:12:49.35Z</time></trkpt><trkpt lat="37.8742558" lon="12.4949844"><ele>20.0</ele><time>2026-04-25T15:12:50.351Z</time></trkpt><trkpt lat="37.8743746" lon="12.4950295"><ele>20.0</ele><time>2026-04-25T15:12:51.35Z</time></trkpt><trkpt lat="37.8744962" lon="12.4950786"><ele>20.0</ele><time>2026-04-25T15:12:52.351Z</time></trkpt><trkpt lat="37.874621" lon="12.4951247"><ele>20.25</ele><time>2026-04-25T15:12:53.351Z</time></trkpt><trkpt lat="37.8747581" lon="12.4951816"><ele>20.5</ele><time>2026-04-25T15:12:54.349Z</time></trkpt><trkpt lat="37.8748891" lon="12.4952261"><ele>20.75</ele><time>2026-04-25T15:12:55.351Z</time></trkpt><trkpt lat="37.8750193" lon="12.4952798"><ele>21.0</ele><time>2026-04-25T15:12:56.351Z</time></trkpt><trkpt lat="37.8751473" lon="12.4953242"><ele>21.25</ele><time>2026-04-25T15:12:57.35Z</time></trkpt><trkpt lat="37.8752752" lon="12.4953724"><ele>21.5</ele><time>2026-04-25T15:12:58.351Z</time></trkpt><trkpt lat="37.875405" lon="12.4954217"><ele>21.75</ele><time>2026-04-25T15:12:59.351Z</time></trkpt><trkpt lat="37.8755374" lon="12.4954691"><ele>22.0</ele><time>2026-04-25T15:13:00.352Z</time></trkpt><trkpt lat="37.8756659" lon="12.4955185"><ele>22.25</ele><time>2026-04-25T15:13:01.35Z</time></trkpt><trkpt lat="37.8757899" lon="12.4955723"><ele>22.5</ele><time>2026-04-25T15:13:02.351Z</time></trkpt><trkpt lat="37.8759178" lon="12.4956214"><ele>22.75</ele><time>2026-04-25T15:13:03.351Z</time></trkpt><trkpt lat="37.8760479" lon="12.4956668"><ele>23.0</ele><time>2026-04-25T15:13:04.35Z</time></trkpt><trkpt lat="37.8761823" lon="12.4957171"><ele>23.0</ele><time>2026-04-25T15:13:05.351Z</time></trkpt><trkpt lat="37.8763183" lon="12.4957643"><ele>23.0</ele><time>2026-04-25T15:13:06.351Z</time></trkpt><trkpt lat="37.8764519" lon="12.495811"><ele>23.0</ele><time>2026-04-25T15:13:07.351Z</time></trkpt><trkpt lat="37.8765924" lon="12.4958568"><ele>23.0</ele><time>2026-04-25T15:13:08.352Z</time></trkpt><trkpt lat="37.8767314" lon="12.4959025"><ele>23.0</ele><time>2026-04-25T15:13:09.35Z</time></trkpt><trkpt lat="37.8768653" lon="12.4959451"><ele>23.0</ele><time>2026-04-25T15:13:10.351Z</time></trkpt><trkpt lat="37.8769987" lon="12.4959895"><ele>23.0</ele><time>2026-04-25T15:13:11.351Z</time></trkpt><trkpt lat="37.8771325" lon="12.4960414"><ele>23.0</ele><time>2026-04-25T15:13:12.351Z</time></trkpt><trkpt lat="37.877269" lon="12.4960877"><ele>23.0</ele><time>2026-04-25T15:13:13.351Z</time></trkpt><trkpt lat="37.8774084" lon="12.4961379"><ele>23.0</ele><time>2026-04-25T15:13:14.351Z</time></trkpt><trkpt lat="37.8775425" lon="12.4961885"><ele>23.0</ele><time>2026-04-25T15:13:15.351Z</time></trkpt><trkpt lat="37.8776795" lon="12.4962413"><ele>23.0</ele><time>2026-04-25T15:13:16.351Z</time></trkpt><trkpt lat="37.8778051" lon="12.4962848"><ele>22.5</ele><time>2026-04-25T15:13:17.351Z</time></trkpt><trkpt lat="37.8779423" lon="12.4963358"><ele>22.0</ele><time>2026-04-25T15:13:18.351Z</time></trkpt><trkpt lat="37.878078" lon="12.496397"><ele>21.5</ele><time>2026-04-25T15:13:19.351Z</time></trkpt><trkpt lat="37.8782107" lon="12.4964501"><ele>21.0</ele><time>2026-04-25T15:13:20.35Z</time></trkpt><trkpt lat="37.8783306" lon="12.4964912"><ele>21.4</ele><time>2026-04-25T15:13:21.35Z</time></trkpt><trkpt lat="37.878438" lon="12.4965248"><ele>21.8</ele><time>2026-04-25T15:13:22.349Z</time></trkpt><trkpt lat="37.8785478" lon="12.4965636"><ele>22.2</ele><time>2026-04-25T15:13:23.351Z</time></trkpt><trkpt lat="37.878657" lon="12.4966033"><ele>22.599999999999998</ele><time>2026-04-25T15:13:24.351Z</time></trkpt><trkpt lat="37.8787626" lon="12.4966461"><ele>23.0</ele><time>2026-04-25T15:13:25.351Z</time></trkpt><trkpt lat="37.8788697" lon="12.496686"><ele>23.0</ele><time>2026-04-25T15:13:26.35Z</time></trkpt><trkpt lat="37.8789826" lon="12.4967353"><ele>23.0</ele><time>2026-04-25T15:13:27.351Z</time></trkpt><trkpt lat="37.8791163" lon="12.4967909"><ele>23.0</ele><time>2026-04-25T15:13:28.35Z</time></trkpt><trkpt lat="37.8792385" lon="12.4968359"><ele>23.0</ele><time>2026-04-25T15:13:29.35Z</time></trkpt><trkpt lat="37.8793726" lon="12.4968837"><ele>23.0</ele><time>2026-04-25T15:13:30.351Z</time></trkpt><trkpt lat="37.8795083" lon="12.4969297"><ele>23.0</ele><time>2026-04-25T15:13:31.352Z</time></trkpt><trkpt lat="37.8796376" lon="12.4969745"><ele>23.0</ele><time>2026-04-25T15:13:32.35Z</time></trkpt><trkpt lat="37.8797688" lon="12.4970224"><ele>23.0</ele><time>2026-04-25T15:13:33.35Z</time></trkpt><trkpt lat="37.8799091" lon="12.4970679"><ele>23.25</ele><time>2026-04-25T15:13:34.351Z</time></trkpt><trkpt lat="37.8800455" lon="12.4971157"><ele>23.5</ele><time>2026-04-25T15:13:35.35Z</time></trkpt><trkpt lat="37.8801842" lon="12.4971689"><ele>23.75</ele><time>2026-04-25T15:13:36.35Z</time></trkpt><trkpt lat="37.8803187" lon="12.4972173"><ele>24.0</ele><time>2026-04-25T15:13:37.351Z</time></trkpt><trkpt lat="37.88046" lon="12.4972756"><ele>24.0</ele><time>2026-04-25T15:13:38.351Z</time></trkpt><trkpt lat="37.8805942" lon="12.4973259"><ele>24.0</ele><time>2026-04-25T15:13:39.35Z</time></trkpt><trkpt lat="37.8807384" lon="12.4973781"><ele>24.0</ele><time>2026-04-25T15:13:40.351Z</time></trkpt><trkpt lat="37.8808876" lon="12.4974255"><ele>24.0</ele><time>2026-04-25T15:13:41.35Z</time></trkpt><trkpt lat="37.8810299" lon="12.4974665"><ele>23.666666666666668</ele><time>2026-04-25T15:13:42.351Z</time></trkpt><trkpt lat="37.8811776" lon="12.4975134"><ele>23.333333333333336</ele><time>2026-04-25T15:13:43.35Z</time></trkpt><trkpt lat="37.8813291" lon="12.497566"><ele>23.0</ele><time>2026-04-25T15:13:44.351Z</time></trkpt><trkpt lat="37.8814809" lon="12.4976218"><ele>23.0</ele><time>2026-04-25T15:13:45.352Z</time></trkpt><trkpt lat="37.8816347" lon="12.4976771"><ele>23.0</ele><time>2026-04-25T15:13:46.351Z</time></trkpt><trkpt lat="37.8817888" lon="12.497727"><ele>23.0</ele><time>2026-04-25T15:13:47.351Z</time></trkpt><trkpt lat="37.8819418" lon="12.4977846"><ele>23.666666666666668</ele><time>2026-04-25T15:13:48.351Z</time></trkpt><trkpt lat="37.8820979" lon="12.4978371"><ele>24.333333333333336</ele><time>2026-04-25T15:13:49.351Z</time></trkpt><trkpt lat="37.8822539" lon="12.4979025"><ele>25.0</ele><time>2026-04-25T15:13:50.351Z</time></trkpt><trkpt lat="37.8824081" lon="12.4979621"><ele>25.0</ele><time>2026-04-25T15:13:51.351Z</time></trkpt><trkpt lat="37.8825615" lon="12.4980247"><ele>25.0</ele><time>2026-04-25T15:13:52.35Z</time></trkpt><trkpt lat="37.8827209" lon="12.4980786"><ele>25.0</ele><time>2026-04-25T15:13:53.35Z</time></trkpt><trkpt lat="37.8828842" lon="12.4981371"><ele>25.0</ele><time>2026-04-25T15:13:54.351Z</time></trkpt><trkpt lat="37.8830385" lon="12.4981927"><ele>25.0</ele><time>2026-04-25T15:13:55.351Z</time></trkpt><trkpt lat="37.8831909" lon="12.4982551"><ele>25.0</ele><time>2026-04-25T15:13:56.351Z</time></trkpt><trkpt lat="37.8833499" lon="12.4983175"><ele>25.25</ele><time>2026-04-25T15:13:57.352Z</time></trkpt><trkpt lat="37.8834905" lon="12.4983706"><ele>25.5</ele><time>2026-04-25T15:13:58.351Z</time></trkpt><trkpt lat="37.8836269" lon="12.4984185"><ele>25.75</ele><time>2026-04-25T15:13:59.351Z</time></trkpt><trkpt lat="37.8837499" lon="12.4984525"><ele>26.0</ele><time>2026-04-25T15:14:00.351Z</time></trkpt><trkpt lat="37.8838458" lon="12.4984848"><ele>26.0</ele><time>2026-04-25T15:14:01.351Z</time></trkpt><trkpt lat="37.8839247" lon="12.498507"><ele>26.0</ele><time>2026-04-25T15:14:02.351Z</time></trkpt><trkpt lat="37.8840381" lon="12.4985302"><ele>26.0</ele><time>2026-04-25T15:14:04.351Z</time></trkpt><trkpt lat="37.8841544" lon="12.4985228"><ele>26.0</ele><time>2026-04-25T15:14:06.35Z</time></trkpt><trkpt lat="37.8842306" lon="12.4985111"><ele>26.0</ele><time>2026-04-25T15:14:07.351Z</time></trkpt><trkpt lat="37.8843227" lon="12.4985056"><ele>26.25</ele><time>2026-04-25T15:14:08.35Z</time></trkpt><trkpt lat="37.8844234" lon="12.498498"><ele>26.5</ele><time>2026-04-25T15:14:09.35Z</time></trkpt><trkpt lat="37.8845343" lon="12.4984884"><ele>26.75</ele><time>2026-04-25T15:14:10.351Z</time></trkpt><trkpt lat="37.8846527" lon="12.4984805"><ele>27.0</ele><time>2026-04-25T15:14:11.352Z</time></trkpt><trkpt lat="37.8847811" lon="12.4984715"><ele>27.0</ele><time>2026-04-25T15:14:12.351Z</time></trkpt><trkpt lat="37.884904" lon="12.4984655"><ele>27.0</ele><time>2026-04-25T15:14:13.351Z</time></trkpt><trkpt lat="37.8850378" lon="12.4984576"><ele>27.0</ele><time>2026-04-25T15:14:14.351Z</time></trkpt><trkpt lat="37.8851751" lon="12.4984484"><ele>27.0</ele><time>2026-04-25T15:14:15.351Z</time></trkpt><trkpt lat="37.8853135" lon="12.498444"><ele>26.75</ele><time>2026-04-25T15:14:16.352Z</time></trkpt><trkpt lat="37.8854617" lon="12.4984346"><ele>26.5</ele><time>2026-04-25T15:14:17.352Z</time></trkpt><trkpt lat="37.8856098" lon="12.498433"><ele>26.25</ele><time>2026-04-25T15:14:18.352Z</time></trkpt><trkpt lat="37.8857543" lon="12.4984178"><ele>26.0</ele><time>2026-04-25T15:14:19.35Z</time></trkpt><trkpt lat="37.885904" lon="12.498409"><ele>26.0</ele><time>2026-04-25T15:14:20.351Z</time></trkpt><trkpt lat="37.8860545" lon="12.4983995"><ele>26.0</ele><time>2026-04-25T15:14:21.351Z</time></trkpt><trkpt lat="37.8862066" lon="12.4983911"><ele>26.0</ele><time>2026-04-25T15:14:22.351Z</time></trkpt><trkpt lat="37.8863616" lon="12.4983782"><ele>26.0</ele><time>2026-04-25T15:14:23.351Z</time></trkpt><trkpt lat="37.8865168" lon="12.4983725"><ele>26.0</ele><time>2026-04-25T15:14:24.352Z</time></trkpt><trkpt lat="37.8866785" lon="12.4983671"><ele>26.0</ele><time>2026-04-25T15:14:25.351Z</time></trkpt><trkpt lat="37.8868368" lon="12.4983619"><ele>26.0</ele><time>2026-04-25T15:14:26.351Z</time></trkpt><trkpt lat="37.8870041" lon="12.4983647"><ele>26.0</ele><time>2026-04-25T15:14:27.351Z</time></trkpt><trkpt lat="37.8871683" lon="12.4983757"><ele>26.0</ele><time>2026-04-25T15:14:28.351Z</time></trkpt><trkpt lat="37.8873323" lon="12.4983901"><ele>26.0</ele><time>2026-04-25T15:14:29.351Z</time></trkpt><trkpt lat="37.8874965" lon="12.4983994"><ele>26.0</ele><time>2026-04-25T15:14:30.352Z</time></trkpt><trkpt lat="37.8876644" lon="12.4984104"><ele>26.0</ele><time>2026-04-25T15:14:31.351Z</time></trkpt><trkpt lat="37.8878259" lon="12.4984339"><ele>25.333333333333332</ele><time>2026-04-25T15:14:32.351Z</time></trkpt><trkpt lat="37.8879809" lon="12.4984608"><ele>24.666666666666664</ele><time>2026-04-25T15:14:33.351Z</time></trkpt><trkpt lat="37.8881411" lon="12.4984798"><ele>24.0</ele><time>2026-04-25T15:14:34.351Z</time></trkpt><trkpt lat="37.8883015" lon="12.4984903"><ele>23.666666666666668</ele><time>2026-04-25T15:14:35.351Z</time></trkpt><trkpt lat="37.8884547" lon="12.4985041"><ele>23.333333333333336</ele><time>2026-04-25T15:14:36.351Z</time></trkpt><trkpt lat="37.8886105" lon="12.4985276"><ele>23.0</ele><time>2026-04-25T15:14:37.351Z</time></trkpt><trkpt lat="37.8887664" lon="12.498544"><ele>23.0</ele><time>2026-04-25T15:14:38.351Z</time></trkpt><trkpt lat="37.8889259" lon="12.4985689"><ele>23.0</ele><time>2026-04-25T15:14:39.35Z</time></trkpt><trkpt lat="37.8890824" lon="12.4985918"><ele>23.0</ele><time>2026-04-25T15:14:40.351Z</time></trkpt><trkpt lat="37.8894049" lon="12.4986356"><ele>22.0</ele><time>2026-04-25T15:14:42.351Z</time></trkpt><trkpt lat="37.8897226" lon="12.4986851"><ele>21.0</ele><time>2026-04-25T15:14:44.35Z</time></trkpt><trkpt lat="37.889877" lon="12.4987139"><ele>21.0</ele><time>2026-04-25T15:14:45.35Z</time></trkpt><trkpt lat="37.89004" lon="12.4987273"><ele>21.0</ele><time>2026-04-25T15:14:46.351Z</time></trkpt><trkpt lat="37.8901983" lon="12.4987512"><ele>21.0</ele><time>2026-04-25T15:14:47.351Z</time></trkpt><trkpt lat="37.8903537" lon="12.4987713"><ele>21.0</ele><time>2026-04-25T15:14:48.351Z</time></trkpt><trkpt lat="37.8905134" lon="12.4987919"><ele>21.0</ele><time>2026-04-25T15:14:49.35Z</time></trkpt><trkpt lat="37.8906711" lon="12.4988074"><ele>21.0</ele><time>2026-04-25T15:14:50.351Z</time></trkpt><trkpt lat="37.8908266" lon="12.4988201"><ele>21.0</ele><time>2026-04-25T15:14:51.352Z</time></trkpt><trkpt lat="37.8909811" lon="12.4988383"><ele>21.0</ele><time>2026-04-25T15:14:52.351Z</time></trkpt><trkpt lat="37.8911356" lon="12.4988609"><ele>21.0</ele><time>2026-04-25T15:14:53.35Z</time></trkpt><trkpt lat="37.8912984" lon="12.4988732"><ele>21.0</ele><time>2026-04-25T15:14:54.351Z</time></trkpt><trkpt lat="37.8914542" lon="12.4988817"><ele>21.0</ele><time>2026-04-25T15:14:55.35Z</time></trkpt><trkpt lat="37.89161" lon="12.4988961"><ele>21.0</ele><time>2026-04-25T15:14:56.35Z</time></trkpt><trkpt lat="37.8917674" lon="12.4989119"><ele>21.0</ele><time>2026-04-25T15:14:57.352Z</time></trkpt><trkpt lat="37.891923" lon="12.49892"><ele>21.0</ele><time>2026-04-25T15:14:58.351Z</time></trkpt><trkpt lat="37.8920789" lon="12.4989356"><ele>21.0</ele><time>2026-04-25T15:14:59.351Z</time></trkpt><trkpt lat="37.8922364" lon="12.4989479"><ele>21.0</ele><time>2026-04-25T15:15:00.351Z</time></trkpt><trkpt lat="37.8923965" lon="12.4989609"><ele>21.0</ele><time>2026-04-25T15:15:01.35Z</time></trkpt><trkpt lat="37.8925576" lon="12.4989715"><ele>21.0</ele><time>2026-04-25T15:15:02.351Z</time></trkpt><trkpt lat="37.8928675" lon="12.4989935"><ele>19.333333333333332</ele><time>2026-04-25T15:15:04.352Z</time></trkpt><trkpt lat="37.8930153" lon="12.4990029"><ele>17.666666666666664</ele><time>2026-04-25T15:15:05.351Z</time></trkpt><trkpt lat="37.8931663" lon="12.4990169"><ele>16.0</ele><time>2026-04-25T15:15:06.35Z</time></trkpt><trkpt lat="37.893317" lon="12.4990319"><ele>15.666666666666666</ele><time>2026-04-25T15:15:07.35Z</time></trkpt><trkpt lat="37.8936092" lon="12.4990601"><ele>15.333333333333332</ele><time>2026-04-25T15:15:09.351Z</time></trkpt><trkpt lat="37.8937492" lon="12.4990759"><ele>15.0</ele><time>2026-04-25T15:15:10.351Z</time></trkpt><trkpt lat="37.893895" lon="12.4990887"><ele>15.0</ele><time>2026-04-25T15:15:11.351Z</time></trkpt><trkpt lat="37.8940387" lon="12.4991028"><ele>15.0</ele><time>2026-04-25T15:15:12.351Z</time></trkpt><trkpt lat="37.8941821" lon="12.4991152"><ele>15.0</ele><time>2026-04-25T15:15:13.351Z</time></trkpt><trkpt lat="37.8943223" lon="12.4991339"><ele>15.0</ele><time>2026-04-25T15:15:14.351Z</time></trkpt><trkpt lat="37.8944636" lon="12.4991533"><ele>14.75</ele><time>2026-04-25T15:15:15.352Z</time></trkpt><trkpt lat="37.8946034" lon="12.4991765"><ele>14.5</ele><time>2026-04-25T15:15:16.352Z</time></trkpt><trkpt lat="37.8947322" lon="12.499223"><ele>14.25</ele><time>2026-04-25T15:15:17.35Z</time></trkpt><trkpt lat="37.8948665" lon="12.4993008"><ele>14.0</ele><time>2026-04-25T15:15:18.351Z</time></trkpt><trkpt lat="37.8949894" lon="12.4993951"><ele>13.0</ele><time>2026-04-25T15:15:19.35Z</time></trkpt><trkpt lat="37.8951144" lon="12.4995044"><ele>12.0</ele><time>2026-04-25T15:15:20.351Z</time></trkpt><trkpt lat="37.8952454" lon="12.4996252"><ele>11.0</ele><time>2026-04-25T15:15:21.351Z</time></trkpt><trkpt lat="37.8953774" lon="12.4997512"><ele>11.0</ele><time>2026-04-25T15:15:22.35Z</time></trkpt><trkpt lat="37.8955071" lon="12.4998875"><ele>11.0</ele><time>2026-04-25T15:15:23.351Z</time></trkpt><trkpt lat="37.8956478" lon="12.5000328"><ele>11.0</ele><time>2026-04-25T15:15:24.351Z</time></trkpt><trkpt lat="37.8957849" lon="12.5001761"><ele>10.666666666666666</ele><time>2026-04-25T15:15:25.352Z</time></trkpt><trkpt lat="37.8959239" lon="12.5003273"><ele>10.333333333333334</ele><time>2026-04-25T15:15:26.352Z</time></trkpt><trkpt lat="37.8960548" lon="12.5004725"><ele>10.0</ele><time>2026-04-25T15:15:27.351Z</time></trkpt><trkpt lat="37.8961967" lon="12.5006231"><ele>10.666666666666668</ele><time>2026-04-25T15:15:28.35Z</time></trkpt><trkpt lat="37.8963281" lon="12.5007621"><ele>11.333333333333334</ele><time>2026-04-25T15:15:29.351Z</time></trkpt><trkpt lat="37.8964656" lon="12.5009113"><ele>12.0</ele><time>2026-04-25T15:15:30.352Z</time></trkpt><trkpt lat="37.896607" lon="12.5010515"><ele>12.0</ele><time>2026-04-25T15:15:31.351Z</time></trkpt><trkpt lat="37.89675" lon="12.5012032"><ele>12.0</ele><time>2026-04-25T15:15:32.351Z</time></trkpt><trkpt lat="37.8968922" lon="12.501352"><ele>12.0</ele><time>2026-04-25T15:15:33.352Z</time></trkpt><trkpt lat="37.8970254" lon="12.5014867"><ele>11.333333333333334</ele><time>2026-04-25T15:15:34.35Z</time></trkpt><trkpt lat="37.8971586" lon="12.501623"><ele>10.666666666666668</ele><time>2026-04-25T15:15:35.35Z</time></trkpt><trkpt lat="37.8972876" lon="12.5017617"><ele>10.0</ele><time>2026-04-25T15:15:36.351Z</time></trkpt><trkpt lat="37.8974265" lon="12.5019024"><ele>10.0</ele><time>2026-04-25T15:15:37.351Z</time></trkpt><trkpt lat="37.8975674" lon="12.5020429"><ele>10.0</ele><time>2026-04-25T15:15:38.352Z</time></trkpt><trkpt lat="37.8976957" lon="12.5021847"><ele>10.0</ele><time>2026-04-25T15:15:39.352Z</time></trkpt><trkpt lat="37.8978201" lon="12.5023212"><ele>10.0</ele><time>2026-04-25T15:15:40.35Z</time></trkpt><trkpt lat="37.8979424" lon="12.5024504"><ele>10.0</ele><time>2026-04-25T15:15:41.352Z</time></trkpt><trkpt lat="37.8980608" lon="12.5025727"><ele>10.0</ele><time>2026-04-25T15:15:42.352Z</time></trkpt><trkpt lat="37.8981617" lon="12.5026919"><ele>10.0</ele><time>2026-04-25T15:15:43.35Z</time></trkpt><trkpt lat="37.8982388" lon="12.5027965"><ele>10.0</ele><time>2026-04-25T15:15:44.351Z</time></trkpt><trkpt lat="37.8983093" lon="12.502897"><ele>10.0</ele><time>2026-04-25T15:15:45.351Z</time></trkpt><trkpt lat="37.8983234" lon="12.5029985"><ele>10.0</ele><time>2026-04-25T15:15:46.351Z</time></trkpt><trkpt lat="37.8983284" lon="12.5031198"><ele>10.0</ele><time>2026-04-25T15:15:47.351Z</time></trkpt><trkpt lat="37.898326" lon="12.503249"><ele>10.0</ele><time>2026-04-25T15:15:48.352Z</time></trkpt><trkpt lat="37.8983255" lon="12.5033776"><ele>10.0</ele><time>2026-04-25T15:15:49.351Z</time></trkpt><trkpt lat="37.8983834" lon="12.5035245"><ele>10.0</ele><time>2026-04-25T15:15:50.352Z</time></trkpt><trkpt lat="37.8984462" lon="12.5036685"><ele>10.0</ele><time>2026-04-25T15:15:51.351Z</time></trkpt><trkpt lat="37.8985213" lon="12.5038121"><ele>10.25</ele><time>2026-04-25T15:15:52.351Z</time></trkpt><trkpt lat="37.8985806" lon="12.503959"><ele>10.5</ele><time>2026-04-25T15:15:53.351Z</time></trkpt><trkpt lat="37.8986106" lon="12.5041274"><ele>10.75</ele><time>2026-04-25T15:15:54.351Z</time></trkpt><trkpt lat="37.8986208" lon="12.5043138"><ele>11.0</ele><time>2026-04-25T15:15:55.351Z</time></trkpt><trkpt lat="37.8985977" lon="12.504497"><ele>10.5</ele><time>2026-04-25T15:15:56.35Z</time></trkpt><trkpt lat="37.8985691" lon="12.5046708"><ele>10.0</ele><time>2026-04-25T15:15:57.351Z</time></trkpt><trkpt lat="37.8985219" lon="12.5048524"><ele>9.5</ele><time>2026-04-25T15:15:58.351Z</time></trkpt><trkpt lat="37.8984759" lon="12.5050361"><ele>9.0</ele><time>2026-04-25T15:15:59.351Z</time></trkpt><trkpt lat="37.8984366" lon="12.505224"><ele>9.333333333333334</ele><time>2026-04-25T15:16:00.351Z</time></trkpt><trkpt lat="37.8983935" lon="12.5054287"><ele>9.666666666666668</ele><time>2026-04-25T15:16:01.352Z</time></trkpt><trkpt lat="37.8983614" lon="12.5056359"><ele>10.0</ele><time>2026-04-25T15:16:02.352Z</time></trkpt><trkpt lat="37.8983523" lon="12.5058506"><ele>10.0</ele><time>2026-04-25T15:16:03.352Z</time></trkpt><trkpt lat="37.8983524" lon="12.5060716"><ele>10.0</ele><time>2026-04-25T15:16:04.351Z</time></trkpt><trkpt lat="37.8983691" lon="12.506292"><ele>10.0</ele><time>2026-04-25T15:16:05.352Z</time></trkpt><trkpt lat="37.8984027" lon="12.5065175"><ele>10.0</ele><time>2026-04-25T15:16:06.351Z</time></trkpt><trkpt lat="37.8984579" lon="12.5067374"><ele>10.0</ele><time>2026-04-25T15:16:07.351Z</time></trkpt><trkpt lat="37.8985292" lon="12.5069575"><ele>10.0</ele><time>2026-04-25T15:16:08.352Z</time></trkpt><trkpt lat="37.8986186" lon="12.5071671"><ele>10.0</ele><time>2026-04-25T15:16:09.351Z</time></trkpt><trkpt lat="37.8987271" lon="12.5073681"><ele>10.0</ele><time>2026-04-25T15:16:10.351Z</time></trkpt><trkpt lat="37.8988523" lon="12.5075544"><ele>10.0</ele><time>2026-04-25T15:16:11.352Z</time></trkpt><trkpt lat="37.8989865" lon="12.5077315"><ele>10.0</ele><time>2026-04-25T15:16:12.352Z</time></trkpt><trkpt lat="37.8991357" lon="12.5078866"><ele>10.0</ele><time>2026-04-25T15:16:13.352Z</time></trkpt><trkpt lat="37.899296" lon="12.5080289"><ele>10.0</ele><time>2026-04-25T15:16:14.351Z</time></trkpt><trkpt lat="37.8994591" lon="12.5081639"><ele>12.666666666666668</ele><time>2026-04-25T15:16:15.352Z</time></trkpt><trkpt lat="37.8996343" lon="12.5082995"><ele>15.333333333333334</ele><time>2026-04-25T15:16:16.351Z</time></trkpt><trkpt lat="37.8998004" lon="12.5084315"><ele>18.0</ele><time>2026-04-25T15:16:17.35Z</time></trkpt><trkpt lat="37.8999721" lon="12.508562"><ele>18.333333333333332</ele><time>2026-04-25T15:16:18.351Z</time></trkpt><trkpt lat="37.9001299" lon="12.5086876"><ele>18.666666666666664</ele><time>2026-04-25T15:16:19.35Z</time></trkpt><trkpt lat="37.9002876" lon="12.5088154"><ele>19.0</ele><time>2026-04-25T15:16:20.351Z</time></trkpt><trkpt lat="37.9004422" lon="12.5089432"><ele>19.333333333333332</ele><time>2026-04-25T15:16:21.351Z</time></trkpt><trkpt lat="37.9005992" lon="12.5090592"><ele>19.666666666666668</ele><time>2026-04-25T15:16:22.352Z</time></trkpt><trkpt lat="37.900759" lon="12.509179"><ele>20.0</ele><time>2026-04-25T15:16:23.351Z</time></trkpt><trkpt lat="37.9009167" lon="12.5093033"><ele>20.0</ele><time>2026-04-25T15:16:24.35Z</time></trkpt><trkpt lat="37.9010726" lon="12.5094302"><ele>20.0</ele><time>2026-04-25T15:16:25.351Z</time></trkpt><trkpt lat="37.9012337" lon="12.5095457"><ele>20.0</ele><time>2026-04-25T15:16:26.352Z</time></trkpt><trkpt lat="37.9013866" lon="12.509663"><ele>20.0</ele><time>2026-04-25T15:16:27.351Z</time></trkpt><trkpt lat="37.9015385" lon="12.5097849"><ele>20.0</ele><time>2026-04-25T15:16:28.352Z</time></trkpt><trkpt lat="37.9016958" lon="12.5099083"><ele>20.0</ele><time>2026-04-25T15:16:29.351Z</time></trkpt><trkpt lat="37.9018514" lon="12.5100312"><ele>20.0</ele><time>2026-04-25T15:16:30.351Z</time></trkpt><trkpt lat="37.9020028" lon="12.5101526"><ele>20.0</ele><time>2026-04-25T15:16:31.351Z</time></trkpt><trkpt lat="37.9021563" lon="12.5102729"><ele>20.0</ele><time>2026-04-25T15:16:32.352Z</time></trkpt><trkpt lat="37.902314" lon="12.5103909"><ele>20.666666666666668</ele><time>2026-04-25T15:16:33.352Z</time></trkpt><trkpt lat="37.902477" lon="12.5105002"><ele>21.333333333333332</ele><time>2026-04-25T15:16:34.351Z</time></trkpt><trkpt lat="37.9026447" lon="12.5106099"><ele>22.0</ele><time>2026-04-25T15:16:35.353Z</time></trkpt><trkpt lat="37.902816" lon="12.51071"><ele>22.0</ele><time>2026-04-25T15:16:36.352Z</time></trkpt><trkpt lat="37.9029911" lon="12.5108025"><ele>22.0</ele><time>2026-04-25T15:16:37.351Z</time></trkpt><trkpt lat="37.9031681" lon="12.5108911"><ele>22.0</ele><time>2026-04-25T15:16:38.351Z</time></trkpt><trkpt lat="37.9033458" lon="12.510969"><ele>21.333333333333332</ele><time>2026-04-25T15:16:39.352Z</time></trkpt><trkpt lat="37.9035322" lon="12.5110462"><ele>20.666666666666668</ele><time>2026-04-25T15:16:40.352Z</time></trkpt><trkpt lat="37.903717" lon="12.511115"><ele>20.0</ele><time>2026-04-25T15:16:41.351Z</time></trkpt><trkpt lat="37.903906" lon="12.5111769"><ele>20.0</ele><time>2026-04-25T15:16:42.352Z</time></trkpt><trkpt lat="37.9040968" lon="12.5112283"><ele>20.0</ele><time>2026-04-25T15:16:43.351Z</time></trkpt><trkpt lat="37.9042862" lon="12.5112722"><ele>20.0</ele><time>2026-04-25T15:16:44.351Z</time></trkpt><trkpt lat="37.9044822" lon="12.5113074"><ele>20.666666666666668</ele><time>2026-04-25T15:16:45.351Z</time></trkpt><trkpt lat="37.9046818" lon="12.5113388"><ele>21.333333333333332</ele><time>2026-04-25T15:16:46.351Z</time></trkpt><trkpt lat="37.9048781" lon="12.5113624"><ele>22.0</ele><time>2026-04-25T15:16:47.351Z</time></trkpt><trkpt lat="37.9050724" lon="12.5113723"><ele>21.666666666666664</ele><time>2026-04-25T15:16:48.351Z</time></trkpt><trkpt lat="37.9052694" lon="12.5113791"><ele>21.333333333333332</ele><time>2026-04-25T15:16:49.351Z</time></trkpt><trkpt lat="37.9054658" lon="12.5113736"><ele>21.0</ele><time>2026-04-25T15:16:50.351Z</time></trkpt><trkpt lat="37.9056631" lon="12.5113671"><ele>21.0</ele><time>2026-04-25T15:16:51.351Z</time></trkpt><trkpt lat="37.9058584" lon="12.5113477"><ele>21.0</ele><time>2026-04-25T15:16:52.352Z</time></trkpt><trkpt lat="37.9060511" lon="12.5113228"><ele>21.0</ele><time>2026-04-25T15:16:53.351Z</time></trkpt><trkpt lat="37.9062483" lon="12.5112875"><ele>21.0</ele><time>2026-04-25T15:16:54.352Z</time></trkpt><trkpt lat="37.9064495" lon="12.511241"><ele>21.0</ele><time>2026-04-25T15:16:55.35Z</time></trkpt><trkpt lat="37.9066414" lon="12.5111854"><ele>21.0</ele><time>2026-04-25T15:16:56.352Z</time></trkpt><trkpt lat="37.9068296" lon="12.5111299"><ele>20.666666666666668</ele><time>2026-04-25T15:16:57.352Z</time></trkpt><trkpt lat="37.907015" lon="12.5110673"><ele>20.333333333333336</ele><time>2026-04-25T15:16:58.351Z</time></trkpt><trkpt lat="37.9071908" lon="12.5110023"><ele>20.0</ele><time>2026-04-25T15:16:59.351Z</time></trkpt><trkpt lat="37.9073641" lon="12.5109343"><ele>20.0</ele><time>2026-04-25T15:17:00.352Z</time></trkpt><trkpt lat="37.9075367" lon="12.5108661"><ele>20.0</ele><time>2026-04-25T15:17:01.352Z</time></trkpt><trkpt lat="37.9077073" lon="12.5108006"><ele>20.0</ele><time>2026-04-25T15:17:02.353Z</time></trkpt><trkpt lat="37.9078823" lon="12.5107324"><ele>20.0</ele><time>2026-04-25T15:17:03.352Z</time></trkpt><trkpt lat="37.9080556" lon="12.5106688"><ele>20.0</ele><time>2026-04-25T15:17:04.35Z</time></trkpt><trkpt lat="37.9082284" lon="12.5105978"><ele>20.0</ele><time>2026-04-25T15:17:05.351Z</time></trkpt><trkpt lat="37.9084023" lon="12.5105301"><ele>19.666666666666668</ele><time>2026-04-25T15:17:06.351Z</time></trkpt><trkpt lat="37.9085718" lon="12.5104664"><ele>19.333333333333332</ele><time>2026-04-25T15:17:07.352Z</time></trkpt><trkpt lat="37.9087448" lon="12.5103999"><ele>19.0</ele><time>2026-04-25T15:17:08.351Z</time></trkpt><trkpt lat="37.908914" lon="12.5103314"><ele>19.0</ele><time>2026-04-25T15:17:09.352Z</time></trkpt><trkpt lat="37.9090862" lon="12.510265"><ele>19.0</ele><time>2026-04-25T15:17:10.351Z</time></trkpt><trkpt lat="37.909258" lon="12.5101946"><ele>19.0</ele><time>2026-04-25T15:17:11.351Z</time></trkpt><trkpt lat="37.9094277" lon="12.5101268"><ele>18.666666666666664</ele><time>2026-04-25T15:17:12.351Z</time></trkpt><trkpt lat="37.9096019" lon="12.510059"><ele>18.333333333333332</ele><time>2026-04-25T15:17:13.352Z</time></trkpt><trkpt lat="37.9097736" lon="12.5099907"><ele>18.0</ele><time>2026-04-25T15:17:14.352Z</time></trkpt><trkpt lat="37.9099442" lon="12.5099258"><ele>17.666666666666668</ele><time>2026-04-25T15:17:15.352Z</time></trkpt><trkpt lat="37.9101227" lon="12.5098553"><ele>17.333333333333336</ele><time>2026-04-25T15:17:16.353Z</time></trkpt><trkpt lat="37.9102976" lon="12.5097863"><ele>17.0</ele><time>2026-04-25T15:17:17.35Z</time></trkpt><trkpt lat="37.9104702" lon="12.5097169"><ele>17.0</ele><time>2026-04-25T15:17:18.351Z</time></trkpt><trkpt lat="37.9106477" lon="12.5096342"><ele>17.0</ele><time>2026-04-25T15:17:19.352Z</time></trkpt><trkpt lat="37.9108274" lon="12.5095691"><ele>17.0</ele><time>2026-04-25T15:17:20.352Z</time></trkpt><trkpt lat="37.9110117" lon="12.5095022"><ele>16.666666666666668</ele><time>2026-04-25T15:17:21.35Z</time></trkpt><trkpt lat="37.9111825" lon="12.5094355"><ele>16.333333333333332</ele><time>2026-04-25T15:17:22.352Z</time></trkpt><trkpt lat="37.9113472" lon="12.5093639"><ele>16.0</ele><time>2026-04-25T15:17:23.352Z</time></trkpt><trkpt lat="37.9115109" lon="12.5093019"><ele>16.0</ele><time>2026-04-25T15:17:24.352Z</time></trkpt><trkpt lat="37.9116714" lon="12.5092341"><ele>16.0</ele><time>2026-04-25T15:17:25.351Z</time></trkpt><trkpt lat="37.9118279" lon="12.5091735"><ele>16.0</ele><time>2026-04-25T15:17:26.352Z</time></trkpt><trkpt lat="37.9119871" lon="12.509108"><ele>15.333333333333332</ele><time>2026-04-25T15:17:27.351Z</time></trkpt><trkpt lat="37.9121543" lon="12.5090378"><ele>14.666666666666668</ele><time>2026-04-25T15:17:28.351Z</time></trkpt><trkpt lat="37.912321" lon="12.5089718"><ele>14.0</ele><time>2026-04-25T15:17:29.351Z</time></trkpt><trkpt lat="37.9124945" lon="12.5089067"><ele>13.666666666666668</ele><time>2026-04-25T15:17:30.351Z</time></trkpt><trkpt lat="37.9126679" lon="12.5088321"><ele>13.333333333333332</ele><time>2026-04-25T15:17:31.352Z</time></trkpt><trkpt lat="37.9128413" lon="12.5087681"><ele>13.0</ele><time>2026-04-25T15:17:32.352Z</time></trkpt><trkpt lat="37.913015" lon="12.5086963"><ele>13.333333333333332</ele><time>2026-04-25T15:17:33.351Z</time></trkpt><trkpt lat="37.9131897" lon="12.5086294"><ele>13.666666666666668</ele><time>2026-04-25T15:17:34.352Z</time></trkpt><trkpt lat="37.9133674" lon="12.508561"><ele>14.0</ele><time>2026-04-25T15:17:35.352Z</time></trkpt><trkpt lat="37.9135396" lon="12.5084892"><ele>14.0</ele><time>2026-04-25T15:17:36.352Z</time></trkpt><trkpt lat="37.9137129" lon="12.5084137"><ele>14.0</ele><time>2026-04-25T15:17:37.351Z</time></trkpt><trkpt lat="37.9138883" lon="12.5083459"><ele>14.0</ele><time>2026-04-25T15:17:38.351Z</time></trkpt><trkpt lat="37.9140641" lon="12.5082706"><ele>14.666666666666668</ele><time>2026-04-25T15:17:39.35Z</time></trkpt><trkpt lat="37.91424" lon="12.5082008"><ele>15.333333333333332</ele><time>2026-04-25T15:17:40.352Z</time></trkpt><trkpt lat="37.9144169" lon="12.5081266"><ele>16.0</ele><time>2026-04-25T15:17:41.351Z</time></trkpt><trkpt lat="37.9145953" lon="12.5080537"><ele>16.0</ele><time>2026-04-25T15:17:42.352Z</time></trkpt><trkpt lat="37.9147728" lon="12.5079868"><ele>16.0</ele><time>2026-04-25T15:17:43.352Z</time></trkpt><trkpt lat="37.914948" lon="12.5079185"><ele>16.0</ele><time>2026-04-25T15:17:44.351Z</time></trkpt><trkpt lat="37.9151258" lon="12.5078497"><ele>15.333333333333332</ele><time>2026-04-25T15:17:45.35Z</time></trkpt><trkpt lat="37.9153026" lon="12.5077781"><ele>14.666666666666668</ele><time>2026-04-25T15:17:46.352Z</time></trkpt><trkpt lat="37.9154798" lon="12.5077069"><ele>14.0</ele><time>2026-04-25T15:17:47.351Z</time></trkpt><trkpt lat="37.9156581" lon="12.5076311"><ele>14.0</ele><time>2026-04-25T15:17:48.352Z</time></trkpt><trkpt lat="37.9158386" lon="12.5075609"><ele>14.0</ele><time>2026-04-25T15:17:49.35Z</time></trkpt><trkpt lat="37.9160182" lon="12.5074867"><ele>14.0</ele><time>2026-04-25T15:17:50.352Z</time></trkpt><trkpt lat="37.9161998" lon="12.5074117"><ele>13.666666666666668</ele><time>2026-04-25T15:17:51.351Z</time></trkpt><trkpt lat="37.9163796" lon="12.5073348"><ele>13.333333333333332</ele><time>2026-04-25T15:17:52.351Z</time></trkpt><trkpt lat="37.9165568" lon="12.507263"><ele>13.0</ele><time>2026-04-25T15:17:53.352Z</time></trkpt><trkpt lat="37.9167369" lon="12.5071903"><ele>13.0</ele><time>2026-04-25T15:17:54.35Z</time></trkpt><trkpt lat="37.9169155" lon="12.5071161"><ele>13.0</ele><time>2026-04-25T15:17:55.352Z</time></trkpt><trkpt lat="37.9170953" lon="12.5070443"><ele>13.0</ele><time>2026-04-25T15:17:56.351Z</time></trkpt><trkpt lat="37.9172727" lon="12.5069724"><ele>12.333333333333332</ele><time>2026-04-25T15:17:57.351Z</time></trkpt><trkpt lat="37.9174502" lon="12.5068989"><ele>11.666666666666666</ele><time>2026-04-25T15:17:58.35Z</time></trkpt><trkpt lat="37.9176275" lon="12.5068243"><ele>11.0</ele><time>2026-04-25T15:17:59.351Z</time></trkpt><trkpt lat="37.917804" lon="12.5067505"><ele>11.0</ele><time>2026-04-25T15:18:00.351Z</time></trkpt><trkpt lat="37.9179775" lon="12.5066746"><ele>11.0</ele><time>2026-04-25T15:18:01.352Z</time></trkpt><trkpt lat="37.9181525" lon="12.5066036"><ele>11.0</ele><time>2026-04-25T15:18:02.351Z</time></trkpt><trkpt lat="37.9183303" lon="12.5065393"><ele>11.0</ele><time>2026-04-25T15:18:03.352Z</time></trkpt><trkpt lat="37.9185106" lon="12.5064729"><ele>11.0</ele><time>2026-04-25T15:18:04.352Z</time></trkpt><trkpt lat="37.9186914" lon="12.5064122"><ele>11.0</ele><time>2026-04-25T15:18:05.353Z</time></trkpt><trkpt lat="37.9188749" lon="12.5063613"><ele>11.0</ele><time>2026-04-25T15:18:06.352Z</time></trkpt><trkpt lat="37.9190559" lon="12.5063197"><ele>11.0</ele><time>2026-04-25T15:18:07.351Z</time></trkpt><trkpt lat="37.919232" lon="12.5062855"><ele>11.0</ele><time>2026-04-25T15:18:08.351Z</time></trkpt><trkpt lat="37.9194095" lon="12.506261"><ele>10.666666666666666</ele><time>2026-04-25T15:18:09.35Z</time></trkpt><trkpt lat="37.9195907" lon="12.5062338"><ele>10.333333333333334</ele><time>2026-04-25T15:18:10.351Z</time></trkpt><trkpt lat="37.9197701" lon="12.506211"><ele>10.0</ele><time>2026-04-25T15:18:11.352Z</time></trkpt><trkpt lat="37.9199503" lon="12.5061914"><ele>10.333333333333334</ele><time>2026-04-25T15:18:12.352Z</time></trkpt><trkpt lat="37.9201325" lon="12.506175"><ele>10.666666666666666</ele><time>2026-04-25T15:18:13.352Z</time></trkpt><trkpt lat="37.920306" lon="12.506151"><ele>11.0</ele><time>2026-04-25T15:18:14.351Z</time></trkpt><trkpt lat="37.9204893" lon="12.506122"><ele>11.0</ele><time>2026-04-25T15:18:15.352Z</time></trkpt><trkpt lat="37.9206635" lon="12.5060954"><ele>11.0</ele><time>2026-04-25T15:18:16.352Z</time></trkpt><trkpt lat="37.9208398" lon="12.5060646"><ele>11.0</ele><time>2026-04-25T15:18:17.351Z</time></trkpt><trkpt lat="37.9210144" lon="12.5060294"><ele>10.666666666666666</ele><time>2026-04-25T15:18:18.352Z</time></trkpt><trkpt lat="37.9211906" lon="12.5059802"><ele>10.333333333333334</ele><time>2026-04-25T15:18:19.351Z</time></trkpt><trkpt lat="37.9213648" lon="12.5059173"><ele>10.0</ele><time>2026-04-25T15:18:20.353Z</time></trkpt><trkpt lat="37.9215364" lon="12.5058547"><ele>10.0</ele><time>2026-04-25T15:18:21.352Z</time></trkpt><trkpt lat="37.9217096" lon="12.5057848"><ele>10.0</ele><time>2026-04-25T15:18:22.351Z</time></trkpt><trkpt lat="37.9218794" lon="12.5057136"><ele>10.0</ele><time>2026-04-25T15:18:23.351Z</time></trkpt><trkpt lat="37.9220508" lon="12.5056388"><ele>10.666666666666668</ele><time>2026-04-25T15:18:24.352Z</time></trkpt><trkpt lat="37.9222211" lon="12.5055648"><ele>11.333333333333334</ele><time>2026-04-25T15:18:25.352Z</time></trkpt><trkpt lat="37.9223833" lon="12.5054944"><ele>12.0</ele><time>2026-04-25T15:18:26.35Z</time></trkpt><trkpt lat="37.9225309" lon="12.5054274"><ele>11.75</ele><time>2026-04-25T15:18:27.352Z</time></trkpt><trkpt lat="37.9226727" lon="12.5053678"><ele>11.5</ele><time>2026-04-25T15:18:28.353Z</time></trkpt><trkpt lat="37.9228016" lon="12.5053112"><ele>11.25</ele><time>2026-04-25T15:18:29.351Z</time></trkpt><trkpt lat="37.9229127" lon="12.5052735"><ele>11.0</ele><time>2026-04-25T15:18:30.351Z</time></trkpt><trkpt lat="37.9230093" lon="12.5052621"><ele>11.0</ele><time>2026-04-25T15:18:31.351Z</time></trkpt><trkpt lat="37.9230853" lon="12.5052848"><ele>11.0</ele><time>2026-04-25T15:18:32.351Z</time></trkpt><trkpt lat="37.9231551" lon="12.5053375"><ele>11.0</ele><time>2026-04-25T15:18:33.352Z</time></trkpt><trkpt lat="37.9232084" lon="12.5054065"><ele>11.0</ele><time>2026-04-25T15:18:34.352Z</time></trkpt><trkpt lat="37.9232573" lon="12.5054883"><ele>11.0</ele><time>2026-04-25T15:18:35.351Z</time></trkpt><trkpt lat="37.9233109" lon="12.5055599"><ele>11.0</ele><time>2026-04-25T15:18:36.351Z</time></trkpt><trkpt lat="37.9233804" lon="12.5056131"><ele>12.0</ele><time>2026-04-25T15:18:37.352Z</time></trkpt><trkpt lat="37.9234686" lon="12.505645"><ele>13.0</ele><time>2026-04-25T15:18:38.351Z</time></trkpt><trkpt lat="37.9235769" lon="12.5056561"><ele>14.000000000000002</ele><time>2026-04-25T15:18:39.352Z</time></trkpt><trkpt lat="37.9236931" lon="12.5056492"><ele>15.0</ele><time>2026-04-25T15:18:40.351Z</time></trkpt><trkpt lat="37.923815" lon="12.5056384"><ele>16.0</ele><time>2026-04-25T15:18:41.352Z</time></trkpt><trkpt lat="37.9239351" lon="12.5056292"><ele>16.0</ele><time>2026-04-25T15:18:42.352Z</time></trkpt><trkpt lat="37.9240741" lon="12.5056261"><ele>16.0</ele><time>2026-04-25T15:18:43.351Z</time></trkpt><trkpt lat="37.9242227" lon="12.5056277"><ele>16.0</ele><time>2026-04-25T15:18:44.351Z</time></trkpt><trkpt lat="37.9243759" lon="12.505639"><ele>16.0</ele><time>2026-04-25T15:18:45.353Z</time></trkpt><trkpt lat="37.9245381" lon="12.5056608"><ele>16.333333333333332</ele><time>2026-04-25T15:18:46.351Z</time></trkpt><trkpt lat="37.9246974" lon="12.5056831"><ele>16.666666666666668</ele><time>2026-04-25T15:18:47.352Z</time></trkpt><trkpt lat="37.9248583" lon="12.5057003"><ele>17.0</ele><time>2026-04-25T15:18:48.35Z</time></trkpt><trkpt lat="37.925023" lon="12.5057176"><ele>17.0</ele><time>2026-04-25T15:18:49.351Z</time></trkpt><trkpt lat="37.9251938" lon="12.5057414"><ele>17.0</ele><time>2026-04-25T15:18:50.352Z</time></trkpt><trkpt lat="37.925359" lon="12.5057655"><ele>17.0</ele><time>2026-04-25T15:18:51.351Z</time></trkpt><trkpt lat="37.9255272" lon="12.5057974"><ele>17.0</ele><time>2026-04-25T15:18:52.352Z</time></trkpt><trkpt lat="37.925691" lon="12.505819"><ele>17.0</ele><time>2026-04-25T15:18:53.351Z</time></trkpt><trkpt lat="37.9258595" lon="12.5058398"><ele>17.0</ele><time>2026-04-25T15:18:54.352Z</time></trkpt><trkpt lat="37.9260265" lon="12.50586"><ele>16.666666666666668</ele><time>2026-04-25T15:18:55.352Z</time></trkpt><trkpt lat="37.9261976" lon="12.505874"><ele>16.333333333333332</ele><time>2026-04-25T15:18:56.352Z</time></trkpt><trkpt lat="37.9263659" lon="12.5058888"><ele>16.0</ele><time>2026-04-25T15:18:57.352Z</time></trkpt><trkpt lat="37.9265352" lon="12.5058969"><ele>16.0</ele><time>2026-04-25T15:18:58.352Z</time></trkpt><trkpt lat="37.9267041" lon="12.5058981"><ele>16.0</ele><time>2026-04-25T15:18:59.351Z</time></trkpt><trkpt lat="37.926874" lon="12.5058908"><ele>16.0</ele><time>2026-04-25T15:19:00.351Z</time></trkpt><trkpt lat="37.927037" lon="12.5058726"><ele>15.666666666666666</ele><time>2026-04-25T15:19:01.352Z</time></trkpt><trkpt lat="37.9272027" lon="12.5058471"><ele>15.333333333333332</ele><time>2026-04-25T15:19:02.352Z</time></trkpt><trkpt lat="37.927367" lon="12.5058338"><ele>15.0</ele><time>2026-04-25T15:19:03.351Z</time></trkpt><trkpt lat="37.927532" lon="12.5058092"><ele>15.666666666666668</ele><time>2026-04-25T15:19:04.352Z</time></trkpt><trkpt lat="37.92769" lon="12.5057897"><ele>16.333333333333336</ele><time>2026-04-25T15:19:05.352Z</time></trkpt><trkpt lat="37.9278493" lon="12.5057755"><ele>17.0</ele><time>2026-04-25T15:19:06.352Z</time></trkpt><trkpt lat="37.9280055" lon="12.5057674"><ele>17.0</ele><time>2026-04-25T15:19:07.351Z</time></trkpt><trkpt lat="37.9281679" lon="12.5057717"><ele>17.0</ele><time>2026-04-25T15:19:08.351Z</time></trkpt><trkpt lat="37.928324" lon="12.5057954"><ele>17.0</ele><time>2026-04-25T15:19:09.352Z</time></trkpt><trkpt lat="37.9284807" lon="12.5058433"><ele>17.0</ele><time>2026-04-25T15:19:10.351Z</time></trkpt><trkpt lat="37.9286425" lon="12.5059301"><ele>17.0</ele><time>2026-04-25T15:19:11.352Z</time></trkpt><trkpt lat="37.9287903" lon="12.5060283"><ele>17.0</ele><time>2026-04-25T15:19:12.351Z</time></trkpt><trkpt lat="37.9289342" lon="12.5061491"><ele>17.0</ele><time>2026-04-25T15:19:13.352Z</time></trkpt><trkpt lat="37.9290759" lon="12.506279"><ele>17.0</ele><time>2026-04-25T15:19:14.351Z</time></trkpt><trkpt lat="37.9292117" lon="12.5064112"><ele>17.0</ele><time>2026-04-25T15:19:15.351Z</time></trkpt><trkpt lat="37.9293425" lon="12.5065425"><ele>16.666666666666668</ele><time>2026-04-25T15:19:16.352Z</time></trkpt><trkpt lat="37.9294766" lon="12.5066711"><ele>16.333333333333332</ele><time>2026-04-25T15:19:17.352Z</time></trkpt><trkpt lat="37.9296081" lon="12.5068002"><ele>16.0</ele><time>2026-04-25T15:19:18.351Z</time></trkpt><trkpt lat="37.9297386" lon="12.5069262"><ele>16.0</ele><time>2026-04-25T15:19:19.352Z</time></trkpt><trkpt lat="37.9298775" lon="12.507052"><ele>16.0</ele><time>2026-04-25T15:19:20.351Z</time></trkpt><trkpt lat="37.9300088" lon="12.5071689"><ele>16.0</ele><time>2026-04-25T15:19:21.351Z</time></trkpt><trkpt lat="37.930143" lon="12.5072845"><ele>16.333333333333332</ele><time>2026-04-25T15:19:22.351Z</time></trkpt><trkpt lat="37.9302798" lon="12.5073915"><ele>16.666666666666668</ele><time>2026-04-25T15:19:23.351Z</time></trkpt><trkpt lat="37.9304278" lon="12.5074993"><ele>17.0</ele><time>2026-04-25T15:19:24.351Z</time></trkpt><trkpt lat="37.930575" lon="12.5075981"><ele>17.0</ele><time>2026-04-25T15:19:25.352Z</time></trkpt><trkpt lat="37.9307264" lon="12.5076771"><ele>17.0</ele><time>2026-04-25T15:19:26.351Z</time></trkpt><trkpt lat="37.930885" lon="12.5077476"><ele>17.0</ele><time>2026-04-25T15:19:27.352Z</time></trkpt><trkpt lat="37.9310445" lon="12.5078084"><ele>17.666666666666668</ele><time>2026-04-25T15:19:28.352Z</time></trkpt><trkpt lat="37.9312058" lon="12.5078594"><ele>18.333333333333332</ele><time>2026-04-25T15:19:29.351Z</time></trkpt><trkpt lat="37.9313707" lon="12.5079059"><ele>19.0</ele><time>2026-04-25T15:19:30.351Z</time></trkpt><trkpt lat="37.9315335" lon="12.5079549"><ele>19.0</ele><time>2026-04-25T15:19:31.351Z</time></trkpt><trkpt lat="37.9316893" lon="12.5080054"><ele>19.0</ele><time>2026-04-25T15:19:32.353Z</time></trkpt><trkpt lat="37.9318563" lon="12.5080616"><ele>19.0</ele><time>2026-04-25T15:19:33.352Z</time></trkpt><trkpt lat="37.9320233" lon="12.508112"><ele>20.333333333333332</ele><time>2026-04-25T15:19:34.352Z</time></trkpt><trkpt lat="37.9321936" lon="12.5081683"><ele>21.666666666666668</ele><time>2026-04-25T15:19:35.351Z</time></trkpt><trkpt lat="37.9323609" lon="12.5082209"><ele>23.0</ele><time>2026-04-25T15:19:36.353Z</time></trkpt><trkpt lat="37.9325376" lon="12.5082772"><ele>23.333333333333336</ele><time>2026-04-25T15:19:37.352Z</time></trkpt><trkpt lat="37.9327126" lon="12.5083295"><ele>23.666666666666668</ele><time>2026-04-25T15:19:38.353Z</time></trkpt><trkpt lat="37.9328923" lon="12.508379"><ele>24.0</ele><time>2026-04-25T15:19:39.352Z</time></trkpt><trkpt lat="37.9330712" lon="12.5084378"><ele>24.0</ele><time>2026-04-25T15:19:40.351Z</time></trkpt><trkpt lat="37.9332336" lon="12.5084908"><ele>24.0</ele><time>2026-04-25T15:19:41.352Z</time></trkpt><trkpt lat="37.9333893" lon="12.5085382"><ele>24.0</ele><time>2026-04-25T15:19:42.352Z</time></trkpt><trkpt lat="37.9335457" lon="12.5085859"><ele>23.666666666666668</ele><time>2026-04-25T15:19:43.351Z</time></trkpt><trkpt lat="37.9337008" lon="12.5086424"><ele>23.333333333333336</ele><time>2026-04-25T15:19:44.351Z</time></trkpt><trkpt lat="37.9338584" lon="12.5086891"><ele>23.0</ele><time>2026-04-25T15:19:45.352Z</time></trkpt><trkpt lat="37.9340156" lon="12.5087347"><ele>23.333333333333336</ele><time>2026-04-25T15:19:46.352Z</time></trkpt><trkpt lat="37.9341638" lon="12.5087841"><ele>23.666666666666668</ele><time>2026-04-25T15:19:47.353Z</time></trkpt><trkpt lat="37.9343117" lon="12.5088323"><ele>24.0</ele><time>2026-04-25T15:19:48.353Z</time></trkpt><trkpt lat="37.9344599" lon="12.5088794"><ele>25.0</ele><time>2026-04-25T15:19:49.352Z</time></trkpt><trkpt lat="37.9346126" lon="12.5089282"><ele>26.0</ele><time>2026-04-25T15:19:50.352Z</time></trkpt><trkpt lat="37.9347582" lon="12.5089711"><ele>27.0</ele><time>2026-04-25T15:19:51.352Z</time></trkpt><trkpt lat="37.9349073" lon="12.5090162"><ele>26.333333333333336</ele><time>2026-04-25T15:19:52.352Z</time></trkpt><trkpt lat="37.9350568" lon="12.5090627"><ele>25.666666666666668</ele><time>2026-04-25T15:19:53.352Z</time></trkpt><trkpt lat="37.9352093" lon="12.5091107"><ele>25.0</ele><time>2026-04-25T15:19:54.35Z</time></trkpt><trkpt lat="37.935362" lon="12.5091569"><ele>25.0</ele><time>2026-04-25T15:19:55.351Z</time></trkpt><trkpt lat="37.9355143" lon="12.5092013"><ele>25.0</ele><time>2026-04-25T15:19:56.352Z</time></trkpt><trkpt lat="37.9356582" lon="12.5092373"><ele>25.0</ele><time>2026-04-25T15:19:57.351Z</time></trkpt><trkpt lat="37.9357972" lon="12.5092662"><ele>25.0</ele><time>2026-04-25T15:19:58.352Z</time></trkpt><trkpt lat="37.9359278" lon="12.509289"><ele>25.5</ele><time>2026-04-25T15:19:59.352Z</time></trkpt><trkpt lat="37.9360574" lon="12.5093068"><ele>26.0</ele><time>2026-04-25T15:20:00.352Z</time></trkpt><trkpt lat="37.9361825" lon="12.5093211"><ele>26.5</ele><time>2026-04-25T15:20:01.352Z</time></trkpt><trkpt lat="37.9363032" lon="12.5093258"><ele>27.0</ele><time>2026-04-25T15:20:02.352Z</time></trkpt><trkpt lat="37.9364191" lon="12.5093359"><ele>27.0</ele><time>2026-04-25T15:20:03.351Z</time></trkpt><trkpt lat="37.9365292" lon="12.509349"><ele>27.0</ele><time>2026-04-25T15:20:04.352Z</time></trkpt><trkpt lat="37.9366433" lon="12.509353"><ele>27.0</ele><time>2026-04-25T15:20:05.352Z</time></trkpt><trkpt lat="37.9367584" lon="12.5093571"><ele>27.0</ele><time>2026-04-25T15:20:06.352Z</time></trkpt><trkpt lat="37.936876" lon="12.5093592"><ele>27.25</ele><time>2026-04-25T15:20:07.352Z</time></trkpt><trkpt lat="37.936992" lon="12.5093683"><ele>27.5</ele><time>2026-04-25T15:20:08.352Z</time></trkpt><trkpt lat="37.9371119" lon="12.5093785"><ele>27.75</ele><time>2026-04-25T15:20:09.352Z</time></trkpt><trkpt lat="37.9372294" lon="12.5093814"><ele>28.0</ele><time>2026-04-25T15:20:10.353Z</time></trkpt><trkpt lat="37.9373482" lon="12.5093905"><ele>28.0</ele><time>2026-04-25T15:20:11.351Z</time></trkpt><trkpt lat="37.9374599" lon="12.5093969"><ele>27.999999999999996</ele><time>2026-04-25T15:20:12.353Z</time></trkpt><trkpt lat="37.9375631" lon="12.5094012"><ele>27.999999999999996</ele><time>2026-04-25T15:20:13.352Z</time></trkpt><trkpt lat="37.937664" lon="12.5094046"><ele>28.0</ele><time>2026-04-25T15:20:14.352Z</time></trkpt><trkpt lat="37.9377584" lon="12.5094075"><ele>28.0</ele><time>2026-04-25T15:20:15.351Z</time></trkpt><trkpt lat="37.9378481" lon="12.509411"><ele>27.25</ele><time>2026-04-25T15:20:16.352Z</time></trkpt><trkpt lat="37.9379475" lon="12.5094142"><ele>26.5</ele><time>2026-04-25T15:20:17.352Z</time></trkpt><trkpt lat="37.9380453" lon="12.5094131"><ele>25.75</ele><time>2026-04-25T15:20:18.351Z</time></trkpt><trkpt lat="37.9382701" lon="12.509417"><ele>25.0</ele><time>2026-04-25T15:20:20.352Z</time></trkpt><trkpt lat="37.9383823" lon="12.5094245"><ele>25.4</ele><time>2026-04-25T15:20:21.352Z</time></trkpt><trkpt lat="37.9384947" lon="12.5094419"><ele>25.8</ele><time>2026-04-25T15:20:22.352Z</time></trkpt><trkpt lat="37.938596" lon="12.5094462"><ele>26.200000000000003</ele><time>2026-04-25T15:20:23.351Z</time></trkpt><trkpt lat="37.9386916" lon="12.5094525"><ele>26.6</ele><time>2026-04-25T15:20:24.352Z</time></trkpt><trkpt lat="37.9387784" lon="12.5094598"><ele>27.0</ele><time>2026-04-25T15:20:25.352Z</time></trkpt><trkpt lat="37.9388675" lon="12.5094631"><ele>27.0</ele><time>2026-04-25T15:20:26.351Z</time></trkpt><trkpt lat="37.9389505" lon="12.5094686"><ele>27.0</ele><time>2026-04-25T15:20:27.352Z</time></trkpt><trkpt lat="37.9390329" lon="12.5094771"><ele>27.0</ele><time>2026-04-25T15:20:28.351Z</time></trkpt><trkpt lat="37.9391107" lon="12.5094931"><ele>27.0</ele><time>2026-04-25T15:20:29.351Z</time></trkpt><trkpt lat="37.9391923" lon="12.5095106"><ele>27.0</ele><time>2026-04-25T15:20:30.352Z</time></trkpt><trkpt lat="37.9392616" lon="12.509521"><ele>27.0</ele><time>2026-04-25T15:20:31.352Z</time></trkpt><trkpt lat="37.9393242" lon="12.5095356"><ele>27.200000000000003</ele><time>2026-04-25T15:20:32.352Z</time></trkpt><trkpt lat="37.9393961" lon="12.5095581"><ele>27.400000000000002</ele><time>2026-04-25T15:20:33.352Z</time></trkpt><trkpt lat="37.9394802" lon="12.5095861"><ele>27.599999999999998</ele><time>2026-04-25T15:20:34.352Z</time></trkpt><trkpt lat="37.9395757" lon="12.5096107"><ele>27.799999999999997</ele><time>2026-04-25T15:20:35.352Z</time></trkpt><trkpt lat="37.9396816" lon="12.5096427"><ele>28.0</ele><time>2026-04-25T15:20:36.351Z</time></trkpt><trkpt lat="37.9397908" lon="12.5096731"><ele>28.0</ele><time>2026-04-25T15:20:37.352Z</time></trkpt><trkpt lat="37.9399108" lon="12.5097013"><ele>28.0</ele><time>2026-04-25T15:20:38.351Z</time></trkpt><trkpt lat="37.9400331" lon="12.5097391"><ele>28.0</ele><time>2026-04-25T15:20:39.352Z</time></trkpt><trkpt lat="37.9401586" lon="12.5097791"><ele>28.0</ele><time>2026-04-25T15:20:40.352Z</time></trkpt><trkpt lat="37.9402779" lon="12.5098154"><ele>27.5</ele><time>2026-04-25T15:20:41.352Z</time></trkpt><trkpt lat="37.9404031" lon="12.5098532"><ele>27.0</ele><time>2026-04-25T15:20:42.351Z</time></trkpt><trkpt lat="37.9405165" lon="12.5098878"><ele>26.5</ele><time>2026-04-25T15:20:43.352Z</time></trkpt><trkpt lat="37.9406348" lon="12.5099261"><ele>26.0</ele><time>2026-04-25T15:20:44.352Z</time></trkpt><trkpt lat="37.9407546" lon="12.5099609"><ele>26.0</ele><time>2026-04-25T15:20:45.351Z</time></trkpt><trkpt lat="37.940874" lon="12.5099959"><ele>26.0</ele><time>2026-04-25T15:20:46.351Z</time></trkpt><trkpt lat="37.9409978" lon="12.5100385"><ele>26.0</ele><time>2026-04-25T15:20:47.352Z</time></trkpt><trkpt lat="37.9411136" lon="12.5100717"><ele>26.0</ele><time>2026-04-25T15:20:48.352Z</time></trkpt><trkpt lat="37.9412373" lon="12.510109"><ele>25.0</ele><time>2026-04-25T15:20:49.352Z</time></trkpt><trkpt lat="37.9413599" lon="12.5101426"><ele>24.0</ele><time>2026-04-25T15:20:50.352Z</time></trkpt><trkpt lat="37.9414813" lon="12.5101849"><ele>23.0</ele><time>2026-04-25T15:20:51.352Z</time></trkpt><trkpt lat="37.941613" lon="12.5102296"><ele>22.0</ele><time>2026-04-25T15:20:52.352Z</time></trkpt><trkpt lat="37.9417431" lon="12.5102794"><ele>22.0</ele><time>2026-04-25T15:20:53.351Z</time></trkpt><trkpt lat="37.9418797" lon="12.5103234"><ele>22.0</ele><time>2026-04-25T15:20:54.352Z</time></trkpt><trkpt lat="37.9420194" lon="12.510374"><ele>22.0</ele><time>2026-04-25T15:20:55.352Z</time></trkpt><trkpt lat="37.9421588" lon="12.5104188"><ele>22.0</ele><time>2026-04-25T15:20:56.352Z</time></trkpt><trkpt lat="37.9422876" lon="12.5104614"><ele>22.25</ele><time>2026-04-25T15:20:57.351Z</time></trkpt><trkpt lat="37.9424238" lon="12.5105048"><ele>22.5</ele><time>2026-04-25T15:20:58.352Z</time></trkpt><trkpt lat="37.9425556" lon="12.5105622"><ele>22.75</ele><time>2026-04-25T15:20:59.352Z</time></trkpt><trkpt lat="37.9426904" lon="12.5106229"><ele>23.0</ele><time>2026-04-25T15:21:00.352Z</time></trkpt><trkpt lat="37.9428163" lon="12.5106905"><ele>21.666666666666668</ele><time>2026-04-25T15:21:01.352Z</time></trkpt><trkpt lat="37.9429471" lon="12.5107889"><ele>20.333333333333332</ele><time>2026-04-25T15:21:02.352Z</time></trkpt><trkpt lat="37.9430812" lon="12.510874"><ele>19.0</ele><time>2026-04-25T15:21:03.352Z</time></trkpt><trkpt lat="37.9432119" lon="12.5109664"><ele>19.0</ele><time>2026-04-25T15:21:04.352Z</time></trkpt><trkpt lat="37.943341" lon="12.5110542"><ele>19.0</ele><time>2026-04-25T15:21:05.352Z</time></trkpt><trkpt lat="37.9434802" lon="12.5111396"><ele>19.0</ele><time>2026-04-25T15:21:06.352Z</time></trkpt><trkpt lat="37.9436118" lon="12.5112306"><ele>19.0</ele><time>2026-04-25T15:21:07.352Z</time></trkpt><trkpt lat="37.9437401" lon="12.5113236"><ele>19.0</ele><time>2026-04-25T15:21:08.352Z</time></trkpt><trkpt lat="37.9438696" lon="12.5114114"><ele>19.0</ele><time>2026-04-25T15:21:09.352Z</time></trkpt><trkpt lat="37.9439866" lon="12.5114937"><ele>19.0</ele><time>2026-04-25T15:21:10.351Z</time></trkpt><trkpt lat="37.9441002" lon="12.5115727"><ele>19.0</ele><time>2026-04-25T15:21:11.352Z</time></trkpt><trkpt lat="37.9442091" lon="12.5116532"><ele>19.0</ele><time>2026-04-25T15:21:12.352Z</time></trkpt><trkpt lat="37.9443144" lon="12.5117286"><ele>19.0</ele><time>2026-04-25T15:21:13.352Z</time></trkpt><trkpt lat="37.9444143" lon="12.5118027"><ele>19.0</ele><time>2026-04-25T15:21:14.353Z</time></trkpt><trkpt lat="37.9445048" lon="12.5118676"><ele>19.166666666666664</ele><time>2026-04-25T15:21:15.352Z</time></trkpt><trkpt lat="37.9445821" lon="12.5119248"><ele>19.333333333333332</ele><time>2026-04-25T15:21:16.353Z</time></trkpt><trkpt lat="37.9446444" lon="12.5119658"><ele>19.5</ele><time>2026-04-25T15:21:17.352Z</time></trkpt><trkpt lat="37.9447232" lon="12.5120201"><ele>19.666666666666668</ele><time>2026-04-25T15:21:19.351Z</time></trkpt><trkpt lat="37.9447758" lon="12.5120756"><ele>19.833333333333336</ele><time>2026-04-25T15:21:22.352Z</time></trkpt><trkpt lat="37.9448767" lon="12.5121068"><ele>20.0</ele><time>2026-04-25T15:21:34.352Z</time></trkpt><trkpt lat="37.9450079" lon="12.5121845"><ele>19.25</ele><time>2026-04-25T15:21:36.352Z</time></trkpt><trkpt lat="37.9451022" lon="12.5122433"><ele>18.5</ele><time>2026-04-25T15:21:37.353Z</time></trkpt><trkpt lat="37.9452044" lon="12.5123059"><ele>17.75</ele><time>2026-04-25T15:21:38.352Z</time></trkpt><trkpt lat="37.945323" lon="12.5123744"><ele>17.0</ele><time>2026-04-25T15:21:39.353Z</time></trkpt><trkpt lat="37.9454535" lon="12.5124465"><ele>17.0</ele><time>2026-04-25T15:21:40.352Z</time></trkpt><trkpt lat="37.9455866" lon="12.5125259"><ele>17.0</ele><time>2026-04-25T15:21:41.352Z</time></trkpt><trkpt lat="37.9457262" lon="12.5126055"><ele>17.0</ele><time>2026-04-25T15:21:42.352Z</time></trkpt><trkpt lat="37.9458656" lon="12.512694"><ele>15.333333333333334</ele><time>2026-04-25T15:21:43.353Z</time></trkpt><trkpt lat="37.9460115" lon="12.5127829"><ele>13.666666666666668</ele><time>2026-04-25T15:21:44.351Z</time></trkpt><trkpt lat="37.9461622" lon="12.5128779"><ele>12.0</ele><time>2026-04-25T15:21:45.353Z</time></trkpt><trkpt lat="37.9463135" lon="12.5129637"><ele>11.666666666666666</ele><time>2026-04-25T15:21:46.351Z</time></trkpt><trkpt lat="37.9464664" lon="12.5130474"><ele>11.333333333333332</ele><time>2026-04-25T15:21:47.352Z</time></trkpt><trkpt lat="37.9466146" lon="12.5131443"><ele>11.0</ele><time>2026-04-25T15:21:48.352Z</time></trkpt><trkpt lat="37.9467718" lon="12.5132381"><ele>10.333333333333332</ele><time>2026-04-25T15:21:49.352Z</time></trkpt><trkpt lat="37.946926" lon="12.5133373"><ele>9.666666666666666</ele><time>2026-04-25T15:21:50.352Z</time></trkpt><trkpt lat="37.9470788" lon="12.5134348"><ele>9.0</ele><time>2026-04-25T15:21:51.352Z</time></trkpt><trkpt lat="37.9472282" lon="12.5135258"><ele>9.0</ele><time>2026-04-25T15:21:52.352Z</time></trkpt><trkpt lat="37.9473774" lon="12.5136229"><ele>9.0</ele><time>2026-04-25T15:21:53.352Z</time></trkpt><trkpt lat="37.9475237" lon="12.5137097"><ele>9.0</ele><time>2026-04-25T15:21:54.353Z</time></trkpt><trkpt lat="37.947659" lon="12.5137927"><ele>8.75</ele><time>2026-04-25T15:21:55.352Z</time></trkpt><trkpt lat="37.9477829" lon="12.5138785"><ele>8.5</ele><time>2026-04-25T15:21:56.352Z</time></trkpt><trkpt lat="37.9479046" lon="12.5139586"><ele>8.25</ele><time>2026-04-25T15:21:57.352Z</time></trkpt><trkpt lat="37.9480222" lon="12.5140336"><ele>8.0</ele><time>2026-04-25T15:21:58.352Z</time></trkpt><trkpt lat="37.9481349" lon="12.5141046"><ele>8.0</ele><time>2026-04-25T15:21:59.353Z</time></trkpt><trkpt lat="37.948242" lon="12.5141748"><ele>8.0</ele><time>2026-04-25T15:22:00.352Z</time></trkpt><trkpt lat="37.9483438" lon="12.5142352"><ele>8.0</ele><time>2026-04-25T15:22:01.353Z</time></trkpt><trkpt lat="37.9484333" lon="12.5142884"><ele>8.0</ele><time>2026-04-25T15:22:02.352Z</time></trkpt><trkpt lat="37.9485191" lon="12.5143408"><ele>8.0</ele><time>2026-04-25T15:22:03.352Z</time></trkpt><trkpt lat="37.9485972" lon="12.5143886"><ele>8.4</ele><time>2026-04-25T15:22:04.352Z</time></trkpt><trkpt lat="37.9486859" lon="12.5144152"><ele>8.8</ele><time>2026-04-25T15:22:05.353Z</time></trkpt><trkpt lat="37.9487861" lon="12.5144188"><ele>9.2</ele><time>2026-04-25T15:22:06.352Z</time></trkpt><trkpt lat="37.9488839" lon="12.514395"><ele>9.6</ele><time>2026-04-25T15:22:07.352Z</time></trkpt><trkpt lat="37.9489778" lon="12.5143544"><ele>10.0</ele><time>2026-04-25T15:22:08.352Z</time></trkpt><trkpt lat="37.949077" lon="12.5143119"><ele>10.0</ele><time>2026-04-25T15:22:09.352Z</time></trkpt><trkpt lat="37.9491769" lon="12.514275"><ele>10.0</ele><time>2026-04-25T15:22:10.353Z</time></trkpt><trkpt lat="37.9492776" lon="12.5142368"><ele>10.0</ele><time>2026-04-25T15:22:11.351Z</time></trkpt><trkpt lat="37.9493797" lon="12.5141989"><ele>10.0</ele><time>2026-04-25T15:22:12.352Z</time></trkpt><trkpt lat="37.949486" lon="12.5141595"><ele>10.0</ele><time>2026-04-25T15:22:13.352Z</time></trkpt><trkpt lat="37.9495927" lon="12.5141113"><ele>12.0</ele><time>2026-04-25T15:22:14.351Z</time></trkpt><trkpt lat="37.9497016" lon="12.5140644"><ele>14.0</ele><time>2026-04-25T15:22:15.351Z</time></trkpt><trkpt lat="37.9498091" lon="12.5140174"><ele>16.0</ele><time>2026-04-25T15:22:16.353Z</time></trkpt><trkpt lat="37.9499138" lon="12.5139717"><ele>18.0</ele><time>2026-04-25T15:22:17.352Z</time></trkpt><trkpt lat="37.9500193" lon="12.5139252"><ele>18.8</ele><time>2026-04-25T15:22:18.352Z</time></trkpt><trkpt lat="37.9501158" lon="12.5138844"><ele>19.6</ele><time>2026-04-25T15:22:19.352Z</time></trkpt><trkpt lat="37.9502114" lon="12.5138481"><ele>20.400000000000002</ele><time>2026-04-25T15:22:20.352Z</time></trkpt><trkpt lat="37.9503025" lon="12.5138321"><ele>21.200000000000003</ele><time>2026-04-25T15:22:21.352Z</time></trkpt><trkpt lat="37.9503893" lon="12.5138397"><ele>22.0</ele><time>2026-04-25T15:22:22.352Z</time></trkpt><trkpt lat="37.9504714" lon="12.5138561"><ele>22.0</ele><time>2026-04-25T15:22:23.351Z</time></trkpt><trkpt lat="37.9505499" lon="12.5138893"><ele>22.0</ele><time>2026-04-25T15:22:24.352Z</time></trkpt><trkpt lat="37.950629" lon="12.5139177"><ele>22.0</ele><time>2026-04-25T15:22:25.351Z</time></trkpt><trkpt lat="37.9507092" lon="12.5139466"><ele>22.0</ele><time>2026-04-25T15:22:26.352Z</time></trkpt><trkpt lat="37.9507855" lon="12.5139784"><ele>22.0</ele><time>2026-04-25T15:22:27.352Z</time></trkpt><trkpt lat="37.9508609" lon="12.5140074"><ele>22.0</ele><time>2026-04-25T15:22:28.352Z</time></trkpt><trkpt lat="37.9509282" lon="12.5140396"><ele>22.166666666666664</ele><time>2026-04-25T15:22:29.353Z</time></trkpt><trkpt lat="37.9510226" lon="12.5141004"><ele>22.333333333333332</ele><time>2026-04-25T15:22:31.352Z</time></trkpt><trkpt lat="37.9511041" lon="12.5141461"><ele>22.5</ele><time>2026-04-25T15:22:33.352Z</time></trkpt><trkpt lat="37.9511688" lon="12.5141733"><ele>22.666666666666668</ele><time>2026-04-25T15:22:52.352Z</time></trkpt><trkpt lat="37.9512528" lon="12.5142326"><ele>22.833333333333336</ele><time>2026-04-25T15:22:54.353Z</time></trkpt><trkpt lat="37.9513117" lon="12.514272"><ele>23.0</ele><time>2026-04-25T15:22:55.353Z</time></trkpt><trkpt lat="37.9513887" lon="12.5143205"><ele>23.0</ele><time>2026-04-25T15:22:56.352Z</time></trkpt><trkpt lat="37.951473" lon="12.5143745"><ele>23.0</ele><time>2026-04-25T15:22:57.351Z</time></trkpt><trkpt lat="37.9515746" lon="12.5144388"><ele>23.0</ele><time>2026-04-25T15:22:58.353Z</time></trkpt><trkpt lat="37.9516751" lon="12.5145058"><ele>23.0</ele><time>2026-04-25T15:22:59.352Z</time></trkpt><trkpt lat="37.951784" lon="12.5145704"><ele>23.0</ele><time>2026-04-25T15:23:00.351Z</time></trkpt><trkpt lat="37.9519015" lon="12.5146402"><ele>23.25</ele><time>2026-04-25T15:23:01.352Z</time></trkpt><trkpt lat="37.9520206" lon="12.5147087"><ele>23.5</ele><time>2026-04-25T15:23:02.352Z</time></trkpt><trkpt lat="37.9521566" lon="12.514778"><ele>23.75</ele><time>2026-04-25T15:23:03.353Z</time></trkpt><trkpt lat="37.9522672" lon="12.5148539"><ele>24.0</ele><time>2026-04-25T15:23:04.352Z</time></trkpt><trkpt lat="37.9523723" lon="12.5149186"><ele>24.0</ele><time>2026-04-25T15:23:05.352Z</time></trkpt><trkpt lat="37.9524813" lon="12.5149844"><ele>24.0</ele><time>2026-04-25T15:23:06.351Z</time></trkpt><trkpt lat="37.9525846" lon="12.5150526"><ele>24.0</ele><time>2026-04-25T15:23:07.352Z</time></trkpt><trkpt lat="37.9527108" lon="12.5151274"><ele>24.0</ele><time>2026-04-25T15:23:08.352Z</time></trkpt><trkpt lat="37.9528457" lon="12.5152082"><ele>23.5</ele><time>2026-04-25T15:23:09.351Z</time></trkpt><trkpt lat="37.9529756" lon="12.515283"><ele>23.0</ele><time>2026-04-25T15:23:10.351Z</time></trkpt><trkpt lat="37.9531146" lon="12.5153633"><ele>22.5</ele><time>2026-04-25T15:23:11.352Z</time></trkpt><trkpt lat="37.9532505" lon="12.5154385"><ele>22.0</ele><time>2026-04-25T15:23:12.352Z</time></trkpt><trkpt lat="37.9533901" lon="12.5155136"><ele>20.666666666666664</ele><time>2026-04-25T15:23:13.353Z</time></trkpt><trkpt lat="37.9535436" lon="12.5155872"><ele>19.333333333333332</ele><time>2026-04-25T15:23:14.352Z</time></trkpt><trkpt lat="37.9536939" lon="12.5156481"><ele>18.0</ele><time>2026-04-25T15:23:15.353Z</time></trkpt><trkpt lat="37.9538571" lon="12.5157089"><ele>18.0</ele><time>2026-04-25T15:23:16.352Z</time></trkpt><trkpt lat="37.9540139" lon="12.5157763"><ele>18.0</ele><time>2026-04-25T15:23:17.352Z</time></trkpt><trkpt lat="37.9541739" lon="12.5158559"><ele>18.0</ele><time>2026-04-25T15:23:18.351Z</time></trkpt><trkpt lat="37.9543358" lon="12.515916"><ele>17.0</ele><time>2026-04-25T15:23:19.352Z</time></trkpt><trkpt lat="37.9545022" lon="12.5159752"><ele>16.0</ele><time>2026-04-25T15:23:20.353Z</time></trkpt><trkpt lat="37.9546676" lon="12.5160239"><ele>15.0</ele><time>2026-04-25T15:23:21.353Z</time></trkpt><trkpt lat="37.954832" lon="12.5160704"><ele>15.0</ele><time>2026-04-25T15:23:22.352Z</time></trkpt><trkpt lat="37.9550062" lon="12.5161197"><ele>15.0</ele><time>2026-04-25T15:23:23.351Z</time></trkpt><trkpt lat="37.9551732" lon="12.5161702"><ele>15.0</ele><time>2026-04-25T15:23:24.352Z</time></trkpt><trkpt lat="37.9553435" lon="12.5162207"><ele>16.0</ele><time>2026-04-25T15:23:25.351Z</time></trkpt><trkpt lat="37.9555128" lon="12.5162671"><ele>17.0</ele><time>2026-04-25T15:23:26.353Z</time></trkpt><trkpt lat="37.9556773" lon="12.5163116"><ele>18.0</ele><time>2026-04-25T15:23:27.352Z</time></trkpt><trkpt lat="37.955843" lon="12.5163548"><ele>18.0</ele><time>2026-04-25T15:23:28.352Z</time></trkpt><trkpt lat="37.9560118" lon="12.5163975"><ele>18.0</ele><time>2026-04-25T15:23:29.353Z</time></trkpt><trkpt lat="37.9561838" lon="12.5164436"><ele>18.0</ele><time>2026-04-25T15:23:30.352Z</time></trkpt><trkpt lat="37.9563514" lon="12.516487"><ele>18.0</ele><time>2026-04-25T15:23:31.352Z</time></trkpt><trkpt lat="37.9565167" lon="12.516531"><ele>18.0</ele><time>2026-04-25T15:23:32.352Z</time></trkpt><trkpt lat="37.9566877" lon="12.5165772"><ele>18.0</ele><time>2026-04-25T15:23:33.352Z</time></trkpt><trkpt lat="37.9568626" lon="12.5166241"><ele>17.666666666666668</ele><time>2026-04-25T15:23:34.351Z</time></trkpt><trkpt lat="37.9570355" lon="12.5166703"><ele>17.333333333333336</ele><time>2026-04-25T15:23:35.353Z</time></trkpt><trkpt lat="37.9572025" lon="12.5167166"><ele>17.0</ele><time>2026-04-25T15:23:36.352Z</time></trkpt><trkpt lat="37.9573728" lon="12.5167592"><ele>16.0</ele><time>2026-04-25T15:23:37.353Z</time></trkpt><trkpt lat="37.9575453" lon="12.5168023"><ele>15.0</ele><time>2026-04-25T15:23:38.352Z</time></trkpt><trkpt lat="37.9577119" lon="12.5168471"><ele>14.0</ele><time>2026-04-25T15:23:39.352Z</time></trkpt><trkpt lat="37.9578823" lon="12.5168887"><ele>14.0</ele><time>2026-04-25T15:23:40.352Z</time></trkpt><trkpt lat="37.9580551" lon="12.5169295"><ele>14.0</ele><time>2026-04-25T15:23:41.352Z</time></trkpt><trkpt lat="37.9584061" lon="12.5170156"><ele>13.666666666666668</ele><time>2026-04-25T15:23:43.352Z</time></trkpt><trkpt lat="37.9585842" lon="12.5170498"><ele>13.333333333333332</ele><time>2026-04-25T15:23:44.353Z</time></trkpt><trkpt lat="37.9587607" lon="12.5170951"><ele>13.0</ele><time>2026-04-25T15:23:45.352Z</time></trkpt><trkpt lat="37.9589354" lon="12.5171396"><ele>13.0</ele><time>2026-04-25T15:23:46.352Z</time></trkpt><trkpt lat="37.959109" lon="12.5171804"><ele>13.0</ele><time>2026-04-25T15:23:47.351Z</time></trkpt><trkpt lat="37.9592844" lon="12.5172284"><ele>13.0</ele><time>2026-04-25T15:23:48.352Z</time></trkpt><trkpt lat="37.9594647" lon="12.5172744"><ele>12.0</ele><time>2026-04-25T15:23:49.352Z</time></trkpt><trkpt lat="37.9596375" lon="12.5173242"><ele>11.0</ele><time>2026-04-25T15:23:50.352Z</time></trkpt><trkpt lat="37.9598148" lon="12.5173651"><ele>10.0</ele><time>2026-04-25T15:23:51.353Z</time></trkpt><trkpt lat="37.9599867" lon="12.5174157"><ele>9.666666666666668</ele><time>2026-04-25T15:23:52.351Z</time></trkpt><trkpt lat="37.9601627" lon="12.5174615"><ele>9.333333333333334</ele><time>2026-04-25T15:23:53.352Z</time></trkpt><trkpt lat="37.9603355" lon="12.5175086"><ele>9.0</ele><time>2026-04-25T15:23:54.353Z</time></trkpt><trkpt lat="37.9605104" lon="12.5175547"><ele>9.0</ele><time>2026-04-25T15:23:55.353Z</time></trkpt><trkpt lat="37.9606846" lon="12.5175979"><ele>9.0</ele><time>2026-04-25T15:23:56.351Z</time></trkpt><trkpt lat="37.9608633" lon="12.5176455"><ele>9.0</ele><time>2026-04-25T15:23:57.353Z</time></trkpt><trkpt lat="37.9610315" lon="12.5176851"><ele>9.333333333333334</ele><time>2026-04-25T15:23:58.352Z</time></trkpt><trkpt lat="37.9611936" lon="12.517725"><ele>9.666666666666668</ele><time>2026-04-25T15:23:59.352Z</time></trkpt><trkpt lat="37.9613446" lon="12.5177577"><ele>10.0</ele><time>2026-04-25T15:24:00.353Z</time></trkpt><trkpt lat="37.9614865" lon="12.517794"><ele>10.0</ele><time>2026-04-25T15:24:01.352Z</time></trkpt><trkpt lat="37.9616215" lon="12.5178268"><ele>10.0</ele><time>2026-04-25T15:24:02.353Z</time></trkpt><trkpt lat="37.961749" lon="12.5178536"><ele>10.0</ele><time>2026-04-25T15:24:03.353Z</time></trkpt><trkpt lat="37.9618771" lon="12.5178823"><ele>10.0</ele><time>2026-04-25T15:24:04.352Z</time></trkpt><trkpt lat="37.9620024" lon="12.5179138"><ele>10.25</ele><time>2026-04-25T15:24:05.352Z</time></trkpt><trkpt lat="37.9621302" lon="12.5179468"><ele>10.5</ele><time>2026-04-25T15:24:06.352Z</time></trkpt><trkpt lat="37.9622674" lon="12.5179779"><ele>10.75</ele><time>2026-04-25T15:24:07.352Z</time></trkpt><trkpt lat="37.9624102" lon="12.5180112"><ele>11.0</ele><time>2026-04-25T15:24:08.352Z</time></trkpt><trkpt lat="37.9625589" lon="12.5180459"><ele>10.0</ele><time>2026-04-25T15:24:09.352Z</time></trkpt><trkpt lat="37.9627066" lon="12.5180981"><ele>9.0</ele><time>2026-04-25T15:24:10.352Z</time></trkpt><trkpt lat="37.9628575" lon="12.5181322"><ele>8.0</ele><time>2026-04-25T15:24:11.352Z</time></trkpt><trkpt lat="37.9630043" lon="12.5181684"><ele>8.0</ele><time>2026-04-25T15:24:12.352Z</time></trkpt><trkpt lat="37.9631487" lon="12.5182077"><ele>8.0</ele><time>2026-04-25T15:24:13.352Z</time></trkpt><trkpt lat="37.9632917" lon="12.5182445"><ele>8.0</ele><time>2026-04-25T15:24:14.352Z</time></trkpt><trkpt lat="37.9634411" lon="12.5182831"><ele>8.0</ele><time>2026-04-25T15:24:15.353Z</time></trkpt><trkpt lat="37.9635809" lon="12.5183193"><ele>7.5</ele><time>2026-04-25T15:24:16.351Z</time></trkpt><trkpt lat="37.96372" lon="12.5183539"><ele>7.0</ele><time>2026-04-25T15:24:17.352Z</time></trkpt><trkpt lat="37.9638585" lon="12.5183884"><ele>6.5</ele><time>2026-04-25T15:24:18.352Z</time></trkpt><trkpt lat="37.9640016" lon="12.518422"><ele>6.0</ele><time>2026-04-25T15:24:19.352Z</time></trkpt><trkpt lat="37.9641366" lon="12.5184502"><ele>6.0</ele><time>2026-04-25T15:24:20.352Z</time></trkpt><trkpt lat="37.9642741" lon="12.5184785"><ele>6.0</ele><time>2026-04-25T15:24:21.352Z</time></trkpt><trkpt lat="37.9644025" lon="12.518505"><ele>6.0</ele><time>2026-04-25T15:24:22.353Z</time></trkpt><trkpt lat="37.9645231" lon="12.5185327"><ele>6.0</ele><time>2026-04-25T15:24:23.353Z</time></trkpt><trkpt lat="37.9646171" lon="12.518552"><ele>6.0</ele><time>2026-04-25T15:24:24.352Z</time></trkpt><trkpt lat="37.9647006" lon="12.5185768"><ele>6.0</ele><time>2026-04-25T15:24:25.351Z</time></trkpt><trkpt lat="37.964775" lon="12.5185903"><ele>6.0</ele><time>2026-04-25T15:24:26.352Z</time></trkpt><trkpt lat="37.9648914" lon="12.5186222"><ele>6.0</ele><time>2026-04-25T15:24:28.352Z</time></trkpt><trkpt lat="37.9649919" lon="12.5186399"><ele>6.0</ele><time>2026-04-25T15:24:30.353Z</time></trkpt><trkpt lat="37.9650885" lon="12.5186865"><ele>6.333333333333333</ele><time>2026-04-25T15:24:32.352Z</time></trkpt><trkpt lat="37.9651538" lon="12.5187392"><ele>6.666666666666666</ele><time>2026-04-25T15:24:35.352Z</time></trkpt><trkpt lat="37.9652092" lon="12.518784"><ele>7.0</ele><time>2026-04-25T15:25:01.352Z</time></trkpt><trkpt lat="37.9652868" lon="12.5188412"><ele>7.333333333333333</ele><time>2026-04-25T15:25:03.353Z</time></trkpt><trkpt lat="37.9653916" lon="12.5189195"><ele>7.666666666666666</ele><time>2026-04-25T15:25:05.352Z</time></trkpt><trkpt lat="37.9654494" lon="12.5189584"><ele>8.0</ele><time>2026-04-25T15:25:06.352Z</time></trkpt><trkpt lat="37.9655208" lon="12.5190191"><ele>8.0</ele><time>2026-04-25T15:25:07.353Z</time></trkpt><trkpt lat="37.9656041" lon="12.5190753"><ele>8.0</ele><time>2026-04-25T15:25:08.353Z</time></trkpt><trkpt lat="37.9656898" lon="12.519132"><ele>8.0</ele><time>2026-04-25T15:25:09.354Z</time></trkpt><trkpt lat="37.9657823" lon="12.5191919"><ele>8.0</ele><time>2026-04-25T15:25:10.352Z</time></trkpt><trkpt lat="37.9658736" lon="12.5192588"><ele>8.0</ele><time>2026-04-25T15:25:11.352Z</time></trkpt><trkpt lat="37.9659748" lon="12.519338"><ele>7.5</ele><time>2026-04-25T15:25:12.352Z</time></trkpt><trkpt lat="37.9660848" lon="12.5194111"><ele>7.0</ele><time>2026-04-25T15:25:13.353Z</time></trkpt><trkpt lat="37.9662179" lon="12.5194964"><ele>6.5</ele><time>2026-04-25T15:25:14.352Z</time></trkpt><trkpt lat="37.9663647" lon="12.5196153"><ele>6.0</ele><time>2026-04-25T15:25:15.353Z</time></trkpt><trkpt lat="37.9666362" lon="12.519866"><ele>6.0</ele><time>2026-04-25T15:25:17.353Z</time></trkpt><trkpt lat="37.9667714" lon="12.5199856"><ele>6.0</ele><time>2026-04-25T15:25:18.353Z</time></trkpt><trkpt lat="37.9669138" lon="12.5201073"><ele>6.0</ele><time>2026-04-25T15:25:19.353Z</time></trkpt><trkpt lat="37.9670554" lon="12.5202263"><ele>6.0</ele><time>2026-04-25T15:25:20.353Z</time></trkpt><trkpt lat="37.9671983" lon="12.5203484"><ele>6.0</ele><time>2026-04-25T15:25:21.352Z</time></trkpt><trkpt lat="37.9673347" lon="12.5204669"><ele>6.0</ele><time>2026-04-25T15:25:22.352Z</time></trkpt><trkpt lat="37.96746" lon="12.5205747"><ele>5.333333333333333</ele><time>2026-04-25T15:25:23.353Z</time></trkpt><trkpt lat="37.9675952" lon="12.5206908"><ele>4.666666666666666</ele><time>2026-04-25T15:25:24.353Z</time></trkpt><trkpt lat="37.9677266" lon="12.5208046"><ele>4.0</ele><time>2026-04-25T15:25:25.352Z</time></trkpt><trkpt lat="37.9678563" lon="12.5209192"><ele>4.0</ele><time>2026-04-25T15:25:26.352Z</time></trkpt><trkpt lat="37.9679869" lon="12.5210286"><ele>4.0</ele><time>2026-04-25T15:25:27.352Z</time></trkpt><trkpt lat="37.9681237" lon="12.5211435"><ele>4.0</ele><time>2026-04-25T15:25:28.352Z</time></trkpt><trkpt lat="37.9682503" lon="12.5212533"><ele>5.333333333333333</ele><time>2026-04-25T15:25:29.353Z</time></trkpt><trkpt lat="37.9683762" lon="12.521365"><ele>6.666666666666666</ele><time>2026-04-25T15:25:30.353Z</time></trkpt><trkpt lat="37.9685085" lon="12.5214804"><ele>8.0</ele><time>2026-04-25T15:25:31.353Z</time></trkpt><trkpt lat="37.9686409" lon="12.5215942"><ele>8.0</ele><time>2026-04-25T15:25:32.353Z</time></trkpt><trkpt lat="37.9687737" lon="12.5217148"><ele>8.0</ele><time>2026-04-25T15:25:33.352Z</time></trkpt><trkpt lat="37.9689083" lon="12.521832"><ele>8.0</ele><time>2026-04-25T15:25:34.353Z</time></trkpt><trkpt lat="37.9690428" lon="12.5219485"><ele>8.0</ele><time>2026-04-25T15:25:35.353Z</time></trkpt><trkpt lat="37.9691773" lon="12.5220678"><ele>8.0</ele><time>2026-04-25T15:25:36.353Z</time></trkpt><trkpt lat="37.9693264" lon="12.5221913"><ele>8.0</ele><time>2026-04-25T15:25:37.353Z</time></trkpt><trkpt lat="37.9694652" lon="12.5223177"><ele>7.333333333333333</ele><time>2026-04-25T15:25:38.352Z</time></trkpt><trkpt lat="37.9696137" lon="12.5224387"><ele>6.666666666666666</ele><time>2026-04-25T15:25:39.353Z</time></trkpt><trkpt lat="37.969754" lon="12.5225601"><ele>6.0</ele><time>2026-04-25T15:25:40.353Z</time></trkpt><trkpt lat="37.969887" lon="12.5226809"><ele>6.0</ele><time>2026-04-25T15:25:41.352Z</time></trkpt><trkpt lat="37.9700235" lon="12.5228048"><ele>6.0</ele><time>2026-04-25T15:25:42.353Z</time></trkpt><trkpt lat="37.9701576" lon="12.5229224"><ele>6.0</ele><time>2026-04-25T15:25:43.352Z</time></trkpt><trkpt lat="37.9702982" lon="12.5230377"><ele>5.0</ele><time>2026-04-25T15:25:44.354Z</time></trkpt><trkpt lat="37.9704459" lon="12.5231477"><ele>4.0</ele><time>2026-04-25T15:25:45.353Z</time></trkpt><trkpt lat="37.9705914" lon="12.5232617"><ele>3.0</ele><time>2026-04-25T15:25:46.353Z</time></trkpt><trkpt lat="37.9707387" lon="12.5233702"><ele>3.0</ele><time>2026-04-25T15:25:47.353Z</time></trkpt><trkpt lat="37.9708916" lon="12.5234848"><ele>3.0</ele><time>2026-04-25T15:25:48.352Z</time></trkpt><trkpt lat="37.9710399" lon="12.5235995"><ele>3.0</ele><time>2026-04-25T15:25:49.353Z</time></trkpt><trkpt lat="37.9711951" lon="12.5237154"><ele>3.0</ele><time>2026-04-25T15:25:50.353Z</time></trkpt><trkpt lat="37.9713458" lon="12.5238307"><ele>3.0</ele><time>2026-04-25T15:25:51.352Z</time></trkpt><trkpt lat="37.9714954" lon="12.5239463"><ele>3.0</ele><time>2026-04-25T15:25:52.351Z</time></trkpt><trkpt lat="37.9716441" lon="12.5240576"><ele>4.0</ele><time>2026-04-25T15:25:53.353Z</time></trkpt><trkpt lat="37.9717913" lon="12.5241688"><ele>5.0</ele><time>2026-04-25T15:25:54.353Z</time></trkpt><trkpt lat="37.9719497" lon="12.5242851"><ele>6.0</ele><time>2026-04-25T15:25:55.353Z</time></trkpt><trkpt lat="37.9720923" lon="12.5244012"><ele>6.0</ele><time>2026-04-25T15:25:56.352Z</time></trkpt><trkpt lat="37.9722401" lon="12.5245144"><ele>6.0</ele><time>2026-04-25T15:25:57.353Z</time></trkpt><trkpt lat="37.9723786" lon="12.5246203"><ele>6.0</ele><time>2026-04-25T15:25:58.353Z</time></trkpt><trkpt lat="37.972524" lon="12.5247302"><ele>6.333333333333334</ele><time>2026-04-25T15:25:59.354Z</time></trkpt><trkpt lat="37.9726685" lon="12.5248421"><ele>6.666666666666667</ele><time>2026-04-25T15:26:00.352Z</time></trkpt><trkpt lat="37.9728097" lon="12.5249554"><ele>7.0</ele><time>2026-04-25T15:26:01.352Z</time></trkpt><trkpt lat="37.972952" lon="12.5250686"><ele>7.0</ele><time>2026-04-25T15:26:02.353Z</time></trkpt><trkpt lat="37.9730963" lon="12.5251798"><ele>7.0</ele><time>2026-04-25T15:26:03.353Z</time></trkpt><trkpt lat="37.9732425" lon="12.5252892"><ele>7.0</ele><time>2026-04-25T15:26:04.352Z</time></trkpt><trkpt lat="37.9733999" lon="12.5254024"><ele>7.0</ele><time>2026-04-25T15:26:05.352Z</time></trkpt><trkpt lat="37.9735507" lon="12.5255185"><ele>7.0</ele><time>2026-04-25T15:26:06.353Z</time></trkpt><trkpt lat="37.9737006" lon="12.5256286"><ele>7.0</ele><time>2026-04-25T15:26:07.351Z</time></trkpt><trkpt lat="37.9738491" lon="12.5257431"><ele>7.0</ele><time>2026-04-25T15:26:08.353Z</time></trkpt><trkpt lat="37.9739875" lon="12.5258497"><ele>7.0</ele><time>2026-04-25T15:26:09.352Z</time></trkpt><trkpt lat="37.9741221" lon="12.5259508"><ele>7.0</ele><time>2026-04-25T15:26:10.351Z</time></trkpt><trkpt lat="37.9742442" lon="12.5260505"><ele>7.0</ele><time>2026-04-25T15:26:11.352Z</time></trkpt><trkpt lat="37.9743638" lon="12.5261395"><ele>7.0</ele><time>2026-04-25T15:26:12.351Z</time></trkpt><trkpt lat="37.9744794" lon="12.52623"><ele>7.0</ele><time>2026-04-25T15:26:13.351Z</time></trkpt><trkpt lat="37.974597" lon="12.5263151"><ele>7.0</ele><time>2026-04-25T15:26:14.354Z</time></trkpt><trkpt lat="37.9747125" lon="12.5264016"><ele>7.25</ele><time>2026-04-25T15:26:15.353Z</time></trkpt><trkpt lat="37.9748265" lon="12.526491"><ele>7.5</ele><time>2026-04-25T15:26:16.353Z</time></trkpt><trkpt lat="37.9749473" lon="12.5265836"><ele>7.75</ele><time>2026-04-25T15:26:17.353Z</time></trkpt><trkpt lat="37.9750701" lon="12.526674"><ele>8.0</ele><time>2026-04-25T15:26:18.352Z</time></trkpt><trkpt lat="37.9751953" lon="12.52676"><ele>7.333333333333333</ele><time>2026-04-25T15:26:19.353Z</time></trkpt><trkpt lat="37.975324" lon="12.526863"><ele>6.666666666666666</ele><time>2026-04-25T15:26:20.354Z</time></trkpt><trkpt lat="37.9754607" lon="12.5269601"><ele>6.0</ele><time>2026-04-25T15:26:21.353Z</time></trkpt><trkpt lat="37.9755976" lon="12.5270574"><ele>6.333333333333334</ele><time>2026-04-25T15:26:22.352Z</time></trkpt><trkpt lat="37.9757365" lon="12.5271713"><ele>6.666666666666667</ele><time>2026-04-25T15:26:23.353Z</time></trkpt><trkpt lat="37.9758863" lon="12.5272821"><ele>7.0</ele><time>2026-04-25T15:26:24.353Z</time></trkpt><trkpt lat="37.976034" lon="12.5273962"><ele>7.333333333333334</ele><time>2026-04-25T15:26:25.352Z</time></trkpt><trkpt lat="37.9761785" lon="12.5275139"><ele>7.666666666666666</ele><time>2026-04-25T15:26:26.353Z</time></trkpt><trkpt lat="37.9763306" lon="12.5276345"><ele>8.0</ele><time>2026-04-25T15:26:27.353Z</time></trkpt><trkpt lat="37.9764871" lon="12.52775"><ele>8.0</ele><time>2026-04-25T15:26:28.352Z</time></trkpt><trkpt lat="37.9766411" lon="12.5278605"><ele>8.0</ele><time>2026-04-25T15:26:29.353Z</time></trkpt><trkpt lat="37.9767937" lon="12.5279789"><ele>8.0</ele><time>2026-04-25T15:26:30.353Z</time></trkpt><trkpt lat="37.9769488" lon="12.5280995"><ele>8.666666666666666</ele><time>2026-04-25T15:26:31.352Z</time></trkpt><trkpt lat="37.9771099" lon="12.5282154"><ele>9.333333333333334</ele><time>2026-04-25T15:26:32.352Z</time></trkpt><trkpt lat="37.9772664" lon="12.5283258"><ele>10.0</ele><time>2026-04-25T15:26:33.353Z</time></trkpt><trkpt lat="37.9774246" lon="12.5284374"><ele>9.666666666666668</ele><time>2026-04-25T15:26:34.353Z</time></trkpt><trkpt lat="37.9775795" lon="12.5285248"><ele>9.333333333333334</ele><time>2026-04-25T15:26:35.353Z</time></trkpt><trkpt lat="37.9777333" lon="12.5286096"><ele>9.0</ele><time>2026-04-25T15:26:36.352Z</time></trkpt><trkpt lat="37.977891" lon="12.5286841"><ele>8.666666666666666</ele><time>2026-04-25T15:26:37.353Z</time></trkpt><trkpt lat="37.9780559" lon="12.5287544"><ele>8.333333333333332</ele><time>2026-04-25T15:26:38.353Z</time></trkpt><trkpt lat="37.9782262" lon="12.5288174"><ele>8.0</ele><time>2026-04-25T15:26:39.352Z</time></trkpt><trkpt lat="37.9783949" lon="12.5288876"><ele>7.666666666666666</ele><time>2026-04-25T15:26:40.353Z</time></trkpt><trkpt lat="37.97857" lon="12.5289552"><ele>7.333333333333334</ele><time>2026-04-25T15:26:41.353Z</time></trkpt><trkpt lat="37.9787406" lon="12.5290241"><ele>7.0</ele><time>2026-04-25T15:26:42.353Z</time></trkpt><trkpt lat="37.9789039" lon="12.5291006"><ele>7.0</ele><time>2026-04-25T15:26:43.352Z</time></trkpt><trkpt lat="37.9790704" lon="12.5291718"><ele>7.0</ele><time>2026-04-25T15:26:44.352Z</time></trkpt><trkpt lat="37.9792386" lon="12.5292536"><ele>7.0</ele><time>2026-04-25T15:26:45.352Z</time></trkpt><trkpt lat="37.9794076" lon="12.5293405"><ele>6.666666666666667</ele><time>2026-04-25T15:26:46.352Z</time></trkpt><trkpt lat="37.9795677" lon="12.5294289"><ele>6.333333333333334</ele><time>2026-04-25T15:26:47.352Z</time></trkpt><trkpt lat="37.9797322" lon="12.529516"><ele>6.0</ele><time>2026-04-25T15:26:48.353Z</time></trkpt><trkpt lat="37.9798912" lon="12.5296165"><ele>6.0</ele><time>2026-04-25T15:26:49.352Z</time></trkpt><trkpt lat="37.9800474" lon="12.5297106"><ele>6.0</ele><time>2026-04-25T15:26:50.352Z</time></trkpt><trkpt lat="37.9801969" lon="12.5298"><ele>6.0</ele><time>2026-04-25T15:26:51.354Z</time></trkpt><trkpt lat="37.9803452" lon="12.5298865"><ele>6.0</ele><time>2026-04-25T15:26:52.353Z</time></trkpt><trkpt lat="37.9804861" lon="12.5299635"><ele>6.0</ele><time>2026-04-25T15:26:53.352Z</time></trkpt><trkpt lat="37.9806147" lon="12.5300345"><ele>6.0</ele><time>2026-04-25T15:26:54.352Z</time></trkpt><trkpt lat="37.9807346" lon="12.5301074"><ele>6.0</ele><time>2026-04-25T15:26:55.353Z</time></trkpt><trkpt lat="37.9808595" lon="12.5301783"><ele>6.0</ele><time>2026-04-25T15:26:56.353Z</time></trkpt><trkpt lat="37.9809793" lon="12.5302498"><ele>6.0</ele><time>2026-04-25T15:26:57.353Z</time></trkpt><trkpt lat="37.9810963" lon="12.5303134"><ele>6.0</ele><time>2026-04-25T15:26:58.353Z</time></trkpt><trkpt lat="37.981213" lon="12.5303817"><ele>6.0</ele><time>2026-04-25T15:26:59.352Z</time></trkpt><trkpt lat="37.9813392" lon="12.5304525"><ele>6.0</ele><time>2026-04-25T15:27:00.353Z</time></trkpt><trkpt lat="37.9814782" lon="12.5305261"><ele>6.0</ele><time>2026-04-25T15:27:01.352Z</time></trkpt><trkpt lat="37.9816175" lon="12.5306025"><ele>6.0</ele><time>2026-04-25T15:27:02.353Z</time></trkpt><trkpt lat="37.9817477" lon="12.5306816"><ele>6.0</ele><time>2026-04-25T15:27:03.352Z</time></trkpt><trkpt lat="37.9818795" lon="12.5307505"><ele>6.25</ele><time>2026-04-25T15:27:04.352Z</time></trkpt><trkpt lat="37.9820036" lon="12.5308189"><ele>6.5</ele><time>2026-04-25T15:27:05.352Z</time></trkpt><trkpt lat="37.982129" lon="12.5308802"><ele>6.75</ele><time>2026-04-25T15:27:06.353Z</time></trkpt><trkpt lat="37.9822541" lon="12.5309439"><ele>7.0</ele><time>2026-04-25T15:27:07.353Z</time></trkpt><trkpt lat="37.982375" lon="12.5310069"><ele>7.0</ele><time>2026-04-25T15:27:08.353Z</time></trkpt><trkpt lat="37.9824974" lon="12.5310625"><ele>7.0</ele><time>2026-04-25T15:27:09.353Z</time></trkpt><trkpt lat="37.9826186" lon="12.5311178"><ele>7.0</ele><time>2026-04-25T15:27:10.353Z</time></trkpt><trkpt lat="37.982732" lon="12.531171"><ele>7.0</ele><time>2026-04-25T15:27:11.354Z</time></trkpt><trkpt lat="37.9828458" lon="12.5312266"><ele>7.0</ele><time>2026-04-25T15:27:12.352Z</time></trkpt><trkpt lat="37.9829599" lon="12.5312758"><ele>6.999999999999999</ele><time>2026-04-25T15:27:13.352Z</time></trkpt><trkpt lat="37.9830598" lon="12.5313176"><ele>6.999999999999999</ele><time>2026-04-25T15:27:14.354Z</time></trkpt><trkpt lat="37.9831539" lon="12.5313597"><ele>7.0</ele><time>2026-04-25T15:27:15.351Z</time></trkpt><trkpt lat="37.9832313" lon="12.5313944"><ele>7.0</ele><time>2026-04-25T15:27:16.352Z</time></trkpt><trkpt lat="37.983305" lon="12.5314294"><ele>7.0</ele><time>2026-04-25T15:27:17.352Z</time></trkpt><trkpt lat="37.98341" lon="12.5314722"><ele>6.999999999999999</ele><time>2026-04-25T15:27:19.353Z</time></trkpt><trkpt lat="37.983512" lon="12.531506"><ele>6.999999999999999</ele><time>2026-04-25T15:27:21.353Z</time></trkpt><trkpt lat="37.9836089" lon="12.531549"><ele>7.0</ele><time>2026-04-25T15:27:23.352Z</time></trkpt><trkpt lat="37.9836698" lon="12.5315852"><ele>7.0</ele><time>2026-04-25T15:27:26.353Z</time></trkpt><trkpt lat="37.9837551" lon="12.5316313"><ele>7.000000000000001</ele><time>2026-04-25T15:27:38.353Z</time></trkpt><trkpt lat="37.9838248" lon="12.5316558"><ele>7.0</ele><time>2026-04-25T15:27:39.352Z</time></trkpt><trkpt lat="37.983899" lon="12.5316904"><ele>7.0</ele><time>2026-04-25T15:27:40.353Z</time></trkpt><trkpt lat="37.9839856" lon="12.5317298"><ele>7.0</ele><time>2026-04-25T15:27:41.353Z</time></trkpt><trkpt lat="37.9840787" lon="12.5317805"><ele>7.000000000000001</ele><time>2026-04-25T15:27:42.353Z</time></trkpt><trkpt lat="37.9841701" lon="12.5318352"><ele>7.0</ele><time>2026-04-25T15:27:43.353Z</time></trkpt><trkpt lat="37.9842755" lon="12.5318953"><ele>6.5</ele><time>2026-04-25T15:27:44.352Z</time></trkpt><trkpt lat="37.9843812" lon="12.5319605"><ele>6.0</ele><time>2026-04-25T15:27:45.354Z</time></trkpt><trkpt lat="37.9844993" lon="12.5320441"><ele>5.5</ele><time>2026-04-25T15:27:46.353Z</time></trkpt><trkpt lat="37.9846201" lon="12.532124"><ele>5.0</ele><time>2026-04-25T15:27:47.353Z</time></trkpt><trkpt lat="37.984742" lon="12.5322094"><ele>4.75</ele><time>2026-04-25T15:27:48.352Z</time></trkpt><trkpt lat="37.9848743" lon="12.5322926"><ele>4.5</ele><time>2026-04-25T15:27:49.353Z</time></trkpt><trkpt lat="37.985006" lon="12.5323704"><ele>4.25</ele><time>2026-04-25T15:27:50.353Z</time></trkpt><trkpt lat="37.9851382" lon="12.5324453"><ele>4.0</ele><time>2026-04-25T15:27:51.353Z</time></trkpt><trkpt lat="37.985278" lon="12.5325299"><ele>4.0</ele><time>2026-04-25T15:27:52.353Z</time></trkpt><trkpt lat="37.9854205" lon="12.532613"><ele>4.0</ele><time>2026-04-25T15:27:53.353Z</time></trkpt><trkpt lat="37.9855654" lon="12.5326983"><ele>4.0</ele><time>2026-04-25T15:27:54.352Z</time></trkpt><trkpt lat="37.9857219" lon="12.5327835"><ele>4.666666666666666</ele><time>2026-04-25T15:27:55.353Z</time></trkpt><trkpt lat="37.985877" lon="12.5328683"><ele>5.333333333333333</ele><time>2026-04-25T15:27:56.353Z</time></trkpt><trkpt lat="37.9860496" lon="12.5329539"><ele>6.0</ele><time>2026-04-25T15:27:57.353Z</time></trkpt><trkpt lat="37.9862291" lon="12.5330428"><ele>6.0</ele><time>2026-04-25T15:27:58.353Z</time></trkpt><trkpt lat="37.9864064" lon="12.53313"><ele>6.0</ele><time>2026-04-25T15:27:59.352Z</time></trkpt><trkpt lat="37.9865803" lon="12.5332165"><ele>6.0</ele><time>2026-04-25T15:28:00.353Z</time></trkpt><trkpt lat="37.9867512" lon="12.5333076"><ele>6.333333333333334</ele><time>2026-04-25T15:28:01.353Z</time></trkpt><trkpt lat="37.9869262" lon="12.5333932"><ele>6.666666666666667</ele><time>2026-04-25T15:28:02.353Z</time></trkpt><trkpt lat="37.987103" lon="12.5334816"><ele>7.0</ele><time>2026-04-25T15:28:03.353Z</time></trkpt><trkpt lat="37.9872745" lon="12.533571"><ele>7.0</ele><time>2026-04-25T15:28:04.353Z</time></trkpt><trkpt lat="37.9874558" lon="12.533653"><ele>7.0</ele><time>2026-04-25T15:28:05.353Z</time></trkpt><trkpt lat="37.9876318" lon="12.5337457"><ele>7.0</ele><time>2026-04-25T15:28:06.352Z</time></trkpt><trkpt lat="37.9878186" lon="12.5338211"><ele>7.0</ele><time>2026-04-25T15:28:07.353Z</time></trkpt><trkpt lat="37.9880056" lon="12.5338707"><ele>7.0</ele><time>2026-04-25T15:28:08.353Z</time></trkpt><trkpt lat="37.9881957" lon="12.5339125"><ele>7.0</ele><time>2026-04-25T15:28:09.353Z</time></trkpt><trkpt lat="37.9883847" lon="12.5339551"><ele>7.0</ele><time>2026-04-25T15:28:10.353Z</time></trkpt><trkpt lat="37.9885612" lon="12.5340046"><ele>7.0</ele><time>2026-04-25T15:28:11.352Z</time></trkpt><trkpt lat="37.9887394" lon="12.5340683"><ele>7.0</ele><time>2026-04-25T15:28:12.353Z</time></trkpt><trkpt lat="37.9889223" lon="12.5341527"><ele>7.0</ele><time>2026-04-25T15:28:13.353Z</time></trkpt><trkpt lat="37.9891008" lon="12.5342322"><ele>7.0</ele><time>2026-04-25T15:28:14.353Z</time></trkpt><trkpt lat="37.9892793" lon="12.5343178"><ele>7.0</ele><time>2026-04-25T15:28:15.353Z</time></trkpt><trkpt lat="37.9894574" lon="12.5344032"><ele>6.0</ele><time>2026-04-25T15:28:16.353Z</time></trkpt><trkpt lat="37.9896405" lon="12.5344779"><ele>5.0</ele><time>2026-04-25T15:28:17.353Z</time></trkpt><trkpt lat="37.9898224" lon="12.5345348"><ele>4.0</ele><time>2026-04-25T15:28:18.353Z</time></trkpt><trkpt lat="37.9900046" lon="12.5345773"><ele>2.6666666666666665</ele><time>2026-04-25T15:28:19.352Z</time></trkpt><trkpt lat="37.9901863" lon="12.5346166"><ele>1.3333333333333333</ele><time>2026-04-25T15:28:20.353Z</time></trkpt><trkpt lat="37.9903717" lon="12.5346461"><ele>0.0</ele><time>2026-04-25T15:28:21.353Z</time></trkpt><trkpt lat="37.9905579" lon="12.5346838"><ele>0.0</ele><time>2026-04-25T15:28:22.353Z</time></trkpt><trkpt lat="37.990744" lon="12.5347117"><ele>0.0</ele><time>2026-04-25T15:28:23.353Z</time></trkpt><trkpt lat="37.9909278" lon="12.5347251"><ele>0.0</ele><time>2026-04-25T15:28:24.353Z</time></trkpt><trkpt lat="37.9911119" lon="12.5347438"><ele>0.0</ele><time>2026-04-25T15:28:25.353Z</time></trkpt><trkpt lat="37.9913022" lon="12.5347579"><ele>0.0</ele><time>2026-04-25T15:28:26.353Z</time></trkpt><trkpt lat="37.9914949" lon="12.5347641"><ele>0.0</ele><time>2026-04-25T15:28:27.353Z</time></trkpt><trkpt lat="37.9916818" lon="12.534773"><ele>0.0</ele><time>2026-04-25T15:28:28.354Z</time></trkpt><trkpt lat="37.9918648" lon="12.5347724"><ele>0.0</ele><time>2026-04-25T15:28:29.353Z</time></trkpt><trkpt lat="37.9920506" lon="12.5347682"><ele>0.0</ele><time>2026-04-25T15:28:30.352Z</time></trkpt><trkpt lat="37.9922332" lon="12.5347574"><ele>0.0</ele><time>2026-04-25T15:28:31.352Z</time></trkpt><trkpt lat="37.9924168" lon="12.5347518"><ele>0.0</ele><time>2026-04-25T15:28:32.353Z</time></trkpt><trkpt lat="37.9926005" lon="12.5347502"><ele>0.0</ele><time>2026-04-25T15:28:33.353Z</time></trkpt><trkpt lat="37.9927855" lon="12.5347498"><ele>0.0</ele><time>2026-04-25T15:28:34.354Z</time></trkpt><trkpt lat="37.9929708" lon="12.5347394"><ele>0.0</ele><time>2026-04-25T15:28:35.353Z</time></trkpt><trkpt lat="37.9931646" lon="12.5347246"><ele>0.0</ele><time>2026-04-25T15:28:36.353Z</time></trkpt><trkpt lat="37.9933461" lon="12.5347204"><ele>0.0</ele><time>2026-04-25T15:28:37.353Z</time></trkpt><trkpt lat="37.9935265" lon="12.5347147"><ele>0.0</ele><time>2026-04-25T15:28:38.354Z</time></trkpt><trkpt lat="37.9937057" lon="12.5347131"><ele>0.0</ele><time>2026-04-25T15:28:39.353Z</time></trkpt><trkpt lat="37.9938861" lon="12.5347084"><ele>0.0</ele><time>2026-04-25T15:28:40.352Z</time></trkpt><trkpt lat="37.9940657" lon="12.5347136"><ele>0.0</ele><time>2026-04-25T15:28:41.353Z</time></trkpt><trkpt lat="37.9942415" lon="12.5347174"><ele>0.0</ele><time>2026-04-25T15:28:42.353Z</time></trkpt><trkpt lat="37.9944096" lon="12.5347393"><ele>0.0</ele><time>2026-04-25T15:28:43.354Z</time></trkpt><trkpt lat="37.9945815" lon="12.5347555"><ele>0.0</ele><time>2026-04-25T15:28:44.352Z</time></trkpt><trkpt lat="37.9947541" lon="12.5347734"><ele>0.0</ele><time>2026-04-25T15:28:45.353Z</time></trkpt><trkpt lat="37.9949293" lon="12.5347904"><ele>0.0</ele><time>2026-04-25T15:28:46.353Z</time></trkpt><trkpt lat="37.995098" lon="12.5348029"><ele>0.0</ele><time>2026-04-25T15:28:47.353Z</time></trkpt><trkpt lat="37.9952727" lon="12.534814"><ele>0.0</ele><time>2026-04-25T15:28:48.352Z</time></trkpt><trkpt lat="37.9954443" lon="12.5348287"><ele>0.0</ele><time>2026-04-25T15:28:49.353Z</time></trkpt><trkpt lat="37.9956086" lon="12.5348381"><ele>0.0</ele><time>2026-04-25T15:28:50.352Z</time></trkpt><trkpt lat="37.995776" lon="12.5348479"><ele>0.0</ele><time>2026-04-25T15:28:51.353Z</time></trkpt><trkpt lat="37.9959395" lon="12.5348615"><ele>1.6666666666666667</ele><time>2026-04-25T15:28:52.353Z</time></trkpt><trkpt lat="37.9960997" lon="12.534872"><ele>3.3333333333333335</ele><time>2026-04-25T15:28:53.353Z</time></trkpt><trkpt lat="37.9962497" lon="12.5348832"><ele>5.0</ele><time>2026-04-25T15:28:54.353Z</time></trkpt><trkpt lat="37.996399" lon="12.5348908"><ele>5.0</ele><time>2026-04-25T15:28:55.353Z</time></trkpt><trkpt lat="37.9965466" lon="12.5348941"><ele>5.0</ele><time>2026-04-25T15:28:56.353Z</time></trkpt><trkpt lat="37.9967" lon="12.5349017"><ele>5.0</ele><time>2026-04-25T15:28:57.353Z</time></trkpt><trkpt lat="37.9968558" lon="12.5349218"><ele>4.333333333333334</ele><time>2026-04-25T15:28:58.353Z</time></trkpt><trkpt lat="37.9970097" lon="12.5349372"><ele>3.666666666666667</ele><time>2026-04-25T15:28:59.354Z</time></trkpt><trkpt lat="37.9971715" lon="12.5349545"><ele>3.0</ele><time>2026-04-25T15:29:00.352Z</time></trkpt><trkpt lat="37.9973399" lon="12.5349717"><ele>4.333333333333334</ele><time>2026-04-25T15:29:01.353Z</time></trkpt><trkpt lat="37.9975065" lon="12.5349856"><ele>5.666666666666667</ele><time>2026-04-25T15:29:02.353Z</time></trkpt><trkpt lat="37.9976746" lon="12.5349971"><ele>7.0</ele><time>2026-04-25T15:29:03.353Z</time></trkpt><trkpt lat="37.9978394" lon="12.5350129"><ele>7.0</ele><time>2026-04-25T15:29:04.352Z</time></trkpt><trkpt lat="37.9980062" lon="12.5350299"><ele>7.0</ele><time>2026-04-25T15:29:05.353Z</time></trkpt><trkpt lat="37.9981783" lon="12.5350422"><ele>7.0</ele><time>2026-04-25T15:29:06.352Z</time></trkpt><trkpt lat="37.9983534" lon="12.5350502"><ele>6.333333333333334</ele><time>2026-04-25T15:29:07.352Z</time></trkpt><trkpt lat="37.9985182" lon="12.5350694"><ele>5.666666666666667</ele><time>2026-04-25T15:29:08.353Z</time></trkpt><trkpt lat="37.9986848" lon="12.5350818"><ele>5.0</ele><time>2026-04-25T15:29:09.354Z</time></trkpt><trkpt lat="37.9988505" lon="12.535091"><ele>5.0</ele><time>2026-04-25T15:29:10.353Z</time></trkpt><trkpt lat="37.9990186" lon="12.5350999"><ele>5.0</ele><time>2026-04-25T15:29:11.353Z</time></trkpt><trkpt lat="37.9991934" lon="12.5351187"><ele>5.0</ele><time>2026-04-25T15:29:12.354Z</time></trkpt><trkpt lat="37.9993661" lon="12.5351203"><ele>4.666666666666667</ele><time>2026-04-25T15:29:13.353Z</time></trkpt><trkpt lat="37.9995386" lon="12.5351181"><ele>4.333333333333333</ele><time>2026-04-25T15:29:14.352Z</time></trkpt><trkpt lat="37.9997247" lon="12.5351183"><ele>4.0</ele><time>2026-04-25T15:29:15.353Z</time></trkpt><trkpt lat="37.9999023" lon="12.5351102"><ele>4.0</ele><time>2026-04-25T15:29:16.353Z</time></trkpt><trkpt lat="38.0000792" lon="12.5351075"><ele>4.0</ele><time>2026-04-25T15:29:17.353Z</time></trkpt><trkpt lat="38.0002625" lon="12.535103"><ele>4.0</ele><time>2026-04-25T15:29:18.353Z</time></trkpt><trkpt lat="38.000439" lon="12.5350964"><ele>4.0</ele><time>2026-04-25T15:29:19.353Z</time></trkpt><trkpt lat="38.0006122" lon="12.5350895"><ele>4.0</ele><time>2026-04-25T15:29:20.354Z</time></trkpt><trkpt lat="38.0007828" lon="12.5350835"><ele>4.0</ele><time>2026-04-25T15:29:21.352Z</time></trkpt><trkpt lat="38.0009567" lon="12.5350859"><ele>4.333333333333333</ele><time>2026-04-25T15:29:22.353Z</time></trkpt><trkpt lat="38.0011194" lon="12.5350775"><ele>4.666666666666667</ele><time>2026-04-25T15:29:23.352Z</time></trkpt><trkpt lat="38.0012861" lon="12.5350759"><ele>5.0</ele><time>2026-04-25T15:29:24.353Z</time></trkpt><trkpt lat="38.0014519" lon="12.5350733"><ele>5.0</ele><time>2026-04-25T15:29:25.353Z</time></trkpt><trkpt lat="38.0016197" lon="12.5350606"><ele>5.0</ele><time>2026-04-25T15:29:26.353Z</time></trkpt><trkpt lat="38.0017882" lon="12.5350564"><ele>5.0</ele><time>2026-04-25T15:29:27.354Z</time></trkpt><trkpt lat="38.0019591" lon="12.5350472"><ele>5.0</ele><time>2026-04-25T15:29:28.353Z</time></trkpt><trkpt lat="38.0021277" lon="12.5350494"><ele>5.0</ele><time>2026-04-25T15:29:29.353Z</time></trkpt><trkpt lat="38.0022824" lon="12.5350474"><ele>5.0</ele><time>2026-04-25T15:29:30.353Z</time></trkpt><trkpt lat="38.0024378" lon="12.5350439"><ele>5.666666666666667</ele><time>2026-04-25T15:29:31.353Z</time></trkpt><trkpt lat="38.0025852" lon="12.5350388"><ele>6.333333333333334</ele><time>2026-04-25T15:29:32.352Z</time></trkpt><trkpt lat="38.0027378" lon="12.5350342"><ele>7.0</ele><time>2026-04-25T15:29:33.353Z</time></trkpt><trkpt lat="38.0028913" lon="12.5350284"><ele>7.0</ele><time>2026-04-25T15:29:34.353Z</time></trkpt><trkpt lat="38.0030382" lon="12.5350328"><ele>7.0</ele><time>2026-04-25T15:29:35.353Z</time></trkpt><trkpt lat="38.0031944" lon="12.5350406"><ele>7.0</ele><time>2026-04-25T15:29:36.353Z</time></trkpt><trkpt lat="38.0033349" lon="12.5350548"><ele>7.0</ele><time>2026-04-25T15:29:37.353Z</time></trkpt><trkpt lat="38.0034708" lon="12.5350817"><ele>7.3999999999999995</ele><time>2026-04-25T15:29:38.354Z</time></trkpt><trkpt lat="38.0035919" lon="12.5351144"><ele>7.799999999999999</ele><time>2026-04-25T15:29:39.353Z</time></trkpt><trkpt lat="38.0037025" lon="12.5351586"><ele>8.2</ele><time>2026-04-25T15:29:40.353Z</time></trkpt><trkpt lat="38.0037892" lon="12.5352117"><ele>8.6</ele><time>2026-04-25T15:29:41.353Z</time></trkpt><trkpt lat="38.0038642" lon="12.5352768"><ele>9.0</ele><time>2026-04-25T15:29:42.352Z</time></trkpt><trkpt lat="38.0039294" lon="12.5353201"><ele>9.0</ele><time>2026-04-25T15:29:43.353Z</time></trkpt><trkpt lat="38.0040008" lon="12.5353374"><ele>9.0</ele><time>2026-04-25T15:29:44.354Z</time></trkpt><trkpt lat="38.0040925" lon="12.5353123"><ele>9.0</ele><time>2026-04-25T15:29:45.353Z</time></trkpt><trkpt lat="38.0041819" lon="12.5352591"><ele>9.0</ele><time>2026-04-25T15:29:46.353Z</time></trkpt><trkpt lat="38.0042799" lon="12.5351884"><ele>9.0</ele><time>2026-04-25T15:29:47.353Z</time></trkpt><trkpt lat="38.0043912" lon="12.5351216"><ele>8.75</ele><time>2026-04-25T15:29:48.353Z</time></trkpt><trkpt lat="38.0045197" lon="12.5350677"><ele>8.5</ele><time>2026-04-25T15:29:49.352Z</time></trkpt><trkpt lat="38.0046566" lon="12.5350347"><ele>8.25</ele><time>2026-04-25T15:29:50.354Z</time></trkpt><trkpt lat="38.0047915" lon="12.5350022"><ele>8.0</ele><time>2026-04-25T15:29:51.353Z</time></trkpt><trkpt lat="38.0049191" lon="12.5350147"><ele>7.5</ele><time>2026-04-25T15:29:52.354Z</time></trkpt><trkpt lat="38.0050507" lon="12.5350145"><ele>7.0</ele><time>2026-04-25T15:29:53.353Z</time></trkpt><trkpt lat="38.0051994" lon="12.535054"><ele>6.5</ele><time>2026-04-25T15:29:54.354Z</time></trkpt><trkpt lat="38.005346" lon="12.5350812"><ele>6.0</ele><time>2026-04-25T15:29:55.353Z</time></trkpt><trkpt lat="38.0054894" lon="12.5351118"><ele>6.0</ele><time>2026-04-25T15:29:56.353Z</time></trkpt><trkpt lat="38.005629" lon="12.5351537"><ele>6.0</ele><time>2026-04-25T15:29:57.353Z</time></trkpt><trkpt lat="38.005776" lon="12.5351924"><ele>6.0</ele><time>2026-04-25T15:29:58.354Z</time></trkpt><trkpt lat="38.0059312" lon="12.5352365"><ele>5.333333333333333</ele><time>2026-04-25T15:29:59.353Z</time></trkpt><trkpt lat="38.0060853" lon="12.5352762"><ele>4.666666666666666</ele><time>2026-04-25T15:30:00.353Z</time></trkpt><trkpt lat="38.0062383" lon="12.5353182"><ele>4.0</ele><time>2026-04-25T15:30:01.353Z</time></trkpt><trkpt lat="38.0063944" lon="12.5353573"><ele>4.0</ele><time>2026-04-25T15:30:02.355Z</time></trkpt><trkpt lat="38.0065512" lon="12.5354066"><ele>4.0</ele><time>2026-04-25T15:30:03.354Z</time></trkpt><trkpt lat="38.0067174" lon="12.5354458"><ele>4.0</ele><time>2026-04-25T15:30:04.353Z</time></trkpt><trkpt lat="38.0068772" lon="12.5354877"><ele>4.0</ele><time>2026-04-25T15:30:05.354Z</time></trkpt><trkpt lat="38.0070365" lon="12.5355315"><ele>4.0</ele><time>2026-04-25T15:30:06.353Z</time></trkpt><trkpt lat="38.0072001" lon="12.5355791"><ele>4.0</ele><time>2026-04-25T15:30:07.353Z</time></trkpt><trkpt lat="38.0073541" lon="12.5356254"><ele>4.25</ele><time>2026-04-25T15:30:08.352Z</time></trkpt><trkpt lat="38.0074985" lon="12.5356572"><ele>4.5</ele><time>2026-04-25T15:30:09.352Z</time></trkpt><trkpt lat="38.0076363" lon="12.5356918"><ele>4.75</ele><time>2026-04-25T15:30:10.354Z</time></trkpt><trkpt lat="38.0077795" lon="12.5357302"><ele>5.0</ele><time>2026-04-25T15:30:11.353Z</time></trkpt><trkpt lat="38.0079198" lon="12.5357705"><ele>5.0</ele><time>2026-04-25T15:30:12.354Z</time></trkpt><trkpt lat="38.008059" lon="12.5358094"><ele>5.0</ele><time>2026-04-25T15:30:13.353Z</time></trkpt><trkpt lat="38.0081979" lon="12.5358468"><ele>5.0</ele><time>2026-04-25T15:30:14.353Z</time></trkpt><trkpt lat="38.0083343" lon="12.5358791"><ele>5.0</ele><time>2026-04-25T15:30:15.354Z</time></trkpt><trkpt lat="38.0084698" lon="12.535911"><ele>4.75</ele><time>2026-04-25T15:30:16.354Z</time></trkpt><trkpt lat="38.0086028" lon="12.5359377"><ele>4.5</ele><time>2026-04-25T15:30:17.353Z</time></trkpt><trkpt lat="38.0087343" lon="12.5359478"><ele>4.25</ele><time>2026-04-25T15:30:18.353Z</time></trkpt><trkpt lat="38.0088644" lon="12.5359444"><ele>4.0</ele><time>2026-04-25T15:30:19.352Z</time></trkpt><trkpt lat="38.0089959" lon="12.5359358"><ele>4.0</ele><time>2026-04-25T15:30:20.353Z</time></trkpt><trkpt lat="38.0091245" lon="12.5359209"><ele>4.0</ele><time>2026-04-25T15:30:21.353Z</time></trkpt><trkpt lat="38.0092548" lon="12.5359034"><ele>4.0</ele><time>2026-04-25T15:30:22.353Z</time></trkpt><trkpt lat="38.0093895" lon="12.5358909"><ele>4.0</ele><time>2026-04-25T15:30:23.353Z</time></trkpt><trkpt lat="38.0095149" lon="12.5358774"><ele>4.0</ele><time>2026-04-25T15:30:24.353Z</time></trkpt><trkpt lat="38.0096408" lon="12.5358642"><ele>4.0</ele><time>2026-04-25T15:30:25.352Z</time></trkpt><trkpt lat="38.0097662" lon="12.5358452"><ele>4.0</ele><time>2026-04-25T15:30:26.353Z</time></trkpt><trkpt lat="38.0098895" lon="12.5358309"><ele>4.0</ele><time>2026-04-25T15:30:27.353Z</time></trkpt><trkpt lat="38.0100152" lon="12.5358172"><ele>4.0</ele><time>2026-04-25T15:30:28.354Z</time></trkpt><trkpt lat="38.0101408" lon="12.5358034"><ele>4.0</ele><time>2026-04-25T15:30:29.354Z</time></trkpt><trkpt lat="38.0102648" lon="12.5357889"><ele>4.0</ele><time>2026-04-25T15:30:30.353Z</time></trkpt><trkpt lat="38.0103775" lon="12.5357741"><ele>4.0</ele><time>2026-04-25T15:30:31.353Z</time></trkpt><trkpt lat="38.0104887" lon="12.5357615"><ele>4.0</ele><time>2026-04-25T15:30:32.354Z</time></trkpt><trkpt lat="38.0105905" lon="12.5357418"><ele>4.0</ele><time>2026-04-25T15:30:33.353Z</time></trkpt><trkpt lat="38.0106994" lon="12.5357152"><ele>4.0</ele><time>2026-04-25T15:30:34.353Z</time></trkpt><trkpt lat="38.0108147" lon="12.5356756"><ele>4.0</ele><time>2026-04-25T15:30:35.353Z</time></trkpt><trkpt lat="38.0109257" lon="12.5356232"><ele>4.5</ele><time>2026-04-25T15:30:36.353Z</time></trkpt><trkpt lat="38.0110529" lon="12.5355463"><ele>5.0</ele><time>2026-04-25T15:30:37.353Z</time></trkpt><trkpt lat="38.0111848" lon="12.5354602"><ele>5.5</ele><time>2026-04-25T15:30:38.353Z</time></trkpt><trkpt lat="38.0113217" lon="12.5353755"><ele>6.0</ele><time>2026-04-25T15:30:39.353Z</time></trkpt><trkpt lat="38.0114655" lon="12.5352923"><ele>4.333333333333333</ele><time>2026-04-25T15:30:40.353Z</time></trkpt><trkpt lat="38.0116102" lon="12.535204"><ele>2.6666666666666665</ele><time>2026-04-25T15:30:41.355Z</time></trkpt><trkpt lat="38.0117555" lon="12.5351209"><ele>1.0</ele><time>2026-04-25T15:30:42.353Z</time></trkpt><trkpt lat="38.0118947" lon="12.5350399"><ele>1.0</ele><time>2026-04-25T15:30:43.352Z</time></trkpt><trkpt lat="38.0120405" lon="12.5349525"><ele>1.0</ele><time>2026-04-25T15:30:44.354Z</time></trkpt><trkpt lat="38.0121994" lon="12.5348862"><ele>1.0</ele><time>2026-04-25T15:30:45.353Z</time></trkpt><trkpt lat="38.0123696" lon="12.5348435"><ele>1.6666666666666665</ele><time>2026-04-25T15:30:46.353Z</time></trkpt><trkpt lat="38.0125469" lon="12.5348062"><ele>2.3333333333333335</ele><time>2026-04-25T15:30:47.353Z</time></trkpt><trkpt lat="38.0127181" lon="12.5347863"><ele>3.0</ele><time>2026-04-25T15:30:48.353Z</time></trkpt><trkpt lat="38.0128888" lon="12.5347571"><ele>3.0</ele><time>2026-04-25T15:30:49.353Z</time></trkpt><trkpt lat="38.0130532" lon="12.5347348"><ele>3.0</ele><time>2026-04-25T15:30:50.353Z</time></trkpt><trkpt lat="38.0132157" lon="12.5347109"><ele>3.0</ele><time>2026-04-25T15:30:51.353Z</time></trkpt><trkpt lat="38.0133731" lon="12.5346916"><ele>3.5</ele><time>2026-04-25T15:30:52.353Z</time></trkpt><trkpt lat="38.0135253" lon="12.5346688"><ele>4.0</ele><time>2026-04-25T15:30:53.354Z</time></trkpt><trkpt lat="38.0136733" lon="12.5346467"><ele>4.5</ele><time>2026-04-25T15:30:54.353Z</time></trkpt><trkpt lat="38.0138159" lon="12.5346236"><ele>5.0</ele><time>2026-04-25T15:30:55.355Z</time></trkpt><trkpt lat="38.0139552" lon="12.5345962"><ele>5.0</ele><time>2026-04-25T15:30:56.354Z</time></trkpt><trkpt lat="38.0140871" lon="12.5345791"><ele>5.0</ele><time>2026-04-25T15:30:57.353Z</time></trkpt><trkpt lat="38.0142035" lon="12.5345601"><ele>5.0</ele><time>2026-04-25T15:30:58.353Z</time></trkpt><trkpt lat="38.0143052" lon="12.5345432"><ele>5.0</ele><time>2026-04-25T15:30:59.353Z</time></trkpt><trkpt lat="38.0143897" lon="12.5345334"><ele>5.0</ele><time>2026-04-25T15:31:00.353Z</time></trkpt><trkpt lat="38.0144902" lon="12.5345208"><ele>5.0</ele><time>2026-04-25T15:31:02.354Z</time></trkpt><trkpt lat="38.0145613" lon="12.5345"><ele>5.0</ele><time>2026-04-25T15:31:07.353Z</time></trkpt><trkpt lat="38.0146255" lon="12.534492"><ele>5.0</ele><time>2026-04-25T15:31:09.353Z</time></trkpt><trkpt lat="38.0147214" lon="12.5344783"><ele>5.0</ele><time>2026-04-25T15:31:12.352Z</time></trkpt><trkpt lat="38.0148254" lon="12.5344793"><ele>5.0</ele><time>2026-04-25T15:31:14.353Z</time></trkpt><trkpt lat="38.0149436" lon="12.5344752"><ele>5.333333333333334</ele><time>2026-04-25T15:31:16.353Z</time></trkpt><trkpt lat="38.0150086" lon="12.5344739"><ele>5.666666666666667</ele><time>2026-04-25T15:31:17.354Z</time></trkpt><trkpt lat="38.0151423" lon="12.5344899"><ele>6.0</ele><time>2026-04-25T15:31:19.353Z</time></trkpt><trkpt lat="38.0152185" lon="12.5344997"><ele>6.333333333333334</ele><time>2026-04-25T15:31:20.353Z</time></trkpt><trkpt lat="38.0152991" lon="12.5345019"><ele>6.666666666666667</ele><time>2026-04-25T15:31:21.353Z</time></trkpt><trkpt lat="38.0153871" lon="12.534506"><ele>7.0</ele><time>2026-04-25T15:31:22.353Z</time></trkpt><trkpt lat="38.0154736" lon="12.5345042"><ele>7.000000000000001</ele><time>2026-04-25T15:31:23.352Z</time></trkpt><trkpt lat="38.0155592" lon="12.5344833"><ele>7.0</ele><time>2026-04-25T15:31:24.353Z</time></trkpt><trkpt lat="38.0156417" lon="12.5344486"><ele>7.0</ele><time>2026-04-25T15:31:25.354Z</time></trkpt><trkpt lat="38.0157294" lon="12.5344165"><ele>7.0</ele><time>2026-04-25T15:31:26.353Z</time></trkpt><trkpt lat="38.0158175" lon="12.5343821"><ele>7.000000000000001</ele><time>2026-04-25T15:31:27.354Z</time></trkpt><trkpt lat="38.0159029" lon="12.5343481"><ele>7.0</ele><time>2026-04-25T15:31:28.354Z</time></trkpt><trkpt lat="38.0159895" lon="12.53431"><ele>7.199999999999999</ele><time>2026-04-25T15:31:29.354Z</time></trkpt><trkpt lat="38.0160782" lon="12.5342659"><ele>7.3999999999999995</ele><time>2026-04-25T15:31:30.353Z</time></trkpt><trkpt lat="38.0161706" lon="12.5342241"><ele>7.6000000000000005</ele><time>2026-04-25T15:31:31.354Z</time></trkpt><trkpt lat="38.0162596" lon="12.5341674"><ele>7.800000000000001</ele><time>2026-04-25T15:31:32.352Z</time></trkpt><trkpt lat="38.0163534" lon="12.5341034"><ele>8.0</ele><time>2026-04-25T15:31:33.354Z</time></trkpt><trkpt lat="38.0164603" lon="12.5340215"><ele>8.0</ele><time>2026-04-25T15:31:34.354Z</time></trkpt><trkpt lat="38.0165539" lon="12.5339475"><ele>8.0</ele><time>2026-04-25T15:31:35.353Z</time></trkpt><trkpt lat="38.0166483" lon="12.5338568"><ele>8.0</ele><time>2026-04-25T15:31:36.354Z</time></trkpt><trkpt lat="38.0167464" lon="12.5337642"><ele>8.0</ele><time>2026-04-25T15:31:37.353Z</time></trkpt><trkpt lat="38.016844" lon="12.5336721"><ele>8.0</ele><time>2026-04-25T15:31:38.353Z</time></trkpt><trkpt lat="38.0169288" lon="12.533567"><ele>8.0</ele><time>2026-04-25T15:31:39.354Z</time></trkpt><trkpt lat="38.0170033" lon="12.5334535"><ele>8.0</ele><time>2026-04-25T15:31:40.353Z</time></trkpt><trkpt lat="38.0170759" lon="12.5333254"><ele>8.0</ele><time>2026-04-25T15:31:41.354Z</time></trkpt><trkpt lat="38.0171431" lon="12.5332015"><ele>8.0</ele><time>2026-04-25T15:31:42.354Z</time></trkpt><trkpt lat="38.0171976" lon="12.5330915"><ele>8.0</ele><time>2026-04-25T15:31:43.354Z</time></trkpt><trkpt lat="38.0172399" lon="12.5329825"><ele>8.0</ele><time>2026-04-25T15:31:44.353Z</time></trkpt><trkpt lat="38.0172719" lon="12.5328787"><ele>8.0</ele><time>2026-04-25T15:31:45.354Z</time></trkpt><trkpt lat="38.01728" lon="12.5327654"><ele>8.0</ele><time>2026-04-25T15:31:46.352Z</time></trkpt><trkpt lat="38.017278" lon="12.5326495"><ele>7.800000000000001</ele><time>2026-04-25T15:31:47.353Z</time></trkpt><trkpt lat="38.0172777" lon="12.5325224"><ele>7.6000000000000005</ele><time>2026-04-25T15:31:48.354Z</time></trkpt><trkpt lat="38.0172899" lon="12.5323928"><ele>7.3999999999999995</ele><time>2026-04-25T15:31:49.354Z</time></trkpt><trkpt lat="38.0172987" lon="12.5322387"><ele>7.199999999999999</ele><time>2026-04-25T15:31:50.354Z</time></trkpt><trkpt lat="38.0173101" lon="12.5320978"><ele>7.0</ele><time>2026-04-25T15:31:51.354Z</time></trkpt><trkpt lat="38.0173125" lon="12.531953"><ele>7.5</ele><time>2026-04-25T15:31:52.353Z</time></trkpt><trkpt lat="38.0172977" lon="12.5318157"><ele>8.0</ele><time>2026-04-25T15:31:53.353Z</time></trkpt><trkpt lat="38.0172922" lon="12.5316655"><ele>8.5</ele><time>2026-04-25T15:31:54.353Z</time></trkpt><trkpt lat="38.0172731" lon="12.5315189"><ele>9.0</ele><time>2026-04-25T15:31:55.353Z</time></trkpt><trkpt lat="38.0172569" lon="12.5313732"><ele>9.0</ele><time>2026-04-25T15:31:56.353Z</time></trkpt><trkpt lat="38.0172388" lon="12.5312461"><ele>9.0</ele><time>2026-04-25T15:31:57.354Z</time></trkpt><trkpt lat="38.0172236" lon="12.5311049"><ele>9.0</ele><time>2026-04-25T15:31:58.354Z</time></trkpt><trkpt lat="38.0172041" lon="12.5309679"><ele>9.0</ele><time>2026-04-25T15:31:59.353Z</time></trkpt><trkpt lat="38.0171909" lon="12.5308247"><ele>9.0</ele><time>2026-04-25T15:32:00.353Z</time></trkpt><trkpt lat="38.0171738" lon="12.5306714"><ele>8.75</ele><time>2026-04-25T15:32:01.353Z</time></trkpt><trkpt lat="38.0171501" lon="12.5305213"><ele>8.5</ele><time>2026-04-25T15:32:02.355Z</time></trkpt><trkpt lat="38.0171295" lon="12.5303625"><ele>8.25</ele><time>2026-04-25T15:32:03.353Z</time></trkpt><trkpt lat="38.0171186" lon="12.530206"><ele>8.0</ele><time>2026-04-25T15:32:04.355Z</time></trkpt><trkpt lat="38.017104" lon="12.5300413"><ele>7.5</ele><time>2026-04-25T15:32:05.354Z</time></trkpt><trkpt lat="38.0170852" lon="12.5298745"><ele>7.0</ele><time>2026-04-25T15:32:06.354Z</time></trkpt><trkpt lat="38.0170712" lon="12.5297249"><ele>6.5</ele><time>2026-04-25T15:32:07.353Z</time></trkpt><trkpt lat="38.0170558" lon="12.5295646"><ele>6.0</ele><time>2026-04-25T15:32:08.354Z</time></trkpt><trkpt lat="38.0170411" lon="12.5294082"><ele>8.0</ele><time>2026-04-25T15:32:09.354Z</time></trkpt><trkpt lat="38.0170243" lon="12.5292455"><ele>10.0</ele><time>2026-04-25T15:32:10.353Z</time></trkpt><trkpt lat="38.0170093" lon="12.5290808"><ele>12.0</ele><time>2026-04-25T15:32:11.352Z</time></trkpt><trkpt lat="38.0169743" lon="12.5287643"><ele>12.666666666666668</ele><time>2026-04-25T15:32:13.353Z</time></trkpt><trkpt lat="38.0169298" lon="12.5284326"><ele>13.333333333333334</ele><time>2026-04-25T15:32:15.354Z</time></trkpt><trkpt lat="38.0169169" lon="12.5282727"><ele>14.0</ele><time>2026-04-25T15:32:16.353Z</time></trkpt><trkpt lat="38.0169104" lon="12.5280985"><ele>14.0</ele><time>2026-04-25T15:32:17.353Z</time></trkpt><trkpt lat="38.0168927" lon="12.5279364"><ele>14.0</ele><time>2026-04-25T15:32:18.354Z</time></trkpt><trkpt lat="38.0168836" lon="12.5277805"><ele>14.0</ele><time>2026-04-25T15:32:19.355Z</time></trkpt><trkpt lat="38.0168656" lon="12.5276268"><ele>14.0</ele><time>2026-04-25T15:32:20.354Z</time></trkpt><trkpt lat="38.0168687" lon="12.5274869"><ele>13.75</ele><time>2026-04-25T15:32:21.352Z</time></trkpt><trkpt lat="38.0168434" lon="12.5273319"><ele>13.5</ele><time>2026-04-25T15:32:22.353Z</time></trkpt><trkpt lat="38.016825" lon="12.5271741"><ele>13.25</ele><time>2026-04-25T15:32:23.354Z</time></trkpt><trkpt lat="38.0168085" lon="12.5270233"><ele>13.0</ele><time>2026-04-25T15:32:24.354Z</time></trkpt><trkpt lat="38.0167838" lon="12.5268689"><ele>12.25</ele><time>2026-04-25T15:32:25.353Z</time></trkpt><trkpt lat="38.0167652" lon="12.5267139"><ele>11.5</ele><time>2026-04-25T15:32:26.353Z</time></trkpt><trkpt lat="38.0167435" lon="12.5265535"><ele>10.75</ele><time>2026-04-25T15:32:27.353Z</time></trkpt><trkpt lat="38.0167249" lon="12.5263963"><ele>10.0</ele><time>2026-04-25T15:32:28.354Z</time></trkpt><trkpt lat="38.0167093" lon="12.5262463"><ele>9.0</ele><time>2026-04-25T15:32:29.354Z</time></trkpt><trkpt lat="38.0166939" lon="12.5260929"><ele>8.0</ele><time>2026-04-25T15:32:30.353Z</time></trkpt><trkpt lat="38.0166767" lon="12.5259391"><ele>7.0</ele><time>2026-04-25T15:32:31.353Z</time></trkpt><trkpt lat="38.0166592" lon="12.5257919"><ele>6.0</ele><time>2026-04-25T15:32:32.353Z</time></trkpt><trkpt lat="38.0166384" lon="12.5256491"><ele>5.75</ele><time>2026-04-25T15:32:33.352Z</time></trkpt><trkpt lat="38.0166169" lon="12.525503"><ele>5.5</ele><time>2026-04-25T15:32:34.353Z</time></trkpt><trkpt lat="38.016602" lon="12.5253599"><ele>5.25</ele><time>2026-04-25T15:32:35.355Z</time></trkpt><trkpt lat="38.0165822" lon="12.5252191"><ele>5.0</ele><time>2026-04-25T15:32:36.353Z</time></trkpt><trkpt lat="38.0165637" lon="12.5250857"><ele>5.4</ele><time>2026-04-25T15:32:37.353Z</time></trkpt><trkpt lat="38.0165461" lon="12.5249591"><ele>5.8</ele><time>2026-04-25T15:32:38.354Z</time></trkpt><trkpt lat="38.016533" lon="12.524833"><ele>6.199999999999999</ele><time>2026-04-25T15:32:39.354Z</time></trkpt><trkpt lat="38.0165222" lon="12.5247161"><ele>6.6</ele><time>2026-04-25T15:32:40.353Z</time></trkpt><trkpt lat="38.0165113" lon="12.5246021"><ele>7.0</ele><time>2026-04-25T15:32:41.353Z</time></trkpt><trkpt lat="38.0165107" lon="12.5245029"><ele>7.0</ele><time>2026-04-25T15:32:42.354Z</time></trkpt><trkpt lat="38.0165335" lon="12.5243748"><ele>6.999999999999999</ele><time>2026-04-25T15:32:44.354Z</time></trkpt><trkpt lat="38.0166465" lon="12.5243088"><ele>6.999999999999999</ele><time>2026-04-25T15:32:46.354Z</time></trkpt><trkpt lat="38.0167318" lon="12.5242989"><ele>7.0</ele><time>2026-04-25T15:32:47.353Z</time></trkpt><trkpt lat="38.016838" lon="12.5242898"><ele>7.0</ele><time>2026-04-25T15:32:48.352Z</time></trkpt><trkpt lat="38.0169462" lon="12.524277"><ele>7.0</ele><time>2026-04-25T15:32:49.353Z</time></trkpt><trkpt lat="38.0170523" lon="12.5242468"><ele>6.999999999999999</ele><time>2026-04-25T15:32:50.355Z</time></trkpt><trkpt lat="38.0171615" lon="12.524212"><ele>6.999999999999999</ele><time>2026-04-25T15:32:51.354Z</time></trkpt><trkpt lat="38.0172662" lon="12.5241904"><ele>7.0</ele><time>2026-04-25T15:32:52.354Z</time></trkpt><trkpt lat="38.0173703" lon="12.5241686"><ele>7.0</ele><time>2026-04-25T15:32:53.353Z</time></trkpt><trkpt lat="38.0174707" lon="12.5241505"><ele>6.666666666666667</ele><time>2026-04-25T15:32:54.353Z</time></trkpt><trkpt lat="38.0175624" lon="12.524136"><ele>6.333333333333334</ele><time>2026-04-25T15:32:55.353Z</time></trkpt><trkpt lat="38.0176472" lon="12.524127"><ele>6.0</ele><time>2026-04-25T15:32:56.354Z</time></trkpt><trkpt lat="38.0177308" lon="12.524118"><ele>5.666666666666667</ele><time>2026-04-25T15:32:57.354Z</time></trkpt><trkpt lat="38.0178117" lon="12.5241044"><ele>5.333333333333334</ele><time>2026-04-25T15:32:58.353Z</time></trkpt><trkpt lat="38.0178941" lon="12.5240848"><ele>5.0</ele><time>2026-04-25T15:32:59.354Z</time></trkpt><trkpt lat="38.0179753" lon="12.5240743"><ele>5.0</ele><time>2026-04-25T15:33:00.353Z</time></trkpt><trkpt lat="38.0180517" lon="12.5240572"><ele>5.0</ele><time>2026-04-25T15:33:01.354Z</time></trkpt><trkpt lat="38.0181238" lon="12.524046"><ele>5.0</ele><time>2026-04-25T15:33:02.354Z</time></trkpt><trkpt lat="38.0181943" lon="12.5240362"><ele>5.0</ele><time>2026-04-25T15:33:03.353Z</time></trkpt><trkpt lat="38.0182628" lon="12.5240195"><ele>5.0</ele><time>2026-04-25T15:33:04.354Z</time></trkpt><trkpt lat="38.0183308" lon="12.5240043"><ele>5.0</ele><time>2026-04-25T15:33:05.354Z</time></trkpt><trkpt lat="38.018433" lon="12.5239857"><ele>5.333333333333334</ele><time>2026-04-25T15:33:07.354Z</time></trkpt><trkpt lat="38.0185073" lon="12.5239742"><ele>5.666666666666667</ele><time>2026-04-25T15:33:09.354Z</time></trkpt><trkpt lat="38.0185874" lon="12.5239509"><ele>6.0</ele><time>2026-04-25T15:33:11.354Z</time></trkpt><trkpt lat="38.0186945" lon="12.5239226"><ele>6.333333333333334</ele><time>2026-04-25T15:33:13.355Z</time></trkpt><trkpt lat="38.0187994" lon="12.5239009"><ele>6.666666666666667</ele><time>2026-04-25T15:33:15.354Z</time></trkpt><trkpt lat="38.0188734" lon="12.5238851"><ele>7.0</ele><time>2026-04-25T15:33:17.353Z</time></trkpt><trkpt lat="38.0189455" lon="12.5238698"><ele>7.0</ele><time>2026-04-25T15:33:19.353Z</time></trkpt><trkpt lat="38.0190315" lon="12.5238579"><ele>6.999999999999999</ele><time>2026-04-25T15:33:21.353Z</time></trkpt><trkpt lat="38.0191303" lon="12.5238415"><ele>6.999999999999999</ele><time>2026-04-25T15:33:23.353Z</time></trkpt><trkpt lat="38.0192303" lon="12.523822"><ele>7.0</ele><time>2026-04-25T15:33:25.353Z</time></trkpt><trkpt lat="38.0193291" lon="12.5238087"><ele>7.0</ele><time>2026-04-25T15:33:27.353Z</time></trkpt><trkpt lat="38.0194069" lon="12.5238258"><ele>7.500000000000001</ele><time>2026-04-25T15:33:29.354Z</time></trkpt><trkpt lat="38.0194503" lon="12.5239399"><ele>8.0</ele><time>2026-04-25T15:33:31.354Z</time></trkpt><trkpt lat="38.0194669" lon="12.5240194"><ele>8.5</ele><time>2026-04-25T15:33:32.354Z</time></trkpt><trkpt lat="38.0194761" lon="12.5241094"><ele>9.0</ele><time>2026-04-25T15:33:33.354Z</time></trkpt><trkpt lat="38.0194897" lon="12.5242066"><ele>9.5</ele><time>2026-04-25T15:33:34.353Z</time></trkpt><trkpt lat="38.0194985" lon="12.52432"><ele>10.0</ele><time>2026-04-25T15:33:35.355Z</time></trkpt><trkpt lat="38.0195116" lon="12.5244361"><ele>9.8</ele><time>2026-04-25T15:33:36.354Z</time></trkpt><trkpt lat="38.0195281" lon="12.5245662"><ele>9.6</ele><time>2026-04-25T15:33:37.353Z</time></trkpt><trkpt lat="38.0195488" lon="12.5247092"><ele>9.4</ele><time>2026-04-25T15:33:38.353Z</time></trkpt><trkpt lat="38.0195658" lon="12.5248398"><ele>9.2</ele><time>2026-04-25T15:33:39.354Z</time></trkpt><trkpt lat="38.019587" lon="12.5249828"><ele>9.0</ele><time>2026-04-25T15:33:40.354Z</time></trkpt><trkpt lat="38.0196017" lon="12.5251172"><ele>9.0</ele><time>2026-04-25T15:33:41.352Z</time></trkpt><trkpt lat="38.0196197" lon="12.5252486"><ele>9.0</ele><time>2026-04-25T15:33:42.354Z</time></trkpt><trkpt lat="38.0196386" lon="12.5253824"><ele>9.0</ele><time>2026-04-25T15:33:43.354Z</time></trkpt><trkpt lat="38.0196541" lon="12.5255096"><ele>9.0</ele><time>2026-04-25T15:33:44.353Z</time></trkpt><trkpt lat="38.0196727" lon="12.5256461"><ele>9.0</ele><time>2026-04-25T15:33:45.354Z</time></trkpt><trkpt lat="38.0196759" lon="12.5257798"><ele>9.333333333333334</ele><time>2026-04-25T15:33:46.353Z</time></trkpt><trkpt lat="38.0196941" lon="12.5259009"><ele>9.666666666666666</ele><time>2026-04-25T15:33:47.354Z</time></trkpt><trkpt lat="38.0197056" lon="12.5260208"><ele>10.0</ele><time>2026-04-25T15:33:48.354Z</time></trkpt><trkpt lat="38.0197179" lon="12.5261369"><ele>10.333333333333332</ele><time>2026-04-25T15:33:49.353Z</time></trkpt><trkpt lat="38.019734" lon="12.5262395"><ele>10.666666666666666</ele><time>2026-04-25T15:33:50.354Z</time></trkpt><trkpt lat="38.0197453" lon="12.526323"><ele>11.0</ele><time>2026-04-25T15:33:51.354Z</time></trkpt><trkpt lat="38.0197681" lon="12.5264324"><ele>11.0</ele><time>2026-04-25T15:33:53.354Z</time></trkpt><trkpt lat="38.0197928" lon="12.5265453"><ele>11.0</ele><time>2026-04-25T15:34:25.354Z</time></trkpt><trkpt lat="38.0197975" lon="12.5266301"><ele>11.0</ele><time>2026-04-25T15:34:26.354Z</time></trkpt><trkpt lat="38.0198003" lon="12.526729"><ele>11.0</ele><time>2026-04-25T15:34:27.354Z</time></trkpt><trkpt lat="38.0198096" lon="12.5268309"><ele>11.0</ele><time>2026-04-25T15:34:28.355Z</time></trkpt><trkpt lat="38.0198158" lon="12.5269542"><ele>11.0</ele><time>2026-04-25T15:34:29.354Z</time></trkpt><trkpt lat="38.0198285" lon="12.5271109"><ele>10.5</ele><time>2026-04-25T15:34:30.354Z</time></trkpt><trkpt lat="38.0198521" lon="12.5272915"><ele>10.0</ele><time>2026-04-25T15:34:31.354Z</time></trkpt><trkpt lat="38.0198629" lon="12.5274351"><ele>9.5</ele><time>2026-04-25T15:34:32.355Z</time></trkpt><trkpt lat="38.019875" lon="12.5275824"><ele>9.0</ele><time>2026-04-25T15:34:33.354Z</time></trkpt><trkpt lat="38.019881" lon="12.5277101"><ele>9.0</ele><time>2026-04-25T15:34:34.354Z</time></trkpt><trkpt lat="38.0198975" lon="12.5278463"><ele>9.0</ele><time>2026-04-25T15:34:35.355Z</time></trkpt><trkpt lat="38.019921" lon="12.5280018"><ele>9.0</ele><time>2026-04-25T15:34:36.353Z</time></trkpt><trkpt lat="38.0199412" lon="12.5281442"><ele>9.0</ele><time>2026-04-25T15:34:37.354Z</time></trkpt><trkpt lat="38.019961" lon="12.528283"><ele>8.75</ele><time>2026-04-25T15:34:38.354Z</time></trkpt><trkpt lat="38.0199785" lon="12.5284241"><ele>8.5</ele><time>2026-04-25T15:34:39.354Z</time></trkpt><trkpt lat="38.0199859" lon="12.5285798"><ele>8.25</ele><time>2026-04-25T15:34:40.354Z</time></trkpt><trkpt lat="38.0200025" lon="12.5287209"><ele>8.0</ele><time>2026-04-25T15:34:41.354Z</time></trkpt><trkpt lat="38.0200379" lon="12.5288718"><ele>8.0</ele><time>2026-04-25T15:34:42.353Z</time></trkpt><trkpt lat="38.0200484" lon="12.5290134"><ele>8.0</ele><time>2026-04-25T15:34:43.354Z</time></trkpt><trkpt lat="38.0200601" lon="12.5291479"><ele>8.0</ele><time>2026-04-25T15:34:44.354Z</time></trkpt><trkpt lat="38.0200713" lon="12.5292513"><ele>8.0</ele><time>2026-04-25T15:34:45.353Z</time></trkpt><trkpt lat="38.0200912" lon="12.5293621"><ele>8.0</ele><time>2026-04-25T15:34:46.354Z</time></trkpt><trkpt lat="38.0200999" lon="12.529443"><ele>8.25</ele><time>2026-04-25T15:34:47.353Z</time></trkpt><trkpt lat="38.0201016" lon="12.5295607"><ele>8.5</ele><time>2026-04-25T15:34:49.355Z</time></trkpt><trkpt lat="38.0201127" lon="12.5297736"><ele>8.75</ele><time>2026-04-25T15:36:02.353Z</time></trkpt><trkpt lat="38.0201289" lon="12.529879"><ele>9.0</ele><time>2026-04-25T15:36:03.355Z</time></trkpt><trkpt lat="38.020144" lon="12.5300099"><ele>9.0</ele><time>2026-04-25T15:36:04.354Z</time></trkpt><trkpt lat="38.0201666" lon="12.5301805"><ele>9.0</ele><time>2026-04-25T15:36:05.354Z</time></trkpt><trkpt lat="38.0201842" lon="12.5303772"><ele>9.0</ele><time>2026-04-25T15:36:06.353Z</time></trkpt><trkpt lat="38.0202053" lon="12.5305832"><ele>9.333333333333334</ele><time>2026-04-25T15:36:07.354Z</time></trkpt><trkpt lat="38.0202564" lon="12.5308169"><ele>9.666666666666668</ele><time>2026-04-25T15:36:08.355Z</time></trkpt><trkpt lat="38.0202803" lon="12.5310291"><ele>10.0</ele><time>2026-04-25T15:36:09.353Z</time></trkpt><trkpt lat="38.0203139" lon="12.5311842"><ele>10.0</ele><time>2026-04-25T15:36:10.354Z</time></trkpt><trkpt lat="38.0203243" lon="12.531345"><ele>10.0</ele><time>2026-04-25T15:36:11.354Z</time></trkpt><trkpt lat="38.0203426" lon="12.5315191"><ele>10.0</ele><time>2026-04-25T15:36:12.354Z</time></trkpt><trkpt lat="38.0203597" lon="12.5317057"><ele>10.0</ele><time>2026-04-25T15:36:13.356Z</time></trkpt><trkpt lat="38.0203814" lon="12.5318866"><ele>10.333333333333334</ele><time>2026-04-25T15:36:14.354Z</time></trkpt><trkpt lat="38.0204024" lon="12.5320885"><ele>10.666666666666666</ele><time>2026-04-25T15:36:15.355Z</time></trkpt><trkpt lat="38.0204256" lon="12.5322789"><ele>11.0</ele><time>2026-04-25T15:36:16.354Z</time></trkpt><trkpt lat="38.0204527" lon="12.5324736"><ele>11.0</ele><time>2026-04-25T15:36:17.354Z</time></trkpt><trkpt lat="38.0204685" lon="12.5326418"><ele>11.0</ele><time>2026-04-25T15:36:18.354Z</time></trkpt><trkpt lat="38.0204876" lon="12.5328104"><ele>11.0</ele><time>2026-04-25T15:36:19.353Z</time></trkpt><trkpt lat="38.0205013" lon="12.5329637"><ele>11.0</ele><time>2026-04-25T15:36:20.353Z</time></trkpt><trkpt lat="38.0205241" lon="12.5331086"><ele>10.666666666666666</ele><time>2026-04-25T15:36:21.354Z</time></trkpt><trkpt lat="38.0205406" lon="12.533247"><ele>10.333333333333332</ele><time>2026-04-25T15:36:22.354Z</time></trkpt><trkpt lat="38.0205383" lon="12.5333565"><ele>10.0</ele><time>2026-04-25T15:36:23.353Z</time></trkpt><trkpt lat="38.0205328" lon="12.5334572"><ele>9.666666666666666</ele><time>2026-04-25T15:36:24.354Z</time></trkpt><trkpt lat="38.0205198" lon="12.5335538"><ele>9.333333333333334</ele><time>2026-04-25T15:36:25.354Z</time></trkpt><trkpt lat="38.0205117" lon="12.5336353"><ele>9.0</ele><time>2026-04-25T15:36:26.354Z</time></trkpt><trkpt lat="38.0205467" lon="12.5337613"><ele>9.0</ele><time>2026-04-25T15:36:28.354Z</time></trkpt><trkpt lat="38.020638" lon="12.533775"><ele>9.0</ele><time>2026-04-25T15:36:30.354Z</time></trkpt><trkpt lat="38.0206909" lon="12.5336783"><ele>9.0</ele><time>2026-04-25T15:36:32.354Z</time></trkpt><trkpt lat="38.0206932" lon="12.5335875"><ele>9.0</ele><time>2026-04-25T15:36:33.353Z</time></trkpt><trkpt lat="38.0206768" lon="12.5334857"><ele>9.0</ele><time>2026-04-25T15:36:34.355Z</time></trkpt><trkpt lat="38.020654" lon="12.533352"><ele>9.0</ele><time>2026-04-25T15:36:35.354Z</time></trkpt><trkpt lat="38.0206332" lon="12.5332031"><ele>9.0</ele><time>2026-04-25T15:36:36.354Z</time></trkpt><trkpt lat="38.020618" lon="12.5330513"><ele>9.0</ele><time>2026-04-25T15:36:37.354Z</time></trkpt><trkpt lat="38.020608" lon="12.5329246"><ele>9.0</ele><time>2026-04-25T15:36:38.354Z</time></trkpt><trkpt lat="38.0206072" lon="12.5328214"><ele>9.0</ele><time>2026-04-25T15:36:39.354Z</time></trkpt><trkpt lat="38.0206135" lon="12.5327403"><ele>9.0</ele><time>2026-04-25T15:36:40.353Z</time></trkpt><trkpt lat="38.0206818" lon="12.5326322"><ele>9.5</ele><time>2026-04-25T15:36:42.354Z</time></trkpt><trkpt lat="38.0208106" lon="12.5326012"><ele>10.0</ele><time>2026-04-25T15:36:44.354Z</time></trkpt><trkpt lat="38.0209125" lon="12.5326361"><ele>10.5</ele><time>2026-04-25T15:36:45.354Z</time></trkpt><trkpt lat="38.0210186" lon="12.5326925"><ele>11.0</ele><time>2026-04-25T15:36:46.354Z</time></trkpt><trkpt lat="38.0211405" lon="12.5327619"><ele>11.333333333333332</ele><time>2026-04-25T15:36:47.355Z</time></trkpt><trkpt lat="38.0212367" lon="12.5328073"><ele>11.666666666666666</ele><time>2026-04-25T15:36:48.354Z</time></trkpt><trkpt lat="38.0213224" lon="12.532861"><ele>12.0</ele><time>2026-04-25T15:36:49.354Z</time></trkpt><trkpt lat="38.0213951" lon="12.5329145"><ele>12.333333333333332</ele><time>2026-04-25T15:36:50.354Z</time></trkpt><trkpt lat="38.0214664" lon="12.5329606"><ele>12.666666666666666</ele><time>2026-04-25T15:36:51.353Z</time></trkpt><trkpt lat="38.0215369" lon="12.533002"><ele>13.0</ele><time>2026-04-25T15:36:52.355Z</time></trkpt><trkpt lat="38.0216311" lon="12.5330586"><ele>12.200000000000001</ele><time>2026-04-25T15:36:53.354Z</time></trkpt><trkpt lat="38.0217186" lon="12.5331059"><ele>11.4</ele><time>2026-04-25T15:36:54.354Z</time></trkpt><trkpt lat="38.0218196" lon="12.5331603"><ele>10.600000000000001</ele><time>2026-04-25T15:36:55.355Z</time></trkpt><trkpt lat="38.0219147" lon="12.5332175"><ele>9.8</ele><time>2026-04-25T15:36:56.353Z</time></trkpt><trkpt lat="38.0220148" lon="12.5332642"><ele>9.0</ele><time>2026-04-25T15:36:57.356Z</time></trkpt><trkpt lat="38.0221355" lon="12.5333355"><ele>9.0</ele><time>2026-04-25T15:36:58.355Z</time></trkpt><trkpt lat="38.0222552" lon="12.5334041"><ele>9.0</ele><time>2026-04-25T15:36:59.354Z</time></trkpt><trkpt lat="38.0223716" lon="12.5334572"><ele>9.0</ele><time>2026-04-25T15:37:00.354Z</time></trkpt><trkpt lat="38.0224585" lon="12.5335075"><ele>9.0</ele><time>2026-04-25T15:37:01.354Z</time></trkpt><trkpt lat="38.0225708" lon="12.5335832"><ele>9.4</ele><time>2026-04-25T15:37:02.354Z</time></trkpt><trkpt lat="38.0226636" lon="12.5336232"><ele>9.8</ele><time>2026-04-25T15:37:03.355Z</time></trkpt><trkpt lat="38.0227583" lon="12.533643"><ele>10.200000000000001</ele><time>2026-04-25T15:37:04.354Z</time></trkpt><trkpt lat="38.0228646" lon="12.5336657"><ele>10.600000000000001</ele><time>2026-04-25T15:37:05.354Z</time></trkpt><trkpt lat="38.0229635" lon="12.5336868"><ele>11.0</ele><time>2026-04-25T15:37:06.355Z</time></trkpt><trkpt lat="38.0230578" lon="12.5337091"><ele>10.600000000000001</ele><time>2026-04-25T15:37:07.354Z</time></trkpt><trkpt lat="38.0231575" lon="12.5337263"><ele>10.200000000000001</ele><time>2026-04-25T15:37:08.354Z</time></trkpt><trkpt lat="38.023264" lon="12.5337438"><ele>9.8</ele><time>2026-04-25T15:37:09.354Z</time></trkpt><trkpt lat="38.0233795" lon="12.5337757"><ele>9.4</ele><time>2026-04-25T15:37:10.354Z</time></trkpt><trkpt lat="38.0234889" lon="12.5337916"><ele>9.0</ele><time>2026-04-25T15:37:11.355Z</time></trkpt><trkpt lat="38.0235888" lon="12.5338122"><ele>9.0</ele><time>2026-04-25T15:37:12.355Z</time></trkpt><trkpt lat="38.0236894" lon="12.5338375"><ele>9.0</ele><time>2026-04-25T15:37:13.354Z</time></trkpt><trkpt lat="38.0237882" lon="12.5338568"><ele>9.0</ele><time>2026-04-25T15:37:14.354Z</time></trkpt><trkpt lat="38.0238941" lon="12.5338742"><ele>9.0</ele><time>2026-04-25T15:37:15.354Z</time></trkpt><trkpt lat="38.0239943" lon="12.5338987"><ele>9.0</ele><time>2026-04-25T15:37:16.354Z</time></trkpt><trkpt lat="38.0241059" lon="12.5339104"><ele>8.8</ele><time>2026-04-25T15:37:17.354Z</time></trkpt><trkpt lat="38.0242141" lon="12.5339262"><ele>8.600000000000001</ele><time>2026-04-25T15:37:18.354Z</time></trkpt><trkpt lat="38.0243207" lon="12.5339466"><ele>8.4</ele><time>2026-04-25T15:37:19.354Z</time></trkpt><trkpt lat="38.0244308" lon="12.5339633"><ele>8.200000000000001</ele><time>2026-04-25T15:37:20.355Z</time></trkpt><trkpt lat="38.0245354" lon="12.533978"><ele>8.0</ele><time>2026-04-25T15:37:21.354Z</time></trkpt><trkpt lat="38.0246427" lon="12.5339915"><ele>8.0</ele><time>2026-04-25T15:37:22.354Z</time></trkpt><trkpt lat="38.0247442" lon="12.5340105"><ele>8.0</ele><time>2026-04-25T15:37:23.354Z</time></trkpt><trkpt lat="38.0248615" lon="12.534042"><ele>8.0</ele><time>2026-04-25T15:37:24.355Z</time></trkpt><trkpt lat="38.0249683" lon="12.5340559"><ele>8.0</ele><time>2026-04-25T15:37:25.354Z</time></trkpt><trkpt lat="38.0250738" lon="12.5340784"><ele>8.0</ele><time>2026-04-25T15:37:26.355Z</time></trkpt><trkpt lat="38.025177" lon="12.5340985"><ele>8.0</ele><time>2026-04-25T15:37:27.354Z</time></trkpt><trkpt lat="38.0252739" lon="12.534114"><ele>8.0</ele><time>2026-04-25T15:37:28.356Z</time></trkpt><trkpt lat="38.0253617" lon="12.5341322"><ele>8.0</ele><time>2026-04-25T15:37:29.355Z</time></trkpt><trkpt lat="38.0254449" lon="12.5341469"><ele>8.0</ele><time>2026-04-25T15:37:30.355Z</time></trkpt><trkpt lat="38.0255343" lon="12.5341667"><ele>8.0</ele><time>2026-04-25T15:37:31.354Z</time></trkpt><trkpt lat="38.0256233" lon="12.5341891"><ele>7.999999999999999</ele><time>2026-04-25T15:37:32.354Z</time></trkpt><trkpt lat="38.0256966" lon="12.5342227"><ele>8.0</ele><time>2026-04-25T15:37:33.354Z</time></trkpt><trkpt lat="38.0257783" lon="12.5342714"><ele>8.0</ele><time>2026-04-25T15:37:34.355Z</time></trkpt><trkpt lat="38.0258506" lon="12.5343304"><ele>8.0</ele><time>2026-04-25T15:37:35.355Z</time></trkpt><trkpt lat="38.0259193" lon="12.5344091"><ele>7.999999999999999</ele><time>2026-04-25T15:37:36.354Z</time></trkpt><trkpt lat="38.0259841" lon="12.5345029"><ele>8.0</ele><time>2026-04-25T15:37:37.353Z</time></trkpt><trkpt lat="38.0260391" lon="12.5345973"><ele>7.4</ele><time>2026-04-25T15:37:38.355Z</time></trkpt><trkpt lat="38.0260917" lon="12.534682"><ele>6.800000000000001</ele><time>2026-04-25T15:37:39.354Z</time></trkpt><trkpt lat="38.0261423" lon="12.5347748"><ele>6.2</ele><time>2026-04-25T15:37:40.354Z</time></trkpt><trkpt lat="38.0261901" lon="12.5348692"><ele>5.6</ele><time>2026-04-25T15:37:41.354Z</time></trkpt><trkpt lat="38.0262419" lon="12.5349706"><ele>5.0</ele><time>2026-04-25T15:37:42.355Z</time></trkpt><trkpt lat="38.0262926" lon="12.5350737"><ele>5.0</ele><time>2026-04-25T15:37:43.354Z</time></trkpt><trkpt lat="38.0263496" lon="12.5351865"><ele>5.0</ele><time>2026-04-25T15:37:44.354Z</time></trkpt><trkpt lat="38.0264084" lon="12.5352955"><ele>5.0</ele><time>2026-04-25T15:37:45.355Z</time></trkpt><trkpt lat="38.0264637" lon="12.5353988"><ele>5.0</ele><time>2026-04-25T15:37:46.355Z</time></trkpt><trkpt lat="38.0265204" lon="12.5355013"><ele>5.0</ele><time>2026-04-25T15:37:47.353Z</time></trkpt><trkpt lat="38.026574" lon="12.5356088"><ele>5.8</ele><time>2026-04-25T15:37:48.353Z</time></trkpt><trkpt lat="38.0266319" lon="12.5357228"><ele>6.6</ele><time>2026-04-25T15:37:49.355Z</time></trkpt><trkpt lat="38.0266963" lon="12.5358424"><ele>7.4</ele><time>2026-04-25T15:37:50.355Z</time></trkpt><trkpt lat="38.0267458" lon="12.5359479"><ele>8.2</ele><time>2026-04-25T15:37:51.355Z</time></trkpt><trkpt lat="38.0268203" lon="12.5360537"><ele>9.0</ele><time>2026-04-25T15:37:52.355Z</time></trkpt><trkpt lat="38.026886" lon="12.5361527"><ele>9.166666666666666</ele><time>2026-04-25T15:37:53.355Z</time></trkpt><trkpt lat="38.0269399" lon="12.5362324"><ele>9.333333333333334</ele><time>2026-04-25T15:37:54.354Z</time></trkpt><trkpt lat="38.0269853" lon="12.5363136"><ele>9.5</ele><time>2026-04-25T15:37:55.354Z</time></trkpt><trkpt lat="38.0270345" lon="12.5363974"><ele>9.666666666666668</ele><time>2026-04-25T15:37:56.355Z</time></trkpt><trkpt lat="38.0270818" lon="12.536484"><ele>9.833333333333334</ele><time>2026-04-25T15:37:57.355Z</time></trkpt><trkpt lat="38.0271331" lon="12.536585"><ele>10.0</ele><time>2026-04-25T15:37:58.354Z</time></trkpt><trkpt lat="38.0271916" lon="12.5366908"><ele>10.0</ele><time>2026-04-25T15:37:59.354Z</time></trkpt><trkpt lat="38.0272454" lon="12.5368173"><ele>10.0</ele><time>2026-04-25T15:38:00.354Z</time></trkpt><trkpt lat="38.0272961" lon="12.5369536"><ele>10.0</ele><time>2026-04-25T15:38:01.355Z</time></trkpt><trkpt lat="38.0273447" lon="12.5370844"><ele>10.0</ele><time>2026-04-25T15:38:02.354Z</time></trkpt><trkpt lat="38.0273896" lon="12.537215"><ele>10.0</ele><time>2026-04-25T15:38:03.354Z</time></trkpt><trkpt lat="38.0274411" lon="12.5373525"><ele>10.0</ele><time>2026-04-25T15:38:04.354Z</time></trkpt><trkpt lat="38.0274929" lon="12.5374845"><ele>10.0</ele><time>2026-04-25T15:38:05.353Z</time></trkpt><trkpt lat="38.0275917" lon="12.5377445"><ele>10.0</ele><time>2026-04-25T15:38:07.354Z</time></trkpt><trkpt lat="38.0276423" lon="12.5378702"><ele>10.0</ele><time>2026-04-25T15:38:08.355Z</time></trkpt><trkpt lat="38.0276911" lon="12.537996"><ele>10.0</ele><time>2026-04-25T15:38:09.354Z</time></trkpt><trkpt lat="38.0277411" lon="12.5381218"><ele>10.0</ele><time>2026-04-25T15:38:10.354Z</time></trkpt><trkpt lat="38.0277907" lon="12.53825"><ele>10.0</ele><time>2026-04-25T15:38:11.354Z</time></trkpt><trkpt lat="38.0278425" lon="12.5383657"><ele>10.0</ele><time>2026-04-25T15:38:12.354Z</time></trkpt><trkpt lat="38.027882" lon="12.5384677"><ele>10.0</ele><time>2026-04-25T15:38:13.355Z</time></trkpt><trkpt lat="38.0279174" lon="12.5385679"><ele>10.0</ele><time>2026-04-25T15:38:14.354Z</time></trkpt><trkpt lat="38.0279536" lon="12.538661"><ele>10.0</ele><time>2026-04-25T15:38:15.355Z</time></trkpt><trkpt lat="38.027998" lon="12.5387213"><ele>10.0</ele><time>2026-04-25T15:38:16.354Z</time></trkpt><trkpt lat="38.0280976" lon="12.5388047"><ele>10.0</ele><time>2026-04-25T15:38:18.355Z</time></trkpt><trkpt lat="38.0281795" lon="12.5388039"><ele>10.2</ele><time>2026-04-25T15:38:19.354Z</time></trkpt><trkpt lat="38.0282618" lon="12.5388054"><ele>10.4</ele><time>2026-04-25T15:38:20.354Z</time></trkpt><trkpt lat="38.0283569" lon="12.5388074"><ele>10.600000000000001</ele><time>2026-04-25T15:38:21.354Z</time></trkpt><trkpt lat="38.0284506" lon="12.5388104"><ele>10.8</ele><time>2026-04-25T15:38:22.355Z</time></trkpt><trkpt lat="38.0285408" lon="12.5388198"><ele>11.0</ele><time>2026-04-25T15:38:23.354Z</time></trkpt><trkpt lat="38.0286319" lon="12.5388275"><ele>11.0</ele><time>2026-04-25T15:38:24.354Z</time></trkpt><trkpt lat="38.0287354" lon="12.538837"><ele>11.0</ele><time>2026-04-25T15:38:25.354Z</time></trkpt><trkpt lat="38.028845" lon="12.5388419"><ele>11.0</ele><time>2026-04-25T15:38:26.353Z</time></trkpt><trkpt lat="38.0289553" lon="12.5388447"><ele>11.0</ele><time>2026-04-25T15:38:27.354Z</time></trkpt><trkpt lat="38.0290624" lon="12.5388445"><ele>11.0</ele><time>2026-04-25T15:38:28.354Z</time></trkpt><trkpt lat="38.0291577" lon="12.53885"><ele>11.0</ele><time>2026-04-25T15:38:29.355Z</time></trkpt><trkpt lat="38.0292403" lon="12.5388716"><ele>11.0</ele><time>2026-04-25T15:38:30.353Z</time></trkpt><trkpt lat="38.0293175" lon="12.5388832"><ele>11.0</ele><time>2026-04-25T15:38:31.354Z</time></trkpt><trkpt lat="38.0293762" lon="12.5389267"><ele>11.0</ele><time>2026-04-25T15:38:32.355Z</time></trkpt><trkpt lat="38.0294381" lon="12.5389857"><ele>11.0</ele><time>2026-04-25T15:38:33.355Z</time></trkpt><trkpt lat="38.0294934" lon="12.5390501"><ele>11.0</ele><time>2026-04-25T15:38:34.355Z</time></trkpt><trkpt lat="38.0295402" lon="12.539149"><ele>11.0</ele><time>2026-04-25T15:38:35.356Z</time></trkpt><trkpt lat="38.0295986" lon="12.5392352"><ele>11.0</ele><time>2026-04-25T15:38:36.356Z</time></trkpt><trkpt lat="38.0296617" lon="12.5393178"><ele>11.0</ele><time>2026-04-25T15:38:37.354Z</time></trkpt><trkpt lat="38.0297128" lon="12.5394002"><ele>11.0</ele><time>2026-04-25T15:38:38.353Z</time></trkpt><trkpt lat="38.0297707" lon="12.5394781"><ele>11.0</ele><time>2026-04-25T15:38:39.355Z</time></trkpt><trkpt lat="38.0298244" lon="12.5395741"><ele>11.0</ele><time>2026-04-25T15:38:40.354Z</time></trkpt><trkpt lat="38.0298743" lon="12.5396825"><ele>11.0</ele><time>2026-04-25T15:38:41.355Z</time></trkpt><trkpt lat="38.0299301" lon="12.5397808"><ele>11.0</ele><time>2026-04-25T15:38:42.355Z</time></trkpt><trkpt lat="38.0299894" lon="12.5398601"><ele>11.0</ele><time>2026-04-25T15:38:43.355Z</time></trkpt><trkpt lat="38.0300453" lon="12.5399554"><ele>11.0</ele><time>2026-04-25T15:38:44.356Z</time></trkpt><trkpt lat="38.030103" lon="12.5400393"><ele>11.0</ele><time>2026-04-25T15:38:45.354Z</time></trkpt><trkpt lat="38.0301718" lon="12.5401186"><ele>11.0</ele><time>2026-04-25T15:38:46.355Z</time></trkpt><trkpt lat="38.0302509" lon="12.5401593"><ele>11.0</ele><time>2026-04-25T15:38:47.355Z</time></trkpt><trkpt lat="38.0303222" lon="12.5401758"><ele>11.0</ele><time>2026-04-25T15:38:48.354Z</time></trkpt><trkpt lat="38.030406" lon="12.540217"><ele>11.0</ele><time>2026-04-25T15:38:49.355Z</time></trkpt><trkpt lat="38.0304855" lon="12.5402635"><ele>11.0</ele><time>2026-04-25T15:38:50.355Z</time></trkpt><trkpt lat="38.030561" lon="12.5402983"><ele>11.0</ele><time>2026-04-25T15:38:51.354Z</time></trkpt><trkpt lat="38.0306304" lon="12.5403271"><ele>11.0</ele><time>2026-04-25T15:38:52.355Z</time></trkpt><trkpt lat="38.0307107" lon="12.5403679"><ele>11.0</ele><time>2026-04-25T15:38:53.353Z</time></trkpt><trkpt lat="38.0307922" lon="12.5404046"><ele>11.0</ele><time>2026-04-25T15:38:54.354Z</time></trkpt><trkpt lat="38.0308644" lon="12.5404388"><ele>11.0</ele><time>2026-04-25T15:38:55.355Z</time></trkpt><trkpt lat="38.0309402" lon="12.5404751"><ele>11.0</ele><time>2026-04-25T15:38:56.355Z</time></trkpt><trkpt lat="38.0310144" lon="12.5405084"><ele>11.0</ele><time>2026-04-25T15:38:57.355Z</time></trkpt><trkpt lat="38.0310907" lon="12.5405412"><ele>11.333333333333332</ele><time>2026-04-25T15:38:58.355Z</time></trkpt><trkpt lat="38.031158" lon="12.5405694"><ele>11.666666666666666</ele><time>2026-04-25T15:38:59.355Z</time></trkpt><trkpt lat="38.0312289" lon="12.5406064"><ele>12.0</ele><time>2026-04-25T15:39:00.354Z</time></trkpt><trkpt lat="38.0313094" lon="12.5406383"><ele>12.333333333333332</ele><time>2026-04-25T15:39:01.356Z</time></trkpt><trkpt lat="38.0313801" lon="12.540677"><ele>12.666666666666666</ele><time>2026-04-25T15:39:02.355Z</time></trkpt><trkpt lat="38.0314649" lon="12.5407006"><ele>13.0</ele><time>2026-04-25T15:39:03.355Z</time></trkpt><trkpt lat="38.0315792" lon="12.5407626"><ele>12.999999999999998</ele><time>2026-04-25T15:39:05.355Z</time></trkpt><trkpt lat="38.0316411" lon="12.5407994"><ele>13.0</ele><time>2026-04-25T15:39:06.353Z</time></trkpt><trkpt lat="38.0317043" lon="12.5408401"><ele>13.0</ele><time>2026-04-25T15:39:07.355Z</time></trkpt><trkpt lat="38.0317695" lon="12.5408797"><ele>13.0</ele><time>2026-04-25T15:39:08.355Z</time></trkpt><trkpt lat="38.031836" lon="12.5409071"><ele>12.999999999999998</ele><time>2026-04-25T15:39:09.355Z</time></trkpt><trkpt lat="38.0319117" lon="12.5409494"><ele>13.0</ele><time>2026-04-25T15:39:10.354Z</time></trkpt><trkpt lat="38.0319921" lon="12.5409903"><ele>13.0</ele><time>2026-04-25T15:39:11.355Z</time></trkpt><trkpt lat="38.032067" lon="12.541029"><ele>13.0</ele><time>2026-04-25T15:39:12.354Z</time></trkpt><trkpt lat="38.0321521" lon="12.5410767"><ele>13.0</ele><time>2026-04-25T15:39:13.355Z</time></trkpt><trkpt lat="38.0322519" lon="12.5411225"><ele>13.0</ele><time>2026-04-25T15:39:14.355Z</time></trkpt><trkpt lat="38.0323421" lon="12.5411577"><ele>13.0</ele><time>2026-04-25T15:39:15.355Z</time></trkpt><trkpt lat="38.0324384" lon="12.5412079"><ele>13.25</ele><time>2026-04-25T15:39:16.355Z</time></trkpt><trkpt lat="38.0325378" lon="12.5412646"><ele>13.5</ele><time>2026-04-25T15:39:17.355Z</time></trkpt><trkpt lat="38.0326401" lon="12.5413211"><ele>13.75</ele><time>2026-04-25T15:39:18.356Z</time></trkpt><trkpt lat="38.0327435" lon="12.5413871"><ele>14.0</ele><time>2026-04-25T15:39:19.355Z</time></trkpt><trkpt lat="38.0328511" lon="12.5414475"><ele>14.0</ele><time>2026-04-25T15:39:20.355Z</time></trkpt><trkpt lat="38.0329639" lon="12.5415113"><ele>14.0</ele><time>2026-04-25T15:39:21.354Z</time></trkpt><trkpt lat="38.0330782" lon="12.5415692"><ele>14.0</ele><time>2026-04-25T15:39:22.355Z</time></trkpt><trkpt lat="38.033191" lon="12.5416385"><ele>14.0</ele><time>2026-04-25T15:39:23.354Z</time></trkpt><trkpt lat="38.0333005" lon="12.5417032"><ele>14.0</ele><time>2026-04-25T15:39:24.355Z</time></trkpt><trkpt lat="38.0334087" lon="12.5417643"><ele>14.0</ele><time>2026-04-25T15:39:25.354Z</time></trkpt><trkpt lat="38.0335191" lon="12.5418226"><ele>14.0</ele><time>2026-04-25T15:39:26.355Z</time></trkpt><trkpt lat="38.0336302" lon="12.5418869"><ele>14.0</ele><time>2026-04-25T15:39:27.355Z</time></trkpt><trkpt lat="38.0337345" lon="12.541938"><ele>14.0</ele><time>2026-04-25T15:39:28.355Z</time></trkpt><trkpt lat="38.0338333" lon="12.5419904"><ele>13.999999999999998</ele><time>2026-04-25T15:39:29.355Z</time></trkpt><trkpt lat="38.0339341" lon="12.5420348"><ele>13.999999999999998</ele><time>2026-04-25T15:39:30.354Z</time></trkpt><trkpt lat="38.0340292" lon="12.5420793"><ele>14.0</ele><time>2026-04-25T15:39:31.355Z</time></trkpt><trkpt lat="38.0341119" lon="12.5421275"><ele>14.0</ele><time>2026-04-25T15:39:32.354Z</time></trkpt><trkpt lat="38.0341802" lon="12.5421812"><ele>13.2</ele><time>2026-04-25T15:39:33.355Z</time></trkpt><trkpt lat="38.0342382" lon="12.5422513"><ele>12.399999999999999</ele><time>2026-04-25T15:39:34.355Z</time></trkpt><trkpt lat="38.034275" lon="12.542324"><ele>11.6</ele><time>2026-04-25T15:39:35.354Z</time></trkpt><trkpt lat="38.0343093" lon="12.542401"><ele>10.8</ele><time>2026-04-25T15:39:36.355Z</time></trkpt><trkpt lat="38.0344085" lon="12.5424983"><ele>10.0</ele><time>2026-04-25T15:39:38.355Z</time></trkpt><trkpt lat="38.0345475" lon="12.5424752"><ele>10.0</ele><time>2026-04-25T15:39:40.356Z</time></trkpt><trkpt lat="38.034637" lon="12.5424618"><ele>10.0</ele><time>2026-04-25T15:39:41.355Z</time></trkpt><trkpt lat="38.0347307" lon="12.5424732"><ele>10.0</ele><time>2026-04-25T15:39:42.355Z</time></trkpt><trkpt lat="38.0348353" lon="12.542499"><ele>10.0</ele><time>2026-04-25T15:39:43.354Z</time></trkpt><trkpt lat="38.0349379" lon="12.5425271"><ele>10.0</ele><time>2026-04-25T15:39:44.354Z</time></trkpt><trkpt lat="38.0350503" lon="12.542548"><ele>10.0</ele><time>2026-04-25T15:39:45.354Z</time></trkpt><trkpt lat="38.0351646" lon="12.5425544"><ele>10.0</ele><time>2026-04-25T15:39:46.356Z</time></trkpt><trkpt lat="38.0352875" lon="12.5425451"><ele>10.0</ele><time>2026-04-25T15:39:47.354Z</time></trkpt><trkpt lat="38.0354112" lon="12.5425111"><ele>10.0</ele><time>2026-04-25T15:39:48.355Z</time></trkpt><trkpt lat="38.0355395" lon="12.5424815"><ele>10.0</ele><time>2026-04-25T15:39:49.355Z</time></trkpt><trkpt lat="38.0356651" lon="12.5424445"><ele>10.0</ele><time>2026-04-25T15:39:50.355Z</time></trkpt><trkpt lat="38.0357872" lon="12.5424124"><ele>10.0</ele><time>2026-04-25T15:39:51.354Z</time></trkpt><trkpt lat="38.0359048" lon="12.5423781"><ele>10.0</ele><time>2026-04-25T15:39:52.355Z</time></trkpt><trkpt lat="38.0360174" lon="12.5423439"><ele>9.8</ele><time>2026-04-25T15:39:53.355Z</time></trkpt><trkpt lat="38.0361288" lon="12.542317"><ele>9.6</ele><time>2026-04-25T15:39:54.355Z</time></trkpt><trkpt lat="38.036225" lon="12.5422902"><ele>9.4</ele><time>2026-04-25T15:39:55.355Z</time></trkpt><trkpt lat="38.0363136" lon="12.5422657"><ele>9.2</ele><time>2026-04-25T15:39:56.355Z</time></trkpt><trkpt lat="38.0364012" lon="12.5422404"><ele>9.0</ele><time>2026-04-25T15:39:57.355Z</time></trkpt><trkpt lat="38.0364934" lon="12.542221"><ele>9.0</ele><time>2026-04-25T15:39:58.355Z</time></trkpt><trkpt lat="38.0365976" lon="12.542205"><ele>9.0</ele><time>2026-04-25T15:39:59.355Z</time></trkpt><trkpt lat="38.0367037" lon="12.5421665"><ele>9.0</ele><time>2026-04-25T15:40:00.355Z</time></trkpt><trkpt lat="38.0368159" lon="12.5421265"><ele>9.0</ele><time>2026-04-25T15:40:01.355Z</time></trkpt><trkpt lat="38.0369309" lon="12.5420893"><ele>9.25</ele><time>2026-04-25T15:40:02.355Z</time></trkpt><trkpt lat="38.0370442" lon="12.5420598"><ele>9.5</ele><time>2026-04-25T15:40:03.355Z</time></trkpt><trkpt lat="38.0371599" lon="12.5420278"><ele>9.75</ele><time>2026-04-25T15:40:04.356Z</time></trkpt><trkpt lat="38.0372778" lon="12.5419943"><ele>10.0</ele><time>2026-04-25T15:40:05.354Z</time></trkpt><trkpt lat="38.0373989" lon="12.5419493"><ele>9.25</ele><time>2026-04-25T15:40:06.355Z</time></trkpt><trkpt lat="38.0375255" lon="12.5419155"><ele>8.5</ele><time>2026-04-25T15:40:07.354Z</time></trkpt><trkpt lat="38.0376602" lon="12.5419078"><ele>7.75</ele><time>2026-04-25T15:40:08.354Z</time></trkpt><trkpt lat="38.0378042" lon="12.5419216"><ele>7.0</ele><time>2026-04-25T15:40:09.355Z</time></trkpt><trkpt lat="38.0379559" lon="12.5419523"><ele>7.0</ele><time>2026-04-25T15:40:10.355Z</time></trkpt><trkpt lat="38.0381013" lon="12.5419927"><ele>7.0</ele><time>2026-04-25T15:40:11.355Z</time></trkpt><trkpt lat="38.038248" lon="12.5420324"><ele>7.0</ele><time>2026-04-25T15:40:12.355Z</time></trkpt><trkpt lat="38.0383902" lon="12.5420713"><ele>7.0</ele><time>2026-04-25T15:40:13.355Z</time></trkpt><trkpt lat="38.0385296" lon="12.5421186"><ele>6.75</ele><time>2026-04-25T15:40:14.354Z</time></trkpt><trkpt lat="38.0386601" lon="12.5421569"><ele>6.5</ele><time>2026-04-25T15:40:15.355Z</time></trkpt><trkpt lat="38.0387816" lon="12.5421918"><ele>6.25</ele><time>2026-04-25T15:40:16.354Z</time></trkpt><trkpt lat="38.0389051" lon="12.542229"><ele>6.0</ele><time>2026-04-25T15:40:17.355Z</time></trkpt><trkpt lat="38.0390193" lon="12.5422542"><ele>6.0</ele><time>2026-04-25T15:40:18.355Z</time></trkpt><trkpt lat="38.0391387" lon="12.5422825"><ele>6.0</ele><time>2026-04-25T15:40:19.355Z</time></trkpt><trkpt lat="38.0392669" lon="12.5423296"><ele>6.0</ele><time>2026-04-25T15:40:20.354Z</time></trkpt><trkpt lat="38.0393917" lon="12.5423877"><ele>6.0</ele><time>2026-04-25T15:40:21.355Z</time></trkpt><trkpt lat="38.0395252" lon="12.5424659"><ele>6.0</ele><time>2026-04-25T15:40:22.355Z</time></trkpt><trkpt lat="38.0396615" lon="12.5425497"><ele>6.0</ele><time>2026-04-25T15:40:23.355Z</time></trkpt><trkpt lat="38.039797" lon="12.5426391"><ele>6.0</ele><time>2026-04-25T15:40:24.355Z</time></trkpt><trkpt lat="38.0399228" lon="12.5427292"><ele>6.0</ele><time>2026-04-25T15:40:25.355Z</time></trkpt><trkpt lat="38.0400466" lon="12.5428071"><ele>6.0</ele><time>2026-04-25T15:40:26.354Z</time></trkpt><trkpt lat="38.0401593" lon="12.5428768"><ele>6.0</ele><time>2026-04-25T15:40:27.355Z</time></trkpt><trkpt lat="38.040274" lon="12.5429503"><ele>6.0</ele><time>2026-04-25T15:40:28.355Z</time></trkpt><trkpt lat="38.0403926" lon="12.5430186"><ele>6.0</ele><time>2026-04-25T15:40:29.355Z</time></trkpt><trkpt lat="38.0405082" lon="12.5430867"><ele>6.0</ele><time>2026-04-25T15:40:30.355Z</time></trkpt><trkpt lat="38.0406218" lon="12.5431456"><ele>6.0</ele><time>2026-04-25T15:40:31.355Z</time></trkpt><trkpt lat="38.040732" lon="12.5431934"><ele>6.0</ele><time>2026-04-25T15:40:32.354Z</time></trkpt><trkpt lat="38.0408405" lon="12.5432246"><ele>6.0</ele><time>2026-04-25T15:40:33.354Z</time></trkpt><trkpt lat="38.0409384" lon="12.5432484"><ele>6.4</ele><time>2026-04-25T15:40:34.354Z</time></trkpt><trkpt lat="38.0410395" lon="12.5432597"><ele>6.8</ele><time>2026-04-25T15:40:35.355Z</time></trkpt><trkpt lat="38.0411399" lon="12.5432805"><ele>7.200000000000001</ele><time>2026-04-25T15:40:36.354Z</time></trkpt><trkpt lat="38.0412388" lon="12.5432842"><ele>7.6000000000000005</ele><time>2026-04-25T15:40:37.355Z</time></trkpt><trkpt lat="38.04135" lon="12.5432966"><ele>8.0</ele><time>2026-04-25T15:40:38.354Z</time></trkpt><trkpt lat="38.0414638" lon="12.5433162"><ele>8.0</ele><time>2026-04-25T15:40:39.354Z</time></trkpt><trkpt lat="38.0415854" lon="12.5433522"><ele>8.0</ele><time>2026-04-25T15:40:40.355Z</time></trkpt><trkpt lat="38.0417063" lon="12.5434"><ele>8.0</ele><time>2026-04-25T15:40:41.355Z</time></trkpt><trkpt lat="38.0418193" lon="12.5434637"><ele>8.0</ele><time>2026-04-25T15:40:42.354Z</time></trkpt><trkpt lat="38.0419317" lon="12.543546"><ele>8.25</ele><time>2026-04-25T15:40:43.355Z</time></trkpt><trkpt lat="38.0420373" lon="12.5436335"><ele>8.5</ele><time>2026-04-25T15:40:44.354Z</time></trkpt><trkpt lat="38.0421409" lon="12.543727"><ele>8.75</ele><time>2026-04-25T15:40:45.355Z</time></trkpt><trkpt lat="38.0422325" lon="12.5438198"><ele>9.0</ele><time>2026-04-25T15:40:46.354Z</time></trkpt><trkpt lat="38.0423287" lon="12.5439087"><ele>9.5</ele><time>2026-04-25T15:40:47.354Z</time></trkpt><trkpt lat="38.0424216" lon="12.5439985"><ele>10.0</ele><time>2026-04-25T15:40:48.355Z</time></trkpt><trkpt lat="38.0425275" lon="12.5440874"><ele>10.5</ele><time>2026-04-25T15:40:49.355Z</time></trkpt><trkpt lat="38.0426422" lon="12.5441891"><ele>11.0</ele><time>2026-04-25T15:40:50.355Z</time></trkpt><trkpt lat="38.0427551" lon="12.5442865"><ele>9.666666666666666</ele><time>2026-04-25T15:40:51.354Z</time></trkpt><trkpt lat="38.0428778" lon="12.5444033"><ele>8.333333333333334</ele><time>2026-04-25T15:40:52.356Z</time></trkpt><trkpt lat="38.0429958" lon="12.5445272"><ele>7.0</ele><time>2026-04-25T15:40:53.355Z</time></trkpt><trkpt lat="38.043116" lon="12.544645"><ele>7.0</ele><time>2026-04-25T15:40:54.356Z</time></trkpt><trkpt lat="38.0432348" lon="12.5447691"><ele>7.0</ele><time>2026-04-25T15:40:55.355Z</time></trkpt><trkpt lat="38.0433554" lon="12.5448897"><ele>7.0</ele><time>2026-04-25T15:40:56.355Z</time></trkpt><trkpt lat="38.0434833" lon="12.5450026"><ele>5.666666666666667</ele><time>2026-04-25T15:40:57.355Z</time></trkpt><trkpt lat="38.0436137" lon="12.5451204"><ele>4.333333333333334</ele><time>2026-04-25T15:40:58.354Z</time></trkpt><trkpt lat="38.0437359" lon="12.5452333"><ele>3.0</ele><time>2026-04-25T15:40:59.355Z</time></trkpt><trkpt lat="38.043865" lon="12.5453479"><ele>2.6666666666666665</ele><time>2026-04-25T15:41:00.356Z</time></trkpt><trkpt lat="38.0439884" lon="12.5454703"><ele>2.333333333333333</ele><time>2026-04-25T15:41:01.354Z</time></trkpt><trkpt lat="38.044107" lon="12.5455826"><ele>2.0</ele><time>2026-04-25T15:41:02.355Z</time></trkpt><trkpt lat="38.0442302" lon="12.5457066"><ele>2.5</ele><time>2026-04-25T15:41:03.355Z</time></trkpt><trkpt lat="38.0443474" lon="12.5458256"><ele>3.0</ele><time>2026-04-25T15:41:04.356Z</time></trkpt><trkpt lat="38.0444406" lon="12.5459611"><ele>3.5</ele><time>2026-04-25T15:41:05.355Z</time></trkpt><trkpt lat="38.0445253" lon="12.5461192"><ele>4.0</ele><time>2026-04-25T15:41:06.355Z</time></trkpt><trkpt lat="38.0445923" lon="12.5462879"><ele>4.0</ele><time>2026-04-25T15:41:07.356Z</time></trkpt><trkpt lat="38.044653" lon="12.5464713"><ele>4.0</ele><time>2026-04-25T15:41:08.355Z</time></trkpt><trkpt lat="38.0447046" lon="12.5466592"><ele>4.0</ele><time>2026-04-25T15:41:09.355Z</time></trkpt><trkpt lat="38.0447491" lon="12.5468389"><ele>4.0</ele><time>2026-04-25T15:41:10.355Z</time></trkpt><trkpt lat="38.0447894" lon="12.5470143"><ele>4.0</ele><time>2026-04-25T15:41:11.355Z</time></trkpt><trkpt lat="38.0448292" lon="12.5471681"><ele>4.0</ele><time>2026-04-25T15:41:12.355Z</time></trkpt><trkpt lat="38.044867" lon="12.547314"><ele>4.0</ele><time>2026-04-25T15:41:13.355Z</time></trkpt><trkpt lat="38.0449432" lon="12.5475907"><ele>4.5</ele><time>2026-04-25T15:41:15.354Z</time></trkpt><trkpt lat="38.0449849" lon="12.547734"><ele>5.0</ele><time>2026-04-25T15:41:16.355Z</time></trkpt><trkpt lat="38.045046" lon="12.5478871"><ele>5.5</ele><time>2026-04-25T15:41:17.355Z</time></trkpt><trkpt lat="38.0451158" lon="12.5480596"><ele>6.0</ele><time>2026-04-25T15:41:18.355Z</time></trkpt><trkpt lat="38.0452072" lon="12.5482078"><ele>7.75</ele><time>2026-04-25T15:41:19.355Z</time></trkpt><trkpt lat="38.0453011" lon="12.5483393"><ele>9.5</ele><time>2026-04-25T15:41:20.355Z</time></trkpt><trkpt lat="38.0453995" lon="12.5484657"><ele>11.25</ele><time>2026-04-25T15:41:21.356Z</time></trkpt><trkpt lat="38.0454931" lon="12.5485829"><ele>13.0</ele><time>2026-04-25T15:41:22.355Z</time></trkpt><trkpt lat="38.0455827" lon="12.5486934"><ele>13.0</ele><time>2026-04-25T15:41:23.356Z</time></trkpt><trkpt lat="38.0456647" lon="12.548799"><ele>13.0</ele><time>2026-04-25T15:41:24.355Z</time></trkpt><trkpt lat="38.0457433" lon="12.5489007"><ele>13.0</ele><time>2026-04-25T15:41:25.355Z</time></trkpt><trkpt lat="38.0458261" lon="12.5489957"><ele>13.0</ele><time>2026-04-25T15:41:26.355Z</time></trkpt><trkpt lat="38.0459063" lon="12.5490875"><ele>13.0</ele><time>2026-04-25T15:41:27.355Z</time></trkpt><trkpt lat="38.0459757" lon="12.5491738"><ele>13.0</ele><time>2026-04-25T15:41:28.355Z</time></trkpt><trkpt lat="38.0460598" lon="12.5492574"><ele>13.0</ele><time>2026-04-25T15:41:29.355Z</time></trkpt><trkpt lat="38.0461455" lon="12.5493315"><ele>13.0</ele><time>2026-04-25T15:41:30.355Z</time></trkpt><trkpt lat="38.0462402" lon="12.5493964"><ele>13.0</ele><time>2026-04-25T15:41:31.355Z</time></trkpt><trkpt lat="38.0463394" lon="12.5494482"><ele>13.0</ele><time>2026-04-25T15:41:32.355Z</time></trkpt><trkpt lat="38.04644" lon="12.5494826"><ele>13.0</ele><time>2026-04-25T15:41:33.355Z</time></trkpt><trkpt lat="38.0465413" lon="12.5495141"><ele>13.0</ele><time>2026-04-25T15:41:34.355Z</time></trkpt><trkpt lat="38.0466469" lon="12.5495272"><ele>13.0</ele><time>2026-04-25T15:41:35.355Z</time></trkpt><trkpt lat="38.0467416" lon="12.5495399"><ele>13.0</ele><time>2026-04-25T15:41:36.355Z</time></trkpt><trkpt lat="38.0468406" lon="12.5495431"><ele>13.0</ele><time>2026-04-25T15:41:37.355Z</time></trkpt><trkpt lat="38.0469385" lon="12.5495445"><ele>13.499999999999998</ele><time>2026-04-25T15:41:38.356Z</time></trkpt><trkpt lat="38.0470279" lon="12.5495437"><ele>14.0</ele><time>2026-04-25T15:41:39.355Z</time></trkpt><trkpt lat="38.0471093" lon="12.549551"><ele>14.5</ele><time>2026-04-25T15:41:40.354Z</time></trkpt><trkpt lat="38.0471941" lon="12.5495546"><ele>15.0</ele><time>2026-04-25T15:41:41.355Z</time></trkpt><trkpt lat="38.0472794" lon="12.5495549"><ele>15.499999999999998</ele><time>2026-04-25T15:41:42.355Z</time></trkpt><trkpt lat="38.047361" lon="12.5495563"><ele>16.0</ele><time>2026-04-25T15:41:43.356Z</time></trkpt><trkpt lat="38.0474496" lon="12.5495566"><ele>15.499999999999998</ele><time>2026-04-25T15:41:44.355Z</time></trkpt><trkpt lat="38.0475368" lon="12.5495627"><ele>15.0</ele><time>2026-04-25T15:41:45.354Z</time></trkpt><trkpt lat="38.047622" lon="12.5495662"><ele>14.5</ele><time>2026-04-25T15:41:46.355Z</time></trkpt><trkpt lat="38.047706" lon="12.5495728"><ele>14.0</ele><time>2026-04-25T15:41:47.355Z</time></trkpt><trkpt lat="38.0477942" lon="12.5495765"><ele>13.499999999999998</ele><time>2026-04-25T15:41:48.356Z</time></trkpt><trkpt lat="38.0478792" lon="12.5495936"><ele>13.0</ele><time>2026-04-25T15:41:49.355Z</time></trkpt><trkpt lat="38.0479675" lon="12.5496209"><ele>13.0</ele><time>2026-04-25T15:41:50.354Z</time></trkpt><trkpt lat="38.0480526" lon="12.5496703"><ele>13.0</ele><time>2026-04-25T15:41:51.356Z</time></trkpt><trkpt lat="38.0481411" lon="12.5497372"><ele>13.0</ele><time>2026-04-25T15:41:52.355Z</time></trkpt><trkpt lat="38.0482375" lon="12.5498118"><ele>13.0</ele><time>2026-04-25T15:41:53.356Z</time></trkpt><trkpt lat="38.0483413" lon="12.5498995"><ele>13.0</ele><time>2026-04-25T15:41:54.356Z</time></trkpt><trkpt lat="38.0484349" lon="12.5499891"><ele>12.5</ele><time>2026-04-25T15:41:55.355Z</time></trkpt><trkpt lat="38.048529" lon="12.5500793"><ele>12.0</ele><time>2026-04-25T15:41:56.355Z</time></trkpt><trkpt lat="38.0486215" lon="12.5501695"><ele>11.5</ele><time>2026-04-25T15:41:57.356Z</time></trkpt><trkpt lat="38.0487117" lon="12.5502657"><ele>11.0</ele><time>2026-04-25T15:41:58.355Z</time></trkpt><trkpt lat="38.0487949" lon="12.5503518"><ele>12.200000000000001</ele><time>2026-04-25T15:41:59.356Z</time></trkpt><trkpt lat="38.0488635" lon="12.5504355"><ele>13.4</ele><time>2026-04-25T15:42:00.355Z</time></trkpt><trkpt lat="38.0489266" lon="12.550522"><ele>14.6</ele><time>2026-04-25T15:42:01.355Z</time></trkpt><trkpt lat="38.0489856" lon="12.5506005"><ele>15.8</ele><time>2026-04-25T15:42:02.355Z</time></trkpt><trkpt lat="38.0490302" lon="12.5506942"><ele>17.0</ele><time>2026-04-25T15:42:03.356Z</time></trkpt><trkpt lat="38.0490759" lon="12.5507934"><ele>17.0</ele><time>2026-04-25T15:42:04.356Z</time></trkpt><trkpt lat="38.0491257" lon="12.5509022"><ele>17.0</ele><time>2026-04-25T15:42:05.356Z</time></trkpt><trkpt lat="38.0491593" lon="12.5510085"><ele>17.0</ele><time>2026-04-25T15:42:06.355Z</time></trkpt><trkpt lat="38.0491908" lon="12.5511163"><ele>17.0</ele><time>2026-04-25T15:42:07.355Z</time></trkpt><trkpt lat="38.0492218" lon="12.5512129"><ele>17.0</ele><time>2026-04-25T15:42:08.355Z</time></trkpt><trkpt lat="38.0492533" lon="12.5513069"><ele>17.0</ele><time>2026-04-25T15:42:09.356Z</time></trkpt><trkpt lat="38.0492843" lon="12.5514083"><ele>16.2</ele><time>2026-04-25T15:42:10.356Z</time></trkpt><trkpt lat="38.0493173" lon="12.5515227"><ele>15.399999999999999</ele><time>2026-04-25T15:42:11.357Z</time></trkpt><trkpt lat="38.0493523" lon="12.5516326"><ele>14.600000000000001</ele><time>2026-04-25T15:42:12.355Z</time></trkpt><trkpt lat="38.0493893" lon="12.5517461"><ele>13.8</ele><time>2026-04-25T15:42:13.356Z</time></trkpt><trkpt lat="38.0494231" lon="12.5518583"><ele>13.0</ele><time>2026-04-25T15:42:14.355Z</time></trkpt><trkpt lat="38.049455" lon="12.5519604"><ele>13.166666666666666</ele><time>2026-04-25T15:42:15.356Z</time></trkpt><trkpt lat="38.0494941" lon="12.5520753"><ele>13.333333333333332</ele><time>2026-04-25T15:42:16.356Z</time></trkpt><trkpt lat="38.049532" lon="12.5521769"><ele>13.5</ele><time>2026-04-25T15:42:17.355Z</time></trkpt><trkpt lat="38.0495658" lon="12.5522744"><ele>13.666666666666668</ele><time>2026-04-25T15:42:18.354Z</time></trkpt><trkpt lat="38.0495925" lon="12.5523625"><ele>13.833333333333334</ele><time>2026-04-25T15:42:19.355Z</time></trkpt><trkpt lat="38.0496254" lon="12.5524605"><ele>14.0</ele><time>2026-04-25T15:42:20.355Z</time></trkpt><trkpt lat="38.0496662" lon="12.5525621"><ele>14.0</ele><time>2026-04-25T15:42:21.355Z</time></trkpt><trkpt lat="38.0497137" lon="12.5526625"><ele>13.999999999999998</ele><time>2026-04-25T15:42:22.356Z</time></trkpt><trkpt lat="38.0497627" lon="12.5527526"><ele>13.999999999999998</ele><time>2026-04-25T15:42:23.354Z</time></trkpt><trkpt lat="38.0498254" lon="12.552853"><ele>14.0</ele><time>2026-04-25T15:42:24.356Z</time></trkpt><trkpt lat="38.0498895" lon="12.552942"><ele>14.0</ele><time>2026-04-25T15:42:25.355Z</time></trkpt><trkpt lat="38.0499542" lon="12.5530251"><ele>13.2</ele><time>2026-04-25T15:42:26.355Z</time></trkpt><trkpt lat="38.0500135" lon="12.553092"><ele>12.399999999999999</ele><time>2026-04-25T15:42:27.355Z</time></trkpt><trkpt lat="38.0500718" lon="12.5531625"><ele>11.6</ele><time>2026-04-25T15:42:28.356Z</time></trkpt><trkpt lat="38.0501376" lon="12.5532359"><ele>10.8</ele><time>2026-04-25T15:42:29.356Z</time></trkpt><trkpt lat="38.0502178" lon="12.5533231"><ele>10.0</ele><time>2026-04-25T15:42:30.356Z</time></trkpt><trkpt lat="38.0503183" lon="12.5534342"><ele>10.0</ele><time>2026-04-25T15:42:31.355Z</time></trkpt><trkpt lat="38.0504326" lon="12.5535705"><ele>10.0</ele><time>2026-04-25T15:42:32.355Z</time></trkpt><trkpt lat="38.0505529" lon="12.5537152"><ele>10.0</ele><time>2026-04-25T15:42:33.355Z</time></trkpt><trkpt lat="38.0506795" lon="12.5538693"><ele>9.333333333333334</ele><time>2026-04-25T15:42:34.356Z</time></trkpt><trkpt lat="38.0507984" lon="12.5540066"><ele>8.666666666666666</ele><time>2026-04-25T15:42:35.356Z</time></trkpt><trkpt lat="38.0509189" lon="12.5541553"><ele>8.0</ele><time>2026-04-25T15:42:36.355Z</time></trkpt><trkpt lat="38.0510272" lon="12.5542903"><ele>8.0</ele><time>2026-04-25T15:42:37.356Z</time></trkpt><trkpt lat="38.0511261" lon="12.5544209"><ele>8.0</ele><time>2026-04-25T15:42:38.356Z</time></trkpt><trkpt lat="38.051223" lon="12.5545452"><ele>8.0</ele><time>2026-04-25T15:42:39.356Z</time></trkpt><trkpt lat="38.0513115" lon="12.5546607"><ele>8.0</ele><time>2026-04-25T15:42:40.355Z</time></trkpt><trkpt lat="38.0513978" lon="12.5547608"><ele>8.0</ele><time>2026-04-25T15:42:41.356Z</time></trkpt><trkpt lat="38.0514879" lon="12.554844"><ele>8.0</ele><time>2026-04-25T15:42:42.356Z</time></trkpt><trkpt lat="38.0515815" lon="12.554917"><ele>8.0</ele><time>2026-04-25T15:42:43.355Z</time></trkpt><trkpt lat="38.0516798" lon="12.5549838"><ele>8.0</ele><time>2026-04-25T15:42:44.356Z</time></trkpt><trkpt lat="38.0517763" lon="12.5550373"><ele>8.0</ele><time>2026-04-25T15:42:45.355Z</time></trkpt><trkpt lat="38.051874" lon="12.5550785"><ele>8.200000000000001</ele><time>2026-04-25T15:42:46.356Z</time></trkpt><trkpt lat="38.0519811" lon="12.5551113"><ele>8.4</ele><time>2026-04-25T15:42:47.356Z</time></trkpt><trkpt lat="38.0520832" lon="12.555136"><ele>8.600000000000001</ele><time>2026-04-25T15:42:48.355Z</time></trkpt><trkpt lat="38.0521881" lon="12.5551544"><ele>8.8</ele><time>2026-04-25T15:42:49.356Z</time></trkpt><trkpt lat="38.0522905" lon="12.5551764"><ele>9.0</ele><time>2026-04-25T15:42:50.355Z</time></trkpt><trkpt lat="38.0523956" lon="12.5551994"><ele>8.0</ele><time>2026-04-25T15:42:51.355Z</time></trkpt><trkpt lat="38.0525144" lon="12.5552207"><ele>7.0</ele><time>2026-04-25T15:42:52.354Z</time></trkpt><trkpt lat="38.0526436" lon="12.555241"><ele>6.0</ele><time>2026-04-25T15:42:53.355Z</time></trkpt><trkpt lat="38.0527816" lon="12.5552632"><ele>5.0</ele><time>2026-04-25T15:42:54.356Z</time></trkpt><trkpt lat="38.0529484" lon="12.5552904"><ele>5.0</ele><time>2026-04-25T15:42:55.356Z</time></trkpt><trkpt lat="38.0531346" lon="12.5553238"><ele>5.0</ele><time>2026-04-25T15:42:56.355Z</time></trkpt><trkpt lat="38.0533127" lon="12.5553658"><ele>5.0</ele><time>2026-04-25T15:42:57.356Z</time></trkpt><trkpt lat="38.0534736" lon="12.555407"><ele>6.25</ele><time>2026-04-25T15:42:58.355Z</time></trkpt><trkpt lat="38.0536275" lon="12.5554364"><ele>7.5</ele><time>2026-04-25T15:42:59.354Z</time></trkpt><trkpt lat="38.0537665" lon="12.5554678"><ele>8.75</ele><time>2026-04-25T15:43:00.356Z</time></trkpt><trkpt lat="38.0538934" lon="12.555496"><ele>10.0</ele><time>2026-04-25T15:43:01.356Z</time></trkpt><trkpt lat="38.0540098" lon="12.5555188"><ele>10.0</ele><time>2026-04-25T15:43:02.355Z</time></trkpt><trkpt lat="38.0541116" lon="12.5555377"><ele>10.0</ele><time>2026-04-25T15:43:03.356Z</time></trkpt><trkpt lat="38.0542122" lon="12.5555649"><ele>10.0</ele><time>2026-04-25T15:43:04.355Z</time></trkpt><trkpt lat="38.0543174" lon="12.555587"><ele>10.0</ele><time>2026-04-25T15:43:05.356Z</time></trkpt><trkpt lat="38.0544261" lon="12.5556095"><ele>10.0</ele><time>2026-04-25T15:43:06.355Z</time></trkpt><trkpt lat="38.054534" lon="12.555631"><ele>10.2</ele><time>2026-04-25T15:43:07.354Z</time></trkpt><trkpt lat="38.0546379" lon="12.5556598"><ele>10.4</ele><time>2026-04-25T15:43:08.355Z</time></trkpt><trkpt lat="38.0547461" lon="12.5556736"><ele>10.600000000000001</ele><time>2026-04-25T15:43:09.356Z</time></trkpt><trkpt lat="38.054842" lon="12.555693"><ele>10.8</ele><time>2026-04-25T15:43:10.356Z</time></trkpt><trkpt lat="38.0549421" lon="12.5557134"><ele>11.0</ele><time>2026-04-25T15:43:11.356Z</time></trkpt><trkpt lat="38.0550444" lon="12.5557351"><ele>11.0</ele><time>2026-04-25T15:43:12.356Z</time></trkpt><trkpt lat="38.0551456" lon="12.5557573"><ele>11.0</ele><time>2026-04-25T15:43:13.355Z</time></trkpt><trkpt lat="38.0552442" lon="12.5557833"><ele>11.0</ele><time>2026-04-25T15:43:14.355Z</time></trkpt><trkpt lat="38.055346" lon="12.5558097"><ele>11.0</ele><time>2026-04-25T15:43:15.356Z</time></trkpt><trkpt lat="38.0554378" lon="12.5558408"><ele>11.0</ele><time>2026-04-25T15:43:16.354Z</time></trkpt><trkpt lat="38.0555337" lon="12.5558779"><ele>11.0</ele><time>2026-04-25T15:43:17.357Z</time></trkpt><trkpt lat="38.0556237" lon="12.5559119"><ele>11.0</ele><time>2026-04-25T15:43:18.356Z</time></trkpt><trkpt lat="38.0557141" lon="12.555956"><ele>11.0</ele><time>2026-04-25T15:43:19.355Z</time></trkpt><trkpt lat="38.0558045" lon="12.556007"><ele>11.0</ele><time>2026-04-25T15:43:20.356Z</time></trkpt><trkpt lat="38.0558889" lon="12.5560623"><ele>11.0</ele><time>2026-04-25T15:43:21.357Z</time></trkpt><trkpt lat="38.0559653" lon="12.5561237"><ele>11.0</ele><time>2026-04-25T15:43:22.356Z</time></trkpt><trkpt lat="38.0560389" lon="12.5561824"><ele>11.0</ele><time>2026-04-25T15:43:23.355Z</time></trkpt><trkpt lat="38.0560966" lon="12.5562426"><ele>11.0</ele><time>2026-04-25T15:43:24.356Z</time></trkpt><trkpt lat="38.0561705" lon="12.5563346"><ele>11.0</ele><time>2026-04-25T15:43:26.355Z</time></trkpt><trkpt lat="38.0562429" lon="12.5564152"><ele>11.0</ele><time>2026-04-25T15:43:28.355Z</time></trkpt><trkpt lat="38.056316" lon="12.5565451"><ele>11.0</ele><time>2026-04-25T15:43:30.356Z</time></trkpt><trkpt lat="38.0563716" lon="12.5566129"><ele>11.0</ele><time>2026-04-25T15:43:31.357Z</time></trkpt><trkpt lat="38.0564396" lon="12.5566745"><ele>11.0</ele><time>2026-04-25T15:43:32.356Z</time></trkpt><trkpt lat="38.0565205" lon="12.5567323"><ele>11.0</ele><time>2026-04-25T15:43:33.355Z</time></trkpt><trkpt lat="38.056606" lon="12.5568026"><ele>11.0</ele><time>2026-04-25T15:43:34.356Z</time></trkpt><trkpt lat="38.0566965" lon="12.5568913"><ele>11.0</ele><time>2026-04-25T15:43:35.354Z</time></trkpt><trkpt lat="38.0567846" lon="12.5569882"><ele>11.0</ele><time>2026-04-25T15:43:36.356Z</time></trkpt><trkpt lat="38.0568758" lon="12.5570878"><ele>11.0</ele><time>2026-04-25T15:43:37.356Z</time></trkpt><trkpt lat="38.0569717" lon="12.5571941"><ele>11.0</ele><time>2026-04-25T15:43:38.356Z</time></trkpt><trkpt lat="38.0570682" lon="12.557305"><ele>11.0</ele><time>2026-04-25T15:43:39.354Z</time></trkpt><trkpt lat="38.0571696" lon="12.5574175"><ele>11.0</ele><time>2026-04-25T15:43:40.356Z</time></trkpt><trkpt lat="38.0572746" lon="12.5575271"><ele>11.0</ele><time>2026-04-25T15:43:41.357Z</time></trkpt><trkpt lat="38.0573803" lon="12.5576438"><ele>11.0</ele><time>2026-04-25T15:43:42.355Z</time></trkpt><trkpt lat="38.0574931" lon="12.557762"><ele>11.5</ele><time>2026-04-25T15:43:43.355Z</time></trkpt><trkpt lat="38.0575975" lon="12.5578841"><ele>12.0</ele><time>2026-04-25T15:43:44.355Z</time></trkpt><trkpt lat="38.0577041" lon="12.5580079"><ele>12.5</ele><time>2026-04-25T15:43:45.355Z</time></trkpt><trkpt lat="38.0578151" lon="12.5581259"><ele>13.0</ele><time>2026-04-25T15:43:46.356Z</time></trkpt><trkpt lat="38.0579197" lon="12.5582404"><ele>13.0</ele><time>2026-04-25T15:43:47.354Z</time></trkpt><trkpt lat="38.0580279" lon="12.558329"><ele>13.0</ele><time>2026-04-25T15:43:48.355Z</time></trkpt><trkpt lat="38.0581461" lon="12.5584064"><ele>13.0</ele><time>2026-04-25T15:43:49.356Z</time></trkpt><trkpt lat="38.0582795" lon="12.5584659"><ele>13.0</ele><time>2026-04-25T15:43:50.355Z</time></trkpt><trkpt lat="38.0584181" lon="12.5585056"><ele>12.0</ele><time>2026-04-25T15:43:51.355Z</time></trkpt><trkpt lat="38.0585668" lon="12.5585268"><ele>11.0</ele><time>2026-04-25T15:43:52.355Z</time></trkpt><trkpt lat="38.0587126" lon="12.5585449"><ele>10.0</ele><time>2026-04-25T15:43:53.356Z</time></trkpt><trkpt lat="38.0588574" lon="12.5585452"><ele>9.0</ele><time>2026-04-25T15:43:54.356Z</time></trkpt><trkpt lat="38.0590145" lon="12.5585482"><ele>9.25</ele><time>2026-04-25T15:43:55.355Z</time></trkpt><trkpt lat="38.0591659" lon="12.5585516"><ele>9.5</ele><time>2026-04-25T15:43:56.355Z</time></trkpt><trkpt lat="38.0593114" lon="12.5585532"><ele>9.75</ele><time>2026-04-25T15:43:57.354Z</time></trkpt><trkpt lat="38.0594562" lon="12.5585661"><ele>10.0</ele><time>2026-04-25T15:43:58.355Z</time></trkpt><trkpt lat="38.0595987" lon="12.5585932"><ele>10.0</ele><time>2026-04-25T15:43:59.356Z</time></trkpt><trkpt lat="38.059742" lon="12.5586385"><ele>10.0</ele><time>2026-04-25T15:44:00.355Z</time></trkpt><trkpt lat="38.0598818" lon="12.5586995"><ele>10.0</ele><time>2026-04-25T15:44:01.356Z</time></trkpt><trkpt lat="38.0600191" lon="12.5587695"><ele>10.0</ele><time>2026-04-25T15:44:02.355Z</time></trkpt><trkpt lat="38.0601609" lon="12.5588442"><ele>10.333333333333334</ele><time>2026-04-25T15:44:03.356Z</time></trkpt><trkpt lat="38.0602968" lon="12.558931"><ele>10.666666666666666</ele><time>2026-04-25T15:44:04.355Z</time></trkpt><trkpt lat="38.0604332" lon="12.5590173"><ele>11.0</ele><time>2026-04-25T15:44:05.355Z</time></trkpt><trkpt lat="38.0605719" lon="12.5591121"><ele>11.0</ele><time>2026-04-25T15:44:06.356Z</time></trkpt><trkpt lat="38.0607135" lon="12.5592059"><ele>11.0</ele><time>2026-04-25T15:44:07.356Z</time></trkpt><trkpt lat="38.0608548" lon="12.5593048"><ele>11.0</ele><time>2026-04-25T15:44:08.355Z</time></trkpt><trkpt lat="38.0609991" lon="12.5594003"><ele>10.666666666666666</ele><time>2026-04-25T15:44:09.356Z</time></trkpt><trkpt lat="38.0611387" lon="12.5594938"><ele>10.333333333333334</ele><time>2026-04-25T15:44:10.355Z</time></trkpt><trkpt lat="38.0612851" lon="12.5595907"><ele>10.0</ele><time>2026-04-25T15:44:11.357Z</time></trkpt><trkpt lat="38.0614271" lon="12.5596846"><ele>10.666666666666668</ele><time>2026-04-25T15:44:12.357Z</time></trkpt><trkpt lat="38.0615663" lon="12.5597758"><ele>11.333333333333334</ele><time>2026-04-25T15:44:13.355Z</time></trkpt><trkpt lat="38.0617156" lon="12.5598693"><ele>12.0</ele><time>2026-04-25T15:44:14.357Z</time></trkpt><trkpt lat="38.0618573" lon="12.5599607"><ele>12.0</ele><time>2026-04-25T15:44:15.356Z</time></trkpt><trkpt lat="38.0620018" lon="12.5600502"><ele>12.0</ele><time>2026-04-25T15:44:16.356Z</time></trkpt><trkpt lat="38.062145" lon="12.5601419"><ele>12.0</ele><time>2026-04-25T15:44:17.356Z</time></trkpt><trkpt lat="38.0622751" lon="12.5602315"><ele>12.0</ele><time>2026-04-25T15:44:18.356Z</time></trkpt><trkpt lat="38.0624128" lon="12.5603199"><ele>12.0</ele><time>2026-04-25T15:44:19.356Z</time></trkpt><trkpt lat="38.062541" lon="12.5604118"><ele>12.0</ele><time>2026-04-25T15:44:20.356Z</time></trkpt><trkpt lat="38.0626721" lon="12.560512"><ele>13.0</ele><time>2026-04-25T15:44:21.356Z</time></trkpt><trkpt lat="38.0627986" lon="12.5606207"><ele>14.0</ele><time>2026-04-25T15:44:22.355Z</time></trkpt><trkpt lat="38.0629126" lon="12.5607505"><ele>15.0</ele><time>2026-04-25T15:44:23.355Z</time></trkpt><trkpt lat="38.0630149" lon="12.5608853"><ele>15.0</ele><time>2026-04-25T15:44:24.356Z</time></trkpt><trkpt lat="38.0631131" lon="12.5610393"><ele>15.0</ele><time>2026-04-25T15:44:25.354Z</time></trkpt><trkpt lat="38.0632117" lon="12.561188"><ele>15.0</ele><time>2026-04-25T15:44:26.357Z</time></trkpt><trkpt lat="38.0633085" lon="12.5613394"><ele>14.25</ele><time>2026-04-25T15:44:27.356Z</time></trkpt><trkpt lat="38.0634015" lon="12.5614851"><ele>13.5</ele><time>2026-04-25T15:44:28.355Z</time></trkpt><trkpt lat="38.0634867" lon="12.561625"><ele>12.75</ele><time>2026-04-25T15:44:29.354Z</time></trkpt><trkpt lat="38.0635718" lon="12.5617785"><ele>12.0</ele><time>2026-04-25T15:44:30.355Z</time></trkpt><trkpt lat="38.0636465" lon="12.5619456"><ele>11.75</ele><time>2026-04-25T15:44:31.356Z</time></trkpt><trkpt lat="38.0637176" lon="12.5621137"><ele>11.5</ele><time>2026-04-25T15:44:32.357Z</time></trkpt><trkpt lat="38.063784" lon="12.5622747"><ele>11.25</ele><time>2026-04-25T15:44:33.355Z</time></trkpt><trkpt lat="38.0638465" lon="12.5624289"><ele>11.0</ele><time>2026-04-25T15:44:34.356Z</time></trkpt><trkpt lat="38.0639141" lon="12.5625889"><ele>11.0</ele><time>2026-04-25T15:44:35.356Z</time></trkpt><trkpt lat="38.0639766" lon="12.5627389"><ele>11.0</ele><time>2026-04-25T15:44:36.355Z</time></trkpt><trkpt lat="38.064031" lon="12.5628744"><ele>11.0</ele><time>2026-04-25T15:44:37.355Z</time></trkpt><trkpt lat="38.0640687" lon="12.5629916"><ele>11.0</ele><time>2026-04-25T15:44:38.356Z</time></trkpt><trkpt lat="38.0641009" lon="12.5630996"><ele>11.0</ele><time>2026-04-25T15:44:39.356Z</time></trkpt><trkpt lat="38.0641381" lon="12.5632061"><ele>11.0</ele><time>2026-04-25T15:44:40.355Z</time></trkpt><trkpt lat="38.064177" lon="12.5633265"><ele>11.0</ele><time>2026-04-25T15:44:41.356Z</time></trkpt><trkpt lat="38.0642275" lon="12.5634581"><ele>11.0</ele><time>2026-04-25T15:44:42.354Z</time></trkpt><trkpt lat="38.0642848" lon="12.5635939"><ele>11.0</ele><time>2026-04-25T15:44:43.356Z</time></trkpt><trkpt lat="38.0643413" lon="12.5637382"><ele>11.0</ele><time>2026-04-25T15:44:44.356Z</time></trkpt><trkpt lat="38.0643996" lon="12.5638921"><ele>11.0</ele><time>2026-04-25T15:44:45.356Z</time></trkpt><trkpt lat="38.0644656" lon="12.5640492"><ele>11.0</ele><time>2026-04-25T15:44:46.355Z</time></trkpt><trkpt lat="38.0645423" lon="12.5642163"><ele>11.0</ele><time>2026-04-25T15:44:47.356Z</time></trkpt><trkpt lat="38.0646046" lon="12.564383"><ele>10.666666666666666</ele><time>2026-04-25T15:44:48.356Z</time></trkpt><trkpt lat="38.0646795" lon="12.5645565"><ele>10.333333333333334</ele><time>2026-04-25T15:44:49.355Z</time></trkpt><trkpt lat="38.0647607" lon="12.5647404"><ele>10.0</ele><time>2026-04-25T15:44:50.355Z</time></trkpt><trkpt lat="38.0648342" lon="12.5649215"><ele>10.0</ele><time>2026-04-25T15:44:51.356Z</time></trkpt><trkpt lat="38.0649032" lon="12.565095"><ele>10.0</ele><time>2026-04-25T15:44:52.356Z</time></trkpt><trkpt lat="38.0649693" lon="12.565273"><ele>10.0</ele><time>2026-04-25T15:44:53.355Z</time></trkpt><trkpt lat="38.0650371" lon="12.5654543"><ele>10.0</ele><time>2026-04-25T15:44:54.356Z</time></trkpt><trkpt lat="38.0651149" lon="12.5656375"><ele>10.0</ele><time>2026-04-25T15:44:55.356Z</time></trkpt><trkpt lat="38.0651855" lon="12.5658278"><ele>10.0</ele><time>2026-04-25T15:44:56.356Z</time></trkpt><trkpt lat="38.0652418" lon="12.5660215"><ele>10.333333333333334</ele><time>2026-04-25T15:44:57.355Z</time></trkpt><trkpt lat="38.0653065" lon="12.5662225"><ele>10.666666666666666</ele><time>2026-04-25T15:44:58.356Z</time></trkpt><trkpt lat="38.0653693" lon="12.5664371"><ele>11.0</ele><time>2026-04-25T15:44:59.356Z</time></trkpt><trkpt lat="38.0654324" lon="12.5666336"><ele>11.0</ele><time>2026-04-25T15:45:00.356Z</time></trkpt><trkpt lat="38.0654918" lon="12.5668313"><ele>11.0</ele><time>2026-04-25T15:45:01.356Z</time></trkpt><trkpt lat="38.0655534" lon="12.5670299"><ele>11.0</ele><time>2026-04-25T15:45:02.355Z</time></trkpt><trkpt lat="38.0656199" lon="12.5672343"><ele>11.0</ele><time>2026-04-25T15:45:03.355Z</time></trkpt><trkpt lat="38.0656835" lon="12.5674319"><ele>11.0</ele><time>2026-04-25T15:45:04.355Z</time></trkpt><trkpt lat="38.0657414" lon="12.5676308"><ele>11.0</ele><time>2026-04-25T15:45:05.355Z</time></trkpt><trkpt lat="38.0657983" lon="12.5678264"><ele>11.0</ele><time>2026-04-25T15:45:06.355Z</time></trkpt><trkpt lat="38.0658547" lon="12.5680306"><ele>11.0</ele><time>2026-04-25T15:45:07.356Z</time></trkpt><trkpt lat="38.0659141" lon="12.568231"><ele>11.0</ele><time>2026-04-25T15:45:08.355Z</time></trkpt><trkpt lat="38.0659742" lon="12.5684335"><ele>11.0</ele><time>2026-04-25T15:45:09.357Z</time></trkpt><trkpt lat="38.0660327" lon="12.5686417"><ele>11.0</ele><time>2026-04-25T15:45:10.357Z</time></trkpt><trkpt lat="38.0660882" lon="12.5688466"><ele>11.0</ele><time>2026-04-25T15:45:11.355Z</time></trkpt><trkpt lat="38.0661487" lon="12.5690526"><ele>11.0</ele><time>2026-04-25T15:45:12.356Z</time></trkpt><trkpt lat="38.0662056" lon="12.5692633"><ele>11.0</ele><time>2026-04-25T15:45:13.354Z</time></trkpt><trkpt lat="38.0662603" lon="12.5694689"><ele>11.0</ele><time>2026-04-25T15:45:14.356Z</time></trkpt><trkpt lat="38.0663242" lon="12.5696791"><ele>12.0</ele><time>2026-04-25T15:45:15.356Z</time></trkpt><trkpt lat="38.0663832" lon="12.5698847"><ele>13.0</ele><time>2026-04-25T15:45:16.356Z</time></trkpt><trkpt lat="38.0664537" lon="12.5700875"><ele>14.0</ele><time>2026-04-25T15:45:17.357Z</time></trkpt><trkpt lat="38.0665332" lon="12.5702648"><ele>15.0</ele><time>2026-04-25T15:45:18.356Z</time></trkpt><trkpt lat="38.0666216" lon="12.5704444"><ele>16.0</ele><time>2026-04-25T15:45:19.356Z</time></trkpt><trkpt lat="38.06671" lon="12.5706156"><ele>17.0</ele><time>2026-04-25T15:45:20.356Z</time></trkpt><trkpt lat="38.0667985" lon="12.5707714"><ele>17.0</ele><time>2026-04-25T15:45:21.356Z</time></trkpt><trkpt lat="38.0668949" lon="12.5709252"><ele>17.0</ele><time>2026-04-25T15:45:22.356Z</time></trkpt><trkpt lat="38.0669829" lon="12.5710624"><ele>17.0</ele><time>2026-04-25T15:45:23.356Z</time></trkpt><trkpt lat="38.0670723" lon="12.5711826"><ele>17.0</ele><time>2026-04-25T15:45:24.356Z</time></trkpt><trkpt lat="38.0671389" lon="12.5713064"><ele>17.2</ele><time>2026-04-25T15:45:25.357Z</time></trkpt><trkpt lat="38.0671928" lon="12.5714198"><ele>17.4</ele><time>2026-04-25T15:45:26.356Z</time></trkpt><trkpt lat="38.0672467" lon="12.5715396"><ele>17.6</ele><time>2026-04-25T15:45:27.355Z</time></trkpt><trkpt lat="38.0673129" lon="12.5716434"><ele>17.8</ele><time>2026-04-25T15:45:28.357Z</time></trkpt><trkpt lat="38.0673954" lon="12.5717298"><ele>18.0</ele><time>2026-04-25T15:45:29.356Z</time></trkpt><trkpt lat="38.0674772" lon="12.5718153"><ele>18.0</ele><time>2026-04-25T15:45:30.356Z</time></trkpt><trkpt lat="38.0675611" lon="12.5719155"><ele>18.0</ele><time>2026-04-25T15:45:31.356Z</time></trkpt><trkpt lat="38.0676427" lon="12.5720164"><ele>18.0</ele><time>2026-04-25T15:45:32.356Z</time></trkpt><trkpt lat="38.0677354" lon="12.5721438"><ele>18.0</ele><time>2026-04-25T15:45:33.356Z</time></trkpt><trkpt lat="38.0678337" lon="12.5722909"><ele>18.0</ele><time>2026-04-25T15:45:34.355Z</time></trkpt><trkpt lat="38.0679496" lon="12.5724513"><ele>18.0</ele><time>2026-04-25T15:45:35.356Z</time></trkpt><trkpt lat="38.0680728" lon="12.5726233"><ele>18.0</ele><time>2026-04-25T15:45:36.356Z</time></trkpt><trkpt lat="38.0681879" lon="12.5727975"><ele>16.666666666666668</ele><time>2026-04-25T15:45:37.356Z</time></trkpt><trkpt lat="38.0682994" lon="12.5729669"><ele>15.333333333333334</ele><time>2026-04-25T15:45:38.356Z</time></trkpt><trkpt lat="38.0684073" lon="12.5731338"><ele>14.0</ele><time>2026-04-25T15:45:39.356Z</time></trkpt><trkpt lat="38.0685043" lon="12.5732866"><ele>14.0</ele><time>2026-04-25T15:45:40.356Z</time></trkpt><trkpt lat="38.0685942" lon="12.5734326"><ele>14.0</ele><time>2026-04-25T15:45:41.356Z</time></trkpt><trkpt lat="38.0686733" lon="12.5735634"><ele>14.0</ele><time>2026-04-25T15:45:42.355Z</time></trkpt><trkpt lat="38.0687441" lon="12.5736691"><ele>14.0</ele><time>2026-04-25T15:45:43.356Z</time></trkpt><trkpt lat="38.068815" lon="12.573774"><ele>14.5</ele><time>2026-04-25T15:45:44.355Z</time></trkpt><trkpt lat="38.0688835" lon="12.5738752"><ele>15.0</ele><time>2026-04-25T15:45:45.355Z</time></trkpt><trkpt lat="38.0689566" lon="12.5739923"><ele>15.5</ele><time>2026-04-25T15:45:46.355Z</time></trkpt><trkpt lat="38.0690263" lon="12.5741317"><ele>16.0</ele><time>2026-04-25T15:45:47.356Z</time></trkpt><trkpt lat="38.0690911" lon="12.5743024"><ele>14.0</ele><time>2026-04-25T15:45:48.355Z</time></trkpt><trkpt lat="38.0691448" lon="12.5744923"><ele>12.0</ele><time>2026-04-25T15:45:49.356Z</time></trkpt><trkpt lat="38.0691944" lon="12.5746826"><ele>10.0</ele><time>2026-04-25T15:45:50.356Z</time></trkpt><trkpt lat="38.0692447" lon="12.5748764"><ele>9.75</ele><time>2026-04-25T15:45:51.356Z</time></trkpt><trkpt lat="38.0692973" lon="12.5750545"><ele>9.5</ele><time>2026-04-25T15:45:52.356Z</time></trkpt><trkpt lat="38.0693593" lon="12.5752181"><ele>9.25</ele><time>2026-04-25T15:45:53.356Z</time></trkpt><trkpt lat="38.0694175" lon="12.5753737"><ele>9.0</ele><time>2026-04-25T15:45:54.356Z</time></trkpt><trkpt lat="38.0694787" lon="12.5755197"><ele>10.25</ele><time>2026-04-25T15:45:55.355Z</time></trkpt><trkpt lat="38.06954" lon="12.5756593"><ele>11.5</ele><time>2026-04-25T15:45:56.355Z</time></trkpt><trkpt lat="38.0696004" lon="12.5757893"><ele>12.75</ele><time>2026-04-25T15:45:57.355Z</time></trkpt><trkpt lat="38.0696545" lon="12.575914"><ele>14.0</ele><time>2026-04-25T15:45:58.355Z</time></trkpt><trkpt lat="38.0697108" lon="12.5760402"><ele>14.0</ele><time>2026-04-25T15:45:59.355Z</time></trkpt><trkpt lat="38.0697658" lon="12.5761622"><ele>14.0</ele><time>2026-04-25T15:46:00.355Z</time></trkpt><trkpt lat="38.0698198" lon="12.5762818"><ele>14.0</ele><time>2026-04-25T15:46:01.356Z</time></trkpt><trkpt lat="38.0698769" lon="12.5764125"><ele>14.0</ele><time>2026-04-25T15:46:02.356Z</time></trkpt><trkpt lat="38.0699324" lon="12.5765395"><ele>14.2</ele><time>2026-04-25T15:46:03.356Z</time></trkpt><trkpt lat="38.0699787" lon="12.5766702"><ele>14.399999999999999</ele><time>2026-04-25T15:46:04.356Z</time></trkpt><trkpt lat="38.0700247" lon="12.5767992"><ele>14.6</ele><time>2026-04-25T15:46:05.356Z</time></trkpt><trkpt lat="38.0700415" lon="12.5769337"><ele>14.8</ele><time>2026-04-25T15:46:06.356Z</time></trkpt><trkpt lat="38.0700346" lon="12.5770753"><ele>15.0</ele><time>2026-04-25T15:46:07.355Z</time></trkpt><trkpt lat="38.0700197" lon="12.5772225"><ele>15.0</ele><time>2026-04-25T15:46:08.356Z</time></trkpt><trkpt lat="38.0699897" lon="12.5773932"><ele>15.0</ele><time>2026-04-25T15:46:09.355Z</time></trkpt><trkpt lat="38.0699538" lon="12.577567"><ele>15.0</ele><time>2026-04-25T15:46:10.356Z</time></trkpt><trkpt lat="38.0699096" lon="12.5777333"><ele>15.0</ele><time>2026-04-25T15:46:11.355Z</time></trkpt><trkpt lat="38.0698636" lon="12.5778809"><ele>18.2</ele><time>2026-04-25T15:46:12.355Z</time></trkpt><trkpt lat="38.0698077" lon="12.5780167"><ele>21.4</ele><time>2026-04-25T15:46:13.356Z</time></trkpt><trkpt lat="38.0697532" lon="12.5781446"><ele>24.6</ele><time>2026-04-25T15:46:14.356Z</time></trkpt><trkpt lat="38.0696939" lon="12.5782583"><ele>27.8</ele><time>2026-04-25T15:46:15.356Z</time></trkpt><trkpt lat="38.0696388" lon="12.5783583"><ele>31.0</ele><time>2026-04-25T15:46:16.356Z</time></trkpt><trkpt lat="38.0696009" lon="12.5784621"><ele>31.0</ele><time>2026-04-25T15:46:17.356Z</time></trkpt><trkpt lat="38.0695585" lon="12.5785533"><ele>31.0</ele><time>2026-04-25T15:46:18.356Z</time></trkpt><trkpt lat="38.0695194" lon="12.5786519"><ele>31.0</ele><time>2026-04-25T15:46:19.356Z</time></trkpt><trkpt lat="38.0694893" lon="12.5787539"><ele>31.0</ele><time>2026-04-25T15:46:20.356Z</time></trkpt><trkpt lat="38.0694701" lon="12.5788694"><ele>31.0</ele><time>2026-04-25T15:46:21.357Z</time></trkpt><trkpt lat="38.0694704" lon="12.5790113"><ele>29.5</ele><time>2026-04-25T15:46:22.356Z</time></trkpt><trkpt lat="38.0694728" lon="12.5791714"><ele>28.0</ele><time>2026-04-25T15:46:23.356Z</time></trkpt><trkpt lat="38.0694765" lon="12.5793345"><ele>26.5</ele><time>2026-04-25T15:46:24.356Z</time></trkpt><trkpt lat="38.0694638" lon="12.5794864"><ele>25.0</ele><time>2026-04-25T15:46:25.356Z</time></trkpt><trkpt lat="38.0694422" lon="12.5796325"><ele>22.25</ele><time>2026-04-25T15:46:26.356Z</time></trkpt><trkpt lat="38.069397" lon="12.5797661"><ele>19.5</ele><time>2026-04-25T15:46:27.356Z</time></trkpt><trkpt lat="38.0693298" lon="12.5798828"><ele>16.75</ele><time>2026-04-25T15:46:28.356Z</time></trkpt><trkpt lat="38.0692502" lon="12.579987"><ele>14.0</ele><time>2026-04-25T15:46:29.356Z</time></trkpt><trkpt lat="38.0691584" lon="12.5800658"><ele>14.6</ele><time>2026-04-25T15:46:30.356Z</time></trkpt><trkpt lat="38.0690676" lon="12.5801444"><ele>15.2</ele><time>2026-04-25T15:46:31.356Z</time></trkpt><trkpt lat="38.0689743" lon="12.5802179"><ele>15.799999999999999</ele><time>2026-04-25T15:46:32.356Z</time></trkpt><trkpt lat="38.0688842" lon="12.5802955"><ele>16.4</ele><time>2026-04-25T15:46:33.356Z</time></trkpt><trkpt lat="38.0687891" lon="12.5803687"><ele>17.0</ele><time>2026-04-25T15:46:34.355Z</time></trkpt><trkpt lat="38.0686935" lon="12.5804251"><ele>17.0</ele><time>2026-04-25T15:46:35.356Z</time></trkpt><trkpt lat="38.0686106" lon="12.5804964"><ele>17.0</ele><time>2026-04-25T15:46:36.355Z</time></trkpt><trkpt lat="38.0685316" lon="12.580564"><ele>17.0</ele><time>2026-04-25T15:46:37.357Z</time></trkpt><trkpt lat="38.0684449" lon="12.5806189"><ele>17.0</ele><time>2026-04-25T15:46:38.356Z</time></trkpt><trkpt lat="38.0683723" lon="12.5806947"><ele>17.0</ele><time>2026-04-25T15:46:39.357Z</time></trkpt><trkpt lat="38.0682905" lon="12.5807583"><ele>17.166666666666668</ele><time>2026-04-25T15:46:40.355Z</time></trkpt><trkpt lat="38.0682414" lon="12.5808424"><ele>17.333333333333336</ele><time>2026-04-25T15:46:41.356Z</time></trkpt><trkpt lat="38.0682014" lon="12.5809278"><ele>17.5</ele><time>2026-04-25T15:46:42.356Z</time></trkpt><trkpt lat="38.0681721" lon="12.581004"><ele>17.666666666666668</ele><time>2026-04-25T15:46:43.355Z</time></trkpt><trkpt lat="38.0681423" lon="12.5810802"><ele>17.833333333333332</ele><time>2026-04-25T15:46:44.356Z</time></trkpt><trkpt lat="38.0681143" lon="12.581171"><ele>18.0</ele><time>2026-04-25T15:46:45.357Z</time></trkpt><trkpt lat="38.0680809" lon="12.5812701"><ele>18.0</ele><time>2026-04-25T15:46:46.356Z</time></trkpt><trkpt lat="38.0680393" lon="12.5813721"><ele>18.0</ele><time>2026-04-25T15:46:47.356Z</time></trkpt><trkpt lat="38.0680009" lon="12.5814817"><ele>18.0</ele><time>2026-04-25T15:46:48.356Z</time></trkpt><trkpt lat="38.0679525" lon="12.5815909"><ele>18.0</ele><time>2026-04-25T15:46:49.356Z</time></trkpt><trkpt lat="38.0679053" lon="12.581712"><ele>18.0</ele><time>2026-04-25T15:46:50.355Z</time></trkpt><trkpt lat="38.0678597" lon="12.5818397"><ele>18.0</ele><time>2026-04-25T15:46:51.357Z</time></trkpt><trkpt lat="38.0678101" lon="12.5819714"><ele>18.0</ele><time>2026-04-25T15:46:52.356Z</time></trkpt><trkpt lat="38.0677564" lon="12.5821131"><ele>18.0</ele><time>2026-04-25T15:46:53.356Z</time></trkpt><trkpt lat="38.0676991" lon="12.5822558"><ele>18.0</ele><time>2026-04-25T15:46:54.356Z</time></trkpt><trkpt lat="38.0676391" lon="12.5823996"><ele>17.0</ele><time>2026-04-25T15:46:55.356Z</time></trkpt><trkpt lat="38.0675794" lon="12.5825538"><ele>16.0</ele><time>2026-04-25T15:46:56.356Z</time></trkpt><trkpt lat="38.0675156" lon="12.5827298"><ele>15.0</ele><time>2026-04-25T15:46:57.356Z</time></trkpt><trkpt lat="38.0674483" lon="12.5829262"><ele>16.0</ele><time>2026-04-25T15:46:58.355Z</time></trkpt><trkpt lat="38.067377" lon="12.5831256"><ele>17.0</ele><time>2026-04-25T15:46:59.356Z</time></trkpt><trkpt lat="38.0673073" lon="12.5833201"><ele>18.0</ele><time>2026-04-25T15:47:00.356Z</time></trkpt><trkpt lat="38.0672385" lon="12.5835082"><ele>18.0</ele><time>2026-04-25T15:47:01.356Z</time></trkpt><trkpt lat="38.0671722" lon="12.5836772"><ele>18.0</ele><time>2026-04-25T15:47:02.356Z</time></trkpt><trkpt lat="38.0671063" lon="12.5838372"><ele>18.0</ele><time>2026-04-25T15:47:03.356Z</time></trkpt><trkpt lat="38.06705" lon="12.5840033"><ele>18.0</ele><time>2026-04-25T15:47:04.358Z</time></trkpt><trkpt lat="38.0669873" lon="12.5841564"><ele>18.5</ele><time>2026-04-25T15:47:05.356Z</time></trkpt><trkpt lat="38.0669306" lon="12.5843144"><ele>19.0</ele><time>2026-04-25T15:47:06.356Z</time></trkpt><trkpt lat="38.0668723" lon="12.5844628"><ele>19.5</ele><time>2026-04-25T15:47:07.356Z</time></trkpt><trkpt lat="38.066819" lon="12.584608"><ele>20.0</ele><time>2026-04-25T15:47:08.357Z</time></trkpt><trkpt lat="38.0667642" lon="12.5847489"><ele>21.0</ele><time>2026-04-25T15:47:09.356Z</time></trkpt><trkpt lat="38.0667141" lon="12.5848858"><ele>22.0</ele><time>2026-04-25T15:47:10.356Z</time></trkpt><trkpt lat="38.0666617" lon="12.5850265"><ele>23.0</ele><time>2026-04-25T15:47:11.356Z</time></trkpt><trkpt lat="38.0666133" lon="12.5851606"><ele>24.0</ele><time>2026-04-25T15:47:12.355Z</time></trkpt><trkpt lat="38.0665655" lon="12.5852929"><ele>21.25</ele><time>2026-04-25T15:47:13.355Z</time></trkpt><trkpt lat="38.0665107" lon="12.5854206"><ele>18.5</ele><time>2026-04-25T15:47:14.357Z</time></trkpt><trkpt lat="38.066457" lon="12.5855525"><ele>15.75</ele><time>2026-04-25T15:47:15.356Z</time></trkpt><trkpt lat="38.0664002" lon="12.5856798"><ele>13.0</ele><time>2026-04-25T15:47:16.355Z</time></trkpt><trkpt lat="38.066351" lon="12.5858046"><ele>13.0</ele><time>2026-04-25T15:47:17.357Z</time></trkpt><trkpt lat="38.0662905" lon="12.5859214"><ele>13.0</ele><time>2026-04-25T15:47:18.357Z</time></trkpt><trkpt lat="38.0662263" lon="12.5860337"><ele>13.0</ele><time>2026-04-25T15:47:19.357Z</time></trkpt><trkpt lat="38.0661617" lon="12.586142"><ele>13.0</ele><time>2026-04-25T15:47:20.356Z</time></trkpt><trkpt lat="38.0660954" lon="12.5862435"><ele>13.0</ele><time>2026-04-25T15:47:21.356Z</time></trkpt><trkpt lat="38.0660348" lon="12.5863383"><ele>12.0</ele><time>2026-04-25T15:47:22.356Z</time></trkpt><trkpt lat="38.0659879" lon="12.5864433"><ele>11.0</ele><time>2026-04-25T15:47:23.355Z</time></trkpt><trkpt lat="38.0659483" lon="12.5865439"><ele>10.0</ele><time>2026-04-25T15:47:24.356Z</time></trkpt><trkpt lat="38.0659108" lon="12.5866481"><ele>9.0</ele><time>2026-04-25T15:47:25.356Z</time></trkpt><trkpt lat="38.0658961" lon="12.5867645"><ele>8.0</ele><time>2026-04-25T15:47:26.357Z</time></trkpt><trkpt lat="38.0658926" lon="12.5869079"><ele>8.25</ele><time>2026-04-25T15:47:27.357Z</time></trkpt><trkpt lat="38.0659043" lon="12.5870361"><ele>8.5</ele><time>2026-04-25T15:47:28.356Z</time></trkpt><trkpt lat="38.0659278" lon="12.5872347"><ele>8.75</ele><time>2026-04-25T15:47:29.356Z</time></trkpt><trkpt lat="38.0659396" lon="12.5874284"><ele>9.0</ele><time>2026-04-25T15:47:30.356Z</time></trkpt><trkpt lat="38.065952" lon="12.5876049"><ele>9.0</ele><time>2026-04-25T15:47:31.356Z</time></trkpt><trkpt lat="38.0659676" lon="12.5877741"><ele>9.0</ele><time>2026-04-25T15:47:32.356Z</time></trkpt><trkpt lat="38.0659742" lon="12.5879146"><ele>9.0</ele><time>2026-04-25T15:47:33.356Z</time></trkpt><trkpt lat="38.0659858" lon="12.5880471"><ele>9.0</ele><time>2026-04-25T15:47:34.355Z</time></trkpt><trkpt lat="38.0659976" lon="12.5881659"><ele>9.0</ele><time>2026-04-25T15:47:35.357Z</time></trkpt><trkpt lat="38.0660088" lon="12.588279"><ele>9.0</ele><time>2026-04-25T15:47:36.356Z</time></trkpt><trkpt lat="38.0660121" lon="12.5883938"><ele>9.0</ele><time>2026-04-25T15:47:37.356Z</time></trkpt><trkpt lat="38.0660262" lon="12.5885055"><ele>9.0</ele><time>2026-04-25T15:47:38.357Z</time></trkpt><trkpt lat="38.0660369" lon="12.58862"><ele>9.0</ele><time>2026-04-25T15:47:39.357Z</time></trkpt><trkpt lat="38.0660439" lon="12.5887275"><ele>9.0</ele><time>2026-04-25T15:47:40.356Z</time></trkpt><trkpt lat="38.0660505" lon="12.5888483"><ele>9.0</ele><time>2026-04-25T15:47:41.355Z</time></trkpt><trkpt lat="38.0660509" lon="12.5889705"><ele>9.0</ele><time>2026-04-25T15:47:42.356Z</time></trkpt><trkpt lat="38.0660445" lon="12.5890883"><ele>9.0</ele><time>2026-04-25T15:47:43.356Z</time></trkpt><trkpt lat="38.066038" lon="12.5892048"><ele>9.0</ele><time>2026-04-25T15:47:44.356Z</time></trkpt><trkpt lat="38.066026" lon="12.5893133"><ele>9.0</ele><time>2026-04-25T15:47:45.355Z</time></trkpt><trkpt lat="38.0660081" lon="12.5894302"><ele>8.8</ele><time>2026-04-25T15:47:46.357Z</time></trkpt><trkpt lat="38.0659858" lon="12.5895471"><ele>8.600000000000001</ele><time>2026-04-25T15:47:47.356Z</time></trkpt><trkpt lat="38.0659602" lon="12.5896771"><ele>8.4</ele><time>2026-04-25T15:47:48.356Z</time></trkpt><trkpt lat="38.0659289" lon="12.5898243"><ele>8.200000000000001</ele><time>2026-04-25T15:47:49.356Z</time></trkpt><trkpt lat="38.0659013" lon="12.5899605"><ele>8.0</ele><time>2026-04-25T15:47:50.356Z</time></trkpt><trkpt lat="38.0658666" lon="12.5901032"><ele>8.0</ele><time>2026-04-25T15:47:51.356Z</time></trkpt><trkpt lat="38.0658292" lon="12.5902407"><ele>8.0</ele><time>2026-04-25T15:47:52.357Z</time></trkpt><trkpt lat="38.0657878" lon="12.5903667"><ele>8.0</ele><time>2026-04-25T15:47:53.356Z</time></trkpt><trkpt lat="38.065752" lon="12.5904837"><ele>8.0</ele><time>2026-04-25T15:47:54.356Z</time></trkpt><trkpt lat="38.0657238" lon="12.5906058"><ele>8.0</ele><time>2026-04-25T15:47:55.356Z</time></trkpt><trkpt lat="38.0656998" lon="12.5907345"><ele>8.5</ele><time>2026-04-25T15:47:56.356Z</time></trkpt><trkpt lat="38.0656681" lon="12.5908844"><ele>9.0</ele><time>2026-04-25T15:47:57.356Z</time></trkpt><trkpt lat="38.0656337" lon="12.5910441"><ele>9.5</ele><time>2026-04-25T15:47:58.356Z</time></trkpt><trkpt lat="38.0655963" lon="12.5912021"><ele>10.0</ele><time>2026-04-25T15:47:59.357Z</time></trkpt><trkpt lat="38.0655552" lon="12.5913706"><ele>10.25</ele><time>2026-04-25T15:48:00.356Z</time></trkpt><trkpt lat="38.0655171" lon="12.5915307"><ele>10.5</ele><time>2026-04-25T15:48:01.357Z</time></trkpt><trkpt lat="38.0654827" lon="12.5916938"><ele>10.75</ele><time>2026-04-25T15:48:02.356Z</time></trkpt><trkpt lat="38.0654437" lon="12.5918512"><ele>11.0</ele><time>2026-04-25T15:48:03.356Z</time></trkpt><trkpt lat="38.0654065" lon="12.5920113"><ele>11.25</ele><time>2026-04-25T15:48:04.357Z</time></trkpt><trkpt lat="38.0653684" lon="12.5921658"><ele>11.5</ele><time>2026-04-25T15:48:05.356Z</time></trkpt><trkpt lat="38.0653325" lon="12.5923205"><ele>11.75</ele><time>2026-04-25T15:48:06.357Z</time></trkpt><trkpt lat="38.0652993" lon="12.5924834"><ele>12.0</ele><time>2026-04-25T15:48:07.356Z</time></trkpt><trkpt lat="38.0652629" lon="12.5926382"><ele>12.0</ele><time>2026-04-25T15:48:08.355Z</time></trkpt><trkpt lat="38.0652223" lon="12.5927945"><ele>12.0</ele><time>2026-04-25T15:48:09.356Z</time></trkpt><trkpt lat="38.0651841" lon="12.592952"><ele>12.0</ele><time>2026-04-25T15:48:10.357Z</time></trkpt><trkpt lat="38.0651455" lon="12.5931074"><ele>12.0</ele><time>2026-04-25T15:48:11.357Z</time></trkpt><trkpt lat="38.0651054" lon="12.5932548"><ele>12.0</ele><time>2026-04-25T15:48:12.356Z</time></trkpt><trkpt lat="38.0650707" lon="12.5934128"><ele>12.0</ele><time>2026-04-25T15:48:13.355Z</time></trkpt><trkpt lat="38.0650372" lon="12.5935715"><ele>12.0</ele><time>2026-04-25T15:48:14.356Z</time></trkpt><trkpt lat="38.0650011" lon="12.5937296"><ele>12.0</ele><time>2026-04-25T15:48:15.356Z</time></trkpt><trkpt lat="38.0649675" lon="12.5938909"><ele>12.75</ele><time>2026-04-25T15:48:16.356Z</time></trkpt><trkpt lat="38.0649336" lon="12.5940463"><ele>13.5</ele><time>2026-04-25T15:48:17.357Z</time></trkpt><trkpt lat="38.0648975" lon="12.5942062"><ele>14.25</ele><time>2026-04-25T15:48:18.355Z</time></trkpt><trkpt lat="38.0648661" lon="12.5943625"><ele>15.0</ele><time>2026-04-25T15:48:19.356Z</time></trkpt><trkpt lat="38.0648252" lon="12.5945147"><ele>15.0</ele><time>2026-04-25T15:48:20.357Z</time></trkpt><trkpt lat="38.0647944" lon="12.5946599"><ele>15.0</ele><time>2026-04-25T15:48:21.356Z</time></trkpt><trkpt lat="38.0647613" lon="12.5948098"><ele>15.0</ele><time>2026-04-25T15:48:22.357Z</time></trkpt><trkpt lat="38.0647315" lon="12.5949498"><ele>15.0</ele><time>2026-04-25T15:48:23.357Z</time></trkpt><trkpt lat="38.0647002" lon="12.5950762"><ele>15.0</ele><time>2026-04-25T15:48:24.356Z</time></trkpt><trkpt lat="38.0646724" lon="12.5951939"><ele>15.0</ele><time>2026-04-25T15:48:25.357Z</time></trkpt><trkpt lat="38.064648" lon="12.5953083"><ele>15.0</ele><time>2026-04-25T15:48:26.356Z</time></trkpt><trkpt lat="38.0646244" lon="12.5954198"><ele>15.0</ele><time>2026-04-25T15:48:27.356Z</time></trkpt><trkpt lat="38.0646" lon="12.5955315"><ele>15.0</ele><time>2026-04-25T15:48:28.356Z</time></trkpt><trkpt lat="38.0645719" lon="12.5956432"><ele>15.166666666666666</ele><time>2026-04-25T15:48:29.357Z</time></trkpt><trkpt lat="38.0645428" lon="12.5957593"><ele>15.333333333333332</ele><time>2026-04-25T15:48:30.357Z</time></trkpt><trkpt lat="38.0645084" lon="12.595865"><ele>15.5</ele><time>2026-04-25T15:48:31.357Z</time></trkpt><trkpt lat="38.0644686" lon="12.5959682"><ele>15.666666666666666</ele><time>2026-04-25T15:48:32.357Z</time></trkpt><trkpt lat="38.064432" lon="12.5960658"><ele>15.833333333333332</ele><time>2026-04-25T15:48:33.356Z</time></trkpt><trkpt lat="38.0643947" lon="12.5961505"><ele>16.0</ele><time>2026-04-25T15:48:34.357Z</time></trkpt><trkpt lat="38.0643459" lon="12.5962564"><ele>16.2</ele><time>2026-04-25T15:48:36.357Z</time></trkpt><trkpt lat="38.0643068" lon="12.596359"><ele>16.400000000000002</ele><time>2026-04-25T15:48:39.355Z</time></trkpt><trkpt lat="38.0642768" lon="12.596445"><ele>16.6</ele><time>2026-04-25T15:48:41.357Z</time></trkpt><trkpt lat="38.0642353" lon="12.596543"><ele>16.8</ele><time>2026-04-25T15:48:43.357Z</time></trkpt><trkpt lat="38.0641839" lon="12.5966703"><ele>17.0</ele><time>2026-04-25T15:48:45.357Z</time></trkpt><trkpt lat="38.0641278" lon="12.596818"><ele>17.142857142857142</ele><time>2026-04-25T15:48:47.356Z</time></trkpt><trkpt lat="38.0641025" lon="12.5969014"><ele>17.285714285714285</ele><time>2026-04-25T15:48:48.357Z</time></trkpt><trkpt lat="38.0640737" lon="12.596978"><ele>17.42857142857143</ele><time>2026-04-25T15:48:49.355Z</time></trkpt><trkpt lat="38.0640515" lon="12.5970637"><ele>17.57142857142857</ele><time>2026-04-25T15:48:50.356Z</time></trkpt><trkpt lat="38.0640168" lon="12.5971484"><ele>17.714285714285715</ele><time>2026-04-25T15:48:51.356Z</time></trkpt><trkpt lat="38.0639888" lon="12.5972439"><ele>17.857142857142858</ele><time>2026-04-25T15:48:52.356Z</time></trkpt><trkpt lat="38.0639568" lon="12.597341"><ele>18.0</ele><time>2026-04-25T15:48:53.356Z</time></trkpt><trkpt lat="38.063915" lon="12.5974435"><ele>18.0</ele><time>2026-04-25T15:48:54.357Z</time></trkpt><trkpt lat="38.0638781" lon="12.5975444"><ele>18.0</ele><time>2026-04-25T15:48:55.356Z</time></trkpt><trkpt lat="38.0638376" lon="12.5976512"><ele>18.0</ele><time>2026-04-25T15:48:56.357Z</time></trkpt><trkpt lat="38.0638057" lon="12.5977548"><ele>18.0</ele><time>2026-04-25T15:48:57.357Z</time></trkpt><trkpt lat="38.0637721" lon="12.5978627"><ele>18.0</ele><time>2026-04-25T15:48:58.357Z</time></trkpt><trkpt lat="38.0637342" lon="12.5979647"><ele>18.0</ele><time>2026-04-25T15:48:59.357Z</time></trkpt><trkpt lat="38.0636953" lon="12.5980719"><ele>18.0</ele><time>2026-04-25T15:49:00.357Z</time></trkpt><trkpt lat="38.0636483" lon="12.5981725"><ele>18.0</ele><time>2026-04-25T15:49:01.356Z</time></trkpt><trkpt lat="38.0636017" lon="12.5982804"><ele>18.0</ele><time>2026-04-25T15:49:02.357Z</time></trkpt><trkpt lat="38.0635522" lon="12.5983893"><ele>18.0</ele><time>2026-04-25T15:49:03.356Z</time></trkpt><trkpt lat="38.06349" lon="12.598502"><ele>18.0</ele><time>2026-04-25T15:49:04.356Z</time></trkpt><trkpt lat="38.0634291" lon="12.5986171"><ele>17.6</ele><time>2026-04-25T15:49:05.357Z</time></trkpt><trkpt lat="38.0633678" lon="12.598738"><ele>17.200000000000003</ele><time>2026-04-25T15:49:06.356Z</time></trkpt><trkpt lat="38.06331" lon="12.5988532"><ele>16.8</ele><time>2026-04-25T15:49:07.357Z</time></trkpt><trkpt lat="38.0632429" lon="12.5989669"><ele>16.400000000000002</ele><time>2026-04-25T15:49:08.356Z</time></trkpt><trkpt lat="38.0631826" lon="12.5990852"><ele>16.0</ele><time>2026-04-25T15:49:09.356Z</time></trkpt><trkpt lat="38.0631179" lon="12.5992182"><ele>16.0</ele><time>2026-04-25T15:49:10.356Z</time></trkpt><trkpt lat="38.0630532" lon="12.5993448"><ele>16.0</ele><time>2026-04-25T15:49:11.356Z</time></trkpt><trkpt lat="38.0629835" lon="12.5994658"><ele>16.0</ele><time>2026-04-25T15:49:12.356Z</time></trkpt><trkpt lat="38.062923" lon="12.5995896"><ele>16.0</ele><time>2026-04-25T15:49:13.356Z</time></trkpt><trkpt lat="38.0628564" lon="12.5997095"><ele>15.5</ele><time>2026-04-25T15:49:14.355Z</time></trkpt><trkpt lat="38.0627968" lon="12.5998284"><ele>15.0</ele><time>2026-04-25T15:49:15.357Z</time></trkpt><trkpt lat="38.062733" lon="12.5999508"><ele>14.5</ele><time>2026-04-25T15:49:16.357Z</time></trkpt><trkpt lat="38.0626681" lon="12.6000784"><ele>14.0</ele><time>2026-04-25T15:49:17.357Z</time></trkpt><trkpt lat="38.0626" lon="12.6002016"><ele>14.0</ele><time>2026-04-25T15:49:18.357Z</time></trkpt><trkpt lat="38.0625347" lon="12.6003268"><ele>14.0</ele><time>2026-04-25T15:49:19.358Z</time></trkpt><trkpt lat="38.0624642" lon="12.6004531"><ele>14.0</ele><time>2026-04-25T15:49:20.357Z</time></trkpt><trkpt lat="38.0623947" lon="12.6005816"><ele>14.0</ele><time>2026-04-25T15:49:21.356Z</time></trkpt><trkpt lat="38.0623204" lon="12.6007051"><ele>14.25</ele><time>2026-04-25T15:49:22.357Z</time></trkpt><trkpt lat="38.0622516" lon="12.6008372"><ele>14.5</ele><time>2026-04-25T15:49:23.357Z</time></trkpt><trkpt lat="38.0621825" lon="12.600962"><ele>14.75</ele><time>2026-04-25T15:49:24.356Z</time></trkpt><trkpt lat="38.0621147" lon="12.6010922"><ele>15.0</ele><time>2026-04-25T15:49:25.357Z</time></trkpt><trkpt lat="38.0620515" lon="12.6012153"><ele>14.6</ele><time>2026-04-25T15:49:26.357Z</time></trkpt><trkpt lat="38.0619868" lon="12.6013363"><ele>14.2</ele><time>2026-04-25T15:49:27.357Z</time></trkpt><trkpt lat="38.0619246" lon="12.6014532"><ele>13.8</ele><time>2026-04-25T15:49:28.356Z</time></trkpt><trkpt lat="38.0618651" lon="12.6015654"><ele>13.4</ele><time>2026-04-25T15:49:29.356Z</time></trkpt><trkpt lat="38.0618033" lon="12.6016776"><ele>13.0</ele><time>2026-04-25T15:49:30.356Z</time></trkpt><trkpt lat="38.0617479" lon="12.6017882"><ele>13.0</ele><time>2026-04-25T15:49:31.357Z</time></trkpt><trkpt lat="38.0616838" lon="12.6019039"><ele>13.0</ele><time>2026-04-25T15:49:32.356Z</time></trkpt><trkpt lat="38.0616279" lon="12.6020281"><ele>13.0</ele><time>2026-04-25T15:49:33.357Z</time></trkpt><trkpt lat="38.0615693" lon="12.6021373"><ele>13.0</ele><time>2026-04-25T15:49:34.357Z</time></trkpt><trkpt lat="38.0615134" lon="12.6022442"><ele>13.0</ele><time>2026-04-25T15:49:35.357Z</time></trkpt><trkpt lat="38.0614609" lon="12.6023526"><ele>13.0</ele><time>2026-04-25T15:49:36.357Z</time></trkpt><trkpt lat="38.0614015" lon="12.6024588"><ele>13.0</ele><time>2026-04-25T15:49:37.357Z</time></trkpt><trkpt lat="38.0613433" lon="12.6025669"><ele>13.0</ele><time>2026-04-25T15:49:38.356Z</time></trkpt><trkpt lat="38.0612831" lon="12.6026735"><ele>13.0</ele><time>2026-04-25T15:49:39.357Z</time></trkpt><trkpt lat="38.0612229" lon="12.6027835"><ele>13.0</ele><time>2026-04-25T15:49:40.357Z</time></trkpt><trkpt lat="38.0611523" lon="12.6028994"><ele>13.5</ele><time>2026-04-25T15:49:41.357Z</time></trkpt><trkpt lat="38.0610842" lon="12.603023"><ele>14.0</ele><time>2026-04-25T15:49:42.357Z</time></trkpt><trkpt lat="38.0610218" lon="12.603155"><ele>14.5</ele><time>2026-04-25T15:49:43.357Z</time></trkpt><trkpt lat="38.0609638" lon="12.6032857"><ele>15.0</ele><time>2026-04-25T15:49:44.357Z</time></trkpt><trkpt lat="38.0609066" lon="12.6034284"><ele>15.0</ele><time>2026-04-25T15:49:45.356Z</time></trkpt><trkpt lat="38.0608509" lon="12.6035896"><ele>15.0</ele><time>2026-04-25T15:49:46.357Z</time></trkpt><trkpt lat="38.060796" lon="12.6037743"><ele>15.0</ele><time>2026-04-25T15:49:47.356Z</time></trkpt><trkpt lat="38.0607438" lon="12.6039798"><ele>16.0</ele><time>2026-04-25T15:49:48.356Z</time></trkpt><trkpt lat="38.0607003" lon="12.604175"><ele>17.0</ele><time>2026-04-25T15:49:49.357Z</time></trkpt><trkpt lat="38.0606679" lon="12.6043759"><ele>18.0</ele><time>2026-04-25T15:49:50.357Z</time></trkpt><trkpt lat="38.0606475" lon="12.6045699"><ele>18.333333333333332</ele><time>2026-04-25T15:49:51.356Z</time></trkpt><trkpt lat="38.0606351" lon="12.6047546"><ele>18.666666666666664</ele><time>2026-04-25T15:49:52.356Z</time></trkpt><trkpt lat="38.0606203" lon="12.6049417"><ele>19.0</ele><time>2026-04-25T15:49:53.356Z</time></trkpt><trkpt lat="38.0606213" lon="12.6051634"><ele>19.666666666666664</ele><time>2026-04-25T15:49:54.356Z</time></trkpt><trkpt lat="38.0606098" lon="12.6053962"><ele>20.333333333333332</ele><time>2026-04-25T15:49:55.356Z</time></trkpt><trkpt lat="38.0605921" lon="12.6056176"><ele>21.0</ele><time>2026-04-25T15:49:56.357Z</time></trkpt><trkpt lat="38.0605842" lon="12.6058221"><ele>21.0</ele><time>2026-04-25T15:49:57.356Z</time></trkpt><trkpt lat="38.0605724" lon="12.6060148"><ele>21.0</ele><time>2026-04-25T15:49:58.356Z</time></trkpt><trkpt lat="38.0605649" lon="12.6062088"><ele>21.0</ele><time>2026-04-25T15:49:59.357Z</time></trkpt><trkpt lat="38.0605555" lon="12.6063946"><ele>21.0</ele><time>2026-04-25T15:50:00.357Z</time></trkpt><trkpt lat="38.0605388" lon="12.6065755"><ele>21.0</ele><time>2026-04-25T15:50:01.357Z</time></trkpt><trkpt lat="38.0605209" lon="12.6067373"><ele>21.0</ele><time>2026-04-25T15:50:02.356Z</time></trkpt><trkpt lat="38.0604962" lon="12.6068881"><ele>21.0</ele><time>2026-04-25T15:50:03.356Z</time></trkpt><trkpt lat="38.0604743" lon="12.6070551"><ele>21.0</ele><time>2026-04-25T15:50:04.356Z</time></trkpt><trkpt lat="38.0604505" lon="12.6072302"><ele>21.0</ele><time>2026-04-25T15:50:05.357Z</time></trkpt><trkpt lat="38.0604207" lon="12.6074207"><ele>21.0</ele><time>2026-04-25T15:50:06.357Z</time></trkpt><trkpt lat="38.0603763" lon="12.6076107"><ele>21.0</ele><time>2026-04-25T15:50:07.358Z</time></trkpt><trkpt lat="38.0603405" lon="12.6077964"><ele>21.0</ele><time>2026-04-25T15:50:08.356Z</time></trkpt><trkpt lat="38.0603031" lon="12.6079601"><ele>21.0</ele><time>2026-04-25T15:50:09.357Z</time></trkpt><trkpt lat="38.060273" lon="12.6081094"><ele>21.0</ele><time>2026-04-25T15:50:10.357Z</time></trkpt><trkpt lat="38.060255" lon="12.6082494"><ele>21.0</ele><time>2026-04-25T15:50:11.356Z</time></trkpt><trkpt lat="38.0602681" lon="12.6083795"><ele>21.0</ele><time>2026-04-25T15:50:12.357Z</time></trkpt><trkpt lat="38.0603041" lon="12.6085068"><ele>21.0</ele><time>2026-04-25T15:50:13.355Z</time></trkpt><trkpt lat="38.0603543" lon="12.6086233"><ele>21.0</ele><time>2026-04-25T15:50:14.357Z</time></trkpt><trkpt lat="38.0604245" lon="12.6087299"><ele>21.0</ele><time>2026-04-25T15:50:15.357Z</time></trkpt><trkpt lat="38.0605044" lon="12.60884"><ele>21.0</ele><time>2026-04-25T15:50:16.357Z</time></trkpt><trkpt lat="38.0606004" lon="12.6089646"><ele>20.333333333333332</ele><time>2026-04-25T15:50:17.357Z</time></trkpt><trkpt lat="38.0607035" lon="12.6091093"><ele>19.666666666666664</ele><time>2026-04-25T15:50:18.357Z</time></trkpt><trkpt lat="38.0608034" lon="12.609266"><ele>19.0</ele><time>2026-04-25T15:50:19.356Z</time></trkpt><trkpt lat="38.0608993" lon="12.6094046"><ele>18.0</ele><time>2026-04-25T15:50:20.356Z</time></trkpt><trkpt lat="38.06099" lon="12.6095346"><ele>17.0</ele><time>2026-04-25T15:50:21.356Z</time></trkpt><trkpt lat="38.0610726" lon="12.6096601"><ele>16.0</ele><time>2026-04-25T15:50:22.356Z</time></trkpt><trkpt lat="38.0611323" lon="12.6098073"><ele>15.0</ele><time>2026-04-25T15:50:23.357Z</time></trkpt><trkpt lat="38.0611739" lon="12.6099819"><ele>15.0</ele><time>2026-04-25T15:50:24.356Z</time></trkpt><trkpt lat="38.0612066" lon="12.6101842"><ele>15.0</ele><time>2026-04-25T15:50:25.356Z</time></trkpt><trkpt lat="38.0612279" lon="12.6103992"><ele>15.0</ele><time>2026-04-25T15:50:26.357Z</time></trkpt><trkpt lat="38.0612463" lon="12.6106105"><ele>15.666666666666668</ele><time>2026-04-25T15:50:27.357Z</time></trkpt><trkpt lat="38.0612602" lon="12.6108209"><ele>16.333333333333336</ele><time>2026-04-25T15:50:28.357Z</time></trkpt><trkpt lat="38.0612563" lon="12.6110305"><ele>17.0</ele><time>2026-04-25T15:50:29.356Z</time></trkpt><trkpt lat="38.0612443" lon="12.6112327"><ele>17.0</ele><time>2026-04-25T15:50:30.356Z</time></trkpt><trkpt lat="38.0612325" lon="12.611428"><ele>17.0</ele><time>2026-04-25T15:50:31.357Z</time></trkpt><trkpt lat="38.0612207" lon="12.6116175"><ele>17.0</ele><time>2026-04-25T15:50:32.357Z</time></trkpt><trkpt lat="38.0612117" lon="12.6117962"><ele>17.0</ele><time>2026-04-25T15:50:33.357Z</time></trkpt><trkpt lat="38.0611973" lon="12.611966"><ele>17.0</ele><time>2026-04-25T15:50:34.358Z</time></trkpt><trkpt lat="38.0611943" lon="12.6121383"><ele>17.0</ele><time>2026-04-25T15:50:35.357Z</time></trkpt><trkpt lat="38.0611852" lon="12.6123158"><ele>17.0</ele><time>2026-04-25T15:50:36.357Z</time></trkpt><trkpt lat="38.0611772" lon="12.6125035"><ele>17.0</ele><time>2026-04-25T15:50:37.356Z</time></trkpt><trkpt lat="38.0611665" lon="12.6126905"><ele>17.75</ele><time>2026-04-25T15:50:38.356Z</time></trkpt><trkpt lat="38.0611554" lon="12.612876"><ele>18.5</ele><time>2026-04-25T15:50:39.356Z</time></trkpt><trkpt lat="38.06114" lon="12.6130621"><ele>19.25</ele><time>2026-04-25T15:50:40.356Z</time></trkpt><trkpt lat="38.0611276" lon="12.6132376"><ele>20.0</ele><time>2026-04-25T15:50:41.357Z</time></trkpt><trkpt lat="38.061116" lon="12.6134011"><ele>20.0</ele><time>2026-04-25T15:50:42.356Z</time></trkpt><trkpt lat="38.0611048" lon="12.6135524"><ele>20.0</ele><time>2026-04-25T15:50:43.357Z</time></trkpt><trkpt lat="38.0610956" lon="12.6136993"><ele>20.0</ele><time>2026-04-25T15:50:44.355Z</time></trkpt><trkpt lat="38.061087" lon="12.6138364"><ele>20.0</ele><time>2026-04-25T15:50:45.357Z</time></trkpt><trkpt lat="38.0610777" lon="12.6139797"><ele>20.5</ele><time>2026-04-25T15:50:46.356Z</time></trkpt><trkpt lat="38.0610595" lon="12.6141346"><ele>21.0</ele><time>2026-04-25T15:50:47.356Z</time></trkpt><trkpt lat="38.0610356" lon="12.6142824"><ele>21.5</ele><time>2026-04-25T15:50:48.357Z</time></trkpt><trkpt lat="38.0610038" lon="12.6144336"><ele>22.0</ele><time>2026-04-25T15:50:49.357Z</time></trkpt><trkpt lat="38.0609646" lon="12.6145992"><ele>22.0</ele><time>2026-04-25T15:50:50.356Z</time></trkpt><trkpt lat="38.0609235" lon="12.6147778"><ele>22.0</ele><time>2026-04-25T15:50:51.357Z</time></trkpt><trkpt lat="38.0608753" lon="12.6149719"><ele>22.0</ele><time>2026-04-25T15:50:52.356Z</time></trkpt><trkpt lat="38.060823" lon="12.6151582"><ele>22.333333333333332</ele><time>2026-04-25T15:50:53.356Z</time></trkpt><trkpt lat="38.0607677" lon="12.6153448"><ele>22.666666666666668</ele><time>2026-04-25T15:50:54.356Z</time></trkpt><trkpt lat="38.0607115" lon="12.6155243"><ele>23.0</ele><time>2026-04-25T15:50:55.357Z</time></trkpt><trkpt lat="38.060657" lon="12.6156927"><ele>23.0</ele><time>2026-04-25T15:50:56.357Z</time></trkpt><trkpt lat="38.0606161" lon="12.6158534"><ele>23.0</ele><time>2026-04-25T15:50:57.356Z</time></trkpt><trkpt lat="38.060607" lon="12.6160154"><ele>23.0</ele><time>2026-04-25T15:50:58.357Z</time></trkpt><trkpt lat="38.0606188" lon="12.6161846"><ele>23.0</ele><time>2026-04-25T15:50:59.356Z</time></trkpt><trkpt lat="38.0606617" lon="12.6163588"><ele>22.666666666666668</ele><time>2026-04-25T15:51:00.357Z</time></trkpt><trkpt lat="38.0607306" lon="12.6165288"><ele>22.333333333333332</ele><time>2026-04-25T15:51:01.357Z</time></trkpt><trkpt lat="38.0608105" lon="12.6167045"><ele>22.0</ele><time>2026-04-25T15:51:02.357Z</time></trkpt><trkpt lat="38.0608881" lon="12.6168784"><ele>22.0</ele><time>2026-04-25T15:51:03.357Z</time></trkpt><trkpt lat="38.0609611" lon="12.6170425"><ele>22.0</ele><time>2026-04-25T15:51:04.356Z</time></trkpt><trkpt lat="38.061034" lon="12.6172017"><ele>22.0</ele><time>2026-04-25T15:51:05.356Z</time></trkpt><trkpt lat="38.0610986" lon="12.6173541"><ele>22.0</ele><time>2026-04-25T15:51:06.356Z</time></trkpt><trkpt lat="38.0611697" lon="12.6175072"><ele>22.0</ele><time>2026-04-25T15:51:07.357Z</time></trkpt><trkpt lat="38.0612323" lon="12.6176596"><ele>22.0</ele><time>2026-04-25T15:51:08.356Z</time></trkpt><trkpt lat="38.0612932" lon="12.6178132"><ele>22.0</ele><time>2026-04-25T15:51:09.357Z</time></trkpt><trkpt lat="38.0613574" lon="12.6179631"><ele>22.0</ele><time>2026-04-25T15:51:10.357Z</time></trkpt><trkpt lat="38.0614137" lon="12.618114"><ele>21.75</ele><time>2026-04-25T15:51:11.356Z</time></trkpt><trkpt lat="38.0614807" lon="12.6182591"><ele>21.5</ele><time>2026-04-25T15:51:12.356Z</time></trkpt><trkpt lat="38.0615394" lon="12.6184058"><ele>21.25</ele><time>2026-04-25T15:51:13.357Z</time></trkpt><trkpt lat="38.0615992" lon="12.618544"><ele>21.0</ele><time>2026-04-25T15:51:14.357Z</time></trkpt><trkpt lat="38.0616678" lon="12.6186772"><ele>20.75</ele><time>2026-04-25T15:51:15.357Z</time></trkpt><trkpt lat="38.0617233" lon="12.6188134"><ele>20.5</ele><time>2026-04-25T15:51:16.357Z</time></trkpt><trkpt lat="38.0617867" lon="12.6189619"><ele>20.25</ele><time>2026-04-25T15:51:17.357Z</time></trkpt><trkpt lat="38.0618487" lon="12.6191105"><ele>20.0</ele><time>2026-04-25T15:51:18.357Z</time></trkpt><trkpt lat="38.061916" lon="12.6192616"><ele>20.0</ele><time>2026-04-25T15:51:19.356Z</time></trkpt><trkpt lat="38.0619828" lon="12.6194146"><ele>20.0</ele><time>2026-04-25T15:51:20.357Z</time></trkpt><trkpt lat="38.0621048" lon="12.6197174"><ele>20.0</ele><time>2026-04-25T15:51:22.357Z</time></trkpt><trkpt lat="38.0621759" lon="12.6198695"><ele>20.333333333333336</ele><time>2026-04-25T15:51:23.356Z</time></trkpt><trkpt lat="38.0622562" lon="12.6200624"><ele>20.666666666666668</ele><time>2026-04-25T15:51:24.358Z</time></trkpt><trkpt lat="38.0623334" lon="12.6202216"><ele>21.0</ele><time>2026-04-25T15:51:25.357Z</time></trkpt><trkpt lat="38.0624" lon="12.6203832"><ele>20.25</ele><time>2026-04-25T15:51:26.357Z</time></trkpt><trkpt lat="38.0624702" lon="12.6205436"><ele>19.5</ele><time>2026-04-25T15:51:27.356Z</time></trkpt><trkpt lat="38.0625357" lon="12.6207112"><ele>18.75</ele><time>2026-04-25T15:51:28.358Z</time></trkpt><trkpt lat="38.062602" lon="12.6208764"><ele>18.0</ele><time>2026-04-25T15:51:29.357Z</time></trkpt><trkpt lat="38.0626733" lon="12.6210416"><ele>18.333333333333332</ele><time>2026-04-25T15:51:30.357Z</time></trkpt><trkpt lat="38.0627505" lon="12.6212253"><ele>18.666666666666664</ele><time>2026-04-25T15:51:31.356Z</time></trkpt><trkpt lat="38.0628341" lon="12.6214091"><ele>19.0</ele><time>2026-04-25T15:51:32.358Z</time></trkpt><trkpt lat="38.0629161" lon="12.6216"><ele>19.0</ele><time>2026-04-25T15:51:33.356Z</time></trkpt><trkpt lat="38.062991" lon="12.6217835"><ele>19.0</ele><time>2026-04-25T15:51:34.358Z</time></trkpt><trkpt lat="38.0630585" lon="12.621957"><ele>19.0</ele><time>2026-04-25T15:51:35.356Z</time></trkpt><trkpt lat="38.0631266" lon="12.6221253"><ele>19.0</ele><time>2026-04-25T15:51:36.357Z</time></trkpt><trkpt lat="38.0631848" lon="12.6222883"><ele>19.0</ele><time>2026-04-25T15:51:37.357Z</time></trkpt><trkpt lat="38.0632721" lon="12.6224712"><ele>19.0</ele><time>2026-04-25T15:51:38.357Z</time></trkpt><trkpt lat="38.0633514" lon="12.6226851"><ele>19.0</ele><time>2026-04-25T15:51:39.357Z</time></trkpt><trkpt lat="38.063434" lon="12.6228902"><ele>19.0</ele><time>2026-04-25T15:51:40.357Z</time></trkpt><trkpt lat="38.0635152" lon="12.623077"><ele>19.0</ele><time>2026-04-25T15:51:41.357Z</time></trkpt><trkpt lat="38.0635962" lon="12.6232565"><ele>19.0</ele><time>2026-04-25T15:51:42.357Z</time></trkpt><trkpt lat="38.0636741" lon="12.6234283"><ele>19.0</ele><time>2026-04-25T15:51:43.358Z</time></trkpt><trkpt lat="38.0637387" lon="12.6235896"><ele>19.0</ele><time>2026-04-25T15:51:44.357Z</time></trkpt><trkpt lat="38.0638057" lon="12.6237517"><ele>19.0</ele><time>2026-04-25T15:51:45.356Z</time></trkpt><trkpt lat="38.0638684" lon="12.6239054"><ele>19.0</ele><time>2026-04-25T15:51:46.357Z</time></trkpt><trkpt lat="38.0639242" lon="12.6240564"><ele>19.0</ele><time>2026-04-25T15:51:47.356Z</time></trkpt><trkpt lat="38.0639655" lon="12.6242164"><ele>19.0</ele><time>2026-04-25T15:51:48.357Z</time></trkpt><trkpt lat="38.063995" lon="12.6243765"><ele>19.0</ele><time>2026-04-25T15:51:49.357Z</time></trkpt><trkpt lat="38.0640271" lon="12.6246821"><ele>19.0</ele><time>2026-04-25T15:51:51.358Z</time></trkpt><trkpt lat="38.0640136" lon="12.6248362"><ele>19.0</ele><time>2026-04-25T15:51:52.357Z</time></trkpt><trkpt lat="38.0640034" lon="12.6250052"><ele>19.0</ele><time>2026-04-25T15:51:53.357Z</time></trkpt><trkpt lat="38.063987" lon="12.6251594"><ele>19.0</ele><time>2026-04-25T15:51:54.357Z</time></trkpt><trkpt lat="38.063971" lon="12.6253241"><ele>18.666666666666664</ele><time>2026-04-25T15:51:55.357Z</time></trkpt><trkpt lat="38.0639615" lon="12.625498"><ele>18.333333333333332</ele><time>2026-04-25T15:51:56.357Z</time></trkpt><trkpt lat="38.0639523" lon="12.6256843"><ele>18.0</ele><time>2026-04-25T15:51:57.357Z</time></trkpt><trkpt lat="38.0639416" lon="12.6258978"><ele>18.0</ele><time>2026-04-25T15:51:58.357Z</time></trkpt><trkpt lat="38.0639235" lon="12.6261206"><ele>18.0</ele><time>2026-04-25T15:51:59.357Z</time></trkpt><trkpt lat="38.063897" lon="12.6263291"><ele>18.0</ele><time>2026-04-25T15:52:00.357Z</time></trkpt><trkpt lat="38.0638799" lon="12.6265123"><ele>19.0</ele><time>2026-04-25T15:52:01.356Z</time></trkpt><trkpt lat="38.063863" lon="12.6266878"><ele>20.0</ele><time>2026-04-25T15:52:02.357Z</time></trkpt><trkpt lat="38.0638535" lon="12.626856"><ele>21.0</ele><time>2026-04-25T15:52:03.357Z</time></trkpt><trkpt lat="38.0638495" lon="12.6270104"><ele>22.0</ele><time>2026-04-25T15:52:04.357Z</time></trkpt><trkpt lat="38.0638558" lon="12.6271521"><ele>22.8</ele><time>2026-04-25T15:52:05.357Z</time></trkpt><trkpt lat="38.0638822" lon="12.6272946"><ele>23.6</ele><time>2026-04-25T15:52:06.357Z</time></trkpt><trkpt lat="38.063919" lon="12.627431"><ele>24.400000000000002</ele><time>2026-04-25T15:52:07.357Z</time></trkpt><trkpt lat="38.0639598" lon="12.6275622"><ele>25.200000000000003</ele><time>2026-04-25T15:52:08.357Z</time></trkpt><trkpt lat="38.0639944" lon="12.6276915"><ele>26.0</ele><time>2026-04-25T15:52:09.357Z</time></trkpt><trkpt lat="38.0640317" lon="12.6278164"><ele>25.8</ele><time>2026-04-25T15:52:10.357Z</time></trkpt><trkpt lat="38.0640637" lon="12.62794"><ele>25.6</ele><time>2026-04-25T15:52:11.357Z</time></trkpt><trkpt lat="38.0640965" lon="12.6280571"><ele>25.4</ele><time>2026-04-25T15:52:12.357Z</time></trkpt><trkpt lat="38.0641296" lon="12.6281688"><ele>25.2</ele><time>2026-04-25T15:52:13.357Z</time></trkpt><trkpt lat="38.0641603" lon="12.6282778"><ele>25.0</ele><time>2026-04-25T15:52:14.357Z</time></trkpt><trkpt lat="38.0641935" lon="12.6283858"><ele>25.0</ele><time>2026-04-25T15:52:15.356Z</time></trkpt><trkpt lat="38.0642263" lon="12.6284962"><ele>25.0</ele><time>2026-04-25T15:52:16.357Z</time></trkpt><trkpt lat="38.0642573" lon="12.6286127"><ele>25.0</ele><time>2026-04-25T15:52:17.356Z</time></trkpt><trkpt lat="38.0642863" lon="12.6287244"><ele>25.0</ele><time>2026-04-25T15:52:18.356Z</time></trkpt><trkpt lat="38.0643109" lon="12.6288324"><ele>25.0</ele><time>2026-04-25T15:52:19.356Z</time></trkpt><trkpt lat="38.0643475" lon="12.6289498"><ele>25.0</ele><time>2026-04-25T15:52:20.357Z</time></trkpt><trkpt lat="38.0643776" lon="12.6290606"><ele>25.0</ele><time>2026-04-25T15:52:21.357Z</time></trkpt><trkpt lat="38.0644137" lon="12.6291698"><ele>25.0</ele><time>2026-04-25T15:52:22.357Z</time></trkpt><trkpt lat="38.0644428" lon="12.6292769"><ele>25.0</ele><time>2026-04-25T15:52:23.357Z</time></trkpt><trkpt lat="38.0644719" lon="12.6293796"><ele>25.0</ele><time>2026-04-25T15:52:24.357Z</time></trkpt><trkpt lat="38.0645041" lon="12.6294901"><ele>25.166666666666668</ele><time>2026-04-25T15:52:25.356Z</time></trkpt><trkpt lat="38.0645357" lon="12.6295954"><ele>25.333333333333336</ele><time>2026-04-25T15:52:26.357Z</time></trkpt><trkpt lat="38.0645633" lon="12.6296964"><ele>25.5</ele><time>2026-04-25T15:52:27.357Z</time></trkpt><trkpt lat="38.0645886" lon="12.629799"><ele>25.666666666666664</ele><time>2026-04-25T15:52:28.357Z</time></trkpt><trkpt lat="38.0646161" lon="12.6298851"><ele>25.833333333333332</ele><time>2026-04-25T15:52:29.358Z</time></trkpt><trkpt lat="38.0646517" lon="12.6300027"><ele>26.0</ele><time>2026-04-25T15:52:31.357Z</time></trkpt><trkpt lat="38.0646763" lon="12.6300797"><ele>25.999999999999996</ele><time>2026-04-25T15:52:35.358Z</time></trkpt><trkpt lat="38.0646986" lon="12.6301633"><ele>26.0</ele><time>2026-04-25T15:52:38.357Z</time></trkpt><trkpt lat="38.0647426" lon="12.6302776"><ele>26.0</ele><time>2026-04-25T15:52:40.358Z</time></trkpt><trkpt lat="38.0647747" lon="12.6303537"><ele>26.0</ele><time>2026-04-25T15:52:41.357Z</time></trkpt><trkpt lat="38.0647995" lon="12.630435"><ele>25.999999999999996</ele><time>2026-04-25T15:52:42.357Z</time></trkpt><trkpt lat="38.0648302" lon="12.6305295"><ele>26.0</ele><time>2026-04-25T15:52:43.357Z</time></trkpt><trkpt lat="38.0648624" lon="12.6306195"><ele>25.8</ele><time>2026-04-25T15:52:44.357Z</time></trkpt><trkpt lat="38.0648987" lon="12.6307216"><ele>25.6</ele><time>2026-04-25T15:52:45.357Z</time></trkpt><trkpt lat="38.0649422" lon="12.6308454"><ele>25.4</ele><time>2026-04-25T15:52:46.357Z</time></trkpt><trkpt lat="38.0649855" lon="12.630968"><ele>25.2</ele><time>2026-04-25T15:52:47.357Z</time></trkpt><trkpt lat="38.0650364" lon="12.6311033"><ele>25.0</ele><time>2026-04-25T15:52:48.357Z</time></trkpt><trkpt lat="38.065094" lon="12.6312461"><ele>24.666666666666668</ele><time>2026-04-25T15:52:49.357Z</time></trkpt><trkpt lat="38.0651637" lon="12.6314189"><ele>24.333333333333336</ele><time>2026-04-25T15:52:50.357Z</time></trkpt><trkpt lat="38.0652264" lon="12.6316229"><ele>24.0</ele><time>2026-04-25T15:52:51.357Z</time></trkpt><trkpt lat="38.0652986" lon="12.6318248"><ele>25.0</ele><time>2026-04-25T15:52:52.358Z</time></trkpt><trkpt lat="38.0653648" lon="12.6320424"><ele>26.0</ele><time>2026-04-25T15:52:53.357Z</time></trkpt><trkpt lat="38.0654375" lon="12.6322526"><ele>27.0</ele><time>2026-04-25T15:52:54.356Z</time></trkpt><trkpt lat="38.0655109" lon="12.6324557"><ele>27.0</ele><time>2026-04-25T15:52:55.357Z</time></trkpt><trkpt lat="38.065587" lon="12.6326489"><ele>27.0</ele><time>2026-04-25T15:52:56.356Z</time></trkpt><trkpt lat="38.0656488" lon="12.6328299"><ele>27.0</ele><time>2026-04-25T15:52:57.357Z</time></trkpt><trkpt lat="38.065711" lon="12.633014"><ele>27.0</ele><time>2026-04-25T15:52:58.357Z</time></trkpt><trkpt lat="38.0657761" lon="12.6332119"><ele>27.0</ele><time>2026-04-25T15:52:59.357Z</time></trkpt><trkpt lat="38.0658438" lon="12.6333947"><ele>27.0</ele><time>2026-04-25T15:53:00.357Z</time></trkpt><trkpt lat="38.0659074" lon="12.6335758"><ele>27.666666666666664</ele><time>2026-04-25T15:53:01.357Z</time></trkpt><trkpt lat="38.0659731" lon="12.6337654"><ele>28.333333333333332</ele><time>2026-04-25T15:53:02.358Z</time></trkpt><trkpt lat="38.0660471" lon="12.6339657"><ele>29.0</ele><time>2026-04-25T15:53:03.357Z</time></trkpt><trkpt lat="38.0661175" lon="12.6341749"><ele>29.0</ele><time>2026-04-25T15:53:04.358Z</time></trkpt><trkpt lat="38.0662037" lon="12.6344078"><ele>29.0</ele><time>2026-04-25T15:53:05.357Z</time></trkpt><trkpt lat="38.066298" lon="12.6346432"><ele>29.0</ele><time>2026-04-25T15:53:06.357Z</time></trkpt><trkpt lat="38.0663838" lon="12.634897"><ele>29.333333333333332</ele><time>2026-04-25T15:53:07.356Z</time></trkpt><trkpt lat="38.0664723" lon="12.6351559"><ele>29.666666666666664</ele><time>2026-04-25T15:53:08.357Z</time></trkpt><trkpt lat="38.0665597" lon="12.6354042"><ele>30.0</ele><time>2026-04-25T15:53:09.357Z</time></trkpt><trkpt lat="38.0666376" lon="12.6356504"><ele>29.333333333333336</ele><time>2026-04-25T15:53:10.357Z</time></trkpt><trkpt lat="38.0667174" lon="12.6358904"><ele>28.666666666666668</ele><time>2026-04-25T15:53:11.356Z</time></trkpt><trkpt lat="38.0667954" lon="12.6361257"><ele>28.0</ele><time>2026-04-25T15:53:12.357Z</time></trkpt><trkpt lat="38.0668779" lon="12.636368"><ele>28.0</ele><time>2026-04-25T15:53:13.358Z</time></trkpt><trkpt lat="38.0669601" lon="12.6365925"><ele>28.0</ele><time>2026-04-25T15:53:14.357Z</time></trkpt><trkpt lat="38.0670302" lon="12.6368112"><ele>28.0</ele><time>2026-04-25T15:53:15.356Z</time></trkpt><trkpt lat="38.0671055" lon="12.6370393"><ele>29.0</ele><time>2026-04-25T15:53:16.357Z</time></trkpt><trkpt lat="38.0671763" lon="12.6372579"><ele>30.0</ele><time>2026-04-25T15:53:17.357Z</time></trkpt><trkpt lat="38.0672534" lon="12.6374708"><ele>31.0</ele><time>2026-04-25T15:53:18.357Z</time></trkpt><trkpt lat="38.0673289" lon="12.6376826"><ele>32.66666666666667</ele><time>2026-04-25T15:53:19.358Z</time></trkpt><trkpt lat="38.0674031" lon="12.6378896"><ele>34.333333333333336</ele><time>2026-04-25T15:53:20.357Z</time></trkpt><trkpt lat="38.0674768" lon="12.6380961"><ele>36.0</ele><time>2026-04-25T15:53:21.358Z</time></trkpt><trkpt lat="38.0675493" lon="12.6382982"><ele>36.333333333333336</ele><time>2026-04-25T15:53:22.357Z</time></trkpt><trkpt lat="38.0676226" lon="12.6384964"><ele>36.66666666666667</ele><time>2026-04-25T15:53:23.358Z</time></trkpt><trkpt lat="38.0676893" lon="12.6386965"><ele>37.0</ele><time>2026-04-25T15:53:24.356Z</time></trkpt><trkpt lat="38.0677607" lon="12.6389009"><ele>37.333333333333336</ele><time>2026-04-25T15:53:25.357Z</time></trkpt><trkpt lat="38.0678345" lon="12.6391011"><ele>37.666666666666664</ele><time>2026-04-25T15:53:26.358Z</time></trkpt><trkpt lat="38.0679115" lon="12.6393058"><ele>38.0</ele><time>2026-04-25T15:53:27.357Z</time></trkpt><trkpt lat="38.0679901" lon="12.6395032"><ele>38.33333333333333</ele><time>2026-04-25T15:53:28.357Z</time></trkpt><trkpt lat="38.068064" lon="12.6397076"><ele>38.666666666666664</ele><time>2026-04-25T15:53:29.357Z</time></trkpt><trkpt lat="38.0681298" lon="12.6399033"><ele>39.0</ele><time>2026-04-25T15:53:30.357Z</time></trkpt><trkpt lat="38.0682025" lon="12.6400984"><ele>39.0</ele><time>2026-04-25T15:53:31.357Z</time></trkpt><trkpt lat="38.0682669" lon="12.6402874"><ele>39.0</ele><time>2026-04-25T15:53:32.357Z</time></trkpt><trkpt lat="38.0683335" lon="12.6404726"><ele>39.0</ele><time>2026-04-25T15:53:33.358Z</time></trkpt><trkpt lat="38.0684016" lon="12.6406638"><ele>39.0</ele><time>2026-04-25T15:53:34.357Z</time></trkpt><trkpt lat="38.0684709" lon="12.6408525"><ele>39.0</ele><time>2026-04-25T15:53:35.359Z</time></trkpt><trkpt lat="38.0685363" lon="12.6410426"><ele>39.0</ele><time>2026-04-25T15:53:36.357Z</time></trkpt><trkpt lat="38.0685991" lon="12.6412245"><ele>39.25</ele><time>2026-04-25T15:53:37.357Z</time></trkpt><trkpt lat="38.0686617" lon="12.6413997"><ele>39.5</ele><time>2026-04-25T15:53:38.359Z</time></trkpt><trkpt lat="38.0687174" lon="12.6415699"><ele>39.75</ele><time>2026-04-25T15:53:39.357Z</time></trkpt><trkpt lat="38.0687729" lon="12.6417253"><ele>40.0</ele><time>2026-04-25T15:53:40.358Z</time></trkpt><trkpt lat="38.0688195" lon="12.6418565"><ele>40.5</ele><time>2026-04-25T15:53:41.357Z</time></trkpt><trkpt lat="38.0688602" lon="12.6419796"><ele>41.0</ele><time>2026-04-25T15:53:42.357Z</time></trkpt><trkpt lat="38.0688989" lon="12.6420925"><ele>41.5</ele><time>2026-04-25T15:53:43.359Z</time></trkpt><trkpt lat="38.0689491" lon="12.6422318"><ele>42.0</ele><time>2026-04-25T15:53:44.357Z</time></trkpt><trkpt lat="38.0690018" lon="12.6423859"><ele>42.0</ele><time>2026-04-25T15:53:45.358Z</time></trkpt><trkpt lat="38.0690521" lon="12.642544"><ele>42.0</ele><time>2026-04-25T15:53:46.358Z</time></trkpt><trkpt lat="38.0691088" lon="12.6427158"><ele>42.0</ele><time>2026-04-25T15:53:47.358Z</time></trkpt><trkpt lat="38.0691735" lon="12.6428942"><ele>42.0</ele><time>2026-04-25T15:53:48.358Z</time></trkpt><trkpt lat="38.0692369" lon="12.6430813"><ele>41.333333333333336</ele><time>2026-04-25T15:53:49.358Z</time></trkpt><trkpt lat="38.0692971" lon="12.6432681"><ele>40.66666666666667</ele><time>2026-04-25T15:53:50.357Z</time></trkpt><trkpt lat="38.069364" lon="12.6434653"><ele>40.0</ele><time>2026-04-25T15:53:51.357Z</time></trkpt><trkpt lat="38.0694325" lon="12.6436621"><ele>40.0</ele><time>2026-04-25T15:53:52.357Z</time></trkpt><trkpt lat="38.0695059" lon="12.643866"><ele>40.0</ele><time>2026-04-25T15:53:53.357Z</time></trkpt><trkpt lat="38.0695839" lon="12.6440777"><ele>40.0</ele><time>2026-04-25T15:53:54.358Z</time></trkpt><trkpt lat="38.0696625" lon="12.6442852"><ele>40.333333333333336</ele><time>2026-04-25T15:53:55.357Z</time></trkpt><trkpt lat="38.0697418" lon="12.6444934"><ele>40.666666666666664</ele><time>2026-04-25T15:53:56.358Z</time></trkpt><trkpt lat="38.0698245" lon="12.6447072"><ele>41.0</ele><time>2026-04-25T15:53:57.358Z</time></trkpt><trkpt lat="38.069891" lon="12.6449168"><ele>40.666666666666664</ele><time>2026-04-25T15:53:58.357Z</time></trkpt><trkpt lat="38.0699615" lon="12.6451273"><ele>40.333333333333336</ele><time>2026-04-25T15:53:59.358Z</time></trkpt><trkpt lat="38.0700348" lon="12.6453398"><ele>40.0</ele><time>2026-04-25T15:54:00.358Z</time></trkpt><trkpt lat="38.070108" lon="12.6455598"><ele>40.0</ele><time>2026-04-25T15:54:01.356Z</time></trkpt><trkpt lat="38.0701863" lon="12.645776"><ele>40.0</ele><time>2026-04-25T15:54:02.358Z</time></trkpt><trkpt lat="38.0702552" lon="12.6459886"><ele>40.0</ele><time>2026-04-25T15:54:03.358Z</time></trkpt><trkpt lat="38.0703343" lon="12.6462013"><ele>40.66666666666667</ele><time>2026-04-25T15:54:04.358Z</time></trkpt><trkpt lat="38.0704071" lon="12.6464182"><ele>41.333333333333336</ele><time>2026-04-25T15:54:05.358Z</time></trkpt><trkpt lat="38.0704805" lon="12.646639"><ele>42.0</ele><time>2026-04-25T15:54:06.357Z</time></trkpt><trkpt lat="38.0705582" lon="12.6468586"><ele>41.333333333333336</ele><time>2026-04-25T15:54:07.357Z</time></trkpt><trkpt lat="38.0706321" lon="12.6470713"><ele>40.66666666666667</ele><time>2026-04-25T15:54:08.357Z</time></trkpt><trkpt lat="38.0707089" lon="12.6472802"><ele>40.0</ele><time>2026-04-25T15:54:09.357Z</time></trkpt><trkpt lat="38.0707752" lon="12.6474827"><ele>40.0</ele><time>2026-04-25T15:54:10.358Z</time></trkpt><trkpt lat="38.0708512" lon="12.6476866"><ele>40.0</ele><time>2026-04-25T15:54:11.357Z</time></trkpt><trkpt lat="38.070925" lon="12.6478811"><ele>40.0</ele><time>2026-04-25T15:54:12.358Z</time></trkpt><trkpt lat="38.0709927" lon="12.6480613"><ele>41.0</ele><time>2026-04-25T15:54:13.356Z</time></trkpt><trkpt lat="38.0710598" lon="12.6482349"><ele>42.0</ele><time>2026-04-25T15:54:14.357Z</time></trkpt><trkpt lat="38.0711237" lon="12.6484011"><ele>43.0</ele><time>2026-04-25T15:54:15.358Z</time></trkpt><trkpt lat="38.0711854" lon="12.6485563"><ele>44.0</ele><time>2026-04-25T15:54:16.358Z</time></trkpt><trkpt lat="38.0712398" lon="12.6487112"><ele>45.0</ele><time>2026-04-25T15:54:17.357Z</time></trkpt><trkpt lat="38.0712954" lon="12.6488606"><ele>46.0</ele><time>2026-04-25T15:54:18.358Z</time></trkpt><trkpt lat="38.0713508" lon="12.6490083"><ele>47.0</ele><time>2026-04-25T15:54:19.358Z</time></trkpt><trkpt lat="38.0713967" lon="12.6491536"><ele>48.0</ele><time>2026-04-25T15:54:20.357Z</time></trkpt><trkpt lat="38.0714509" lon="12.6492919"><ele>48.0</ele><time>2026-04-25T15:54:21.357Z</time></trkpt><trkpt lat="38.0715048" lon="12.6494326"><ele>48.0</ele><time>2026-04-25T15:54:22.357Z</time></trkpt><trkpt lat="38.0715558" lon="12.6495777"><ele>48.0</ele><time>2026-04-25T15:54:23.356Z</time></trkpt><trkpt lat="38.0716048" lon="12.6497232"><ele>48.0</ele><time>2026-04-25T15:54:24.358Z</time></trkpt><trkpt lat="38.0716614" lon="12.6498592"><ele>47.25</ele><time>2026-04-25T15:54:25.357Z</time></trkpt><trkpt lat="38.0717106" lon="12.6499879"><ele>46.5</ele><time>2026-04-25T15:54:26.358Z</time></trkpt><trkpt lat="38.0717556" lon="12.6501267"><ele>45.75</ele><time>2026-04-25T15:54:27.358Z</time></trkpt><trkpt lat="38.071799" lon="12.6502638"><ele>45.0</ele><time>2026-04-25T15:54:28.358Z</time></trkpt><trkpt lat="38.0718484" lon="12.650389"><ele>45.0</ele><time>2026-04-25T15:54:29.358Z</time></trkpt><trkpt lat="38.0718941" lon="12.6505095"><ele>45.0</ele><time>2026-04-25T15:54:30.356Z</time></trkpt><trkpt lat="38.0719359" lon="12.6506312"><ele>45.0</ele><time>2026-04-25T15:54:31.357Z</time></trkpt><trkpt lat="38.0719751" lon="12.6507543"><ele>45.0</ele><time>2026-04-25T15:54:32.358Z</time></trkpt><trkpt lat="38.0720168" lon="12.6508706"><ele>45.0</ele><time>2026-04-25T15:54:33.357Z</time></trkpt><trkpt lat="38.0720604" lon="12.6509886"><ele>45.0</ele><time>2026-04-25T15:54:34.358Z</time></trkpt><trkpt lat="38.0721" lon="12.6511108"><ele>45.0</ele><time>2026-04-25T15:54:35.357Z</time></trkpt><trkpt lat="38.0721467" lon="12.6512383"><ele>45.0</ele><time>2026-04-25T15:54:36.358Z</time></trkpt><trkpt lat="38.0721994" lon="12.6513631"><ele>45.0</ele><time>2026-04-25T15:54:37.357Z</time></trkpt><trkpt lat="38.0722452" lon="12.6514849"><ele>45.0</ele><time>2026-04-25T15:54:38.359Z</time></trkpt><trkpt lat="38.0722934" lon="12.6516112"><ele>43.4</ele><time>2026-04-25T15:54:39.357Z</time></trkpt><trkpt lat="38.07234" lon="12.6517334"><ele>41.8</ele><time>2026-04-25T15:54:40.357Z</time></trkpt><trkpt lat="38.0723837" lon="12.6518425"><ele>40.2</ele><time>2026-04-25T15:54:41.357Z</time></trkpt><trkpt lat="38.0724274" lon="12.6519542"><ele>38.6</ele><time>2026-04-25T15:54:42.357Z</time></trkpt><trkpt lat="38.0724667" lon="12.6520633"><ele>37.0</ele><time>2026-04-25T15:54:43.358Z</time></trkpt><trkpt lat="38.0724974" lon="12.6521587"><ele>35.0</ele><time>2026-04-25T15:54:44.356Z</time></trkpt><trkpt lat="38.0725394" lon="12.6522688"><ele>33.0</ele><time>2026-04-25T15:54:45.357Z</time></trkpt><trkpt lat="38.0725807" lon="12.6523855"><ele>31.000000000000004</ele><time>2026-04-25T15:54:46.357Z</time></trkpt><trkpt lat="38.0726222" lon="12.6524974"><ele>29.0</ele><time>2026-04-25T15:54:47.358Z</time></trkpt><trkpt lat="38.072658" lon="12.6526026"><ele>27.0</ele><time>2026-04-25T15:54:48.357Z</time></trkpt><trkpt lat="38.0726914" lon="12.6527169"><ele>29.0</ele><time>2026-04-25T15:54:49.358Z</time></trkpt><trkpt lat="38.0727273" lon="12.6528441"><ele>31.0</ele><time>2026-04-25T15:54:50.358Z</time></trkpt><trkpt lat="38.0727713" lon="12.6529842"><ele>33.0</ele><time>2026-04-25T15:54:51.358Z</time></trkpt><trkpt lat="38.0728262" lon="12.6531412"><ele>35.0</ele><time>2026-04-25T15:54:52.358Z</time></trkpt><trkpt lat="38.0728856" lon="12.653292"><ele>35.0</ele><time>2026-04-25T15:54:53.358Z</time></trkpt><trkpt lat="38.0729458" lon="12.6534561"><ele>35.0</ele><time>2026-04-25T15:54:54.357Z</time></trkpt><trkpt lat="38.0730134" lon="12.6536309"><ele>35.0</ele><time>2026-04-25T15:54:55.358Z</time></trkpt><trkpt lat="38.0730799" lon="12.6538121"><ele>37.666666666666664</ele><time>2026-04-25T15:54:56.358Z</time></trkpt><trkpt lat="38.0731392" lon="12.6540041"><ele>40.333333333333336</ele><time>2026-04-25T15:54:57.357Z</time></trkpt><trkpt lat="38.0731858" lon="12.6541922"><ele>43.0</ele><time>2026-04-25T15:54:58.356Z</time></trkpt><trkpt lat="38.0732137" lon="12.6543924"><ele>45.333333333333336</ele><time>2026-04-25T15:54:59.358Z</time></trkpt><trkpt lat="38.0732279" lon="12.6546001"><ele>47.66666666666667</ele><time>2026-04-25T15:55:00.358Z</time></trkpt><trkpt lat="38.0732252" lon="12.6548023"><ele>50.0</ele><time>2026-04-25T15:55:01.356Z</time></trkpt><trkpt lat="38.0731953" lon="12.6550026"><ele>50.0</ele><time>2026-04-25T15:55:02.357Z</time></trkpt><trkpt lat="38.0731544" lon="12.65521"><ele>50.0</ele><time>2026-04-25T15:55:03.357Z</time></trkpt><trkpt lat="38.0731033" lon="12.6554033"><ele>50.0</ele><time>2026-04-25T15:55:04.357Z</time></trkpt><trkpt lat="38.0730339" lon="12.6555925"><ele>50.333333333333336</ele><time>2026-04-25T15:55:05.357Z</time></trkpt><trkpt lat="38.0729623" lon="12.655784"><ele>50.66666666666667</ele><time>2026-04-25T15:55:06.357Z</time></trkpt><trkpt lat="38.0728923" lon="12.6559746"><ele>51.0</ele><time>2026-04-25T15:55:07.358Z</time></trkpt><trkpt lat="38.0728226" lon="12.6561623"><ele>51.66666666666667</ele><time>2026-04-25T15:55:08.357Z</time></trkpt><trkpt lat="38.0727506" lon="12.6563489"><ele>52.333333333333336</ele><time>2026-04-25T15:55:09.357Z</time></trkpt><trkpt lat="38.07268" lon="12.6565336"><ele>53.0</ele><time>2026-04-25T15:55:10.359Z</time></trkpt><trkpt lat="38.072612" lon="12.6567241"><ele>53.0</ele><time>2026-04-25T15:55:11.358Z</time></trkpt><trkpt lat="38.0725352" lon="12.6569119"><ele>53.0</ele><time>2026-04-25T15:55:12.357Z</time></trkpt><trkpt lat="38.0724633" lon="12.6570949"><ele>53.0</ele><time>2026-04-25T15:55:13.357Z</time></trkpt><trkpt lat="38.0723901" lon="12.6572858"><ele>54.66666666666667</ele><time>2026-04-25T15:55:14.358Z</time></trkpt><trkpt lat="38.0723152" lon="12.6574757"><ele>56.33333333333333</ele><time>2026-04-25T15:55:15.357Z</time></trkpt><trkpt lat="38.0722422" lon="12.6576677"><ele>58.0</ele><time>2026-04-25T15:55:16.359Z</time></trkpt><trkpt lat="38.0721645" lon="12.6578615"><ele>59.666666666666664</ele><time>2026-04-25T15:55:17.359Z</time></trkpt><trkpt lat="38.0720902" lon="12.6580624"><ele>61.33333333333333</ele><time>2026-04-25T15:55:18.358Z</time></trkpt><trkpt lat="38.0720144" lon="12.658258"><ele>63.0</ele><time>2026-04-25T15:55:19.357Z</time></trkpt><trkpt lat="38.0719406" lon="12.658454"><ele>64.0</ele><time>2026-04-25T15:55:20.357Z</time></trkpt><trkpt lat="38.0718681" lon="12.6586509"><ele>65.0</ele><time>2026-04-25T15:55:21.357Z</time></trkpt><trkpt lat="38.0717912" lon="12.6588525"><ele>66.0</ele><time>2026-04-25T15:55:22.356Z</time></trkpt><trkpt lat="38.0717153" lon="12.6590548"><ele>66.0</ele><time>2026-04-25T15:55:23.358Z</time></trkpt><trkpt lat="38.0716356" lon="12.6592646"><ele>66.0</ele><time>2026-04-25T15:55:24.358Z</time></trkpt><trkpt lat="38.0715598" lon="12.6594703"><ele>66.0</ele><time>2026-04-25T15:55:25.357Z</time></trkpt><trkpt lat="38.0714744" lon="12.6596726"><ele>66.33333333333333</ele><time>2026-04-25T15:55:26.358Z</time></trkpt><trkpt lat="38.0713991" lon="12.6598808"><ele>66.66666666666666</ele><time>2026-04-25T15:55:27.358Z</time></trkpt><trkpt lat="38.0713233" lon="12.6600786"><ele>67.0</ele><time>2026-04-25T15:55:28.357Z</time></trkpt><trkpt lat="38.0712518" lon="12.6602866"><ele>69.0</ele><time>2026-04-25T15:55:29.358Z</time></trkpt><trkpt lat="38.0711882" lon="12.6604896"><ele>71.0</ele><time>2026-04-25T15:55:30.358Z</time></trkpt><trkpt lat="38.071138" lon="12.6606947"><ele>73.0</ele><time>2026-04-25T15:55:31.358Z</time></trkpt><trkpt lat="38.0710928" lon="12.6609018"><ele>75.0</ele><time>2026-04-25T15:55:32.357Z</time></trkpt><trkpt lat="38.0710703" lon="12.6611161"><ele>77.0</ele><time>2026-04-25T15:55:33.357Z</time></trkpt><trkpt lat="38.0710611" lon="12.6613322"><ele>79.0</ele><time>2026-04-25T15:55:34.358Z</time></trkpt><trkpt lat="38.0710671" lon="12.6615492"><ele>79.0</ele><time>2026-04-25T15:55:35.358Z</time></trkpt><trkpt lat="38.0710957" lon="12.6617677"><ele>79.0</ele><time>2026-04-25T15:55:36.356Z</time></trkpt><trkpt lat="38.0711368" lon="12.6619814"><ele>79.0</ele><time>2026-04-25T15:55:37.358Z</time></trkpt><trkpt lat="38.0711917" lon="12.6621895"><ele>79.66666666666666</ele><time>2026-04-25T15:55:38.358Z</time></trkpt><trkpt lat="38.071264" lon="12.66239"><ele>80.33333333333333</ele><time>2026-04-25T15:55:39.357Z</time></trkpt><trkpt lat="38.0713442" lon="12.6625755"><ele>81.0</ele><time>2026-04-25T15:55:40.357Z</time></trkpt><trkpt lat="38.0714336" lon="12.6627494"><ele>81.33333333333333</ele><time>2026-04-25T15:55:41.358Z</time></trkpt><trkpt lat="38.0715259" lon="12.6629192"><ele>81.66666666666666</ele><time>2026-04-25T15:55:42.357Z</time></trkpt><trkpt lat="38.0716227" lon="12.6630865"><ele>82.0</ele><time>2026-04-25T15:55:43.357Z</time></trkpt><trkpt lat="38.0717168" lon="12.6632522"><ele>82.0</ele><time>2026-04-25T15:55:44.357Z</time></trkpt><trkpt lat="38.0718114" lon="12.663414"><ele>82.0</ele><time>2026-04-25T15:55:45.358Z</time></trkpt><trkpt lat="38.0719001" lon="12.6635719"><ele>82.0</ele><time>2026-04-25T15:55:46.357Z</time></trkpt><trkpt lat="38.0719852" lon="12.6637212"><ele>82.75</ele><time>2026-04-25T15:55:47.358Z</time></trkpt><trkpt lat="38.0720704" lon="12.6638703"><ele>83.5</ele><time>2026-04-25T15:55:48.358Z</time></trkpt><trkpt lat="38.0721482" lon="12.6640209"><ele>84.25</ele><time>2026-04-25T15:55:49.358Z</time></trkpt><trkpt lat="38.0722282" lon="12.6641632"><ele>85.0</ele><time>2026-04-25T15:55:50.358Z</time></trkpt><trkpt lat="38.0723001" lon="12.6642981"><ele>85.0</ele><time>2026-04-25T15:55:51.357Z</time></trkpt><trkpt lat="38.0723678" lon="12.6644396"><ele>85.0</ele><time>2026-04-25T15:55:52.358Z</time></trkpt><trkpt lat="38.0724318" lon="12.66458"><ele>85.0</ele><time>2026-04-25T15:55:53.358Z</time></trkpt><trkpt lat="38.0724889" lon="12.6647243"><ele>85.0</ele><time>2026-04-25T15:55:54.358Z</time></trkpt><trkpt lat="38.0725417" lon="12.6648716"><ele>85.0</ele><time>2026-04-25T15:55:55.357Z</time></trkpt><trkpt lat="38.072589" lon="12.6650035"><ele>85.0</ele><time>2026-04-25T15:55:56.358Z</time></trkpt><trkpt lat="38.0726235" lon="12.6651274"><ele>85.0</ele><time>2026-04-25T15:55:57.357Z</time></trkpt><trkpt lat="38.0726424" lon="12.6652367"><ele>85.0</ele><time>2026-04-25T15:55:58.358Z</time></trkpt><trkpt lat="38.0726593" lon="12.6653276"><ele>85.0</ele><time>2026-04-25T15:55:59.358Z</time></trkpt><trkpt lat="38.072683" lon="12.6654549"><ele>85.8</ele><time>2026-04-25T15:56:01.359Z</time></trkpt><trkpt lat="38.0726987" lon="12.6655594"><ele>86.6</ele><time>2026-04-25T15:56:05.357Z</time></trkpt><trkpt lat="38.0727219" lon="12.6656438"><ele>87.4</ele><time>2026-04-25T15:56:07.36Z</time></trkpt><trkpt lat="38.0728102" lon="12.6657106"><ele>88.2</ele><time>2026-04-25T15:56:09.358Z</time></trkpt><trkpt lat="38.0728954" lon="12.6658277"><ele>89.0</ele><time>2026-04-25T15:56:11.357Z</time></trkpt><trkpt lat="38.0729445" lon="12.665922"><ele>89.0</ele><time>2026-04-25T15:56:12.357Z</time></trkpt><trkpt lat="38.0729972" lon="12.6660352"><ele>89.0</ele><time>2026-04-25T15:56:13.356Z</time></trkpt><trkpt lat="38.0730493" lon="12.6661584"><ele>89.0</ele><time>2026-04-25T15:56:14.358Z</time></trkpt><trkpt lat="38.0731074" lon="12.6662966"><ele>89.0</ele><time>2026-04-25T15:56:15.357Z</time></trkpt><trkpt lat="38.0731661" lon="12.6664469"><ele>89.0</ele><time>2026-04-25T15:56:16.357Z</time></trkpt><trkpt lat="38.0732188" lon="12.6666087"><ele>89.0</ele><time>2026-04-25T15:56:17.358Z</time></trkpt><trkpt lat="38.0732744" lon="12.6667749"><ele>89.0</ele><time>2026-04-25T15:56:18.357Z</time></trkpt><trkpt lat="38.0733353" lon="12.6669389"><ele>89.0</ele><time>2026-04-25T15:56:19.358Z</time></trkpt><trkpt lat="38.0733872" lon="12.66712"><ele>89.0</ele><time>2026-04-25T15:56:20.358Z</time></trkpt><trkpt lat="38.0734284" lon="12.6673123"><ele>89.0</ele><time>2026-04-25T15:56:21.357Z</time></trkpt><trkpt lat="38.0734719" lon="12.6675126"><ele>89.0</ele><time>2026-04-25T15:56:22.358Z</time></trkpt><trkpt lat="38.0735006" lon="12.6677322"><ele>91.0</ele><time>2026-04-25T15:56:23.358Z</time></trkpt><trkpt lat="38.0735258" lon="12.6679609"><ele>93.0</ele><time>2026-04-25T15:56:24.357Z</time></trkpt><trkpt lat="38.0735499" lon="12.6681837"><ele>95.0</ele><time>2026-04-25T15:56:25.358Z</time></trkpt><trkpt lat="38.0735714" lon="12.6684151"><ele>96.33333333333334</ele><time>2026-04-25T15:56:26.357Z</time></trkpt><trkpt lat="38.0735932" lon="12.6686454"><ele>97.66666666666667</ele><time>2026-04-25T15:56:27.357Z</time></trkpt><trkpt lat="38.0736088" lon="12.6688726"><ele>99.0</ele><time>2026-04-25T15:56:28.357Z</time></trkpt><trkpt lat="38.0736173" lon="12.6691115"><ele>99.0</ele><time>2026-04-25T15:56:29.358Z</time></trkpt><trkpt lat="38.0736147" lon="12.6693464"><ele>99.0</ele><time>2026-04-25T15:56:30.358Z</time></trkpt><trkpt lat="38.073598" lon="12.6695796"><ele>99.0</ele><time>2026-04-25T15:56:31.358Z</time></trkpt><trkpt lat="38.0735903" lon="12.6698151"><ele>100.0</ele><time>2026-04-25T15:56:32.358Z</time></trkpt><trkpt lat="38.0735899" lon="12.6700495"><ele>101.0</ele><time>2026-04-25T15:56:33.358Z</time></trkpt><trkpt lat="38.0735988" lon="12.6702817"><ele>102.0</ele><time>2026-04-25T15:56:34.358Z</time></trkpt><trkpt lat="38.0736164" lon="12.6705147"><ele>103.66666666666666</ele><time>2026-04-25T15:56:35.357Z</time></trkpt><trkpt lat="38.0736424" lon="12.6707332"><ele>105.33333333333333</ele><time>2026-04-25T15:56:36.358Z</time></trkpt><trkpt lat="38.0736791" lon="12.6709473"><ele>107.0</ele><time>2026-04-25T15:56:37.358Z</time></trkpt><trkpt lat="38.0737338" lon="12.6711581"><ele>111.0</ele><time>2026-04-25T15:56:38.358Z</time></trkpt><trkpt lat="38.073806" lon="12.6713657"><ele>115.0</ele><time>2026-04-25T15:56:39.358Z</time></trkpt><trkpt lat="38.073887" lon="12.6715664"><ele>119.0</ele><time>2026-04-25T15:56:40.358Z</time></trkpt><trkpt lat="38.0739661" lon="12.6717545"><ele>119.0</ele><time>2026-04-25T15:56:41.356Z</time></trkpt><trkpt lat="38.0740334" lon="12.6719214"><ele>119.0</ele><time>2026-04-25T15:56:42.358Z</time></trkpt><trkpt lat="38.0741115" lon="12.6720567"><ele>119.0</ele><time>2026-04-25T15:56:43.358Z</time></trkpt><trkpt lat="38.0742015" lon="12.6721567"><ele>119.0</ele><time>2026-04-25T15:56:44.358Z</time></trkpt><trkpt lat="38.0742867" lon="12.6722326"><ele>118.6</ele><time>2026-04-25T15:56:45.358Z</time></trkpt><trkpt lat="38.0743644" lon="12.6722989"><ele>118.2</ele><time>2026-04-25T15:56:46.358Z</time></trkpt><trkpt lat="38.0744224" lon="12.6723547"><ele>117.79999999999998</ele><time>2026-04-25T15:56:47.358Z</time></trkpt><trkpt lat="38.0744934" lon="12.6724615"><ele>117.39999999999999</ele><time>2026-04-25T15:56:49.358Z</time></trkpt><trkpt lat="38.0745035" lon="12.6726296"><ele>117.0</ele><time>2026-04-25T15:56:51.358Z</time></trkpt><trkpt lat="38.0745022" lon="12.6727492"><ele>118.75</ele><time>2026-04-25T15:56:52.358Z</time></trkpt><trkpt lat="38.0745032" lon="12.6728891"><ele>120.5</ele><time>2026-04-25T15:56:53.358Z</time></trkpt><trkpt lat="38.0745072" lon="12.673044"><ele>122.25</ele><time>2026-04-25T15:56:54.358Z</time></trkpt><trkpt lat="38.074522" lon="12.6732116"><ele>124.0</ele><time>2026-04-25T15:56:55.358Z</time></trkpt><trkpt lat="38.0745581" lon="12.6733767"><ele>124.0</ele><time>2026-04-25T15:56:56.356Z</time></trkpt><trkpt lat="38.0746119" lon="12.6735572"><ele>124.0</ele><time>2026-04-25T15:56:57.359Z</time></trkpt><trkpt lat="38.0746792" lon="12.6737547"><ele>124.0</ele><time>2026-04-25T15:56:58.358Z</time></trkpt><trkpt lat="38.0747597" lon="12.6739563"><ele>124.66666666666667</ele><time>2026-04-25T15:56:59.358Z</time></trkpt><trkpt lat="38.0748439" lon="12.6741564"><ele>125.33333333333334</ele><time>2026-04-25T15:57:00.358Z</time></trkpt><trkpt lat="38.0749382" lon="12.6743566"><ele>126.0</ele><time>2026-04-25T15:57:01.358Z</time></trkpt><trkpt lat="38.0750258" lon="12.6745655"><ele>127.33333333333334</ele><time>2026-04-25T15:57:02.358Z</time></trkpt><trkpt lat="38.075108" lon="12.6747609"><ele>128.66666666666669</ele><time>2026-04-25T15:57:03.358Z</time></trkpt><trkpt lat="38.0751923" lon="12.6749289"><ele>130.0</ele><time>2026-04-25T15:57:04.357Z</time></trkpt><trkpt lat="38.0752638" lon="12.6750858"><ele>130.0</ele><time>2026-04-25T15:57:05.358Z</time></trkpt><trkpt lat="38.0753213" lon="12.6752217"><ele>130.0</ele><time>2026-04-25T15:57:06.358Z</time></trkpt><trkpt lat="38.0753628" lon="12.675343"><ele>130.0</ele><time>2026-04-25T15:57:07.358Z</time></trkpt><trkpt lat="38.075396" lon="12.6754502"><ele>130.0</ele><time>2026-04-25T15:57:08.357Z</time></trkpt><trkpt lat="38.075395" lon="12.6755701"><ele>130.0</ele><time>2026-04-25T15:57:09.357Z</time></trkpt><trkpt lat="38.0753731" lon="12.6756999"><ele>130.75</ele><time>2026-04-25T15:57:10.359Z</time></trkpt><trkpt lat="38.0753442" lon="12.6758523"><ele>131.5</ele><time>2026-04-25T15:57:11.358Z</time></trkpt><trkpt lat="38.0752952" lon="12.6760348"><ele>132.25</ele><time>2026-04-25T15:57:12.358Z</time></trkpt><trkpt lat="38.0752417" lon="12.6762221"><ele>133.0</ele><time>2026-04-25T15:57:13.358Z</time></trkpt><trkpt lat="38.0751889" lon="12.6764331"><ele>134.33333333333334</ele><time>2026-04-25T15:57:14.358Z</time></trkpt><trkpt lat="38.075131" lon="12.67664"><ele>135.66666666666666</ele><time>2026-04-25T15:57:15.358Z</time></trkpt><trkpt lat="38.0750774" lon="12.6768425"><ele>137.0</ele><time>2026-04-25T15:57:16.358Z</time></trkpt><trkpt lat="38.0750253" lon="12.677024"><ele>139.66666666666666</ele><time>2026-04-25T15:57:17.358Z</time></trkpt><trkpt lat="38.0749899" lon="12.6772086"><ele>142.33333333333334</ele><time>2026-04-25T15:57:18.358Z</time></trkpt><trkpt lat="38.0749726" lon="12.6774049"><ele>145.0</ele><time>2026-04-25T15:57:19.358Z</time></trkpt><trkpt lat="38.0749757" lon="12.6776109"><ele>146.66666666666669</ele><time>2026-04-25T15:57:20.358Z</time></trkpt><trkpt lat="38.074987" lon="12.6778211"><ele>148.33333333333334</ele><time>2026-04-25T15:57:21.358Z</time></trkpt><trkpt lat="38.0750032" lon="12.6780251"><ele>150.0</ele><time>2026-04-25T15:57:22.358Z</time></trkpt><trkpt lat="38.0750223" lon="12.6782273"><ele>150.0</ele><time>2026-04-25T15:57:23.358Z</time></trkpt><trkpt lat="38.075044" lon="12.6784421"><ele>150.0</ele><time>2026-04-25T15:57:24.358Z</time></trkpt><trkpt lat="38.0750747" lon="12.6786538"><ele>150.0</ele><time>2026-04-25T15:57:25.358Z</time></trkpt><trkpt lat="38.0751032" lon="12.6788538"><ele>151.33333333333334</ele><time>2026-04-25T15:57:26.357Z</time></trkpt><trkpt lat="38.0751206" lon="12.6790615"><ele>152.66666666666669</ele><time>2026-04-25T15:57:27.358Z</time></trkpt><trkpt lat="38.075125" lon="12.6792582"><ele>154.0</ele><time>2026-04-25T15:57:28.357Z</time></trkpt><trkpt lat="38.0751305" lon="12.6794507"><ele>154.75</ele><time>2026-04-25T15:57:29.358Z</time></trkpt><trkpt lat="38.0751389" lon="12.6796408"><ele>155.5</ele><time>2026-04-25T15:57:30.358Z</time></trkpt><trkpt lat="38.0751456" lon="12.6798286"><ele>156.25</ele><time>2026-04-25T15:57:31.358Z</time></trkpt><trkpt lat="38.0751517" lon="12.6800127"><ele>157.0</ele><time>2026-04-25T15:57:32.358Z</time></trkpt><trkpt lat="38.0751619" lon="12.6801982"><ele>158.5</ele><time>2026-04-25T15:57:33.358Z</time></trkpt><trkpt lat="38.0751742" lon="12.6803808"><ele>160.0</ele><time>2026-04-25T15:57:34.357Z</time></trkpt><trkpt lat="38.075201" lon="12.6805563"><ele>161.5</ele><time>2026-04-25T15:57:35.358Z</time></trkpt><trkpt lat="38.0752372" lon="12.6807158"><ele>163.0</ele><time>2026-04-25T15:57:36.357Z</time></trkpt><trkpt lat="38.0752858" lon="12.6808817"><ele>163.0</ele><time>2026-04-25T15:57:37.358Z</time></trkpt><trkpt lat="38.0753395" lon="12.6810434"><ele>163.0</ele><time>2026-04-25T15:57:38.358Z</time></trkpt><trkpt lat="38.0753931" lon="12.6811983"><ele>163.0</ele><time>2026-04-25T15:57:39.358Z</time></trkpt><trkpt lat="38.0754441" lon="12.6813359"><ele>163.0</ele><time>2026-04-25T15:57:40.358Z</time></trkpt><trkpt lat="38.0754868" lon="12.6814566"><ele>163.60000000000002</ele><time>2026-04-25T15:57:41.358Z</time></trkpt><trkpt lat="38.0755165" lon="12.6815685"><ele>164.20000000000002</ele><time>2026-04-25T15:57:42.358Z</time></trkpt><trkpt lat="38.0755405" lon="12.6816488"><ele>164.8</ele><time>2026-04-25T15:57:43.358Z</time></trkpt><trkpt lat="38.0755199" lon="12.6817394"><ele>165.4</ele><time>2026-04-25T15:57:45.359Z</time></trkpt><trkpt lat="38.075427" lon="12.6818266"><ele>166.0</ele><time>2026-04-25T15:57:47.358Z</time></trkpt><trkpt lat="38.0753488" lon="12.6819627"><ele>167.4</ele><time>2026-04-25T15:57:49.358Z</time></trkpt><trkpt lat="38.0753355" lon="12.6820747"><ele>168.8</ele><time>2026-04-25T15:57:50.359Z</time></trkpt><trkpt lat="38.0753519" lon="12.6822095"><ele>170.20000000000002</ele><time>2026-04-25T15:57:51.357Z</time></trkpt><trkpt lat="38.0753747" lon="12.6823509"><ele>171.60000000000002</ele><time>2026-04-25T15:57:52.358Z</time></trkpt><trkpt lat="38.0754024" lon="12.6825036"><ele>173.0</ele><time>2026-04-25T15:57:53.359Z</time></trkpt><trkpt lat="38.0754325" lon="12.6826616"><ele>174.25</ele><time>2026-04-25T15:57:54.358Z</time></trkpt><trkpt lat="38.0754661" lon="12.6828304"><ele>175.5</ele><time>2026-04-25T15:57:55.358Z</time></trkpt><trkpt lat="38.0755042" lon="12.6830008"><ele>176.75</ele><time>2026-04-25T15:57:56.358Z</time></trkpt><trkpt lat="38.0755359" lon="12.6831838"><ele>178.0</ele><time>2026-04-25T15:57:57.358Z</time></trkpt><trkpt lat="38.0755715" lon="12.6833766"><ele>178.0</ele><time>2026-04-25T15:57:58.358Z</time></trkpt><trkpt lat="38.0756026" lon="12.6835505"><ele>178.0</ele><time>2026-04-25T15:57:59.357Z</time></trkpt><trkpt lat="38.075635" lon="12.6837331"><ele>178.0</ele><time>2026-04-25T15:58:00.358Z</time></trkpt><trkpt lat="38.0756722" lon="12.6839109"><ele>178.0</ele><time>2026-04-25T15:58:01.358Z</time></trkpt><trkpt lat="38.0757077" lon="12.6840888"><ele>179.5</ele><time>2026-04-25T15:58:02.357Z</time></trkpt><trkpt lat="38.075738" lon="12.6842612"><ele>181.0</ele><time>2026-04-25T15:58:03.358Z</time></trkpt><trkpt lat="38.0757632" lon="12.6844303"><ele>182.5</ele><time>2026-04-25T15:58:04.358Z</time></trkpt><trkpt lat="38.0757922" lon="12.6845986"><ele>184.0</ele><time>2026-04-25T15:58:05.357Z</time></trkpt><trkpt lat="38.0758262" lon="12.6847518"><ele>184.16666666666669</ele><time>2026-04-25T15:58:06.358Z</time></trkpt><trkpt lat="38.0758522" lon="12.68489"><ele>184.33333333333334</ele><time>2026-04-25T15:58:07.358Z</time></trkpt><trkpt lat="38.0758656" lon="12.6850098"><ele>184.5</ele><time>2026-04-25T15:58:08.358Z</time></trkpt><trkpt lat="38.07588" lon="12.6851304"><ele>184.66666666666666</ele><time>2026-04-25T15:58:09.359Z</time></trkpt><trkpt lat="38.0758678" lon="12.6852092"><ele>184.83333333333331</ele><time>2026-04-25T15:58:10.359Z</time></trkpt><trkpt lat="38.0758411" lon="12.6852849"><ele>185.0</ele><time>2026-04-25T15:58:11.357Z</time></trkpt><trkpt lat="38.0757946" lon="12.6853548"><ele>186.16666666666666</ele><time>2026-04-25T15:58:12.358Z</time></trkpt><trkpt lat="38.0757427" lon="12.685435"><ele>187.33333333333331</ele><time>2026-04-25T15:58:13.358Z</time></trkpt><trkpt lat="38.0756801" lon="12.6854958"><ele>188.5</ele><time>2026-04-25T15:58:14.358Z</time></trkpt><trkpt lat="38.0756134" lon="12.6855386"><ele>189.66666666666666</ele><time>2026-04-25T15:58:15.358Z</time></trkpt><trkpt lat="38.0755283" lon="12.685603"><ele>190.83333333333334</ele><time>2026-04-25T15:58:17.359Z</time></trkpt><trkpt lat="38.0755062" lon="12.6857117"><ele>192.0</ele><time>2026-04-25T15:58:19.358Z</time></trkpt><trkpt lat="38.0755127" lon="12.6858095"><ele>192.0</ele><time>2026-04-25T15:58:20.358Z</time></trkpt><trkpt lat="38.0755116" lon="12.6859144"><ele>192.0</ele><time>2026-04-25T15:58:21.358Z</time></trkpt><trkpt lat="38.0755096" lon="12.6860389"><ele>192.0</ele><time>2026-04-25T15:58:22.358Z</time></trkpt><trkpt lat="38.0755059" lon="12.6861813"><ele>192.0</ele><time>2026-04-25T15:58:23.359Z</time></trkpt><trkpt lat="38.0754979" lon="12.6863357"><ele>192.0</ele><time>2026-04-25T15:58:24.358Z</time></trkpt><trkpt lat="38.0754917" lon="12.6864965"><ele>192.75</ele><time>2026-04-25T15:58:25.358Z</time></trkpt><trkpt lat="38.0754835" lon="12.6866525"><ele>193.5</ele><time>2026-04-25T15:58:26.358Z</time></trkpt><trkpt lat="38.0754807" lon="12.6868153"><ele>194.25</ele><time>2026-04-25T15:58:27.358Z</time></trkpt><trkpt lat="38.07548" lon="12.6869862"><ele>195.0</ele><time>2026-04-25T15:58:28.357Z</time></trkpt><trkpt lat="38.0754719" lon="12.68716"><ele>196.0</ele><time>2026-04-25T15:58:29.358Z</time></trkpt><trkpt lat="38.0754642" lon="12.687337"><ele>197.0</ele><time>2026-04-25T15:58:30.358Z</time></trkpt><trkpt lat="38.0754636" lon="12.6875146"><ele>198.0</ele><time>2026-04-25T15:58:31.358Z</time></trkpt><trkpt lat="38.07546" lon="12.6876877"><ele>199.0</ele><time>2026-04-25T15:58:32.359Z</time></trkpt><trkpt lat="38.0754524" lon="12.6878491"><ele>200.5</ele><time>2026-04-25T15:58:33.358Z</time></trkpt><trkpt lat="38.0754432" lon="12.6880007"><ele>202.0</ele><time>2026-04-25T15:58:34.357Z</time></trkpt><trkpt lat="38.0754305" lon="12.6881545"><ele>203.5</ele><time>2026-04-25T15:58:35.357Z</time></trkpt><trkpt lat="38.0754162" lon="12.6882951"><ele>205.0</ele><time>2026-04-25T15:58:36.359Z</time></trkpt><trkpt lat="38.0754347" lon="12.6886114"><ele>206.25</ele><time>2026-04-25T15:58:38.358Z</time></trkpt><trkpt lat="38.0754488" lon="12.688781"><ele>207.5</ele><time>2026-04-25T15:58:39.358Z</time></trkpt><trkpt lat="38.0754807" lon="12.6889437"><ele>208.75</ele><time>2026-04-25T15:58:40.359Z</time></trkpt><trkpt lat="38.0755199" lon="12.6890943"><ele>210.0</ele><time>2026-04-25T15:58:41.359Z</time></trkpt><trkpt lat="38.0755578" lon="12.6892405"><ele>210.0</ele><time>2026-04-25T15:58:42.359Z</time></trkpt><trkpt lat="38.0755877" lon="12.6893718"><ele>210.0</ele><time>2026-04-25T15:58:43.359Z</time></trkpt><trkpt lat="38.0756156" lon="12.6894931"><ele>210.0</ele><time>2026-04-25T15:58:44.358Z</time></trkpt><trkpt lat="38.0756543" lon="12.6896184"><ele>210.0</ele><time>2026-04-25T15:58:45.358Z</time></trkpt><trkpt lat="38.0756992" lon="12.6897459"><ele>210.0</ele><time>2026-04-25T15:58:46.358Z</time></trkpt><trkpt lat="38.0757458" lon="12.6898729"><ele>212.75</ele><time>2026-04-25T15:58:47.358Z</time></trkpt><trkpt lat="38.0757996" lon="12.6900038"><ele>215.5</ele><time>2026-04-25T15:58:48.358Z</time></trkpt><trkpt lat="38.0758551" lon="12.6901322"><ele>218.25</ele><time>2026-04-25T15:58:49.359Z</time></trkpt><trkpt lat="38.0759116" lon="12.6902629"><ele>221.0</ele><time>2026-04-25T15:58:50.358Z</time></trkpt><trkpt lat="38.0759749" lon="12.6903934"><ele>222.75</ele><time>2026-04-25T15:58:51.359Z</time></trkpt><trkpt lat="38.0760315" lon="12.6905319"><ele>224.5</ele><time>2026-04-25T15:58:52.359Z</time></trkpt><trkpt lat="38.0760787" lon="12.6906647"><ele>226.25</ele><time>2026-04-25T15:58:53.357Z</time></trkpt><trkpt lat="38.0761145" lon="12.6908068"><ele>228.0</ele><time>2026-04-25T15:58:54.358Z</time></trkpt><trkpt lat="38.076146" lon="12.6909466"><ele>228.0</ele><time>2026-04-25T15:58:55.359Z</time></trkpt><trkpt lat="38.0761661" lon="12.6910904"><ele>228.0</ele><time>2026-04-25T15:58:56.358Z</time></trkpt><trkpt lat="38.0761883" lon="12.6912301"><ele>228.0</ele><time>2026-04-25T15:58:57.359Z</time></trkpt><trkpt lat="38.0762125" lon="12.6913798"><ele>228.0</ele><time>2026-04-25T15:58:58.358Z</time></trkpt><trkpt lat="38.0762244" lon="12.6915194"><ele>229.60000000000002</ele><time>2026-04-25T15:58:59.358Z</time></trkpt><trkpt lat="38.076239" lon="12.691656"><ele>231.20000000000002</ele><time>2026-04-25T15:59:00.359Z</time></trkpt><trkpt lat="38.0762558" lon="12.6917844"><ele>232.8</ele><time>2026-04-25T15:59:01.358Z</time></trkpt><trkpt lat="38.0762659" lon="12.6918957"><ele>234.4</ele><time>2026-04-25T15:59:02.358Z</time></trkpt><trkpt lat="38.076269" lon="12.6920032"><ele>236.0</ele><time>2026-04-25T15:59:03.359Z</time></trkpt><trkpt lat="38.0762792" lon="12.6921038"><ele>236.8</ele><time>2026-04-25T15:59:04.359Z</time></trkpt><trkpt lat="38.0762938" lon="12.6922136"><ele>237.60000000000002</ele><time>2026-04-25T15:59:05.358Z</time></trkpt><trkpt lat="38.076312" lon="12.6923204"><ele>238.4</ele><time>2026-04-25T15:59:06.357Z</time></trkpt><trkpt lat="38.0763345" lon="12.6924417"><ele>239.2</ele><time>2026-04-25T15:59:07.357Z</time></trkpt><trkpt lat="38.0763521" lon="12.6925629"><ele>240.0</ele><time>2026-04-25T15:59:08.359Z</time></trkpt><trkpt lat="38.0763636" lon="12.6926761"><ele>240.8</ele><time>2026-04-25T15:59:09.358Z</time></trkpt><trkpt lat="38.0763742" lon="12.6927985"><ele>241.6</ele><time>2026-04-25T15:59:10.359Z</time></trkpt><trkpt lat="38.0763815" lon="12.6929294"><ele>242.39999999999998</ele><time>2026-04-25T15:59:11.359Z</time></trkpt><trkpt lat="38.0763868" lon="12.6930631"><ele>243.2</ele><time>2026-04-25T15:59:12.358Z</time></trkpt><trkpt lat="38.0763952" lon="12.6932042"><ele>244.0</ele><time>2026-04-25T15:59:13.359Z</time></trkpt><trkpt lat="38.0764009" lon="12.6933392"><ele>244.0</ele><time>2026-04-25T15:59:14.358Z</time></trkpt><trkpt lat="38.0764049" lon="12.6934699"><ele>243.99999999999997</ele><time>2026-04-25T15:59:15.359Z</time></trkpt><trkpt lat="38.0764062" lon="12.6935884"><ele>243.99999999999997</ele><time>2026-04-25T15:59:16.358Z</time></trkpt><trkpt lat="38.0764161" lon="12.6937025"><ele>244.0</ele><time>2026-04-25T15:59:17.357Z</time></trkpt><trkpt lat="38.07643" lon="12.693824"><ele>244.0</ele><time>2026-04-25T15:59:18.358Z</time></trkpt><trkpt lat="38.0764454" lon="12.693955"><ele>245.5</ele><time>2026-04-25T15:59:19.357Z</time></trkpt><trkpt lat="38.0764631" lon="12.6940975"><ele>247.0</ele><time>2026-04-25T15:59:20.357Z</time></trkpt><trkpt lat="38.0764821" lon="12.6942622"><ele>248.5</ele><time>2026-04-25T15:59:21.357Z</time></trkpt><trkpt lat="38.0765037" lon="12.6944309"><ele>250.0</ele><time>2026-04-25T15:59:22.358Z</time></trkpt><trkpt lat="38.0765248" lon="12.6945877"><ele>251.4</ele><time>2026-04-25T15:59:23.358Z</time></trkpt><trkpt lat="38.0765493" lon="12.6947367"><ele>252.8</ele><time>2026-04-25T15:59:24.359Z</time></trkpt><trkpt lat="38.0765678" lon="12.6948672"><ele>254.2</ele><time>2026-04-25T15:59:25.358Z</time></trkpt><trkpt lat="38.0765844" lon="12.6949946"><ele>255.6</ele><time>2026-04-25T15:59:26.359Z</time></trkpt><trkpt lat="38.0765996" lon="12.6951374"><ele>257.0</ele><time>2026-04-25T15:59:27.359Z</time></trkpt><trkpt lat="38.0766179" lon="12.6952796"><ele>257.5</ele><time>2026-04-25T15:59:28.358Z</time></trkpt><trkpt lat="38.07664" lon="12.6954234"><ele>258.0</ele><time>2026-04-25T15:59:29.358Z</time></trkpt><trkpt lat="38.076658" lon="12.6955599"><ele>258.5</ele><time>2026-04-25T15:59:30.357Z</time></trkpt><trkpt lat="38.0766807" lon="12.6957022"><ele>259.0</ele><time>2026-04-25T15:59:31.36Z</time></trkpt><trkpt lat="38.0767027" lon="12.6958456"><ele>259.0</ele><time>2026-04-25T15:59:32.359Z</time></trkpt><trkpt lat="38.0767254" lon="12.6959974"><ele>259.0</ele><time>2026-04-25T15:59:33.358Z</time></trkpt><trkpt lat="38.0767459" lon="12.6961394"><ele>259.0</ele><time>2026-04-25T15:59:34.359Z</time></trkpt><trkpt lat="38.0767652" lon="12.6962888"><ele>259.0</ele><time>2026-04-25T15:59:35.359Z</time></trkpt><trkpt lat="38.076783" lon="12.6964321"><ele>259.5</ele><time>2026-04-25T15:59:36.357Z</time></trkpt><trkpt lat="38.0768067" lon="12.696579"><ele>260.0</ele><time>2026-04-25T15:59:37.359Z</time></trkpt><trkpt lat="38.0768317" lon="12.6967373"><ele>260.5</ele><time>2026-04-25T15:59:38.358Z</time></trkpt><trkpt lat="38.0768574" lon="12.696889"><ele>261.0</ele><time>2026-04-25T15:59:39.359Z</time></trkpt><trkpt lat="38.0768932" lon="12.6970389"><ele>262.25</ele><time>2026-04-25T15:59:40.359Z</time></trkpt><trkpt lat="38.0769381" lon="12.697191"><ele>263.5</ele><time>2026-04-25T15:59:41.358Z</time></trkpt><trkpt lat="38.076988" lon="12.6973415"><ele>264.75</ele><time>2026-04-25T15:59:42.359Z</time></trkpt><trkpt lat="38.0770609" lon="12.6974817"><ele>266.0</ele><time>2026-04-25T15:59:43.359Z</time></trkpt><trkpt lat="38.077142" lon="12.6976285"><ele>265.6666666666667</ele><time>2026-04-25T15:59:44.359Z</time></trkpt><trkpt lat="38.0772232" lon="12.6977737"><ele>265.3333333333333</ele><time>2026-04-25T15:59:45.359Z</time></trkpt><trkpt lat="38.0773144" lon="12.6978991"><ele>265.0</ele><time>2026-04-25T15:59:46.359Z</time></trkpt><trkpt lat="38.0775056" lon="12.6981558"><ele>265.0</ele><time>2026-04-25T15:59:48.36Z</time></trkpt><trkpt lat="38.0776082" lon="12.6982833"><ele>265.0</ele><time>2026-04-25T15:59:49.357Z</time></trkpt><trkpt lat="38.0777049" lon="12.6984027"><ele>265.0</ele><time>2026-04-25T15:59:50.357Z</time></trkpt><trkpt lat="38.0778023" lon="12.6985233"><ele>265.0</ele><time>2026-04-25T15:59:51.358Z</time></trkpt><trkpt lat="38.0779081" lon="12.698643"><ele>265.5</ele><time>2026-04-25T15:59:52.358Z</time></trkpt><trkpt lat="38.0780099" lon="12.6987681"><ele>266.0</ele><time>2026-04-25T15:59:53.358Z</time></trkpt><trkpt lat="38.0781093" lon="12.6988966"><ele>266.5</ele><time>2026-04-25T15:59:54.359Z</time></trkpt><trkpt lat="38.078213" lon="12.6990274"><ele>267.0</ele><time>2026-04-25T15:59:55.358Z</time></trkpt><trkpt lat="38.0783145" lon="12.6991586"><ele>267.0</ele><time>2026-04-25T15:59:56.357Z</time></trkpt><trkpt lat="38.0784158" lon="12.6992903"><ele>267.0</ele><time>2026-04-25T15:59:57.359Z</time></trkpt><trkpt lat="38.0785047" lon="12.6994323"><ele>267.0</ele><time>2026-04-25T15:59:58.359Z</time></trkpt><trkpt lat="38.0785851" lon="12.6995918"><ele>267.0</ele><time>2026-04-25T15:59:59.359Z</time></trkpt><trkpt lat="38.0786518" lon="12.699762"><ele>267.0</ele><time>2026-04-25T16:00:00.358Z</time></trkpt><trkpt lat="38.0787111" lon="12.6999324"><ele>267.0</ele><time>2026-04-25T16:00:01.359Z</time></trkpt><trkpt lat="38.0787613" lon="12.7001072"><ele>267.0</ele><time>2026-04-25T16:00:02.359Z</time></trkpt><trkpt lat="38.0788061" lon="12.700275"><ele>267.0</ele><time>2026-04-25T16:00:03.359Z</time></trkpt><trkpt lat="38.0788485" lon="12.7004486"><ele>267.0</ele><time>2026-04-25T16:00:04.359Z</time></trkpt><trkpt lat="38.0788948" lon="12.700617"><ele>267.0</ele><time>2026-04-25T16:00:05.359Z</time></trkpt><trkpt lat="38.0789437" lon="12.7007957"><ele>267.0</ele><time>2026-04-25T16:00:06.359Z</time></trkpt><trkpt lat="38.0789961" lon="12.7009815"><ele>267.0</ele><time>2026-04-25T16:00:07.358Z</time></trkpt><trkpt lat="38.0790501" lon="12.7011661"><ele>266.0</ele><time>2026-04-25T16:00:08.357Z</time></trkpt><trkpt lat="38.0791054" lon="12.7013519"><ele>265.0</ele><time>2026-04-25T16:00:09.359Z</time></trkpt><trkpt lat="38.079165" lon="12.7015503"><ele>264.0</ele><time>2026-04-25T16:00:10.359Z</time></trkpt><trkpt lat="38.0792236" lon="12.7017408"><ele>264.6666666666667</ele><time>2026-04-25T16:00:11.359Z</time></trkpt><trkpt lat="38.0792775" lon="12.7019263"><ele>265.33333333333337</ele><time>2026-04-25T16:00:12.359Z</time></trkpt><trkpt lat="38.0793255" lon="12.7021103"><ele>266.0</ele><time>2026-04-25T16:00:13.359Z</time></trkpt><trkpt lat="38.0793797" lon="12.702289"><ele>266.0</ele><time>2026-04-25T16:00:14.358Z</time></trkpt><trkpt lat="38.0794289" lon="12.7024774"><ele>266.0</ele><time>2026-04-25T16:00:15.358Z</time></trkpt><trkpt lat="38.079476" lon="12.70267"><ele>266.0</ele><time>2026-04-25T16:00:16.359Z</time></trkpt><trkpt lat="38.0795271" lon="12.7028524"><ele>267.0</ele><time>2026-04-25T16:00:17.359Z</time></trkpt><trkpt lat="38.0795717" lon="12.7030505"><ele>268.0</ele><time>2026-04-25T16:00:18.358Z</time></trkpt><trkpt lat="38.0796085" lon="12.7032429"><ele>269.0</ele><time>2026-04-25T16:00:19.359Z</time></trkpt><trkpt lat="38.0796448" lon="12.7034365"><ele>269.0</ele><time>2026-04-25T16:00:20.358Z</time></trkpt><trkpt lat="38.0796688" lon="12.70363"><ele>269.0</ele><time>2026-04-25T16:00:21.358Z</time></trkpt><trkpt lat="38.0796982" lon="12.7038328"><ele>269.0</ele><time>2026-04-25T16:00:22.36Z</time></trkpt><trkpt lat="38.0797268" lon="12.7040441"><ele>269.0</ele><time>2026-04-25T16:00:23.359Z</time></trkpt><trkpt lat="38.0797557" lon="12.7042484"><ele>269.0</ele><time>2026-04-25T16:00:24.359Z</time></trkpt><trkpt lat="38.0797847" lon="12.7044588"><ele>269.0</ele><time>2026-04-25T16:00:25.358Z</time></trkpt><trkpt lat="38.079811" lon="12.7046615"><ele>269.33333333333337</ele><time>2026-04-25T16:00:26.358Z</time></trkpt><trkpt lat="38.07984" lon="12.7048672"><ele>269.6666666666667</ele><time>2026-04-25T16:00:27.358Z</time></trkpt><trkpt lat="38.0798681" lon="12.7050715"><ele>270.0</ele><time>2026-04-25T16:00:28.359Z</time></trkpt><trkpt lat="38.079904" lon="12.7052886"><ele>269.0</ele><time>2026-04-25T16:00:29.359Z</time></trkpt><trkpt lat="38.0799439" lon="12.7055074"><ele>268.0</ele><time>2026-04-25T16:00:30.358Z</time></trkpt><trkpt lat="38.0799783" lon="12.7057245"><ele>267.0</ele><time>2026-04-25T16:00:31.359Z</time></trkpt><trkpt lat="38.0800102" lon="12.7059405"><ele>267.3333333333333</ele><time>2026-04-25T16:00:32.359Z</time></trkpt><trkpt lat="38.0800499" lon="12.7061528"><ele>267.66666666666663</ele><time>2026-04-25T16:00:33.358Z</time></trkpt><trkpt lat="38.0800777" lon="12.7063585"><ele>268.0</ele><time>2026-04-25T16:00:34.359Z</time></trkpt><trkpt lat="38.0801065" lon="12.7065608"><ele>268.0</ele><time>2026-04-25T16:00:35.358Z</time></trkpt><trkpt lat="38.0801412" lon="12.7067686"><ele>268.0</ele><time>2026-04-25T16:00:36.358Z</time></trkpt><trkpt lat="38.0801623" lon="12.706976"><ele>268.0</ele><time>2026-04-25T16:00:37.358Z</time></trkpt><trkpt lat="38.0801761" lon="12.7071872"><ele>268.3333333333333</ele><time>2026-04-25T16:00:38.358Z</time></trkpt><trkpt lat="38.0801702" lon="12.7073937"><ele>268.6666666666667</ele><time>2026-04-25T16:00:39.359Z</time></trkpt><trkpt lat="38.0801454" lon="12.7075869"><ele>269.0</ele><time>2026-04-25T16:00:40.359Z</time></trkpt><trkpt lat="38.080107" lon="12.7077795"><ele>268.33333333333337</ele><time>2026-04-25T16:00:41.359Z</time></trkpt><trkpt lat="38.0800715" lon="12.7079657"><ele>267.6666666666667</ele><time>2026-04-25T16:00:42.358Z</time></trkpt><trkpt lat="38.0800374" lon="12.7081519"><ele>267.0</ele><time>2026-04-25T16:00:43.359Z</time></trkpt><trkpt lat="38.079995" lon="12.7083395"><ele>267.0</ele><time>2026-04-25T16:00:44.359Z</time></trkpt><trkpt lat="38.0799553" lon="12.7085228"><ele>267.0</ele><time>2026-04-25T16:00:45.359Z</time></trkpt><trkpt lat="38.079927" lon="12.708713"><ele>267.0</ele><time>2026-04-25T16:00:46.359Z</time></trkpt><trkpt lat="38.079909" lon="12.7089096"><ele>267.0</ele><time>2026-04-25T16:00:47.359Z</time></trkpt><trkpt lat="38.0798896" lon="12.7090999"><ele>267.0</ele><time>2026-04-25T16:00:48.359Z</time></trkpt><trkpt lat="38.0798744" lon="12.7092816"><ele>267.0</ele><time>2026-04-25T16:00:49.358Z</time></trkpt><trkpt lat="38.0798612" lon="12.7094582"><ele>267.0</ele><time>2026-04-25T16:00:50.358Z</time></trkpt><trkpt lat="38.0798513" lon="12.7096302"><ele>266.25</ele><time>2026-04-25T16:00:51.359Z</time></trkpt><trkpt lat="38.0798426" lon="12.7097934"><ele>265.5</ele><time>2026-04-25T16:00:52.358Z</time></trkpt><trkpt lat="38.0798277" lon="12.7099527"><ele>264.75</ele><time>2026-04-25T16:00:53.359Z</time></trkpt><trkpt lat="38.0798145" lon="12.7101115"><ele>264.0</ele><time>2026-04-25T16:00:54.359Z</time></trkpt><trkpt lat="38.0798144" lon="12.7102642"><ele>263.8333333333333</ele><time>2026-04-25T16:00:55.358Z</time></trkpt><trkpt lat="38.0797969" lon="12.7103888"><ele>263.6666666666667</ele><time>2026-04-25T16:00:56.359Z</time></trkpt><trkpt lat="38.0797895" lon="12.7104985"><ele>263.5</ele><time>2026-04-25T16:00:57.358Z</time></trkpt><trkpt lat="38.0797772" lon="12.7106015"><ele>263.33333333333337</ele><time>2026-04-25T16:00:58.358Z</time></trkpt><trkpt lat="38.0797652" lon="12.7106959"><ele>263.1666666666667</ele><time>2026-04-25T16:00:59.358Z</time></trkpt><trkpt lat="38.0797541" lon="12.710786"><ele>263.0</ele><time>2026-04-25T16:01:00.359Z</time></trkpt><trkpt lat="38.0797521" lon="12.7108806"><ele>263.0</ele><time>2026-04-25T16:01:01.359Z</time></trkpt><trkpt lat="38.0797403" lon="12.7110181"><ele>263.0</ele><time>2026-04-25T16:01:03.358Z</time></trkpt><trkpt lat="38.0797246" lon="12.7111212"><ele>263.0</ele><time>2026-04-25T16:01:06.359Z</time></trkpt><trkpt lat="38.0797177" lon="12.7112068"><ele>263.0</ele><time>2026-04-25T16:01:08.359Z</time></trkpt><trkpt lat="38.0797082" lon="12.7113121"><ele>263.0</ele><time>2026-04-25T16:01:10.358Z</time></trkpt><trkpt lat="38.0797002" lon="12.7114395"><ele>263.0</ele><time>2026-04-25T16:01:12.358Z</time></trkpt><trkpt lat="38.0797098" lon="12.711578"><ele>263.4</ele><time>2026-04-25T16:01:14.359Z</time></trkpt><trkpt lat="38.079708" lon="12.711696"><ele>263.8</ele><time>2026-04-25T16:01:16.359Z</time></trkpt><trkpt lat="38.0797134" lon="12.7118029"><ele>264.2</ele><time>2026-04-25T16:01:18.359Z</time></trkpt><trkpt lat="38.0797288" lon="12.711918"><ele>264.6</ele><time>2026-04-25T16:01:20.359Z</time></trkpt><trkpt lat="38.0797641" lon="12.7120608"><ele>265.0</ele><time>2026-04-25T16:01:22.359Z</time></trkpt><trkpt lat="38.0797914" lon="12.7121889"><ele>265.75</ele><time>2026-04-25T16:01:24.359Z</time></trkpt><trkpt lat="38.0798137" lon="12.7123104"><ele>266.5</ele><time>2026-04-25T16:01:26.359Z</time></trkpt><trkpt lat="38.079856" lon="12.7124464"><ele>267.25</ele><time>2026-04-25T16:01:28.359Z</time></trkpt><trkpt lat="38.0798897" lon="12.7125884"><ele>268.0</ele><time>2026-04-25T16:01:30.359Z</time></trkpt><trkpt lat="38.0799295" lon="12.7127337"><ele>267.57142857142856</ele><time>2026-04-25T16:01:32.359Z</time></trkpt><trkpt lat="38.0799514" lon="12.7128155"><ele>267.1428571428571</ele><time>2026-04-25T16:01:33.359Z</time></trkpt><trkpt lat="38.0799769" lon="12.7128975"><ele>266.71428571428567</ele><time>2026-04-25T16:01:34.359Z</time></trkpt><trkpt lat="38.0800059" lon="12.7129837"><ele>266.2857142857143</ele><time>2026-04-25T16:01:35.359Z</time></trkpt><trkpt lat="38.0800332" lon="12.7130778"><ele>265.85714285714283</ele><time>2026-04-25T16:01:36.359Z</time></trkpt><trkpt lat="38.0800625" lon="12.7131714"><ele>265.4285714285714</ele><time>2026-04-25T16:01:37.359Z</time></trkpt><trkpt lat="38.0800849" lon="12.7132633"><ele>265.0</ele><time>2026-04-25T16:01:38.359Z</time></trkpt><trkpt lat="38.0801141" lon="12.7133506"><ele>265.0</ele><time>2026-04-25T16:01:39.359Z</time></trkpt><trkpt lat="38.0801323" lon="12.7134453"><ele>265.0</ele><time>2026-04-25T16:01:40.359Z</time></trkpt><trkpt lat="38.0801795" lon="12.7135965"><ele>265.0</ele><time>2026-04-25T16:01:42.358Z</time></trkpt><trkpt lat="38.0802198" lon="12.7137301"><ele>265.0</ele><time>2026-04-25T16:01:44.359Z</time></trkpt><trkpt lat="38.0802553" lon="12.7138584"><ele>265.0</ele><time>2026-04-25T16:01:46.358Z</time></trkpt><trkpt lat="38.080302" lon="12.7139931"><ele>265.3333333333333</ele><time>2026-04-25T16:01:48.358Z</time></trkpt><trkpt lat="38.0803414" lon="12.7141358"><ele>265.66666666666663</ele><time>2026-04-25T16:01:50.36Z</time></trkpt><trkpt lat="38.0803822" lon="12.7142802"><ele>266.0</ele><time>2026-04-25T16:01:52.359Z</time></trkpt><trkpt lat="38.0804019" lon="12.7143585"><ele>266.3333333333333</ele><time>2026-04-25T16:01:53.36Z</time></trkpt><trkpt lat="38.0804217" lon="12.7144431"><ele>266.6666666666667</ele><time>2026-04-25T16:01:54.359Z</time></trkpt><trkpt lat="38.0804477" lon="12.7145296"><ele>267.0</ele><time>2026-04-25T16:01:55.358Z</time></trkpt><trkpt lat="38.0804734" lon="12.7146185"><ele>267.3333333333333</ele><time>2026-04-25T16:01:56.359Z</time></trkpt><trkpt lat="38.0804956" lon="12.7147107"><ele>267.6666666666667</ele><time>2026-04-25T16:01:57.359Z</time></trkpt><trkpt lat="38.0805172" lon="12.714799"><ele>268.0</ele><time>2026-04-25T16:01:58.359Z</time></trkpt><trkpt lat="38.0805391" lon="12.7148978"><ele>268.33333333333337</ele><time>2026-04-25T16:01:59.359Z</time></trkpt><trkpt lat="38.0805624" lon="12.7149976"><ele>268.6666666666667</ele><time>2026-04-25T16:02:00.359Z</time></trkpt><trkpt lat="38.0805847" lon="12.7151099"><ele>269.0</ele><time>2026-04-25T16:02:01.359Z</time></trkpt><trkpt lat="38.0805999" lon="12.7152244"><ele>269.4</ele><time>2026-04-25T16:02:02.359Z</time></trkpt><trkpt lat="38.0806056" lon="12.7153313"><ele>269.79999999999995</ele><time>2026-04-25T16:02:03.359Z</time></trkpt><trkpt lat="38.0806004" lon="12.715458"><ele>270.20000000000005</ele><time>2026-04-25T16:02:04.358Z</time></trkpt><trkpt lat="38.0805823" lon="12.7155783"><ele>270.6</ele><time>2026-04-25T16:02:05.359Z</time></trkpt><trkpt lat="38.0805557" lon="12.715706"><ele>271.0</ele><time>2026-04-25T16:02:06.359Z</time></trkpt><trkpt lat="38.0805183" lon="12.715821"><ele>271.0</ele><time>2026-04-25T16:02:07.359Z</time></trkpt><trkpt lat="38.0804809" lon="12.7159309"><ele>271.0</ele><time>2026-04-25T16:02:08.359Z</time></trkpt><trkpt lat="38.0804392" lon="12.71604"><ele>271.0</ele><time>2026-04-25T16:02:09.359Z</time></trkpt><trkpt lat="38.0804012" lon="12.7161404"><ele>271.0</ele><time>2026-04-25T16:02:10.359Z</time></trkpt><trkpt lat="38.0803573" lon="12.7162396"><ele>271.0</ele><time>2026-04-25T16:02:11.359Z</time></trkpt><trkpt lat="38.080314" lon="12.716338"><ele>270.66666666666663</ele><time>2026-04-25T16:02:12.358Z</time></trkpt><trkpt lat="38.0802721" lon="12.7164247"><ele>270.3333333333333</ele><time>2026-04-25T16:02:13.358Z</time></trkpt><trkpt lat="38.0802292" lon="12.716518"><ele>270.0</ele><time>2026-04-25T16:02:14.359Z</time></trkpt><trkpt lat="38.0801827" lon="12.7166087"><ele>269.6666666666667</ele><time>2026-04-25T16:02:15.359Z</time></trkpt><trkpt lat="38.080139" lon="12.7166867"><ele>269.33333333333337</ele><time>2026-04-25T16:02:16.358Z</time></trkpt><trkpt lat="38.0800909" lon="12.7167743"><ele>269.0</ele><time>2026-04-25T16:02:17.358Z</time></trkpt><trkpt lat="38.0800408" lon="12.7168651"><ele>268.6666666666667</ele><time>2026-04-25T16:02:18.36Z</time></trkpt><trkpt lat="38.0799914" lon="12.7169518"><ele>268.33333333333337</ele><time>2026-04-25T16:02:19.359Z</time></trkpt><trkpt lat="38.0799405" lon="12.717029"><ele>268.0</ele><time>2026-04-25T16:02:20.359Z</time></trkpt><trkpt lat="38.0798955" lon="12.7171009"><ele>267.6666666666667</ele><time>2026-04-25T16:02:21.359Z</time></trkpt><trkpt lat="38.0798442" lon="12.7171882"><ele>267.3333333333333</ele><time>2026-04-25T16:02:22.36Z</time></trkpt><trkpt lat="38.0797914" lon="12.7172663"><ele>267.0</ele><time>2026-04-25T16:02:23.359Z</time></trkpt><trkpt lat="38.0797395" lon="12.7173637"><ele>267.6</ele><time>2026-04-25T16:02:24.359Z</time></trkpt><trkpt lat="38.0796861" lon="12.7174617"><ele>268.2</ele><time>2026-04-25T16:02:25.359Z</time></trkpt><trkpt lat="38.0796373" lon="12.7175805"><ele>268.8</ele><time>2026-04-25T16:02:26.358Z</time></trkpt><trkpt lat="38.0795952" lon="12.7176962"><ele>269.4</ele><time>2026-04-25T16:02:27.359Z</time></trkpt><trkpt lat="38.079558" lon="12.7178226"><ele>270.0</ele><time>2026-04-25T16:02:28.36Z</time></trkpt><trkpt lat="38.0795322" lon="12.7179467"><ele>270.0</ele><time>2026-04-25T16:02:29.359Z</time></trkpt><trkpt lat="38.0795071" lon="12.71807"><ele>270.0</ele><time>2026-04-25T16:02:30.359Z</time></trkpt><trkpt lat="38.079483" lon="12.7181879"><ele>270.0</ele><time>2026-04-25T16:02:31.359Z</time></trkpt><trkpt lat="38.0794608" lon="12.7183031"><ele>270.0</ele><time>2026-04-25T16:02:32.359Z</time></trkpt><trkpt lat="38.0794432" lon="12.718415"><ele>270.0</ele><time>2026-04-25T16:02:33.358Z</time></trkpt><trkpt lat="38.0794274" lon="12.7185259"><ele>269.8</ele><time>2026-04-25T16:02:34.359Z</time></trkpt><trkpt lat="38.0794139" lon="12.7186407"><ele>269.6</ele><time>2026-04-25T16:02:35.359Z</time></trkpt><trkpt lat="38.0794" lon="12.7187591"><ele>269.4</ele><time>2026-04-25T16:02:36.359Z</time></trkpt><trkpt lat="38.0793853" lon="12.7188805"><ele>269.2</ele><time>2026-04-25T16:02:37.359Z</time></trkpt><trkpt lat="38.0793708" lon="12.7190035"><ele>269.0</ele><time>2026-04-25T16:02:38.359Z</time></trkpt><trkpt lat="38.0793521" lon="12.7191227"><ele>269.0</ele><time>2026-04-25T16:02:39.36Z</time></trkpt><trkpt lat="38.0793377" lon="12.7192619"><ele>269.0</ele><time>2026-04-25T16:02:40.359Z</time></trkpt><trkpt lat="38.0793222" lon="12.7194032"><ele>269.0</ele><time>2026-04-25T16:02:41.359Z</time></trkpt><trkpt lat="38.0793031" lon="12.7195489"><ele>269.0</ele><time>2026-04-25T16:02:42.36Z</time></trkpt><trkpt lat="38.0792829" lon="12.7196949"><ele>269.0</ele><time>2026-04-25T16:02:43.36Z</time></trkpt><trkpt lat="38.0792555" lon="12.7198404"><ele>269.0</ele><time>2026-04-25T16:02:44.359Z</time></trkpt><trkpt lat="38.0792237" lon="12.7199866"><ele>269.0</ele><time>2026-04-25T16:02:45.358Z</time></trkpt><trkpt lat="38.079184" lon="12.7201173"><ele>269.0</ele><time>2026-04-25T16:02:46.359Z</time></trkpt><trkpt lat="38.0791401" lon="12.7202496"><ele>270.59999999999997</ele><time>2026-04-25T16:02:47.358Z</time></trkpt><trkpt lat="38.0790892" lon="12.7203734"><ele>272.2</ele><time>2026-04-25T16:02:48.359Z</time></trkpt><trkpt lat="38.0790394" lon="12.7204921"><ele>273.79999999999995</ele><time>2026-04-25T16:02:49.359Z</time></trkpt><trkpt lat="38.078986" lon="12.720607"><ele>275.4</ele><time>2026-04-25T16:02:50.359Z</time></trkpt><trkpt lat="38.0789322" lon="12.720735"><ele>277.0</ele><time>2026-04-25T16:02:51.359Z</time></trkpt><trkpt lat="38.0788698" lon="12.7208657"><ele>277.0</ele><time>2026-04-25T16:02:52.359Z</time></trkpt><trkpt lat="38.0787981" lon="12.7209934"><ele>277.0</ele><time>2026-04-25T16:02:53.359Z</time></trkpt><trkpt lat="38.0787345" lon="12.7211241"><ele>277.0</ele><time>2026-04-25T16:02:54.36Z</time></trkpt><trkpt lat="38.0786811" lon="12.7212493"><ele>277.0</ele><time>2026-04-25T16:02:55.36Z</time></trkpt><trkpt lat="38.0786341" lon="12.7213742"><ele>276.75</ele><time>2026-04-25T16:02:56.358Z</time></trkpt><trkpt lat="38.0785948" lon="12.7215041"><ele>276.5</ele><time>2026-04-25T16:02:57.359Z</time></trkpt><trkpt lat="38.0785721" lon="12.7216462"><ele>276.25</ele><time>2026-04-25T16:02:58.36Z</time></trkpt><trkpt lat="38.0785609" lon="12.7218049"><ele>276.0</ele><time>2026-04-25T16:02:59.36Z</time></trkpt><trkpt lat="38.0785553" lon="12.7219784"><ele>276.5</ele><time>2026-04-25T16:03:00.36Z</time></trkpt><trkpt lat="38.0785489" lon="12.7221522"><ele>277.0</ele><time>2026-04-25T16:03:01.359Z</time></trkpt><trkpt lat="38.0785436" lon="12.7223294"><ele>277.5</ele><time>2026-04-25T16:03:02.36Z</time></trkpt><trkpt lat="38.0785406" lon="12.7224956"><ele>278.0</ele><time>2026-04-25T16:03:03.36Z</time></trkpt><trkpt lat="38.0785394" lon="12.7226578"><ele>278.6666666666667</ele><time>2026-04-25T16:03:04.359Z</time></trkpt><trkpt lat="38.078537" lon="12.722801"><ele>279.33333333333337</ele><time>2026-04-25T16:03:05.36Z</time></trkpt><trkpt lat="38.07853" lon="12.7229331"><ele>280.0</ele><time>2026-04-25T16:03:06.358Z</time></trkpt><trkpt lat="38.0785259" lon="12.7230426"><ele>280.6666666666667</ele><time>2026-04-25T16:03:07.358Z</time></trkpt><trkpt lat="38.0785224" lon="12.7231398"><ele>281.3333333333333</ele><time>2026-04-25T16:03:08.358Z</time></trkpt><trkpt lat="38.0785135" lon="12.7232257"><ele>282.0</ele><time>2026-04-25T16:03:09.359Z</time></trkpt><trkpt lat="38.0785125" lon="12.7233234"><ele>282.0</ele><time>2026-04-25T16:03:10.359Z</time></trkpt><trkpt lat="38.0785115" lon="12.7234396"><ele>282.0</ele><time>2026-04-25T16:03:11.36Z</time></trkpt><trkpt lat="38.0785025" lon="12.7235813"><ele>282.0</ele><time>2026-04-25T16:03:12.359Z</time></trkpt><trkpt lat="38.0784921" lon="12.7237399"><ele>282.0</ele><time>2026-04-25T16:03:13.36Z</time></trkpt><trkpt lat="38.0784767" lon="12.7239082"><ele>282.5</ele><time>2026-04-25T16:03:14.359Z</time></trkpt><trkpt lat="38.0784628" lon="12.7240879"><ele>283.0</ele><time>2026-04-25T16:03:15.359Z</time></trkpt><trkpt lat="38.0784452" lon="12.7242751"><ele>283.5</ele><time>2026-04-25T16:03:16.359Z</time></trkpt><trkpt lat="38.0784343" lon="12.7244707"><ele>284.0</ele><time>2026-04-25T16:03:17.359Z</time></trkpt><trkpt lat="38.078414" lon="12.7246633"><ele>284.0</ele><time>2026-04-25T16:03:18.361Z</time></trkpt><trkpt lat="38.0783783" lon="12.7248394"><ele>284.0</ele><time>2026-04-25T16:03:19.358Z</time></trkpt><trkpt lat="38.0783339" lon="12.7250012"><ele>284.0</ele><time>2026-04-25T16:03:20.359Z</time></trkpt><trkpt lat="38.0782927" lon="12.7251457"><ele>284.0</ele><time>2026-04-25T16:03:21.359Z</time></trkpt><trkpt lat="38.0782524" lon="12.7252784"><ele>284.33333333333337</ele><time>2026-04-25T16:03:22.359Z</time></trkpt><trkpt lat="38.0782189" lon="12.7253929"><ele>284.6666666666667</ele><time>2026-04-25T16:03:23.36Z</time></trkpt><trkpt lat="38.0781825" lon="12.7254946"><ele>285.0</ele><time>2026-04-25T16:03:24.359Z</time></trkpt><trkpt lat="38.0781528" lon="12.7255959"><ele>285.3333333333333</ele><time>2026-04-25T16:03:25.36Z</time></trkpt><trkpt lat="38.0781242" lon="12.7256956"><ele>285.66666666666663</ele><time>2026-04-25T16:03:26.359Z</time></trkpt><trkpt lat="38.0780884" lon="12.725799"><ele>286.0</ele><time>2026-04-25T16:03:27.359Z</time></trkpt><trkpt lat="38.0780572" lon="12.7259122"><ele>286.0</ele><time>2026-04-25T16:03:28.36Z</time></trkpt><trkpt lat="38.0780192" lon="12.7260417"><ele>286.0</ele><time>2026-04-25T16:03:29.36Z</time></trkpt><trkpt lat="38.0779804" lon="12.7261692"><ele>286.0</ele><time>2026-04-25T16:03:30.359Z</time></trkpt><trkpt lat="38.0779426" lon="12.7262889"><ele>286.0</ele><time>2026-04-25T16:03:31.359Z</time></trkpt><trkpt lat="38.0779024" lon="12.726403"><ele>286.0</ele><time>2026-04-25T16:03:32.36Z</time></trkpt><trkpt lat="38.077866" lon="12.7265073"><ele>286.40000000000003</ele><time>2026-04-25T16:03:33.359Z</time></trkpt><trkpt lat="38.0778285" lon="12.7266105"><ele>286.8</ele><time>2026-04-25T16:03:34.36Z</time></trkpt><trkpt lat="38.0777932" lon="12.7267207"><ele>287.20000000000005</ele><time>2026-04-25T16:03:35.358Z</time></trkpt><trkpt lat="38.0777543" lon="12.7268229"><ele>287.6</ele><time>2026-04-25T16:03:36.358Z</time></trkpt><trkpt lat="38.0777207" lon="12.7269405"><ele>288.0</ele><time>2026-04-25T16:03:37.36Z</time></trkpt><trkpt lat="38.0776873" lon="12.7270441"><ele>288.0</ele><time>2026-04-25T16:03:38.36Z</time></trkpt><trkpt lat="38.0776487" lon="12.7271467"><ele>288.0</ele><time>2026-04-25T16:03:39.359Z</time></trkpt><trkpt lat="38.0776119" lon="12.7272502"><ele>288.0</ele><time>2026-04-25T16:03:40.359Z</time></trkpt><trkpt lat="38.0775768" lon="12.7273599"><ele>288.0</ele><time>2026-04-25T16:03:41.359Z</time></trkpt><trkpt lat="38.0775414" lon="12.7274614"><ele>288.0</ele><time>2026-04-25T16:03:42.36Z</time></trkpt><trkpt lat="38.0775027" lon="12.7275564"><ele>288.0</ele><time>2026-04-25T16:03:43.36Z</time></trkpt><trkpt lat="38.0774717" lon="12.7276639"><ele>289.0</ele><time>2026-04-25T16:03:44.36Z</time></trkpt><trkpt lat="38.07743" lon="12.7278005"><ele>290.0</ele><time>2026-04-25T16:03:45.358Z</time></trkpt><trkpt lat="38.077379" lon="12.7279424"><ele>291.0</ele><time>2026-04-25T16:03:46.359Z</time></trkpt><trkpt lat="38.0773147" lon="12.7281008"><ele>292.0</ele><time>2026-04-25T16:03:47.36Z</time></trkpt><trkpt lat="38.0772473" lon="12.7282731"><ele>292.0</ele><time>2026-04-25T16:03:48.359Z</time></trkpt><trkpt lat="38.0771849" lon="12.7284499"><ele>292.0</ele><time>2026-04-25T16:03:49.359Z</time></trkpt><trkpt lat="38.0771155" lon="12.7286367"><ele>292.0</ele><time>2026-04-25T16:03:50.359Z</time></trkpt><trkpt lat="38.0770515" lon="12.7288265"><ele>291.66666666666663</ele><time>2026-04-25T16:03:51.36Z</time></trkpt><trkpt lat="38.0769809" lon="12.7290242"><ele>291.3333333333333</ele><time>2026-04-25T16:03:52.359Z</time></trkpt><trkpt lat="38.0769089" lon="12.729214"><ele>291.0</ele><time>2026-04-25T16:03:53.36Z</time></trkpt><trkpt lat="38.0768419" lon="12.7294088"><ele>290.6666666666667</ele><time>2026-04-25T16:03:54.36Z</time></trkpt><trkpt lat="38.0767757" lon="12.7295992"><ele>290.33333333333337</ele><time>2026-04-25T16:03:55.359Z</time></trkpt><trkpt lat="38.0767121" lon="12.7297956"><ele>290.0</ele><time>2026-04-25T16:03:56.36Z</time></trkpt><trkpt lat="38.0766495" lon="12.7299973"><ele>290.6666666666667</ele><time>2026-04-25T16:03:57.359Z</time></trkpt><trkpt lat="38.0765878" lon="12.7302141"><ele>291.3333333333333</ele><time>2026-04-25T16:03:58.359Z</time></trkpt><trkpt lat="38.0765229" lon="12.7304516"><ele>292.0</ele><time>2026-04-25T16:03:59.36Z</time></trkpt><trkpt lat="38.076464" lon="12.7306918"><ele>292.0</ele><time>2026-04-25T16:04:00.36Z</time></trkpt><trkpt lat="38.0763963" lon="12.7309364"><ele>292.0</ele><time>2026-04-25T16:04:01.36Z</time></trkpt><trkpt lat="38.0763248" lon="12.7311739"><ele>292.0</ele><time>2026-04-25T16:04:02.359Z</time></trkpt><trkpt lat="38.0762614" lon="12.7314203"><ele>291.66666666666663</ele><time>2026-04-25T16:04:03.359Z</time></trkpt><trkpt lat="38.076201" lon="12.7316758"><ele>291.3333333333333</ele><time>2026-04-25T16:04:04.359Z</time></trkpt><trkpt lat="38.0761478" lon="12.7319343"><ele>291.0</ele><time>2026-04-25T16:04:05.36Z</time></trkpt><trkpt lat="38.0760947" lon="12.7321883"><ele>291.0</ele><time>2026-04-25T16:04:06.359Z</time></trkpt><trkpt lat="38.076046" lon="12.7324347"><ele>291.0</ele><time>2026-04-25T16:04:07.358Z</time></trkpt><trkpt lat="38.0760014" lon="12.7326745"><ele>291.0</ele><time>2026-04-25T16:04:08.361Z</time></trkpt><trkpt lat="38.0759604" lon="12.7329172"><ele>291.0</ele><time>2026-04-25T16:04:09.36Z</time></trkpt><trkpt lat="38.0759174" lon="12.7331615"><ele>291.0</ele><time>2026-04-25T16:04:10.36Z</time></trkpt><trkpt lat="38.0758753" lon="12.7334047"><ele>291.0</ele><time>2026-04-25T16:04:11.358Z</time></trkpt><trkpt lat="38.0758343" lon="12.7336561"><ele>290.6666666666667</ele><time>2026-04-25T16:04:12.36Z</time></trkpt><trkpt lat="38.0757953" lon="12.7339126"><ele>290.33333333333337</ele><time>2026-04-25T16:04:13.359Z</time></trkpt><trkpt lat="38.0757536" lon="12.7341624"><ele>290.0</ele><time>2026-04-25T16:04:14.359Z</time></trkpt><trkpt lat="38.0757184" lon="12.7344127"><ele>291.33333333333337</ele><time>2026-04-25T16:04:15.36Z</time></trkpt><trkpt lat="38.0756826" lon="12.7346625"><ele>292.6666666666667</ele><time>2026-04-25T16:04:16.359Z</time></trkpt><trkpt lat="38.0756402" lon="12.7349127"><ele>294.0</ele><time>2026-04-25T16:04:17.359Z</time></trkpt><trkpt lat="38.0755966" lon="12.735164"><ele>294.6666666666667</ele><time>2026-04-25T16:04:18.359Z</time></trkpt><trkpt lat="38.0755548" lon="12.7354177"><ele>295.33333333333337</ele><time>2026-04-25T16:04:19.359Z</time></trkpt><trkpt lat="38.0755145" lon="12.7356708"><ele>296.0</ele><time>2026-04-25T16:04:20.358Z</time></trkpt><trkpt lat="38.0754687" lon="12.735926"><ele>296.6666666666667</ele><time>2026-04-25T16:04:21.36Z</time></trkpt><trkpt lat="38.0754273" lon="12.7361829"><ele>297.3333333333333</ele><time>2026-04-25T16:04:22.359Z</time></trkpt><trkpt lat="38.0753865" lon="12.7364482"><ele>298.0</ele><time>2026-04-25T16:04:23.36Z</time></trkpt><trkpt lat="38.0753395" lon="12.7366997"><ele>298.0</ele><time>2026-04-25T16:04:24.36Z</time></trkpt><trkpt lat="38.0753033" lon="12.7369644"><ele>298.0</ele><time>2026-04-25T16:04:25.359Z</time></trkpt><trkpt lat="38.0752583" lon="12.7372216"><ele>298.0</ele><time>2026-04-25T16:04:26.358Z</time></trkpt><trkpt lat="38.0752196" lon="12.737483"><ele>298.66666666666663</ele><time>2026-04-25T16:04:27.359Z</time></trkpt><trkpt lat="38.0751741" lon="12.7377423"><ele>299.3333333333333</ele><time>2026-04-25T16:04:28.36Z</time></trkpt><trkpt lat="38.075135" lon="12.7379992"><ele>300.0</ele><time>2026-04-25T16:04:29.359Z</time></trkpt><trkpt lat="38.0750972" lon="12.7382584"><ele>300.0</ele><time>2026-04-25T16:04:30.359Z</time></trkpt><trkpt lat="38.0750537" lon="12.7385208"><ele>300.0</ele><time>2026-04-25T16:04:31.359Z</time></trkpt><trkpt lat="38.0750136" lon="12.7387785"><ele>300.0</ele><time>2026-04-25T16:04:32.359Z</time></trkpt><trkpt lat="38.074973" lon="12.7390395"><ele>303.0</ele><time>2026-04-25T16:04:33.36Z</time></trkpt><trkpt lat="38.0749289" lon="12.7393029"><ele>306.0</ele><time>2026-04-25T16:04:34.359Z</time></trkpt><trkpt lat="38.0748827" lon="12.7395633"><ele>309.0</ele><time>2026-04-25T16:04:35.358Z</time></trkpt><trkpt lat="38.0748418" lon="12.7398209"><ele>309.0</ele><time>2026-04-25T16:04:36.359Z</time></trkpt><trkpt lat="38.0748015" lon="12.7400823"><ele>309.0</ele><time>2026-04-25T16:04:37.359Z</time></trkpt><trkpt lat="38.0747631" lon="12.7403424"><ele>309.0</ele><time>2026-04-25T16:04:38.36Z</time></trkpt><trkpt lat="38.074723" lon="12.7406023"><ele>309.0</ele><time>2026-04-25T16:04:39.36Z</time></trkpt><trkpt lat="38.0746856" lon="12.7408627"><ele>309.0</ele><time>2026-04-25T16:04:40.36Z</time></trkpt><trkpt lat="38.0746419" lon="12.7411175"><ele>309.0</ele><time>2026-04-25T16:04:41.36Z</time></trkpt><trkpt lat="38.0746027" lon="12.7413703"><ele>307.6666666666667</ele><time>2026-04-25T16:04:42.36Z</time></trkpt><trkpt lat="38.0745605" lon="12.7416215"><ele>306.33333333333337</ele><time>2026-04-25T16:04:43.359Z</time></trkpt><trkpt lat="38.0745215" lon="12.7418678"><ele>305.0</ele><time>2026-04-25T16:04:44.359Z</time></trkpt><trkpt lat="38.0744831" lon="12.7421168"><ele>304.33333333333337</ele><time>2026-04-25T16:04:45.36Z</time></trkpt><trkpt lat="38.074444" lon="12.7423641"><ele>303.6666666666667</ele><time>2026-04-25T16:04:46.36Z</time></trkpt><trkpt lat="38.0744109" lon="12.7426059"><ele>303.0</ele><time>2026-04-25T16:04:47.359Z</time></trkpt><trkpt lat="38.0743816" lon="12.7428408"><ele>302.3333333333333</ele><time>2026-04-25T16:04:48.36Z</time></trkpt><trkpt lat="38.0743565" lon="12.7430704"><ele>301.66666666666663</ele><time>2026-04-25T16:04:49.359Z</time></trkpt><trkpt lat="38.0743376" lon="12.7432969"><ele>301.0</ele><time>2026-04-25T16:04:50.36Z</time></trkpt><trkpt lat="38.0743309" lon="12.7435272"><ele>299.66666666666663</ele><time>2026-04-25T16:04:51.359Z</time></trkpt><trkpt lat="38.0743308" lon="12.7437633"><ele>298.3333333333333</ele><time>2026-04-25T16:04:52.36Z</time></trkpt><trkpt lat="38.0743292" lon="12.7439965"><ele>297.0</ele><time>2026-04-25T16:04:53.361Z</time></trkpt><trkpt lat="38.0743313" lon="12.744221"><ele>296.3333333333333</ele><time>2026-04-25T16:04:54.359Z</time></trkpt><trkpt lat="38.0743464" lon="12.744444"><ele>295.66666666666663</ele><time>2026-04-25T16:04:55.359Z</time></trkpt><trkpt lat="38.0743769" lon="12.7446815"><ele>295.0</ele><time>2026-04-25T16:04:56.36Z</time></trkpt><trkpt lat="38.0744035" lon="12.7449178"><ele>295.0</ele><time>2026-04-25T16:04:57.36Z</time></trkpt><trkpt lat="38.074435" lon="12.7451627"><ele>295.0</ele><time>2026-04-25T16:04:58.359Z</time></trkpt><trkpt lat="38.0744647" lon="12.7454053"><ele>295.0</ele><time>2026-04-25T16:04:59.359Z</time></trkpt><trkpt lat="38.0744942" lon="12.745643"><ele>294.66666666666663</ele><time>2026-04-25T16:05:00.361Z</time></trkpt><trkpt lat="38.074526" lon="12.7458825"><ele>294.3333333333333</ele><time>2026-04-25T16:05:01.359Z</time></trkpt><trkpt lat="38.0745601" lon="12.7461279"><ele>294.0</ele><time>2026-04-25T16:05:02.36Z</time></trkpt><trkpt lat="38.0745975" lon="12.7463707"><ele>293.6666666666667</ele><time>2026-04-25T16:05:03.359Z</time></trkpt><trkpt lat="38.0746325" lon="12.7466212"><ele>293.33333333333337</ele><time>2026-04-25T16:05:04.36Z</time></trkpt><trkpt lat="38.0746717" lon="12.7468693"><ele>293.0</ele><time>2026-04-25T16:05:05.36Z</time></trkpt><trkpt lat="38.0747103" lon="12.7471164"><ele>293.0</ele><time>2026-04-25T16:05:06.359Z</time></trkpt><trkpt lat="38.0747438" lon="12.7473645"><ele>293.0</ele><time>2026-04-25T16:05:07.36Z</time></trkpt><trkpt lat="38.0747779" lon="12.7476137"><ele>293.0</ele><time>2026-04-25T16:05:08.36Z</time></trkpt><trkpt lat="38.0748155" lon="12.7478671"><ele>292.0</ele><time>2026-04-25T16:05:09.36Z</time></trkpt><trkpt lat="38.0748537" lon="12.748117"><ele>291.0</ele><time>2026-04-25T16:05:10.36Z</time></trkpt><trkpt lat="38.0748955" lon="12.7483662"><ele>290.0</ele><time>2026-04-25T16:05:11.358Z</time></trkpt><trkpt lat="38.074926" lon="12.7486154"><ele>284.0</ele><time>2026-04-25T16:05:12.359Z</time></trkpt><trkpt lat="38.0749648" lon="12.7488676"><ele>278.0</ele><time>2026-04-25T16:05:13.36Z</time></trkpt><trkpt lat="38.0749982" lon="12.7491187"><ele>272.0</ele><time>2026-04-25T16:05:14.359Z</time></trkpt><trkpt lat="38.0750271" lon="12.7493715"><ele>270.0</ele><time>2026-04-25T16:05:15.36Z</time></trkpt><trkpt lat="38.0750572" lon="12.7496161"><ele>268.0</ele><time>2026-04-25T16:05:16.359Z</time></trkpt><trkpt lat="38.0750851" lon="12.7498609"><ele>266.0</ele><time>2026-04-25T16:05:17.36Z</time></trkpt><trkpt lat="38.0751075" lon="12.7501086"><ele>263.33333333333337</ele><time>2026-04-25T16:05:18.36Z</time></trkpt><trkpt lat="38.075142" lon="12.75035"><ele>260.6666666666667</ele><time>2026-04-25T16:05:19.36Z</time></trkpt><trkpt lat="38.0751774" lon="12.7505906"><ele>258.0</ele><time>2026-04-25T16:05:20.359Z</time></trkpt><trkpt lat="38.0752149" lon="12.7508311"><ele>256.3333333333333</ele><time>2026-04-25T16:05:21.36Z</time></trkpt><trkpt lat="38.075259" lon="12.7510808"><ele>254.66666666666666</ele><time>2026-04-25T16:05:22.36Z</time></trkpt><trkpt lat="38.0753013" lon="12.7513255"><ele>253.0</ele><time>2026-04-25T16:05:23.359Z</time></trkpt><trkpt lat="38.0753524" lon="12.7515724"><ele>253.0</ele><time>2026-04-25T16:05:24.36Z</time></trkpt><trkpt lat="38.0754085" lon="12.7518104"><ele>253.0</ele><time>2026-04-25T16:05:25.359Z</time></trkpt><trkpt lat="38.0754622" lon="12.7520661"><ele>253.0</ele><time>2026-04-25T16:05:26.36Z</time></trkpt><trkpt lat="38.0755125" lon="12.7523208"><ele>252.33333333333331</ele><time>2026-04-25T16:05:27.36Z</time></trkpt><trkpt lat="38.0755775" lon="12.7525697"><ele>251.66666666666669</ele><time>2026-04-25T16:05:28.36Z</time></trkpt><trkpt lat="38.0756327" lon="12.7528199"><ele>251.0</ele><time>2026-04-25T16:05:29.359Z</time></trkpt><trkpt lat="38.075692" lon="12.7530753"><ele>252.33333333333334</ele><time>2026-04-25T16:05:30.36Z</time></trkpt><trkpt lat="38.075746" lon="12.7533288"><ele>253.66666666666669</ele><time>2026-04-25T16:05:31.36Z</time></trkpt><trkpt lat="38.0758099" lon="12.7535846"><ele>255.0</ele><time>2026-04-25T16:05:32.36Z</time></trkpt><trkpt lat="38.0758816" lon="12.7538419"><ele>248.66666666666669</ele><time>2026-04-25T16:05:33.36Z</time></trkpt><trkpt lat="38.075964" lon="12.7540861"><ele>242.33333333333334</ele><time>2026-04-25T16:05:34.36Z</time></trkpt><trkpt lat="38.0760624" lon="12.7543344"><ele>236.0</ele><time>2026-04-25T16:05:35.359Z</time></trkpt><trkpt lat="38.0761735" lon="12.7545759"><ele>235.0</ele><time>2026-04-25T16:05:36.359Z</time></trkpt><trkpt lat="38.076304" lon="12.7548213"><ele>234.0</ele><time>2026-04-25T16:05:37.36Z</time></trkpt><trkpt lat="38.0764477" lon="12.7550571"><ele>225.5</ele><time>2026-04-25T16:05:38.36Z</time></trkpt><trkpt lat="38.0766043" lon="12.7552851"><ele>217.0</ele><time>2026-04-25T16:05:39.36Z</time></trkpt><trkpt lat="38.0767773" lon="12.7554961"><ele>217.0</ele><time>2026-04-25T16:05:40.36Z</time></trkpt><trkpt lat="38.0769747" lon="12.7556939"><ele>217.0</ele><time>2026-04-25T16:05:41.36Z</time></trkpt><trkpt lat="38.0771815" lon="12.7558775"><ele>214.5</ele><time>2026-04-25T16:05:42.359Z</time></trkpt><trkpt lat="38.0773915" lon="12.7560436"><ele>212.0</ele><time>2026-04-25T16:05:43.359Z</time></trkpt><trkpt lat="38.0776058" lon="12.756185"><ele>207.5</ele><time>2026-04-25T16:05:44.36Z</time></trkpt><trkpt lat="38.0778281" lon="12.7563031"><ele>203.0</ele><time>2026-04-25T16:05:45.359Z</time></trkpt><trkpt lat="38.0780612" lon="12.7564087"><ele>200.0</ele><time>2026-04-25T16:05:46.36Z</time></trkpt><trkpt lat="38.0782955" lon="12.7564994"><ele>197.0</ele><time>2026-04-25T16:05:47.36Z</time></trkpt><trkpt lat="38.0785225" lon="12.7565602"><ele>197.0</ele><time>2026-04-25T16:05:48.36Z</time></trkpt><trkpt lat="38.0787514" lon="12.7566048"><ele>197.0</ele><time>2026-04-25T16:05:49.359Z</time></trkpt><trkpt lat="38.07898" lon="12.7566237"><ele>199.0</ele><time>2026-04-25T16:05:50.36Z</time></trkpt><trkpt lat="38.0792114" lon="12.7566072"><ele>201.0</ele><time>2026-04-25T16:05:51.36Z</time></trkpt><trkpt lat="38.0794429" lon="12.7565624"><ele>201.0</ele><time>2026-04-25T16:05:52.36Z</time></trkpt><trkpt lat="38.0796748" lon="12.7564995"><ele>201.0</ele><time>2026-04-25T16:05:53.36Z</time></trkpt><trkpt lat="38.079915" lon="12.7564344"><ele>205.0</ele><time>2026-04-25T16:05:54.36Z</time></trkpt><trkpt lat="38.0801536" lon="12.7563701"><ele>209.0</ele><time>2026-04-25T16:05:55.36Z</time></trkpt><trkpt lat="38.0803923" lon="12.7563058"><ele>216.0</ele><time>2026-04-25T16:05:56.36Z</time></trkpt><trkpt lat="38.0811103" lon="12.7561124"><ele>216.0</ele><time>2026-04-25T16:05:59.36Z</time></trkpt><trkpt lat="38.0813428" lon="12.7560441"><ele>216.0</ele><time>2026-04-25T16:06:00.361Z</time></trkpt><trkpt lat="38.0815763" lon="12.7559806"><ele>202.5</ele><time>2026-04-25T16:06:01.359Z</time></trkpt><trkpt lat="38.0818162" lon="12.7559077"><ele>189.0</ele><time>2026-04-25T16:06:02.36Z</time></trkpt><trkpt lat="38.0820445" lon="12.7558445"><ele>189.0</ele><time>2026-04-25T16:06:03.36Z</time></trkpt><trkpt lat="38.082272" lon="12.7557782"><ele>189.0</ele><time>2026-04-25T16:06:04.359Z</time></trkpt><trkpt lat="38.0824983" lon="12.7557099"><ele>190.5</ele><time>2026-04-25T16:06:05.36Z</time></trkpt><trkpt lat="38.0827186" lon="12.7556455"><ele>192.0</ele><time>2026-04-25T16:06:06.36Z</time></trkpt><trkpt lat="38.0829372" lon="12.7555794"><ele>192.0</ele><time>2026-04-25T16:06:07.359Z</time></trkpt><trkpt lat="38.0831529" lon="12.7555116"><ele>192.0</ele><time>2026-04-25T16:06:08.36Z</time></trkpt><trkpt lat="38.083368" lon="12.7554434"><ele>192.0</ele><time>2026-04-25T16:06:09.359Z</time></trkpt><trkpt lat="38.0835829" lon="12.755374"><ele>193.0</ele><time>2026-04-25T16:06:10.36Z</time></trkpt><trkpt lat="38.0837958" lon="12.755302"><ele>194.0</ele><time>2026-04-25T16:06:11.359Z</time></trkpt><trkpt lat="38.0840071" lon="12.7552337"><ele>195.0</ele><time>2026-04-25T16:06:12.36Z</time></trkpt><trkpt lat="38.0842254" lon="12.755161"><ele>189.0</ele><time>2026-04-25T16:06:13.36Z</time></trkpt><trkpt lat="38.0844396" lon="12.7550821"><ele>183.0</ele><time>2026-04-25T16:06:14.36Z</time></trkpt><trkpt lat="38.0846501" lon="12.7550124"><ele>177.0</ele><time>2026-04-25T16:06:15.36Z</time></trkpt><trkpt lat="38.0848634" lon="12.7549396"><ele>177.66666666666666</ele><time>2026-04-25T16:06:16.36Z</time></trkpt><trkpt lat="38.0850725" lon="12.754867"><ele>178.33333333333331</ele><time>2026-04-25T16:06:17.36Z</time></trkpt><trkpt lat="38.0852878" lon="12.7547942"><ele>179.0</ele><time>2026-04-25T16:06:18.36Z</time></trkpt><trkpt lat="38.0854982" lon="12.7547174"><ele>179.0</ele><time>2026-04-25T16:06:19.361Z</time></trkpt><trkpt lat="38.0857112" lon="12.7546434"><ele>179.0</ele><time>2026-04-25T16:06:20.36Z</time></trkpt><trkpt lat="38.0859201" lon="12.7545664"><ele>179.0</ele><time>2026-04-25T16:06:21.36Z</time></trkpt><trkpt lat="38.0861324" lon="12.7544931"><ele>178.0</ele><time>2026-04-25T16:06:22.36Z</time></trkpt><trkpt lat="38.0863437" lon="12.754414"><ele>177.0</ele><time>2026-04-25T16:06:23.36Z</time></trkpt><trkpt lat="38.0865466" lon="12.7543282"><ele>176.0</ele><time>2026-04-25T16:06:24.36Z</time></trkpt><trkpt lat="38.0867543" lon="12.7542307"><ele>176.0</ele><time>2026-04-25T16:06:25.36Z</time></trkpt><trkpt lat="38.0869542" lon="12.7541249"><ele>176.0</ele><time>2026-04-25T16:06:26.359Z</time></trkpt><trkpt lat="38.0871569" lon="12.7540146"><ele>176.0</ele><time>2026-04-25T16:06:27.36Z</time></trkpt><trkpt lat="38.087358" lon="12.7538976"><ele>179.33333333333331</ele><time>2026-04-25T16:06:28.359Z</time></trkpt><trkpt lat="38.0875553" lon="12.7537709"><ele>182.66666666666666</ele><time>2026-04-25T16:06:29.361Z</time></trkpt><trkpt lat="38.0877488" lon="12.7536416"><ele>186.0</ele><time>2026-04-25T16:06:30.36Z</time></trkpt><trkpt lat="38.0879393" lon="12.7535033"><ele>183.66666666666666</ele><time>2026-04-25T16:06:31.36Z</time></trkpt><trkpt lat="38.088124" lon="12.7533652"><ele>181.33333333333331</ele><time>2026-04-25T16:06:32.36Z</time></trkpt><trkpt lat="38.0883039" lon="12.7532175"><ele>179.0</ele><time>2026-04-25T16:06:33.36Z</time></trkpt><trkpt lat="38.0884815" lon="12.7530599"><ele>179.0</ele><time>2026-04-25T16:06:34.36Z</time></trkpt><trkpt lat="38.0886555" lon="12.7528964"><ele>179.0</ele><time>2026-04-25T16:06:35.36Z</time></trkpt><trkpt lat="38.0888281" lon="12.7527347"><ele>179.0</ele><time>2026-04-25T16:06:36.361Z</time></trkpt><trkpt lat="38.088996" lon="12.7525694"><ele>176.0</ele><time>2026-04-25T16:06:37.36Z</time></trkpt><trkpt lat="38.0891684" lon="12.7524044"><ele>173.0</ele><time>2026-04-25T16:06:38.36Z</time></trkpt><trkpt lat="38.0893429" lon="12.7522363"><ele>170.0</ele><time>2026-04-25T16:06:39.359Z</time></trkpt><trkpt lat="38.0895172" lon="12.7520729"><ele>170.0</ele><time>2026-04-25T16:06:40.36Z</time></trkpt><trkpt lat="38.0896932" lon="12.7519059"><ele>170.0</ele><time>2026-04-25T16:06:41.359Z</time></trkpt><trkpt lat="38.0898664" lon="12.7517356"><ele>170.0</ele><time>2026-04-25T16:06:42.36Z</time></trkpt><trkpt lat="38.0900356" lon="12.7515671"><ele>165.33333333333331</ele><time>2026-04-25T16:06:43.36Z</time></trkpt><trkpt lat="38.0902029" lon="12.7513979"><ele>160.66666666666666</ele><time>2026-04-25T16:06:44.36Z</time></trkpt><trkpt lat="38.0903577" lon="12.7512086"><ele>156.0</ele><time>2026-04-25T16:06:45.36Z</time></trkpt><trkpt lat="38.0904942" lon="12.7510203"><ele>155.33333333333334</ele><time>2026-04-25T16:06:46.359Z</time></trkpt><trkpt lat="38.0906216" lon="12.7508028"><ele>154.66666666666669</ele><time>2026-04-25T16:06:47.36Z</time></trkpt><trkpt lat="38.0907337" lon="12.7505794"><ele>154.0</ele><time>2026-04-25T16:06:48.359Z</time></trkpt><trkpt lat="38.0908274" lon="12.7503413"><ele>149.66666666666669</ele><time>2026-04-25T16:06:49.36Z</time></trkpt><trkpt lat="38.0909131" lon="12.7501067"><ele>145.33333333333334</ele><time>2026-04-25T16:06:50.36Z</time></trkpt><trkpt lat="38.0909956" lon="12.7498787"><ele>141.0</ele><time>2026-04-25T16:06:51.361Z</time></trkpt><trkpt lat="38.0910716" lon="12.7496555"><ele>141.0</ele><time>2026-04-25T16:06:52.36Z</time></trkpt><trkpt lat="38.091137" lon="12.7494381"><ele>141.0</ele><time>2026-04-25T16:06:53.359Z</time></trkpt><trkpt lat="38.0912122" lon="12.7492282"><ele>141.0</ele><time>2026-04-25T16:06:54.359Z</time></trkpt><trkpt lat="38.0912763" lon="12.7490307"><ele>138.33333333333334</ele><time>2026-04-25T16:06:55.36Z</time></trkpt><trkpt lat="38.0913417" lon="12.7488339"><ele>135.66666666666669</ele><time>2026-04-25T16:06:56.36Z</time></trkpt><trkpt lat="38.0914105" lon="12.7486518"><ele>133.0</ele><time>2026-04-25T16:06:57.359Z</time></trkpt><trkpt lat="38.0914746" lon="12.7484874"><ele>133.66666666666669</ele><time>2026-04-25T16:06:58.36Z</time></trkpt><trkpt lat="38.0916042" lon="12.7482178"><ele>134.33333333333334</ele><time>2026-04-25T16:07:00.361Z</time></trkpt><trkpt lat="38.091667" lon="12.7480915"><ele>135.0</ele><time>2026-04-25T16:07:01.36Z</time></trkpt><trkpt lat="38.0917301" lon="12.747967"><ele>135.0</ele><time>2026-04-25T16:07:02.36Z</time></trkpt><trkpt lat="38.0917861" lon="12.747862"><ele>135.0</ele><time>2026-04-25T16:07:03.36Z</time></trkpt><trkpt lat="38.0918359" lon="12.7477615"><ele>135.0</ele><time>2026-04-25T16:07:04.36Z</time></trkpt><trkpt lat="38.0918817" lon="12.7476604"><ele>135.0</ele><time>2026-04-25T16:07:05.36Z</time></trkpt><trkpt lat="38.091926" lon="12.7475593"><ele>135.0</ele><time>2026-04-25T16:07:06.361Z</time></trkpt><trkpt lat="38.091971" lon="12.7474574"><ele>133.2</ele><time>2026-04-25T16:07:07.36Z</time></trkpt><trkpt lat="38.0920211" lon="12.7473528"><ele>131.4</ele><time>2026-04-25T16:07:08.36Z</time></trkpt><trkpt lat="38.0920661" lon="12.7472438"><ele>129.6</ele><time>2026-04-25T16:07:09.36Z</time></trkpt><trkpt lat="38.0921144" lon="12.7471411"><ele>127.8</ele><time>2026-04-25T16:07:10.36Z</time></trkpt><trkpt lat="38.0921651" lon="12.7470365"><ele>126.0</ele><time>2026-04-25T16:07:11.36Z</time></trkpt><trkpt lat="38.0922206" lon="12.7469302"><ele>124.75</ele><time>2026-04-25T16:07:12.36Z</time></trkpt><trkpt lat="38.0922744" lon="12.7468149"><ele>123.5</ele><time>2026-04-25T16:07:13.36Z</time></trkpt><trkpt lat="38.0923322" lon="12.7466951"><ele>122.25</ele><time>2026-04-25T16:07:14.36Z</time></trkpt><trkpt lat="38.0924016" lon="12.7465553"><ele>121.0</ele><time>2026-04-25T16:07:15.361Z</time></trkpt><trkpt lat="38.0924649" lon="12.7464238"><ele>121.0</ele><time>2026-04-25T16:07:16.36Z</time></trkpt><trkpt lat="38.0925299" lon="12.7462939"><ele>121.0</ele><time>2026-04-25T16:07:17.36Z</time></trkpt><trkpt lat="38.0925884" lon="12.7461846"><ele>121.0</ele><time>2026-04-25T16:07:18.36Z</time></trkpt><trkpt lat="38.0926347" lon="12.7460871"><ele>121.0</ele><time>2026-04-25T16:07:19.36Z</time></trkpt><trkpt lat="38.0926902" lon="12.7459894"><ele>121.0</ele><time>2026-04-25T16:07:20.36Z</time></trkpt><trkpt lat="38.092749" lon="12.7458896"><ele>120.19999999999999</ele><time>2026-04-25T16:07:21.36Z</time></trkpt><trkpt lat="38.0928164" lon="12.7457895"><ele>119.39999999999999</ele><time>2026-04-25T16:07:22.359Z</time></trkpt><trkpt lat="38.0928937" lon="12.7456862"><ele>118.6</ele><time>2026-04-25T16:07:23.361Z</time></trkpt><trkpt lat="38.0929716" lon="12.7455836"><ele>117.8</ele><time>2026-04-25T16:07:24.361Z</time></trkpt><trkpt lat="38.0930557" lon="12.7454757"><ele>117.0</ele><time>2026-04-25T16:07:25.36Z</time></trkpt><trkpt lat="38.0931457" lon="12.745374"><ele>117.0</ele><time>2026-04-25T16:07:26.36Z</time></trkpt><trkpt lat="38.0932355" lon="12.7452669"><ele>117.0</ele><time>2026-04-25T16:07:27.362Z</time></trkpt><trkpt lat="38.0933288" lon="12.7451622"><ele>117.0</ele><time>2026-04-25T16:07:28.36Z</time></trkpt><trkpt lat="38.0934224" lon="12.7450551"><ele>117.0</ele><time>2026-04-25T16:07:29.36Z</time></trkpt><trkpt lat="38.0935175" lon="12.7449472"><ele>115.75</ele><time>2026-04-25T16:07:30.359Z</time></trkpt><trkpt lat="38.0936124" lon="12.7448387"><ele>114.5</ele><time>2026-04-25T16:07:31.361Z</time></trkpt><trkpt lat="38.0937101" lon="12.7447295"><ele>113.25</ele><time>2026-04-25T16:07:32.361Z</time></trkpt><trkpt lat="38.0938053" lon="12.7446124"><ele>112.0</ele><time>2026-04-25T16:07:33.36Z</time></trkpt><trkpt lat="38.0938992" lon="12.7444999"><ele>112.0</ele><time>2026-04-25T16:07:34.36Z</time></trkpt><trkpt lat="38.0939948" lon="12.7443823"><ele>112.0</ele><time>2026-04-25T16:07:35.36Z</time></trkpt><trkpt lat="38.0940846" lon="12.7442676"><ele>112.0</ele><time>2026-04-25T16:07:36.36Z</time></trkpt><trkpt lat="38.0941854" lon="12.7441518"><ele>112.0</ele><time>2026-04-25T16:07:37.36Z</time></trkpt><trkpt lat="38.0942751" lon="12.7440423"><ele>110.5</ele><time>2026-04-25T16:07:38.362Z</time></trkpt><trkpt lat="38.0943633" lon="12.7439331"><ele>109.0</ele><time>2026-04-25T16:07:39.36Z</time></trkpt><trkpt lat="38.0944587" lon="12.7438258"><ele>107.5</ele><time>2026-04-25T16:07:40.36Z</time></trkpt><trkpt lat="38.0945547" lon="12.7437209"><ele>106.0</ele><time>2026-04-25T16:07:41.36Z</time></trkpt><trkpt lat="38.0946472" lon="12.74362"><ele>105.75</ele><time>2026-04-25T16:07:42.361Z</time></trkpt><trkpt lat="38.09474" lon="12.7435155"><ele>105.5</ele><time>2026-04-25T16:07:43.36Z</time></trkpt><trkpt lat="38.0948295" lon="12.7434076"><ele>105.25</ele><time>2026-04-25T16:07:44.36Z</time></trkpt><trkpt lat="38.0949224" lon="12.7433085"><ele>105.0</ele><time>2026-04-25T16:07:45.36Z</time></trkpt><trkpt lat="38.0950164" lon="12.7431993"><ele>104.5</ele><time>2026-04-25T16:07:46.36Z</time></trkpt><trkpt lat="38.0951147" lon="12.7430831"><ele>104.0</ele><time>2026-04-25T16:07:47.361Z</time></trkpt><trkpt lat="38.0952112" lon="12.7429736"><ele>103.5</ele><time>2026-04-25T16:07:48.361Z</time></trkpt><trkpt lat="38.095306" lon="12.7428638"><ele>103.0</ele><time>2026-04-25T16:07:49.36Z</time></trkpt><trkpt lat="38.095398" lon="12.7427546"><ele>102.25</ele><time>2026-04-25T16:07:50.36Z</time></trkpt><trkpt lat="38.0954928" lon="12.7426444"><ele>101.5</ele><time>2026-04-25T16:07:51.36Z</time></trkpt><trkpt lat="38.0955829" lon="12.7425365"><ele>100.75</ele><time>2026-04-25T16:07:52.36Z</time></trkpt><trkpt lat="38.0956772" lon="12.7424194"><ele>100.0</ele><time>2026-04-25T16:07:53.36Z</time></trkpt><trkpt lat="38.0957684" lon="12.7423067"><ele>99.5</ele><time>2026-04-25T16:07:54.361Z</time></trkpt><trkpt lat="38.0958639" lon="12.7421953"><ele>99.0</ele><time>2026-04-25T16:07:55.36Z</time></trkpt><trkpt lat="38.0959598" lon="12.7420825"><ele>98.5</ele><time>2026-04-25T16:07:56.36Z</time></trkpt><trkpt lat="38.0960574" lon="12.7419644"><ele>98.0</ele><time>2026-04-25T16:07:57.36Z</time></trkpt><trkpt lat="38.0961581" lon="12.7418383"><ele>97.5</ele><time>2026-04-25T16:07:58.361Z</time></trkpt><trkpt lat="38.096261" lon="12.7417169"><ele>97.0</ele><time>2026-04-25T16:07:59.36Z</time></trkpt><trkpt lat="38.0963596" lon="12.7416001"><ele>96.5</ele><time>2026-04-25T16:08:00.36Z</time></trkpt><trkpt lat="38.096461" lon="12.7414731"><ele>96.0</ele><time>2026-04-25T16:08:01.36Z</time></trkpt><trkpt lat="38.0965651" lon="12.7413384"><ele>95.0</ele><time>2026-04-25T16:08:02.361Z</time></trkpt><trkpt lat="38.0966703" lon="12.7412165"><ele>94.0</ele><time>2026-04-25T16:08:03.36Z</time></trkpt><trkpt lat="38.0967789" lon="12.7410872"><ele>93.0</ele><time>2026-04-25T16:08:04.361Z</time></trkpt><trkpt lat="38.0968873" lon="12.7409521"><ele>92.0</ele><time>2026-04-25T16:08:05.361Z</time></trkpt><trkpt lat="38.0969918" lon="12.7408235"><ele>92.0</ele><time>2026-04-25T16:08:06.36Z</time></trkpt><trkpt lat="38.0971016" lon="12.7406953"><ele>92.0</ele><time>2026-04-25T16:08:07.36Z</time></trkpt><trkpt lat="38.0972012" lon="12.7405704"><ele>92.0</ele><time>2026-04-25T16:08:08.36Z</time></trkpt><trkpt lat="38.0973018" lon="12.7404477"><ele>92.0</ele><time>2026-04-25T16:08:09.361Z</time></trkpt><trkpt lat="38.0974013" lon="12.7403258"><ele>90.5</ele><time>2026-04-25T16:08:10.36Z</time></trkpt><trkpt lat="38.0974985" lon="12.7402023"><ele>89.0</ele><time>2026-04-25T16:08:11.36Z</time></trkpt><trkpt lat="38.0975954" lon="12.7400821"><ele>87.5</ele><time>2026-04-25T16:08:12.36Z</time></trkpt><trkpt lat="38.0976911" lon="12.7399657"><ele>86.0</ele><time>2026-04-25T16:08:13.359Z</time></trkpt><trkpt lat="38.0977916" lon="12.7398482"><ele>86.0</ele><time>2026-04-25T16:08:14.362Z</time></trkpt><trkpt lat="38.097893" lon="12.7397252"><ele>86.0</ele><time>2026-04-25T16:08:15.359Z</time></trkpt><trkpt lat="38.0979915" lon="12.7396092"><ele>86.0</ele><time>2026-04-25T16:08:16.361Z</time></trkpt><trkpt lat="38.0980882" lon="12.7394834"><ele>86.0</ele><time>2026-04-25T16:08:17.36Z</time></trkpt><trkpt lat="38.0981935" lon="12.7393641"><ele>84.75</ele><time>2026-04-25T16:08:18.359Z</time></trkpt><trkpt lat="38.0982929" lon="12.7392425"><ele>83.5</ele><time>2026-04-25T16:08:19.361Z</time></trkpt><trkpt lat="38.0983911" lon="12.7391272"><ele>82.25</ele><time>2026-04-25T16:08:20.36Z</time></trkpt><trkpt lat="38.0984922" lon="12.7390075"><ele>81.0</ele><time>2026-04-25T16:08:21.36Z</time></trkpt><trkpt lat="38.0985924" lon="12.7388848"><ele>81.0</ele><time>2026-04-25T16:08:22.36Z</time></trkpt><trkpt lat="38.09869" lon="12.7387685"><ele>81.0</ele><time>2026-04-25T16:08:23.361Z</time></trkpt><trkpt lat="38.0987879" lon="12.7386502"><ele>81.0</ele><time>2026-04-25T16:08:24.36Z</time></trkpt><trkpt lat="38.0988875" lon="12.7385329"><ele>81.0</ele><time>2026-04-25T16:08:25.361Z</time></trkpt><trkpt lat="38.0989939" lon="12.7384059"><ele>80.0</ele><time>2026-04-25T16:08:26.361Z</time></trkpt><trkpt lat="38.0990902" lon="12.7382825"><ele>79.0</ele><time>2026-04-25T16:08:27.361Z</time></trkpt><trkpt lat="38.099187" lon="12.7381615"><ele>78.0</ele><time>2026-04-25T16:08:28.36Z</time></trkpt><trkpt lat="38.0992878" lon="12.7380373"><ele>77.0</ele><time>2026-04-25T16:08:29.361Z</time></trkpt><trkpt lat="38.0993894" lon="12.7379135"><ele>77.0</ele><time>2026-04-25T16:08:30.36Z</time></trkpt><trkpt lat="38.0994868" lon="12.7377935"><ele>77.0</ele><time>2026-04-25T16:08:31.36Z</time></trkpt><trkpt lat="38.0995846" lon="12.7376806"><ele>77.0</ele><time>2026-04-25T16:08:32.361Z</time></trkpt><trkpt lat="38.0996831" lon="12.7375573"><ele>77.0</ele><time>2026-04-25T16:08:33.361Z</time></trkpt><trkpt lat="38.0997772" lon="12.7374404"><ele>76.75</ele><time>2026-04-25T16:08:34.36Z</time></trkpt><trkpt lat="38.0998737" lon="12.7373254"><ele>76.5</ele><time>2026-04-25T16:08:35.36Z</time></trkpt><trkpt lat="38.099969" lon="12.73721"><ele>76.25</ele><time>2026-04-25T16:08:36.361Z</time></trkpt><trkpt lat="38.1000671" lon="12.73709"><ele>76.0</ele><time>2026-04-25T16:08:37.36Z</time></trkpt><trkpt lat="38.1001628" lon="12.7369706"><ele>75.25</ele><time>2026-04-25T16:08:38.361Z</time></trkpt><trkpt lat="38.1002532" lon="12.7368584"><ele>74.5</ele><time>2026-04-25T16:08:39.361Z</time></trkpt><trkpt lat="38.1003412" lon="12.7367481"><ele>73.75</ele><time>2026-04-25T16:08:40.36Z</time></trkpt><trkpt lat="38.1004275" lon="12.7366382"><ele>73.0</ele><time>2026-04-25T16:08:41.36Z</time></trkpt><trkpt lat="38.1005144" lon="12.7365346"><ele>73.0</ele><time>2026-04-25T16:08:42.362Z</time></trkpt><trkpt lat="38.1006021" lon="12.7364319"><ele>73.0</ele><time>2026-04-25T16:08:43.361Z</time></trkpt><trkpt lat="38.1006934" lon="12.7363212"><ele>73.0</ele><time>2026-04-25T16:08:44.36Z</time></trkpt><trkpt lat="38.1007865" lon="12.7362121"><ele>73.0</ele><time>2026-04-25T16:08:45.36Z</time></trkpt><trkpt lat="38.1008751" lon="12.7361022"><ele>72.25</ele><time>2026-04-25T16:08:46.359Z</time></trkpt><trkpt lat="38.100958" lon="12.7359991"><ele>71.5</ele><time>2026-04-25T16:08:47.361Z</time></trkpt><trkpt lat="38.1010397" lon="12.73589"><ele>70.75</ele><time>2026-04-25T16:08:48.36Z</time></trkpt><trkpt lat="38.1011208" lon="12.735791"><ele>70.0</ele><time>2026-04-25T16:08:49.36Z</time></trkpt><trkpt lat="38.1012109" lon="12.7356858"><ele>70.0</ele><time>2026-04-25T16:08:50.36Z</time></trkpt><trkpt lat="38.1013014" lon="12.735605"><ele>70.0</ele><time>2026-04-25T16:08:51.36Z</time></trkpt><trkpt lat="38.1014098" lon="12.7355327"><ele>70.0</ele><time>2026-04-25T16:08:52.36Z</time></trkpt><trkpt lat="38.1015269" lon="12.7354853"><ele>70.0</ele><time>2026-04-25T16:08:53.36Z</time></trkpt><trkpt lat="38.1016555" lon="12.7354449"><ele>69.0</ele><time>2026-04-25T16:08:54.361Z</time></trkpt><trkpt lat="38.1017892" lon="12.7354141"><ele>68.0</ele><time>2026-04-25T16:08:55.36Z</time></trkpt><trkpt lat="38.1019183" lon="12.7353922"><ele>67.0</ele><time>2026-04-25T16:08:56.361Z</time></trkpt><trkpt lat="38.1020513" lon="12.7353753"><ele>66.0</ele><time>2026-04-25T16:08:57.361Z</time></trkpt><trkpt lat="38.1021969" lon="12.7353551"><ele>66.0</ele><time>2026-04-25T16:08:58.361Z</time></trkpt><trkpt lat="38.102329" lon="12.7353411"><ele>66.0</ele><time>2026-04-25T16:08:59.36Z</time></trkpt><trkpt lat="38.1024585" lon="12.7353304"><ele>66.0</ele><time>2026-04-25T16:09:00.36Z</time></trkpt><trkpt lat="38.1025823" lon="12.7353178"><ele>66.0</ele><time>2026-04-25T16:09:01.361Z</time></trkpt><trkpt lat="38.1026999" lon="12.7353013"><ele>65.25</ele><time>2026-04-25T16:09:02.361Z</time></trkpt><trkpt lat="38.1028101" lon="12.735292"><ele>64.5</ele><time>2026-04-25T16:09:03.36Z</time></trkpt><trkpt lat="38.1029307" lon="12.7352741"><ele>63.75</ele><time>2026-04-25T16:09:04.361Z</time></trkpt><trkpt lat="38.1030514" lon="12.7352628"><ele>63.0</ele><time>2026-04-25T16:09:05.36Z</time></trkpt><trkpt lat="38.1031855" lon="12.7352455"><ele>62.75</ele><time>2026-04-25T16:09:06.361Z</time></trkpt><trkpt lat="38.1033179" lon="12.7352365"><ele>62.5</ele><time>2026-04-25T16:09:07.359Z</time></trkpt><trkpt lat="38.1034542" lon="12.7352228"><ele>62.25</ele><time>2026-04-25T16:09:08.361Z</time></trkpt><trkpt lat="38.1035883" lon="12.7352116"><ele>62.0</ele><time>2026-04-25T16:09:09.36Z</time></trkpt><trkpt lat="38.103718" lon="12.7351935"><ele>61.75</ele><time>2026-04-25T16:09:10.36Z</time></trkpt><trkpt lat="38.1038519" lon="12.7351787"><ele>61.5</ele><time>2026-04-25T16:09:11.36Z</time></trkpt><trkpt lat="38.1039868" lon="12.7351641"><ele>61.25</ele><time>2026-04-25T16:09:12.361Z</time></trkpt><trkpt lat="38.1041137" lon="12.7351492"><ele>61.0</ele><time>2026-04-25T16:09:13.36Z</time></trkpt><trkpt lat="38.1042247" lon="12.7351328"><ele>60.0</ele><time>2026-04-25T16:09:14.361Z</time></trkpt><trkpt lat="38.1043348" lon="12.7351226"><ele>59.0</ele><time>2026-04-25T16:09:15.361Z</time></trkpt><trkpt lat="38.104448" lon="12.7351082"><ele>58.0</ele><time>2026-04-25T16:09:16.362Z</time></trkpt><trkpt lat="38.1045636" lon="12.7350927"><ele>57.0</ele><time>2026-04-25T16:09:17.36Z</time></trkpt><trkpt lat="38.1046851" lon="12.7350769"><ele>57.0</ele><time>2026-04-25T16:09:18.359Z</time></trkpt><trkpt lat="38.1048089" lon="12.7350635"><ele>57.0</ele><time>2026-04-25T16:09:19.361Z</time></trkpt><trkpt lat="38.1049343" lon="12.7350502"><ele>57.0</ele><time>2026-04-25T16:09:20.36Z</time></trkpt><trkpt lat="38.1050659" lon="12.7350355"><ele>57.0</ele><time>2026-04-25T16:09:21.36Z</time></trkpt><trkpt lat="38.1051996" lon="12.7350215"><ele>56.5</ele><time>2026-04-25T16:09:22.36Z</time></trkpt><trkpt lat="38.1053339" lon="12.7350068"><ele>56.0</ele><time>2026-04-25T16:09:23.361Z</time></trkpt><trkpt lat="38.1054719" lon="12.7349964"><ele>55.5</ele><time>2026-04-25T16:09:24.361Z</time></trkpt><trkpt lat="38.1056104" lon="12.7349825"><ele>55.0</ele><time>2026-04-25T16:09:25.361Z</time></trkpt><trkpt lat="38.1057443" lon="12.7349714"><ele>54.75</ele><time>2026-04-25T16:09:26.36Z</time></trkpt><trkpt lat="38.1058801" lon="12.7349625"><ele>54.5</ele><time>2026-04-25T16:09:27.361Z</time></trkpt><trkpt lat="38.1060128" lon="12.7349519"><ele>54.25</ele><time>2026-04-25T16:09:28.361Z</time></trkpt><trkpt lat="38.1061523" lon="12.7349469"><ele>54.0</ele><time>2026-04-25T16:09:29.359Z</time></trkpt><trkpt lat="38.106283" lon="12.7349533"><ele>54.0</ele><time>2026-04-25T16:09:30.361Z</time></trkpt><trkpt lat="38.1064151" lon="12.7349659"><ele>54.0</ele><time>2026-04-25T16:09:31.36Z</time></trkpt><trkpt lat="38.1065439" lon="12.7349765"><ele>54.0</ele><time>2026-04-25T16:09:32.36Z</time></trkpt><trkpt lat="38.10666" lon="12.7349877"><ele>54.0</ele><time>2026-04-25T16:09:33.361Z</time></trkpt><trkpt lat="38.1067626" lon="12.7349976"><ele>53.800000000000004</ele><time>2026-04-25T16:09:34.36Z</time></trkpt><trkpt lat="38.1068615" lon="12.7350121"><ele>53.60000000000001</ele><time>2026-04-25T16:09:35.36Z</time></trkpt><trkpt lat="38.1069628" lon="12.7350253"><ele>53.4</ele><time>2026-04-25T16:09:36.36Z</time></trkpt><trkpt lat="38.1070776" lon="12.7350404"><ele>53.2</ele><time>2026-04-25T16:09:37.36Z</time></trkpt><trkpt lat="38.1071923" lon="12.7350562"><ele>53.0</ele><time>2026-04-25T16:09:38.361Z</time></trkpt><trkpt lat="38.107317" lon="12.7350747"><ele>52.0</ele><time>2026-04-25T16:09:39.361Z</time></trkpt><trkpt lat="38.1074343" lon="12.7350908"><ele>51.0</ele><time>2026-04-25T16:09:40.36Z</time></trkpt><trkpt lat="38.1075645" lon="12.7351091"><ele>50.0</ele><time>2026-04-25T16:09:41.361Z</time></trkpt><trkpt lat="38.107692" lon="12.7351208"><ele>49.0</ele><time>2026-04-25T16:09:42.361Z</time></trkpt><trkpt lat="38.1078198" lon="12.7351276"><ele>49.0</ele><time>2026-04-25T16:09:43.36Z</time></trkpt><trkpt lat="38.1079576" lon="12.7351283"><ele>49.0</ele><time>2026-04-25T16:09:44.361Z</time></trkpt><trkpt lat="38.108093" lon="12.7351216"><ele>49.0</ele><time>2026-04-25T16:09:45.362Z</time></trkpt><trkpt lat="38.1082261" lon="12.7351097"><ele>49.0</ele><time>2026-04-25T16:09:46.36Z</time></trkpt><trkpt lat="38.1083669" lon="12.7350943"><ele>48.75</ele><time>2026-04-25T16:09:47.362Z</time></trkpt><trkpt lat="38.1085106" lon="12.7350813"><ele>48.5</ele><time>2026-04-25T16:09:48.36Z</time></trkpt><trkpt lat="38.1086464" lon="12.7350602"><ele>48.25</ele><time>2026-04-25T16:09:49.361Z</time></trkpt><trkpt lat="38.1087784" lon="12.7350367"><ele>48.0</ele><time>2026-04-25T16:09:50.36Z</time></trkpt><trkpt lat="38.1089157" lon="12.7350148"><ele>48.0</ele><time>2026-04-25T16:09:51.362Z</time></trkpt><trkpt lat="38.1090577" lon="12.7349983"><ele>48.0</ele><time>2026-04-25T16:09:52.361Z</time></trkpt><trkpt lat="38.1091924" lon="12.7349815"><ele>48.0</ele><time>2026-04-25T16:09:53.361Z</time></trkpt><trkpt lat="38.1093259" lon="12.7349591"><ele>48.0</ele><time>2026-04-25T16:09:54.361Z</time></trkpt><trkpt lat="38.1094561" lon="12.734945"><ele>47.75</ele><time>2026-04-25T16:09:55.362Z</time></trkpt><trkpt lat="38.1095754" lon="12.7349284"><ele>47.5</ele><time>2026-04-25T16:09:56.36Z</time></trkpt><trkpt lat="38.1096856" lon="12.7349111"><ele>47.25</ele><time>2026-04-25T16:09:57.361Z</time></trkpt><trkpt lat="38.1097927" lon="12.7348869"><ele>47.0</ele><time>2026-04-25T16:09:58.361Z</time></trkpt><trkpt lat="38.1099051" lon="12.7348685"><ele>47.0</ele><time>2026-04-25T16:09:59.361Z</time></trkpt><trkpt lat="38.110025" lon="12.734857"><ele>47.0</ele><time>2026-04-25T16:10:00.361Z</time></trkpt><trkpt lat="38.1101545" lon="12.7348489"><ele>47.0</ele><time>2026-04-25T16:10:01.361Z</time></trkpt><trkpt lat="38.1102813" lon="12.73484"><ele>47.0</ele><time>2026-04-25T16:10:02.361Z</time></trkpt><trkpt lat="38.1104095" lon="12.7348247"><ele>47.0</ele><time>2026-04-25T16:10:03.361Z</time></trkpt><trkpt lat="38.1105378" lon="12.7348135"><ele>47.0</ele><time>2026-04-25T16:10:04.36Z</time></trkpt><trkpt lat="38.1106566" lon="12.7347982"><ele>47.0</ele><time>2026-04-25T16:10:05.361Z</time></trkpt><trkpt lat="38.1107784" lon="12.7347831"><ele>47.0</ele><time>2026-04-25T16:10:06.362Z</time></trkpt><trkpt lat="38.1108831" lon="12.7347782"><ele>46.6</ele><time>2026-04-25T16:10:07.36Z</time></trkpt><trkpt lat="38.1109967" lon="12.7347632"><ele>46.2</ele><time>2026-04-25T16:10:08.36Z</time></trkpt><trkpt lat="38.1111016" lon="12.7347508"><ele>45.8</ele><time>2026-04-25T16:10:09.361Z</time></trkpt><trkpt lat="38.1112068" lon="12.7347392"><ele>45.4</ele><time>2026-04-25T16:10:10.36Z</time></trkpt><trkpt lat="38.111307" lon="12.734725"><ele>45.0</ele><time>2026-04-25T16:10:11.361Z</time></trkpt><trkpt lat="38.1114028" lon="12.7347073"><ele>45.0</ele><time>2026-04-25T16:10:12.362Z</time></trkpt><trkpt lat="38.111486" lon="12.7346949"><ele>45.0</ele><time>2026-04-25T16:10:13.361Z</time></trkpt><trkpt lat="38.1115608" lon="12.7346875"><ele>45.0</ele><time>2026-04-25T16:10:14.361Z</time></trkpt><trkpt lat="38.1116718" lon="12.7346818"><ele>45.0</ele><time>2026-04-25T16:10:16.359Z</time></trkpt><trkpt lat="38.1117622" lon="12.7346711"><ele>45.0</ele><time>2026-04-25T16:10:18.361Z</time></trkpt><trkpt lat="38.1118513" lon="12.7346722"><ele>44.75</ele><time>2026-04-25T16:10:20.362Z</time></trkpt><trkpt lat="38.1119821" lon="12.7346503"><ele>44.5</ele><time>2026-04-25T16:10:22.361Z</time></trkpt><trkpt lat="38.112074" lon="12.7346312"><ele>44.25</ele><time>2026-04-25T16:10:23.36Z</time></trkpt><trkpt lat="38.1121815" lon="12.7346095"><ele>44.0</ele><time>2026-04-25T16:10:24.361Z</time></trkpt><trkpt lat="38.1122968" lon="12.7345967"><ele>44.0</ele><time>2026-04-25T16:10:25.361Z</time></trkpt><trkpt lat="38.1124166" lon="12.7345846"><ele>44.0</ele><time>2026-04-25T16:10:26.362Z</time></trkpt><trkpt lat="38.1125404" lon="12.7345789"><ele>44.0</ele><time>2026-04-25T16:10:27.36Z</time></trkpt><trkpt lat="38.1126725" lon="12.734566"><ele>44.0</ele><time>2026-04-25T16:10:28.361Z</time></trkpt><trkpt lat="38.1128027" lon="12.7345523"><ele>44.0</ele><time>2026-04-25T16:10:29.359Z</time></trkpt><trkpt lat="38.1129392" lon="12.7345371"><ele>44.0</ele><time>2026-04-25T16:10:30.36Z</time></trkpt><trkpt lat="38.113075" lon="12.7345208"><ele>44.0</ele><time>2026-04-25T16:10:31.361Z</time></trkpt><trkpt lat="38.1132117" lon="12.7345033"><ele>44.0</ele><time>2026-04-25T16:10:32.36Z</time></trkpt><trkpt lat="38.1133507" lon="12.7344862"><ele>43.5</ele><time>2026-04-25T16:10:33.361Z</time></trkpt><trkpt lat="38.1134878" lon="12.7344673"><ele>43.0</ele><time>2026-04-25T16:10:34.361Z</time></trkpt><trkpt lat="38.1136358" lon="12.7344445"><ele>42.5</ele><time>2026-04-25T16:10:35.362Z</time></trkpt><trkpt lat="38.1137772" lon="12.7344266"><ele>42.0</ele><time>2026-04-25T16:10:36.361Z</time></trkpt><trkpt lat="38.1139202" lon="12.7344054"><ele>41.5</ele><time>2026-04-25T16:10:37.361Z</time></trkpt><trkpt lat="38.1140636" lon="12.7343873"><ele>41.0</ele><time>2026-04-25T16:10:38.361Z</time></trkpt><trkpt lat="38.1142051" lon="12.7343682"><ele>40.5</ele><time>2026-04-25T16:10:39.361Z</time></trkpt><trkpt lat="38.1143541" lon="12.7343535"><ele>40.0</ele><time>2026-04-25T16:10:40.361Z</time></trkpt><trkpt lat="38.1145082" lon="12.7343315"><ele>39.333333333333336</ele><time>2026-04-25T16:10:41.361Z</time></trkpt><trkpt lat="38.1146805" lon="12.734315"><ele>38.666666666666664</ele><time>2026-04-25T16:10:42.362Z</time></trkpt><trkpt lat="38.1148494" lon="12.734293"><ele>38.0</ele><time>2026-04-25T16:10:43.36Z</time></trkpt><trkpt lat="38.1150251" lon="12.7342711"><ele>38.0</ele><time>2026-04-25T16:10:44.361Z</time></trkpt><trkpt lat="38.1151967" lon="12.734248"><ele>38.0</ele><time>2026-04-25T16:10:45.36Z</time></trkpt><trkpt lat="38.1153771" lon="12.7342343"><ele>38.0</ele><time>2026-04-25T16:10:46.362Z</time></trkpt><trkpt lat="38.1155536" lon="12.7342164"><ele>38.0</ele><time>2026-04-25T16:10:47.361Z</time></trkpt><trkpt lat="38.1157252" lon="12.734194"><ele>38.0</ele><time>2026-04-25T16:10:48.361Z</time></trkpt><trkpt lat="38.1159033" lon="12.7341723"><ele>38.0</ele><time>2026-04-25T16:10:49.361Z</time></trkpt><trkpt lat="38.1160695" lon="12.73415"><ele>37.33333333333333</ele><time>2026-04-25T16:10:50.361Z</time></trkpt><trkpt lat="38.1162355" lon="12.7341323"><ele>36.666666666666664</ele><time>2026-04-25T16:10:51.361Z</time></trkpt><trkpt lat="38.1164056" lon="12.7341137"><ele>36.0</ele><time>2026-04-25T16:10:52.359Z</time></trkpt><trkpt lat="38.1165721" lon="12.734092"><ele>36.0</ele><time>2026-04-25T16:10:53.361Z</time></trkpt><trkpt lat="38.1167385" lon="12.7340715"><ele>36.0</ele><time>2026-04-25T16:10:54.36Z</time></trkpt><trkpt lat="38.1169035" lon="12.7340568"><ele>36.0</ele><time>2026-04-25T16:10:55.361Z</time></trkpt><trkpt lat="38.1170735" lon="12.7340279"><ele>36.0</ele><time>2026-04-25T16:10:56.361Z</time></trkpt><trkpt lat="38.1172431" lon="12.734009"><ele>36.0</ele><time>2026-04-25T16:10:57.361Z</time></trkpt><trkpt lat="38.117413" lon="12.7339892"><ele>36.0</ele><time>2026-04-25T16:10:58.361Z</time></trkpt><trkpt lat="38.1175884" lon="12.7339708"><ele>35.666666666666664</ele><time>2026-04-25T16:10:59.361Z</time></trkpt><trkpt lat="38.1177547" lon="12.7339503"><ele>35.33333333333333</ele><time>2026-04-25T16:11:00.361Z</time></trkpt><trkpt lat="38.1179256" lon="12.7339296"><ele>35.0</ele><time>2026-04-25T16:11:01.361Z</time></trkpt><trkpt lat="38.1180956" lon="12.7339125"><ele>34.0</ele><time>2026-04-25T16:11:02.362Z</time></trkpt><trkpt lat="38.1182717" lon="12.7338837"><ele>33.0</ele><time>2026-04-25T16:11:03.361Z</time></trkpt><trkpt lat="38.1184445" lon="12.733862"><ele>32.0</ele><time>2026-04-25T16:11:04.361Z</time></trkpt><trkpt lat="38.1186187" lon="12.7338424"><ele>32.0</ele><time>2026-04-25T16:11:05.361Z</time></trkpt><trkpt lat="38.1187909" lon="12.7338187"><ele>32.0</ele><time>2026-04-25T16:11:06.361Z</time></trkpt><trkpt lat="38.118967" lon="12.7337932"><ele>32.0</ele><time>2026-04-25T16:11:07.361Z</time></trkpt><trkpt lat="38.119141" lon="12.7337725"><ele>31.0</ele><time>2026-04-25T16:11:08.361Z</time></trkpt><trkpt lat="38.1193075" lon="12.7337551"><ele>30.0</ele><time>2026-04-25T16:11:09.361Z</time></trkpt><trkpt lat="38.1194668" lon="12.7337356"><ele>29.0</ele><time>2026-04-25T16:11:10.361Z</time></trkpt><trkpt lat="38.1196218" lon="12.7337207"><ele>29.0</ele><time>2026-04-25T16:11:11.361Z</time></trkpt><trkpt lat="38.1197736" lon="12.7337005"><ele>29.0</ele><time>2026-04-25T16:11:12.361Z</time></trkpt><trkpt lat="38.1199255" lon="12.7336757"><ele>29.0</ele><time>2026-04-25T16:11:13.361Z</time></trkpt><trkpt lat="38.1200676" lon="12.7336595"><ele>29.0</ele><time>2026-04-25T16:11:14.361Z</time></trkpt><trkpt lat="38.1202053" lon="12.7336403"><ele>28.799999999999997</ele><time>2026-04-25T16:11:15.361Z</time></trkpt><trkpt lat="38.1203201" lon="12.7336249"><ele>28.599999999999998</ele><time>2026-04-25T16:11:16.361Z</time></trkpt><trkpt lat="38.1204287" lon="12.7336126"><ele>28.4</ele><time>2026-04-25T16:11:17.362Z</time></trkpt><trkpt lat="38.1205315" lon="12.7335993"><ele>28.2</ele><time>2026-04-25T16:11:18.362Z</time></trkpt><trkpt lat="38.1206347" lon="12.7335928"><ele>28.0</ele><time>2026-04-25T16:11:19.361Z</time></trkpt><trkpt lat="38.1207307" lon="12.7335801"><ele>27.4</ele><time>2026-04-25T16:11:20.362Z</time></trkpt><trkpt lat="38.1208273" lon="12.7335701"><ele>26.799999999999997</ele><time>2026-04-25T16:11:21.361Z</time></trkpt><trkpt lat="38.1209249" lon="12.7335569"><ele>26.2</ele><time>2026-04-25T16:11:22.361Z</time></trkpt><trkpt lat="38.1210216" lon="12.7335474"><ele>25.6</ele><time>2026-04-25T16:11:23.361Z</time></trkpt><trkpt lat="38.1211185" lon="12.7335341"><ele>25.0</ele><time>2026-04-25T16:11:24.361Z</time></trkpt><trkpt lat="38.1212152" lon="12.733518"><ele>25.0</ele><time>2026-04-25T16:11:25.36Z</time></trkpt><trkpt lat="38.1213206" lon="12.7334991"><ele>25.0</ele><time>2026-04-25T16:11:26.362Z</time></trkpt><trkpt lat="38.1214378" lon="12.7334796"><ele>25.0</ele><time>2026-04-25T16:11:27.361Z</time></trkpt><trkpt lat="38.1215623" lon="12.7334761"><ele>25.0</ele><time>2026-04-25T16:11:28.361Z</time></trkpt><trkpt lat="38.1216957" lon="12.7334674"><ele>25.0</ele><time>2026-04-25T16:11:29.36Z</time></trkpt><trkpt lat="38.1218265" lon="12.7334611"><ele>25.0</ele><time>2026-04-25T16:11:30.361Z</time></trkpt><trkpt lat="38.1219525" lon="12.7334427"><ele>25.0</ele><time>2026-04-25T16:11:31.362Z</time></trkpt><trkpt lat="38.1220803" lon="12.7334273"><ele>25.0</ele><time>2026-04-25T16:11:32.361Z</time></trkpt><trkpt lat="38.122207" lon="12.7334076"><ele>25.0</ele><time>2026-04-25T16:11:33.361Z</time></trkpt><trkpt lat="38.1223345" lon="12.7333946"><ele>25.0</ele><time>2026-04-25T16:11:34.361Z</time></trkpt><trkpt lat="38.1224487" lon="12.7333821"><ele>25.0</ele><time>2026-04-25T16:11:35.36Z</time></trkpt><trkpt lat="38.1225557" lon="12.7333678"><ele>25.0</ele><time>2026-04-25T16:11:36.362Z</time></trkpt><trkpt lat="38.1226601" lon="12.7333564"><ele>24.75</ele><time>2026-04-25T16:11:37.361Z</time></trkpt><trkpt lat="38.1227662" lon="12.7333431"><ele>24.5</ele><time>2026-04-25T16:11:38.361Z</time></trkpt><trkpt lat="38.1228834" lon="12.7333278"><ele>24.25</ele><time>2026-04-25T16:11:39.362Z</time></trkpt><trkpt lat="38.1230031" lon="12.7333186"><ele>24.0</ele><time>2026-04-25T16:11:40.362Z</time></trkpt><trkpt lat="38.1231345" lon="12.7333019"><ele>24.25</ele><time>2026-04-25T16:11:41.361Z</time></trkpt><trkpt lat="38.1232702" lon="12.7332834"><ele>24.5</ele><time>2026-04-25T16:11:42.36Z</time></trkpt><trkpt lat="38.1234143" lon="12.7332644"><ele>24.75</ele><time>2026-04-25T16:11:43.36Z</time></trkpt><trkpt lat="38.1235609" lon="12.7332452"><ele>25.0</ele><time>2026-04-25T16:11:44.36Z</time></trkpt><trkpt lat="38.1236997" lon="12.7332268"><ele>25.0</ele><time>2026-04-25T16:11:45.361Z</time></trkpt><trkpt lat="38.1238393" lon="12.7332156"><ele>25.0</ele><time>2026-04-25T16:11:46.361Z</time></trkpt><trkpt lat="38.1239838" lon="12.7331991"><ele>25.0</ele><time>2026-04-25T16:11:47.361Z</time></trkpt><trkpt lat="38.1241343" lon="12.7331824"><ele>25.0</ele><time>2026-04-25T16:11:48.361Z</time></trkpt><trkpt lat="38.1242829" lon="12.7331619"><ele>24.666666666666668</ele><time>2026-04-25T16:11:49.361Z</time></trkpt><trkpt lat="38.1244397" lon="12.7331487"><ele>24.333333333333336</ele><time>2026-04-25T16:11:50.361Z</time></trkpt><trkpt lat="38.124595" lon="12.7331336"><ele>24.0</ele><time>2026-04-25T16:11:51.362Z</time></trkpt><trkpt lat="38.1247532" lon="12.7331109"><ele>24.0</ele><time>2026-04-25T16:11:52.361Z</time></trkpt><trkpt lat="38.1249124" lon="12.7330812"><ele>24.0</ele><time>2026-04-25T16:11:53.36Z</time></trkpt><trkpt lat="38.1250729" lon="12.7330572"><ele>24.0</ele><time>2026-04-25T16:11:54.361Z</time></trkpt><trkpt lat="38.1252469" lon="12.7330325"><ele>24.0</ele><time>2026-04-25T16:11:55.361Z</time></trkpt><trkpt lat="38.1254166" lon="12.7330064"><ele>24.0</ele><time>2026-04-25T16:11:56.361Z</time></trkpt><trkpt lat="38.125589" lon="12.7329855"><ele>24.0</ele><time>2026-04-25T16:11:57.362Z</time></trkpt><trkpt lat="38.1257653" lon="12.7329628"><ele>24.0</ele><time>2026-04-25T16:11:58.361Z</time></trkpt><trkpt lat="38.1259369" lon="12.7329443"><ele>24.0</ele><time>2026-04-25T16:11:59.362Z</time></trkpt><trkpt lat="38.1261116" lon="12.7329265"><ele>24.0</ele><time>2026-04-25T16:12:00.361Z</time></trkpt><trkpt lat="38.1262962" lon="12.7328995"><ele>24.0</ele><time>2026-04-25T16:12:01.361Z</time></trkpt><trkpt lat="38.1264846" lon="12.732872"><ele>24.0</ele><time>2026-04-25T16:12:02.361Z</time></trkpt><trkpt lat="38.1266707" lon="12.7328445"><ele>24.0</ele><time>2026-04-25T16:12:03.362Z</time></trkpt><trkpt lat="38.1268642" lon="12.7328231"><ele>23.666666666666668</ele><time>2026-04-25T16:12:04.361Z</time></trkpt><trkpt lat="38.1270498" lon="12.7327998"><ele>23.333333333333336</ele><time>2026-04-25T16:12:05.361Z</time></trkpt><trkpt lat="38.1272427" lon="12.7327778"><ele>23.0</ele><time>2026-04-25T16:12:06.361Z</time></trkpt><trkpt lat="38.1274342" lon="12.7327622"><ele>22.666666666666668</ele><time>2026-04-25T16:12:07.36Z</time></trkpt><trkpt lat="38.127624" lon="12.732744"><ele>22.333333333333332</ele><time>2026-04-25T16:12:08.362Z</time></trkpt><trkpt lat="38.1278149" lon="12.7327182"><ele>22.0</ele><time>2026-04-25T16:12:09.362Z</time></trkpt><trkpt lat="38.1280087" lon="12.7327079"><ele>21.0</ele><time>2026-04-25T16:12:10.362Z</time></trkpt><trkpt lat="38.1281954" lon="12.7326872"><ele>20.0</ele><time>2026-04-25T16:12:11.361Z</time></trkpt><trkpt lat="38.1283856" lon="12.7326692"><ele>19.0</ele><time>2026-04-25T16:12:12.361Z</time></trkpt><trkpt lat="38.1285707" lon="12.7326439"><ele>19.0</ele><time>2026-04-25T16:12:13.36Z</time></trkpt><trkpt lat="38.128758" lon="12.7326178"><ele>19.0</ele><time>2026-04-25T16:12:14.361Z</time></trkpt><trkpt lat="38.128947" lon="12.7325854"><ele>19.0</ele><time>2026-04-25T16:12:15.361Z</time></trkpt><trkpt lat="38.1291333" lon="12.7325593"><ele>19.666666666666664</ele><time>2026-04-25T16:12:16.361Z</time></trkpt><trkpt lat="38.129317" lon="12.732537"><ele>20.333333333333332</ele><time>2026-04-25T16:12:17.361Z</time></trkpt><trkpt lat="38.1295039" lon="12.7325192"><ele>21.0</ele><time>2026-04-25T16:12:18.361Z</time></trkpt><trkpt lat="38.1296864" lon="12.7325111"><ele>21.0</ele><time>2026-04-25T16:12:19.361Z</time></trkpt><trkpt lat="38.1298708" lon="12.7325126"><ele>21.0</ele><time>2026-04-25T16:12:20.361Z</time></trkpt><trkpt lat="38.1300496" lon="12.7325289"><ele>21.0</ele><time>2026-04-25T16:12:21.361Z</time></trkpt><trkpt lat="38.1302328" lon="12.7325717"><ele>21.666666666666668</ele><time>2026-04-25T16:12:22.361Z</time></trkpt><trkpt lat="38.1304099" lon="12.7326066"><ele>22.333333333333336</ele><time>2026-04-25T16:12:23.361Z</time></trkpt><trkpt lat="38.130588" lon="12.7326549"><ele>23.0</ele><time>2026-04-25T16:12:24.36Z</time></trkpt><trkpt lat="38.13077" lon="12.7327126"><ele>24.333333333333336</ele><time>2026-04-25T16:12:25.362Z</time></trkpt><trkpt lat="38.1309497" lon="12.7327731"><ele>25.666666666666668</ele><time>2026-04-25T16:12:26.36Z</time></trkpt><trkpt lat="38.1311236" lon="12.7328341"><ele>27.0</ele><time>2026-04-25T16:12:27.361Z</time></trkpt><trkpt lat="38.1313018" lon="12.7328929"><ele>27.0</ele><time>2026-04-25T16:12:28.361Z</time></trkpt><trkpt lat="38.1314735" lon="12.7329607"><ele>27.0</ele><time>2026-04-25T16:12:29.361Z</time></trkpt><trkpt lat="38.1316478" lon="12.7330351"><ele>27.0</ele><time>2026-04-25T16:12:30.361Z</time></trkpt><trkpt lat="38.1318147" lon="12.7331238"><ele>26.333333333333336</ele><time>2026-04-25T16:12:31.361Z</time></trkpt><trkpt lat="38.1319798" lon="12.7332197"><ele>25.666666666666668</ele><time>2026-04-25T16:12:32.36Z</time></trkpt><trkpt lat="38.1321451" lon="12.7333178"><ele>25.0</ele><time>2026-04-25T16:12:33.361Z</time></trkpt><trkpt lat="38.1323059" lon="12.7334164"><ele>24.333333333333336</ele><time>2026-04-25T16:12:34.361Z</time></trkpt><trkpt lat="38.1324704" lon="12.7335098"><ele>23.666666666666668</ele><time>2026-04-25T16:12:35.361Z</time></trkpt><trkpt lat="38.1326457" lon="12.7336107"><ele>23.0</ele><time>2026-04-25T16:12:36.36Z</time></trkpt><trkpt lat="38.1328073" lon="12.7337114"><ele>23.0</ele><time>2026-04-25T16:12:37.361Z</time></trkpt><trkpt lat="38.1329758" lon="12.7338144"><ele>23.0</ele><time>2026-04-25T16:12:38.361Z</time></trkpt><trkpt lat="38.1331405" lon="12.7339166"><ele>23.0</ele><time>2026-04-25T16:12:39.362Z</time></trkpt><trkpt lat="38.1332999" lon="12.7340233"><ele>23.0</ele><time>2026-04-25T16:12:40.362Z</time></trkpt><trkpt lat="38.1334531" lon="12.7341515"><ele>23.0</ele><time>2026-04-25T16:12:41.361Z</time></trkpt><trkpt lat="38.1335996" lon="12.734288"><ele>23.0</ele><time>2026-04-25T16:12:42.362Z</time></trkpt><trkpt lat="38.1337385" lon="12.7344416"><ele>22.666666666666668</ele><time>2026-04-25T16:12:43.361Z</time></trkpt><trkpt lat="38.1338672" lon="12.7345889"><ele>22.333333333333332</ele><time>2026-04-25T16:12:44.36Z</time></trkpt><trkpt lat="38.1339949" lon="12.7347319"><ele>22.0</ele><time>2026-04-25T16:12:45.362Z</time></trkpt><trkpt lat="38.1341248" lon="12.7348787"><ele>22.0</ele><time>2026-04-25T16:12:46.361Z</time></trkpt><trkpt lat="38.1342528" lon="12.7350278"><ele>22.0</ele><time>2026-04-25T16:12:47.361Z</time></trkpt><trkpt lat="38.1343864" lon="12.735181"><ele>22.0</ele><time>2026-04-25T16:12:48.361Z</time></trkpt><trkpt lat="38.1345131" lon="12.7353296"><ele>24.0</ele><time>2026-04-25T16:12:49.362Z</time></trkpt><trkpt lat="38.1347643" lon="12.7356199"><ele>26.0</ele><time>2026-04-25T16:12:51.361Z</time></trkpt><trkpt lat="38.1348804" lon="12.7357538"><ele>25.75</ele><time>2026-04-25T16:12:52.361Z</time></trkpt><trkpt lat="38.1349794" lon="12.7358741"><ele>25.5</ele><time>2026-04-25T16:12:53.361Z</time></trkpt><trkpt lat="38.1350781" lon="12.7359864"><ele>25.25</ele><time>2026-04-25T16:12:54.36Z</time></trkpt><trkpt lat="38.1351808" lon="12.7360994"><ele>25.0</ele><time>2026-04-25T16:12:55.36Z</time></trkpt><trkpt lat="38.1352865" lon="12.7362218"><ele>25.0</ele><time>2026-04-25T16:12:56.363Z</time></trkpt><trkpt lat="38.1353941" lon="12.7363469"><ele>25.0</ele><time>2026-04-25T16:12:57.361Z</time></trkpt><trkpt lat="38.1355127" lon="12.7364833"><ele>25.0</ele><time>2026-04-25T16:12:58.362Z</time></trkpt><trkpt lat="38.1356246" lon="12.7366106"><ele>23.5</ele><time>2026-04-25T16:12:59.362Z</time></trkpt><trkpt lat="38.1357398" lon="12.7367499"><ele>22.0</ele><time>2026-04-25T16:13:00.362Z</time></trkpt><trkpt lat="38.1360024" lon="12.7370479"><ele>22.0</ele><time>2026-04-25T16:13:02.362Z</time></trkpt><trkpt lat="38.1361487" lon="12.7372041"><ele>22.0</ele><time>2026-04-25T16:13:03.361Z</time></trkpt><trkpt lat="38.1362977" lon="12.7373732"><ele>22.0</ele><time>2026-04-25T16:13:04.361Z</time></trkpt><trkpt lat="38.1364567" lon="12.7375548"><ele>22.0</ele><time>2026-04-25T16:13:05.36Z</time></trkpt><trkpt lat="38.1366125" lon="12.7377414"><ele>22.0</ele><time>2026-04-25T16:13:06.362Z</time></trkpt><trkpt lat="38.1367633" lon="12.7379321"><ele>22.0</ele><time>2026-04-25T16:13:07.362Z</time></trkpt><trkpt lat="38.136916" lon="12.7381251"><ele>22.0</ele><time>2026-04-25T16:13:08.362Z</time></trkpt><trkpt lat="38.137075" lon="12.7383211"><ele>22.0</ele><time>2026-04-25T16:13:09.362Z</time></trkpt><trkpt lat="38.137233" lon="12.7385106"><ele>22.0</ele><time>2026-04-25T16:13:10.362Z</time></trkpt><trkpt lat="38.1373936" lon="12.7387004"><ele>23.0</ele><time>2026-04-25T16:13:11.361Z</time></trkpt><trkpt lat="38.1375553" lon="12.7388759"><ele>24.0</ele><time>2026-04-25T16:13:12.361Z</time></trkpt><trkpt lat="38.1377315" lon="12.7390442"><ele>25.0</ele><time>2026-04-25T16:13:13.361Z</time></trkpt><trkpt lat="38.1379231" lon="12.7391868"><ele>25.0</ele><time>2026-04-25T16:13:14.361Z</time></trkpt><trkpt lat="38.138128" lon="12.7392875"><ele>25.0</ele><time>2026-04-25T16:13:15.362Z</time></trkpt><trkpt lat="38.1383623" lon="12.739371"><ele>31.0</ele><time>2026-04-25T16:13:16.362Z</time></trkpt><trkpt lat="38.1386093" lon="12.739416"><ele>37.0</ele><time>2026-04-25T16:13:17.362Z</time></trkpt><trkpt lat="38.1388622" lon="12.7394359"><ele>37.0</ele><time>2026-04-25T16:13:18.362Z</time></trkpt><trkpt lat="38.1390937" lon="12.7394478"><ele>37.0</ele><time>2026-04-25T16:13:19.361Z</time></trkpt><trkpt lat="38.1393008" lon="12.7394409"><ele>37.0</ele><time>2026-04-25T16:13:20.361Z</time></trkpt><trkpt lat="38.1394999" lon="12.7393977"><ele>36.333333333333336</ele><time>2026-04-25T16:13:21.361Z</time></trkpt><trkpt lat="38.1397114" lon="12.7393072"><ele>35.666666666666664</ele><time>2026-04-25T16:13:22.361Z</time></trkpt><trkpt lat="38.1399093" lon="12.7391861"><ele>35.0</ele><time>2026-04-25T16:13:23.362Z</time></trkpt><trkpt lat="38.1400755" lon="12.7390689"><ele>35.0</ele><time>2026-04-25T16:13:24.36Z</time></trkpt><trkpt lat="38.140223" lon="12.7389684"><ele>35.0</ele><time>2026-04-25T16:13:25.361Z</time></trkpt><trkpt lat="38.1403548" lon="12.738878"><ele>35.0</ele><time>2026-04-25T16:13:26.362Z</time></trkpt><trkpt lat="38.140464" lon="12.7387928"><ele>35.0</ele><time>2026-04-25T16:13:27.361Z</time></trkpt><trkpt lat="38.1405772" lon="12.7387178"><ele>35.0</ele><time>2026-04-25T16:13:28.361Z</time></trkpt><trkpt lat="38.1406846" lon="12.7386516"><ele>35.0</ele><time>2026-04-25T16:13:29.362Z</time></trkpt><trkpt lat="38.1407814" lon="12.7386066"><ele>35.0</ele><time>2026-04-25T16:13:30.361Z</time></trkpt><trkpt lat="38.1408805" lon="12.7385829"><ele>35.0</ele><time>2026-04-25T16:13:31.361Z</time></trkpt><trkpt lat="38.1409719" lon="12.7385797"><ele>35.0</ele><time>2026-04-25T16:13:32.362Z</time></trkpt><trkpt lat="38.1410628" lon="12.7385905"><ele>39.2</ele><time>2026-04-25T16:13:33.361Z</time></trkpt><trkpt lat="38.1411521" lon="12.7386158"><ele>43.4</ele><time>2026-04-25T16:13:34.362Z</time></trkpt><trkpt lat="38.1412406" lon="12.7386519"><ele>47.599999999999994</ele><time>2026-04-25T16:13:35.361Z</time></trkpt><trkpt lat="38.1413304" lon="12.7386973"><ele>51.8</ele><time>2026-04-25T16:13:36.362Z</time></trkpt><trkpt lat="38.1414169" lon="12.7387509"><ele>56.0</ele><time>2026-04-25T16:13:37.362Z</time></trkpt><trkpt lat="38.1415096" lon="12.7388109"><ele>56.0</ele><time>2026-04-25T16:13:38.362Z</time></trkpt><trkpt lat="38.1416022" lon="12.7388725"><ele>56.0</ele><time>2026-04-25T16:13:39.362Z</time></trkpt><trkpt lat="38.1417018" lon="12.7389336"><ele>56.0</ele><time>2026-04-25T16:13:40.361Z</time></trkpt><trkpt lat="38.1418132" lon="12.7389888"><ele>56.0</ele><time>2026-04-25T16:13:41.361Z</time></trkpt><trkpt lat="38.1419355" lon="12.7390515"><ele>56.0</ele><time>2026-04-25T16:13:42.363Z</time></trkpt><trkpt lat="38.1420566" lon="12.739115"><ele>56.0</ele><time>2026-04-25T16:13:43.362Z</time></trkpt><trkpt lat="38.1421763" lon="12.7391825"><ele>56.0</ele><time>2026-04-25T16:13:44.361Z</time></trkpt><trkpt lat="38.1422909" lon="12.7392519"><ele>56.0</ele><time>2026-04-25T16:13:45.361Z</time></trkpt><trkpt lat="38.1424157" lon="12.7393196"><ele>54.75</ele><time>2026-04-25T16:13:46.361Z</time></trkpt><trkpt lat="38.1425366" lon="12.7393704"><ele>53.5</ele><time>2026-04-25T16:13:47.361Z</time></trkpt><trkpt lat="38.1426601" lon="12.7394283"><ele>52.25</ele><time>2026-04-25T16:13:48.362Z</time></trkpt><trkpt lat="38.1427923" lon="12.7394779"><ele>51.0</ele><time>2026-04-25T16:13:49.361Z</time></trkpt><trkpt lat="38.1429266" lon="12.7395344"><ele>54.0</ele><time>2026-04-25T16:13:50.361Z</time></trkpt><trkpt lat="38.1430683" lon="12.7395883"><ele>57.0</ele><time>2026-04-25T16:13:51.361Z</time></trkpt><trkpt lat="38.14321" lon="12.7396455"><ele>60.0</ele><time>2026-04-25T16:13:52.362Z</time></trkpt><trkpt lat="38.1433513" lon="12.7397025"><ele>63.0</ele><time>2026-04-25T16:13:53.362Z</time></trkpt><trkpt lat="38.1434923" lon="12.7397627"><ele>63.0</ele><time>2026-04-25T16:13:54.361Z</time></trkpt><trkpt lat="38.1436361" lon="12.7398236"><ele>63.0</ele><time>2026-04-25T16:13:55.361Z</time></trkpt><trkpt lat="38.1437768" lon="12.7398945"><ele>63.0</ele><time>2026-04-25T16:13:56.361Z</time></trkpt><trkpt lat="38.1439165" lon="12.739968"><ele>63.5</ele><time>2026-04-25T16:13:57.362Z</time></trkpt><trkpt lat="38.1440511" lon="12.7400472"><ele>64.0</ele><time>2026-04-25T16:13:58.361Z</time></trkpt><trkpt lat="38.1441848" lon="12.7401273"><ele>64.5</ele><time>2026-04-25T16:13:59.363Z</time></trkpt><trkpt lat="38.1443233" lon="12.7402029"><ele>65.0</ele><time>2026-04-25T16:14:00.361Z</time></trkpt><trkpt lat="38.1444599" lon="12.7402831"><ele>69.0</ele><time>2026-04-25T16:14:01.361Z</time></trkpt><trkpt lat="38.1445993" lon="12.7403535"><ele>73.0</ele><time>2026-04-25T16:14:02.362Z</time></trkpt><trkpt lat="38.1447425" lon="12.7404074"><ele>77.0</ele><time>2026-04-25T16:14:03.362Z</time></trkpt><trkpt lat="38.1448942" lon="12.740433"><ele>78.33333333333334</ele><time>2026-04-25T16:14:04.361Z</time></trkpt><trkpt lat="38.1450469" lon="12.7404383"><ele>79.66666666666667</ele><time>2026-04-25T16:14:05.36Z</time></trkpt><trkpt lat="38.1451998" lon="12.7404204"><ele>81.0</ele><time>2026-04-25T16:14:06.362Z</time></trkpt><trkpt lat="38.145357" lon="12.740378"><ele>81.0</ele><time>2026-04-25T16:14:07.362Z</time></trkpt><trkpt lat="38.1455111" lon="12.7403095"><ele>81.0</ele><time>2026-04-25T16:14:08.361Z</time></trkpt><trkpt lat="38.1456714" lon="12.7402353"><ele>81.0</ele><time>2026-04-25T16:14:09.362Z</time></trkpt><trkpt lat="38.1458255" lon="12.7401614"><ele>80.0</ele><time>2026-04-25T16:14:10.362Z</time></trkpt><trkpt lat="38.145984" lon="12.7400793"><ele>79.0</ele><time>2026-04-25T16:14:11.362Z</time></trkpt><trkpt lat="38.1461455" lon="12.7400019"><ele>78.0</ele><time>2026-04-25T16:14:12.362Z</time></trkpt><trkpt lat="38.1463097" lon="12.739916"><ele>78.0</ele><time>2026-04-25T16:14:13.362Z</time></trkpt><trkpt lat="38.1464828" lon="12.7398286"><ele>78.0</ele><time>2026-04-25T16:14:14.362Z</time></trkpt><trkpt lat="38.1466519" lon="12.7397426"><ele>78.0</ele><time>2026-04-25T16:14:15.361Z</time></trkpt><trkpt lat="38.1468239" lon="12.7396551"><ele>80.0</ele><time>2026-04-25T16:14:16.361Z</time></trkpt><trkpt lat="38.1469989" lon="12.7395702"><ele>82.0</ele><time>2026-04-25T16:14:17.362Z</time></trkpt><trkpt lat="38.147171" lon="12.7394872"><ele>84.0</ele><time>2026-04-25T16:14:18.362Z</time></trkpt><trkpt lat="38.1473489" lon="12.7394151"><ele>84.66666666666667</ele><time>2026-04-25T16:14:19.361Z</time></trkpt><trkpt lat="38.1475174" lon="12.7393555"><ele>85.33333333333334</ele><time>2026-04-25T16:14:20.362Z</time></trkpt><trkpt lat="38.1476896" lon="12.7392935"><ele>86.0</ele><time>2026-04-25T16:14:21.362Z</time></trkpt><trkpt lat="38.1478676" lon="12.7392368"><ele>86.0</ele><time>2026-04-25T16:14:22.361Z</time></trkpt><trkpt lat="38.1480501" lon="12.7391853"><ele>86.0</ele><time>2026-04-25T16:14:23.361Z</time></trkpt><trkpt lat="38.1482295" lon="12.7391335"><ele>86.0</ele><time>2026-04-25T16:14:24.361Z</time></trkpt><trkpt lat="38.1484108" lon="12.7390825"><ele>86.0</ele><time>2026-04-25T16:14:25.361Z</time></trkpt><trkpt lat="38.1485935" lon="12.7390366"><ele>86.0</ele><time>2026-04-25T16:14:26.361Z</time></trkpt><trkpt lat="38.148787" lon="12.7389813"><ele>86.0</ele><time>2026-04-25T16:14:27.362Z</time></trkpt><trkpt lat="38.1489758" lon="12.7389281"><ele>86.0</ele><time>2026-04-25T16:14:28.362Z</time></trkpt><trkpt lat="38.1491695" lon="12.7388725"><ele>86.0</ele><time>2026-04-25T16:14:29.361Z</time></trkpt><trkpt lat="38.1493655" lon="12.7388116"><ele>86.0</ele><time>2026-04-25T16:14:30.362Z</time></trkpt><trkpt lat="38.1495603" lon="12.7387492"><ele>86.0</ele><time>2026-04-25T16:14:31.361Z</time></trkpt><trkpt lat="38.1497601" lon="12.7386782"><ele>86.0</ele><time>2026-04-25T16:14:32.362Z</time></trkpt><trkpt lat="38.1499605" lon="12.7386034"><ele>86.0</ele><time>2026-04-25T16:14:33.36Z</time></trkpt><trkpt lat="38.1501603" lon="12.7385302"><ele>86.0</ele><time>2026-04-25T16:14:34.36Z</time></trkpt><trkpt lat="38.1503565" lon="12.7384501"><ele>86.0</ele><time>2026-04-25T16:14:35.361Z</time></trkpt><trkpt lat="38.1505555" lon="12.7383671"><ele>86.0</ele><time>2026-04-25T16:14:36.361Z</time></trkpt><trkpt lat="38.1507565" lon="12.7382917"><ele>84.33333333333334</ele><time>2026-04-25T16:14:37.363Z</time></trkpt><trkpt lat="38.1509506" lon="12.738215"><ele>82.66666666666667</ele><time>2026-04-25T16:14:38.362Z</time></trkpt><trkpt lat="38.151137" lon="12.7381372"><ele>81.0</ele><time>2026-04-25T16:14:39.361Z</time></trkpt><trkpt lat="38.1513286" lon="12.7380638"><ele>81.0</ele><time>2026-04-25T16:14:40.361Z</time></trkpt><trkpt lat="38.1515142" lon="12.7379873"><ele>81.0</ele><time>2026-04-25T16:14:41.362Z</time></trkpt><trkpt lat="38.1517007" lon="12.7379104"><ele>81.0</ele><time>2026-04-25T16:14:42.36Z</time></trkpt><trkpt lat="38.1518856" lon="12.7378326"><ele>81.0</ele><time>2026-04-25T16:14:43.361Z</time></trkpt><trkpt lat="38.1520689" lon="12.7377608"><ele>81.0</ele><time>2026-04-25T16:14:44.362Z</time></trkpt><trkpt lat="38.1522509" lon="12.7376836"><ele>81.0</ele><time>2026-04-25T16:14:45.362Z</time></trkpt><trkpt lat="38.1524382" lon="12.7376077"><ele>80.33333333333333</ele><time>2026-04-25T16:14:46.362Z</time></trkpt><trkpt lat="38.1526344" lon="12.7375325"><ele>79.66666666666666</ele><time>2026-04-25T16:14:47.363Z</time></trkpt><trkpt lat="38.1528428" lon="12.7374721"><ele>79.0</ele><time>2026-04-25T16:14:48.361Z</time></trkpt><trkpt lat="38.1530513" lon="12.7374284"><ele>79.33333333333333</ele><time>2026-04-25T16:14:49.362Z</time></trkpt><trkpt lat="38.1532672" lon="12.7374008"><ele>79.66666666666667</ele><time>2026-04-25T16:14:50.362Z</time></trkpt><trkpt lat="38.1534786" lon="12.7373886"><ele>80.0</ele><time>2026-04-25T16:14:51.362Z</time></trkpt><trkpt lat="38.1536835" lon="12.7373907"><ele>80.0</ele><time>2026-04-25T16:14:52.362Z</time></trkpt><trkpt lat="38.1538788" lon="12.7374069"><ele>80.0</ele><time>2026-04-25T16:14:53.361Z</time></trkpt><trkpt lat="38.1540661" lon="12.7374239"><ele>80.0</ele><time>2026-04-25T16:14:54.361Z</time></trkpt><trkpt lat="38.1542472" lon="12.737436"><ele>80.0</ele><time>2026-04-25T16:14:55.362Z</time></trkpt><trkpt lat="38.1544276" lon="12.737449"><ele>80.0</ele><time>2026-04-25T16:14:56.362Z</time></trkpt><trkpt lat="38.1546031" lon="12.737464"><ele>80.0</ele><time>2026-04-25T16:14:57.362Z</time></trkpt><trkpt lat="38.154778" lon="12.7374764"><ele>78.66666666666667</ele><time>2026-04-25T16:14:58.363Z</time></trkpt><trkpt lat="38.1549401" lon="12.7374917"><ele>77.33333333333333</ele><time>2026-04-25T16:14:59.361Z</time></trkpt><trkpt lat="38.1551131" lon="12.7375004"><ele>76.0</ele><time>2026-04-25T16:15:00.362Z</time></trkpt><trkpt lat="38.1552838" lon="12.7375071"><ele>76.0</ele><time>2026-04-25T16:15:01.362Z</time></trkpt><trkpt lat="38.155453" lon="12.7375163"><ele>76.0</ele><time>2026-04-25T16:15:02.361Z</time></trkpt><trkpt lat="38.1556268" lon="12.7375295"><ele>76.0</ele><time>2026-04-25T16:15:03.362Z</time></trkpt><trkpt lat="38.1557969" lon="12.7375368"><ele>74.0</ele><time>2026-04-25T16:15:04.362Z</time></trkpt><trkpt lat="38.1559762" lon="12.7375582"><ele>72.0</ele><time>2026-04-25T16:15:05.362Z</time></trkpt><trkpt lat="38.1561492" lon="12.7375684"><ele>70.0</ele><time>2026-04-25T16:15:06.361Z</time></trkpt><trkpt lat="38.1563233" lon="12.7375842"><ele>70.0</ele><time>2026-04-25T16:15:07.362Z</time></trkpt><trkpt lat="38.1565012" lon="12.7375918"><ele>70.0</ele><time>2026-04-25T16:15:08.361Z</time></trkpt><trkpt lat="38.1566765" lon="12.7376075"><ele>70.0</ele><time>2026-04-25T16:15:09.361Z</time></trkpt><trkpt lat="38.1568454" lon="12.7376164"><ele>69.33333333333333</ele><time>2026-04-25T16:15:10.361Z</time></trkpt><trkpt lat="38.1570192" lon="12.7376245"><ele>68.66666666666667</ele><time>2026-04-25T16:15:11.361Z</time></trkpt><trkpt lat="38.157192" lon="12.7376299"><ele>68.0</ele><time>2026-04-25T16:15:12.361Z</time></trkpt><trkpt lat="38.157365" lon="12.7376393"><ele>67.0</ele><time>2026-04-25T16:15:13.362Z</time></trkpt><trkpt lat="38.1575387" lon="12.7376424"><ele>66.0</ele><time>2026-04-25T16:15:14.361Z</time></trkpt><trkpt lat="38.1577015" lon="12.7376454"><ele>65.0</ele><time>2026-04-25T16:15:15.362Z</time></trkpt><trkpt lat="38.1578665" lon="12.7376426"><ele>65.0</ele><time>2026-04-25T16:15:16.362Z</time></trkpt><trkpt lat="38.1580285" lon="12.737624"><ele>65.0</ele><time>2026-04-25T16:15:17.36Z</time></trkpt><trkpt lat="38.1581887" lon="12.7375924"><ele>65.0</ele><time>2026-04-25T16:15:18.362Z</time></trkpt><trkpt lat="38.1583568" lon="12.7375525"><ele>63.0</ele><time>2026-04-25T16:15:19.36Z</time></trkpt><trkpt lat="38.1585214" lon="12.7375187"><ele>61.0</ele><time>2026-04-25T16:15:20.361Z</time></trkpt><trkpt lat="38.158683" lon="12.7374823"><ele>59.0</ele><time>2026-04-25T16:15:21.362Z</time></trkpt><trkpt lat="38.1588432" lon="12.7374502"><ele>59.0</ele><time>2026-04-25T16:15:22.361Z</time></trkpt><trkpt lat="38.1589954" lon="12.7374219"><ele>59.0</ele><time>2026-04-25T16:15:23.362Z</time></trkpt><trkpt lat="38.1591445" lon="12.737388"><ele>59.0</ele><time>2026-04-25T16:15:24.362Z</time></trkpt><trkpt lat="38.1592805" lon="12.7373684"><ele>59.0</ele><time>2026-04-25T16:15:25.361Z</time></trkpt><trkpt lat="38.1593995" lon="12.7373472"><ele>58.6</ele><time>2026-04-25T16:15:26.362Z</time></trkpt><trkpt lat="38.1594958" lon="12.7373321"><ele>58.2</ele><time>2026-04-25T16:15:27.362Z</time></trkpt><trkpt lat="38.1595769" lon="12.7373173"><ele>57.800000000000004</ele><time>2026-04-25T16:15:28.361Z</time></trkpt><trkpt lat="38.15964" lon="12.7373062"><ele>57.400000000000006</ele><time>2026-04-25T16:15:29.361Z</time></trkpt><trkpt lat="38.1597291" lon="12.7373712"><ele>57.0</ele><time>2026-04-25T16:15:31.362Z</time></trkpt><trkpt lat="38.1597637" lon="12.7375351"><ele>57.0</ele><time>2026-04-25T16:15:33.362Z</time></trkpt><trkpt lat="38.1597766" lon="12.7376487"><ele>57.0</ele><time>2026-04-25T16:15:34.361Z</time></trkpt><trkpt lat="38.1597926" lon="12.7377577"><ele>57.0</ele><time>2026-04-25T16:15:35.362Z</time></trkpt><trkpt lat="38.1598162" lon="12.7378927"><ele>57.0</ele><time>2026-04-25T16:15:36.361Z</time></trkpt><trkpt lat="38.1598358" lon="12.7380343"><ele>57.0</ele><time>2026-04-25T16:15:37.362Z</time></trkpt><trkpt lat="38.1598629" lon="12.738184"><ele>55.5</ele><time>2026-04-25T16:15:38.362Z</time></trkpt><trkpt lat="38.1598884" lon="12.7383407"><ele>54.0</ele><time>2026-04-25T16:15:39.361Z</time></trkpt><trkpt lat="38.1599139" lon="12.7385041"><ele>52.5</ele><time>2026-04-25T16:15:40.362Z</time></trkpt><trkpt lat="38.1599411" lon="12.7386742"><ele>51.0</ele><time>2026-04-25T16:15:41.362Z</time></trkpt><trkpt lat="38.1599682" lon="12.7388374"><ele>50.75</ele><time>2026-04-25T16:15:42.362Z</time></trkpt><trkpt lat="38.1599971" lon="12.7390073"><ele>50.5</ele><time>2026-04-25T16:15:43.361Z</time></trkpt><trkpt lat="38.1600193" lon="12.7391793"><ele>50.25</ele><time>2026-04-25T16:15:44.361Z</time></trkpt><trkpt lat="38.1600368" lon="12.7393499"><ele>50.0</ele><time>2026-04-25T16:15:45.362Z</time></trkpt><trkpt lat="38.1600602" lon="12.7395126"><ele>50.0</ele><time>2026-04-25T16:15:46.363Z</time></trkpt><trkpt lat="38.1600825" lon="12.739682"><ele>50.0</ele><time>2026-04-25T16:15:47.361Z</time></trkpt><trkpt lat="38.160107" lon="12.7398578"><ele>50.0</ele><time>2026-04-25T16:15:48.36Z</time></trkpt><trkpt lat="38.1601343" lon="12.7400279"><ele>50.0</ele><time>2026-04-25T16:15:49.362Z</time></trkpt><trkpt lat="38.1601629" lon="12.7402026"><ele>50.25</ele><time>2026-04-25T16:15:50.363Z</time></trkpt><trkpt lat="38.1601933" lon="12.7403778"><ele>50.5</ele><time>2026-04-25T16:15:51.362Z</time></trkpt><trkpt lat="38.1602184" lon="12.7405563"><ele>50.75</ele><time>2026-04-25T16:15:52.362Z</time></trkpt><trkpt lat="38.1602471" lon="12.7407432"><ele>51.0</ele><time>2026-04-25T16:15:53.362Z</time></trkpt><trkpt lat="38.1602751" lon="12.7409273"><ele>51.0</ele><time>2026-04-25T16:15:54.361Z</time></trkpt><trkpt lat="38.1603039" lon="12.741123"><ele>51.0</ele><time>2026-04-25T16:15:55.361Z</time></trkpt><trkpt lat="38.1603396" lon="12.7413134"><ele>51.0</ele><time>2026-04-25T16:15:56.361Z</time></trkpt><trkpt lat="38.1603778" lon="12.7415132"><ele>51.0</ele><time>2026-04-25T16:15:57.362Z</time></trkpt><trkpt lat="38.1604061" lon="12.7417159"><ele>51.0</ele><time>2026-04-25T16:15:58.363Z</time></trkpt><trkpt lat="38.1604359" lon="12.7419251"><ele>51.0</ele><time>2026-04-25T16:15:59.362Z</time></trkpt><trkpt lat="38.1604785" lon="12.7421288"><ele>51.0</ele><time>2026-04-25T16:16:00.362Z</time></trkpt><trkpt lat="38.160528" lon="12.7423303"><ele>51.0</ele><time>2026-04-25T16:16:01.362Z</time></trkpt><trkpt lat="38.1605777" lon="12.7425209"><ele>51.0</ele><time>2026-04-25T16:16:02.362Z</time></trkpt><trkpt lat="38.1606456" lon="12.7427146"><ele>50.66666666666667</ele><time>2026-04-25T16:16:03.362Z</time></trkpt><trkpt lat="38.1607128" lon="12.7428976"><ele>50.333333333333336</ele><time>2026-04-25T16:16:04.362Z</time></trkpt><trkpt lat="38.1607891" lon="12.7430713"><ele>50.0</ele><time>2026-04-25T16:16:05.362Z</time></trkpt><trkpt lat="38.1608672" lon="12.7432289"><ele>50.0</ele><time>2026-04-25T16:16:06.362Z</time></trkpt><trkpt lat="38.1609608" lon="12.7433692"><ele>50.0</ele><time>2026-04-25T16:16:07.362Z</time></trkpt><trkpt lat="38.1610579" lon="12.7434966"><ele>50.0</ele><time>2026-04-25T16:16:08.361Z</time></trkpt><trkpt lat="38.1611695" lon="12.7436235"><ele>50.0</ele><time>2026-04-25T16:16:09.361Z</time></trkpt><trkpt lat="38.1612878" lon="12.7437413"><ele>50.0</ele><time>2026-04-25T16:16:10.362Z</time></trkpt><trkpt lat="38.1614224" lon="12.7438305"><ele>50.0</ele><time>2026-04-25T16:16:11.361Z</time></trkpt><trkpt lat="38.1615644" lon="12.7439143"><ele>50.0</ele><time>2026-04-25T16:16:12.362Z</time></trkpt><trkpt lat="38.1617162" lon="12.743974"><ele>49.0</ele><time>2026-04-25T16:16:13.363Z</time></trkpt><trkpt lat="38.1618756" lon="12.7440244"><ele>48.0</ele><time>2026-04-25T16:16:14.362Z</time></trkpt><trkpt lat="38.1620385" lon="12.744056"><ele>47.0</ele><time>2026-04-25T16:16:15.362Z</time></trkpt><trkpt lat="38.1622083" lon="12.7440619"><ele>45.666666666666664</ele><time>2026-04-25T16:16:16.362Z</time></trkpt><trkpt lat="38.1623871" lon="12.7440447"><ele>44.333333333333336</ele><time>2026-04-25T16:16:17.362Z</time></trkpt><trkpt lat="38.1625688" lon="12.7440054"><ele>43.0</ele><time>2026-04-25T16:16:18.361Z</time></trkpt><trkpt lat="38.1627462" lon="12.743956"><ele>43.0</ele><time>2026-04-25T16:16:19.362Z</time></trkpt><trkpt lat="38.1629299" lon="12.7439091"><ele>43.0</ele><time>2026-04-25T16:16:20.361Z</time></trkpt><trkpt lat="38.1631121" lon="12.7438781"><ele>43.0</ele><time>2026-04-25T16:16:21.362Z</time></trkpt><trkpt lat="38.1633026" lon="12.7438769"><ele>42.0</ele><time>2026-04-25T16:16:22.362Z</time></trkpt><trkpt lat="38.1634977" lon="12.7438899"><ele>41.0</ele><time>2026-04-25T16:16:23.362Z</time></trkpt><trkpt lat="38.1636871" lon="12.7439347"><ele>40.0</ele><time>2026-04-25T16:16:24.362Z</time></trkpt><trkpt lat="38.1638709" lon="12.744009"><ele>39.66666666666667</ele><time>2026-04-25T16:16:25.362Z</time></trkpt><trkpt lat="38.1640403" lon="12.7441053"><ele>39.333333333333336</ele><time>2026-04-25T16:16:26.362Z</time></trkpt><trkpt lat="38.1642014" lon="12.7442152"><ele>39.0</ele><time>2026-04-25T16:16:27.362Z</time></trkpt><trkpt lat="38.1643575" lon="12.7443413"><ele>39.333333333333336</ele><time>2026-04-25T16:16:28.362Z</time></trkpt><trkpt lat="38.1645124" lon="12.7444716"><ele>39.66666666666667</ele><time>2026-04-25T16:16:29.363Z</time></trkpt><trkpt lat="38.1646586" lon="12.7446088"><ele>40.0</ele><time>2026-04-25T16:16:30.362Z</time></trkpt><trkpt lat="38.1648097" lon="12.7447284"><ele>39.0</ele><time>2026-04-25T16:16:31.362Z</time></trkpt><trkpt lat="38.1649665" lon="12.7448524"><ele>38.0</ele><time>2026-04-25T16:16:32.361Z</time></trkpt><trkpt lat="38.165121" lon="12.7449761"><ele>37.0</ele><time>2026-04-25T16:16:33.362Z</time></trkpt><trkpt lat="38.1652767" lon="12.7451034"><ele>36.66666666666667</ele><time>2026-04-25T16:16:34.362Z</time></trkpt><trkpt lat="38.1654344" lon="12.7452243"><ele>36.333333333333336</ele><time>2026-04-25T16:16:35.362Z</time></trkpt><trkpt lat="38.1655902" lon="12.7453404"><ele>36.0</ele><time>2026-04-25T16:16:36.361Z</time></trkpt><trkpt lat="38.1657439" lon="12.745461"><ele>35.333333333333336</ele><time>2026-04-25T16:16:37.362Z</time></trkpt><trkpt lat="38.1658963" lon="12.7455765"><ele>34.66666666666667</ele><time>2026-04-25T16:16:38.362Z</time></trkpt><trkpt lat="38.1660446" lon="12.7456967"><ele>34.0</ele><time>2026-04-25T16:16:39.363Z</time></trkpt><trkpt lat="38.1661979" lon="12.7458013"><ele>34.0</ele><time>2026-04-25T16:16:40.362Z</time></trkpt><trkpt lat="38.1663502" lon="12.745913"><ele>34.0</ele><time>2026-04-25T16:16:41.362Z</time></trkpt><trkpt lat="38.1664989" lon="12.7460192"><ele>34.0</ele><time>2026-04-25T16:16:42.363Z</time></trkpt><trkpt lat="38.1666486" lon="12.7461311"><ele>33.66666666666667</ele><time>2026-04-25T16:16:43.362Z</time></trkpt><trkpt lat="38.1667962" lon="12.7462381"><ele>33.333333333333336</ele><time>2026-04-25T16:16:44.362Z</time></trkpt><trkpt lat="38.1669494" lon="12.746335"><ele>33.0</ele><time>2026-04-25T16:16:45.362Z</time></trkpt><trkpt lat="38.1670975" lon="12.7464267"><ele>33.0</ele><time>2026-04-25T16:16:46.361Z</time></trkpt><trkpt lat="38.1672465" lon="12.7465258"><ele>33.0</ele><time>2026-04-25T16:16:47.362Z</time></trkpt><trkpt lat="38.1673953" lon="12.7466256"><ele>33.0</ele><time>2026-04-25T16:16:48.361Z</time></trkpt><trkpt lat="38.1675462" lon="12.7467223"><ele>33.0</ele><time>2026-04-25T16:16:49.362Z</time></trkpt><trkpt lat="38.1676976" lon="12.7468191"><ele>33.0</ele><time>2026-04-25T16:16:50.362Z</time></trkpt><trkpt lat="38.1678478" lon="12.746908"><ele>33.0</ele><time>2026-04-25T16:16:51.361Z</time></trkpt><trkpt lat="38.1679906" lon="12.7470037"><ele>33.0</ele><time>2026-04-25T16:16:52.362Z</time></trkpt><trkpt lat="38.1681318" lon="12.7471054"><ele>33.0</ele><time>2026-04-25T16:16:53.362Z</time></trkpt><trkpt lat="38.1682676" lon="12.7472073"><ele>33.0</ele><time>2026-04-25T16:16:54.363Z</time></trkpt><trkpt lat="38.1684012" lon="12.7473211"><ele>32.333333333333336</ele><time>2026-04-25T16:16:55.363Z</time></trkpt><trkpt lat="38.1685199" lon="12.7474551"><ele>31.666666666666668</ele><time>2026-04-25T16:16:56.362Z</time></trkpt><trkpt lat="38.1686352" lon="12.7475937"><ele>31.0</ele><time>2026-04-25T16:16:57.362Z</time></trkpt><trkpt lat="38.1687536" lon="12.7477404"><ele>31.0</ele><time>2026-04-25T16:16:58.361Z</time></trkpt><trkpt lat="38.1688677" lon="12.7478923"><ele>31.0</ele><time>2026-04-25T16:16:59.362Z</time></trkpt><trkpt lat="38.1689853" lon="12.7480547"><ele>31.0</ele><time>2026-04-25T16:17:00.362Z</time></trkpt><trkpt lat="38.1691014" lon="12.7482208"><ele>29.333333333333336</ele><time>2026-04-25T16:17:01.362Z</time></trkpt><trkpt lat="38.1692179" lon="12.7483781"><ele>27.666666666666664</ele><time>2026-04-25T16:17:02.363Z</time></trkpt><trkpt lat="38.1693322" lon="12.7485338"><ele>26.0</ele><time>2026-04-25T16:17:03.362Z</time></trkpt><trkpt lat="38.1694482" lon="12.7486951"><ele>26.0</ele><time>2026-04-25T16:17:04.363Z</time></trkpt><trkpt lat="38.1695564" lon="12.7488492"><ele>26.0</ele><time>2026-04-25T16:17:05.362Z</time></trkpt><trkpt lat="38.1696645" lon="12.7490057"><ele>26.0</ele><time>2026-04-25T16:17:06.362Z</time></trkpt><trkpt lat="38.1697723" lon="12.7491598"><ele>25.0</ele><time>2026-04-25T16:17:07.362Z</time></trkpt><trkpt lat="38.1698846" lon="12.7493089"><ele>24.0</ele><time>2026-04-25T16:17:08.361Z</time></trkpt><trkpt lat="38.1699944" lon="12.7494622"><ele>23.0</ele><time>2026-04-25T16:17:09.362Z</time></trkpt><trkpt lat="38.1701044" lon="12.7496127"><ele>23.0</ele><time>2026-04-25T16:17:10.362Z</time></trkpt><trkpt lat="38.1702171" lon="12.7497673"><ele>23.0</ele><time>2026-04-25T16:17:11.362Z</time></trkpt><trkpt lat="38.1703339" lon="12.7499195"><ele>23.0</ele><time>2026-04-25T16:17:12.362Z</time></trkpt><trkpt lat="38.1704462" lon="12.7500681"><ele>22.666666666666668</ele><time>2026-04-25T16:17:13.362Z</time></trkpt><trkpt lat="38.1705567" lon="12.7502186"><ele>22.333333333333332</ele><time>2026-04-25T16:17:14.362Z</time></trkpt><trkpt lat="38.1706647" lon="12.7503732"><ele>22.0</ele><time>2026-04-25T16:17:15.362Z</time></trkpt><trkpt lat="38.1707721" lon="12.7505259"><ele>21.333333333333332</ele><time>2026-04-25T16:17:16.362Z</time></trkpt><trkpt lat="38.1708844" lon="12.7506818"><ele>20.666666666666668</ele><time>2026-04-25T16:17:17.362Z</time></trkpt><trkpt lat="38.1710075" lon="12.7508382"><ele>20.0</ele><time>2026-04-25T16:17:18.362Z</time></trkpt><trkpt lat="38.1711235" lon="12.7509989"><ele>19.666666666666668</ele><time>2026-04-25T16:17:19.363Z</time></trkpt><trkpt lat="38.171238" lon="12.7511601"><ele>19.333333333333332</ele><time>2026-04-25T16:17:20.361Z</time></trkpt><trkpt lat="38.1713553" lon="12.7513178"><ele>19.0</ele><time>2026-04-25T16:17:21.363Z</time></trkpt><trkpt lat="38.1714663" lon="12.7514656"><ele>18.75</ele><time>2026-04-25T16:17:22.362Z</time></trkpt><trkpt lat="38.1715681" lon="12.7516077"><ele>18.5</ele><time>2026-04-25T16:17:23.362Z</time></trkpt><trkpt lat="38.1716664" lon="12.7517393"><ele>18.25</ele><time>2026-04-25T16:17:24.363Z</time></trkpt><trkpt lat="38.171761" lon="12.7518607"><ele>18.0</ele><time>2026-04-25T16:17:25.362Z</time></trkpt><trkpt lat="38.1718458" lon="12.7519849"><ele>18.0</ele><time>2026-04-25T16:17:26.362Z</time></trkpt><trkpt lat="38.17193" lon="12.7521052"><ele>18.0</ele><time>2026-04-25T16:17:27.361Z</time></trkpt><trkpt lat="38.1720125" lon="12.7522234"><ele>18.0</ele><time>2026-04-25T16:17:28.363Z</time></trkpt><trkpt lat="38.1720939" lon="12.7523431"><ele>18.0</ele><time>2026-04-25T16:17:29.362Z</time></trkpt><trkpt lat="38.172174" lon="12.7524631"><ele>18.0</ele><time>2026-04-25T16:17:30.363Z</time></trkpt><trkpt lat="38.172248" lon="12.7525834"><ele>18.0</ele><time>2026-04-25T16:17:31.363Z</time></trkpt><trkpt lat="38.1723277" lon="12.7526938"><ele>18.0</ele><time>2026-04-25T16:17:32.363Z</time></trkpt><trkpt lat="38.1724115" lon="12.7528052"><ele>18.0</ele><time>2026-04-25T16:17:33.363Z</time></trkpt><trkpt lat="38.1724939" lon="12.7529095"><ele>17.75</ele><time>2026-04-25T16:17:34.362Z</time></trkpt><trkpt lat="38.1725738" lon="12.7530174"><ele>17.5</ele><time>2026-04-25T16:17:35.362Z</time></trkpt><trkpt lat="38.1726523" lon="12.7531272"><ele>17.25</ele><time>2026-04-25T16:17:36.362Z</time></trkpt><trkpt lat="38.1727251" lon="12.7532409"><ele>17.0</ele><time>2026-04-25T16:17:37.362Z</time></trkpt><trkpt lat="38.1727977" lon="12.7533429"><ele>17.0</ele><time>2026-04-25T16:17:38.362Z</time></trkpt><trkpt lat="38.1728924" lon="12.7534689"><ele>17.0</ele><time>2026-04-25T16:17:39.363Z</time></trkpt><trkpt lat="38.172966" lon="12.7535678"><ele>17.0</ele><time>2026-04-25T16:17:40.363Z</time></trkpt><trkpt lat="38.1730367" lon="12.7536556"><ele>17.0</ele><time>2026-04-25T16:17:41.362Z</time></trkpt><trkpt lat="38.1730997" lon="12.7537422"><ele>17.0</ele><time>2026-04-25T16:17:42.362Z</time></trkpt><trkpt lat="38.1731521" lon="12.7538347"><ele>17.0</ele><time>2026-04-25T16:17:43.362Z</time></trkpt><trkpt lat="38.1731932" lon="12.753929"><ele>17.0</ele><time>2026-04-25T16:17:44.363Z</time></trkpt><trkpt lat="38.1732222" lon="12.7540344"><ele>17.0</ele><time>2026-04-25T16:17:45.361Z</time></trkpt><trkpt lat="38.1732413" lon="12.7541162"><ele>17.0</ele><time>2026-04-25T16:17:46.362Z</time></trkpt><trkpt lat="38.1732468" lon="12.7542252"><ele>17.0</ele><time>2026-04-25T16:17:48.362Z</time></trkpt><trkpt lat="38.1732354" lon="12.7543642"><ele>17.0</ele><time>2026-04-25T16:17:50.363Z</time></trkpt><trkpt lat="38.1732185" lon="12.7544416"><ele>17.2</ele><time>2026-04-25T16:17:51.363Z</time></trkpt><trkpt lat="38.1732048" lon="12.7545398"><ele>17.4</ele><time>2026-04-25T16:17:52.362Z</time></trkpt><trkpt lat="38.1731866" lon="12.7546437"><ele>17.6</ele><time>2026-04-25T16:17:53.363Z</time></trkpt><trkpt lat="38.1731662" lon="12.7547567"><ele>17.8</ele><time>2026-04-25T16:17:54.363Z</time></trkpt><trkpt lat="38.1731363" lon="12.7548758"><ele>18.0</ele><time>2026-04-25T16:17:55.362Z</time></trkpt><trkpt lat="38.1731017" lon="12.7550045"><ele>18.0</ele><time>2026-04-25T16:17:56.362Z</time></trkpt><trkpt lat="38.1730721" lon="12.7551403"><ele>18.0</ele><time>2026-04-25T16:17:57.363Z</time></trkpt><trkpt lat="38.173043" lon="12.7552831"><ele>18.0</ele><time>2026-04-25T16:17:58.363Z</time></trkpt><trkpt lat="38.1730104" lon="12.7554208"><ele>18.0</ele><time>2026-04-25T16:17:59.362Z</time></trkpt><trkpt lat="38.1729787" lon="12.7555569"><ele>18.0</ele><time>2026-04-25T16:18:00.364Z</time></trkpt><trkpt lat="38.1729476" lon="12.7557042"><ele>18.0</ele><time>2026-04-25T16:18:01.362Z</time></trkpt><trkpt lat="38.1729143" lon="12.7558551"><ele>18.0</ele><time>2026-04-25T16:18:02.363Z</time></trkpt><trkpt lat="38.1728746" lon="12.7560077"><ele>18.0</ele><time>2026-04-25T16:18:03.362Z</time></trkpt><trkpt lat="38.1728364" lon="12.7561604"><ele>18.25</ele><time>2026-04-25T16:18:04.362Z</time></trkpt><trkpt lat="38.1728005" lon="12.7563186"><ele>18.5</ele><time>2026-04-25T16:18:05.363Z</time></trkpt><trkpt lat="38.1727611" lon="12.7564834"><ele>18.75</ele><time>2026-04-25T16:18:06.362Z</time></trkpt><trkpt lat="38.172725" lon="12.7566531"><ele>19.0</ele><time>2026-04-25T16:18:07.362Z</time></trkpt><trkpt lat="38.1726895" lon="12.7568202"><ele>19.25</ele><time>2026-04-25T16:18:08.363Z</time></trkpt><trkpt lat="38.1726495" lon="12.7569826"><ele>19.5</ele><time>2026-04-25T16:18:09.363Z</time></trkpt><trkpt lat="38.1726134" lon="12.7571427"><ele>19.75</ele><time>2026-04-25T16:18:10.363Z</time></trkpt><trkpt lat="38.1725743" lon="12.7573106"><ele>20.0</ele><time>2026-04-25T16:18:11.362Z</time></trkpt><trkpt lat="38.1725338" lon="12.757479"><ele>20.0</ele><time>2026-04-25T16:18:12.362Z</time></trkpt><trkpt lat="38.1724989" lon="12.7576417"><ele>20.0</ele><time>2026-04-25T16:18:13.364Z</time></trkpt><trkpt lat="38.1724668" lon="12.757808"><ele>20.0</ele><time>2026-04-25T16:18:14.363Z</time></trkpt><trkpt lat="38.172433" lon="12.7579724"><ele>20.0</ele><time>2026-04-25T16:18:15.362Z</time></trkpt><trkpt lat="38.1723949" lon="12.7581341"><ele>20.25</ele><time>2026-04-25T16:18:16.362Z</time></trkpt><trkpt lat="38.1723503" lon="12.758302"><ele>20.5</ele><time>2026-04-25T16:18:17.362Z</time></trkpt><trkpt lat="38.1723008" lon="12.7584679"><ele>20.75</ele><time>2026-04-25T16:18:18.361Z</time></trkpt><trkpt lat="38.1722495" lon="12.7586253"><ele>21.0</ele><time>2026-04-25T16:18:19.361Z</time></trkpt><trkpt lat="38.172194" lon="12.7587794"><ele>21.0</ele><time>2026-04-25T16:18:20.362Z</time></trkpt><trkpt lat="38.1721387" lon="12.7589309"><ele>21.0</ele><time>2026-04-25T16:18:21.363Z</time></trkpt><trkpt lat="38.1720781" lon="12.7590912"><ele>21.0</ele><time>2026-04-25T16:18:22.362Z</time></trkpt><trkpt lat="38.172021" lon="12.7592491"><ele>21.0</ele><time>2026-04-25T16:18:23.363Z</time></trkpt><trkpt lat="38.1719034" lon="12.7595678"><ele>21.25</ele><time>2026-04-25T16:18:25.362Z</time></trkpt><trkpt lat="38.171847" lon="12.7597303"><ele>21.5</ele><time>2026-04-25T16:18:26.363Z</time></trkpt><trkpt lat="38.1717906" lon="12.7598995"><ele>21.75</ele><time>2026-04-25T16:18:27.361Z</time></trkpt><trkpt lat="38.1717289" lon="12.7600615"><ele>22.0</ele><time>2026-04-25T16:18:28.363Z</time></trkpt><trkpt lat="38.1716675" lon="12.7602255"><ele>22.5</ele><time>2026-04-25T16:18:29.362Z</time></trkpt><trkpt lat="38.1716115" lon="12.7603852"><ele>23.0</ele><time>2026-04-25T16:18:30.362Z</time></trkpt><trkpt lat="38.1715518" lon="12.7605458"><ele>23.5</ele><time>2026-04-25T16:18:31.362Z</time></trkpt><trkpt lat="38.1714893" lon="12.7607043"><ele>24.0</ele><time>2026-04-25T16:18:32.363Z</time></trkpt><trkpt lat="38.1714263" lon="12.7608694"><ele>24.0</ele><time>2026-04-25T16:18:33.363Z</time></trkpt><trkpt lat="38.1713671" lon="12.7610263"><ele>24.0</ele><time>2026-04-25T16:18:34.363Z</time></trkpt><trkpt lat="38.171306" lon="12.7611894"><ele>24.0</ele><time>2026-04-25T16:18:35.362Z</time></trkpt><trkpt lat="38.1712452" lon="12.7613402"><ele>24.0</ele><time>2026-04-25T16:18:36.362Z</time></trkpt><trkpt lat="38.1711642" lon="12.7614756"><ele>23.75</ele><time>2026-04-25T16:18:37.361Z</time></trkpt><trkpt lat="38.1710766" lon="12.7616045"><ele>23.5</ele><time>2026-04-25T16:18:38.362Z</time></trkpt><trkpt lat="38.1709756" lon="12.7617135"><ele>23.25</ele><time>2026-04-25T16:18:39.361Z</time></trkpt><trkpt lat="38.1708626" lon="12.7618187"><ele>23.0</ele><time>2026-04-25T16:18:40.362Z</time></trkpt><trkpt lat="38.1707513" lon="12.7619168"><ele>23.25</ele><time>2026-04-25T16:18:41.362Z</time></trkpt><trkpt lat="38.1706393" lon="12.762017"><ele>23.5</ele><time>2026-04-25T16:18:42.362Z</time></trkpt><trkpt lat="38.1705219" lon="12.7621142"><ele>23.75</ele><time>2026-04-25T16:18:43.361Z</time></trkpt><trkpt lat="38.1703982" lon="12.7622114"><ele>24.0</ele><time>2026-04-25T16:18:44.363Z</time></trkpt><trkpt lat="38.1702755" lon="12.7623158"><ele>24.0</ele><time>2026-04-25T16:18:45.363Z</time></trkpt><trkpt lat="38.1701497" lon="12.7624208"><ele>24.0</ele><time>2026-04-25T16:18:46.363Z</time></trkpt><trkpt lat="38.1700319" lon="12.7625241"><ele>24.0</ele><time>2026-04-25T16:18:47.362Z</time></trkpt><trkpt lat="38.1699028" lon="12.7626293"><ele>24.0</ele><time>2026-04-25T16:18:48.362Z</time></trkpt><trkpt lat="38.1697807" lon="12.7627246"><ele>24.0</ele><time>2026-04-25T16:18:49.362Z</time></trkpt><trkpt lat="38.169645" lon="12.7628142"><ele>24.0</ele><time>2026-04-25T16:18:50.362Z</time></trkpt><trkpt lat="38.1695091" lon="12.7628968"><ele>24.0</ele><time>2026-04-25T16:18:51.363Z</time></trkpt><trkpt lat="38.1693716" lon="12.7629847"><ele>24.0</ele><time>2026-04-25T16:18:52.362Z</time></trkpt><trkpt lat="38.1692325" lon="12.7630741"><ele>24.0</ele><time>2026-04-25T16:18:53.363Z</time></trkpt><trkpt lat="38.1690896" lon="12.7631655"><ele>24.0</ele><time>2026-04-25T16:18:54.361Z</time></trkpt><trkpt lat="38.1689384" lon="12.7632633"><ele>24.333333333333336</ele><time>2026-04-25T16:18:55.363Z</time></trkpt><trkpt lat="38.1687788" lon="12.7633643"><ele>24.666666666666668</ele><time>2026-04-25T16:18:56.362Z</time></trkpt><trkpt lat="38.1686112" lon="12.7634605"><ele>25.0</ele><time>2026-04-25T16:18:57.362Z</time></trkpt><trkpt lat="38.1684331" lon="12.7635603"><ele>24.666666666666668</ele><time>2026-04-25T16:18:58.363Z</time></trkpt><trkpt lat="38.1682403" lon="12.7636612"><ele>24.333333333333336</ele><time>2026-04-25T16:18:59.362Z</time></trkpt><trkpt lat="38.1680383" lon="12.7637511"><ele>24.0</ele><time>2026-04-25T16:19:00.362Z</time></trkpt><trkpt lat="38.1678379" lon="12.7638405"><ele>24.0</ele><time>2026-04-25T16:19:01.363Z</time></trkpt><trkpt lat="38.1676411" lon="12.7639181"><ele>24.0</ele><time>2026-04-25T16:19:02.362Z</time></trkpt><trkpt lat="38.1674416" lon="12.7640099"><ele>24.0</ele><time>2026-04-25T16:19:03.362Z</time></trkpt><trkpt lat="38.167249" lon="12.7641012"><ele>25.0</ele><time>2026-04-25T16:19:04.363Z</time></trkpt><trkpt lat="38.167052" lon="12.7641855"><ele>26.0</ele><time>2026-04-25T16:19:05.361Z</time></trkpt><trkpt lat="38.1668553" lon="12.7642653"><ele>27.0</ele><time>2026-04-25T16:19:06.363Z</time></trkpt><trkpt lat="38.1666602" lon="12.764348"><ele>26.666666666666664</ele><time>2026-04-25T16:19:07.362Z</time></trkpt><trkpt lat="38.1664633" lon="12.7644372"><ele>26.333333333333332</ele><time>2026-04-25T16:19:08.362Z</time></trkpt><trkpt lat="38.1662674" lon="12.7645226"><ele>26.0</ele><time>2026-04-25T16:19:09.363Z</time></trkpt><trkpt lat="38.1660786" lon="12.7646011"><ele>26.0</ele><time>2026-04-25T16:19:10.363Z</time></trkpt><trkpt lat="38.1658833" lon="12.7646842"><ele>26.0</ele><time>2026-04-25T16:19:11.362Z</time></trkpt><trkpt lat="38.1656903" lon="12.7647536"><ele>26.0</ele><time>2026-04-25T16:19:12.363Z</time></trkpt><trkpt lat="38.1655027" lon="12.7648297"><ele>26.333333333333332</ele><time>2026-04-25T16:19:13.362Z</time></trkpt><trkpt lat="38.1653064" lon="12.7648923"><ele>26.666666666666664</ele><time>2026-04-25T16:19:14.362Z</time></trkpt><trkpt lat="38.1651052" lon="12.7649483"><ele>27.0</ele><time>2026-04-25T16:19:15.363Z</time></trkpt><trkpt lat="38.1648956" lon="12.7649926"><ele>27.0</ele><time>2026-04-25T16:19:16.362Z</time></trkpt><trkpt lat="38.1646829" lon="12.7650444"><ele>27.0</ele><time>2026-04-25T16:19:17.362Z</time></trkpt><trkpt lat="38.1644629" lon="12.7650969"><ele>27.0</ele><time>2026-04-25T16:19:18.364Z</time></trkpt><trkpt lat="38.1642458" lon="12.7651511"><ele>26.0</ele><time>2026-04-25T16:19:19.363Z</time></trkpt><trkpt lat="38.1640347" lon="12.7651988"><ele>25.0</ele><time>2026-04-25T16:19:20.361Z</time></trkpt><trkpt lat="38.1638335" lon="12.76525"><ele>24.0</ele><time>2026-04-25T16:19:21.363Z</time></trkpt><trkpt lat="38.163654" lon="12.765288"><ele>24.0</ele><time>2026-04-25T16:19:22.362Z</time></trkpt><trkpt lat="38.1634715" lon="12.7653297"><ele>24.0</ele><time>2026-04-25T16:19:23.362Z</time></trkpt><trkpt lat="38.1632998" lon="12.7653686"><ele>24.0</ele><time>2026-04-25T16:19:24.364Z</time></trkpt><trkpt lat="38.1631284" lon="12.7653805"><ele>24.333333333333336</ele><time>2026-04-25T16:19:25.363Z</time></trkpt><trkpt lat="38.162951" lon="12.7653877"><ele>24.666666666666668</ele><time>2026-04-25T16:19:26.362Z</time></trkpt><trkpt lat="38.1627616" lon="12.7653343"><ele>25.0</ele><time>2026-04-25T16:19:27.362Z</time></trkpt><trkpt lat="38.1625799" lon="12.7652779"><ele>25.0</ele><time>2026-04-25T16:19:28.362Z</time></trkpt><trkpt lat="38.1623975" lon="12.7652128"><ele>25.0</ele><time>2026-04-25T16:19:29.362Z</time></trkpt><trkpt lat="38.1622165" lon="12.7651539"><ele>25.0</ele><time>2026-04-25T16:19:30.362Z</time></trkpt><trkpt lat="38.1620402" lon="12.7650914"><ele>26.0</ele><time>2026-04-25T16:19:31.362Z</time></trkpt><trkpt lat="38.1618674" lon="12.7650351"><ele>27.0</ele><time>2026-04-25T16:19:32.362Z</time></trkpt><trkpt lat="38.1616937" lon="12.7649791"><ele>28.0</ele><time>2026-04-25T16:19:33.361Z</time></trkpt><trkpt lat="38.1615273" lon="12.7649216"><ele>28.0</ele><time>2026-04-25T16:19:34.364Z</time></trkpt><trkpt lat="38.1613616" lon="12.7648606"><ele>28.0</ele><time>2026-04-25T16:19:35.362Z</time></trkpt><trkpt lat="38.1612054" lon="12.7648092"><ele>28.0</ele><time>2026-04-25T16:19:36.362Z</time></trkpt><trkpt lat="38.1610522" lon="12.7647534"><ele>28.0</ele><time>2026-04-25T16:19:37.363Z</time></trkpt><trkpt lat="38.1609017" lon="12.7646971"><ele>28.0</ele><time>2026-04-25T16:19:38.363Z</time></trkpt><trkpt lat="38.1607549" lon="12.7646545"><ele>28.0</ele><time>2026-04-25T16:19:39.363Z</time></trkpt><trkpt lat="38.1606063" lon="12.7646021"><ele>28.666666666666668</ele><time>2026-04-25T16:19:40.363Z</time></trkpt><trkpt lat="38.160453" lon="12.764548"><ele>29.333333333333336</ele><time>2026-04-25T16:19:41.362Z</time></trkpt><trkpt lat="38.1602969" lon="12.7644928"><ele>30.0</ele><time>2026-04-25T16:19:42.362Z</time></trkpt><trkpt lat="38.1601417" lon="12.7644452"><ele>30.0</ele><time>2026-04-25T16:19:43.363Z</time></trkpt><trkpt lat="38.1599821" lon="12.7643948"><ele>30.0</ele><time>2026-04-25T16:19:44.362Z</time></trkpt><trkpt lat="38.1598239" lon="12.7643444"><ele>30.0</ele><time>2026-04-25T16:19:45.363Z</time></trkpt><trkpt lat="38.15967" lon="12.7642935"><ele>33.333333333333336</ele><time>2026-04-25T16:19:46.363Z</time></trkpt><trkpt lat="38.1595131" lon="12.7642502"><ele>36.66666666666667</ele><time>2026-04-25T16:19:47.362Z</time></trkpt><trkpt lat="38.1593549" lon="12.7642156"><ele>40.0</ele><time>2026-04-25T16:19:48.363Z</time></trkpt><trkpt lat="38.1591929" lon="12.7641894"><ele>44.0</ele><time>2026-04-25T16:19:49.362Z</time></trkpt><trkpt lat="38.1590238" lon="12.7641852"><ele>48.0</ele><time>2026-04-25T16:19:50.363Z</time></trkpt><trkpt lat="38.158855" lon="12.7641915"><ele>52.0</ele><time>2026-04-25T16:19:51.362Z</time></trkpt><trkpt lat="38.1586884" lon="12.7642081"><ele>52.0</ele><time>2026-04-25T16:19:52.363Z</time></trkpt><trkpt lat="38.1585258" lon="12.7642331"><ele>52.0</ele><time>2026-04-25T16:19:53.363Z</time></trkpt><trkpt lat="38.1583747" lon="12.7642716"><ele>52.0</ele><time>2026-04-25T16:19:54.363Z</time></trkpt><trkpt lat="38.1582373" lon="12.7643068"><ele>51.25</ele><time>2026-04-25T16:19:55.362Z</time></trkpt><trkpt lat="38.1580954" lon="12.7643565"><ele>50.5</ele><time>2026-04-25T16:19:56.362Z</time></trkpt><trkpt lat="38.1579592" lon="12.7644057"><ele>49.75</ele><time>2026-04-25T16:19:57.363Z</time></trkpt><trkpt lat="38.1578173" lon="12.7644528"><ele>49.0</ele><time>2026-04-25T16:19:58.363Z</time></trkpt><trkpt lat="38.1576721" lon="12.7645082"><ele>49.0</ele><time>2026-04-25T16:19:59.363Z</time></trkpt><trkpt lat="38.1575256" lon="12.7645558"><ele>49.0</ele><time>2026-04-25T16:20:00.364Z</time></trkpt><trkpt lat="38.1573793" lon="12.7646045"><ele>49.0</ele><time>2026-04-25T16:20:01.363Z</time></trkpt><trkpt lat="38.1572291" lon="12.7646551"><ele>50.666666666666664</ele><time>2026-04-25T16:20:02.363Z</time></trkpt><trkpt lat="38.1570726" lon="12.7646991"><ele>52.33333333333333</ele><time>2026-04-25T16:20:03.362Z</time></trkpt><trkpt lat="38.1569141" lon="12.7647411"><ele>54.0</ele><time>2026-04-25T16:20:04.362Z</time></trkpt><trkpt lat="38.1567588" lon="12.7647826"><ele>54.0</ele><time>2026-04-25T16:20:05.362Z</time></trkpt><trkpt lat="38.1566041" lon="12.7648248"><ele>54.0</ele><time>2026-04-25T16:20:06.362Z</time></trkpt><trkpt lat="38.1564433" lon="12.7648567"><ele>54.0</ele><time>2026-04-25T16:20:07.363Z</time></trkpt><trkpt lat="38.15629" lon="12.764889"><ele>56.25</ele><time>2026-04-25T16:20:08.363Z</time></trkpt><trkpt lat="38.1561454" lon="12.7649128"><ele>58.5</ele><time>2026-04-25T16:20:09.364Z</time></trkpt><trkpt lat="38.1560136" lon="12.7649351"><ele>60.75</ele><time>2026-04-25T16:20:10.363Z</time></trkpt><trkpt lat="38.1558964" lon="12.7649426"><ele>63.0</ele><time>2026-04-25T16:20:11.362Z</time></trkpt><trkpt lat="38.1557789" lon="12.7649253"><ele>65.0</ele><time>2026-04-25T16:20:12.362Z</time></trkpt><trkpt lat="38.1555427" lon="12.7648374"><ele>67.0</ele><time>2026-04-25T16:20:14.363Z</time></trkpt><trkpt lat="38.1554133" lon="12.7647823"><ele>69.0</ele><time>2026-04-25T16:20:15.363Z</time></trkpt><trkpt lat="38.1552712" lon="12.7647303"><ele>69.0</ele><time>2026-04-25T16:20:16.364Z</time></trkpt><trkpt lat="38.1549697" lon="12.7646384"><ele>69.0</ele><time>2026-04-25T16:20:18.363Z</time></trkpt><trkpt lat="38.15481" lon="12.7645934"><ele>71.33333333333333</ele><time>2026-04-25T16:20:19.363Z</time></trkpt><trkpt lat="38.1546489" lon="12.7645454"><ele>73.66666666666666</ele><time>2026-04-25T16:20:20.363Z</time></trkpt><trkpt lat="38.1544897" lon="12.7645124"><ele>76.0</ele><time>2026-04-25T16:20:21.363Z</time></trkpt><trkpt lat="38.1543307" lon="12.7645092"><ele>76.0</ele><time>2026-04-25T16:20:22.363Z</time></trkpt><trkpt lat="38.1541688" lon="12.7645451"><ele>76.0</ele><time>2026-04-25T16:20:23.363Z</time></trkpt><trkpt lat="38.1540056" lon="12.7646092"><ele>76.0</ele><time>2026-04-25T16:20:24.362Z</time></trkpt><trkpt lat="38.1538516" lon="12.7646812"><ele>80.0</ele><time>2026-04-25T16:20:25.363Z</time></trkpt><trkpt lat="38.1537055" lon="12.7647529"><ele>84.0</ele><time>2026-04-25T16:20:26.364Z</time></trkpt><trkpt lat="38.1535588" lon="12.7648156"><ele>88.0</ele><time>2026-04-25T16:20:27.363Z</time></trkpt><trkpt lat="38.1534231" lon="12.7648694"><ele>88.0</ele><time>2026-04-25T16:20:28.361Z</time></trkpt><trkpt lat="38.1532904" lon="12.764904"><ele>88.0</ele><time>2026-04-25T16:20:29.363Z</time></trkpt><trkpt lat="38.1531561" lon="12.764927"><ele>88.0</ele><time>2026-04-25T16:20:30.363Z</time></trkpt><trkpt lat="38.1530172" lon="12.7649462"><ele>88.0</ele><time>2026-04-25T16:20:31.363Z</time></trkpt><trkpt lat="38.1528787" lon="12.7649671"><ele>90.75</ele><time>2026-04-25T16:20:32.363Z</time></trkpt><trkpt lat="38.1527408" lon="12.7649987"><ele>93.5</ele><time>2026-04-25T16:20:33.363Z</time></trkpt><trkpt lat="38.1526057" lon="12.7650219"><ele>96.25</ele><time>2026-04-25T16:20:34.363Z</time></trkpt><trkpt lat="38.1524631" lon="12.76504"><ele>99.0</ele><time>2026-04-25T16:20:35.363Z</time></trkpt><trkpt lat="38.1523286" lon="12.7650589"><ele>102.0</ele><time>2026-04-25T16:20:36.363Z</time></trkpt><trkpt lat="38.1521864" lon="12.7650834"><ele>105.0</ele><time>2026-04-25T16:20:37.363Z</time></trkpt><trkpt lat="38.1520475" lon="12.7651051"><ele>108.0</ele><time>2026-04-25T16:20:38.363Z</time></trkpt><trkpt lat="38.1519031" lon="12.7651258"><ele>111.0</ele><time>2026-04-25T16:20:39.363Z</time></trkpt><trkpt lat="38.1517614" lon="12.765147"><ele>111.0</ele><time>2026-04-25T16:20:40.363Z</time></trkpt><trkpt lat="38.1516192" lon="12.765171"><ele>111.0</ele><time>2026-04-25T16:20:41.363Z</time></trkpt><trkpt lat="38.1514787" lon="12.7651794"><ele>111.0</ele><time>2026-04-25T16:20:42.363Z</time></trkpt><trkpt lat="38.1513409" lon="12.7651978"><ele>111.0</ele><time>2026-04-25T16:20:43.363Z</time></trkpt><trkpt lat="38.1512138" lon="12.7652237"><ele>112.25</ele><time>2026-04-25T16:20:44.363Z</time></trkpt><trkpt lat="38.1510799" lon="12.765259"><ele>113.5</ele><time>2026-04-25T16:20:45.362Z</time></trkpt><trkpt lat="38.1509512" lon="12.7653116"><ele>114.75</ele><time>2026-04-25T16:20:46.363Z</time></trkpt><trkpt lat="38.1508189" lon="12.7653746"><ele>116.0</ele><time>2026-04-25T16:20:47.363Z</time></trkpt><trkpt lat="38.1506843" lon="12.7654373"><ele>116.0</ele><time>2026-04-25T16:20:48.363Z</time></trkpt><trkpt lat="38.1504191" lon="12.7655558"><ele>116.0</ele><time>2026-04-25T16:20:50.364Z</time></trkpt><trkpt lat="38.1502906" lon="12.7656176"><ele>116.0</ele><time>2026-04-25T16:20:51.363Z</time></trkpt><trkpt lat="38.1501638" lon="12.7656762"><ele>116.0</ele><time>2026-04-25T16:20:52.364Z</time></trkpt><trkpt lat="38.150039" lon="12.7657318"><ele>116.0</ele><time>2026-04-25T16:20:53.364Z</time></trkpt><trkpt lat="38.1499061" lon="12.7657842"><ele>116.0</ele><time>2026-04-25T16:20:54.363Z</time></trkpt><trkpt lat="38.1497744" lon="12.7658234"><ele>116.0</ele><time>2026-04-25T16:20:55.363Z</time></trkpt><trkpt lat="38.1496424" lon="12.7658486"><ele>118.5</ele><time>2026-04-25T16:20:56.363Z</time></trkpt><trkpt lat="38.1495026" lon="12.7658714"><ele>121.0</ele><time>2026-04-25T16:20:57.363Z</time></trkpt><trkpt lat="38.1493657" lon="12.7658911"><ele>123.5</ele><time>2026-04-25T16:20:58.362Z</time></trkpt><trkpt lat="38.1492281" lon="12.7659152"><ele>126.0</ele><time>2026-04-25T16:20:59.363Z</time></trkpt><trkpt lat="38.1490877" lon="12.7659335"><ele>127.5</ele><time>2026-04-25T16:21:00.363Z</time></trkpt><trkpt lat="38.1489583" lon="12.7659503"><ele>129.0</ele><time>2026-04-25T16:21:01.363Z</time></trkpt><trkpt lat="38.1488232" lon="12.7659688"><ele>130.5</ele><time>2026-04-25T16:21:02.362Z</time></trkpt><trkpt lat="38.1486838" lon="12.7659797"><ele>132.0</ele><time>2026-04-25T16:21:03.363Z</time></trkpt><trkpt lat="38.1485423" lon="12.765971"><ele>132.0</ele><time>2026-04-25T16:21:04.363Z</time></trkpt><trkpt lat="38.1484073" lon="12.7659453"><ele>132.0</ele><time>2026-04-25T16:21:05.362Z</time></trkpt><trkpt lat="38.1482737" lon="12.7659037"><ele>132.0</ele><time>2026-04-25T16:21:06.364Z</time></trkpt><trkpt lat="38.1481437" lon="12.7658479"><ele>132.0</ele><time>2026-04-25T16:21:07.363Z</time></trkpt><trkpt lat="38.1480095" lon="12.7657929"><ele>131.25</ele><time>2026-04-25T16:21:08.362Z</time></trkpt><trkpt lat="38.1478871" lon="12.7657452"><ele>130.5</ele><time>2026-04-25T16:21:09.363Z</time></trkpt><trkpt lat="38.1477608" lon="12.765695"><ele>129.75</ele><time>2026-04-25T16:21:10.363Z</time></trkpt><trkpt lat="38.1476385" lon="12.7656462"><ele>129.0</ele><time>2026-04-25T16:21:11.363Z</time></trkpt><trkpt lat="38.1475136" lon="12.7655982"><ele>129.0</ele><time>2026-04-25T16:21:12.362Z</time></trkpt><trkpt lat="38.147388" lon="12.7655606"><ele>129.0</ele><time>2026-04-25T16:21:13.363Z</time></trkpt><trkpt lat="38.1472616" lon="12.7655296"><ele>129.0</ele><time>2026-04-25T16:21:14.363Z</time></trkpt><trkpt lat="38.1471279" lon="12.7654949"><ele>129.0</ele><time>2026-04-25T16:21:15.363Z</time></trkpt><trkpt lat="38.1470063" lon="12.7654693"><ele>131.0</ele><time>2026-04-25T16:21:16.363Z</time></trkpt><trkpt lat="38.1468971" lon="12.7654586"><ele>133.0</ele><time>2026-04-25T16:21:17.362Z</time></trkpt><trkpt lat="38.146784" lon="12.7654688"><ele>135.0</ele><time>2026-04-25T16:21:18.363Z</time></trkpt><trkpt lat="38.1466784" lon="12.7655088"><ele>137.0</ele><time>2026-04-25T16:21:19.363Z</time></trkpt><trkpt lat="38.146577" lon="12.7655904"><ele>140.5</ele><time>2026-04-25T16:21:20.362Z</time></trkpt><trkpt lat="38.1464863" lon="12.7656929"><ele>144.0</ele><time>2026-04-25T16:21:21.363Z</time></trkpt><trkpt lat="38.146411" lon="12.7658029"><ele>147.5</ele><time>2026-04-25T16:21:22.363Z</time></trkpt><trkpt lat="38.1463541" lon="12.7659316"><ele>151.0</ele><time>2026-04-25T16:21:23.363Z</time></trkpt><trkpt lat="38.1463292" lon="12.7660924"><ele>151.0</ele><time>2026-04-25T16:21:24.362Z</time></trkpt><trkpt lat="38.1463064" lon="12.7662542"><ele>151.0</ele><time>2026-04-25T16:21:25.363Z</time></trkpt><trkpt lat="38.1462702" lon="12.7664098"><ele>151.0</ele><time>2026-04-25T16:21:26.362Z</time></trkpt><trkpt lat="38.1462062" lon="12.7665704"><ele>151.0</ele><time>2026-04-25T16:21:27.363Z</time></trkpt><trkpt lat="38.1461388" lon="12.7667178"><ele>151.0</ele><time>2026-04-25T16:21:28.363Z</time></trkpt><trkpt lat="38.1460535" lon="12.7668577"><ele>151.0</ele><time>2026-04-25T16:21:29.362Z</time></trkpt><trkpt lat="38.1459587" lon="12.7669974"><ele>151.0</ele><time>2026-04-25T16:21:30.363Z</time></trkpt><trkpt lat="38.1458546" lon="12.7671462"><ele>151.0</ele><time>2026-04-25T16:21:31.363Z</time></trkpt><trkpt lat="38.1457411" lon="12.7672996"><ele>152.0</ele><time>2026-04-25T16:21:32.364Z</time></trkpt><trkpt lat="38.1456412" lon="12.7674485"><ele>153.0</ele><time>2026-04-25T16:21:33.363Z</time></trkpt><trkpt lat="38.1455567" lon="12.7675911"><ele>154.0</ele><time>2026-04-25T16:21:34.363Z</time></trkpt><trkpt lat="38.1454798" lon="12.7677324"><ele>155.0</ele><time>2026-04-25T16:21:35.363Z</time></trkpt><trkpt lat="38.1454217" lon="12.7678752"><ele>151.2</ele><time>2026-04-25T16:21:36.363Z</time></trkpt><trkpt lat="38.1453728" lon="12.7680072"><ele>147.4</ele><time>2026-04-25T16:21:37.363Z</time></trkpt><trkpt lat="38.1453214" lon="12.7681173"><ele>143.6</ele><time>2026-04-25T16:21:38.363Z</time></trkpt><trkpt lat="38.1452655" lon="12.768211"><ele>139.8</ele><time>2026-04-25T16:21:39.363Z</time></trkpt><trkpt lat="38.1451991" lon="12.7682651"><ele>136.0</ele><time>2026-04-25T16:21:40.363Z</time></trkpt><trkpt lat="38.1451261" lon="12.7682964"><ele>136.0</ele><time>2026-04-25T16:21:41.363Z</time></trkpt><trkpt lat="38.1450526" lon="12.7683021"><ele>136.0</ele><time>2026-04-25T16:21:42.364Z</time></trkpt><trkpt lat="38.1449681" lon="12.7682797"><ele>136.0</ele><time>2026-04-25T16:21:43.363Z</time></trkpt><trkpt lat="38.1448851" lon="12.7682167"><ele>136.0</ele><time>2026-04-25T16:21:44.363Z</time></trkpt><trkpt lat="38.144801" lon="12.7681368"><ele>136.0</ele><time>2026-04-25T16:21:45.363Z</time></trkpt><trkpt lat="38.1447238" lon="12.7680357"><ele>135.8</ele><time>2026-04-25T16:21:46.364Z</time></trkpt><trkpt lat="38.1446564" lon="12.7679258"><ele>135.6</ele><time>2026-04-25T16:21:47.363Z</time></trkpt><trkpt lat="38.1445842" lon="12.7677984"><ele>135.4</ele><time>2026-04-25T16:21:48.363Z</time></trkpt><trkpt lat="38.1445143" lon="12.7676909"><ele>135.2</ele><time>2026-04-25T16:21:49.363Z</time></trkpt><trkpt lat="38.1444333" lon="12.7676134"><ele>135.0</ele><time>2026-04-25T16:21:50.363Z</time></trkpt><trkpt lat="38.1443335" lon="12.7675645"><ele>138.8</ele><time>2026-04-25T16:21:51.364Z</time></trkpt><trkpt lat="38.1442237" lon="12.7675623"><ele>142.6</ele><time>2026-04-25T16:21:52.363Z</time></trkpt><trkpt lat="38.1441225" lon="12.7676044"><ele>146.4</ele><time>2026-04-25T16:21:53.364Z</time></trkpt><trkpt lat="38.1440376" lon="12.7676895"><ele>150.2</ele><time>2026-04-25T16:21:54.364Z</time></trkpt><trkpt lat="38.1439723" lon="12.7678097"><ele>154.0</ele><time>2026-04-25T16:21:55.363Z</time></trkpt><trkpt lat="38.1438979" lon="12.7679185"><ele>155.75</ele><time>2026-04-25T16:21:56.363Z</time></trkpt><trkpt lat="38.1438065" lon="12.7679986"><ele>157.5</ele><time>2026-04-25T16:21:57.363Z</time></trkpt><trkpt lat="38.1436987" lon="12.7680513"><ele>159.25</ele><time>2026-04-25T16:21:58.363Z</time></trkpt><trkpt lat="38.1435889" lon="12.7681277"><ele>161.0</ele><time>2026-04-25T16:21:59.363Z</time></trkpt><trkpt lat="38.1434948" lon="12.7682228"><ele>161.0</ele><time>2026-04-25T16:22:00.363Z</time></trkpt><trkpt lat="38.1434368" lon="12.7683344"><ele>161.0</ele><time>2026-04-25T16:22:01.363Z</time></trkpt><trkpt lat="38.1434156" lon="12.7684725"><ele>161.0</ele><time>2026-04-25T16:22:02.364Z</time></trkpt><trkpt lat="38.1434208" lon="12.7686331"><ele>161.0</ele><time>2026-04-25T16:22:03.363Z</time></trkpt><trkpt lat="38.1434413" lon="12.7687958"><ele>162.5</ele><time>2026-04-25T16:22:04.364Z</time></trkpt><trkpt lat="38.1434686" lon="12.7689539"><ele>164.0</ele><time>2026-04-25T16:22:05.363Z</time></trkpt><trkpt lat="38.1435011" lon="12.769112"><ele>165.5</ele><time>2026-04-25T16:22:06.362Z</time></trkpt><trkpt lat="38.1435304" lon="12.7692633"><ele>167.0</ele><time>2026-04-25T16:22:07.363Z</time></trkpt><trkpt lat="38.1435503" lon="12.7694091"><ele>167.8</ele><time>2026-04-25T16:22:08.364Z</time></trkpt><trkpt lat="38.1435635" lon="12.769542"><ele>168.6</ele><time>2026-04-25T16:22:09.363Z</time></trkpt><trkpt lat="38.1435675" lon="12.7696772"><ele>169.4</ele><time>2026-04-25T16:22:10.363Z</time></trkpt><trkpt lat="38.1435537" lon="12.7698086"><ele>170.20000000000002</ele><time>2026-04-25T16:22:11.364Z</time></trkpt><trkpt lat="38.1435266" lon="12.7699291"><ele>171.0</ele><time>2026-04-25T16:22:12.362Z</time></trkpt><trkpt lat="38.1434864" lon="12.7700446"><ele>171.0</ele><time>2026-04-25T16:22:13.363Z</time></trkpt><trkpt lat="38.1434365" lon="12.7701684"><ele>171.0</ele><time>2026-04-25T16:22:14.363Z</time></trkpt><trkpt lat="38.1433872" lon="12.7702957"><ele>171.0</ele><time>2026-04-25T16:22:15.363Z</time></trkpt><trkpt lat="38.1433383" lon="12.7704381"><ele>171.0</ele><time>2026-04-25T16:22:16.364Z</time></trkpt><trkpt lat="38.1432884" lon="12.7705789"><ele>171.0</ele><time>2026-04-25T16:22:17.362Z</time></trkpt><trkpt lat="38.1432468" lon="12.7707301"><ele>171.0</ele><time>2026-04-25T16:22:18.362Z</time></trkpt><trkpt lat="38.1432159" lon="12.7708827"><ele>171.0</ele><time>2026-04-25T16:22:19.363Z</time></trkpt><trkpt lat="38.1432006" lon="12.7710514"><ele>171.0</ele><time>2026-04-25T16:22:20.363Z</time></trkpt><trkpt lat="38.1431914" lon="12.7712094"><ele>177.8</ele><time>2026-04-25T16:22:21.364Z</time></trkpt><trkpt lat="38.1431857" lon="12.7713572"><ele>184.60000000000002</ele><time>2026-04-25T16:22:22.362Z</time></trkpt><trkpt lat="38.1431775" lon="12.7714966"><ele>191.4</ele><time>2026-04-25T16:22:23.362Z</time></trkpt><trkpt lat="38.1431663" lon="12.7716347"><ele>198.2</ele><time>2026-04-25T16:22:24.363Z</time></trkpt><trkpt lat="38.1431577" lon="12.7717711"><ele>205.0</ele><time>2026-04-25T16:22:25.363Z</time></trkpt><trkpt lat="38.1431476" lon="12.7718904"><ele>206.0</ele><time>2026-04-25T16:22:26.363Z</time></trkpt><trkpt lat="38.1431442" lon="12.77201"><ele>207.0</ele><time>2026-04-25T16:22:27.363Z</time></trkpt><trkpt lat="38.1431402" lon="12.7721296"><ele>208.0</ele><time>2026-04-25T16:22:28.362Z</time></trkpt><trkpt lat="38.1431393" lon="12.7722458"><ele>209.0</ele><time>2026-04-25T16:22:29.363Z</time></trkpt><trkpt lat="38.1431409" lon="12.7723899"><ele>210.0</ele><time>2026-04-25T16:22:30.364Z</time></trkpt><trkpt lat="38.1431472" lon="12.7725397"><ele>211.0</ele><time>2026-04-25T16:22:31.363Z</time></trkpt><trkpt lat="38.1431505" lon="12.7727087"><ele>212.0</ele><time>2026-04-25T16:22:32.364Z</time></trkpt><trkpt lat="38.1431502" lon="12.7728917"><ele>213.0</ele><time>2026-04-25T16:22:33.362Z</time></trkpt><trkpt lat="38.1431538" lon="12.773091"><ele>214.0</ele><time>2026-04-25T16:22:34.364Z</time></trkpt><trkpt lat="38.1431652" lon="12.7733075"><ele>216.0</ele><time>2026-04-25T16:22:35.362Z</time></trkpt><trkpt lat="38.1431705" lon="12.7735286"><ele>218.0</ele><time>2026-04-25T16:22:36.364Z</time></trkpt><trkpt lat="38.1431768" lon="12.7737469"><ele>220.0</ele><time>2026-04-25T16:22:37.362Z</time></trkpt><trkpt lat="38.1431737" lon="12.7739604"><ele>220.0</ele><time>2026-04-25T16:22:38.363Z</time></trkpt><trkpt lat="38.1431791" lon="12.7741732"><ele>220.0</ele><time>2026-04-25T16:22:39.363Z</time></trkpt><trkpt lat="38.1431707" lon="12.7743802"><ele>220.0</ele><time>2026-04-25T16:22:40.364Z</time></trkpt><trkpt lat="38.143175" lon="12.7745726"><ele>222.5</ele><time>2026-04-25T16:22:41.364Z</time></trkpt><trkpt lat="38.1431785" lon="12.7747546"><ele>225.0</ele><time>2026-04-25T16:22:42.362Z</time></trkpt><trkpt lat="38.1431925" lon="12.7749189"><ele>227.5</ele><time>2026-04-25T16:22:43.363Z</time></trkpt><trkpt lat="38.1432102" lon="12.7750848"><ele>230.0</ele><time>2026-04-25T16:22:44.364Z</time></trkpt><trkpt lat="38.1432302" lon="12.7752467"><ele>223.25</ele><time>2026-04-25T16:22:45.364Z</time></trkpt><trkpt lat="38.1432455" lon="12.7754042"><ele>216.5</ele><time>2026-04-25T16:22:46.365Z</time></trkpt><trkpt lat="38.1432561" lon="12.7755582"><ele>209.75</ele><time>2026-04-25T16:22:47.364Z</time></trkpt><trkpt lat="38.1432544" lon="12.7757128"><ele>203.0</ele><time>2026-04-25T16:22:48.363Z</time></trkpt><trkpt lat="38.1432443" lon="12.7758736"><ele>202.5</ele><time>2026-04-25T16:22:49.363Z</time></trkpt><trkpt lat="38.1432338" lon="12.7760267"><ele>202.0</ele><time>2026-04-25T16:22:50.363Z</time></trkpt><trkpt lat="38.1432173" lon="12.7761781"><ele>201.5</ele><time>2026-04-25T16:22:51.363Z</time></trkpt><trkpt lat="38.1431947" lon="12.776334"><ele>201.0</ele><time>2026-04-25T16:22:52.364Z</time></trkpt><trkpt lat="38.1431593" lon="12.7764833"><ele>203.75</ele><time>2026-04-25T16:22:53.363Z</time></trkpt><trkpt lat="38.1431115" lon="12.7766286"><ele>206.5</ele><time>2026-04-25T16:22:54.363Z</time></trkpt><trkpt lat="38.1430582" lon="12.7767544"><ele>209.25</ele><time>2026-04-25T16:22:55.363Z</time></trkpt><trkpt lat="38.1429934" lon="12.7768683"><ele>212.0</ele><time>2026-04-25T16:22:56.364Z</time></trkpt><trkpt lat="38.1429207" lon="12.7769783"><ele>212.0</ele><time>2026-04-25T16:22:57.364Z</time></trkpt><trkpt lat="38.1428302" lon="12.7770707"><ele>212.0</ele><time>2026-04-25T16:22:58.364Z</time></trkpt><trkpt lat="38.1427211" lon="12.7771525"><ele>212.0</ele><time>2026-04-25T16:22:59.364Z</time></trkpt><trkpt lat="38.1426016" lon="12.7772311"><ele>212.0</ele><time>2026-04-25T16:23:00.363Z</time></trkpt><trkpt lat="38.1424704" lon="12.7773099"><ele>219.25</ele><time>2026-04-25T16:23:01.364Z</time></trkpt><trkpt lat="38.1423392" lon="12.7773847"><ele>226.5</ele><time>2026-04-25T16:23:02.364Z</time></trkpt><trkpt lat="38.1422052" lon="12.7774761"><ele>233.75</ele><time>2026-04-25T16:23:03.363Z</time></trkpt><trkpt lat="38.1420819" lon="12.7775783"><ele>241.0</ele><time>2026-04-25T16:23:04.363Z</time></trkpt><trkpt lat="38.1419673" lon="12.7776807"><ele>234.25</ele><time>2026-04-25T16:23:05.363Z</time></trkpt><trkpt lat="38.141855" lon="12.7777973"><ele>227.5</ele><time>2026-04-25T16:23:06.362Z</time></trkpt><trkpt lat="38.1417449" lon="12.7779227"><ele>220.75</ele><time>2026-04-25T16:23:07.363Z</time></trkpt><trkpt lat="38.1416425" lon="12.7780376"><ele>214.0</ele><time>2026-04-25T16:23:08.364Z</time></trkpt><trkpt lat="38.1415496" lon="12.7781413"><ele>218.75</ele><time>2026-04-25T16:23:09.363Z</time></trkpt><trkpt lat="38.141459" lon="12.7782366"><ele>223.5</ele><time>2026-04-25T16:23:10.363Z</time></trkpt><trkpt lat="38.1413603" lon="12.7782931"><ele>228.25</ele><time>2026-04-25T16:23:11.363Z</time></trkpt><trkpt lat="38.1412496" lon="12.778341"><ele>233.0</ele><time>2026-04-25T16:23:12.364Z</time></trkpt><trkpt lat="38.141135" lon="12.7783652"><ele>233.0</ele><time>2026-04-25T16:23:13.363Z</time></trkpt><trkpt lat="38.1410286" lon="12.7783722"><ele>233.0</ele><time>2026-04-25T16:23:14.363Z</time></trkpt><trkpt lat="38.1409138" lon="12.7783583"><ele>233.0</ele><time>2026-04-25T16:23:15.363Z</time></trkpt><trkpt lat="38.1408016" lon="12.7783374"><ele>233.0</ele><time>2026-04-25T16:23:16.362Z</time></trkpt><trkpt lat="38.1406902" lon="12.7783076"><ele>233.0</ele><time>2026-04-25T16:23:17.363Z</time></trkpt><trkpt lat="38.1405829" lon="12.7782566"><ele>232.60000000000002</ele><time>2026-04-25T16:23:18.363Z</time></trkpt><trkpt lat="38.140481" lon="12.7781865"><ele>232.20000000000002</ele><time>2026-04-25T16:23:19.363Z</time></trkpt><trkpt lat="38.1403904" lon="12.778099"><ele>231.8</ele><time>2026-04-25T16:23:20.364Z</time></trkpt><trkpt lat="38.1403126" lon="12.7779951"><ele>231.4</ele><time>2026-04-25T16:23:21.364Z</time></trkpt><trkpt lat="38.1402562" lon="12.7778801"><ele>231.0</ele><time>2026-04-25T16:23:22.295Z</time></trkpt><trkpt lat="38.1401415" lon="12.7776139"><ele>231.0</ele><time>2026-04-25T16:23:24.364Z</time></trkpt><trkpt lat="38.1400916" lon="12.7774761"><ele>231.0</ele><time>2026-04-25T16:23:25.364Z</time></trkpt><trkpt lat="38.1400431" lon="12.7773379"><ele>231.0</ele><time>2026-04-25T16:23:26.364Z</time></trkpt><trkpt lat="38.1400008" lon="12.7772115"><ele>231.0</ele><time>2026-04-25T16:23:27.364Z</time></trkpt><trkpt lat="38.1399613" lon="12.7770818"><ele>231.0</ele><time>2026-04-25T16:23:28.364Z</time></trkpt><trkpt lat="38.139937" lon="12.7769506"><ele>231.00000000000003</ele><time>2026-04-25T16:23:29.364Z</time></trkpt><trkpt lat="38.1399148" lon="12.7768089"><ele>231.00000000000003</ele><time>2026-04-25T16:23:30.364Z</time></trkpt><trkpt lat="38.1398961" lon="12.7766693"><ele>231.0</ele><time>2026-04-25T16:23:31.364Z</time></trkpt><trkpt lat="38.1398808" lon="12.7765232"><ele>231.0</ele><time>2026-04-25T16:23:32.364Z</time></trkpt><trkpt lat="38.139874" lon="12.7763802"><ele>231.0</ele><time>2026-04-25T16:23:33.363Z</time></trkpt><trkpt lat="38.1398676" lon="12.7762305"><ele>231.0</ele><time>2026-04-25T16:23:34.364Z</time></trkpt><trkpt lat="38.1398644" lon="12.776081"><ele>231.0</ele><time>2026-04-25T16:23:35.364Z</time></trkpt><trkpt lat="38.1398627" lon="12.7759304"><ele>231.0</ele><time>2026-04-25T16:23:36.364Z</time></trkpt><trkpt lat="38.1398616" lon="12.7757843"><ele>232.5</ele><time>2026-04-25T16:23:37.363Z</time></trkpt><trkpt lat="38.1398548" lon="12.7756367"><ele>234.0</ele><time>2026-04-25T16:23:38.364Z</time></trkpt><trkpt lat="38.1398553" lon="12.7754901"><ele>235.5</ele><time>2026-04-25T16:23:39.364Z</time></trkpt><trkpt lat="38.1398518" lon="12.7753373"><ele>237.0</ele><time>2026-04-25T16:23:40.363Z</time></trkpt><trkpt lat="38.1398567" lon="12.7751823"><ele>239.5</ele><time>2026-04-25T16:23:41.364Z</time></trkpt><trkpt lat="38.1398576" lon="12.7750293"><ele>242.0</ele><time>2026-04-25T16:23:42.364Z</time></trkpt><trkpt lat="38.1398554" lon="12.7748778"><ele>244.5</ele><time>2026-04-25T16:23:43.364Z</time></trkpt><trkpt lat="38.1398502" lon="12.7747201"><ele>247.0</ele><time>2026-04-25T16:23:44.363Z</time></trkpt><trkpt lat="38.1398408" lon="12.7745684"><ele>247.0</ele><time>2026-04-25T16:23:45.364Z</time></trkpt><trkpt lat="38.1398233" lon="12.7744183"><ele>247.0</ele><time>2026-04-25T16:23:46.362Z</time></trkpt><trkpt lat="38.1398022" lon="12.7742684"><ele>247.0</ele><time>2026-04-25T16:23:47.362Z</time></trkpt><trkpt lat="38.1397726" lon="12.7741235"><ele>247.0</ele><time>2026-04-25T16:23:48.362Z</time></trkpt><trkpt lat="38.1397444" lon="12.7739807"><ele>248.25</ele><time>2026-04-25T16:23:49.365Z</time></trkpt><trkpt lat="38.1397251" lon="12.7738296"><ele>249.5</ele><time>2026-04-25T16:23:50.365Z</time></trkpt><trkpt lat="38.1397119" lon="12.7736778"><ele>250.75</ele><time>2026-04-25T16:23:51.363Z</time></trkpt><trkpt lat="38.1397137" lon="12.773522"><ele>252.0</ele><time>2026-04-25T16:23:52.364Z</time></trkpt><trkpt lat="38.1397281" lon="12.7733685"><ele>252.5</ele><time>2026-04-25T16:23:53.364Z</time></trkpt><trkpt lat="38.1397494" lon="12.7732157"><ele>253.0</ele><time>2026-04-25T16:23:54.364Z</time></trkpt><trkpt lat="38.139768" lon="12.7730654"><ele>253.5</ele><time>2026-04-25T16:23:55.363Z</time></trkpt><trkpt lat="38.1397888" lon="12.7729162"><ele>254.0</ele><time>2026-04-25T16:23:56.364Z</time></trkpt><trkpt lat="38.1398092" lon="12.7727685"><ele>255.75</ele><time>2026-04-25T16:23:57.363Z</time></trkpt><trkpt lat="38.1398288" lon="12.7726248"><ele>257.5</ele><time>2026-04-25T16:23:58.363Z</time></trkpt><trkpt lat="38.1398449" lon="12.7724757"><ele>259.25</ele><time>2026-04-25T16:23:59.364Z</time></trkpt><trkpt lat="38.1398602" lon="12.7723277"><ele>261.0</ele><time>2026-04-25T16:24:00.364Z</time></trkpt><trkpt lat="38.1398762" lon="12.7721838"><ele>261.5</ele><time>2026-04-25T16:24:01.364Z</time></trkpt><trkpt lat="38.1398936" lon="12.7720575"><ele>262.0</ele><time>2026-04-25T16:24:02.363Z</time></trkpt><trkpt lat="38.1399094" lon="12.771947"><ele>262.5</ele><time>2026-04-25T16:24:03.363Z</time></trkpt><trkpt lat="38.1399231" lon="12.7718522"><ele>263.0</ele><time>2026-04-25T16:24:04.363Z</time></trkpt><trkpt lat="38.1399367" lon="12.7717676"><ele>263.5</ele><time>2026-04-25T16:24:05.364Z</time></trkpt><trkpt lat="38.1399367" lon="12.7716572"><ele>264.0</ele><time>2026-04-25T16:24:07.365Z</time></trkpt><trkpt lat="38.139961" lon="12.771568"><ele>264.0</ele><time>2026-04-25T16:24:11.363Z</time></trkpt><trkpt lat="38.1398941" lon="12.7715412"><ele>264.0</ele><time>2026-04-25T16:30:04.364Z</time></trkpt><trkpt lat="38.1399107" lon="12.7716778"><ele>264.0</ele><time>2026-04-25T16:30:06.365Z</time></trkpt><trkpt lat="38.1399148" lon="12.7717926"><ele>264.0</ele><time>2026-04-25T16:30:07.365Z</time></trkpt><trkpt lat="38.1399029" lon="12.7719233"><ele>264.0</ele><time>2026-04-25T16:30:08.364Z</time></trkpt><trkpt lat="38.1398831" lon="12.7720894"><ele>263.0</ele><time>2026-04-25T16:30:09.365Z</time></trkpt><trkpt lat="38.139851" lon="12.772311"><ele>262.0</ele><time>2026-04-25T16:30:10.365Z</time></trkpt><trkpt lat="38.1398195" lon="12.7725623"><ele>261.0</ele><time>2026-04-25T16:30:11.364Z</time></trkpt><trkpt lat="38.1397861" lon="12.7728124"><ele>258.6666666666667</ele><time>2026-04-25T16:30:12.365Z</time></trkpt><trkpt lat="38.1397585" lon="12.7730453"><ele>256.33333333333337</ele><time>2026-04-25T16:30:13.365Z</time></trkpt><trkpt lat="38.1397312" lon="12.7732603"><ele>254.0</ele><time>2026-04-25T16:30:14.365Z</time></trkpt><trkpt lat="38.1397044" lon="12.7734525"><ele>253.5</ele><time>2026-04-25T16:30:15.364Z</time></trkpt><trkpt lat="38.139694" lon="12.7736276"><ele>253.0</ele><time>2026-04-25T16:30:16.366Z</time></trkpt><trkpt lat="38.1397044" lon="12.7738054"><ele>252.5</ele><time>2026-04-25T16:30:17.365Z</time></trkpt><trkpt lat="38.1397372" lon="12.7739943"><ele>252.0</ele><time>2026-04-25T16:30:18.364Z</time></trkpt><trkpt lat="38.139777" lon="12.7742028"><ele>250.33333333333331</ele><time>2026-04-25T16:30:19.364Z</time></trkpt><trkpt lat="38.1398087" lon="12.7744193"><ele>248.66666666666666</ele><time>2026-04-25T16:30:20.366Z</time></trkpt><trkpt lat="38.1398275" lon="12.7746478"><ele>247.0</ele><time>2026-04-25T16:30:21.365Z</time></trkpt><trkpt lat="38.1398235" lon="12.7748818"><ele>247.0</ele><time>2026-04-25T16:30:22.365Z</time></trkpt><trkpt lat="38.1398245" lon="12.7751123"><ele>247.0</ele><time>2026-04-25T16:30:23.365Z</time></trkpt><trkpt lat="38.1398274" lon="12.7753331"><ele>247.0</ele><time>2026-04-25T16:30:24.364Z</time></trkpt><trkpt lat="38.139829" lon="12.7755467"><ele>243.66666666666666</ele><time>2026-04-25T16:30:25.365Z</time></trkpt><trkpt lat="38.1398341" lon="12.7757585"><ele>240.33333333333331</ele><time>2026-04-25T16:30:26.365Z</time></trkpt><trkpt lat="38.1398342" lon="12.7759666"><ele>237.0</ele><time>2026-04-25T16:30:27.364Z</time></trkpt><trkpt lat="38.139841" lon="12.7761732"><ele>235.0</ele><time>2026-04-25T16:30:28.365Z</time></trkpt><trkpt lat="38.1398439" lon="12.7763806"><ele>233.0</ele><time>2026-04-25T16:30:29.364Z</time></trkpt><trkpt lat="38.1398558" lon="12.7765865"><ele>231.0</ele><time>2026-04-25T16:30:30.365Z</time></trkpt><trkpt lat="38.1398823" lon="12.7767804"><ele>231.0</ele><time>2026-04-25T16:30:31.364Z</time></trkpt><trkpt lat="38.1399161" lon="12.7769717"><ele>231.0</ele><time>2026-04-25T16:30:32.365Z</time></trkpt><trkpt lat="38.13996" lon="12.7771636"><ele>231.0</ele><time>2026-04-25T16:30:33.365Z</time></trkpt><trkpt lat="38.1400225" lon="12.7773606"><ele>231.0</ele><time>2026-04-25T16:30:34.364Z</time></trkpt><trkpt lat="38.1400913" lon="12.7775517"><ele>231.0</ele><time>2026-04-25T16:30:35.365Z</time></trkpt><trkpt lat="38.1401596" lon="12.7777368"><ele>231.0</ele><time>2026-04-25T16:30:36.365Z</time></trkpt><trkpt lat="38.1402314" lon="12.7779013"><ele>225.75</ele><time>2026-04-25T16:30:37.365Z</time></trkpt><trkpt lat="38.1403113" lon="12.7780394"><ele>220.5</ele><time>2026-04-25T16:30:38.365Z</time></trkpt><trkpt lat="38.140403" lon="12.7781617"><ele>215.25</ele><time>2026-04-25T16:30:39.363Z</time></trkpt><trkpt lat="38.1405143" lon="12.7782547"><ele>210.0</ele><time>2026-04-25T16:30:40.365Z</time></trkpt><trkpt lat="38.1406345" lon="12.778328"><ele>215.75</ele><time>2026-04-25T16:30:41.365Z</time></trkpt><trkpt lat="38.1407693" lon="12.7783785"><ele>221.5</ele><time>2026-04-25T16:30:42.365Z</time></trkpt><trkpt lat="38.1409165" lon="12.7784069"><ele>227.25</ele><time>2026-04-25T16:30:43.365Z</time></trkpt><trkpt lat="38.1410651" lon="12.7784066"><ele>233.0</ele><time>2026-04-25T16:30:44.364Z</time></trkpt><trkpt lat="38.1412007" lon="12.7783918"><ele>233.0</ele><time>2026-04-25T16:30:45.366Z</time></trkpt><trkpt lat="38.141329" lon="12.7783466"><ele>233.0</ele><time>2026-04-25T16:30:46.365Z</time></trkpt><trkpt lat="38.1414525" lon="12.7782829"><ele>233.0</ele><time>2026-04-25T16:30:47.364Z</time></trkpt><trkpt lat="38.1415672" lon="12.7781893"><ele>233.0</ele><time>2026-04-25T16:30:48.365Z</time></trkpt><trkpt lat="38.1416815" lon="12.7780652"><ele>235.66666666666669</ele><time>2026-04-25T16:30:49.365Z</time></trkpt><trkpt lat="38.1418072" lon="12.7779256"><ele>238.33333333333331</ele><time>2026-04-25T16:30:50.364Z</time></trkpt><trkpt lat="38.1419503" lon="12.7777635"><ele>241.0</ele><time>2026-04-25T16:30:51.365Z</time></trkpt><trkpt lat="38.1421152" lon="12.7776113"><ele>241.0</ele><time>2026-04-25T16:30:52.365Z</time></trkpt><trkpt lat="38.1422953" lon="12.7774726"><ele>241.0</ele><time>2026-04-25T16:30:53.364Z</time></trkpt><trkpt lat="38.1424666" lon="12.7773656"><ele>241.0</ele><time>2026-04-25T16:30:54.365Z</time></trkpt><trkpt lat="38.1426226" lon="12.7772648"><ele>231.33333333333331</ele><time>2026-04-25T16:30:55.365Z</time></trkpt><trkpt lat="38.1427622" lon="12.7771707"><ele>221.66666666666669</ele><time>2026-04-25T16:30:56.365Z</time></trkpt><trkpt lat="38.1428914" lon="12.7770664"><ele>212.0</ele><time>2026-04-25T16:30:57.365Z</time></trkpt><trkpt lat="38.1429928" lon="12.7769455"><ele>209.25</ele><time>2026-04-25T16:30:58.365Z</time></trkpt><trkpt lat="38.143079" lon="12.7768106"><ele>206.5</ele><time>2026-04-25T16:30:59.365Z</time></trkpt><trkpt lat="38.1431485" lon="12.7766426"><ele>203.75</ele><time>2026-04-25T16:31:00.365Z</time></trkpt><trkpt lat="38.1432083" lon="12.7764492"><ele>201.0</ele><time>2026-04-25T16:31:01.364Z</time></trkpt><trkpt lat="38.1432481" lon="12.7762416"><ele>201.0</ele><time>2026-04-25T16:31:02.365Z</time></trkpt><trkpt lat="38.143279" lon="12.7760292"><ele>201.0</ele><time>2026-04-25T16:31:03.365Z</time></trkpt><trkpt lat="38.1432996" lon="12.7758076"><ele>201.0</ele><time>2026-04-25T16:31:04.365Z</time></trkpt><trkpt lat="38.1433027" lon="12.7755727"><ele>201.66666666666669</ele><time>2026-04-25T16:31:05.365Z</time></trkpt><trkpt lat="38.1432805" lon="12.7753286"><ele>202.33333333333334</ele><time>2026-04-25T16:31:06.365Z</time></trkpt><trkpt lat="38.1432556" lon="12.7750589"><ele>203.0</ele><time>2026-04-25T16:31:07.365Z</time></trkpt><trkpt lat="38.143227" lon="12.7747849"><ele>211.5</ele><time>2026-04-25T16:31:08.365Z</time></trkpt><trkpt lat="38.1432105" lon="12.7744882"><ele>220.0</ele><time>2026-04-25T16:31:09.366Z</time></trkpt><trkpt lat="38.1432031" lon="12.7741806"><ele>220.0</ele><time>2026-04-25T16:31:10.365Z</time></trkpt><trkpt lat="38.1432049" lon="12.7738798"><ele>220.0</ele><time>2026-04-25T16:31:11.365Z</time></trkpt><trkpt lat="38.1432065" lon="12.7735892"><ele>217.0</ele><time>2026-04-25T16:31:12.365Z</time></trkpt><trkpt lat="38.1432025" lon="12.7732985"><ele>214.0</ele><time>2026-04-25T16:31:13.365Z</time></trkpt><trkpt lat="38.1431916" lon="12.7730061"><ele>214.0</ele><time>2026-04-25T16:31:14.365Z</time></trkpt><trkpt lat="38.1431838" lon="12.7727227"><ele>214.0</ele><time>2026-04-25T16:31:15.364Z</time></trkpt><trkpt lat="38.1431814" lon="12.7724272"><ele>212.0</ele><time>2026-04-25T16:31:16.365Z</time></trkpt><trkpt lat="38.1431806" lon="12.7721346"><ele>210.0</ele><time>2026-04-25T16:31:17.365Z</time></trkpt><trkpt lat="38.1431876" lon="12.7718501"><ele>208.33333333333331</ele><time>2026-04-25T16:31:18.365Z</time></trkpt><trkpt lat="38.1431966" lon="12.7715719"><ele>206.66666666666666</ele><time>2026-04-25T16:31:19.365Z</time></trkpt><trkpt lat="38.1432066" lon="12.7713112"><ele>205.0</ele><time>2026-04-25T16:31:20.365Z</time></trkpt><trkpt lat="38.1432172" lon="12.7710844"><ele>193.66666666666666</ele><time>2026-04-25T16:31:21.365Z</time></trkpt><trkpt lat="38.143235" lon="12.7708796"><ele>182.33333333333331</ele><time>2026-04-25T16:31:22.365Z</time></trkpt><trkpt lat="38.1432741" lon="12.7706891"><ele>171.0</ele><time>2026-04-25T16:31:23.365Z</time></trkpt><trkpt lat="38.1433432" lon="12.7705026"><ele>171.0</ele><time>2026-04-25T16:31:24.365Z</time></trkpt><trkpt lat="38.1434189" lon="12.77031"><ele>171.0</ele><time>2026-04-25T16:31:25.364Z</time></trkpt><trkpt lat="38.1434955" lon="12.7701254"><ele>171.0</ele><time>2026-04-25T16:31:26.365Z</time></trkpt><trkpt lat="38.1435602" lon="12.7699523"><ele>171.0</ele><time>2026-04-25T16:31:27.365Z</time></trkpt><trkpt lat="38.1436036" lon="12.7697867"><ele>171.0</ele><time>2026-04-25T16:31:28.365Z</time></trkpt><trkpt lat="38.1436212" lon="12.7696178"><ele>171.0</ele><time>2026-04-25T16:31:29.364Z</time></trkpt><trkpt lat="38.1436095" lon="12.7694383"><ele>171.0</ele><time>2026-04-25T16:31:30.364Z</time></trkpt><trkpt lat="38.1435743" lon="12.7692378"><ele>169.66666666666666</ele><time>2026-04-25T16:31:31.365Z</time></trkpt><trkpt lat="38.1435294" lon="12.7690241"><ele>168.33333333333331</ele><time>2026-04-25T16:31:32.365Z</time></trkpt><trkpt lat="38.1434935" lon="12.7688342"><ele>167.0</ele><time>2026-04-25T16:31:33.364Z</time></trkpt><trkpt lat="38.1434689" lon="12.768666"><ele>165.8</ele><time>2026-04-25T16:31:34.365Z</time></trkpt><trkpt lat="38.1434552" lon="12.7685209"><ele>164.6</ele><time>2026-04-25T16:31:35.365Z</time></trkpt><trkpt lat="38.143467" lon="12.7683907"><ele>163.4</ele><time>2026-04-25T16:31:36.365Z</time></trkpt><trkpt lat="38.1435198" lon="12.7682637"><ele>162.20000000000002</ele><time>2026-04-25T16:31:37.366Z</time></trkpt><trkpt lat="38.1436062" lon="12.7681693"><ele>161.0</ele><time>2026-04-25T16:31:38.364Z</time></trkpt><trkpt lat="38.1437151" lon="12.7681052"><ele>161.0</ele><time>2026-04-25T16:31:39.365Z</time></trkpt><trkpt lat="38.1438184" lon="12.7680494"><ele>161.0</ele><time>2026-04-25T16:31:40.366Z</time></trkpt><trkpt lat="38.1439089" lon="12.7679767"><ele>161.0</ele><time>2026-04-25T16:31:41.365Z</time></trkpt><trkpt lat="38.1439771" lon="12.7678767"><ele>161.0</ele><time>2026-04-25T16:31:42.366Z</time></trkpt><trkpt lat="38.1440442" lon="12.7677447"><ele>161.0</ele><time>2026-04-25T16:31:43.367Z</time></trkpt><trkpt lat="38.1441308" lon="12.7676381"><ele>159.60000000000002</ele><time>2026-04-25T16:31:44.365Z</time></trkpt><trkpt lat="38.1442194" lon="12.7675792"><ele>158.20000000000002</ele><time>2026-04-25T16:31:45.365Z</time></trkpt><trkpt lat="38.1443128" lon="12.7675668"><ele>156.8</ele><time>2026-04-25T16:31:46.365Z</time></trkpt><trkpt lat="38.1444034" lon="12.7675968"><ele>155.4</ele><time>2026-04-25T16:31:47.365Z</time></trkpt><trkpt lat="38.144501" lon="12.7676835"><ele>154.0</ele><time>2026-04-25T16:31:48.365Z</time></trkpt><trkpt lat="38.1445934" lon="12.7678131"><ele>149.5</ele><time>2026-04-25T16:31:49.364Z</time></trkpt><trkpt lat="38.1446832" lon="12.767963"><ele>145.0</ele><time>2026-04-25T16:31:50.365Z</time></trkpt><trkpt lat="38.1447695" lon="12.768104"><ele>140.5</ele><time>2026-04-25T16:31:51.365Z</time></trkpt><trkpt lat="38.1448728" lon="12.7682213"><ele>136.0</ele><time>2026-04-25T16:31:52.364Z</time></trkpt><trkpt lat="38.144971" lon="12.768298"><ele>136.0</ele><time>2026-04-25T16:31:53.365Z</time></trkpt><trkpt lat="38.1450709" lon="12.7683322"><ele>136.0</ele><time>2026-04-25T16:31:54.366Z</time></trkpt><trkpt lat="38.1451681" lon="12.7683192"><ele>136.0</ele><time>2026-04-25T16:31:55.365Z</time></trkpt><trkpt lat="38.1452541" lon="12.7682613"><ele>136.0</ele><time>2026-04-25T16:31:56.365Z</time></trkpt><trkpt lat="38.1453345" lon="12.7681541"><ele>136.0</ele><time>2026-04-25T16:31:57.365Z</time></trkpt><trkpt lat="38.1453964" lon="12.768009"><ele>136.0</ele><time>2026-04-25T16:31:58.365Z</time></trkpt><trkpt lat="38.1454687" lon="12.767845"><ele>136.0</ele><time>2026-04-25T16:31:59.365Z</time></trkpt><trkpt lat="38.1455592" lon="12.7676643"><ele>136.0</ele><time>2026-04-25T16:32:00.365Z</time></trkpt><trkpt lat="38.1456631" lon="12.7674781"><ele>135.0</ele><time>2026-04-25T16:32:01.365Z</time></trkpt><trkpt lat="38.1457831" lon="12.7672926"><ele>134.0</ele><time>2026-04-25T16:32:02.366Z</time></trkpt><trkpt lat="38.1459109" lon="12.7671188"><ele>133.0</ele><time>2026-04-25T16:32:03.365Z</time></trkpt><trkpt lat="38.1460295" lon="12.7669428"><ele>139.0</ele><time>2026-04-25T16:32:04.365Z</time></trkpt><trkpt lat="38.1461302" lon="12.7667643"><ele>145.0</ele><time>2026-04-25T16:32:05.365Z</time></trkpt><trkpt lat="38.1462209" lon="12.7665909"><ele>151.0</ele><time>2026-04-25T16:32:06.365Z</time></trkpt><trkpt lat="38.1462879" lon="12.7664253"><ele>151.0</ele><time>2026-04-25T16:32:07.366Z</time></trkpt><trkpt lat="38.1463448" lon="12.7662634"><ele>151.0</ele><time>2026-04-25T16:32:08.366Z</time></trkpt><trkpt lat="38.1463479" lon="12.7660937"><ele>151.0</ele><time>2026-04-25T16:32:09.365Z</time></trkpt><trkpt lat="38.146372" lon="12.7659525"><ele>151.0</ele><time>2026-04-25T16:32:10.366Z</time></trkpt><trkpt lat="38.1464243" lon="12.7658192"><ele>154.5</ele><time>2026-04-25T16:32:11.364Z</time></trkpt><trkpt lat="38.1465043" lon="12.7656998"><ele>158.0</ele><time>2026-04-25T16:32:12.365Z</time></trkpt><trkpt lat="38.1465961" lon="12.765598"><ele>161.5</ele><time>2026-04-25T16:32:13.365Z</time></trkpt><trkpt lat="38.1467072" lon="12.7655137"><ele>165.0</ele><time>2026-04-25T16:32:14.366Z</time></trkpt><trkpt lat="38.1468256" lon="12.7654761"><ele>158.0</ele><time>2026-04-25T16:32:15.365Z</time></trkpt><trkpt lat="38.1469609" lon="12.7654797"><ele>151.0</ele><time>2026-04-25T16:32:16.365Z</time></trkpt><trkpt lat="38.1471056" lon="12.7655004"><ele>144.0</ele><time>2026-04-25T16:32:17.365Z</time></trkpt><trkpt lat="38.1472431" lon="12.7655322"><ele>137.0</ele><time>2026-04-25T16:32:18.365Z</time></trkpt><trkpt lat="38.1473798" lon="12.7655632"><ele>135.0</ele><time>2026-04-25T16:32:19.367Z</time></trkpt><trkpt lat="38.1475183" lon="12.7656038"><ele>133.0</ele><time>2026-04-25T16:32:20.365Z</time></trkpt><trkpt lat="38.1476603" lon="12.7656527"><ele>131.0</ele><time>2026-04-25T16:32:21.365Z</time></trkpt><trkpt lat="38.1478061" lon="12.7657136"><ele>129.0</ele><time>2026-04-25T16:32:22.365Z</time></trkpt><trkpt lat="38.1479544" lon="12.765773"><ele>129.0</ele><time>2026-04-25T16:32:23.365Z</time></trkpt><trkpt lat="38.1480892" lon="12.7658372"><ele>129.0</ele><time>2026-04-25T16:32:24.365Z</time></trkpt><trkpt lat="38.1482328" lon="12.7659011"><ele>129.0</ele><time>2026-04-25T16:32:25.365Z</time></trkpt><trkpt lat="38.1483661" lon="12.7659585"><ele>129.0</ele><time>2026-04-25T16:32:26.365Z</time></trkpt><trkpt lat="38.1485124" lon="12.7660056"><ele>130.0</ele><time>2026-04-25T16:32:27.366Z</time></trkpt><trkpt lat="38.148668" lon="12.766017"><ele>131.0</ele><time>2026-04-25T16:32:28.366Z</time></trkpt><trkpt lat="38.1488326" lon="12.7660037"><ele>132.0</ele><time>2026-04-25T16:32:29.366Z</time></trkpt><trkpt lat="38.1490092" lon="12.765982"><ele>130.0</ele><time>2026-04-25T16:32:30.365Z</time></trkpt><trkpt lat="38.1491889" lon="12.7659528"><ele>128.0</ele><time>2026-04-25T16:32:31.366Z</time></trkpt><trkpt lat="38.1493686" lon="12.7659264"><ele>126.0</ele><time>2026-04-25T16:32:32.365Z</time></trkpt><trkpt lat="38.1495544" lon="12.7659001"><ele>126.0</ele><time>2026-04-25T16:32:33.365Z</time></trkpt><trkpt lat="38.1497273" lon="12.7658613"><ele>126.0</ele><time>2026-04-25T16:32:34.366Z</time></trkpt><trkpt lat="38.1499025" lon="12.7658095"><ele>126.0</ele><time>2026-04-25T16:32:35.365Z</time></trkpt><trkpt lat="38.1500804" lon="12.7657368"><ele>122.66666666666666</ele><time>2026-04-25T16:32:36.365Z</time></trkpt><trkpt lat="38.1502553" lon="12.7656573"><ele>119.33333333333333</ele><time>2026-04-25T16:32:37.365Z</time></trkpt><trkpt lat="38.1504343" lon="12.7655677"><ele>116.0</ele><time>2026-04-25T16:32:38.365Z</time></trkpt><trkpt lat="38.1506132" lon="12.765497"><ele>112.0</ele><time>2026-04-25T16:32:39.366Z</time></trkpt><trkpt lat="38.1507794" lon="12.7654182"><ele>108.0</ele><time>2026-04-25T16:32:40.366Z</time></trkpt><trkpt lat="38.1509321" lon="12.7653436"><ele>104.0</ele><time>2026-04-25T16:32:41.366Z</time></trkpt><trkpt lat="38.1510879" lon="12.7652856"><ele>104.0</ele><time>2026-04-25T16:32:42.365Z</time></trkpt><trkpt lat="38.1512563" lon="12.7652431"><ele>104.0</ele><time>2026-04-25T16:32:43.365Z</time></trkpt><trkpt lat="38.1514286" lon="12.7652163"><ele>104.0</ele><time>2026-04-25T16:32:44.366Z</time></trkpt><trkpt lat="38.1516144" lon="12.7651913"><ele>106.33333333333333</ele><time>2026-04-25T16:32:45.366Z</time></trkpt><trkpt lat="38.1518088" lon="12.7651642"><ele>108.66666666666666</ele><time>2026-04-25T16:32:46.365Z</time></trkpt><trkpt lat="38.1520068" lon="12.7651381"><ele>111.0</ele><time>2026-04-25T16:32:47.365Z</time></trkpt><trkpt lat="38.1522097" lon="12.7651074"><ele>107.0</ele><time>2026-04-25T16:32:48.367Z</time></trkpt><trkpt lat="38.152411" lon="12.76508"><ele>103.0</ele><time>2026-04-25T16:32:49.365Z</time></trkpt><trkpt lat="38.1526139" lon="12.7650581"><ele>99.0</ele><time>2026-04-25T16:32:50.365Z</time></trkpt><trkpt lat="38.1528073" lon="12.7650305"><ele>99.0</ele><time>2026-04-25T16:32:51.365Z</time></trkpt><trkpt lat="38.1529921" lon="12.7650055"><ele>99.0</ele><time>2026-04-25T16:32:52.365Z</time></trkpt><trkpt lat="38.1531652" lon="12.7649805"><ele>99.0</ele><time>2026-04-25T16:32:53.365Z</time></trkpt><trkpt lat="38.1533334" lon="12.764938"><ele>95.33333333333333</ele><time>2026-04-25T16:32:54.365Z</time></trkpt><trkpt lat="38.1534934" lon="12.764881"><ele>91.66666666666666</ele><time>2026-04-25T16:32:55.366Z</time></trkpt><trkpt lat="38.1536534" lon="12.7648095"><ele>88.0</ele><time>2026-04-25T16:32:56.365Z</time></trkpt><trkpt lat="38.1538154" lon="12.7647248"><ele>88.0</ele><time>2026-04-25T16:32:57.366Z</time></trkpt><trkpt lat="38.1539836" lon="12.7646474"><ele>88.0</ele><time>2026-04-25T16:32:58.365Z</time></trkpt><trkpt lat="38.1541448" lon="12.764583"><ele>88.0</ele><time>2026-04-25T16:32:59.366Z</time></trkpt><trkpt lat="38.1543044" lon="12.7645468"><ele>84.0</ele><time>2026-04-25T16:33:00.367Z</time></trkpt><trkpt lat="38.154462" lon="12.7645447"><ele>80.0</ele><time>2026-04-25T16:33:01.366Z</time></trkpt><trkpt lat="38.1546228" lon="12.7645805"><ele>76.0</ele><time>2026-04-25T16:33:02.364Z</time></trkpt><trkpt lat="38.1547932" lon="12.7646323"><ele>73.66666666666666</ele><time>2026-04-25T16:33:03.365Z</time></trkpt><trkpt lat="38.1549808" lon="12.7646809"><ele>71.33333333333333</ele><time>2026-04-25T16:33:04.366Z</time></trkpt><trkpt lat="38.1551667" lon="12.7647418"><ele>69.0</ele><time>2026-04-25T16:33:05.366Z</time></trkpt><trkpt lat="38.1553463" lon="12.7647946"><ele>69.0</ele><time>2026-04-25T16:33:06.366Z</time></trkpt><trkpt lat="38.1555018" lon="12.7648588"><ele>69.0</ele><time>2026-04-25T16:33:07.366Z</time></trkpt><trkpt lat="38.1556513" lon="12.7649263"><ele>69.0</ele><time>2026-04-25T16:33:08.366Z</time></trkpt><trkpt lat="38.1557817" lon="12.7649701"><ele>67.0</ele><time>2026-04-25T16:33:09.367Z</time></trkpt><trkpt lat="38.1559178" lon="12.7649938"><ele>65.0</ele><time>2026-04-25T16:33:10.365Z</time></trkpt><trkpt lat="38.1560701" lon="12.7649825"><ele>63.0</ele><time>2026-04-25T16:33:11.366Z</time></trkpt><trkpt lat="38.1562333" lon="12.7649509"><ele>63.0</ele><time>2026-04-25T16:33:12.365Z</time></trkpt><trkpt lat="38.1564119" lon="12.7649101"><ele>63.0</ele><time>2026-04-25T16:33:13.364Z</time></trkpt><trkpt lat="38.1565903" lon="12.7648647"><ele>63.0</ele><time>2026-04-25T16:33:14.365Z</time></trkpt><trkpt lat="38.1567704" lon="12.7648211"><ele>60.0</ele><time>2026-04-25T16:33:15.366Z</time></trkpt><trkpt lat="38.1569506" lon="12.7647727"><ele>57.0</ele><time>2026-04-25T16:33:16.365Z</time></trkpt><trkpt lat="38.1571278" lon="12.7647241"><ele>54.0</ele><time>2026-04-25T16:33:17.365Z</time></trkpt><trkpt lat="38.1572939" lon="12.7646726"><ele>52.33333333333333</ele><time>2026-04-25T16:33:18.366Z</time></trkpt><trkpt lat="38.157451" lon="12.7646191"><ele>50.666666666666664</ele><time>2026-04-25T16:33:19.366Z</time></trkpt><trkpt lat="38.1576144" lon="12.7645648"><ele>49.0</ele><time>2026-04-25T16:33:20.364Z</time></trkpt><trkpt lat="38.1577779" lon="12.7645127"><ele>49.0</ele><time>2026-04-25T16:33:21.366Z</time></trkpt><trkpt lat="38.1579433" lon="12.7644499"><ele>49.0</ele><time>2026-04-25T16:33:22.366Z</time></trkpt><trkpt lat="38.1581148" lon="12.7643877"><ele>49.0</ele><time>2026-04-25T16:33:23.366Z</time></trkpt><trkpt lat="38.1582796" lon="12.7643431"><ele>50.0</ele><time>2026-04-25T16:33:24.365Z</time></trkpt><trkpt lat="38.1584304" lon="12.7643054"><ele>51.0</ele><time>2026-04-25T16:33:25.365Z</time></trkpt><trkpt lat="38.158583" lon="12.7642699"><ele>52.0</ele><time>2026-04-25T16:33:26.365Z</time></trkpt><trkpt lat="38.1587408" lon="12.7642399"><ele>52.0</ele><time>2026-04-25T16:33:27.366Z</time></trkpt><trkpt lat="38.1589008" lon="12.7642186"><ele>52.0</ele><time>2026-04-25T16:33:28.365Z</time></trkpt><trkpt lat="38.1590707" lon="12.7642052"><ele>52.0</ele><time>2026-04-25T16:33:29.365Z</time></trkpt><trkpt lat="38.1592362" lon="12.76421"><ele>48.0</ele><time>2026-04-25T16:33:30.365Z</time></trkpt><trkpt lat="38.1594061" lon="12.7642416"><ele>44.0</ele><time>2026-04-25T16:33:31.365Z</time></trkpt><trkpt lat="38.1595877" lon="12.7642825"><ele>40.0</ele><time>2026-04-25T16:33:32.364Z</time></trkpt><trkpt lat="38.1597801" lon="12.7643369"><ele>36.66666666666667</ele><time>2026-04-25T16:33:33.366Z</time></trkpt><trkpt lat="38.1599745" lon="12.7644013"><ele>33.333333333333336</ele><time>2026-04-25T16:33:34.366Z</time></trkpt><trkpt lat="38.1601735" lon="12.7644702"><ele>30.0</ele><time>2026-04-25T16:33:35.366Z</time></trkpt><trkpt lat="38.1603852" lon="12.7645433"><ele>30.0</ele><time>2026-04-25T16:33:36.365Z</time></trkpt><trkpt lat="38.1606003" lon="12.764606"><ele>30.0</ele><time>2026-04-25T16:33:37.365Z</time></trkpt><trkpt lat="38.1608079" lon="12.764672"><ele>30.0</ele><time>2026-04-25T16:33:38.366Z</time></trkpt><trkpt lat="38.1610184" lon="12.7647423"><ele>29.333333333333336</ele><time>2026-04-25T16:33:39.365Z</time></trkpt><trkpt lat="38.1612227" lon="12.764815"><ele>28.666666666666668</ele><time>2026-04-25T16:33:40.366Z</time></trkpt><trkpt lat="38.161427" lon="12.764891"><ele>28.0</ele><time>2026-04-25T16:33:41.366Z</time></trkpt><trkpt lat="38.1616368" lon="12.7649688"><ele>28.0</ele><time>2026-04-25T16:33:42.364Z</time></trkpt><trkpt lat="38.1618421" lon="12.7650363"><ele>28.0</ele><time>2026-04-25T16:33:43.366Z</time></trkpt><trkpt lat="38.1620482" lon="12.7651041"><ele>28.0</ele><time>2026-04-25T16:33:44.366Z</time></trkpt><trkpt lat="38.1622515" lon="12.7651728"><ele>27.0</ele><time>2026-04-25T16:33:45.365Z</time></trkpt><trkpt lat="38.1624591" lon="12.7652428"><ele>26.0</ele><time>2026-04-25T16:33:46.365Z</time></trkpt><trkpt lat="38.1626671" lon="12.7653113"><ele>25.0</ele><time>2026-04-25T16:33:47.365Z</time></trkpt><trkpt lat="38.1628745" lon="12.765364"><ele>25.0</ele><time>2026-04-25T16:33:48.367Z</time></trkpt><trkpt lat="38.1630771" lon="12.765398"><ele>25.0</ele><time>2026-04-25T16:33:49.365Z</time></trkpt><trkpt lat="38.1632931" lon="12.7653901"><ele>25.0</ele><time>2026-04-25T16:33:50.365Z</time></trkpt><trkpt lat="38.1635052" lon="12.765355"><ele>24.666666666666668</ele><time>2026-04-25T16:33:51.365Z</time></trkpt><trkpt lat="38.1637208" lon="12.765312"><ele>24.333333333333336</ele><time>2026-04-25T16:33:52.366Z</time></trkpt><trkpt lat="38.1639241" lon="12.7652599"><ele>24.0</ele><time>2026-04-25T16:33:53.365Z</time></trkpt><trkpt lat="38.1641283" lon="12.765214"><ele>25.0</ele><time>2026-04-25T16:33:54.366Z</time></trkpt><trkpt lat="38.1643385" lon="12.7651666"><ele>26.0</ele><time>2026-04-25T16:33:55.366Z</time></trkpt><trkpt lat="38.1645392" lon="12.7651224"><ele>27.0</ele><time>2026-04-25T16:33:56.366Z</time></trkpt><trkpt lat="38.1647416" lon="12.7650721"><ele>27.0</ele><time>2026-04-25T16:33:57.366Z</time></trkpt><trkpt lat="38.1649441" lon="12.7650131"><ele>27.0</ele><time>2026-04-25T16:33:58.366Z</time></trkpt><trkpt lat="38.1651486" lon="12.7649599"><ele>27.0</ele><time>2026-04-25T16:33:59.366Z</time></trkpt><trkpt lat="38.1653569" lon="12.7648937"><ele>27.0</ele><time>2026-04-25T16:34:00.366Z</time></trkpt><trkpt lat="38.1655658" lon="12.7648156"><ele>27.0</ele><time>2026-04-25T16:34:01.365Z</time></trkpt><trkpt lat="38.1657789" lon="12.764731"><ele>27.0</ele><time>2026-04-25T16:34:02.365Z</time></trkpt><trkpt lat="38.1659916" lon="12.7646419"><ele>26.5</ele><time>2026-04-25T16:34:03.366Z</time></trkpt><trkpt lat="38.1662115" lon="12.7645523"><ele>26.0</ele><time>2026-04-25T16:34:04.366Z</time></trkpt><trkpt lat="38.1664301" lon="12.7644646"><ele>26.333333333333332</ele><time>2026-04-25T16:34:05.367Z</time></trkpt><trkpt lat="38.1666424" lon="12.7643773"><ele>26.666666666666664</ele><time>2026-04-25T16:34:06.366Z</time></trkpt><trkpt lat="38.1668559" lon="12.7642864"><ele>27.0</ele><time>2026-04-25T16:34:07.366Z</time></trkpt><trkpt lat="38.1670757" lon="12.7641917"><ele>27.0</ele><time>2026-04-25T16:34:08.366Z</time></trkpt><trkpt lat="38.1672941" lon="12.7641023"><ele>27.0</ele><time>2026-04-25T16:34:09.365Z</time></trkpt><trkpt lat="38.1675188" lon="12.7640085"><ele>26.0</ele><time>2026-04-25T16:34:10.366Z</time></trkpt><trkpt lat="38.1677303" lon="12.7639198"><ele>25.0</ele><time>2026-04-25T16:34:11.365Z</time></trkpt><trkpt lat="38.1679408" lon="12.7638341"><ele>24.0</ele><time>2026-04-25T16:34:12.366Z</time></trkpt><trkpt lat="38.1681331" lon="12.7637505"><ele>24.333333333333336</ele><time>2026-04-25T16:34:13.366Z</time></trkpt><trkpt lat="38.1683202" lon="12.7636603"><ele>24.666666666666668</ele><time>2026-04-25T16:34:14.367Z</time></trkpt><trkpt lat="38.1684928" lon="12.7635718"><ele>25.0</ele><time>2026-04-25T16:34:15.366Z</time></trkpt><trkpt lat="38.1686665" lon="12.7634768"><ele>25.0</ele><time>2026-04-25T16:34:16.366Z</time></trkpt><trkpt lat="38.168835" lon="12.7633851"><ele>25.0</ele><time>2026-04-25T16:34:17.367Z</time></trkpt><trkpt lat="38.1690031" lon="12.7632885"><ele>25.0</ele><time>2026-04-25T16:34:18.366Z</time></trkpt><trkpt lat="38.1691561" lon="12.7631949"><ele>24.666666666666668</ele><time>2026-04-25T16:34:19.366Z</time></trkpt><trkpt lat="38.1693124" lon="12.7631024"><ele>24.333333333333336</ele><time>2026-04-25T16:34:20.367Z</time></trkpt><trkpt lat="38.1694793" lon="12.7630036"><ele>24.0</ele><time>2026-04-25T16:34:21.366Z</time></trkpt><trkpt lat="38.1696375" lon="12.7628994"><ele>24.0</ele><time>2026-04-25T16:34:22.366Z</time></trkpt><trkpt lat="38.1697975" lon="12.7627881"><ele>24.0</ele><time>2026-04-25T16:34:23.366Z</time></trkpt><trkpt lat="38.1699556" lon="12.7626608"><ele>24.0</ele><time>2026-04-25T16:34:24.366Z</time></trkpt><trkpt lat="38.1701184" lon="12.7625319"><ele>24.0</ele><time>2026-04-25T16:34:25.365Z</time></trkpt><trkpt lat="38.1702778" lon="12.7623984"><ele>24.0</ele><time>2026-04-25T16:34:26.366Z</time></trkpt><trkpt lat="38.1704356" lon="12.7622654"><ele>24.0</ele><time>2026-04-25T16:34:27.365Z</time></trkpt><trkpt lat="38.170588" lon="12.762135"><ele>23.666666666666668</ele><time>2026-04-25T16:34:28.366Z</time></trkpt><trkpt lat="38.1707349" lon="12.7620052"><ele>23.333333333333336</ele><time>2026-04-25T16:34:29.365Z</time></trkpt><trkpt lat="38.1708739" lon="12.761885"><ele>23.0</ele><time>2026-04-25T16:34:30.365Z</time></trkpt><trkpt lat="38.1710066" lon="12.7617632"><ele>23.0</ele><time>2026-04-25T16:34:31.365Z</time></trkpt><trkpt lat="38.1711362" lon="12.7616286"><ele>23.0</ele><time>2026-04-25T16:34:32.366Z</time></trkpt><trkpt lat="38.171249" lon="12.761475"><ele>23.0</ele><time>2026-04-25T16:34:33.366Z</time></trkpt><trkpt lat="38.1713396" lon="12.7613012"><ele>23.0</ele><time>2026-04-25T16:34:34.366Z</time></trkpt><trkpt lat="38.1714145" lon="12.7611092"><ele>23.0</ele><time>2026-04-25T16:34:35.365Z</time></trkpt><trkpt lat="38.1714829" lon="12.7609174"><ele>23.0</ele><time>2026-04-25T16:34:36.367Z</time></trkpt><trkpt lat="38.1715555" lon="12.7607392"><ele>22.75</ele><time>2026-04-25T16:34:37.366Z</time></trkpt><trkpt lat="38.1716172" lon="12.7605671"><ele>22.5</ele><time>2026-04-25T16:34:38.366Z</time></trkpt><trkpt lat="38.1716763" lon="12.7603973"><ele>22.25</ele><time>2026-04-25T16:34:39.366Z</time></trkpt><trkpt lat="38.1717365" lon="12.7602527"><ele>22.0</ele><time>2026-04-25T16:34:40.365Z</time></trkpt><trkpt lat="38.1717929" lon="12.7601087"><ele>22.0</ele><time>2026-04-25T16:34:41.367Z</time></trkpt><trkpt lat="38.1718469" lon="12.7599636"><ele>22.0</ele><time>2026-04-25T16:34:42.366Z</time></trkpt><trkpt lat="38.1718949" lon="12.7598168"><ele>22.0</ele><time>2026-04-25T16:34:43.365Z</time></trkpt><trkpt lat="38.1719537" lon="12.7596611"><ele>22.0</ele><time>2026-04-25T16:34:44.366Z</time></trkpt><trkpt lat="38.1720088" lon="12.7594964"><ele>21.75</ele><time>2026-04-25T16:34:45.366Z</time></trkpt><trkpt lat="38.1720678" lon="12.7593315"><ele>21.5</ele><time>2026-04-25T16:34:46.366Z</time></trkpt><trkpt lat="38.1721238" lon="12.7591733"><ele>21.25</ele><time>2026-04-25T16:34:47.366Z</time></trkpt><trkpt lat="38.1721814" lon="12.7590176"><ele>21.0</ele><time>2026-04-25T16:34:48.365Z</time></trkpt><trkpt lat="38.1722378" lon="12.7588595"><ele>21.0</ele><time>2026-04-25T16:34:49.366Z</time></trkpt><trkpt lat="38.1722946" lon="12.7587036"><ele>21.0</ele><time>2026-04-25T16:34:50.365Z</time></trkpt><trkpt lat="38.1723436" lon="12.7585378"><ele>21.0</ele><time>2026-04-25T16:34:51.366Z</time></trkpt><trkpt lat="38.1723866" lon="12.7583575"><ele>21.0</ele><time>2026-04-25T16:34:52.366Z</time></trkpt><trkpt lat="38.1724245" lon="12.758165"><ele>20.666666666666668</ele><time>2026-04-25T16:34:53.366Z</time></trkpt><trkpt lat="38.172469" lon="12.7579671"><ele>20.333333333333336</ele><time>2026-04-25T16:34:54.365Z</time></trkpt><trkpt lat="38.1725167" lon="12.7577745"><ele>20.0</ele><time>2026-04-25T16:34:55.366Z</time></trkpt><trkpt lat="38.1725666" lon="12.7575812"><ele>20.0</ele><time>2026-04-25T16:34:56.366Z</time></trkpt><trkpt lat="38.1726204" lon="12.7573843"><ele>20.0</ele><time>2026-04-25T16:34:57.365Z</time></trkpt><trkpt lat="38.1726711" lon="12.7571825"><ele>20.0</ele><time>2026-04-25T16:34:58.367Z</time></trkpt><trkpt lat="38.1727168" lon="12.7569783"><ele>19.666666666666668</ele><time>2026-04-25T16:34:59.365Z</time></trkpt><trkpt lat="38.1727619" lon="12.7567701"><ele>19.333333333333332</ele><time>2026-04-25T16:35:00.367Z</time></trkpt><trkpt lat="38.1728043" lon="12.7565595"><ele>19.0</ele><time>2026-04-25T16:35:01.365Z</time></trkpt><trkpt lat="38.1728405" lon="12.7563415"><ele>19.0</ele><time>2026-04-25T16:35:02.366Z</time></trkpt><trkpt lat="38.1728933" lon="12.7561324"><ele>19.0</ele><time>2026-04-25T16:35:03.366Z</time></trkpt><trkpt lat="38.1729458" lon="12.755933"><ele>19.0</ele><time>2026-04-25T16:35:04.366Z</time></trkpt><trkpt lat="38.1730009" lon="12.7557287"><ele>18.666666666666664</ele><time>2026-04-25T16:35:05.365Z</time></trkpt><trkpt lat="38.1730458" lon="12.7555297"><ele>18.333333333333332</ele><time>2026-04-25T16:35:06.366Z</time></trkpt><trkpt lat="38.1730903" lon="12.7553237"><ele>18.0</ele><time>2026-04-25T16:35:07.365Z</time></trkpt><trkpt lat="38.1731371" lon="12.7551121"><ele>18.0</ele><time>2026-04-25T16:35:08.366Z</time></trkpt><trkpt lat="38.1731875" lon="12.7549047"><ele>18.0</ele><time>2026-04-25T16:35:09.366Z</time></trkpt><trkpt lat="38.1732342" lon="12.7547028"><ele>18.0</ele><time>2026-04-25T16:35:10.365Z</time></trkpt><trkpt lat="38.1732788" lon="12.7545189"><ele>17.75</ele><time>2026-04-25T16:35:11.366Z</time></trkpt><trkpt lat="38.1733203" lon="12.7543372"><ele>17.5</ele><time>2026-04-25T16:35:12.366Z</time></trkpt><trkpt lat="38.1733495" lon="12.7541624"><ele>17.25</ele><time>2026-04-25T16:35:13.366Z</time></trkpt><trkpt lat="38.1733796" lon="12.7539908"><ele>17.0</ele><time>2026-04-25T16:35:14.365Z</time></trkpt><trkpt lat="38.1734068" lon="12.7538343"><ele>17.0</ele><time>2026-04-25T16:35:15.366Z</time></trkpt><trkpt lat="38.1734355" lon="12.7537055"><ele>17.0</ele><time>2026-04-25T16:35:16.366Z</time></trkpt><trkpt lat="38.1734406" lon="12.7536186"><ele>17.0</ele><time>2026-04-25T16:35:17.366Z</time></trkpt><trkpt lat="38.1734592" lon="12.7534911"><ele>17.0</ele><time>2026-04-25T16:35:24.366Z</time></trkpt><trkpt lat="38.1734807" lon="12.7533213"><ele>17.0</ele><time>2026-04-25T16:35:26.366Z</time></trkpt><trkpt lat="38.1734872" lon="12.7532155"><ele>16.75</ele><time>2026-04-25T16:35:27.366Z</time></trkpt><trkpt lat="38.173506" lon="12.7530876"><ele>16.5</ele><time>2026-04-25T16:35:28.366Z</time></trkpt><trkpt lat="38.1735203" lon="12.7529562"><ele>16.25</ele><time>2026-04-25T16:35:29.366Z</time></trkpt><trkpt lat="38.1735374" lon="12.7528108"><ele>16.0</ele><time>2026-04-25T16:35:30.366Z</time></trkpt><trkpt lat="38.1735628" lon="12.7526519"><ele>15.75</ele><time>2026-04-25T16:35:31.367Z</time></trkpt><trkpt lat="38.1735832" lon="12.7524838"><ele>15.5</ele><time>2026-04-25T16:35:32.366Z</time></trkpt><trkpt lat="38.1736067" lon="12.7522923"><ele>15.25</ele><time>2026-04-25T16:35:33.366Z</time></trkpt><trkpt lat="38.1736253" lon="12.7520966"><ele>15.0</ele><time>2026-04-25T16:35:34.366Z</time></trkpt><trkpt lat="38.1736432" lon="12.7519006"><ele>14.666666666666668</ele><time>2026-04-25T16:35:35.366Z</time></trkpt><trkpt lat="38.1736591" lon="12.7517054"><ele>14.333333333333334</ele><time>2026-04-25T16:35:36.365Z</time></trkpt><trkpt lat="38.173672" lon="12.7515157"><ele>14.0</ele><time>2026-04-25T16:35:37.367Z</time></trkpt><trkpt lat="38.1736856" lon="12.7513277"><ele>14.0</ele><time>2026-04-25T16:35:38.366Z</time></trkpt><trkpt lat="38.1736988" lon="12.7511399"><ele>14.0</ele><time>2026-04-25T16:35:39.366Z</time></trkpt><trkpt lat="38.1737127" lon="12.7509524"><ele>14.0</ele><time>2026-04-25T16:35:40.366Z</time></trkpt><trkpt lat="38.1737272" lon="12.7507568"><ele>14.0</ele><time>2026-04-25T16:35:41.367Z</time></trkpt><trkpt lat="38.1737405" lon="12.7505529"><ele>14.0</ele><time>2026-04-25T16:35:42.366Z</time></trkpt><trkpt lat="38.1737596" lon="12.7503489"><ele>14.0</ele><time>2026-04-25T16:35:43.366Z</time></trkpt><trkpt lat="38.1737755" lon="12.7501486"><ele>14.0</ele><time>2026-04-25T16:35:44.365Z</time></trkpt><trkpt lat="38.1737817" lon="12.7499438"><ele>14.0</ele><time>2026-04-25T16:35:45.366Z</time></trkpt><trkpt lat="38.1738017" lon="12.7497311"><ele>14.0</ele><time>2026-04-25T16:35:46.367Z</time></trkpt><trkpt lat="38.1738164" lon="12.7495212"><ele>14.0</ele><time>2026-04-25T16:35:47.366Z</time></trkpt><trkpt lat="38.1738401" lon="12.7493032"><ele>14.0</ele><time>2026-04-25T16:35:48.366Z</time></trkpt><trkpt lat="38.1738796" lon="12.7490928"><ele>14.0</ele><time>2026-04-25T16:35:49.365Z</time></trkpt><trkpt lat="38.1739133" lon="12.748881"><ele>14.0</ele><time>2026-04-25T16:35:50.366Z</time></trkpt><trkpt lat="38.1739515" lon="12.7486733"><ele>14.0</ele><time>2026-04-25T16:35:51.366Z</time></trkpt><trkpt lat="38.1739918" lon="12.7484769"><ele>14.0</ele><time>2026-04-25T16:35:52.366Z</time></trkpt><trkpt lat="38.1740282" lon="12.7482871"><ele>13.0</ele><time>2026-04-25T16:35:53.367Z</time></trkpt><trkpt lat="38.174061" lon="12.7481065"><ele>12.0</ele><time>2026-04-25T16:35:54.366Z</time></trkpt><trkpt lat="38.1740982" lon="12.7479425"><ele>11.0</ele><time>2026-04-25T16:35:55.366Z</time></trkpt><trkpt lat="38.1741305" lon="12.7477794"><ele>10.0</ele><time>2026-04-25T16:35:56.366Z</time></trkpt><trkpt lat="38.1741607" lon="12.7476171"><ele>10.0</ele><time>2026-04-25T16:35:57.366Z</time></trkpt><trkpt lat="38.1741844" lon="12.7474597"><ele>10.0</ele><time>2026-04-25T16:35:58.366Z</time></trkpt><trkpt lat="38.1742138" lon="12.7472988"><ele>10.0</ele><time>2026-04-25T16:35:59.367Z</time></trkpt><trkpt lat="38.1742468" lon="12.747136"><ele>10.0</ele><time>2026-04-25T16:36:00.366Z</time></trkpt><trkpt lat="38.1742812" lon="12.7469757"><ele>10.0</ele><time>2026-04-25T16:36:01.366Z</time></trkpt><trkpt lat="38.1743153" lon="12.7468149"><ele>10.0</ele><time>2026-04-25T16:36:02.366Z</time></trkpt><trkpt lat="38.1743481" lon="12.7466478"><ele>10.0</ele><time>2026-04-25T16:36:03.366Z</time></trkpt><trkpt lat="38.1743833" lon="12.7464734"><ele>10.0</ele><time>2026-04-25T16:36:04.366Z</time></trkpt><trkpt lat="38.174413" lon="12.7463001"><ele>10.0</ele><time>2026-04-25T16:36:05.367Z</time></trkpt><trkpt lat="38.1744467" lon="12.746127"><ele>10.0</ele><time>2026-04-25T16:36:06.365Z</time></trkpt><trkpt lat="38.1744785" lon="12.7459547"><ele>10.0</ele><time>2026-04-25T16:36:07.366Z</time></trkpt><trkpt lat="38.1745112" lon="12.7457855"><ele>10.0</ele><time>2026-04-25T16:36:08.366Z</time></trkpt><trkpt lat="38.1745407" lon="12.7456205"><ele>9.75</ele><time>2026-04-25T16:36:09.366Z</time></trkpt><trkpt lat="38.1745701" lon="12.7454663"><ele>9.5</ele><time>2026-04-25T16:36:10.366Z</time></trkpt><trkpt lat="38.1746014" lon="12.7453177"><ele>9.25</ele><time>2026-04-25T16:36:11.365Z</time></trkpt><trkpt lat="38.1746296" lon="12.7451678"><ele>9.0</ele><time>2026-04-25T16:36:12.366Z</time></trkpt><trkpt lat="38.1746565" lon="12.7450305"><ele>8.75</ele><time>2026-04-25T16:36:13.365Z</time></trkpt><trkpt lat="38.1746837" lon="12.7448962"><ele>8.5</ele><time>2026-04-25T16:36:14.365Z</time></trkpt><trkpt lat="38.1747101" lon="12.7447595"><ele>8.25</ele><time>2026-04-25T16:36:15.366Z</time></trkpt><trkpt lat="38.1747353" lon="12.7446154"><ele>8.0</ele><time>2026-04-25T16:36:16.367Z</time></trkpt><trkpt lat="38.1747558" lon="12.7444724"><ele>8.200000000000001</ele><time>2026-04-25T16:36:17.367Z</time></trkpt><trkpt lat="38.1747737" lon="12.7443382"><ele>8.4</ele><time>2026-04-25T16:36:18.365Z</time></trkpt><trkpt lat="38.1747944" lon="12.7442073"><ele>8.600000000000001</ele><time>2026-04-25T16:36:19.365Z</time></trkpt><trkpt lat="38.1748062" lon="12.7440776"><ele>8.8</ele><time>2026-04-25T16:36:20.367Z</time></trkpt><trkpt lat="38.174821" lon="12.7439389"><ele>9.0</ele><time>2026-04-25T16:36:21.367Z</time></trkpt><trkpt lat="38.1748254" lon="12.7437929"><ele>9.0</ele><time>2026-04-25T16:36:22.366Z</time></trkpt><trkpt lat="38.1748375" lon="12.7436494"><ele>9.0</ele><time>2026-04-25T16:36:23.366Z</time></trkpt><trkpt lat="38.1748403" lon="12.7435279"><ele>9.0</ele><time>2026-04-25T16:36:24.365Z</time></trkpt><trkpt lat="38.1748438" lon="12.743413"><ele>9.0</ele><time>2026-04-25T16:36:25.366Z</time></trkpt><trkpt lat="38.174845" lon="12.7433205"><ele>9.0</ele><time>2026-04-25T16:36:26.365Z</time></trkpt><trkpt lat="38.1748437" lon="12.7432328"><ele>9.0</ele><time>2026-04-25T16:36:27.365Z</time></trkpt><trkpt lat="38.1748354" lon="12.7431474"><ele>9.0</ele><time>2026-04-25T16:36:28.367Z</time></trkpt><trkpt lat="38.1748204" lon="12.7430578"><ele>9.0</ele><time>2026-04-25T16:36:29.366Z</time></trkpt><trkpt lat="38.1748102" lon="12.7429566"><ele>9.0</ele><time>2026-04-25T16:36:30.366Z</time></trkpt><trkpt lat="38.1747913" lon="12.7428449"><ele>9.0</ele><time>2026-04-25T16:36:31.366Z</time></trkpt><trkpt lat="38.174775" lon="12.7427456"><ele>9.0</ele><time>2026-04-25T16:36:32.366Z</time></trkpt><trkpt lat="38.1747644" lon="12.7426432"><ele>9.0</ele><time>2026-04-25T16:36:33.366Z</time></trkpt><trkpt lat="38.1747514" lon="12.7425409"><ele>9.0</ele><time>2026-04-25T16:36:34.367Z</time></trkpt><trkpt lat="38.1747363" lon="12.7424462"><ele>9.0</ele><time>2026-04-25T16:36:35.365Z</time></trkpt><trkpt lat="38.1747294" lon="12.7423518"><ele>9.0</ele><time>2026-04-25T16:36:36.366Z</time></trkpt><trkpt lat="38.1747327" lon="12.742257"><ele>9.0</ele><time>2026-04-25T16:36:37.367Z</time></trkpt><trkpt lat="38.1747243" lon="12.7421588"><ele>9.0</ele><time>2026-04-25T16:36:38.365Z</time></trkpt><trkpt lat="38.1747194" lon="12.7420625"><ele>9.0</ele><time>2026-04-25T16:36:39.367Z</time></trkpt><trkpt lat="38.1747055" lon="12.7419654"><ele>9.0</ele><time>2026-04-25T16:36:40.367Z</time></trkpt><trkpt lat="38.174697" lon="12.7418658"><ele>9.0</ele><time>2026-04-25T16:36:41.365Z</time></trkpt><trkpt lat="38.174697" lon="12.7417579"><ele>9.0</ele><time>2026-04-25T16:36:42.366Z</time></trkpt><trkpt lat="38.1746877" lon="12.7416451"><ele>9.0</ele><time>2026-04-25T16:36:43.367Z</time></trkpt><trkpt lat="38.1746796" lon="12.7415398"><ele>9.0</ele><time>2026-04-25T16:36:44.366Z</time></trkpt><trkpt lat="38.174672" lon="12.741428"><ele>9.0</ele><time>2026-04-25T16:36:45.366Z</time></trkpt><trkpt lat="38.1746642" lon="12.7413122"><ele>9.0</ele><time>2026-04-25T16:36:46.366Z</time></trkpt><trkpt lat="38.1746556" lon="12.7411859"><ele>9.0</ele><time>2026-04-25T16:36:47.367Z</time></trkpt><trkpt lat="38.1746605" lon="12.7410505"><ele>9.0</ele><time>2026-04-25T16:36:48.365Z</time></trkpt><trkpt lat="38.1746577" lon="12.7409171"><ele>9.0</ele><time>2026-04-25T16:36:49.365Z</time></trkpt><trkpt lat="38.1746582" lon="12.7407805"><ele>9.0</ele><time>2026-04-25T16:36:50.367Z</time></trkpt><trkpt lat="38.1746731" lon="12.7406469"><ele>8.8</ele><time>2026-04-25T16:36:51.366Z</time></trkpt><trkpt lat="38.1746921" lon="12.7405106"><ele>8.600000000000001</ele><time>2026-04-25T16:36:52.366Z</time></trkpt><trkpt lat="38.1747088" lon="12.7403764"><ele>8.4</ele><time>2026-04-25T16:36:53.367Z</time></trkpt><trkpt lat="38.1747251" lon="12.7402452"><ele>8.200000000000001</ele><time>2026-04-25T16:36:54.366Z</time></trkpt><trkpt lat="38.1747454" lon="12.7401152"><ele>8.0</ele><time>2026-04-25T16:36:55.366Z</time></trkpt><trkpt lat="38.1747574" lon="12.7399871"><ele>7.800000000000001</ele><time>2026-04-25T16:36:56.367Z</time></trkpt><trkpt lat="38.1747655" lon="12.7398632"><ele>7.6000000000000005</ele><time>2026-04-25T16:36:57.365Z</time></trkpt><trkpt lat="38.1747716" lon="12.7397385"><ele>7.3999999999999995</ele><time>2026-04-25T16:36:58.366Z</time></trkpt><trkpt lat="38.1747832" lon="12.7396225"><ele>7.199999999999999</ele><time>2026-04-25T16:36:59.366Z</time></trkpt><trkpt lat="38.1747969" lon="12.7395113"><ele>7.0</ele><time>2026-04-25T16:37:00.366Z</time></trkpt><trkpt lat="38.174809" lon="12.7393995"><ele>7.166666666666667</ele><time>2026-04-25T16:37:01.366Z</time></trkpt><trkpt lat="38.1748191" lon="12.7392938"><ele>7.333333333333334</ele><time>2026-04-25T16:37:02.366Z</time></trkpt><trkpt lat="38.1748382" lon="12.7391934"><ele>7.5</ele><time>2026-04-25T16:37:03.367Z</time></trkpt><trkpt lat="38.1748297" lon="12.7390714"><ele>7.666666666666666</ele><time>2026-04-25T16:37:05.366Z</time></trkpt><trkpt lat="38.1747383" lon="12.7390203"><ele>7.833333333333333</ele><time>2026-04-25T16:37:07.367Z</time></trkpt><trkpt lat="38.1746634" lon="12.7390172"><ele>8.0</ele><time>2026-04-25T16:37:08.366Z</time></trkpt><trkpt lat="38.1745702" lon="12.7390217"><ele>8.0</ele><time>2026-04-25T16:37:09.366Z</time></trkpt><trkpt lat="38.1744729" lon="12.739015"><ele>8.0</ele><time>2026-04-25T16:37:10.366Z</time></trkpt><trkpt lat="38.1743902" lon="12.7390214"><ele>8.0</ele><time>2026-04-25T16:37:11.366Z</time></trkpt><trkpt lat="38.1743262" lon="12.7390273"><ele>8.0</ele><time>2026-04-25T16:37:12.366Z</time></trkpt><trkpt lat="38.1741983" lon="12.7390291"><ele>8.0</ele><time>2026-04-25T16:37:14.366Z</time></trkpt><trkpt lat="38.1741152" lon="12.7390252"><ele>7.999999999999999</ele><time>2026-04-25T16:37:15.366Z</time></trkpt><trkpt lat="38.1740302" lon="12.7390243"><ele>8.0</ele><time>2026-04-25T16:37:16.366Z</time></trkpt><trkpt lat="38.1739427" lon="12.7390309"><ele>8.0</ele><time>2026-04-25T16:37:17.366Z</time></trkpt><trkpt lat="38.1738616" lon="12.7390366"><ele>8.0</ele><time>2026-04-25T16:37:18.367Z</time></trkpt><trkpt lat="38.1737968" lon="12.739035"><ele>7.999999999999999</ele><time>2026-04-25T16:37:19.366Z</time></trkpt><trkpt lat="38.1737243" lon="12.7389909"><ele>8.0</ele><time>2026-04-25T16:37:21.366Z</time></trkpt><trkpt lat="38.1736853" lon="12.7388716"><ele>8.166666666666666</ele><time>2026-04-25T16:37:23.366Z</time></trkpt><trkpt lat="38.1736745" lon="12.7387174"><ele>8.333333333333332</ele><time>2026-04-25T16:37:25.367Z</time></trkpt><trkpt lat="38.1736782" lon="12.7386234"><ele>8.5</ele><time>2026-04-25T16:37:26.368Z</time></trkpt><trkpt lat="38.1736813" lon="12.73854"><ele>8.666666666666666</ele><time>2026-04-25T16:37:27.366Z</time></trkpt><trkpt lat="38.1736759" lon="12.7384504"><ele>8.833333333333334</ele><time>2026-04-25T16:37:28.366Z</time></trkpt><trkpt lat="38.1736694" lon="12.7383615"><ele>9.0</ele><time>2026-04-25T16:37:29.368Z</time></trkpt><trkpt lat="38.1736612" lon="12.7382644"><ele>9.0</ele><time>2026-04-25T16:37:30.365Z</time></trkpt><trkpt lat="38.1736595" lon="12.7381692"><ele>9.0</ele><time>2026-04-25T16:37:31.366Z</time></trkpt><trkpt lat="38.1736715" lon="12.7380905"><ele>9.0</ele><time>2026-04-25T16:37:32.366Z</time></trkpt><trkpt lat="38.1736656" lon="12.7380105"><ele>9.0</ele><time>2026-04-25T16:37:33.367Z</time></trkpt><trkpt lat="38.1736553" lon="12.7378499"><ele>9.0</ele><time>2026-04-25T16:37:35.366Z</time></trkpt><trkpt lat="38.1736513" lon="12.7377548"><ele>9.0</ele><time>2026-04-25T16:37:36.365Z</time></trkpt><trkpt lat="38.1736394" lon="12.737655"><ele>9.333333333333334</ele><time>2026-04-25T16:37:37.365Z</time></trkpt><trkpt lat="38.1736314" lon="12.7375602"><ele>9.666666666666666</ele><time>2026-04-25T16:37:38.366Z</time></trkpt><trkpt lat="38.1736206" lon="12.7374568"><ele>10.0</ele><time>2026-04-25T16:37:39.366Z</time></trkpt><trkpt lat="38.173617" lon="12.7373487"><ele>10.333333333333332</ele><time>2026-04-25T16:37:40.367Z</time></trkpt><trkpt lat="38.1736167" lon="12.7372404"><ele>10.666666666666666</ele><time>2026-04-25T16:37:41.366Z</time></trkpt><trkpt lat="38.1736136" lon="12.7371274"><ele>11.0</ele><time>2026-04-25T16:37:42.366Z</time></trkpt><trkpt lat="38.1736057" lon="12.7370193"><ele>11.0</ele><time>2026-04-25T16:37:43.366Z</time></trkpt><trkpt lat="38.1735977" lon="12.7369128"><ele>11.0</ele><time>2026-04-25T16:37:44.365Z</time></trkpt><trkpt lat="38.1735965" lon="12.7368015"><ele>11.0</ele><time>2026-04-25T16:37:45.365Z</time></trkpt><trkpt lat="38.1735883" lon="12.7366959"><ele>11.0</ele><time>2026-04-25T16:37:46.366Z</time></trkpt><trkpt lat="38.1735806" lon="12.7365939"><ele>11.0</ele><time>2026-04-25T16:37:47.367Z</time></trkpt><trkpt lat="38.1735797" lon="12.7365036"><ele>11.0</ele><time>2026-04-25T16:37:48.367Z</time></trkpt><trkpt lat="38.1735715" lon="12.7363635"><ele>11.200000000000001</ele><time>2026-04-25T16:37:50.366Z</time></trkpt><trkpt lat="38.1735671" lon="12.7362276"><ele>11.4</ele><time>2026-04-25T16:37:52.366Z</time></trkpt><trkpt lat="38.1735601" lon="12.7360979"><ele>11.6</ele><time>2026-04-25T16:37:54.365Z</time></trkpt><trkpt lat="38.1735514" lon="12.7359946"><ele>11.8</ele><time>2026-04-25T16:37:56.368Z</time></trkpt><trkpt lat="38.1735412" lon="12.7359"><ele>12.0</ele><time>2026-04-25T16:37:58.365Z</time></trkpt><trkpt lat="38.1735376" lon="12.7357872"><ele>12.399999999999999</ele><time>2026-04-25T16:38:00.367Z</time></trkpt><trkpt lat="38.1735322" lon="12.7356613"><ele>12.799999999999999</ele><time>2026-04-25T16:38:02.367Z</time></trkpt><trkpt lat="38.1735117" lon="12.7355155"><ele>13.2</ele><time>2026-04-25T16:38:04.367Z</time></trkpt><trkpt lat="38.1735051" lon="12.7354351"><ele>13.6</ele><time>2026-04-25T16:38:05.367Z</time></trkpt><trkpt lat="38.1734936" lon="12.7353014"><ele>14.0</ele><time>2026-04-25T16:38:07.366Z</time></trkpt><trkpt lat="38.1734855" lon="12.735215"><ele>14.166666666666668</ele><time>2026-04-25T16:38:10.366Z</time></trkpt><trkpt lat="38.1734839" lon="12.7351182"><ele>14.333333333333334</ele><time>2026-04-25T16:38:14.366Z</time></trkpt><trkpt lat="38.1734809" lon="12.7350197"><ele>14.5</ele><time>2026-04-25T16:38:16.365Z</time></trkpt><trkpt lat="38.1734796" lon="12.7349073"><ele>14.666666666666668</ele><time>2026-04-25T16:38:18.366Z</time></trkpt><trkpt lat="38.1734762" lon="12.73479"><ele>14.833333333333334</ele><time>2026-04-25T16:38:20.366Z</time></trkpt><trkpt lat="38.1734705" lon="12.73467"><ele>15.0</ele><time>2026-04-25T16:38:22.366Z</time></trkpt><trkpt lat="38.1734659" lon="12.7345382"><ele>15.0</ele><time>2026-04-25T16:38:24.367Z</time></trkpt><trkpt lat="38.173447" lon="12.7344426"><ele>15.0</ele><time>2026-04-25T16:38:26.367Z</time></trkpt><trkpt lat="38.173399" lon="12.7343794"><ele>15.0</ele><time>2026-04-25T16:38:28.368Z</time></trkpt><trkpt lat="38.1732996" lon="12.7343826"><ele>15.0</ele><time>2026-04-25T16:38:30.366Z</time></trkpt><trkpt lat="38.1731643" lon="12.7344045"><ele>15.0</ele><time>2026-04-25T16:38:32.368Z</time></trkpt><trkpt lat="38.1730808" lon="12.7344182"><ele>15.333333333333334</ele><time>2026-04-25T16:38:33.367Z</time></trkpt><trkpt lat="38.1730019" lon="12.73443"><ele>15.666666666666668</ele><time>2026-04-25T16:38:34.366Z</time></trkpt><trkpt lat="38.1729358" lon="12.7344416"><ele>16.0</ele><time>2026-04-25T16:38:35.367Z</time></trkpt><trkpt lat="38.1728348" lon="12.7344531"><ele>16.333333333333336</ele><time>2026-04-25T16:38:37.366Z</time></trkpt><trkpt lat="38.1727663" lon="12.7344636"><ele>16.666666666666668</ele><time>2026-04-25T16:38:38.367Z</time></trkpt><trkpt lat="38.1726357" lon="12.7344791"><ele>17.0</ele><time>2026-04-25T16:38:40.367Z</time></trkpt><trkpt lat="38.1725674" lon="12.7344944"><ele>17.0</ele><time>2026-04-25T16:38:41.366Z</time></trkpt><trkpt lat="38.1724842" lon="12.7344901"><ele>17.0</ele><time>2026-04-25T16:38:43.366Z</time></trkpt><trkpt lat="38.172444" lon="12.734374"><ele>17.0</ele><time>2026-04-25T16:38:45.366Z</time></trkpt><trkpt lat="38.1724309" lon="12.7342836"><ele>17.0</ele><time>2026-04-25T16:38:46.366Z</time></trkpt><trkpt lat="38.1724303" lon="12.734199"><ele>17.0</ele><time>2026-04-25T16:38:47.366Z</time></trkpt><trkpt lat="38.1724124" lon="12.7340704"><ele>17.0</ele><time>2026-04-25T16:38:49.367Z</time></trkpt><trkpt lat="38.1723993" lon="12.7339897"><ele>17.0</ele><time>2026-04-25T16:38:51.366Z</time></trkpt><trkpt lat="38.1723891" lon="12.7338924"><ele>17.0</ele><time>2026-04-25T16:38:53.368Z</time></trkpt><trkpt lat="38.1723919" lon="12.7337559"><ele>17.0</ele><time>2026-04-25T16:38:55.366Z</time></trkpt><trkpt lat="38.1723978" lon="12.7336624"><ele>17.0</ele><time>2026-04-25T16:38:56.366Z</time></trkpt><trkpt lat="38.1723876" lon="12.7335693"><ele>17.0</ele><time>2026-04-25T16:38:57.367Z</time></trkpt><trkpt lat="38.1723745" lon="12.7334466"><ele>17.0</ele><time>2026-04-25T16:38:59.366Z</time></trkpt><trkpt lat="38.1723589" lon="12.7333278"><ele>17.0</ele><time>2026-04-25T16:39:01.366Z</time></trkpt><trkpt lat="38.1723481" lon="12.733241"><ele>17.0</ele><time>2026-04-25T16:39:02.366Z</time></trkpt><trkpt lat="38.1723344" lon="12.7331367"><ele>17.0</ele><time>2026-04-25T16:39:03.367Z</time></trkpt><trkpt lat="38.1723311" lon="12.733017"><ele>17.0</ele><time>2026-04-25T16:39:04.366Z</time></trkpt><trkpt lat="38.1723344" lon="12.7329097"><ele>17.0</ele><time>2026-04-25T16:39:05.366Z</time></trkpt><trkpt lat="38.1723305" lon="12.7328259"><ele>17.0</ele><time>2026-04-25T16:39:06.367Z</time></trkpt><trkpt lat="38.172338" lon="12.7327037"><ele>17.0</ele><time>2026-04-25T16:39:08.366Z</time></trkpt><trkpt lat="38.1723861" lon="12.7326449"><ele>17.0</ele><time>2026-04-25T16:39:10.367Z</time></trkpt><trkpt lat="38.1725112" lon="12.7326141"><ele>17.0</ele><time>2026-04-25T16:39:12.367Z</time></trkpt><trkpt lat="38.1725887" lon="12.7326023"><ele>17.0</ele><time>2026-04-25T16:39:13.366Z</time></trkpt><trkpt lat="38.1726832" lon="12.7325896"><ele>17.0</ele><time>2026-04-25T16:39:14.367Z</time></trkpt><trkpt lat="38.1727919" lon="12.7325757"><ele>17.0</ele><time>2026-04-25T16:39:15.367Z</time></trkpt><trkpt lat="38.1729053" lon="12.7325627"><ele>17.0</ele><time>2026-04-25T16:39:16.365Z</time></trkpt><trkpt lat="38.1730185" lon="12.7325428"><ele>17.0</ele><time>2026-04-25T16:39:17.367Z</time></trkpt><trkpt lat="38.1731261" lon="12.7325372"><ele>17.0</ele><time>2026-04-25T16:39:18.366Z</time></trkpt><trkpt lat="38.1732428" lon="12.7325173"><ele>17.0</ele><time>2026-04-25T16:39:19.367Z</time></trkpt><trkpt lat="38.1733464" lon="12.7325019"><ele>17.0</ele><time>2026-04-25T16:39:20.365Z</time></trkpt><trkpt lat="38.173442" lon="12.7324889"><ele>17.0</ele><time>2026-04-25T16:39:21.366Z</time></trkpt><trkpt lat="38.1735355" lon="12.732477"><ele>17.0</ele><time>2026-04-25T16:39:22.367Z</time></trkpt><trkpt lat="38.1736276" lon="12.7324576"><ele>17.0</ele><time>2026-04-25T16:39:23.367Z</time></trkpt><trkpt lat="38.1737159" lon="12.732442"><ele>17.0</ele><time>2026-04-25T16:39:24.367Z</time></trkpt><trkpt lat="38.1737993" lon="12.7324258"><ele>17.0</ele><time>2026-04-25T16:39:25.367Z</time></trkpt><trkpt lat="38.1738793" lon="12.7324142"><ele>17.0</ele><time>2026-04-25T16:39:26.366Z</time></trkpt><trkpt lat="38.173957" lon="12.7324029"><ele>17.0</ele><time>2026-04-25T16:39:27.367Z</time></trkpt><trkpt lat="38.1740342" lon="12.7323937"><ele>17.0</ele><time>2026-04-25T16:39:28.367Z</time></trkpt><trkpt lat="38.1741156" lon="12.7323854"><ele>17.0</ele><time>2026-04-25T16:39:29.367Z</time></trkpt><trkpt lat="38.1741955" lon="12.7323744"><ele>16.666666666666668</ele><time>2026-04-25T16:39:30.366Z</time></trkpt><trkpt lat="38.1742783" lon="12.7323601"><ele>16.333333333333336</ele><time>2026-04-25T16:39:31.367Z</time></trkpt><trkpt lat="38.1743602" lon="12.7323514"><ele>16.0</ele><time>2026-04-25T16:39:32.367Z</time></trkpt><trkpt lat="38.1744411" lon="12.7323452"><ele>15.666666666666668</ele><time>2026-04-25T16:39:33.367Z</time></trkpt><trkpt lat="38.1745185" lon="12.7323432"><ele>15.333333333333334</ele><time>2026-04-25T16:39:34.367Z</time></trkpt><trkpt lat="38.1745866" lon="12.732337"><ele>15.0</ele><time>2026-04-25T16:39:35.367Z</time></trkpt><trkpt lat="38.1746523" lon="12.7323273"><ele>15.0</ele><time>2026-04-25T16:39:36.367Z</time></trkpt><trkpt lat="38.1747487" lon="12.7323182"><ele>15.0</ele><time>2026-04-25T16:39:38.367Z</time></trkpt><trkpt lat="38.1748241" lon="12.7323091"><ele>15.0</ele><time>2026-04-25T16:39:43.366Z</time></trkpt><trkpt lat="38.1748873" lon="12.7323085"><ele>15.0</ele><time>2026-04-25T16:39:47.367Z</time></trkpt><trkpt lat="38.174968" lon="12.7322959"><ele>15.0</ele><time>2026-04-25T16:39:49.368Z</time></trkpt><trkpt lat="38.1750899" lon="12.7322789"><ele>15.0</ele><time>2026-04-25T16:39:51.366Z</time></trkpt><trkpt lat="38.1751715" lon="12.7322605"><ele>14.5</ele><time>2026-04-25T16:39:52.367Z</time></trkpt><trkpt lat="38.1752467" lon="12.7322551"><ele>14.0</ele><time>2026-04-25T16:39:53.367Z</time></trkpt><trkpt lat="38.1753215" lon="12.7322424"><ele>13.5</ele><time>2026-04-25T16:39:54.367Z</time></trkpt><trkpt lat="38.1753973" lon="12.7322315"><ele>13.0</ele><time>2026-04-25T16:39:55.367Z</time></trkpt><trkpt lat="38.1754773" lon="12.7322211"><ele>12.5</ele><time>2026-04-25T16:39:56.367Z</time></trkpt><trkpt lat="38.1755586" lon="12.7322133"><ele>12.0</ele><time>2026-04-25T16:39:57.368Z</time></trkpt><trkpt lat="38.1756412" lon="12.7321989"><ele>11.714285714285714</ele><time>2026-04-25T16:39:58.367Z</time></trkpt><trkpt lat="38.175721" lon="12.7321847"><ele>11.428571428571429</ele><time>2026-04-25T16:39:59.367Z</time></trkpt><trkpt lat="38.1757934" lon="12.7321764"><ele>11.142857142857142</ele><time>2026-04-25T16:40:00.367Z</time></trkpt><trkpt lat="38.1758661" lon="12.7321685"><ele>10.857142857142858</ele><time>2026-04-25T16:40:01.367Z</time></trkpt><trkpt lat="38.1759336" lon="12.7321641"><ele>10.571428571428571</ele><time>2026-04-25T16:40:02.366Z</time></trkpt><trkpt lat="38.1760015" lon="12.732155"><ele>10.285714285714285</ele><time>2026-04-25T16:40:03.367Z</time></trkpt><trkpt lat="38.1760682" lon="12.7321495"><ele>10.0</ele><time>2026-04-25T16:40:04.367Z</time></trkpt><trkpt lat="38.1761869" lon="12.7321258"><ele>10.0</ele><time>2026-04-25T16:40:06.367Z</time></trkpt><trkpt lat="38.1763051" lon="12.7321067"><ele>10.0</ele><time>2026-04-25T16:40:08.367Z</time></trkpt><trkpt lat="38.1764062" lon="12.7320956"><ele>10.0</ele><time>2026-04-25T16:40:10.367Z</time></trkpt><trkpt lat="38.1764866" lon="12.7320932"><ele>10.0</ele><time>2026-04-25T16:40:15.367Z</time></trkpt><trkpt lat="38.1765719" lon="12.7320818"><ele>10.0</ele><time>2026-04-25T16:40:17.366Z</time></trkpt><trkpt lat="38.1766473" lon="12.7320715"><ele>10.0</ele><time>2026-04-25T16:40:20.366Z</time></trkpt><trkpt lat="38.1767244" lon="12.7320566"><ele>10.0</ele><time>2026-04-25T16:40:25.366Z</time></trkpt><trkpt lat="38.1768125" lon="12.7320422"><ele>10.0</ele><time>2026-04-25T16:40:28.368Z</time></trkpt><trkpt lat="38.1768866" lon="12.7320329"><ele>10.0</ele><time>2026-04-25T16:40:30.367Z</time></trkpt><trkpt lat="38.1769504" lon="12.732027"><ele>10.0</ele><time>2026-04-25T16:40:32.367Z</time></trkpt><trkpt lat="38.1770393" lon="12.7320162"><ele>10.0</ele><time>2026-04-25T16:40:35.367Z</time></trkpt><trkpt lat="38.1771079" lon="12.7320065"><ele>10.0</ele><time>2026-04-25T16:40:37.367Z</time></trkpt><trkpt lat="38.1771996" lon="12.7319953"><ele>10.0</ele><time>2026-04-25T16:40:40.366Z</time></trkpt><trkpt lat="38.177285" lon="12.731986"><ele>10.0</ele><time>2026-04-25T16:40:43.367Z</time></trkpt><trkpt lat="38.1773801" lon="12.7319712"><ele>10.0</ele><time>2026-04-25T16:40:46.367Z</time></trkpt><trkpt lat="38.1774437" lon="12.7319617"><ele>10.0</ele><time>2026-04-25T16:40:48.366Z</time></trkpt><trkpt lat="38.177553" lon="12.7319368"><ele>10.0</ele><time>2026-04-25T16:40:52.368Z</time></trkpt><trkpt lat="38.1776321" lon="12.7319253"><ele>9.5</ele><time>2026-04-25T16:40:55.367Z</time></trkpt><trkpt lat="38.1777081" lon="12.7319209"><ele>9.0</ele><time>2026-04-25T16:40:58.369Z</time></trkpt><trkpt lat="38.1777838" lon="12.7319547"><ele>8.5</ele><time>2026-04-25T16:41:01.367Z</time></trkpt><trkpt lat="38.1778384" lon="12.7319051"><ele>8.0</ele><time>2026-04-25T16:41:22.367Z</time></trkpt><trkpt lat="38.1777837" lon="12.7318168"><ele>7.500000000000001</ele><time>2026-04-25T16:41:25.367Z</time></trkpt><trkpt lat="38.1777245" lon="12.7318656"><ele>7.0</ele><time>2026-04-25T16:41:26.368Z</time></trkpt><trkpt lat="38.1776339" lon="12.731886"><ele>7.0</ele><time>2026-04-25T16:41:28.367Z</time></trkpt><trkpt lat="38.177544" lon="12.7319125"><ele>6.999999999999999</ele><time>2026-04-25T16:41:30.367Z</time></trkpt><trkpt lat="38.1774512" lon="12.7319339"><ele>6.999999999999999</ele><time>2026-04-25T16:41:32.366Z</time></trkpt><trkpt lat="38.1773661" lon="12.7319455"><ele>7.0</ele><time>2026-04-25T16:41:34.367Z</time></trkpt><trkpt lat="38.1772836" lon="12.7319518"><ele>7.0</ele><time>2026-04-25T16:41:36.367Z</time></trkpt><trkpt lat="38.1771841" lon="12.7319651"><ele>7.500000000000001</ele><time>2026-04-25T16:41:38.367Z</time></trkpt><trkpt lat="38.1770871" lon="12.7319763"><ele>8.0</ele><time>2026-04-25T16:41:40.367Z</time></trkpt><trkpt lat="38.1769812" lon="12.7319938"><ele>8.5</ele><time>2026-04-25T16:41:42.366Z</time></trkpt><trkpt lat="38.1768879" lon="12.7320089"><ele>9.0</ele><time>2026-04-25T16:41:44.366Z</time></trkpt><trkpt lat="38.1768187" lon="12.7319982"><ele>9.5</ele><time>2026-04-25T16:41:46.367Z</time></trkpt><trkpt lat="38.1768042" lon="12.7319195"><ele>10.0</ele><time>2026-04-25T16:42:48.367Z</time></trkpt><trkpt lat="38.176746" lon="12.7318857"><ele>11.0</ele><time>2026-04-25T16:50:32.368Z</time></trkpt></trkseg><trkseg><trkpt lat="38.1773215" lon="12.731743"><ele>11.0</ele><time>2026-04-25T17:53:19.376Z</time></trkpt><trkpt lat="38.1773235" lon="12.7318382"><ele>11.0</ele><time>2026-04-25T17:53:21.377Z</time></trkpt><trkpt lat="38.1773127" lon="12.7319388"><ele>11.0</ele><time>2026-04-25T17:53:24.376Z</time></trkpt><trkpt lat="38.177232" lon="12.7319798"><ele>11.0</ele><time>2026-04-25T17:53:26.376Z</time></trkpt><trkpt lat="38.177168" lon="12.7319896"><ele>11.0</ele><time>2026-04-25T17:53:27.377Z</time></trkpt><trkpt lat="38.1770962" lon="12.7319949"><ele>11.0</ele><time>2026-04-25T17:53:28.377Z</time></trkpt><trkpt lat="38.1770044" lon="12.7320073"><ele>10.8</ele><time>2026-04-25T17:53:29.376Z</time></trkpt><trkpt lat="38.1769021" lon="12.732014"><ele>10.600000000000001</ele><time>2026-04-25T17:53:30.377Z</time></trkpt><trkpt lat="38.1767926" lon="12.7320198"><ele>10.4</ele><time>2026-04-25T17:53:31.377Z</time></trkpt><trkpt lat="38.1766909" lon="12.7320313"><ele>10.2</ele><time>2026-04-25T17:53:32.376Z</time></trkpt><trkpt lat="38.1765943" lon="12.7320464"><ele>10.0</ele><time>2026-04-25T17:53:33.375Z</time></trkpt><trkpt lat="38.1764997" lon="12.7320629"><ele>10.0</ele><time>2026-04-25T17:53:34.376Z</time></trkpt><trkpt lat="38.1764077" lon="12.732078"><ele>10.0</ele><time>2026-04-25T17:53:35.376Z</time></trkpt><trkpt lat="38.17631" lon="12.7320846"><ele>10.0</ele><time>2026-04-25T17:53:36.375Z</time></trkpt><trkpt lat="38.1762057" lon="12.7320926"><ele>10.0</ele><time>2026-04-25T17:53:37.377Z</time></trkpt><trkpt lat="38.176119" lon="12.7320986"><ele>10.0</ele><time>2026-04-25T17:53:38.376Z</time></trkpt><trkpt lat="38.176047" lon="12.7321103"><ele>10.0</ele><time>2026-04-25T17:53:39.377Z</time></trkpt><trkpt lat="38.1759316" lon="12.7321248"><ele>10.0</ele><time>2026-04-25T17:53:41.377Z</time></trkpt><trkpt lat="38.1757961" lon="12.7321361"><ele>10.0</ele><time>2026-04-25T17:53:43.377Z</time></trkpt><trkpt lat="38.1757339" lon="12.7321501"><ele>10.0</ele><time>2026-04-25T17:53:44.377Z</time></trkpt><trkpt lat="38.1756541" lon="12.7321625"><ele>10.0</ele><time>2026-04-25T17:53:45.376Z</time></trkpt><trkpt lat="38.1755824" lon="12.732162"><ele>10.4</ele><time>2026-04-25T17:53:46.377Z</time></trkpt><trkpt lat="38.1755094" lon="12.7321682"><ele>10.8</ele><time>2026-04-25T17:53:47.377Z</time></trkpt><trkpt lat="38.1753608" lon="12.7321821"><ele>11.2</ele><time>2026-04-25T17:53:49.377Z</time></trkpt><trkpt lat="38.1752818" lon="12.7321937"><ele>11.6</ele><time>2026-04-25T17:53:50.377Z</time></trkpt><trkpt lat="38.1751992" lon="12.732209"><ele>12.0</ele><time>2026-04-25T17:53:51.377Z</time></trkpt><trkpt lat="38.1751081" lon="12.7322306"><ele>12.0</ele><time>2026-04-25T17:53:52.375Z</time></trkpt><trkpt lat="38.1750223" lon="12.7322461"><ele>12.0</ele><time>2026-04-25T17:53:53.377Z</time></trkpt><trkpt lat="38.1749463" lon="12.7322534"><ele>12.0</ele><time>2026-04-25T17:53:54.377Z</time></trkpt><trkpt lat="38.1748715" lon="12.73226"><ele>12.0</ele><time>2026-04-25T17:53:55.376Z</time></trkpt><trkpt lat="38.1747995" lon="12.7322764"><ele>12.0</ele><time>2026-04-25T17:53:56.376Z</time></trkpt><trkpt lat="38.1747337" lon="12.732285"><ele>12.0</ele><time>2026-04-25T17:53:57.377Z</time></trkpt><trkpt lat="38.1746225" lon="12.7322966"><ele>12.6</ele><time>2026-04-25T17:53:59.377Z</time></trkpt><trkpt lat="38.1745545" lon="12.7323055"><ele>13.2</ele><time>2026-04-25T17:54:00.376Z</time></trkpt><trkpt lat="38.1744343" lon="12.7323196"><ele>13.8</ele><time>2026-04-25T17:54:02.377Z</time></trkpt><trkpt lat="38.1743175" lon="12.7323417"><ele>14.4</ele><time>2026-04-25T17:54:04.377Z</time></trkpt><trkpt lat="38.1742082" lon="12.7323548"><ele>15.0</ele><time>2026-04-25T17:54:06.376Z</time></trkpt><trkpt lat="38.1740922" lon="12.7323686"><ele>15.333333333333334</ele><time>2026-04-25T17:54:08.377Z</time></trkpt><trkpt lat="38.1739607" lon="12.7323861"><ele>15.666666666666668</ele><time>2026-04-25T17:54:10.377Z</time></trkpt><trkpt lat="38.1738872" lon="12.7323949"><ele>16.0</ele><time>2026-04-25T17:54:11.377Z</time></trkpt><trkpt lat="38.1738156" lon="12.7324082"><ele>16.333333333333336</ele><time>2026-04-25T17:54:12.377Z</time></trkpt><trkpt lat="38.1737411" lon="12.7324148"><ele>16.666666666666668</ele><time>2026-04-25T17:54:13.377Z</time></trkpt><trkpt lat="38.1736626" lon="12.7324273"><ele>17.0</ele><time>2026-04-25T17:54:14.376Z</time></trkpt><trkpt lat="38.1735846" lon="12.7324355"><ele>17.0</ele><time>2026-04-25T17:54:15.376Z</time></trkpt><trkpt lat="38.1735048" lon="12.7324482"><ele>17.0</ele><time>2026-04-25T17:54:16.377Z</time></trkpt><trkpt lat="38.1734261" lon="12.7324606"><ele>17.0</ele><time>2026-04-25T17:54:17.377Z</time></trkpt><trkpt lat="38.1733468" lon="12.7324708"><ele>17.0</ele><time>2026-04-25T17:54:18.376Z</time></trkpt><trkpt lat="38.1732702" lon="12.7324827"><ele>17.0</ele><time>2026-04-25T17:54:19.376Z</time></trkpt><trkpt lat="38.1731807" lon="12.7324883"><ele>17.0</ele><time>2026-04-25T17:54:20.377Z</time></trkpt><trkpt lat="38.1730996" lon="12.7325011"><ele>17.0</ele><time>2026-04-25T17:54:21.377Z</time></trkpt><trkpt lat="38.1730154" lon="12.7325126"><ele>17.0</ele><time>2026-04-25T17:54:22.376Z</time></trkpt><trkpt lat="38.1729291" lon="12.7325273"><ele>17.0</ele><time>2026-04-25T17:54:23.377Z</time></trkpt><trkpt lat="38.1728494" lon="12.7325385"><ele>17.0</ele><time>2026-04-25T17:54:24.376Z</time></trkpt><trkpt lat="38.1727658" lon="12.7325473"><ele>17.0</ele><time>2026-04-25T17:54:25.376Z</time></trkpt><trkpt lat="38.1726724" lon="12.7325547"><ele>17.0</ele><time>2026-04-25T17:54:26.376Z</time></trkpt><trkpt lat="38.172589" lon="12.7325704"><ele>17.0</ele><time>2026-04-25T17:54:27.376Z</time></trkpt><trkpt lat="38.1725058" lon="12.7325807"><ele>17.0</ele><time>2026-04-25T17:54:28.376Z</time></trkpt><trkpt lat="38.1724291" lon="12.7325905"><ele>17.0</ele><time>2026-04-25T17:54:29.377Z</time></trkpt><trkpt lat="38.1723473" lon="12.7325998"><ele>17.0</ele><time>2026-04-25T17:54:30.377Z</time></trkpt><trkpt lat="38.1722594" lon="12.7326231"><ele>17.0</ele><time>2026-04-25T17:54:31.377Z</time></trkpt><trkpt lat="38.1721644" lon="12.7326433"><ele>17.0</ele><time>2026-04-25T17:54:32.376Z</time></trkpt><trkpt lat="38.1720647" lon="12.7326573"><ele>17.6</ele><time>2026-04-25T17:54:33.377Z</time></trkpt><trkpt lat="38.1719555" lon="12.7326685"><ele>18.2</ele><time>2026-04-25T17:54:34.377Z</time></trkpt><trkpt lat="38.1718553" lon="12.7326741"><ele>18.8</ele><time>2026-04-25T17:54:35.377Z</time></trkpt><trkpt lat="38.1717485" lon="12.7326823"><ele>19.4</ele><time>2026-04-25T17:54:36.377Z</time></trkpt><trkpt lat="38.1716335" lon="12.7326995"><ele>20.0</ele><time>2026-04-25T17:54:37.377Z</time></trkpt><trkpt lat="38.1715151" lon="12.7327176"><ele>20.0</ele><time>2026-04-25T17:54:38.377Z</time></trkpt><trkpt lat="38.171395" lon="12.7327399"><ele>20.0</ele><time>2026-04-25T17:54:39.377Z</time></trkpt><trkpt lat="38.171261" lon="12.7327612"><ele>20.0</ele><time>2026-04-25T17:54:40.376Z</time></trkpt><trkpt lat="38.1711259" lon="12.7327784"><ele>20.0</ele><time>2026-04-25T17:54:41.377Z</time></trkpt><trkpt lat="38.1709866" lon="12.7327943"><ele>20.0</ele><time>2026-04-25T17:54:42.377Z</time></trkpt><trkpt lat="38.1708426" lon="12.7328113"><ele>20.0</ele><time>2026-04-25T17:54:43.376Z</time></trkpt><trkpt lat="38.1706903" lon="12.7328281"><ele>20.0</ele><time>2026-04-25T17:54:44.376Z</time></trkpt><trkpt lat="38.1705454" lon="12.7328413"><ele>20.0</ele><time>2026-04-25T17:54:45.376Z</time></trkpt><trkpt lat="38.1704011" lon="12.7328552"><ele>20.5</ele><time>2026-04-25T17:54:46.377Z</time></trkpt><trkpt lat="38.1702502" lon="12.7328705"><ele>21.0</ele><time>2026-04-25T17:54:47.377Z</time></trkpt><trkpt lat="38.1701127" lon="12.7328931"><ele>21.5</ele><time>2026-04-25T17:54:48.376Z</time></trkpt><trkpt lat="38.1699792" lon="12.7329132"><ele>22.0</ele><time>2026-04-25T17:54:49.377Z</time></trkpt><trkpt lat="38.1698571" lon="12.7329264"><ele>22.75</ele><time>2026-04-25T17:54:50.377Z</time></trkpt><trkpt lat="38.1697293" lon="12.7329481"><ele>23.5</ele><time>2026-04-25T17:54:51.378Z</time></trkpt><trkpt lat="38.1696062" lon="12.7329656"><ele>24.25</ele><time>2026-04-25T17:54:52.376Z</time></trkpt><trkpt lat="38.1694754" lon="12.7329827"><ele>25.0</ele><time>2026-04-25T17:54:53.377Z</time></trkpt><trkpt lat="38.1693449" lon="12.7329989"><ele>25.0</ele><time>2026-04-25T17:54:54.376Z</time></trkpt><trkpt lat="38.1692116" lon="12.7330132"><ele>25.0</ele><time>2026-04-25T17:54:55.377Z</time></trkpt><trkpt lat="38.1690848" lon="12.7330279"><ele>25.0</ele><time>2026-04-25T17:54:56.377Z</time></trkpt><trkpt lat="38.1689653" lon="12.7330433"><ele>25.0</ele><time>2026-04-25T17:54:57.377Z</time></trkpt><trkpt lat="38.1688547" lon="12.7330578"><ele>26.0</ele><time>2026-04-25T17:54:58.377Z</time></trkpt><trkpt lat="38.1687454" lon="12.7330784"><ele>27.0</ele><time>2026-04-25T17:54:59.376Z</time></trkpt><trkpt lat="38.1686297" lon="12.7330953"><ele>28.0</ele><time>2026-04-25T17:55:00.377Z</time></trkpt><trkpt lat="38.1685097" lon="12.7331146"><ele>29.0</ele><time>2026-04-25T17:55:01.376Z</time></trkpt><trkpt lat="38.1683988" lon="12.7331256"><ele>29.0</ele><time>2026-04-25T17:55:02.377Z</time></trkpt><trkpt lat="38.1682915" lon="12.7331359"><ele>29.0</ele><time>2026-04-25T17:55:03.376Z</time></trkpt><trkpt lat="38.1681936" lon="12.7331449"><ele>29.0</ele><time>2026-04-25T17:55:04.376Z</time></trkpt><trkpt lat="38.1680876" lon="12.7331568"><ele>29.0</ele><time>2026-04-25T17:55:05.378Z</time></trkpt><trkpt lat="38.1679865" lon="12.7331635"><ele>29.0</ele><time>2026-04-25T17:55:06.377Z</time></trkpt><trkpt lat="38.167893" lon="12.7331769"><ele>29.499999999999996</ele><time>2026-04-25T17:55:07.377Z</time></trkpt><trkpt lat="38.167811" lon="12.733186"><ele>30.0</ele><time>2026-04-25T17:55:08.377Z</time></trkpt><trkpt lat="38.1677367" lon="12.7332041"><ele>30.5</ele><time>2026-04-25T17:55:09.377Z</time></trkpt><trkpt lat="38.1676457" lon="12.733217"><ele>31.0</ele><time>2026-04-25T17:55:10.377Z</time></trkpt><trkpt lat="38.1675618" lon="12.7332312"><ele>31.499999999999996</ele><time>2026-04-25T17:55:11.377Z</time></trkpt><trkpt lat="38.1674777" lon="12.7332376"><ele>32.0</ele><time>2026-04-25T17:55:12.377Z</time></trkpt><trkpt lat="38.167403" lon="12.7332418"><ele>32.33333333333333</ele><time>2026-04-25T17:55:13.377Z</time></trkpt><trkpt lat="38.167326" lon="12.7332554"><ele>32.666666666666664</ele><time>2026-04-25T17:55:14.377Z</time></trkpt><trkpt lat="38.1672561" lon="12.7332684"><ele>33.0</ele><time>2026-04-25T17:55:15.377Z</time></trkpt><trkpt lat="38.1671482" lon="12.7332775"><ele>33.333333333333336</ele><time>2026-04-25T17:55:17.377Z</time></trkpt><trkpt lat="38.167047" lon="12.7332923"><ele>33.66666666666667</ele><time>2026-04-25T17:55:19.377Z</time></trkpt><trkpt lat="38.1669783" lon="12.7332723"><ele>34.0</ele><time>2026-04-25T17:55:21.378Z</time></trkpt><trkpt lat="38.166907" lon="12.7332851"><ele>34.0</ele><time>2026-04-25T17:55:47.377Z</time></trkpt><trkpt lat="38.1669081" lon="12.7334203"><ele>34.0</ele><time>2026-04-25T17:55:49.377Z</time></trkpt><trkpt lat="38.1669399" lon="12.7335256"><ele>34.0</ele><time>2026-04-25T17:55:50.377Z</time></trkpt><trkpt lat="38.1669804" lon="12.7336682"><ele>34.0</ele><time>2026-04-25T17:55:51.377Z</time></trkpt><trkpt lat="38.1670197" lon="12.7338134"><ele>34.0</ele><time>2026-04-25T17:55:52.377Z</time></trkpt><trkpt lat="38.1670624" lon="12.7339527"><ele>33.6</ele><time>2026-04-25T17:55:53.376Z</time></trkpt><trkpt lat="38.1670979" lon="12.7340919"><ele>33.2</ele><time>2026-04-25T17:55:54.377Z</time></trkpt><trkpt lat="38.1671224" lon="12.7342255"><ele>32.800000000000004</ele><time>2026-04-25T17:55:55.377Z</time></trkpt><trkpt lat="38.1671547" lon="12.7343325"><ele>32.4</ele><time>2026-04-25T17:55:56.377Z</time></trkpt><trkpt lat="38.1671823" lon="12.7344351"><ele>32.0</ele><time>2026-04-25T17:55:57.376Z</time></trkpt><trkpt lat="38.1672026" lon="12.7345243"><ele>31.666666666666664</ele><time>2026-04-25T17:55:58.377Z</time></trkpt><trkpt lat="38.1672391" lon="12.7346572"><ele>31.333333333333332</ele><time>2026-04-25T17:56:00.377Z</time></trkpt><trkpt lat="38.1672659" lon="12.7347646"><ele>31.0</ele><time>2026-04-25T17:56:02.376Z</time></trkpt><trkpt lat="38.1672665" lon="12.734864"><ele>30.666666666666664</ele><time>2026-04-25T17:56:04.378Z</time></trkpt><trkpt lat="38.1672551" lon="12.734951"><ele>30.333333333333332</ele><time>2026-04-25T17:56:06.377Z</time></trkpt><trkpt lat="38.1672124" lon="12.7350243"><ele>30.0</ele><time>2026-04-25T17:56:08.378Z</time></trkpt><trkpt lat="38.1671187" lon="12.7350924"><ele>30.0</ele><time>2026-04-25T17:56:10.378Z</time></trkpt><trkpt lat="38.1669878" lon="12.735133"><ele>30.0</ele><time>2026-04-25T17:56:12.376Z</time></trkpt><trkpt lat="38.1669101" lon="12.7351538"><ele>30.0</ele><time>2026-04-25T17:56:13.377Z</time></trkpt><trkpt lat="38.1668229" lon="12.7351745"><ele>30.0</ele><time>2026-04-25T17:56:14.378Z</time></trkpt><trkpt lat="38.166728" lon="12.7351969"><ele>30.0</ele><time>2026-04-25T17:56:15.378Z</time></trkpt><trkpt lat="38.1666283" lon="12.7352218"><ele>30.5</ele><time>2026-04-25T17:56:16.378Z</time></trkpt><trkpt lat="38.1665225" lon="12.7352518"><ele>31.0</ele><time>2026-04-25T17:56:17.377Z</time></trkpt><trkpt lat="38.1664068" lon="12.7352841"><ele>31.5</ele><time>2026-04-25T17:56:18.377Z</time></trkpt><trkpt lat="38.1662748" lon="12.7353125"><ele>32.0</ele><time>2026-04-25T17:56:19.377Z</time></trkpt><trkpt lat="38.1661355" lon="12.7353549"><ele>32.0</ele><time>2026-04-25T17:56:20.377Z</time></trkpt><trkpt lat="38.1659942" lon="12.7354053"><ele>32.0</ele><time>2026-04-25T17:56:21.377Z</time></trkpt><trkpt lat="38.1658486" lon="12.7354542"><ele>32.0</ele><time>2026-04-25T17:56:22.378Z</time></trkpt><trkpt lat="38.1657038" lon="12.7355026"><ele>32.0</ele><time>2026-04-25T17:56:23.377Z</time></trkpt><trkpt lat="38.165552" lon="12.7355508"><ele>32.666666666666664</ele><time>2026-04-25T17:56:24.377Z</time></trkpt><trkpt lat="38.1653964" lon="12.7356011"><ele>33.333333333333336</ele><time>2026-04-25T17:56:25.377Z</time></trkpt><trkpt lat="38.1652292" lon="12.7356446"><ele>34.0</ele><time>2026-04-25T17:56:26.377Z</time></trkpt><trkpt lat="38.1650467" lon="12.735685"><ele>34.0</ele><time>2026-04-25T17:56:27.377Z</time></trkpt><trkpt lat="38.1648707" lon="12.7357327"><ele>34.0</ele><time>2026-04-25T17:56:28.379Z</time></trkpt><trkpt lat="38.1646926" lon="12.7357775"><ele>34.0</ele><time>2026-04-25T17:56:29.377Z</time></trkpt><trkpt lat="38.1645137" lon="12.7358238"><ele>34.66666666666667</ele><time>2026-04-25T17:56:30.377Z</time></trkpt><trkpt lat="38.1643294" lon="12.7358696"><ele>35.333333333333336</ele><time>2026-04-25T17:56:31.377Z</time></trkpt><trkpt lat="38.1641318" lon="12.7359145"><ele>36.0</ele><time>2026-04-25T17:56:32.377Z</time></trkpt><trkpt lat="38.163933" lon="12.7359603"><ele>36.666666666666664</ele><time>2026-04-25T17:56:33.378Z</time></trkpt><trkpt lat="38.1637292" lon="12.7360158"><ele>37.33333333333333</ele><time>2026-04-25T17:56:34.378Z</time></trkpt><trkpt lat="38.1635342" lon="12.7360759"><ele>38.0</ele><time>2026-04-25T17:56:35.377Z</time></trkpt><trkpt lat="38.1633414" lon="12.7361355"><ele>39.33333333333333</ele><time>2026-04-25T17:56:36.377Z</time></trkpt><trkpt lat="38.1631431" lon="12.7361977"><ele>40.666666666666664</ele><time>2026-04-25T17:56:37.377Z</time></trkpt><trkpt lat="38.1629484" lon="12.7362562"><ele>42.0</ele><time>2026-04-25T17:56:38.377Z</time></trkpt><trkpt lat="38.1627569" lon="12.7363135"><ele>42.0</ele><time>2026-04-25T17:56:39.377Z</time></trkpt><trkpt lat="38.1625643" lon="12.7363707"><ele>42.0</ele><time>2026-04-25T17:56:40.377Z</time></trkpt><trkpt lat="38.162369" lon="12.7364295"><ele>42.0</ele><time>2026-04-25T17:56:41.377Z</time></trkpt><trkpt lat="38.1621775" lon="12.7364882"><ele>42.666666666666664</ele><time>2026-04-25T17:56:42.378Z</time></trkpt><trkpt lat="38.1619849" lon="12.7365429"><ele>43.33333333333333</ele><time>2026-04-25T17:56:43.377Z</time></trkpt><trkpt lat="38.161788" lon="12.7365926"><ele>44.0</ele><time>2026-04-25T17:56:44.377Z</time></trkpt><trkpt lat="38.1615785" lon="12.7366503"><ele>46.0</ele><time>2026-04-25T17:56:45.377Z</time></trkpt><trkpt lat="38.1613772" lon="12.7367029"><ele>48.0</ele><time>2026-04-25T17:56:46.377Z</time></trkpt><trkpt lat="38.1611829" lon="12.7367609"><ele>50.0</ele><time>2026-04-25T17:56:47.377Z</time></trkpt><trkpt lat="38.1609883" lon="12.7368198"><ele>50.0</ele><time>2026-04-25T17:56:48.377Z</time></trkpt><trkpt lat="38.1607934" lon="12.7368763"><ele>50.0</ele><time>2026-04-25T17:56:49.377Z</time></trkpt><trkpt lat="38.1605952" lon="12.7369329"><ele>50.0</ele><time>2026-04-25T17:56:50.379Z</time></trkpt><trkpt lat="38.1603963" lon="12.7369823"><ele>50.66666666666667</ele><time>2026-04-25T17:56:51.377Z</time></trkpt><trkpt lat="38.1602051" lon="12.7370378"><ele>51.33333333333333</ele><time>2026-04-25T17:56:52.377Z</time></trkpt><trkpt lat="38.1600127" lon="12.7370953"><ele>52.0</ele><time>2026-04-25T17:56:53.377Z</time></trkpt><trkpt lat="38.1598151" lon="12.7371485"><ele>53.666666666666664</ele><time>2026-04-25T17:56:54.377Z</time></trkpt><trkpt lat="38.1596175" lon="12.7372013"><ele>55.33333333333333</ele><time>2026-04-25T17:56:55.376Z</time></trkpt><trkpt lat="38.1594203" lon="12.7372541"><ele>57.0</ele><time>2026-04-25T17:56:56.377Z</time></trkpt><trkpt lat="38.1592215" lon="12.7373016"><ele>57.66666666666667</ele><time>2026-04-25T17:56:57.376Z</time></trkpt><trkpt lat="38.1590224" lon="12.7373508"><ele>58.333333333333336</ele><time>2026-04-25T17:56:58.377Z</time></trkpt><trkpt lat="38.1588228" lon="12.7374083"><ele>59.0</ele><time>2026-04-25T17:56:59.378Z</time></trkpt><trkpt lat="38.1586187" lon="12.7374625"><ele>59.0</ele><time>2026-04-25T17:57:00.376Z</time></trkpt><trkpt lat="38.158413" lon="12.7375187"><ele>59.0</ele><time>2026-04-25T17:57:01.377Z</time></trkpt><trkpt lat="38.1582091" lon="12.7375682"><ele>59.0</ele><time>2026-04-25T17:57:02.379Z</time></trkpt><trkpt lat="38.1580041" lon="12.737607"><ele>61.0</ele><time>2026-04-25T17:57:03.376Z</time></trkpt><trkpt lat="38.1577925" lon="12.7376274"><ele>63.0</ele><time>2026-04-25T17:57:04.377Z</time></trkpt><trkpt lat="38.1575906" lon="12.7376328"><ele>65.0</ele><time>2026-04-25T17:57:05.377Z</time></trkpt><trkpt lat="38.1573752" lon="12.7376321"><ele>66.0</ele><time>2026-04-25T17:57:06.377Z</time></trkpt><trkpt lat="38.1571692" lon="12.7376355"><ele>67.0</ele><time>2026-04-25T17:57:07.377Z</time></trkpt><trkpt lat="38.1569656" lon="12.7376238"><ele>68.0</ele><time>2026-04-25T17:57:08.378Z</time></trkpt><trkpt lat="38.1567492" lon="12.7376131"><ele>68.0</ele><time>2026-04-25T17:57:09.378Z</time></trkpt><trkpt lat="38.1565363" lon="12.7375991"><ele>68.0</ele><time>2026-04-25T17:57:10.377Z</time></trkpt><trkpt lat="38.1563383" lon="12.7375858"><ele>68.0</ele><time>2026-04-25T17:57:11.378Z</time></trkpt><trkpt lat="38.1561371" lon="12.7375706"><ele>68.66666666666667</ele><time>2026-04-25T17:57:12.377Z</time></trkpt><trkpt lat="38.1559558" lon="12.7375636"><ele>69.33333333333333</ele><time>2026-04-25T17:57:13.378Z</time></trkpt><trkpt lat="38.1557846" lon="12.7375484"><ele>70.0</ele><time>2026-04-25T17:57:14.378Z</time></trkpt><trkpt lat="38.1556227" lon="12.7375332"><ele>72.0</ele><time>2026-04-25T17:57:15.377Z</time></trkpt><trkpt lat="38.1554623" lon="12.7375202"><ele>74.0</ele><time>2026-04-25T17:57:16.377Z</time></trkpt><trkpt lat="38.1553002" lon="12.7375114"><ele>76.0</ele><time>2026-04-25T17:57:17.377Z</time></trkpt><trkpt lat="38.1551498" lon="12.7375022"><ele>76.0</ele><time>2026-04-25T17:57:18.378Z</time></trkpt><trkpt lat="38.1549892" lon="12.7374934"><ele>76.0</ele><time>2026-04-25T17:57:19.376Z</time></trkpt><trkpt lat="38.1548299" lon="12.7374874"><ele>76.0</ele><time>2026-04-25T17:57:20.377Z</time></trkpt><trkpt lat="38.1546577" lon="12.737479"><ele>77.33333333333333</ele><time>2026-04-25T17:57:21.378Z</time></trkpt><trkpt lat="38.1544681" lon="12.7374593"><ele>78.66666666666667</ele><time>2026-04-25T17:57:22.378Z</time></trkpt><trkpt lat="38.1542823" lon="12.7374406"><ele>80.0</ele><time>2026-04-25T17:57:23.378Z</time></trkpt><trkpt lat="38.1541002" lon="12.7374155"><ele>80.0</ele><time>2026-04-25T17:57:24.378Z</time></trkpt><trkpt lat="38.1539176" lon="12.7373936"><ele>80.0</ele><time>2026-04-25T17:57:25.377Z</time></trkpt><trkpt lat="38.1537349" lon="12.7373761"><ele>80.0</ele><time>2026-04-25T17:57:26.377Z</time></trkpt><trkpt lat="38.1535615" lon="12.7373672"><ele>80.0</ele><time>2026-04-25T17:57:27.377Z</time></trkpt><trkpt lat="38.1533987" lon="12.737365"><ele>80.0</ele><time>2026-04-25T17:57:28.378Z</time></trkpt><trkpt lat="38.1532226" lon="12.7373776"><ele>80.0</ele><time>2026-04-25T17:57:29.377Z</time></trkpt><trkpt lat="38.1530457" lon="12.7374049"><ele>79.66666666666667</ele><time>2026-04-25T17:57:30.379Z</time></trkpt><trkpt lat="38.1528641" lon="12.7374457"><ele>79.33333333333333</ele><time>2026-04-25T17:57:31.377Z</time></trkpt><trkpt lat="38.1526792" lon="12.7375006"><ele>79.0</ele><time>2026-04-25T17:57:32.377Z</time></trkpt><trkpt lat="38.1524909" lon="12.7375681"><ele>78.66666666666666</ele><time>2026-04-25T17:57:33.378Z</time></trkpt><trkpt lat="38.1522903" lon="12.7376404"><ele>78.33333333333333</ele><time>2026-04-25T17:57:34.377Z</time></trkpt><trkpt lat="38.1521014" lon="12.7377089"><ele>78.0</ele><time>2026-04-25T17:57:35.376Z</time></trkpt><trkpt lat="38.1519229" lon="12.7377903"><ele>79.0</ele><time>2026-04-25T17:57:36.378Z</time></trkpt><trkpt lat="38.151748" lon="12.7378585"><ele>80.0</ele><time>2026-04-25T17:57:37.378Z</time></trkpt><trkpt lat="38.1515757" lon="12.7379239"><ele>81.0</ele><time>2026-04-25T17:57:38.377Z</time></trkpt><trkpt lat="38.1513977" lon="12.7379957"><ele>81.0</ele><time>2026-04-25T17:57:39.377Z</time></trkpt><trkpt lat="38.1512212" lon="12.7380764"><ele>81.0</ele><time>2026-04-25T17:57:40.377Z</time></trkpt><trkpt lat="38.1510371" lon="12.7381622"><ele>81.0</ele><time>2026-04-25T17:57:41.378Z</time></trkpt><trkpt lat="38.1508433" lon="12.7382465"><ele>82.66666666666667</ele><time>2026-04-25T17:57:42.376Z</time></trkpt><trkpt lat="38.150645" lon="12.7383308"><ele>84.33333333333334</ele><time>2026-04-25T17:57:43.378Z</time></trkpt><trkpt lat="38.1504393" lon="12.7384117"><ele>86.0</ele><time>2026-04-25T17:57:44.378Z</time></trkpt><trkpt lat="38.1502332" lon="12.7384885"><ele>86.0</ele><time>2026-04-25T17:57:45.377Z</time></trkpt><trkpt lat="38.1500354" lon="12.7385615"><ele>86.0</ele><time>2026-04-25T17:57:46.377Z</time></trkpt><trkpt lat="38.1498411" lon="12.7386296"><ele>86.0</ele><time>2026-04-25T17:57:47.378Z</time></trkpt><trkpt lat="38.1496483" lon="12.7386956"><ele>86.0</ele><time>2026-04-25T17:57:48.378Z</time></trkpt><trkpt lat="38.1494488" lon="12.7387667"><ele>86.0</ele><time>2026-04-25T17:57:49.376Z</time></trkpt><trkpt lat="38.1492468" lon="12.7388278"><ele>86.0</ele><time>2026-04-25T17:57:50.378Z</time></trkpt><trkpt lat="38.1490438" lon="12.738892"><ele>86.0</ele><time>2026-04-25T17:57:51.377Z</time></trkpt><trkpt lat="38.1488455" lon="12.7389538"><ele>86.0</ele><time>2026-04-25T17:57:52.376Z</time></trkpt><trkpt lat="38.1486515" lon="12.73901"><ele>86.0</ele><time>2026-04-25T17:57:53.378Z</time></trkpt><trkpt lat="38.1484611" lon="12.7390702"><ele>86.0</ele><time>2026-04-25T17:57:54.379Z</time></trkpt><trkpt lat="38.1482814" lon="12.7391225"><ele>86.0</ele><time>2026-04-25T17:57:55.376Z</time></trkpt><trkpt lat="38.1481034" lon="12.7391677"><ele>86.0</ele><time>2026-04-25T17:57:56.377Z</time></trkpt><trkpt lat="38.1479239" lon="12.7392113"><ele>86.0</ele><time>2026-04-25T17:57:57.377Z</time></trkpt><trkpt lat="38.1477533" lon="12.7392699"><ele>86.0</ele><time>2026-04-25T17:57:58.377Z</time></trkpt><trkpt lat="38.1475868" lon="12.7393219"><ele>86.0</ele><time>2026-04-25T17:57:59.378Z</time></trkpt><trkpt lat="38.1474304" lon="12.7393744"><ele>85.33333333333334</ele><time>2026-04-25T17:58:00.378Z</time></trkpt><trkpt lat="38.1472786" lon="12.7394262"><ele>84.66666666666667</ele><time>2026-04-25T17:58:01.378Z</time></trkpt><trkpt lat="38.1471257" lon="12.7394859"><ele>84.0</ele><time>2026-04-25T17:58:02.377Z</time></trkpt><trkpt lat="38.1469686" lon="12.7395615"><ele>84.0</ele><time>2026-04-25T17:58:03.378Z</time></trkpt><trkpt lat="38.1468107" lon="12.7396438"><ele>84.0</ele><time>2026-04-25T17:58:04.377Z</time></trkpt><trkpt lat="38.1466549" lon="12.7397266"><ele>84.0</ele><time>2026-04-25T17:58:05.378Z</time></trkpt><trkpt lat="38.1464912" lon="12.7398079"><ele>82.0</ele><time>2026-04-25T17:58:06.378Z</time></trkpt><trkpt lat="38.1463274" lon="12.739881"><ele>80.0</ele><time>2026-04-25T17:58:07.376Z</time></trkpt><trkpt lat="38.1461717" lon="12.7399545"><ele>78.0</ele><time>2026-04-25T17:58:08.378Z</time></trkpt><trkpt lat="38.1460185" lon="12.7400274"><ele>78.0</ele><time>2026-04-25T17:58:09.377Z</time></trkpt><trkpt lat="38.145868" lon="12.7401043"><ele>78.0</ele><time>2026-04-25T17:58:10.377Z</time></trkpt><trkpt lat="38.1457251" lon="12.74017"><ele>78.0</ele><time>2026-04-25T17:58:11.378Z</time></trkpt><trkpt lat="38.1455929" lon="12.7402324"><ele>78.75</ele><time>2026-04-25T17:58:12.378Z</time></trkpt><trkpt lat="38.1454758" lon="12.7402887"><ele>79.5</ele><time>2026-04-25T17:58:13.378Z</time></trkpt><trkpt lat="38.14537" lon="12.7403377"><ele>80.25</ele><time>2026-04-25T17:58:14.376Z</time></trkpt><trkpt lat="38.1452601" lon="12.7403795"><ele>81.0</ele><time>2026-04-25T17:58:15.378Z</time></trkpt><trkpt lat="38.1451541" lon="12.7403946"><ele>81.0</ele><time>2026-04-25T17:58:16.378Z</time></trkpt><trkpt lat="38.1450419" lon="12.7404099"><ele>81.0</ele><time>2026-04-25T17:58:17.377Z</time></trkpt><trkpt lat="38.144931" lon="12.7404082"><ele>81.0</ele><time>2026-04-25T17:58:18.378Z</time></trkpt><trkpt lat="38.1448117" lon="12.7403982"><ele>81.0</ele><time>2026-04-25T17:58:19.377Z</time></trkpt><trkpt lat="38.1446845" lon="12.7403697"><ele>79.66666666666667</ele><time>2026-04-25T17:58:20.377Z</time></trkpt><trkpt lat="38.1445467" lon="12.7403159"><ele>78.33333333333334</ele><time>2026-04-25T17:58:21.378Z</time></trkpt><trkpt lat="38.1444064" lon="12.7402419"><ele>77.0</ele><time>2026-04-25T17:58:22.378Z</time></trkpt><trkpt lat="38.1442646" lon="12.740161"><ele>74.0</ele><time>2026-04-25T17:58:23.378Z</time></trkpt><trkpt lat="38.1441341" lon="12.7400763"><ele>71.0</ele><time>2026-04-25T17:58:24.378Z</time></trkpt><trkpt lat="38.1440116" lon="12.7400034"><ele>68.0</ele><time>2026-04-25T17:58:25.376Z</time></trkpt><trkpt lat="38.1438922" lon="12.7399348"><ele>65.0</ele><time>2026-04-25T17:58:26.377Z</time></trkpt><trkpt lat="38.143776" lon="12.7398728"><ele>64.5</ele><time>2026-04-25T17:58:27.377Z</time></trkpt><trkpt lat="38.1436477" lon="12.739814"><ele>64.0</ele><time>2026-04-25T17:58:28.377Z</time></trkpt><trkpt lat="38.1435078" lon="12.7397604"><ele>63.5</ele><time>2026-04-25T17:58:29.378Z</time></trkpt><trkpt lat="38.1433635" lon="12.7397052"><ele>63.0</ele><time>2026-04-25T17:58:30.378Z</time></trkpt><trkpt lat="38.1432261" lon="12.7396567"><ele>63.25</ele><time>2026-04-25T17:58:31.376Z</time></trkpt><trkpt lat="38.1430899" lon="12.739604"><ele>63.5</ele><time>2026-04-25T17:58:32.378Z</time></trkpt><trkpt lat="38.1429582" lon="12.739553"><ele>63.75</ele><time>2026-04-25T17:58:33.378Z</time></trkpt><trkpt lat="38.1428291" lon="12.7395029"><ele>64.0</ele><time>2026-04-25T17:58:34.378Z</time></trkpt><trkpt lat="38.1426994" lon="12.739449"><ele>64.0</ele><time>2026-04-25T17:58:35.378Z</time></trkpt><trkpt lat="38.1425726" lon="12.7393947"><ele>64.0</ele><time>2026-04-25T17:58:36.378Z</time></trkpt><trkpt lat="38.1424408" lon="12.7393331"><ele>64.0</ele><time>2026-04-25T17:58:37.377Z</time></trkpt><trkpt lat="38.1423055" lon="12.7392729"><ele>64.0</ele><time>2026-04-25T17:58:38.378Z</time></trkpt><trkpt lat="38.1421707" lon="12.7392015"><ele>62.0</ele><time>2026-04-25T17:58:39.377Z</time></trkpt><trkpt lat="38.1420517" lon="12.7391243"><ele>60.0</ele><time>2026-04-25T17:58:40.377Z</time></trkpt><trkpt lat="38.1419409" lon="12.7390563"><ele>58.0</ele><time>2026-04-25T17:58:41.378Z</time></trkpt><trkpt lat="38.1418404" lon="12.7389925"><ele>56.0</ele><time>2026-04-25T17:58:42.376Z</time></trkpt><trkpt lat="38.1417476" lon="12.7389357"><ele>56.0</ele><time>2026-04-25T17:58:43.378Z</time></trkpt><trkpt lat="38.1416513" lon="12.7388815"><ele>56.0</ele><time>2026-04-25T17:58:44.376Z</time></trkpt><trkpt lat="38.1415438" lon="12.7388221"><ele>56.0</ele><time>2026-04-25T17:58:45.377Z</time></trkpt><trkpt lat="38.1414208" lon="12.7387537"><ele>56.0</ele><time>2026-04-25T17:58:46.377Z</time></trkpt><trkpt lat="38.1412962" lon="12.7386789"><ele>56.0</ele><time>2026-04-25T17:58:47.378Z</time></trkpt><trkpt lat="38.1411768" lon="12.738613"><ele>56.0</ele><time>2026-04-25T17:58:48.378Z</time></trkpt><trkpt lat="38.1410611" lon="12.7385777"><ele>56.0</ele><time>2026-04-25T17:58:49.377Z</time></trkpt><trkpt lat="38.1409459" lon="12.73857"><ele>56.0</ele><time>2026-04-25T17:58:50.377Z</time></trkpt><trkpt lat="38.1408373" lon="12.7385833"><ele>56.0</ele><time>2026-04-25T17:58:51.376Z</time></trkpt><trkpt lat="38.1407327" lon="12.7386186"><ele>56.0</ele><time>2026-04-25T17:58:52.378Z</time></trkpt><trkpt lat="38.1406216" lon="12.7386785"><ele>56.0</ele><time>2026-04-25T17:58:53.378Z</time></trkpt><trkpt lat="38.1405034" lon="12.7387527"><ele>56.0</ele><time>2026-04-25T17:58:54.378Z</time></trkpt><trkpt lat="38.1403831" lon="12.738836"><ele>50.75</ele><time>2026-04-25T17:58:55.378Z</time></trkpt><trkpt lat="38.1402578" lon="12.7389196"><ele>45.5</ele><time>2026-04-25T17:58:56.378Z</time></trkpt><trkpt lat="38.1401334" lon="12.7390044"><ele>40.25</ele><time>2026-04-25T17:58:57.378Z</time></trkpt><trkpt lat="38.1400085" lon="12.7390926"><ele>35.0</ele><time>2026-04-25T17:58:58.377Z</time></trkpt><trkpt lat="38.1398858" lon="12.7391718"><ele>35.5</ele><time>2026-04-25T17:58:59.377Z</time></trkpt><trkpt lat="38.1397661" lon="12.7392514"><ele>36.0</ele><time>2026-04-25T17:59:00.378Z</time></trkpt><trkpt lat="38.139654" lon="12.7393239"><ele>36.5</ele><time>2026-04-25T17:59:01.377Z</time></trkpt><trkpt lat="38.1395362" lon="12.7393836"><ele>37.0</ele><time>2026-04-25T17:59:02.378Z</time></trkpt><trkpt lat="38.1394078" lon="12.7394284"><ele>37.0</ele><time>2026-04-25T17:59:03.378Z</time></trkpt><trkpt lat="38.1392652" lon="12.7394512"><ele>37.0</ele><time>2026-04-25T17:59:04.378Z</time></trkpt><trkpt lat="38.1391069" lon="12.7394584"><ele>37.0</ele><time>2026-04-25T17:59:05.379Z</time></trkpt><trkpt lat="38.1389308" lon="12.7394525"><ele>37.0</ele><time>2026-04-25T17:59:06.378Z</time></trkpt><trkpt lat="38.1387443" lon="12.7394179"><ele>37.0</ele><time>2026-04-25T17:59:07.377Z</time></trkpt><trkpt lat="38.1385616" lon="12.7393959"><ele>37.0</ele><time>2026-04-25T17:59:08.377Z</time></trkpt><trkpt lat="38.1383757" lon="12.739364"><ele>33.0</ele><time>2026-04-25T17:59:09.378Z</time></trkpt><trkpt lat="38.1381943" lon="12.7393122"><ele>29.0</ele><time>2026-04-25T17:59:10.377Z</time></trkpt><trkpt lat="38.1380189" lon="12.7392252"><ele>25.0</ele><time>2026-04-25T17:59:11.377Z</time></trkpt><trkpt lat="38.1378441" lon="12.7391165"><ele>25.0</ele><time>2026-04-25T17:59:12.378Z</time></trkpt><trkpt lat="38.1376853" lon="12.7389859"><ele>25.0</ele><time>2026-04-25T17:59:13.377Z</time></trkpt><trkpt lat="38.1375388" lon="12.7388435"><ele>25.0</ele><time>2026-04-25T17:59:14.378Z</time></trkpt><trkpt lat="38.1373931" lon="12.7386887"><ele>24.0</ele><time>2026-04-25T17:59:15.378Z</time></trkpt><trkpt lat="38.1372475" lon="12.7385281"><ele>23.0</ele><time>2026-04-25T17:59:16.377Z</time></trkpt><trkpt lat="38.1371107" lon="12.7383642"><ele>22.0</ele><time>2026-04-25T17:59:17.378Z</time></trkpt><trkpt lat="38.1369839" lon="12.7382088"><ele>22.0</ele><time>2026-04-25T17:59:18.378Z</time></trkpt><trkpt lat="38.1368675" lon="12.7380609"><ele>22.0</ele><time>2026-04-25T17:59:19.378Z</time></trkpt><trkpt lat="38.1367629" lon="12.7379309"><ele>22.0</ele><time>2026-04-25T17:59:20.377Z</time></trkpt><trkpt lat="38.1366641" lon="12.737817"><ele>22.0</ele><time>2026-04-25T17:59:21.378Z</time></trkpt><trkpt lat="38.1365762" lon="12.7377132"><ele>22.0</ele><time>2026-04-25T17:59:22.377Z</time></trkpt><trkpt lat="38.136487" lon="12.7376083"><ele>22.0</ele><time>2026-04-25T17:59:23.377Z</time></trkpt><trkpt lat="38.1364033" lon="12.7375059"><ele>22.0</ele><time>2026-04-25T17:59:24.377Z</time></trkpt><trkpt lat="38.1363153" lon="12.7374037"><ele>22.0</ele><time>2026-04-25T17:59:25.377Z</time></trkpt><trkpt lat="38.1362279" lon="12.7373013"><ele>22.0</ele><time>2026-04-25T17:59:26.377Z</time></trkpt><trkpt lat="38.1361468" lon="12.7371987"><ele>22.0</ele><time>2026-04-25T17:59:27.379Z</time></trkpt><trkpt lat="38.1360593" lon="12.7370903"><ele>22.0</ele><time>2026-04-25T17:59:28.377Z</time></trkpt><trkpt lat="38.1359714" lon="12.7369821"><ele>22.0</ele><time>2026-04-25T17:59:29.378Z</time></trkpt><trkpt lat="38.1358818" lon="12.7368802"><ele>21.5</ele><time>2026-04-25T17:59:30.378Z</time></trkpt><trkpt lat="38.135791" lon="12.7367769"><ele>21.0</ele><time>2026-04-25T17:59:31.377Z</time></trkpt><trkpt lat="38.1356959" lon="12.7366743"><ele>20.5</ele><time>2026-04-25T17:59:32.377Z</time></trkpt><trkpt lat="38.1355841" lon="12.7365612"><ele>20.0</ele><time>2026-04-25T17:59:33.377Z</time></trkpt><trkpt lat="38.1354664" lon="12.7364351"><ele>20.666666666666668</ele><time>2026-04-25T17:59:34.378Z</time></trkpt><trkpt lat="38.1353433" lon="12.7362907"><ele>21.333333333333332</ele><time>2026-04-25T17:59:35.378Z</time></trkpt><trkpt lat="38.1352172" lon="12.736132"><ele>22.0</ele><time>2026-04-25T17:59:36.377Z</time></trkpt><trkpt lat="38.1350885" lon="12.7359802"><ele>22.0</ele><time>2026-04-25T17:59:37.378Z</time></trkpt><trkpt lat="38.1349606" lon="12.7358265"><ele>22.0</ele><time>2026-04-25T17:59:38.378Z</time></trkpt><trkpt lat="38.1348338" lon="12.7356792"><ele>22.0</ele><time>2026-04-25T17:59:39.378Z</time></trkpt><trkpt lat="38.134708" lon="12.7355355"><ele>22.0</ele><time>2026-04-25T17:59:40.378Z</time></trkpt><trkpt lat="38.1345859" lon="12.7353932"><ele>22.0</ele><time>2026-04-25T17:59:41.377Z</time></trkpt><trkpt lat="38.1344656" lon="12.7352516"><ele>22.0</ele><time>2026-04-25T17:59:42.378Z</time></trkpt><trkpt lat="38.1343517" lon="12.7351214"><ele>22.0</ele><time>2026-04-25T17:59:43.378Z</time></trkpt><trkpt lat="38.1342422" lon="12.7349918"><ele>22.0</ele><time>2026-04-25T17:59:44.379Z</time></trkpt><trkpt lat="38.1341273" lon="12.7348612"><ele>22.0</ele><time>2026-04-25T17:59:45.378Z</time></trkpt><trkpt lat="38.1340152" lon="12.7347365"><ele>22.25</ele><time>2026-04-25T17:59:46.377Z</time></trkpt><trkpt lat="38.1339077" lon="12.7346195"><ele>22.5</ele><time>2026-04-25T17:59:47.378Z</time></trkpt><trkpt lat="38.133802" lon="12.7344959"><ele>22.75</ele><time>2026-04-25T17:59:48.377Z</time></trkpt><trkpt lat="38.1336942" lon="12.7343822"><ele>23.0</ele><time>2026-04-25T17:59:49.378Z</time></trkpt><trkpt lat="38.1335776" lon="12.7342674"><ele>23.0</ele><time>2026-04-25T17:59:50.378Z</time></trkpt><trkpt lat="38.1334399" lon="12.7341545"><ele>23.0</ele><time>2026-04-25T17:59:51.378Z</time></trkpt><trkpt lat="38.133306" lon="12.7340466"><ele>23.0</ele><time>2026-04-25T17:59:52.378Z</time></trkpt><trkpt lat="38.1331624" lon="12.7339494"><ele>24.333333333333336</ele><time>2026-04-25T17:59:53.378Z</time></trkpt><trkpt lat="38.1330112" lon="12.7338532"><ele>25.666666666666668</ele><time>2026-04-25T17:59:54.377Z</time></trkpt><trkpt lat="38.1328564" lon="12.7337511"><ele>27.0</ele><time>2026-04-25T17:59:55.378Z</time></trkpt><trkpt lat="38.1326924" lon="12.733658"><ele>27.0</ele><time>2026-04-25T17:59:56.378Z</time></trkpt><trkpt lat="38.1325293" lon="12.7335609"><ele>27.0</ele><time>2026-04-25T17:59:57.379Z</time></trkpt><trkpt lat="38.132371" lon="12.7334611"><ele>27.0</ele><time>2026-04-25T17:59:58.378Z</time></trkpt><trkpt lat="38.1322155" lon="12.7333673"><ele>26.333333333333336</ele><time>2026-04-25T17:59:59.377Z</time></trkpt><trkpt lat="38.1320645" lon="12.7332743"><ele>25.666666666666668</ele><time>2026-04-25T18:00:00.378Z</time></trkpt><trkpt lat="38.1319244" lon="12.7331849"><ele>25.0</ele><time>2026-04-25T18:00:01.378Z</time></trkpt><trkpt lat="38.131778" lon="12.7331006"><ele>25.0</ele><time>2026-04-25T18:00:02.378Z</time></trkpt><trkpt lat="38.1316243" lon="12.733027"><ele>25.0</ele><time>2026-04-25T18:00:03.378Z</time></trkpt><trkpt lat="38.1314737" lon="12.7329616"><ele>25.0</ele><time>2026-04-25T18:00:04.378Z</time></trkpt><trkpt lat="38.1313308" lon="12.7328998"><ele>25.5</ele><time>2026-04-25T18:00:05.377Z</time></trkpt><trkpt lat="38.1311914" lon="12.7328443"><ele>26.0</ele><time>2026-04-25T18:00:06.378Z</time></trkpt><trkpt lat="38.1310621" lon="12.7328027"><ele>26.5</ele><time>2026-04-25T18:00:07.378Z</time></trkpt><trkpt lat="38.1309293" lon="12.7327657"><ele>27.0</ele><time>2026-04-25T18:00:08.378Z</time></trkpt><trkpt lat="38.1307977" lon="12.7327241"><ele>26.0</ele><time>2026-04-25T18:00:09.378Z</time></trkpt><trkpt lat="38.1306522" lon="12.7326765"><ele>25.0</ele><time>2026-04-25T18:00:10.378Z</time></trkpt><trkpt lat="38.1305091" lon="12.73263"><ele>24.0</ele><time>2026-04-25T18:00:11.378Z</time></trkpt><trkpt lat="38.1303647" lon="12.7325837"><ele>23.0</ele><time>2026-04-25T18:00:12.377Z</time></trkpt><trkpt lat="38.130222" lon="12.7325472"><ele>23.0</ele><time>2026-04-25T18:00:13.378Z</time></trkpt><trkpt lat="38.1300809" lon="12.7325217"><ele>23.0</ele><time>2026-04-25T18:00:14.378Z</time></trkpt><trkpt lat="38.1299376" lon="12.7324987"><ele>23.0</ele><time>2026-04-25T18:00:15.378Z</time></trkpt><trkpt lat="38.1297876" lon="12.7324956"><ele>23.0</ele><time>2026-04-25T18:00:16.377Z</time></trkpt><trkpt lat="38.1296275" lon="12.7325087"><ele>22.333333333333336</ele><time>2026-04-25T18:00:17.378Z</time></trkpt><trkpt lat="38.129457" lon="12.7325276"><ele>21.666666666666668</ele><time>2026-04-25T18:00:18.379Z</time></trkpt><trkpt lat="38.1292703" lon="12.7325478"><ele>21.0</ele><time>2026-04-25T18:00:19.378Z</time></trkpt><trkpt lat="38.1290742" lon="12.7325719"><ele>20.333333333333332</ele><time>2026-04-25T18:00:20.379Z</time></trkpt><trkpt lat="38.1288646" lon="12.7325993"><ele>19.666666666666664</ele><time>2026-04-25T18:00:21.378Z</time></trkpt><trkpt lat="38.1286493" lon="12.732632"><ele>19.0</ele><time>2026-04-25T18:00:22.378Z</time></trkpt><trkpt lat="38.1284403" lon="12.7326562"><ele>18.5</ele><time>2026-04-25T18:00:23.379Z</time></trkpt><trkpt lat="38.1282166" lon="12.7326808"><ele>18.0</ele><time>2026-04-25T18:00:24.378Z</time></trkpt><trkpt lat="38.1279819" lon="12.7327072"><ele>20.0</ele><time>2026-04-25T18:00:25.379Z</time></trkpt><trkpt lat="38.1277339" lon="12.7327373"><ele>22.0</ele><time>2026-04-25T18:00:26.378Z</time></trkpt><trkpt lat="38.1274755" lon="12.732763"><ele>22.5</ele><time>2026-04-25T18:00:27.378Z</time></trkpt><trkpt lat="38.1272195" lon="12.7327891"><ele>23.0</ele><time>2026-04-25T18:00:28.379Z</time></trkpt><trkpt lat="38.1269701" lon="12.7328129"><ele>23.0</ele><time>2026-04-25T18:00:29.379Z</time></trkpt><trkpt lat="38.1267263" lon="12.7328446"><ele>23.0</ele><time>2026-04-25T18:00:30.378Z</time></trkpt><trkpt lat="38.1264867" lon="12.7328768"><ele>23.5</ele><time>2026-04-25T18:00:31.379Z</time></trkpt><trkpt lat="38.1262517" lon="12.7329072"><ele>24.0</ele><time>2026-04-25T18:00:32.378Z</time></trkpt><trkpt lat="38.1260038" lon="12.7329351"><ele>24.0</ele><time>2026-04-25T18:00:33.378Z</time></trkpt><trkpt lat="38.1257694" lon="12.7329601"><ele>24.0</ele><time>2026-04-25T18:00:34.377Z</time></trkpt><trkpt lat="38.1255421" lon="12.7329901"><ele>24.0</ele><time>2026-04-25T18:00:35.378Z</time></trkpt><trkpt lat="38.1253184" lon="12.7330191"><ele>24.0</ele><time>2026-04-25T18:00:36.378Z</time></trkpt><trkpt lat="38.1250932" lon="12.7330443"><ele>24.0</ele><time>2026-04-25T18:00:37.378Z</time></trkpt><trkpt lat="38.1248687" lon="12.7330662"><ele>24.0</ele><time>2026-04-25T18:00:38.378Z</time></trkpt><trkpt lat="38.1246453" lon="12.7330952"><ele>24.0</ele><time>2026-04-25T18:00:39.378Z</time></trkpt><trkpt lat="38.1244278" lon="12.7331275"><ele>24.0</ele><time>2026-04-25T18:00:40.378Z</time></trkpt><trkpt lat="38.1242112" lon="12.7331613"><ele>24.0</ele><time>2026-04-25T18:00:41.378Z</time></trkpt><trkpt lat="38.1239925" lon="12.7331925"><ele>24.333333333333336</ele><time>2026-04-25T18:00:42.378Z</time></trkpt><trkpt lat="38.123773" lon="12.7332212"><ele>24.666666666666668</ele><time>2026-04-25T18:00:43.377Z</time></trkpt><trkpt lat="38.1235554" lon="12.7332475"><ele>25.0</ele><time>2026-04-25T18:00:44.378Z</time></trkpt><trkpt lat="38.123343" lon="12.7332706"><ele>24.666666666666668</ele><time>2026-04-25T18:00:45.378Z</time></trkpt><trkpt lat="38.1231501" lon="12.7332894"><ele>24.333333333333336</ele><time>2026-04-25T18:00:46.378Z</time></trkpt><trkpt lat="38.1229601" lon="12.7333054"><ele>24.0</ele><time>2026-04-25T18:00:47.378Z</time></trkpt><trkpt lat="38.122787" lon="12.7333255"><ele>24.0</ele><time>2026-04-25T18:00:48.379Z</time></trkpt><trkpt lat="38.1226295" lon="12.7333472"><ele>24.0</ele><time>2026-04-25T18:00:49.378Z</time></trkpt><trkpt lat="38.1224815" lon="12.7333749"><ele>24.0</ele><time>2026-04-25T18:00:50.378Z</time></trkpt><trkpt lat="38.1223528" lon="12.7333941"><ele>24.0</ele><time>2026-04-25T18:00:51.377Z</time></trkpt><trkpt lat="38.1222301" lon="12.7334108"><ele>24.25</ele><time>2026-04-25T18:00:52.378Z</time></trkpt><trkpt lat="38.1221212" lon="12.7334286"><ele>24.5</ele><time>2026-04-25T18:00:53.379Z</time></trkpt><trkpt lat="38.1220014" lon="12.7334434"><ele>24.75</ele><time>2026-04-25T18:00:54.378Z</time></trkpt><trkpt lat="38.1218767" lon="12.7334527"><ele>25.0</ele><time>2026-04-25T18:00:55.378Z</time></trkpt><trkpt lat="38.121743" lon="12.7334549"><ele>25.0</ele><time>2026-04-25T18:00:56.378Z</time></trkpt><trkpt lat="38.1215852" lon="12.733465"><ele>25.0</ele><time>2026-04-25T18:00:57.377Z</time></trkpt><trkpt lat="38.1214134" lon="12.7334834"><ele>25.0</ele><time>2026-04-25T18:00:58.378Z</time></trkpt><trkpt lat="38.1212237" lon="12.7335066"><ele>24.666666666666668</ele><time>2026-04-25T18:00:59.378Z</time></trkpt><trkpt lat="38.1210274" lon="12.7335308"><ele>24.333333333333336</ele><time>2026-04-25T18:01:00.378Z</time></trkpt><trkpt lat="38.1208109" lon="12.7335501"><ele>24.0</ele><time>2026-04-25T18:01:01.379Z</time></trkpt><trkpt lat="38.120588" lon="12.7335836"><ele>25.333333333333336</ele><time>2026-04-25T18:01:02.378Z</time></trkpt><trkpt lat="38.1203731" lon="12.7336127"><ele>26.666666666666668</ele><time>2026-04-25T18:01:03.378Z</time></trkpt><trkpt lat="38.120155" lon="12.7336407"><ele>28.0</ele><time>2026-04-25T18:01:04.377Z</time></trkpt><trkpt lat="38.1199439" lon="12.7336713"><ele>28.333333333333336</ele><time>2026-04-25T18:01:05.378Z</time></trkpt><trkpt lat="38.1197411" lon="12.7336922"><ele>28.666666666666664</ele><time>2026-04-25T18:01:06.378Z</time></trkpt><trkpt lat="38.11955" lon="12.7337151"><ele>29.0</ele><time>2026-04-25T18:01:07.378Z</time></trkpt><trkpt lat="38.1193734" lon="12.7337365"><ele>29.0</ele><time>2026-04-25T18:01:08.378Z</time></trkpt><trkpt lat="38.1191883" lon="12.7337494"><ele>29.0</ele><time>2026-04-25T18:01:09.378Z</time></trkpt><trkpt lat="38.1190054" lon="12.7337741"><ele>29.0</ele><time>2026-04-25T18:01:10.378Z</time></trkpt><trkpt lat="38.1188136" lon="12.7338005"><ele>30.0</ele><time>2026-04-25T18:01:11.378Z</time></trkpt><trkpt lat="38.1186156" lon="12.73383"><ele>31.0</ele><time>2026-04-25T18:01:12.379Z</time></trkpt><trkpt lat="38.1184184" lon="12.7338611"><ele>32.0</ele><time>2026-04-25T18:01:13.379Z</time></trkpt><trkpt lat="38.1182093" lon="12.7338871"><ele>33.5</ele><time>2026-04-25T18:01:14.377Z</time></trkpt><trkpt lat="38.1179878" lon="12.7339074"><ele>35.0</ele><time>2026-04-25T18:01:15.379Z</time></trkpt><trkpt lat="38.1177538" lon="12.7339282"><ele>35.0</ele><time>2026-04-25T18:01:16.378Z</time></trkpt><trkpt lat="38.1175142" lon="12.7339533"><ele>35.0</ele><time>2026-04-25T18:01:17.377Z</time></trkpt><trkpt lat="38.1172746" lon="12.7339838"><ele>35.5</ele><time>2026-04-25T18:01:18.378Z</time></trkpt><trkpt lat="38.1170334" lon="12.7340127"><ele>36.0</ele><time>2026-04-25T18:01:19.378Z</time></trkpt><trkpt lat="38.1167951" lon="12.7340437"><ele>36.0</ele><time>2026-04-25T18:01:20.379Z</time></trkpt><trkpt lat="38.1165523" lon="12.7340733"><ele>36.0</ele><time>2026-04-25T18:01:21.378Z</time></trkpt><trkpt lat="38.1163089" lon="12.7341002"><ele>36.0</ele><time>2026-04-25T18:01:22.377Z</time></trkpt><trkpt lat="38.1160656" lon="12.7341294"><ele>36.0</ele><time>2026-04-25T18:01:23.379Z</time></trkpt><trkpt lat="38.1158263" lon="12.734157"><ele>37.0</ele><time>2026-04-25T18:01:24.378Z</time></trkpt><trkpt lat="38.1155896" lon="12.7341808"><ele>38.0</ele><time>2026-04-25T18:01:25.378Z</time></trkpt><trkpt lat="38.115354" lon="12.7342136"><ele>38.0</ele><time>2026-04-25T18:01:26.378Z</time></trkpt><trkpt lat="38.1151191" lon="12.7342404"><ele>38.0</ele><time>2026-04-25T18:01:27.378Z</time></trkpt><trkpt lat="38.1148842" lon="12.7342704"><ele>38.0</ele><time>2026-04-25T18:01:28.378Z</time></trkpt><trkpt lat="38.1146509" lon="12.7343015"><ele>38.0</ele><time>2026-04-25T18:01:29.377Z</time></trkpt><trkpt lat="38.1144186" lon="12.7343294"><ele>38.0</ele><time>2026-04-25T18:01:30.378Z</time></trkpt><trkpt lat="38.1141899" lon="12.7343619"><ele>38.0</ele><time>2026-04-25T18:01:31.378Z</time></trkpt><trkpt lat="38.1139584" lon="12.7343854"><ele>40.0</ele><time>2026-04-25T18:01:32.379Z</time></trkpt><trkpt lat="38.1137293" lon="12.7344174"><ele>42.0</ele><time>2026-04-25T18:01:33.378Z</time></trkpt><trkpt lat="38.1135055" lon="12.7344472"><ele>42.0</ele><time>2026-04-25T18:01:34.379Z</time></trkpt><trkpt lat="38.1132937" lon="12.7344715"><ele>42.0</ele><time>2026-04-25T18:01:35.379Z</time></trkpt><trkpt lat="38.1130948" lon="12.7344951"><ele>42.0</ele><time>2026-04-25T18:01:36.378Z</time></trkpt><trkpt lat="38.1129033" lon="12.7345204"><ele>42.666666666666664</ele><time>2026-04-25T18:01:37.378Z</time></trkpt><trkpt lat="38.112719" lon="12.7345473"><ele>43.33333333333333</ele><time>2026-04-25T18:01:38.377Z</time></trkpt><trkpt lat="38.1125431" lon="12.7345692"><ele>44.0</ele><time>2026-04-25T18:01:39.378Z</time></trkpt><trkpt lat="38.1123754" lon="12.7345919"><ele>44.0</ele><time>2026-04-25T18:01:40.378Z</time></trkpt><trkpt lat="38.1122143" lon="12.7346114"><ele>44.0</ele><time>2026-04-25T18:01:41.378Z</time></trkpt><trkpt lat="38.1120649" lon="12.7346328"><ele>44.0</ele><time>2026-04-25T18:01:42.378Z</time></trkpt><trkpt lat="38.1119346" lon="12.734646"><ele>44.0</ele><time>2026-04-25T18:01:43.378Z</time></trkpt><trkpt lat="38.1118216" lon="12.7346578"><ele>44.0</ele><time>2026-04-25T18:01:44.378Z</time></trkpt><trkpt lat="38.1117233" lon="12.7346663"><ele>44.0</ele><time>2026-04-25T18:01:45.378Z</time></trkpt><trkpt lat="38.1116298" lon="12.7346788"><ele>44.0</ele><time>2026-04-25T18:01:46.377Z</time></trkpt><trkpt lat="38.1115331" lon="12.7346909"><ele>44.0</ele><time>2026-04-25T18:01:47.378Z</time></trkpt><trkpt lat="38.1114205" lon="12.7347141"><ele>44.0</ele><time>2026-04-25T18:01:48.378Z</time></trkpt><trkpt lat="38.1112966" lon="12.7347316"><ele>44.25</ele><time>2026-04-25T18:01:49.378Z</time></trkpt><trkpt lat="38.1111627" lon="12.734752"><ele>44.5</ele><time>2026-04-25T18:01:50.379Z</time></trkpt><trkpt lat="38.1110257" lon="12.7347695"><ele>44.75</ele><time>2026-04-25T18:01:51.378Z</time></trkpt><trkpt lat="38.1108857" lon="12.7347821"><ele>45.0</ele><time>2026-04-25T18:01:52.378Z</time></trkpt><trkpt lat="38.110743" lon="12.7347986"><ele>45.5</ele><time>2026-04-25T18:01:53.378Z</time></trkpt><trkpt lat="38.1106059" lon="12.7348178"><ele>46.0</ele><time>2026-04-25T18:01:54.378Z</time></trkpt><trkpt lat="38.1104745" lon="12.7348324"><ele>46.5</ele><time>2026-04-25T18:01:55.378Z</time></trkpt><trkpt lat="38.1103514" lon="12.73484"><ele>47.0</ele><time>2026-04-25T18:01:56.378Z</time></trkpt><trkpt lat="38.1102362" lon="12.7348493"><ele>47.0</ele><time>2026-04-25T18:01:57.378Z</time></trkpt><trkpt lat="38.1101221" lon="12.7348665"><ele>47.0</ele><time>2026-04-25T18:01:58.379Z</time></trkpt><trkpt lat="38.1100191" lon="12.7348682"><ele>47.0</ele><time>2026-04-25T18:01:59.378Z</time></trkpt><trkpt lat="38.1099169" lon="12.7348812"><ele>47.0</ele><time>2026-04-25T18:02:00.378Z</time></trkpt><trkpt lat="38.1098253" lon="12.7348873"><ele>47.0</ele><time>2026-04-25T18:02:01.379Z</time></trkpt><trkpt lat="38.1097277" lon="12.7348998"><ele>47.0</ele><time>2026-04-25T18:02:02.379Z</time></trkpt><trkpt lat="38.1096198" lon="12.7349145"><ele>47.0</ele><time>2026-04-25T18:02:03.378Z</time></trkpt><trkpt lat="38.109503" lon="12.7349307"><ele>47.0</ele><time>2026-04-25T18:02:04.379Z</time></trkpt><trkpt lat="38.109376" lon="12.7349546"><ele>47.0</ele><time>2026-04-25T18:02:05.377Z</time></trkpt><trkpt lat="38.109244" lon="12.734969"><ele>47.0</ele><time>2026-04-25T18:02:06.378Z</time></trkpt><trkpt lat="38.1091063" lon="12.7349883"><ele>47.0</ele><time>2026-04-25T18:02:07.378Z</time></trkpt><trkpt lat="38.1089664" lon="12.7350081"><ele>47.0</ele><time>2026-04-25T18:02:08.378Z</time></trkpt><trkpt lat="38.1088172" lon="12.7350309"><ele>47.0</ele><time>2026-04-25T18:02:09.378Z</time></trkpt><trkpt lat="38.1086639" lon="12.7350597"><ele>47.33333333333333</ele><time>2026-04-25T18:02:10.38Z</time></trkpt><trkpt lat="38.1085125" lon="12.7350826"><ele>47.666666666666664</ele><time>2026-04-25T18:02:11.378Z</time></trkpt><trkpt lat="38.1083579" lon="12.7350961"><ele>48.0</ele><time>2026-04-25T18:02:12.378Z</time></trkpt><trkpt lat="38.1082146" lon="12.7351096"><ele>48.25</ele><time>2026-04-25T18:02:13.378Z</time></trkpt><trkpt lat="38.1080707" lon="12.7351178"><ele>48.5</ele><time>2026-04-25T18:02:14.38Z</time></trkpt><trkpt lat="38.1079294" lon="12.7351122"><ele>48.75</ele><time>2026-04-25T18:02:15.38Z</time></trkpt><trkpt lat="38.1077876" lon="12.735111"><ele>49.0</ele><time>2026-04-25T18:02:16.378Z</time></trkpt><trkpt lat="38.1076348" lon="12.7351042"><ele>49.0</ele><time>2026-04-25T18:02:17.379Z</time></trkpt><trkpt lat="38.1074852" lon="12.7350947"><ele>49.0</ele><time>2026-04-25T18:02:18.378Z</time></trkpt><trkpt lat="38.107341" lon="12.7350751"><ele>49.0</ele><time>2026-04-25T18:02:19.378Z</time></trkpt><trkpt lat="38.107204" lon="12.7350532"><ele>49.0</ele><time>2026-04-25T18:02:20.379Z</time></trkpt><trkpt lat="38.1070721" lon="12.7350296"><ele>50.0</ele><time>2026-04-25T18:02:21.379Z</time></trkpt><trkpt lat="38.1069445" lon="12.7350087"><ele>51.0</ele><time>2026-04-25T18:02:22.378Z</time></trkpt><trkpt lat="38.1068231" lon="12.7349965"><ele>52.0</ele><time>2026-04-25T18:02:23.378Z</time></trkpt><trkpt lat="38.106716" lon="12.7349826"><ele>53.0</ele><time>2026-04-25T18:02:24.377Z</time></trkpt><trkpt lat="38.1066104" lon="12.7349756"><ele>53.2</ele><time>2026-04-25T18:02:25.378Z</time></trkpt><trkpt lat="38.1065135" lon="12.7349633"><ele>53.4</ele><time>2026-04-25T18:02:26.378Z</time></trkpt><trkpt lat="38.1064301" lon="12.7349533"><ele>53.60000000000001</ele><time>2026-04-25T18:02:27.378Z</time></trkpt><trkpt lat="38.1063422" lon="12.7349467"><ele>53.800000000000004</ele><time>2026-04-25T18:02:28.378Z</time></trkpt><trkpt lat="38.1062413" lon="12.7349513"><ele>54.0</ele><time>2026-04-25T18:02:29.378Z</time></trkpt><trkpt lat="38.106122" lon="12.73495"><ele>54.0</ele><time>2026-04-25T18:02:30.379Z</time></trkpt><trkpt lat="38.1059884" lon="12.7349513"><ele>54.0</ele><time>2026-04-25T18:02:31.377Z</time></trkpt><trkpt lat="38.1058422" lon="12.7349643"><ele>54.0</ele><time>2026-04-25T18:02:32.379Z</time></trkpt><trkpt lat="38.1056884" lon="12.734979"><ele>54.0</ele><time>2026-04-25T18:02:33.38Z</time></trkpt><trkpt lat="38.1055335" lon="12.7349933"><ele>54.33333333333333</ele><time>2026-04-25T18:02:34.378Z</time></trkpt><trkpt lat="38.1053753" lon="12.7350058"><ele>54.666666666666664</ele><time>2026-04-25T18:02:35.379Z</time></trkpt><trkpt lat="38.1052163" lon="12.7350232"><ele>55.0</ele><time>2026-04-25T18:02:36.377Z</time></trkpt><trkpt lat="38.1050554" lon="12.7350381"><ele>55.5</ele><time>2026-04-25T18:02:37.379Z</time></trkpt><trkpt lat="38.1048999" lon="12.735058"><ele>56.0</ele><time>2026-04-25T18:02:38.379Z</time></trkpt><trkpt lat="38.1047551" lon="12.7350728"><ele>56.5</ele><time>2026-04-25T18:02:39.378Z</time></trkpt><trkpt lat="38.1046176" lon="12.7350879"><ele>57.0</ele><time>2026-04-25T18:02:40.379Z</time></trkpt><trkpt lat="38.1044918" lon="12.7350959"><ele>57.0</ele><time>2026-04-25T18:02:41.378Z</time></trkpt><trkpt lat="38.1043728" lon="12.7350963"><ele>57.0</ele><time>2026-04-25T18:02:42.378Z</time></trkpt><trkpt lat="38.1042568" lon="12.7351094"><ele>57.0</ele><time>2026-04-25T18:02:43.379Z</time></trkpt><trkpt lat="38.1041385" lon="12.7351248"><ele>57.0</ele><time>2026-04-25T18:02:44.379Z</time></trkpt><trkpt lat="38.1040142" lon="12.7351392"><ele>57.8</ele><time>2026-04-25T18:02:45.378Z</time></trkpt><trkpt lat="38.1038963" lon="12.7351541"><ele>58.6</ele><time>2026-04-25T18:02:46.377Z</time></trkpt><trkpt lat="38.1037841" lon="12.7351704"><ele>59.39999999999999</ele><time>2026-04-25T18:02:47.378Z</time></trkpt><trkpt lat="38.1036761" lon="12.7351772"><ele>60.199999999999996</ele><time>2026-04-25T18:02:48.378Z</time></trkpt><trkpt lat="38.1035869" lon="12.7351842"><ele>61.0</ele><time>2026-04-25T18:02:49.379Z</time></trkpt><trkpt lat="38.1035099" lon="12.7352003"><ele>61.0</ele><time>2026-04-25T18:02:50.379Z</time></trkpt><trkpt lat="38.1034348" lon="12.7352104"><ele>60.99999999999999</ele><time>2026-04-25T18:02:51.378Z</time></trkpt><trkpt lat="38.1033514" lon="12.7352165"><ele>60.99999999999999</ele><time>2026-04-25T18:02:52.38Z</time></trkpt><trkpt lat="38.1032596" lon="12.7352302"><ele>61.0</ele><time>2026-04-25T18:02:53.378Z</time></trkpt><trkpt lat="38.1031595" lon="12.7352481"><ele>61.0</ele><time>2026-04-25T18:02:54.379Z</time></trkpt><trkpt lat="38.1030468" lon="12.7352698"><ele>61.5</ele><time>2026-04-25T18:02:55.378Z</time></trkpt><trkpt lat="38.1029174" lon="12.7352845"><ele>62.0</ele><time>2026-04-25T18:02:56.379Z</time></trkpt><trkpt lat="38.1027906" lon="12.7352967"><ele>62.5</ele><time>2026-04-25T18:02:57.379Z</time></trkpt><trkpt lat="38.1026631" lon="12.7353114"><ele>63.0</ele><time>2026-04-25T18:02:58.379Z</time></trkpt><trkpt lat="38.1025464" lon="12.7353219"><ele>63.0</ele><time>2026-04-25T18:02:59.379Z</time></trkpt><trkpt lat="38.1024541" lon="12.7353271"><ele>63.0</ele><time>2026-04-25T18:03:00.378Z</time></trkpt><trkpt lat="38.1023747" lon="12.7353348"><ele>63.0</ele><time>2026-04-25T18:03:01.379Z</time></trkpt><trkpt lat="38.10231" lon="12.7353352"><ele>63.0</ele><time>2026-04-25T18:03:02.379Z</time></trkpt><trkpt lat="38.1021792" lon="12.735345"><ele>63.0</ele><time>2026-04-25T18:03:04.378Z</time></trkpt><trkpt lat="38.102114" lon="12.7353511"><ele>63.0</ele><time>2026-04-25T18:03:05.379Z</time></trkpt><trkpt lat="38.1020424" lon="12.7353567"><ele>63.5</ele><time>2026-04-25T18:03:06.379Z</time></trkpt><trkpt lat="38.1019722" lon="12.7353661"><ele>64.0</ele><time>2026-04-25T18:03:07.378Z</time></trkpt><trkpt lat="38.1019059" lon="12.7353722"><ele>64.5</ele><time>2026-04-25T18:03:08.379Z</time></trkpt><trkpt lat="38.1017993" lon="12.7353896"><ele>65.0</ele><time>2026-04-25T18:03:10.379Z</time></trkpt><trkpt lat="38.1017157" lon="12.7354104"><ele>65.5</ele><time>2026-04-25T18:03:12.379Z</time></trkpt><trkpt lat="38.101647" lon="12.7354364"><ele>66.0</ele><time>2026-04-25T18:03:14.379Z</time></trkpt><trkpt lat="38.1015585" lon="12.7354515"><ele>66.66666666666667</ele><time>2026-04-25T18:03:16.379Z</time></trkpt><trkpt lat="38.1014747" lon="12.7354275"><ele>67.33333333333333</ele><time>2026-04-25T18:03:18.379Z</time></trkpt><trkpt lat="38.1013823" lon="12.7354388"><ele>68.0</ele><time>2026-04-25T18:03:20.379Z</time></trkpt><trkpt lat="38.1013317" lon="12.7354892"><ele>68.66666666666666</ele><time>2026-04-25T18:03:21.378Z</time></trkpt><trkpt lat="38.1012833" lon="12.7355503"><ele>69.33333333333333</ele><time>2026-04-25T18:03:22.378Z</time></trkpt><trkpt lat="38.1012349" lon="12.7356213"><ele>70.0</ele><time>2026-04-25T18:03:23.379Z</time></trkpt><trkpt lat="38.1011786" lon="12.7356912"><ele>70.0</ele><time>2026-04-25T18:03:24.379Z</time></trkpt><trkpt lat="38.1011253" lon="12.735762"><ele>70.0</ele><time>2026-04-25T18:03:25.379Z</time></trkpt><trkpt lat="38.1010734" lon="12.7358276"><ele>70.0</ele><time>2026-04-25T18:03:26.378Z</time></trkpt><trkpt lat="38.1010147" lon="12.7358969"><ele>70.0</ele><time>2026-04-25T18:03:27.378Z</time></trkpt><trkpt lat="38.1009514" lon="12.7359641"><ele>70.0</ele><time>2026-04-25T18:03:28.379Z</time></trkpt><trkpt lat="38.1008967" lon="12.7360282"><ele>70.0</ele><time>2026-04-25T18:03:29.379Z</time></trkpt><trkpt lat="38.1008394" lon="12.7360992"><ele>69.8</ele><time>2026-04-25T18:03:30.379Z</time></trkpt><trkpt lat="38.1007789" lon="12.7361832"><ele>69.6</ele><time>2026-04-25T18:03:31.379Z</time></trkpt><trkpt lat="38.1007129" lon="12.7362802"><ele>69.4</ele><time>2026-04-25T18:03:32.378Z</time></trkpt><trkpt lat="38.1006372" lon="12.7363803"><ele>69.2</ele><time>2026-04-25T18:03:33.379Z</time></trkpt><trkpt lat="38.100558" lon="12.7364704"><ele>69.0</ele><time>2026-04-25T18:03:34.378Z</time></trkpt><trkpt lat="38.1004834" lon="12.7365613"><ele>69.66666666666667</ele><time>2026-04-25T18:03:35.378Z</time></trkpt><trkpt lat="38.1004192" lon="12.7366312"><ele>70.33333333333333</ele><time>2026-04-25T18:03:36.378Z</time></trkpt><trkpt lat="38.1003562" lon="12.7367001"><ele>71.0</ele><time>2026-04-25T18:03:37.378Z</time></trkpt><trkpt lat="38.1003007" lon="12.7367597"><ele>71.66666666666666</ele><time>2026-04-25T18:03:38.379Z</time></trkpt><trkpt lat="38.1002466" lon="12.7368171"><ele>72.33333333333333</ele><time>2026-04-25T18:03:39.379Z</time></trkpt><trkpt lat="38.1001947" lon="12.7368792"><ele>73.0</ele><time>2026-04-25T18:03:40.379Z</time></trkpt><trkpt lat="38.1001399" lon="12.7369517"><ele>73.0</ele><time>2026-04-25T18:03:41.378Z</time></trkpt><trkpt lat="38.1000785" lon="12.7370309"><ele>73.0</ele><time>2026-04-25T18:03:42.378Z</time></trkpt><trkpt lat="38.100006" lon="12.7371152"><ele>73.0</ele><time>2026-04-25T18:03:43.379Z</time></trkpt><trkpt lat="38.099931" lon="12.7372016"><ele>73.0</ele><time>2026-04-25T18:03:44.379Z</time></trkpt><trkpt lat="38.0998518" lon="12.7373048"><ele>73.0</ele><time>2026-04-25T18:03:45.38Z</time></trkpt><trkpt lat="38.0997604" lon="12.7374231"><ele>74.0</ele><time>2026-04-25T18:03:46.379Z</time></trkpt><trkpt lat="38.0996567" lon="12.737547"><ele>75.0</ele><time>2026-04-25T18:03:47.379Z</time></trkpt><trkpt lat="38.0995413" lon="12.7376725"><ele>76.0</ele><time>2026-04-25T18:03:48.379Z</time></trkpt><trkpt lat="38.0994191" lon="12.7377992"><ele>76.33333333333333</ele><time>2026-04-25T18:03:49.379Z</time></trkpt><trkpt lat="38.0992954" lon="12.7379347"><ele>76.66666666666667</ele><time>2026-04-25T18:03:50.379Z</time></trkpt><trkpt lat="38.0991829" lon="12.7380691"><ele>77.0</ele><time>2026-04-25T18:03:51.379Z</time></trkpt><trkpt lat="38.0990678" lon="12.7382074"><ele>77.5</ele><time>2026-04-25T18:03:52.379Z</time></trkpt><trkpt lat="38.0989671" lon="12.7383392"><ele>78.0</ele><time>2026-04-25T18:03:53.379Z</time></trkpt><trkpt lat="38.0988655" lon="12.7384657"><ele>78.5</ele><time>2026-04-25T18:03:54.378Z</time></trkpt><trkpt lat="38.0987718" lon="12.7385861"><ele>79.0</ele><time>2026-04-25T18:03:55.38Z</time></trkpt><trkpt lat="38.098672" lon="12.7387059"><ele>79.5</ele><time>2026-04-25T18:03:56.378Z</time></trkpt><trkpt lat="38.0985714" lon="12.7388334"><ele>80.0</ele><time>2026-04-25T18:03:57.379Z</time></trkpt><trkpt lat="38.0984633" lon="12.7389558"><ele>80.5</ele><time>2026-04-25T18:03:58.378Z</time></trkpt><trkpt lat="38.0983485" lon="12.7390916"><ele>81.0</ele><time>2026-04-25T18:03:59.379Z</time></trkpt><trkpt lat="38.0982293" lon="12.7392295"><ele>82.33333333333333</ele><time>2026-04-25T18:04:00.379Z</time></trkpt><trkpt lat="38.0981104" lon="12.7393709"><ele>83.66666666666666</ele><time>2026-04-25T18:04:01.379Z</time></trkpt><trkpt lat="38.0979922" lon="12.7395118"><ele>85.0</ele><time>2026-04-25T18:04:02.378Z</time></trkpt><trkpt lat="38.0978801" lon="12.7396502"><ele>85.33333333333333</ele><time>2026-04-25T18:04:03.38Z</time></trkpt><trkpt lat="38.0977656" lon="12.7397922"><ele>85.66666666666667</ele><time>2026-04-25T18:04:04.379Z</time></trkpt><trkpt lat="38.0976572" lon="12.7399231"><ele>86.0</ele><time>2026-04-25T18:04:05.379Z</time></trkpt><trkpt lat="38.0975498" lon="12.7400468"><ele>86.0</ele><time>2026-04-25T18:04:06.379Z</time></trkpt><trkpt lat="38.0974454" lon="12.7401758"><ele>86.0</ele><time>2026-04-25T18:04:07.379Z</time></trkpt><trkpt lat="38.097243" lon="12.740423"><ele>86.0</ele><time>2026-04-25T18:04:09.379Z</time></trkpt><trkpt lat="38.0971446" lon="12.7405396"><ele>87.5</ele><time>2026-04-25T18:04:10.378Z</time></trkpt><trkpt lat="38.0970507" lon="12.7406682"><ele>89.0</ele><time>2026-04-25T18:04:11.379Z</time></trkpt><trkpt lat="38.0969507" lon="12.7408017"><ele>90.5</ele><time>2026-04-25T18:04:12.379Z</time></trkpt><trkpt lat="38.0968448" lon="12.7409309"><ele>92.0</ele><time>2026-04-25T18:04:13.379Z</time></trkpt><trkpt lat="38.096743" lon="12.7410511"><ele>92.0</ele><time>2026-04-25T18:04:14.379Z</time></trkpt><trkpt lat="38.096641" lon="12.7411624"><ele>92.0</ele><time>2026-04-25T18:04:15.379Z</time></trkpt><trkpt lat="38.0965444" lon="12.7412785"><ele>92.0</ele><time>2026-04-25T18:04:16.379Z</time></trkpt><trkpt lat="38.0964461" lon="12.741403"><ele>92.0</ele><time>2026-04-25T18:04:17.379Z</time></trkpt><trkpt lat="38.0963475" lon="12.741536"><ele>93.33333333333334</ele><time>2026-04-25T18:04:18.379Z</time></trkpt><trkpt lat="38.0962411" lon="12.7416649"><ele>94.66666666666667</ele><time>2026-04-25T18:04:19.377Z</time></trkpt><trkpt lat="38.0961314" lon="12.7417965"><ele>96.0</ele><time>2026-04-25T18:04:20.38Z</time></trkpt><trkpt lat="38.0960192" lon="12.7419282"><ele>96.66666666666666</ele><time>2026-04-25T18:04:21.378Z</time></trkpt><trkpt lat="38.0959036" lon="12.7420593"><ele>97.33333333333333</ele><time>2026-04-25T18:04:22.378Z</time></trkpt><trkpt lat="38.0957946" lon="12.742189"><ele>98.0</ele><time>2026-04-25T18:04:23.379Z</time></trkpt><trkpt lat="38.0956883" lon="12.7423231"><ele>98.66666666666666</ele><time>2026-04-25T18:04:24.378Z</time></trkpt><trkpt lat="38.0955831" lon="12.7424617"><ele>99.33333333333334</ele><time>2026-04-25T18:04:25.379Z</time></trkpt><trkpt lat="38.0954691" lon="12.742598"><ele>100.0</ele><time>2026-04-25T18:04:26.378Z</time></trkpt><trkpt lat="38.0953539" lon="12.7427277"><ele>100.75</ele><time>2026-04-25T18:04:27.38Z</time></trkpt><trkpt lat="38.0952373" lon="12.7428609"><ele>101.5</ele><time>2026-04-25T18:04:28.379Z</time></trkpt><trkpt lat="38.0951261" lon="12.7429875"><ele>102.25</ele><time>2026-04-25T18:04:29.379Z</time></trkpt><trkpt lat="38.0950225" lon="12.7431133"><ele>103.0</ele><time>2026-04-25T18:04:30.379Z</time></trkpt><trkpt lat="38.0949237" lon="12.7432382"><ele>103.5</ele><time>2026-04-25T18:04:31.379Z</time></trkpt><trkpt lat="38.0948304" lon="12.7433516"><ele>104.0</ele><time>2026-04-25T18:04:32.379Z</time></trkpt><trkpt lat="38.094734" lon="12.7434685"><ele>104.5</ele><time>2026-04-25T18:04:33.379Z</time></trkpt><trkpt lat="38.0946357" lon="12.7435899"><ele>105.0</ele><time>2026-04-25T18:04:34.379Z</time></trkpt><trkpt lat="38.0945259" lon="12.7437109"><ele>105.33333333333334</ele><time>2026-04-25T18:04:35.379Z</time></trkpt><trkpt lat="38.0944084" lon="12.7438405"><ele>105.66666666666667</ele><time>2026-04-25T18:04:36.379Z</time></trkpt><trkpt lat="38.0942853" lon="12.743987"><ele>106.0</ele><time>2026-04-25T18:04:37.379Z</time></trkpt><trkpt lat="38.0941637" lon="12.7441256"><ele>107.0</ele><time>2026-04-25T18:04:38.379Z</time></trkpt><trkpt lat="38.0940463" lon="12.7442605"><ele>108.0</ele><time>2026-04-25T18:04:39.379Z</time></trkpt><trkpt lat="38.0939308" lon="12.7443963"><ele>109.0</ele><time>2026-04-25T18:04:40.379Z</time></trkpt><trkpt lat="38.093815" lon="12.7445225"><ele>110.0</ele><time>2026-04-25T18:04:41.379Z</time></trkpt><trkpt lat="38.0936051" lon="12.7447625"><ele>111.0</ele><time>2026-04-25T18:04:43.379Z</time></trkpt><trkpt lat="38.0934992" lon="12.744872"><ele>112.0</ele><time>2026-04-25T18:04:44.379Z</time></trkpt><trkpt lat="38.0933925" lon="12.7449837"><ele>112.0</ele><time>2026-04-25T18:04:45.379Z</time></trkpt><trkpt lat="38.0932878" lon="12.745105"><ele>112.0</ele><time>2026-04-25T18:04:46.379Z</time></trkpt><trkpt lat="38.0931846" lon="12.7452255"><ele>112.0</ele><time>2026-04-25T18:04:47.379Z</time></trkpt><trkpt lat="38.0930766" lon="12.7453541"><ele>112.0</ele><time>2026-04-25T18:04:48.379Z</time></trkpt><trkpt lat="38.0929709" lon="12.745485"><ele>113.25</ele><time>2026-04-25T18:04:49.379Z</time></trkpt><trkpt lat="38.0928683" lon="12.7456179"><ele>114.5</ele><time>2026-04-25T18:04:50.379Z</time></trkpt><trkpt lat="38.0927796" lon="12.745762"><ele>115.75</ele><time>2026-04-25T18:04:51.379Z</time></trkpt><trkpt lat="38.0927012" lon="12.7459021"><ele>117.0</ele><time>2026-04-25T18:04:52.379Z</time></trkpt><trkpt lat="38.0926366" lon="12.7460325"><ele>118.33333333333334</ele><time>2026-04-25T18:04:53.379Z</time></trkpt><trkpt lat="38.0925782" lon="12.7461523"><ele>119.66666666666667</ele><time>2026-04-25T18:04:54.38Z</time></trkpt><trkpt lat="38.0924444" lon="12.7464167"><ele>121.0</ele><time>2026-04-25T18:04:56.38Z</time></trkpt><trkpt lat="38.0923729" lon="12.7465614"><ele>121.0</ele><time>2026-04-25T18:04:57.379Z</time></trkpt><trkpt lat="38.092298" lon="12.7467136"><ele>121.0</ele><time>2026-04-25T18:04:58.379Z</time></trkpt><trkpt lat="38.092222" lon="12.7468681"><ele>121.0</ele><time>2026-04-25T18:04:59.378Z</time></trkpt><trkpt lat="38.0921471" lon="12.7470237"><ele>121.0</ele><time>2026-04-25T18:05:00.379Z</time></trkpt><trkpt lat="38.0920738" lon="12.7471784"><ele>122.25</ele><time>2026-04-25T18:05:01.378Z</time></trkpt><trkpt lat="38.091998" lon="12.7473291"><ele>123.5</ele><time>2026-04-25T18:05:02.379Z</time></trkpt><trkpt lat="38.0919332" lon="12.7474708"><ele>124.75</ele><time>2026-04-25T18:05:03.38Z</time></trkpt><trkpt lat="38.091872" lon="12.7476085"><ele>126.0</ele><time>2026-04-25T18:05:04.379Z</time></trkpt><trkpt lat="38.0918142" lon="12.7477452"><ele>126.5</ele><time>2026-04-25T18:05:05.379Z</time></trkpt><trkpt lat="38.0917515" lon="12.7478815"><ele>127.0</ele><time>2026-04-25T18:05:06.379Z</time></trkpt><trkpt lat="38.0916884" lon="12.7480216"><ele>127.5</ele><time>2026-04-25T18:05:07.379Z</time></trkpt><trkpt lat="38.0916197" lon="12.7481742"><ele>128.0</ele><time>2026-04-25T18:05:08.379Z</time></trkpt><trkpt lat="38.0915453" lon="12.7483363"><ele>128.0</ele><time>2026-04-25T18:05:09.379Z</time></trkpt><trkpt lat="38.091468" lon="12.7485088"><ele>128.0</ele><time>2026-04-25T18:05:10.379Z</time></trkpt><trkpt lat="38.0913936" lon="12.74869"><ele>128.0</ele><time>2026-04-25T18:05:11.38Z</time></trkpt><trkpt lat="38.0913169" lon="12.7488904"><ele>129.66666666666666</ele><time>2026-04-25T18:05:12.379Z</time></trkpt><trkpt lat="38.091236" lon="12.7491065"><ele>131.33333333333334</ele><time>2026-04-25T18:05:13.379Z</time></trkpt><trkpt lat="38.091155" lon="12.7493696"><ele>133.0</ele><time>2026-04-25T18:05:14.38Z</time></trkpt><trkpt lat="38.0910561" lon="12.7496666"><ele>137.0</ele><time>2026-04-25T18:05:15.379Z</time></trkpt><trkpt lat="38.0909486" lon="12.7499828"><ele>141.0</ele><time>2026-04-25T18:05:16.379Z</time></trkpt><trkpt lat="38.0908289" lon="12.7503145"><ele>141.0</ele><time>2026-04-25T18:05:17.379Z</time></trkpt><trkpt lat="38.0906918" lon="12.7506109"><ele>141.0</ele><time>2026-04-25T18:05:18.379Z</time></trkpt><trkpt lat="38.0905322" lon="12.7508992"><ele>148.5</ele><time>2026-04-25T18:05:19.379Z</time></trkpt><trkpt lat="38.0903501" lon="12.7511646"><ele>156.0</ele><time>2026-04-25T18:05:20.379Z</time></trkpt><trkpt lat="38.0901439" lon="12.7514142"><ele>152.5</ele><time>2026-04-25T18:05:21.379Z</time></trkpt><trkpt lat="38.0899115" lon="12.751664"><ele>149.0</ele><time>2026-04-25T18:05:22.379Z</time></trkpt><trkpt lat="38.0896668" lon="12.7519097"><ele>159.5</ele><time>2026-04-25T18:05:23.379Z</time></trkpt><trkpt lat="38.0894131" lon="12.752149"><ele>170.0</ele><time>2026-04-25T18:05:24.378Z</time></trkpt><trkpt lat="38.0891642" lon="12.7523928"><ele>174.5</ele><time>2026-04-25T18:05:25.378Z</time></trkpt><trkpt lat="38.0889198" lon="12.7526274"><ele>179.0</ele><time>2026-04-25T18:05:26.38Z</time></trkpt><trkpt lat="38.0886831" lon="12.7528522"><ele>179.0</ele><time>2026-04-25T18:05:27.381Z</time></trkpt><trkpt lat="38.0884448" lon="12.7530656"><ele>179.0</ele><time>2026-04-25T18:05:28.381Z</time></trkpt><trkpt lat="38.0882052" lon="12.7532728"><ele>182.5</ele><time>2026-04-25T18:05:29.379Z</time></trkpt><trkpt lat="38.0879595" lon="12.753466"><ele>186.0</ele><time>2026-04-25T18:05:30.379Z</time></trkpt><trkpt lat="38.0877133" lon="12.7536401"><ele>186.0</ele><time>2026-04-25T18:05:31.379Z</time></trkpt><trkpt lat="38.0874566" lon="12.7538052"><ele>186.0</ele><time>2026-04-25T18:05:32.38Z</time></trkpt><trkpt lat="38.0871965" lon="12.7539648"><ele>181.0</ele><time>2026-04-25T18:05:33.379Z</time></trkpt><trkpt lat="38.0869387" lon="12.7541075"><ele>176.0</ele><time>2026-04-25T18:05:34.379Z</time></trkpt><trkpt lat="38.0866874" lon="12.7542349"><ele>172.0</ele><time>2026-04-25T18:05:35.379Z</time></trkpt><trkpt lat="38.0864291" lon="12.7543466"><ele>168.0</ele><time>2026-04-25T18:05:36.38Z</time></trkpt><trkpt lat="38.0861724" lon="12.7544447"><ele>173.5</ele><time>2026-04-25T18:05:37.381Z</time></trkpt><trkpt lat="38.0859167" lon="12.7545466"><ele>179.0</ele><time>2026-04-25T18:05:38.378Z</time></trkpt><trkpt lat="38.0856565" lon="12.7546429"><ele>179.0</ele><time>2026-04-25T18:05:39.378Z</time></trkpt><trkpt lat="38.0854026" lon="12.7547283"><ele>179.0</ele><time>2026-04-25T18:05:40.379Z</time></trkpt><trkpt lat="38.0851513" lon="12.7548146"><ele>178.0</ele><time>2026-04-25T18:05:41.379Z</time></trkpt><trkpt lat="38.0849117" lon="12.7548946"><ele>177.0</ele><time>2026-04-25T18:05:42.38Z</time></trkpt><trkpt lat="38.084679" lon="12.7549807"><ele>177.0</ele><time>2026-04-25T18:05:43.38Z</time></trkpt><trkpt lat="38.0844514" lon="12.7550582"><ele>177.0</ele><time>2026-04-25T18:05:44.38Z</time></trkpt><trkpt lat="38.0842411" lon="12.7551259"><ele>177.66666666666666</ele><time>2026-04-25T18:05:45.381Z</time></trkpt><trkpt lat="38.0840276" lon="12.7551733"><ele>178.33333333333331</ele><time>2026-04-25T18:05:46.379Z</time></trkpt><trkpt lat="38.0838184" lon="12.7551868"><ele>179.0</ele><time>2026-04-25T18:05:47.378Z</time></trkpt><trkpt lat="38.0836078" lon="12.7551841"><ele>179.0</ele><time>2026-04-25T18:05:48.38Z</time></trkpt><trkpt lat="38.0833994" lon="12.755197"><ele>179.0</ele><time>2026-04-25T18:05:49.38Z</time></trkpt><trkpt lat="38.0831886" lon="12.755236"><ele>179.0</ele><time>2026-04-25T18:05:50.379Z</time></trkpt><trkpt lat="38.0829785" lon="12.755301"><ele>182.33333333333331</ele><time>2026-04-25T18:05:51.38Z</time></trkpt><trkpt lat="38.0827711" lon="12.7553731"><ele>185.66666666666666</ele><time>2026-04-25T18:05:52.379Z</time></trkpt><trkpt lat="38.0825766" lon="12.7554495"><ele>189.0</ele><time>2026-04-25T18:05:53.379Z</time></trkpt><trkpt lat="38.0822407" lon="12.7555893"><ele>189.0</ele><time>2026-04-25T18:05:55.381Z</time></trkpt><trkpt lat="38.0820993" lon="12.7556426"><ele>189.0</ele><time>2026-04-25T18:05:56.379Z</time></trkpt><trkpt lat="38.0819818" lon="12.7556916"><ele>189.0</ele><time>2026-04-25T18:05:57.379Z</time></trkpt><trkpt lat="38.0818813" lon="12.7557286"><ele>189.0</ele><time>2026-04-25T18:05:58.38Z</time></trkpt><trkpt lat="38.0817962" lon="12.7557446"><ele>189.0</ele><time>2026-04-25T18:05:59.38Z</time></trkpt><trkpt lat="38.0817085" lon="12.7557329"><ele>189.0</ele><time>2026-04-25T18:06:00.379Z</time></trkpt><trkpt lat="38.0816315" lon="12.7556799"><ele>189.0</ele><time>2026-04-25T18:06:01.379Z</time></trkpt><trkpt lat="38.0815657" lon="12.7555862"><ele>189.0</ele><time>2026-04-25T18:06:02.38Z</time></trkpt><trkpt lat="38.0815163" lon="12.7554573"><ele>189.0</ele><time>2026-04-25T18:06:03.379Z</time></trkpt><trkpt lat="38.0814749" lon="12.755311"><ele>188.2</ele><time>2026-04-25T18:06:04.379Z</time></trkpt><trkpt lat="38.0814367" lon="12.7551652"><ele>187.39999999999998</ele><time>2026-04-25T18:06:05.379Z</time></trkpt><trkpt lat="38.0814032" lon="12.7550348"><ele>186.6</ele><time>2026-04-25T18:06:06.379Z</time></trkpt><trkpt lat="38.0813718" lon="12.754909"><ele>185.8</ele><time>2026-04-25T18:06:07.379Z</time></trkpt><trkpt lat="38.0813636" lon="12.754797"><ele>185.0</ele><time>2026-04-25T18:06:08.379Z</time></trkpt><trkpt lat="38.081376" lon="12.7546836"><ele>185.0</ele><time>2026-04-25T18:06:09.38Z</time></trkpt><trkpt lat="38.081416" lon="12.7545846"><ele>185.0</ele><time>2026-04-25T18:06:10.379Z</time></trkpt><trkpt lat="38.0814774" lon="12.7544877"><ele>185.0</ele><time>2026-04-25T18:06:11.379Z</time></trkpt><trkpt lat="38.0815538" lon="12.7543945"><ele>185.0</ele><time>2026-04-25T18:06:12.379Z</time></trkpt><trkpt lat="38.0816528" lon="12.7542973"><ele>185.0</ele><time>2026-04-25T18:06:13.379Z</time></trkpt><trkpt lat="38.0817632" lon="12.7541981"><ele>187.33333333333331</ele><time>2026-04-25T18:06:14.378Z</time></trkpt><trkpt lat="38.0818846" lon="12.7540943"><ele>189.66666666666666</ele><time>2026-04-25T18:06:15.379Z</time></trkpt><trkpt lat="38.0820117" lon="12.7539822"><ele>192.0</ele><time>2026-04-25T18:06:16.378Z</time></trkpt><trkpt lat="38.0821512" lon="12.7538613"><ele>192.0</ele><time>2026-04-25T18:06:17.38Z</time></trkpt><trkpt lat="38.082301" lon="12.7537326"><ele>192.0</ele><time>2026-04-25T18:06:18.381Z</time></trkpt><trkpt lat="38.082453" lon="12.7536091"><ele>192.0</ele><time>2026-04-25T18:06:19.379Z</time></trkpt><trkpt lat="38.0825962" lon="12.7534981"><ele>193.6</ele><time>2026-04-25T18:06:20.379Z</time></trkpt><trkpt lat="38.0827122" lon="12.7534005"><ele>195.2</ele><time>2026-04-25T18:06:21.379Z</time></trkpt><trkpt lat="38.0827952" lon="12.753326"><ele>196.8</ele><time>2026-04-25T18:06:22.379Z</time></trkpt><trkpt lat="38.0828439" lon="12.7532578"><ele>198.4</ele><time>2026-04-25T18:06:23.378Z</time></trkpt><trkpt lat="38.0828364" lon="12.7531364"><ele>200.0</ele><time>2026-04-25T18:06:25.378Z</time></trkpt><trkpt lat="38.0827253" lon="12.7531084"><ele>200.0</ele><time>2026-04-25T18:06:27.38Z</time></trkpt><trkpt lat="38.082647" lon="12.7531398"><ele>200.0</ele><time>2026-04-25T18:06:28.38Z</time></trkpt><trkpt lat="38.0825579" lon="12.7531865"><ele>200.0</ele><time>2026-04-25T18:06:29.379Z</time></trkpt><trkpt lat="38.0824525" lon="12.7532448"><ele>200.0</ele><time>2026-04-25T18:06:30.38Z</time></trkpt><trkpt lat="38.0823368" lon="12.7533009"><ele>200.0</ele><time>2026-04-25T18:06:31.379Z</time></trkpt><trkpt lat="38.0822134" lon="12.7533695"><ele>197.33333333333334</ele><time>2026-04-25T18:06:32.38Z</time></trkpt><trkpt lat="38.0820783" lon="12.7534335"><ele>194.66666666666669</ele><time>2026-04-25T18:06:33.379Z</time></trkpt><trkpt lat="38.0819357" lon="12.7534973"><ele>192.0</ele><time>2026-04-25T18:06:34.379Z</time></trkpt><trkpt lat="38.0817816" lon="12.7535673"><ele>192.0</ele><time>2026-04-25T18:06:35.38Z</time></trkpt><trkpt lat="38.0816288" lon="12.7536285"><ele>192.0</ele><time>2026-04-25T18:06:36.38Z</time></trkpt><trkpt lat="38.0814738" lon="12.7536894"><ele>192.0</ele><time>2026-04-25T18:06:37.378Z</time></trkpt><trkpt lat="38.0813075" lon="12.7537566"><ele>196.0</ele><time>2026-04-25T18:06:38.379Z</time></trkpt><trkpt lat="38.0811355" lon="12.753823"><ele>200.0</ele><time>2026-04-25T18:06:39.379Z</time></trkpt><trkpt lat="38.0809532" lon="12.7538888"><ele>204.0</ele><time>2026-04-25T18:06:40.378Z</time></trkpt><trkpt lat="38.0807712" lon="12.7539642"><ele>208.0</ele><time>2026-04-25T18:06:41.38Z</time></trkpt><trkpt lat="38.0805832" lon="12.7540443"><ele>212.0</ele><time>2026-04-25T18:06:42.38Z</time></trkpt><trkpt lat="38.0803917" lon="12.7541163"><ele>216.0</ele><time>2026-04-25T18:06:43.38Z</time></trkpt><trkpt lat="38.0801907" lon="12.7541935"><ele>216.0</ele><time>2026-04-25T18:06:44.379Z</time></trkpt><trkpt lat="38.07999" lon="12.754271"><ele>216.0</ele><time>2026-04-25T18:06:45.379Z</time></trkpt><trkpt lat="38.0797889" lon="12.7543601"><ele>216.0</ele><time>2026-04-25T18:06:46.38Z</time></trkpt><trkpt lat="38.0795917" lon="12.7544306"><ele>213.33333333333331</ele><time>2026-04-25T18:06:47.38Z</time></trkpt><trkpt lat="38.0794001" lon="12.7544621"><ele>210.66666666666666</ele><time>2026-04-25T18:06:48.38Z</time></trkpt><trkpt lat="38.079212" lon="12.7544565"><ele>208.0</ele><time>2026-04-25T18:06:49.38Z</time></trkpt><trkpt lat="38.0790244" lon="12.7544134"><ele>215.0</ele><time>2026-04-25T18:06:50.379Z</time></trkpt><trkpt lat="38.0786213" lon="12.7542374"><ele>222.0</ele><time>2026-04-25T18:06:52.381Z</time></trkpt><trkpt lat="38.078416" lon="12.7541265"><ele>222.0</ele><time>2026-04-25T18:06:53.379Z</time></trkpt><trkpt lat="38.0782144" lon="12.7540158"><ele>222.0</ele><time>2026-04-25T18:06:54.38Z</time></trkpt><trkpt lat="38.0777981" lon="12.7537902"><ele>222.0</ele><time>2026-04-25T18:06:56.38Z</time></trkpt><trkpt lat="38.0776008" lon="12.7536917"><ele>222.0</ele><time>2026-04-25T18:06:57.38Z</time></trkpt><trkpt lat="38.0774021" lon="12.7535924"><ele>222.0</ele><time>2026-04-25T18:06:58.38Z</time></trkpt><trkpt lat="38.0772094" lon="12.7534944"><ele>226.66666666666669</ele><time>2026-04-25T18:06:59.38Z</time></trkpt><trkpt lat="38.0770137" lon="12.7533922"><ele>231.33333333333334</ele><time>2026-04-25T18:07:00.38Z</time></trkpt><trkpt lat="38.076823" lon="12.7532413"><ele>236.0</ele><time>2026-04-25T18:07:01.381Z</time></trkpt><trkpt lat="38.0766376" lon="12.7530822"><ele>237.0</ele><time>2026-04-25T18:07:02.38Z</time></trkpt><trkpt lat="38.0764509" lon="12.7529085"><ele>238.0</ele><time>2026-04-25T18:07:03.38Z</time></trkpt><trkpt lat="38.0762707" lon="12.7527402"><ele>240.66666666666666</ele><time>2026-04-25T18:07:04.379Z</time></trkpt><trkpt lat="38.0761087" lon="12.7525743"><ele>243.33333333333331</ele><time>2026-04-25T18:07:05.38Z</time></trkpt><trkpt lat="38.0759622" lon="12.7524049"><ele>246.0</ele><time>2026-04-25T18:07:06.379Z</time></trkpt><trkpt lat="38.0758323" lon="12.7522161"><ele>247.66666666666669</ele><time>2026-04-25T18:07:07.38Z</time></trkpt><trkpt lat="38.0757206" lon="12.7520048"><ele>249.33333333333334</ele><time>2026-04-25T18:07:08.379Z</time></trkpt><trkpt lat="38.0756187" lon="12.7517706"><ele>251.0</ele><time>2026-04-25T18:07:09.378Z</time></trkpt><trkpt lat="38.0755209" lon="12.7515282"><ele>252.0</ele><time>2026-04-25T18:07:10.379Z</time></trkpt><trkpt lat="38.0754329" lon="12.7512713"><ele>253.0</ele><time>2026-04-25T18:07:11.38Z</time></trkpt><trkpt lat="38.0753514" lon="12.7509981"><ele>255.5</ele><time>2026-04-25T18:07:12.38Z</time></trkpt><trkpt lat="38.0752813" lon="12.7507149"><ele>258.0</ele><time>2026-04-25T18:07:13.38Z</time></trkpt><trkpt lat="38.075229" lon="12.7504255"><ele>262.0</ele><time>2026-04-25T18:07:14.379Z</time></trkpt><trkpt lat="38.0751757" lon="12.7501301"><ele>266.0</ele><time>2026-04-25T18:07:15.379Z</time></trkpt><trkpt lat="38.0751267" lon="12.7498296"><ele>266.0</ele><time>2026-04-25T18:07:16.379Z</time></trkpt><trkpt lat="38.0750817" lon="12.7495259"><ele>266.0</ele><time>2026-04-25T18:07:17.38Z</time></trkpt><trkpt lat="38.0750347" lon="12.7492088"><ele>269.0</ele><time>2026-04-25T18:07:18.379Z</time></trkpt><trkpt lat="38.0749944" lon="12.7488883"><ele>272.0</ele><time>2026-04-25T18:07:19.38Z</time></trkpt><trkpt lat="38.0749454" lon="12.7485714"><ele>281.0</ele><time>2026-04-25T18:07:20.38Z</time></trkpt><trkpt lat="38.0749042" lon="12.7482607"><ele>290.0</ele><time>2026-04-25T18:07:21.379Z</time></trkpt><trkpt lat="38.0748591" lon="12.7479458"><ele>291.5</ele><time>2026-04-25T18:07:22.38Z</time></trkpt><trkpt lat="38.0748121" lon="12.7476309"><ele>293.0</ele><time>2026-04-25T18:07:23.38Z</time></trkpt><trkpt lat="38.074765" lon="12.7473167"><ele>293.0</ele><time>2026-04-25T18:07:24.38Z</time></trkpt><trkpt lat="38.0747235" lon="12.7470014"><ele>293.0</ele><time>2026-04-25T18:07:25.38Z</time></trkpt><trkpt lat="38.0746786" lon="12.746696"><ele>292.0</ele><time>2026-04-25T18:07:26.38Z</time></trkpt><trkpt lat="38.074634" lon="12.7463899"><ele>291.0</ele><time>2026-04-25T18:07:27.379Z</time></trkpt><trkpt lat="38.0745923" lon="12.7460844"><ele>292.5</ele><time>2026-04-25T18:07:28.379Z</time></trkpt><trkpt lat="38.074554" lon="12.7457792"><ele>294.0</ele><time>2026-04-25T18:07:29.38Z</time></trkpt><trkpt lat="38.0745099" lon="12.7454869"><ele>294.0</ele><time>2026-04-25T18:07:30.379Z</time></trkpt><trkpt lat="38.0744709" lon="12.7452126"><ele>294.0</ele><time>2026-04-25T18:07:31.38Z</time></trkpt><trkpt lat="38.0744414" lon="12.7449744"><ele>294.0</ele><time>2026-04-25T18:07:32.38Z</time></trkpt><trkpt lat="38.0743826" lon="12.7445274"><ele>295.0</ele><time>2026-04-25T18:07:34.379Z</time></trkpt><trkpt lat="38.0743579" lon="12.744287"><ele>296.0</ele><time>2026-04-25T18:07:35.378Z</time></trkpt><trkpt lat="38.0743551" lon="12.7440366"><ele>297.0</ele><time>2026-04-25T18:07:36.379Z</time></trkpt><trkpt lat="38.0743593" lon="12.7437739"><ele>298.3333333333333</ele><time>2026-04-25T18:07:37.38Z</time></trkpt><trkpt lat="38.0743686" lon="12.7434949"><ele>299.66666666666663</ele><time>2026-04-25T18:07:38.38Z</time></trkpt><trkpt lat="38.0743841" lon="12.7432065"><ele>301.0</ele><time>2026-04-25T18:07:39.379Z</time></trkpt><trkpt lat="38.0744094" lon="12.7429118"><ele>302.0</ele><time>2026-04-25T18:07:40.379Z</time></trkpt><trkpt lat="38.0744478" lon="12.7426054"><ele>303.0</ele><time>2026-04-25T18:07:41.38Z</time></trkpt><trkpt lat="38.0744891" lon="12.7422953"><ele>303.0</ele><time>2026-04-25T18:07:42.38Z</time></trkpt><trkpt lat="38.0745357" lon="12.7419864"><ele>303.0</ele><time>2026-04-25T18:07:43.38Z</time></trkpt><trkpt lat="38.0745855" lon="12.7416751"><ele>304.0</ele><time>2026-04-25T18:07:44.379Z</time></trkpt><trkpt lat="38.0746338" lon="12.7413619"><ele>305.0</ele><time>2026-04-25T18:07:45.38Z</time></trkpt><trkpt lat="38.0746849" lon="12.7410447"><ele>307.0</ele><time>2026-04-25T18:07:46.38Z</time></trkpt><trkpt lat="38.0747312" lon="12.7407184"><ele>309.0</ele><time>2026-04-25T18:07:47.378Z</time></trkpt><trkpt lat="38.0747774" lon="12.7403923"><ele>309.0</ele><time>2026-04-25T18:07:48.38Z</time></trkpt><trkpt lat="38.0748254" lon="12.7400591"><ele>309.0</ele><time>2026-04-25T18:07:49.38Z</time></trkpt><trkpt lat="38.0748772" lon="12.7397123"><ele>311.0</ele><time>2026-04-25T18:07:50.38Z</time></trkpt><trkpt lat="38.0749342" lon="12.739359"><ele>313.0</ele><time>2026-04-25T18:07:51.379Z</time></trkpt><trkpt lat="38.0749939" lon="12.7390012"><ele>306.5</ele><time>2026-04-25T18:07:52.38Z</time></trkpt><trkpt lat="38.0750606" lon="12.7386402"><ele>300.0</ele><time>2026-04-25T18:07:53.38Z</time></trkpt><trkpt lat="38.0751269" lon="12.7382763"><ele>300.0</ele><time>2026-04-25T18:07:54.38Z</time></trkpt><trkpt lat="38.0751922" lon="12.7379075"><ele>300.0</ele><time>2026-04-25T18:07:55.38Z</time></trkpt><trkpt lat="38.075255" lon="12.7375368"><ele>299.0</ele><time>2026-04-25T18:07:56.38Z</time></trkpt><trkpt lat="38.0753111" lon="12.7371628"><ele>298.0</ele><time>2026-04-25T18:07:57.38Z</time></trkpt><trkpt lat="38.0753719" lon="12.7367954"><ele>298.0</ele><time>2026-04-25T18:07:58.379Z</time></trkpt><trkpt lat="38.0754288" lon="12.7364257"><ele>298.0</ele><time>2026-04-25T18:07:59.38Z</time></trkpt><trkpt lat="38.0754858" lon="12.736057"><ele>297.0</ele><time>2026-04-25T18:08:00.38Z</time></trkpt><trkpt lat="38.0755487" lon="12.7356871"><ele>296.0</ele><time>2026-04-25T18:08:01.381Z</time></trkpt><trkpt lat="38.0756062" lon="12.7353186"><ele>295.0</ele><time>2026-04-25T18:08:02.379Z</time></trkpt><trkpt lat="38.0756708" lon="12.7349537"><ele>294.0</ele><time>2026-04-25T18:08:03.379Z</time></trkpt><trkpt lat="38.0757346" lon="12.7345867"><ele>292.0</ele><time>2026-04-25T18:08:04.379Z</time></trkpt><trkpt lat="38.0757983" lon="12.7342295"><ele>290.0</ele><time>2026-04-25T18:08:05.38Z</time></trkpt><trkpt lat="38.0758587" lon="12.7338738"><ele>290.5</ele><time>2026-04-25T18:08:06.381Z</time></trkpt><trkpt lat="38.0759185" lon="12.7335237"><ele>291.0</ele><time>2026-04-25T18:08:07.379Z</time></trkpt><trkpt lat="38.0759706" lon="12.7331727"><ele>291.0</ele><time>2026-04-25T18:08:08.38Z</time></trkpt><trkpt lat="38.0760319" lon="12.7328334"><ele>291.0</ele><time>2026-04-25T18:08:09.379Z</time></trkpt><trkpt lat="38.0760919" lon="12.7324915"><ele>291.0</ele><time>2026-04-25T18:08:10.38Z</time></trkpt><trkpt lat="38.0761506" lon="12.7321458"><ele>291.0</ele><time>2026-04-25T18:08:11.38Z</time></trkpt><trkpt lat="38.0762219" lon="12.7318034"><ele>290.5</ele><time>2026-04-25T18:08:12.38Z</time></trkpt><trkpt lat="38.0762975" lon="12.7314664"><ele>290.0</ele><time>2026-04-25T18:08:13.381Z</time></trkpt><trkpt lat="38.0763762" lon="12.7311332"><ele>291.0</ele><time>2026-04-25T18:08:14.38Z</time></trkpt><trkpt lat="38.0764631" lon="12.7307994"><ele>292.0</ele><time>2026-04-25T18:08:15.38Z</time></trkpt><trkpt lat="38.0765525" lon="12.7304711"><ele>291.0</ele><time>2026-04-25T18:08:16.379Z</time></trkpt><trkpt lat="38.0766436" lon="12.7301442"><ele>290.0</ele><time>2026-04-25T18:08:17.38Z</time></trkpt><trkpt lat="38.0767467" lon="12.7298185"><ele>290.0</ele><time>2026-04-25T18:08:18.38Z</time></trkpt><trkpt lat="38.0768513" lon="12.7294946"><ele>290.0</ele><time>2026-04-25T18:08:19.38Z</time></trkpt><trkpt lat="38.0769617" lon="12.7291774"><ele>290.5</ele><time>2026-04-25T18:08:20.38Z</time></trkpt><trkpt lat="38.0770689" lon="12.7288638"><ele>291.0</ele><time>2026-04-25T18:08:21.379Z</time></trkpt><trkpt lat="38.077176" lon="12.7285534"><ele>291.5</ele><time>2026-04-25T18:08:22.38Z</time></trkpt><trkpt lat="38.0772791" lon="12.7282422"><ele>292.0</ele><time>2026-04-25T18:08:23.38Z</time></trkpt><trkpt lat="38.0773805" lon="12.727931"><ele>290.0</ele><time>2026-04-25T18:08:24.38Z</time></trkpt><trkpt lat="38.0774872" lon="12.727622"><ele>288.0</ele><time>2026-04-25T18:08:25.379Z</time></trkpt><trkpt lat="38.0775895" lon="12.727328"><ele>288.0</ele><time>2026-04-25T18:08:26.38Z</time></trkpt><trkpt lat="38.0776905" lon="12.7270475"><ele>288.0</ele><time>2026-04-25T18:08:27.38Z</time></trkpt><trkpt lat="38.0777906" lon="12.726778"><ele>288.0</ele><time>2026-04-25T18:08:28.38Z</time></trkpt><trkpt lat="38.0778856" lon="12.7265091"><ele>288.0</ele><time>2026-04-25T18:08:29.38Z</time></trkpt><trkpt lat="38.0779805" lon="12.7262391"><ele>287.0</ele><time>2026-04-25T18:08:30.379Z</time></trkpt><trkpt lat="38.0780676" lon="12.7259679"><ele>286.0</ele><time>2026-04-25T18:08:31.38Z</time></trkpt><trkpt lat="38.0781529" lon="12.725698"><ele>286.0</ele><time>2026-04-25T18:08:32.38Z</time></trkpt><trkpt lat="38.0782354" lon="12.7254296"><ele>286.0</ele><time>2026-04-25T18:08:33.38Z</time></trkpt><trkpt lat="38.0783094" lon="12.7251736"><ele>286.0</ele><time>2026-04-25T18:08:34.38Z</time></trkpt><trkpt lat="38.0783723" lon="12.7249289"><ele>285.66666666666663</ele><time>2026-04-25T18:08:35.38Z</time></trkpt><trkpt lat="38.078417" lon="12.7246879"><ele>285.3333333333333</ele><time>2026-04-25T18:08:36.38Z</time></trkpt><trkpt lat="38.0784543" lon="12.7244439"><ele>285.0</ele><time>2026-04-25T18:08:37.38Z</time></trkpt><trkpt lat="38.0784768" lon="12.7242011"><ele>285.0</ele><time>2026-04-25T18:08:38.379Z</time></trkpt><trkpt lat="38.0784971" lon="12.723957"><ele>285.0</ele><time>2026-04-25T18:08:39.38Z</time></trkpt><trkpt lat="38.0785154" lon="12.7237173"><ele>285.0</ele><time>2026-04-25T18:08:40.38Z</time></trkpt><trkpt lat="38.0785251" lon="12.7235009"><ele>284.25</ele><time>2026-04-25T18:08:41.38Z</time></trkpt><trkpt lat="38.0785297" lon="12.7233198"><ele>283.5</ele><time>2026-04-25T18:08:42.379Z</time></trkpt><trkpt lat="38.0785321" lon="12.7231595"><ele>282.75</ele><time>2026-04-25T18:08:43.38Z</time></trkpt><trkpt lat="38.0785381" lon="12.7229917"><ele>282.0</ele><time>2026-04-25T18:08:44.38Z</time></trkpt><trkpt lat="38.0785407" lon="12.7228107"><ele>280.6666666666667</ele><time>2026-04-25T18:08:45.38Z</time></trkpt><trkpt lat="38.0785485" lon="12.722598"><ele>279.33333333333337</ele><time>2026-04-25T18:08:46.38Z</time></trkpt><trkpt lat="38.0785533" lon="12.7223752"><ele>278.0</ele><time>2026-04-25T18:08:47.38Z</time></trkpt><trkpt lat="38.0785616" lon="12.7221599"><ele>277.0</ele><time>2026-04-25T18:08:48.38Z</time></trkpt><trkpt lat="38.0785837" lon="12.7217668"><ele>276.0</ele><time>2026-04-25T18:08:50.379Z</time></trkpt><trkpt lat="38.0786141" lon="12.7215937"><ele>276.0</ele><time>2026-04-25T18:08:51.38Z</time></trkpt><trkpt lat="38.0786584" lon="12.7214269"><ele>276.0</ele><time>2026-04-25T18:08:52.38Z</time></trkpt><trkpt lat="38.0787128" lon="12.7212587"><ele>276.0</ele><time>2026-04-25T18:08:53.38Z</time></trkpt><trkpt lat="38.0787784" lon="12.7211059"><ele>276.0</ele><time>2026-04-25T18:08:54.38Z</time></trkpt><trkpt lat="38.0788424" lon="12.7209659"><ele>276.25</ele><time>2026-04-25T18:08:55.38Z</time></trkpt><trkpt lat="38.0789045" lon="12.7208238"><ele>276.5</ele><time>2026-04-25T18:08:56.379Z</time></trkpt><trkpt lat="38.0789662" lon="12.7207023"><ele>276.75</ele><time>2026-04-25T18:08:57.38Z</time></trkpt><trkpt lat="38.0790255" lon="12.7205731"><ele>277.0</ele><time>2026-04-25T18:08:58.38Z</time></trkpt><trkpt lat="38.0790854" lon="12.7204407"><ele>275.5</ele><time>2026-04-25T18:08:59.38Z</time></trkpt><trkpt lat="38.0791447" lon="12.7202994"><ele>274.0</ele><time>2026-04-25T18:09:00.38Z</time></trkpt><trkpt lat="38.0791973" lon="12.7201569"><ele>272.5</ele><time>2026-04-25T18:09:01.38Z</time></trkpt><trkpt lat="38.0792397" lon="12.7200135"><ele>271.0</ele><time>2026-04-25T18:09:02.379Z</time></trkpt><trkpt lat="38.079274" lon="12.7198628"><ele>270.5</ele><time>2026-04-25T18:09:03.381Z</time></trkpt><trkpt lat="38.0792956" lon="12.7197004"><ele>270.0</ele><time>2026-04-25T18:09:04.38Z</time></trkpt><trkpt lat="38.0793111" lon="12.7195212"><ele>269.5</ele><time>2026-04-25T18:09:05.379Z</time></trkpt><trkpt lat="38.079328" lon="12.7193378"><ele>269.0</ele><time>2026-04-25T18:09:06.38Z</time></trkpt><trkpt lat="38.0793449" lon="12.7191531"><ele>269.0</ele><time>2026-04-25T18:09:07.379Z</time></trkpt><trkpt lat="38.0793747" lon="12.7189557"><ele>269.0</ele><time>2026-04-25T18:09:08.381Z</time></trkpt><trkpt lat="38.0794011" lon="12.7187594"><ele>269.0</ele><time>2026-04-25T18:09:09.38Z</time></trkpt><trkpt lat="38.0794313" lon="12.7185571"><ele>269.25</ele><time>2026-04-25T18:09:10.381Z</time></trkpt><trkpt lat="38.0794578" lon="12.7183634"><ele>269.5</ele><time>2026-04-25T18:09:11.38Z</time></trkpt><trkpt lat="38.0794858" lon="12.7181833"><ele>269.75</ele><time>2026-04-25T18:09:12.38Z</time></trkpt><trkpt lat="38.0795216" lon="12.7180113"><ele>270.0</ele><time>2026-04-25T18:09:13.38Z</time></trkpt><trkpt lat="38.0795603" lon="12.7178513"><ele>270.5</ele><time>2026-04-25T18:09:14.38Z</time></trkpt><trkpt lat="38.0796537" lon="12.7175737"><ele>271.0</ele><time>2026-04-25T18:09:16.381Z</time></trkpt><trkpt lat="38.0797036" lon="12.7174523"><ele>271.5</ele><time>2026-04-25T18:09:17.381Z</time></trkpt><trkpt lat="38.0797486" lon="12.7173696"><ele>272.0</ele><time>2026-04-25T18:09:18.38Z</time></trkpt><trkpt lat="38.0797952" lon="12.7172924"><ele>272.0</ele><time>2026-04-25T18:09:19.381Z</time></trkpt><trkpt lat="38.0798356" lon="12.7172261"><ele>272.0</ele><time>2026-04-25T18:09:20.381Z</time></trkpt><trkpt lat="38.0799014" lon="12.7171161"><ele>272.0</ele><time>2026-04-25T18:09:22.38Z</time></trkpt><trkpt lat="38.079967" lon="12.7170075"><ele>272.0</ele><time>2026-04-25T18:09:24.38Z</time></trkpt><trkpt lat="38.0800282" lon="12.7169154"><ele>272.0</ele><time>2026-04-25T18:09:26.38Z</time></trkpt><trkpt lat="38.0800946" lon="12.7168044"><ele>271.5</ele><time>2026-04-25T18:09:28.381Z</time></trkpt><trkpt lat="38.0801677" lon="12.716667"><ele>271.0</ele><time>2026-04-25T18:09:30.381Z</time></trkpt><trkpt lat="38.0802041" lon="12.7165904"><ele>270.5</ele><time>2026-04-25T18:09:31.38Z</time></trkpt><trkpt lat="38.0802472" lon="12.7165046"><ele>270.0</ele><time>2026-04-25T18:09:32.38Z</time></trkpt><trkpt lat="38.0802853" lon="12.7164181"><ele>269.5</ele><time>2026-04-25T18:09:33.38Z</time></trkpt><trkpt lat="38.0803252" lon="12.7163351"><ele>269.0</ele><time>2026-04-25T18:09:34.38Z</time></trkpt><trkpt lat="38.0803627" lon="12.7162516"><ele>269.0</ele><time>2026-04-25T18:09:35.381Z</time></trkpt><trkpt lat="38.0804003" lon="12.7161707"><ele>269.0</ele><time>2026-04-25T18:09:36.379Z</time></trkpt><trkpt lat="38.0804355" lon="12.716087"><ele>269.0</ele><time>2026-04-25T18:09:37.38Z</time></trkpt><trkpt lat="38.0804712" lon="12.715997"><ele>269.0</ele><time>2026-04-25T18:09:38.381Z</time></trkpt><trkpt lat="38.0805091" lon="12.715905"><ele>269.0</ele><time>2026-04-25T18:09:39.379Z</time></trkpt><trkpt lat="38.0805372" lon="12.7158106"><ele>269.0</ele><time>2026-04-25T18:09:40.38Z</time></trkpt><trkpt lat="38.0805683" lon="12.7157152"><ele>269.0</ele><time>2026-04-25T18:09:41.38Z</time></trkpt><trkpt lat="38.0805908" lon="12.7156147"><ele>269.0</ele><time>2026-04-25T18:09:42.38Z</time></trkpt><trkpt lat="38.080607" lon="12.7155165"><ele>269.0</ele><time>2026-04-25T18:09:43.38Z</time></trkpt><trkpt lat="38.080615" lon="12.7154143"><ele>269.0</ele><time>2026-04-25T18:09:44.38Z</time></trkpt><trkpt lat="38.0806135" lon="12.7153025"><ele>269.0</ele><time>2026-04-25T18:09:45.38Z</time></trkpt><trkpt lat="38.0806009" lon="12.7151824"><ele>269.0</ele><time>2026-04-25T18:09:46.38Z</time></trkpt><trkpt lat="38.0805862" lon="12.715061"><ele>269.0</ele><time>2026-04-25T18:09:47.38Z</time></trkpt><trkpt lat="38.0805701" lon="12.7149386"><ele>269.0</ele><time>2026-04-25T18:09:48.38Z</time></trkpt><trkpt lat="38.0805511" lon="12.7148367"><ele>269.0</ele><time>2026-04-25T18:09:49.379Z</time></trkpt><trkpt lat="38.0805324" lon="12.7147504"><ele>269.0</ele><time>2026-04-25T18:09:50.38Z</time></trkpt><trkpt lat="38.0805193" lon="12.7146675"><ele>269.0</ele><time>2026-04-25T18:09:51.379Z</time></trkpt><trkpt lat="38.0804975" lon="12.7145903"><ele>269.0</ele><time>2026-04-25T18:09:52.379Z</time></trkpt><trkpt lat="38.080471" lon="12.7145052"><ele>269.0</ele><time>2026-04-25T18:09:53.381Z</time></trkpt><trkpt lat="38.080442" lon="12.7144059"><ele>269.0</ele><time>2026-04-25T18:09:54.381Z</time></trkpt><trkpt lat="38.0804129" lon="12.7142835"><ele>269.0</ele><time>2026-04-25T18:09:55.379Z</time></trkpt><trkpt lat="38.0803855" lon="12.7141728"><ele>269.0</ele><time>2026-04-25T18:09:56.38Z</time></trkpt><trkpt lat="38.0803637" lon="12.7140694"><ele>269.0</ele><time>2026-04-25T18:09:57.381Z</time></trkpt><trkpt lat="38.0803368" lon="12.7139716"><ele>269.0</ele><time>2026-04-25T18:09:58.381Z</time></trkpt><trkpt lat="38.0803019" lon="12.7138725"><ele>268.59999999999997</ele><time>2026-04-25T18:09:59.379Z</time></trkpt><trkpt lat="38.0802738" lon="12.7137623"><ele>268.2</ele><time>2026-04-25T18:10:00.381Z</time></trkpt><trkpt lat="38.0802441" lon="12.7136643"><ele>267.79999999999995</ele><time>2026-04-25T18:10:01.381Z</time></trkpt><trkpt lat="38.0802052" lon="12.7135554"><ele>267.4</ele><time>2026-04-25T18:10:02.38Z</time></trkpt><trkpt lat="38.0801718" lon="12.7134438"><ele>267.0</ele><time>2026-04-25T18:10:03.381Z</time></trkpt><trkpt lat="38.0801355" lon="12.713323"><ele>266.8</ele><time>2026-04-25T18:10:04.382Z</time></trkpt><trkpt lat="38.0800988" lon="12.7132012"><ele>266.6</ele><time>2026-04-25T18:10:05.38Z</time></trkpt><trkpt lat="38.0800677" lon="12.7130768"><ele>266.40000000000003</ele><time>2026-04-25T18:10:06.379Z</time></trkpt><trkpt lat="38.0800317" lon="12.7129518"><ele>266.2</ele><time>2026-04-25T18:10:07.381Z</time></trkpt><trkpt lat="38.0799989" lon="12.7128198"><ele>266.0</ele><time>2026-04-25T18:10:08.38Z</time></trkpt><trkpt lat="38.0799604" lon="12.712687"><ele>266.40000000000003</ele><time>2026-04-25T18:10:09.381Z</time></trkpt><trkpt lat="38.0799242" lon="12.7125546"><ele>266.8</ele><time>2026-04-25T18:10:10.381Z</time></trkpt><trkpt lat="38.0798888" lon="12.7124202"><ele>267.20000000000005</ele><time>2026-04-25T18:10:11.38Z</time></trkpt><trkpt lat="38.0798522" lon="12.7122875"><ele>267.6</ele><time>2026-04-25T18:10:12.38Z</time></trkpt><trkpt lat="38.079821" lon="12.7121544"><ele>268.0</ele><time>2026-04-25T18:10:13.381Z</time></trkpt><trkpt lat="38.0797858" lon="12.7120171"><ele>267.4</ele><time>2026-04-25T18:10:14.381Z</time></trkpt><trkpt lat="38.0797588" lon="12.7118789"><ele>266.8</ele><time>2026-04-25T18:10:15.38Z</time></trkpt><trkpt lat="38.079743" lon="12.7117529"><ele>266.2</ele><time>2026-04-25T18:10:16.379Z</time></trkpt><trkpt lat="38.0797306" lon="12.711631"><ele>265.6</ele><time>2026-04-25T18:10:17.381Z</time></trkpt><trkpt lat="38.0797236" lon="12.7115104"><ele>265.0</ele><time>2026-04-25T18:10:18.381Z</time></trkpt><trkpt lat="38.0797227" lon="12.7114061"><ele>265.0</ele><time>2026-04-25T18:10:19.38Z</time></trkpt><trkpt lat="38.0797268" lon="12.7112962"><ele>265.0</ele><time>2026-04-25T18:10:20.381Z</time></trkpt><trkpt lat="38.0797322" lon="12.7111898"><ele>265.0</ele><time>2026-04-25T18:10:21.381Z</time></trkpt><trkpt lat="38.0797373" lon="12.7110818"><ele>265.0</ele><time>2026-04-25T18:10:22.381Z</time></trkpt><trkpt lat="38.0797482" lon="12.7109689"><ele>265.0</ele><time>2026-04-25T18:10:23.381Z</time></trkpt><trkpt lat="38.0797578" lon="12.7108392"><ele>265.0</ele><time>2026-04-25T18:10:24.381Z</time></trkpt><trkpt lat="38.0797676" lon="12.7107054"><ele>264.75</ele><time>2026-04-25T18:10:25.381Z</time></trkpt><trkpt lat="38.0797774" lon="12.7105718"><ele>264.5</ele><time>2026-04-25T18:10:26.38Z</time></trkpt><trkpt lat="38.0797913" lon="12.7104373"><ele>264.25</ele><time>2026-04-25T18:10:27.381Z</time></trkpt><trkpt lat="38.0798002" lon="12.7102898"><ele>264.0</ele><time>2026-04-25T18:10:28.379Z</time></trkpt><trkpt lat="38.079807" lon="12.7101341"><ele>264.0</ele><time>2026-04-25T18:10:29.38Z</time></trkpt><trkpt lat="38.0798111" lon="12.7099573"><ele>264.0</ele><time>2026-04-25T18:10:30.38Z</time></trkpt><trkpt lat="38.0798225" lon="12.7097868"><ele>264.0</ele><time>2026-04-25T18:10:31.381Z</time></trkpt><trkpt lat="38.0798427" lon="12.709608"><ele>264.0</ele><time>2026-04-25T18:10:32.38Z</time></trkpt><trkpt lat="38.0798565" lon="12.7094431"><ele>264.75</ele><time>2026-04-25T18:10:33.381Z</time></trkpt><trkpt lat="38.0798717" lon="12.7092883"><ele>265.5</ele><time>2026-04-25T18:10:34.381Z</time></trkpt><trkpt lat="38.079884" lon="12.7091431"><ele>266.25</ele><time>2026-04-25T18:10:35.381Z</time></trkpt><trkpt lat="38.0799023" lon="12.7090112"><ele>267.0</ele><time>2026-04-25T18:10:36.381Z</time></trkpt><trkpt lat="38.0799134" lon="12.7088682"><ele>267.0</ele><time>2026-04-25T18:10:37.381Z</time></trkpt><trkpt lat="38.0799265" lon="12.7087043"><ele>267.0</ele><time>2026-04-25T18:10:38.381Z</time></trkpt><trkpt lat="38.0799471" lon="12.7085322"><ele>267.0</ele><time>2026-04-25T18:10:39.381Z</time></trkpt><trkpt lat="38.0799763" lon="12.7083598"><ele>267.0</ele><time>2026-04-25T18:10:40.38Z</time></trkpt><trkpt lat="38.0800104" lon="12.7081885"><ele>267.0</ele><time>2026-04-25T18:10:41.381Z</time></trkpt><trkpt lat="38.0800472" lon="12.7080311"><ele>267.0</ele><time>2026-04-25T18:10:42.38Z</time></trkpt><trkpt lat="38.0800822" lon="12.7078874"><ele>267.0</ele><time>2026-04-25T18:10:43.38Z</time></trkpt><trkpt lat="38.0801182" lon="12.7077384"><ele>267.0</ele><time>2026-04-25T18:10:44.381Z</time></trkpt><trkpt lat="38.0801474" lon="12.7075948"><ele>267.5</ele><time>2026-04-25T18:10:45.38Z</time></trkpt><trkpt lat="38.0801675" lon="12.7074535"><ele>268.0</ele><time>2026-04-25T18:10:46.382Z</time></trkpt><trkpt lat="38.0801721" lon="12.7073093"><ele>268.5</ele><time>2026-04-25T18:10:47.381Z</time></trkpt><trkpt lat="38.0801629" lon="12.7071336"><ele>269.0</ele><time>2026-04-25T18:10:48.38Z</time></trkpt><trkpt lat="38.0801453" lon="12.7069426"><ele>268.6666666666667</ele><time>2026-04-25T18:10:49.38Z</time></trkpt><trkpt lat="38.0801248" lon="12.7067219"><ele>268.3333333333333</ele><time>2026-04-25T18:10:50.38Z</time></trkpt><trkpt lat="38.0800886" lon="12.7064912"><ele>268.0</ele><time>2026-04-25T18:10:51.38Z</time></trkpt><trkpt lat="38.0800532" lon="12.7062451"><ele>267.66666666666663</ele><time>2026-04-25T18:10:52.381Z</time></trkpt><trkpt lat="38.080015" lon="12.7059826"><ele>267.3333333333333</ele><time>2026-04-25T18:10:53.382Z</time></trkpt><trkpt lat="38.0799706" lon="12.7057103"><ele>267.0</ele><time>2026-04-25T18:10:54.38Z</time></trkpt><trkpt lat="38.079926" lon="12.7054298"><ele>268.3333333333333</ele><time>2026-04-25T18:10:55.38Z</time></trkpt><trkpt lat="38.0798834" lon="12.7051527"><ele>269.66666666666663</ele><time>2026-04-25T18:10:56.38Z</time></trkpt><trkpt lat="38.0798373" lon="12.7048766"><ele>271.0</ele><time>2026-04-25T18:10:57.381Z</time></trkpt><trkpt lat="38.0798011" lon="12.7046108"><ele>270.3333333333333</ele><time>2026-04-25T18:10:58.381Z</time></trkpt><trkpt lat="38.0797684" lon="12.7043515"><ele>269.6666666666667</ele><time>2026-04-25T18:10:59.38Z</time></trkpt><trkpt lat="38.0797383" lon="12.7041072"><ele>269.0</ele><time>2026-04-25T18:11:00.381Z</time></trkpt><trkpt lat="38.0797122" lon="12.7038896"><ele>269.0</ele><time>2026-04-25T18:11:01.382Z</time></trkpt><trkpt lat="38.0796873" lon="12.7037002"><ele>269.0</ele><time>2026-04-25T18:11:02.38Z</time></trkpt><trkpt lat="38.0796661" lon="12.7035376"><ele>269.0</ele><time>2026-04-25T18:11:03.381Z</time></trkpt><trkpt lat="38.079643" lon="12.7033908"><ele>269.0</ele><time>2026-04-25T18:11:04.381Z</time></trkpt><trkpt lat="38.0796148" lon="12.7032463"><ele>269.0</ele><time>2026-04-25T18:11:05.382Z</time></trkpt><trkpt lat="38.079589" lon="12.7031054"><ele>269.0</ele><time>2026-04-25T18:11:06.381Z</time></trkpt><trkpt lat="38.0795526" lon="12.7029562"><ele>269.0</ele><time>2026-04-25T18:11:07.38Z</time></trkpt><trkpt lat="38.0795063" lon="12.7027911"><ele>269.0</ele><time>2026-04-25T18:11:08.381Z</time></trkpt><trkpt lat="38.0794515" lon="12.7026061"><ele>268.0</ele><time>2026-04-25T18:11:09.381Z</time></trkpt><trkpt lat="38.0793988" lon="12.7024261"><ele>267.0</ele><time>2026-04-25T18:11:10.381Z</time></trkpt><trkpt lat="38.0793513" lon="12.7022419"><ele>266.0</ele><time>2026-04-25T18:11:11.38Z</time></trkpt><trkpt lat="38.0793106" lon="12.7020579"><ele>265.33333333333337</ele><time>2026-04-25T18:11:12.381Z</time></trkpt><trkpt lat="38.0792683" lon="12.7018816"><ele>264.6666666666667</ele><time>2026-04-25T18:11:13.381Z</time></trkpt><trkpt lat="38.079214" lon="12.7016968"><ele>264.0</ele><time>2026-04-25T18:11:14.381Z</time></trkpt><trkpt lat="38.07915" lon="12.7014809"><ele>264.6666666666667</ele><time>2026-04-25T18:11:15.38Z</time></trkpt><trkpt lat="38.079082" lon="12.7012467"><ele>265.33333333333337</ele><time>2026-04-25T18:11:16.381Z</time></trkpt><trkpt lat="38.079017" lon="12.7009746"><ele>266.0</ele><time>2026-04-25T18:11:17.38Z</time></trkpt><trkpt lat="38.0789541" lon="12.7006924"><ele>266.0</ele><time>2026-04-25T18:11:18.38Z</time></trkpt><trkpt lat="38.0788904" lon="12.7004162"><ele>266.0</ele><time>2026-04-25T18:11:19.381Z</time></trkpt><trkpt lat="38.0788259" lon="12.700157"><ele>266.0</ele><time>2026-04-25T18:11:20.381Z</time></trkpt><trkpt lat="38.0787564" lon="12.6999253"><ele>266.33333333333337</ele><time>2026-04-25T18:11:21.382Z</time></trkpt><trkpt lat="38.0786764" lon="12.6997096"><ele>266.6666666666667</ele><time>2026-04-25T18:11:22.38Z</time></trkpt><trkpt lat="38.0785715" lon="12.6994967"><ele>267.0</ele><time>2026-04-25T18:11:23.381Z</time></trkpt><trkpt lat="38.0784447" lon="12.6992904"><ele>267.0</ele><time>2026-04-25T18:11:24.382Z</time></trkpt><trkpt lat="38.0782913" lon="12.6990692"><ele>267.0</ele><time>2026-04-25T18:11:25.38Z</time></trkpt><trkpt lat="38.0781264" lon="12.6988515"><ele>267.6666666666667</ele><time>2026-04-25T18:11:26.38Z</time></trkpt><trkpt lat="38.0779622" lon="12.6986524"><ele>268.33333333333337</ele><time>2026-04-25T18:11:27.38Z</time></trkpt><trkpt lat="38.0778015" lon="12.6984703"><ele>269.0</ele><time>2026-04-25T18:11:28.38Z</time></trkpt><trkpt lat="38.0776487" lon="12.6982945"><ele>269.6666666666667</ele><time>2026-04-25T18:11:29.381Z</time></trkpt><trkpt lat="38.0775086" lon="12.6981255"><ele>270.3333333333333</ele><time>2026-04-25T18:11:30.381Z</time></trkpt><trkpt lat="38.0773755" lon="12.6979619"><ele>271.0</ele><time>2026-04-25T18:11:31.38Z</time></trkpt><trkpt lat="38.0772546" lon="12.697801"><ele>269.3333333333333</ele><time>2026-04-25T18:11:32.381Z</time></trkpt><trkpt lat="38.0771486" lon="12.6976273"><ele>267.6666666666667</ele><time>2026-04-25T18:11:33.381Z</time></trkpt><trkpt lat="38.0770504" lon="12.6974504"><ele>266.0</ele><time>2026-04-25T18:11:34.381Z</time></trkpt><trkpt lat="38.0769683" lon="12.6972626"><ele>266.0</ele><time>2026-04-25T18:11:35.381Z</time></trkpt><trkpt lat="38.0768992" lon="12.6970669"><ele>266.0</ele><time>2026-04-25T18:11:36.38Z</time></trkpt><trkpt lat="38.0768472" lon="12.6968679"><ele>266.0</ele><time>2026-04-25T18:11:37.381Z</time></trkpt><trkpt lat="38.0768151" lon="12.696672"><ele>264.33333333333337</ele><time>2026-04-25T18:11:38.381Z</time></trkpt><trkpt lat="38.0767845" lon="12.6964801"><ele>262.6666666666667</ele><time>2026-04-25T18:11:39.381Z</time></trkpt><trkpt lat="38.0767546" lon="12.6962878"><ele>261.0</ele><time>2026-04-25T18:11:40.382Z</time></trkpt><trkpt lat="38.0767326" lon="12.6961041"><ele>260.5</ele><time>2026-04-25T18:11:41.381Z</time></trkpt><trkpt lat="38.0767089" lon="12.6959281"><ele>260.0</ele><time>2026-04-25T18:11:42.381Z</time></trkpt><trkpt lat="38.0766824" lon="12.6957577"><ele>259.5</ele><time>2026-04-25T18:11:43.38Z</time></trkpt><trkpt lat="38.0766573" lon="12.6956079"><ele>259.0</ele><time>2026-04-25T18:11:44.38Z</time></trkpt><trkpt lat="38.0766379" lon="12.69548"><ele>259.0</ele><time>2026-04-25T18:11:45.381Z</time></trkpt><trkpt lat="38.0766213" lon="12.6953776"><ele>259.0</ele><time>2026-04-25T18:11:46.381Z</time></trkpt><trkpt lat="38.0765977" lon="12.6953004"><ele>259.0</ele><time>2026-04-25T18:11:47.381Z</time></trkpt><trkpt lat="38.0765366" lon="12.6952247"><ele>259.0</ele><time>2026-04-25T18:11:49.381Z</time></trkpt><trkpt lat="38.0764845" lon="12.6951587"><ele>259.0</ele><time>2026-04-25T18:11:51.381Z</time></trkpt><trkpt lat="38.0764673" lon="12.6950635"><ele>259.0</ele><time>2026-04-25T18:11:53.381Z</time></trkpt><trkpt lat="38.0764803" lon="12.6949682"><ele>258.66666666666663</ele><time>2026-04-25T18:14:07.382Z</time></trkpt><trkpt lat="38.0764837" lon="12.6948772"><ele>258.3333333333333</ele><time>2026-04-25T18:14:09.383Z</time></trkpt><trkpt lat="38.0765171" lon="12.6948043"><ele>258.0</ele><time>2026-04-25T18:14:15.381Z</time></trkpt><trkpt lat="38.0765247" lon="12.6946627"><ele>257.6666666666667</ele><time>2026-04-25T18:14:18.381Z</time></trkpt><trkpt lat="38.0765178" lon="12.6945174"><ele>257.33333333333337</ele><time>2026-04-25T18:14:20.381Z</time></trkpt><trkpt lat="38.076508" lon="12.6944331"><ele>257.0</ele><time>2026-04-25T18:14:21.38Z</time></trkpt><trkpt lat="38.0764969" lon="12.6943342"><ele>255.83333333333334</ele><time>2026-04-25T18:14:22.382Z</time></trkpt><trkpt lat="38.0764851" lon="12.6942254"><ele>254.66666666666669</ele><time>2026-04-25T18:14:23.38Z</time></trkpt><trkpt lat="38.0764738" lon="12.6941145"><ele>253.5</ele><time>2026-04-25T18:14:24.382Z</time></trkpt><trkpt lat="38.0764616" lon="12.6940038"><ele>252.33333333333331</ele><time>2026-04-25T18:14:25.382Z</time></trkpt><trkpt lat="38.0764482" lon="12.6939047"><ele>251.16666666666666</ele><time>2026-04-25T18:14:26.381Z</time></trkpt><trkpt lat="38.0764387" lon="12.6938197"><ele>250.0</ele><time>2026-04-25T18:14:27.382Z</time></trkpt><trkpt lat="38.0764213" lon="12.6936975"><ele>249.99999999999997</ele><time>2026-04-25T18:14:29.382Z</time></trkpt><trkpt lat="38.0764215" lon="12.6936172"><ele>250.0</ele><time>2026-04-25T18:14:30.382Z</time></trkpt><trkpt lat="38.0764115" lon="12.6934749"><ele>250.0</ele><time>2026-04-25T18:14:32.381Z</time></trkpt><trkpt lat="38.0764066" lon="12.6933903"><ele>250.0</ele><time>2026-04-25T18:14:33.381Z</time></trkpt><trkpt lat="38.0764038" lon="12.693298"><ele>249.99999999999997</ele><time>2026-04-25T18:14:34.38Z</time></trkpt><trkpt lat="38.0763946" lon="12.6931989"><ele>250.0</ele><time>2026-04-25T18:14:35.382Z</time></trkpt><trkpt lat="38.0763836" lon="12.6930901"><ele>248.99999999999997</ele><time>2026-04-25T18:14:36.382Z</time></trkpt><trkpt lat="38.07638" lon="12.6929796"><ele>248.0</ele><time>2026-04-25T18:14:37.38Z</time></trkpt><trkpt lat="38.0763732" lon="12.6928704"><ele>247.0</ele><time>2026-04-25T18:14:38.381Z</time></trkpt><trkpt lat="38.0763634" lon="12.6927504"><ele>246.0</ele><time>2026-04-25T18:14:39.382Z</time></trkpt><trkpt lat="38.076348" lon="12.6926377"><ele>244.99999999999997</ele><time>2026-04-25T18:14:40.382Z</time></trkpt><trkpt lat="38.0763354" lon="12.6925401"><ele>244.0</ele><time>2026-04-25T18:14:41.383Z</time></trkpt><trkpt lat="38.0763142" lon="12.6924413"><ele>243.33333333333331</ele><time>2026-04-25T18:14:42.382Z</time></trkpt><trkpt lat="38.0762883" lon="12.6923457"><ele>242.66666666666666</ele><time>2026-04-25T18:14:43.382Z</time></trkpt><trkpt lat="38.0762408" lon="12.692261"><ele>242.0</ele><time>2026-04-25T18:14:44.381Z</time></trkpt><trkpt lat="38.0761731" lon="12.6921993"><ele>241.33333333333331</ele><time>2026-04-25T18:14:45.382Z</time></trkpt><trkpt lat="38.0760837" lon="12.692153"><ele>240.66666666666666</ele><time>2026-04-25T18:14:46.382Z</time></trkpt><trkpt lat="38.0759862" lon="12.6920991"><ele>240.0</ele><time>2026-04-25T18:14:47.38Z</time></trkpt><trkpt lat="38.0758884" lon="12.6920415"><ele>240.0</ele><time>2026-04-25T18:14:48.381Z</time></trkpt><trkpt lat="38.075786" lon="12.6919628"><ele>240.0</ele><time>2026-04-25T18:14:49.382Z</time></trkpt><trkpt lat="38.0756786" lon="12.6918644"><ele>240.0</ele><time>2026-04-25T18:14:50.382Z</time></trkpt><trkpt lat="38.0755767" lon="12.691772"><ele>240.0</ele><time>2026-04-25T18:14:51.381Z</time></trkpt><trkpt lat="38.0754846" lon="12.6916652"><ele>238.5</ele><time>2026-04-25T18:14:52.382Z</time></trkpt><trkpt lat="38.0753803" lon="12.691555"><ele>237.0</ele><time>2026-04-25T18:14:53.382Z</time></trkpt><trkpt lat="38.0752747" lon="12.6914411"><ele>235.5</ele><time>2026-04-25T18:14:54.382Z</time></trkpt><trkpt lat="38.0751653" lon="12.6913324"><ele>234.0</ele><time>2026-04-25T18:14:55.381Z</time></trkpt><trkpt lat="38.0750628" lon="12.6912089"><ele>232.25</ele><time>2026-04-25T18:14:56.382Z</time></trkpt><trkpt lat="38.0749625" lon="12.6910831"><ele>230.5</ele><time>2026-04-25T18:14:57.381Z</time></trkpt><trkpt lat="38.0748654" lon="12.6909477"><ele>228.75</ele><time>2026-04-25T18:14:58.382Z</time></trkpt><trkpt lat="38.0747696" lon="12.6908116"><ele>227.0</ele><time>2026-04-25T18:14:59.381Z</time></trkpt><trkpt lat="38.0746781" lon="12.69066"><ele>227.0</ele><time>2026-04-25T18:15:00.382Z</time></trkpt><trkpt lat="38.0745791" lon="12.6905123"><ele>227.0</ele><time>2026-04-25T18:15:01.382Z</time></trkpt><trkpt lat="38.074477" lon="12.6903609"><ele>227.0</ele><time>2026-04-25T18:15:02.382Z</time></trkpt><trkpt lat="38.0743687" lon="12.6902068"><ele>227.66666666666669</ele><time>2026-04-25T18:15:03.381Z</time></trkpt><trkpt lat="38.0742579" lon="12.6900363"><ele>228.33333333333331</ele><time>2026-04-25T18:15:04.382Z</time></trkpt><trkpt lat="38.0741409" lon="12.6898636"><ele>229.0</ele><time>2026-04-25T18:15:05.382Z</time></trkpt><trkpt lat="38.0740171" lon="12.6896918"><ele>229.0</ele><time>2026-04-25T18:15:06.382Z</time></trkpt><trkpt lat="38.0738965" lon="12.6895025"><ele>229.0</ele><time>2026-04-25T18:15:07.382Z</time></trkpt><trkpt lat="38.073771" lon="12.6893088"><ele>229.0</ele><time>2026-04-25T18:15:08.38Z</time></trkpt><trkpt lat="38.0736398" lon="12.6891097"><ele>227.0</ele><time>2026-04-25T18:15:09.381Z</time></trkpt><trkpt lat="38.0735024" lon="12.6889102"><ele>225.0</ele><time>2026-04-25T18:15:10.382Z</time></trkpt><trkpt lat="38.0733644" lon="12.6887242"><ele>223.0</ele><time>2026-04-25T18:15:11.382Z</time></trkpt><trkpt lat="38.0732265" lon="12.688545"><ele>220.66666666666666</ele><time>2026-04-25T18:15:12.382Z</time></trkpt><trkpt lat="38.0730839" lon="12.6883599"><ele>218.33333333333331</ele><time>2026-04-25T18:15:13.382Z</time></trkpt><trkpt lat="38.0729533" lon="12.6881602"><ele>216.0</ele><time>2026-04-25T18:15:14.381Z</time></trkpt><trkpt lat="38.0728343" lon="12.6879481"><ele>213.0</ele><time>2026-04-25T18:15:15.382Z</time></trkpt><trkpt lat="38.072734" lon="12.6877437"><ele>210.0</ele><time>2026-04-25T18:15:16.382Z</time></trkpt><trkpt lat="38.0726372" lon="12.6875328"><ele>207.0</ele><time>2026-04-25T18:15:17.382Z</time></trkpt><trkpt lat="38.0725444" lon="12.6873206"><ele>207.0</ele><time>2026-04-25T18:15:18.382Z</time></trkpt><trkpt lat="38.0724547" lon="12.6871022"><ele>207.0</ele><time>2026-04-25T18:15:19.382Z</time></trkpt><trkpt lat="38.072365" lon="12.6868831"><ele>207.0</ele><time>2026-04-25T18:15:20.383Z</time></trkpt><trkpt lat="38.0722689" lon="12.6866707"><ele>207.33333333333331</ele><time>2026-04-25T18:15:21.381Z</time></trkpt><trkpt lat="38.0721838" lon="12.6864636"><ele>207.66666666666666</ele><time>2026-04-25T18:15:22.383Z</time></trkpt><trkpt lat="38.0721055" lon="12.6862639"><ele>208.0</ele><time>2026-04-25T18:15:23.382Z</time></trkpt><trkpt lat="38.0720409" lon="12.6860774"><ele>208.25</ele><time>2026-04-25T18:15:24.382Z</time></trkpt><trkpt lat="38.0719881" lon="12.6859068"><ele>208.5</ele><time>2026-04-25T18:15:25.382Z</time></trkpt><trkpt lat="38.0719523" lon="12.6857568"><ele>208.75</ele><time>2026-04-25T18:15:26.382Z</time></trkpt><trkpt lat="38.0719351" lon="12.685619"><ele>209.0</ele><time>2026-04-25T18:15:27.382Z</time></trkpt><trkpt lat="38.071925" lon="12.6855049"><ele>209.0</ele><time>2026-04-25T18:15:28.382Z</time></trkpt><trkpt lat="38.0719135" lon="12.6854089"><ele>209.0</ele><time>2026-04-25T18:15:29.382Z</time></trkpt><trkpt lat="38.0718657" lon="12.6852958"><ele>209.0</ele><time>2026-04-25T18:15:31.382Z</time></trkpt><trkpt lat="38.0717825" lon="12.68523"><ele>209.0</ele><time>2026-04-25T18:15:33.381Z</time></trkpt><trkpt lat="38.0717045" lon="12.6852069"><ele>209.0</ele><time>2026-04-25T18:15:34.382Z</time></trkpt><trkpt lat="38.0716077" lon="12.685189"><ele>209.75</ele><time>2026-04-25T18:15:35.382Z</time></trkpt><trkpt lat="38.0714917" lon="12.685185"><ele>210.5</ele><time>2026-04-25T18:15:36.382Z</time></trkpt><trkpt lat="38.0713519" lon="12.6851819"><ele>211.25</ele><time>2026-04-25T18:15:37.381Z</time></trkpt><trkpt lat="38.0711956" lon="12.6851731"><ele>212.0</ele><time>2026-04-25T18:15:38.382Z</time></trkpt><trkpt lat="38.0710225" lon="12.6851619"><ele>212.0</ele><time>2026-04-25T18:15:39.382Z</time></trkpt><trkpt lat="38.0708305" lon="12.685148"><ele>212.0</ele><time>2026-04-25T18:15:40.381Z</time></trkpt><trkpt lat="38.0706422" lon="12.6851238"><ele>212.0</ele><time>2026-04-25T18:15:41.382Z</time></trkpt><trkpt lat="38.0704512" lon="12.6851026"><ele>212.0</ele><time>2026-04-25T18:15:42.382Z</time></trkpt><trkpt lat="38.070263" lon="12.6850796"><ele>212.0</ele><time>2026-04-25T18:15:43.382Z</time></trkpt><trkpt lat="38.0700702" lon="12.6850548"><ele>212.0</ele><time>2026-04-25T18:15:44.382Z</time></trkpt><trkpt lat="38.0698742" lon="12.6850224"><ele>211.66666666666669</ele><time>2026-04-25T18:15:45.383Z</time></trkpt><trkpt lat="38.0696814" lon="12.684992"><ele>211.33333333333331</ele><time>2026-04-25T18:15:46.381Z</time></trkpt><trkpt lat="38.0694856" lon="12.6849545"><ele>211.0</ele><time>2026-04-25T18:15:47.382Z</time></trkpt><trkpt lat="38.0692917" lon="12.684926"><ele>209.66666666666666</ele><time>2026-04-25T18:15:48.382Z</time></trkpt><trkpt lat="38.0690898" lon="12.6849066"><ele>208.33333333333331</ele><time>2026-04-25T18:15:49.382Z</time></trkpt><trkpt lat="38.0688785" lon="12.6848838"><ele>207.0</ele><time>2026-04-25T18:15:50.382Z</time></trkpt><trkpt lat="38.0686844" lon="12.684884"><ele>207.0</ele><time>2026-04-25T18:15:51.382Z</time></trkpt><trkpt lat="38.068495" lon="12.6848914"><ele>207.0</ele><time>2026-04-25T18:15:52.382Z</time></trkpt><trkpt lat="38.0683054" lon="12.6849031"><ele>207.0</ele><time>2026-04-25T18:15:53.382Z</time></trkpt><trkpt lat="38.0681136" lon="12.6849287"><ele>205.33333333333331</ele><time>2026-04-25T18:15:54.383Z</time></trkpt><trkpt lat="38.0679173" lon="12.6849494"><ele>203.66666666666666</ele><time>2026-04-25T18:15:55.382Z</time></trkpt><trkpt lat="38.0677203" lon="12.6849754"><ele>202.0</ele><time>2026-04-25T18:15:56.382Z</time></trkpt><trkpt lat="38.0675288" lon="12.6850007"><ele>200.0</ele><time>2026-04-25T18:15:57.382Z</time></trkpt><trkpt lat="38.0673462" lon="12.685008"><ele>198.0</ele><time>2026-04-25T18:15:58.382Z</time></trkpt><trkpt lat="38.0671629" lon="12.6850004"><ele>196.0</ele><time>2026-04-25T18:15:59.382Z</time></trkpt><trkpt lat="38.0669725" lon="12.6849621"><ele>196.0</ele><time>2026-04-25T18:16:00.382Z</time></trkpt><trkpt lat="38.0667843" lon="12.6849005"><ele>196.0</ele><time>2026-04-25T18:16:01.382Z</time></trkpt><trkpt lat="38.0665937" lon="12.6848141"><ele>196.0</ele><time>2026-04-25T18:16:02.381Z</time></trkpt><trkpt lat="38.0664201" lon="12.6847048"><ele>193.33333333333331</ele><time>2026-04-25T18:16:03.382Z</time></trkpt><trkpt lat="38.0662519" lon="12.6845796"><ele>190.66666666666666</ele><time>2026-04-25T18:16:04.383Z</time></trkpt><trkpt lat="38.0660904" lon="12.6844318"><ele>188.0</ele><time>2026-04-25T18:16:05.382Z</time></trkpt><trkpt lat="38.0659364" lon="12.6842635"><ele>186.66666666666666</ele><time>2026-04-25T18:16:06.382Z</time></trkpt><trkpt lat="38.0657842" lon="12.684091"><ele>185.33333333333334</ele><time>2026-04-25T18:16:07.382Z</time></trkpt><trkpt lat="38.0656351" lon="12.6839195"><ele>184.0</ele><time>2026-04-25T18:16:08.381Z</time></trkpt><trkpt lat="38.065485" lon="12.6837555"><ele>182.33333333333334</ele><time>2026-04-25T18:16:09.382Z</time></trkpt><trkpt lat="38.0653376" lon="12.6835913"><ele>180.66666666666666</ele><time>2026-04-25T18:16:10.382Z</time></trkpt><trkpt lat="38.0651902" lon="12.6834239"><ele>179.0</ele><time>2026-04-25T18:16:11.382Z</time></trkpt><trkpt lat="38.0650351" lon="12.6832592"><ele>178.66666666666666</ele><time>2026-04-25T18:16:12.382Z</time></trkpt><trkpt lat="38.0648804" lon="12.6830878"><ele>178.33333333333334</ele><time>2026-04-25T18:16:13.383Z</time></trkpt><trkpt lat="38.0647209" lon="12.68292"><ele>178.0</ele><time>2026-04-25T18:16:14.382Z</time></trkpt><trkpt lat="38.0645527" lon="12.6827575"><ele>178.66666666666669</ele><time>2026-04-25T18:16:15.382Z</time></trkpt><trkpt lat="38.0643845" lon="12.6826159"><ele>179.33333333333334</ele><time>2026-04-25T18:16:16.382Z</time></trkpt><trkpt lat="38.0642132" lon="12.682497"><ele>180.0</ele><time>2026-04-25T18:16:17.382Z</time></trkpt><trkpt lat="38.0640306" lon="12.6823925"><ele>178.0</ele><time>2026-04-25T18:16:18.384Z</time></trkpt><trkpt lat="38.0638471" lon="12.6823112"><ele>176.0</ele><time>2026-04-25T18:16:19.382Z</time></trkpt><trkpt lat="38.0636596" lon="12.6822469"><ele>174.0</ele><time>2026-04-25T18:16:20.382Z</time></trkpt><trkpt lat="38.0634762" lon="12.6821902"><ele>174.0</ele><time>2026-04-25T18:16:21.382Z</time></trkpt><trkpt lat="38.0632861" lon="12.6821648"><ele>174.0</ele><time>2026-04-25T18:16:22.382Z</time></trkpt><trkpt lat="38.0630984" lon="12.6821675"><ele>174.0</ele><time>2026-04-25T18:16:23.381Z</time></trkpt><trkpt lat="38.0629099" lon="12.6821953"><ele>172.66666666666666</ele><time>2026-04-25T18:16:24.382Z</time></trkpt><trkpt lat="38.0627276" lon="12.6822289"><ele>171.33333333333331</ele><time>2026-04-25T18:16:25.382Z</time></trkpt><trkpt lat="38.0625618" lon="12.6822793"><ele>170.0</ele><time>2026-04-25T18:16:26.382Z</time></trkpt><trkpt lat="38.0624122" lon="12.6823408"><ele>169.25</ele><time>2026-04-25T18:16:27.382Z</time></trkpt><trkpt lat="38.0622782" lon="12.6824126"><ele>168.5</ele><time>2026-04-25T18:16:28.383Z</time></trkpt><trkpt lat="38.0621546" lon="12.6824763"><ele>167.75</ele><time>2026-04-25T18:16:29.383Z</time></trkpt><trkpt lat="38.062062" lon="12.6825381"><ele>167.0</ele><time>2026-04-25T18:16:30.382Z</time></trkpt><trkpt lat="38.0619821" lon="12.68259"><ele>167.0</ele><time>2026-04-25T18:16:31.382Z</time></trkpt><trkpt lat="38.0619209" lon="12.6826328"><ele>167.0</ele><time>2026-04-25T18:16:32.382Z</time></trkpt><trkpt lat="38.0618542" lon="12.6826717"><ele>167.0</ele><time>2026-04-25T18:16:33.381Z</time></trkpt><trkpt lat="38.0617933" lon="12.6827225"><ele>167.0</ele><time>2026-04-25T18:16:34.382Z</time></trkpt><trkpt lat="38.0617279" lon="12.6827874"><ele>167.0</ele><time>2026-04-25T18:16:35.381Z</time></trkpt><trkpt lat="38.0616699" lon="12.6828683"><ele>167.0</ele><time>2026-04-25T18:16:36.382Z</time></trkpt><trkpt lat="38.061606" lon="12.6829592"><ele>162.0</ele><time>2026-04-25T18:16:37.382Z</time></trkpt><trkpt lat="38.0615314" lon="12.6830678"><ele>157.0</ele><time>2026-04-25T18:16:38.382Z</time></trkpt><trkpt lat="38.0614544" lon="12.6832"><ele>152.0</ele><time>2026-04-25T18:16:39.382Z</time></trkpt><trkpt lat="38.0613661" lon="12.6833518"><ele>147.0</ele><time>2026-04-25T18:16:40.382Z</time></trkpt><trkpt lat="38.0612774" lon="12.6835287"><ele>147.0</ele><time>2026-04-25T18:16:41.383Z</time></trkpt><trkpt lat="38.0611761" lon="12.683722"><ele>147.0</ele><time>2026-04-25T18:16:42.381Z</time></trkpt><trkpt lat="38.0610849" lon="12.6839243"><ele>147.0</ele><time>2026-04-25T18:16:43.382Z</time></trkpt><trkpt lat="38.0609935" lon="12.6841472"><ele>147.0</ele><time>2026-04-25T18:16:44.381Z</time></trkpt><trkpt lat="38.0609064" lon="12.6843926"><ele>147.0</ele><time>2026-04-25T18:16:45.382Z</time></trkpt><trkpt lat="38.0608195" lon="12.6846398"><ele>147.0</ele><time>2026-04-25T18:16:46.383Z</time></trkpt><trkpt lat="38.060719" lon="12.6848909"><ele>146.5</ele><time>2026-04-25T18:16:47.383Z</time></trkpt><trkpt lat="38.0606129" lon="12.6851412"><ele>146.0</ele><time>2026-04-25T18:16:48.381Z</time></trkpt><trkpt lat="38.0604963" lon="12.6853874"><ele>148.33333333333331</ele><time>2026-04-25T18:16:49.383Z</time></trkpt><trkpt lat="38.060366" lon="12.6856179"><ele>150.66666666666666</ele><time>2026-04-25T18:16:50.381Z</time></trkpt><trkpt lat="38.0602283" lon="12.6858327"><ele>153.0</ele><time>2026-04-25T18:16:51.383Z</time></trkpt><trkpt lat="38.0600868" lon="12.6860387"><ele>150.33333333333334</ele><time>2026-04-25T18:16:52.381Z</time></trkpt><trkpt lat="38.059946" lon="12.6862465"><ele>147.66666666666669</ele><time>2026-04-25T18:16:53.382Z</time></trkpt><trkpt lat="38.0598045" lon="12.6864493"><ele>145.0</ele><time>2026-04-25T18:16:54.382Z</time></trkpt><trkpt lat="38.0596592" lon="12.6866441"><ele>145.0</ele><time>2026-04-25T18:16:55.382Z</time></trkpt><trkpt lat="38.0595263" lon="12.6868323"><ele>145.0</ele><time>2026-04-25T18:16:56.383Z</time></trkpt><trkpt lat="38.0593967" lon="12.687014"><ele>145.0</ele><time>2026-04-25T18:16:57.382Z</time></trkpt><trkpt lat="38.0592708" lon="12.6871876"><ele>143.66666666666669</ele><time>2026-04-25T18:16:58.382Z</time></trkpt><trkpt lat="38.0591603" lon="12.6873549"><ele>142.33333333333334</ele><time>2026-04-25T18:16:59.382Z</time></trkpt><trkpt lat="38.0590443" lon="12.6875104"><ele>141.0</ele><time>2026-04-25T18:17:00.383Z</time></trkpt><trkpt lat="38.0589302" lon="12.6876524"><ele>142.33333333333334</ele><time>2026-04-25T18:17:01.384Z</time></trkpt><trkpt lat="38.0588058" lon="12.6877822"><ele>143.66666666666669</ele><time>2026-04-25T18:17:02.382Z</time></trkpt><trkpt lat="38.0586785" lon="12.6878985"><ele>145.0</ele><time>2026-04-25T18:17:03.383Z</time></trkpt><trkpt lat="38.0585509" lon="12.6879938"><ele>145.0</ele><time>2026-04-25T18:17:04.381Z</time></trkpt><trkpt lat="38.0584357" lon="12.6880721"><ele>145.0</ele><time>2026-04-25T18:17:05.383Z</time></trkpt><trkpt lat="38.0583296" lon="12.6881407"><ele>145.0</ele><time>2026-04-25T18:17:06.383Z</time></trkpt><trkpt lat="38.0582347" lon="12.6881944"><ele>145.0</ele><time>2026-04-25T18:17:07.382Z</time></trkpt><trkpt lat="38.0581489" lon="12.6882298"><ele>145.0</ele><time>2026-04-25T18:17:08.383Z</time></trkpt><trkpt lat="38.0580656" lon="12.6882589"><ele>143.71428571428572</ele><time>2026-04-25T18:17:09.383Z</time></trkpt><trkpt lat="38.0579945" lon="12.68828"><ele>142.42857142857144</ele><time>2026-04-25T18:17:10.381Z</time></trkpt><trkpt lat="38.0579314" lon="12.688299"><ele>141.14285714285714</ele><time>2026-04-25T18:17:11.382Z</time></trkpt><trkpt lat="38.0578699" lon="12.6883182"><ele>139.85714285714286</ele><time>2026-04-25T18:17:12.383Z</time></trkpt><trkpt lat="38.0578011" lon="12.6883288"><ele>138.57142857142856</ele><time>2026-04-25T18:17:13.382Z</time></trkpt><trkpt lat="38.0577179" lon="12.6883381"><ele>137.28571428571428</ele><time>2026-04-25T18:17:14.382Z</time></trkpt><trkpt lat="38.0576305" lon="12.6883614"><ele>136.0</ele><time>2026-04-25T18:17:15.383Z</time></trkpt><trkpt lat="38.0575487" lon="12.6883752"><ele>136.0</ele><time>2026-04-25T18:17:16.383Z</time></trkpt><trkpt lat="38.0574649" lon="12.6883835"><ele>136.0</ele><time>2026-04-25T18:17:17.382Z</time></trkpt><trkpt lat="38.0573896" lon="12.688385"><ele>136.0</ele><time>2026-04-25T18:17:18.382Z</time></trkpt><trkpt lat="38.0573055" lon="12.6883814"><ele>136.0</ele><time>2026-04-25T18:17:19.381Z</time></trkpt><trkpt lat="38.0572109" lon="12.688373"><ele>136.0</ele><time>2026-04-25T18:17:20.383Z</time></trkpt><trkpt lat="38.0571105" lon="12.6883637"><ele>136.0</ele><time>2026-04-25T18:17:21.383Z</time></trkpt><trkpt lat="38.057016" lon="12.6883457"><ele>134.8</ele><time>2026-04-25T18:17:22.383Z</time></trkpt><trkpt lat="38.0569261" lon="12.6883266"><ele>133.6</ele><time>2026-04-25T18:17:23.383Z</time></trkpt><trkpt lat="38.0568255" lon="12.6883139"><ele>132.4</ele><time>2026-04-25T18:17:24.382Z</time></trkpt><trkpt lat="38.0567115" lon="12.6883057"><ele>131.2</ele><time>2026-04-25T18:17:25.384Z</time></trkpt><trkpt lat="38.056599" lon="12.6882971"><ele>130.0</ele><time>2026-04-25T18:17:26.382Z</time></trkpt><trkpt lat="38.0564702" lon="12.6882849"><ele>128.0</ele><time>2026-04-25T18:17:27.383Z</time></trkpt><trkpt lat="38.0563187" lon="12.6882719"><ele>126.0</ele><time>2026-04-25T18:17:28.383Z</time></trkpt><trkpt lat="38.0561397" lon="12.6882495"><ele>124.0</ele><time>2026-04-25T18:17:29.382Z</time></trkpt><trkpt lat="38.0559451" lon="12.6882172"><ele>122.66666666666667</ele><time>2026-04-25T18:17:30.383Z</time></trkpt><trkpt lat="38.0557405" lon="12.6881773"><ele>121.33333333333334</ele><time>2026-04-25T18:17:31.384Z</time></trkpt><trkpt lat="38.0555341" lon="12.6881394"><ele>120.0</ele><time>2026-04-25T18:17:32.382Z</time></trkpt><trkpt lat="38.0553395" lon="12.6880984"><ele>120.0</ele><time>2026-04-25T18:17:33.382Z</time></trkpt><trkpt lat="38.0551486" lon="12.688067"><ele>120.0</ele><time>2026-04-25T18:17:34.384Z</time></trkpt><trkpt lat="38.054966" lon="12.6880413"><ele>120.0</ele><time>2026-04-25T18:17:35.382Z</time></trkpt><trkpt lat="38.0547916" lon="12.6880127"><ele>118.66666666666666</ele><time>2026-04-25T18:17:36.383Z</time></trkpt><trkpt lat="38.0546171" lon="12.6879907"><ele>117.33333333333333</ele><time>2026-04-25T18:17:37.383Z</time></trkpt><trkpt lat="38.0544467" lon="12.687971"><ele>116.0</ele><time>2026-04-25T18:17:38.382Z</time></trkpt><trkpt lat="38.0542623" lon="12.6879462"><ele>114.66666666666666</ele><time>2026-04-25T18:17:39.383Z</time></trkpt><trkpt lat="38.054063" lon="12.6879271"><ele>113.33333333333334</ele><time>2026-04-25T18:17:40.383Z</time></trkpt><trkpt lat="38.0538587" lon="12.6879052"><ele>112.0</ele><time>2026-04-25T18:17:41.383Z</time></trkpt><trkpt lat="38.0536411" lon="12.6878762"><ele>112.0</ele><time>2026-04-25T18:17:42.382Z</time></trkpt><trkpt lat="38.0534088" lon="12.6878449"><ele>112.0</ele><time>2026-04-25T18:17:43.381Z</time></trkpt><trkpt lat="38.0531718" lon="12.6878133"><ele>111.5</ele><time>2026-04-25T18:17:44.383Z</time></trkpt><trkpt lat="38.0529317" lon="12.687779"><ele>111.0</ele><time>2026-04-25T18:17:45.381Z</time></trkpt><trkpt lat="38.0526885" lon="12.6877464"><ele>108.5</ele><time>2026-04-25T18:17:46.383Z</time></trkpt><trkpt lat="38.0524397" lon="12.6877087"><ele>106.0</ele><time>2026-04-25T18:17:47.383Z</time></trkpt><trkpt lat="38.0521904" lon="12.6876756"><ele>106.0</ele><time>2026-04-25T18:17:48.382Z</time></trkpt><trkpt lat="38.0519392" lon="12.6876331"><ele>106.0</ele><time>2026-04-25T18:17:49.382Z</time></trkpt><trkpt lat="38.0516937" lon="12.6875955"><ele>106.0</ele><time>2026-04-25T18:17:50.382Z</time></trkpt><trkpt lat="38.051456" lon="12.6875587"><ele>106.0</ele><time>2026-04-25T18:17:51.383Z</time></trkpt><trkpt lat="38.0512081" lon="12.6875212"><ele>106.0</ele><time>2026-04-25T18:17:52.383Z</time></trkpt><trkpt lat="38.0509641" lon="12.6874887"><ele>106.0</ele><time>2026-04-25T18:17:53.382Z</time></trkpt><trkpt lat="38.0507257" lon="12.6874574"><ele>106.5</ele><time>2026-04-25T18:17:54.382Z</time></trkpt><trkpt lat="38.050486" lon="12.687421"><ele>107.0</ele><time>2026-04-25T18:17:55.383Z</time></trkpt><trkpt lat="38.0502518" lon="12.6873854"><ele>107.0</ele><time>2026-04-25T18:17:56.382Z</time></trkpt><trkpt lat="38.0500173" lon="12.6873498"><ele>107.0</ele><time>2026-04-25T18:17:57.382Z</time></trkpt><trkpt lat="38.0497852" lon="12.6873147"><ele>106.0</ele><time>2026-04-25T18:17:58.382Z</time></trkpt><trkpt lat="38.0495562" lon="12.6872796"><ele>105.0</ele><time>2026-04-25T18:17:59.383Z</time></trkpt><trkpt lat="38.0493259" lon="12.6872456"><ele>105.5</ele><time>2026-04-25T18:18:00.382Z</time></trkpt><trkpt lat="38.0490951" lon="12.6872146"><ele>106.0</ele><time>2026-04-25T18:18:01.382Z</time></trkpt><trkpt lat="38.0488666" lon="12.6871814"><ele>106.0</ele><time>2026-04-25T18:18:02.383Z</time></trkpt><trkpt lat="38.0486398" lon="12.687146"><ele>106.0</ele><time>2026-04-25T18:18:03.382Z</time></trkpt><trkpt lat="38.0484066" lon="12.6871001"><ele>106.0</ele><time>2026-04-25T18:18:04.383Z</time></trkpt><trkpt lat="38.048174" lon="12.6870618"><ele>106.0</ele><time>2026-04-25T18:18:05.383Z</time></trkpt><trkpt lat="38.0479428" lon="12.6870289"><ele>106.0</ele><time>2026-04-25T18:18:06.384Z</time></trkpt><trkpt lat="38.0477074" lon="12.6869929"><ele>106.0</ele><time>2026-04-25T18:18:07.382Z</time></trkpt><trkpt lat="38.0474773" lon="12.6869606"><ele>104.0</ele><time>2026-04-25T18:18:08.381Z</time></trkpt><trkpt lat="38.0472423" lon="12.6869216"><ele>102.0</ele><time>2026-04-25T18:18:09.383Z</time></trkpt><trkpt lat="38.0470087" lon="12.6868852"><ele>102.0</ele><time>2026-04-25T18:18:10.383Z</time></trkpt><trkpt lat="38.046776" lon="12.6868499"><ele>102.0</ele><time>2026-04-25T18:18:11.383Z</time></trkpt><trkpt lat="38.0465441" lon="12.6868196"><ele>101.5</ele><time>2026-04-25T18:18:12.382Z</time></trkpt><trkpt lat="38.0463103" lon="12.6867851"><ele>101.0</ele><time>2026-04-25T18:18:13.381Z</time></trkpt><trkpt lat="38.0460792" lon="12.6867562"><ele>101.0</ele><time>2026-04-25T18:18:14.383Z</time></trkpt><trkpt lat="38.0458457" lon="12.6867251"><ele>101.0</ele><time>2026-04-25T18:18:15.383Z</time></trkpt><trkpt lat="38.0456151" lon="12.6866917"><ele>103.5</ele><time>2026-04-25T18:18:16.383Z</time></trkpt><trkpt lat="38.0453856" lon="12.6866601"><ele>106.0</ele><time>2026-04-25T18:18:17.383Z</time></trkpt><trkpt lat="38.0451567" lon="12.6866268"><ele>106.33333333333334</ele><time>2026-04-25T18:18:18.382Z</time></trkpt><trkpt lat="38.0449281" lon="12.6865944"><ele>106.66666666666666</ele><time>2026-04-25T18:18:19.382Z</time></trkpt><trkpt lat="38.044714" lon="12.6865656"><ele>107.0</ele><time>2026-04-25T18:18:20.382Z</time></trkpt><trkpt lat="38.0445089" lon="12.6865394"><ele>107.0</ele><time>2026-04-25T18:18:21.383Z</time></trkpt><trkpt lat="38.0443232" lon="12.6865105"><ele>107.0</ele><time>2026-04-25T18:18:22.382Z</time></trkpt><trkpt lat="38.0441416" lon="12.6864798"><ele>107.0</ele><time>2026-04-25T18:18:23.382Z</time></trkpt><trkpt lat="38.0439707" lon="12.6864621"><ele>109.0</ele><time>2026-04-25T18:18:24.383Z</time></trkpt><trkpt lat="38.0438168" lon="12.6864365"><ele>111.0</ele><time>2026-04-25T18:18:25.382Z</time></trkpt><trkpt lat="38.0436757" lon="12.6864177"><ele>113.0</ele><time>2026-04-25T18:18:26.383Z</time></trkpt><trkpt lat="38.0435497" lon="12.6863986"><ele>115.0</ele><time>2026-04-25T18:18:27.383Z</time></trkpt><trkpt lat="38.0434362" lon="12.6863841"><ele>115.0</ele><time>2026-04-25T18:18:28.383Z</time></trkpt><trkpt lat="38.0433274" lon="12.6863599"><ele>115.0</ele><time>2026-04-25T18:18:29.382Z</time></trkpt><trkpt lat="38.0432325" lon="12.6863263"><ele>115.0</ele><time>2026-04-25T18:18:30.383Z</time></trkpt><trkpt lat="38.0431359" lon="12.6862894"><ele>115.0</ele><time>2026-04-25T18:18:31.382Z</time></trkpt><trkpt lat="38.0430564" lon="12.6862314"><ele>115.0</ele><time>2026-04-25T18:18:32.384Z</time></trkpt><trkpt lat="38.0429826" lon="12.6861659"><ele>116.0</ele><time>2026-04-25T18:18:33.382Z</time></trkpt><trkpt lat="38.0429163" lon="12.6860791"><ele>117.0</ele><time>2026-04-25T18:18:34.383Z</time></trkpt><trkpt lat="38.0428559" lon="12.6859757"><ele>118.0</ele><time>2026-04-25T18:18:35.383Z</time></trkpt><trkpt lat="38.0427998" lon="12.6858506"><ele>119.0</ele><time>2026-04-25T18:18:36.382Z</time></trkpt><trkpt lat="38.0427438" lon="12.6857064"><ele>120.0</ele><time>2026-04-25T18:18:37.382Z</time></trkpt><trkpt lat="38.0426846" lon="12.6855476"><ele>120.0</ele><time>2026-04-25T18:18:38.382Z</time></trkpt><trkpt lat="38.0426208" lon="12.6853703"><ele>120.0</ele><time>2026-04-25T18:18:39.382Z</time></trkpt><trkpt lat="38.0425587" lon="12.68518"><ele>120.0</ele><time>2026-04-25T18:18:40.383Z</time></trkpt><trkpt lat="38.042493" lon="12.6849764"><ele>120.33333333333334</ele><time>2026-04-25T18:18:41.383Z</time></trkpt><trkpt lat="38.0424326" lon="12.6847769"><ele>120.66666666666667</ele><time>2026-04-25T18:18:42.383Z</time></trkpt><trkpt lat="38.0423727" lon="12.6845674"><ele>121.0</ele><time>2026-04-25T18:18:43.383Z</time></trkpt><trkpt lat="38.0423063" lon="12.6843484"><ele>121.0</ele><time>2026-04-25T18:18:44.383Z</time></trkpt><trkpt lat="38.0422417" lon="12.6841217"><ele>121.0</ele><time>2026-04-25T18:18:45.383Z</time></trkpt><trkpt lat="38.0421868" lon="12.6838961"><ele>121.0</ele><time>2026-04-25T18:18:46.382Z</time></trkpt><trkpt lat="38.0421331" lon="12.6836713"><ele>120.0</ele><time>2026-04-25T18:18:47.382Z</time></trkpt><trkpt lat="38.0420781" lon="12.6834369"><ele>119.0</ele><time>2026-04-25T18:18:48.383Z</time></trkpt><trkpt lat="38.0420245" lon="12.683195"><ele>118.0</ele><time>2026-04-25T18:18:49.383Z</time></trkpt><trkpt lat="38.0419713" lon="12.6829538"><ele>119.0</ele><time>2026-04-25T18:18:50.383Z</time></trkpt><trkpt lat="38.0419261" lon="12.682709"><ele>120.0</ele><time>2026-04-25T18:18:51.382Z</time></trkpt><trkpt lat="38.041874" lon="12.6824517"><ele>121.0</ele><time>2026-04-25T18:18:52.383Z</time></trkpt><trkpt lat="38.0418369" lon="12.6822064"><ele>121.0</ele><time>2026-04-25T18:18:53.383Z</time></trkpt><trkpt lat="38.0418021" lon="12.6819522"><ele>121.0</ele><time>2026-04-25T18:18:54.383Z</time></trkpt><trkpt lat="38.0417741" lon="12.6817094"><ele>121.0</ele><time>2026-04-25T18:18:55.383Z</time></trkpt><trkpt lat="38.0417544" lon="12.6814616"><ele>121.66666666666667</ele><time>2026-04-25T18:18:56.383Z</time></trkpt><trkpt lat="38.0417383" lon="12.6812195"><ele>122.33333333333334</ele><time>2026-04-25T18:18:57.383Z</time></trkpt><trkpt lat="38.0417222" lon="12.6809691"><ele>123.0</ele><time>2026-04-25T18:18:58.383Z</time></trkpt><trkpt lat="38.0417125" lon="12.680708"><ele>123.33333333333334</ele><time>2026-04-25T18:18:59.382Z</time></trkpt><trkpt lat="38.0416893" lon="12.68047"><ele>123.66666666666667</ele><time>2026-04-25T18:19:00.383Z</time></trkpt><trkpt lat="38.0416785" lon="12.6802334"><ele>124.0</ele><time>2026-04-25T18:19:01.383Z</time></trkpt><trkpt lat="38.0416708" lon="12.6799908"><ele>124.33333333333334</ele><time>2026-04-25T18:19:02.383Z</time></trkpt><trkpt lat="38.0416536" lon="12.6797571"><ele>124.66666666666666</ele><time>2026-04-25T18:19:03.383Z</time></trkpt><trkpt lat="38.0416442" lon="12.6795278"><ele>125.0</ele><time>2026-04-25T18:19:04.382Z</time></trkpt><trkpt lat="38.0416302" lon="12.6792884"><ele>127.66666666666666</ele><time>2026-04-25T18:19:05.383Z</time></trkpt><trkpt lat="38.0416187" lon="12.6790505"><ele>130.33333333333334</ele><time>2026-04-25T18:19:06.383Z</time></trkpt><trkpt lat="38.0416082" lon="12.678809"><ele>133.0</ele><time>2026-04-25T18:19:07.383Z</time></trkpt><trkpt lat="38.0415921" lon="12.6785711"><ele>133.66666666666669</ele><time>2026-04-25T18:19:08.383Z</time></trkpt><trkpt lat="38.0415732" lon="12.6783306"><ele>134.33333333333334</ele><time>2026-04-25T18:19:09.382Z</time></trkpt><trkpt lat="38.0415626" lon="12.678093"><ele>135.0</ele><time>2026-04-25T18:19:10.383Z</time></trkpt><trkpt lat="38.0415549" lon="12.6778534"><ele>133.33333333333334</ele><time>2026-04-25T18:19:11.383Z</time></trkpt><trkpt lat="38.041539" lon="12.6776006"><ele>131.66666666666669</ele><time>2026-04-25T18:19:12.383Z</time></trkpt><trkpt lat="38.0415247" lon="12.677356"><ele>130.0</ele><time>2026-04-25T18:19:13.383Z</time></trkpt><trkpt lat="38.0415161" lon="12.6771145"><ele>129.33333333333334</ele><time>2026-04-25T18:19:14.384Z</time></trkpt><trkpt lat="38.041503" lon="12.6768686"><ele>128.66666666666666</ele><time>2026-04-25T18:19:15.383Z</time></trkpt><trkpt lat="38.0414904" lon="12.6766157"><ele>128.0</ele><time>2026-04-25T18:19:16.383Z</time></trkpt><trkpt lat="38.0414733" lon="12.6763572"><ele>128.0</ele><time>2026-04-25T18:19:17.384Z</time></trkpt><trkpt lat="38.0414612" lon="12.6761061"><ele>128.0</ele><time>2026-04-25T18:19:18.383Z</time></trkpt><trkpt lat="38.0414502" lon="12.6758585"><ele>128.0</ele><time>2026-04-25T18:19:19.383Z</time></trkpt><trkpt lat="38.0414326" lon="12.6756125"><ele>127.33333333333333</ele><time>2026-04-25T18:19:20.383Z</time></trkpt><trkpt lat="38.0414157" lon="12.6753786"><ele>126.66666666666666</ele><time>2026-04-25T18:19:21.383Z</time></trkpt><trkpt lat="38.0414023" lon="12.675144"><ele>126.0</ele><time>2026-04-25T18:19:22.383Z</time></trkpt><trkpt lat="38.0413919" lon="12.6749083"><ele>126.0</ele><time>2026-04-25T18:19:23.383Z</time></trkpt><trkpt lat="38.0413847" lon="12.6746711"><ele>126.0</ele><time>2026-04-25T18:19:24.383Z</time></trkpt><trkpt lat="38.0413771" lon="12.6744339"><ele>126.0</ele><time>2026-04-25T18:19:25.382Z</time></trkpt><trkpt lat="38.0413648" lon="12.6741941"><ele>126.0</ele><time>2026-04-25T18:19:26.383Z</time></trkpt><trkpt lat="38.0413498" lon="12.6737382"><ele>126.0</ele><time>2026-04-25T18:19:28.383Z</time></trkpt><trkpt lat="38.0413451" lon="12.6735053"><ele>126.0</ele><time>2026-04-25T18:19:29.383Z</time></trkpt><trkpt lat="38.0413348" lon="12.6732652"><ele>126.0</ele><time>2026-04-25T18:19:30.383Z</time></trkpt><trkpt lat="38.0413318" lon="12.6730198"><ele>126.0</ele><time>2026-04-25T18:19:31.384Z</time></trkpt><trkpt lat="38.0413255" lon="12.6727643"><ele>126.66666666666666</ele><time>2026-04-25T18:19:32.383Z</time></trkpt><trkpt lat="38.04132" lon="12.6724863"><ele>127.33333333333333</ele><time>2026-04-25T18:19:33.384Z</time></trkpt><trkpt lat="38.0413175" lon="12.6722143"><ele>128.0</ele><time>2026-04-25T18:19:34.382Z</time></trkpt><trkpt lat="38.041313" lon="12.6719298"><ele>128.33333333333331</ele><time>2026-04-25T18:19:35.383Z</time></trkpt><trkpt lat="38.0413126" lon="12.6716652"><ele>128.66666666666666</ele><time>2026-04-25T18:19:36.383Z</time></trkpt><trkpt lat="38.0413164" lon="12.6714034"><ele>129.0</ele><time>2026-04-25T18:19:37.382Z</time></trkpt><trkpt lat="38.041316" lon="12.6711565"><ele>129.33333333333334</ele><time>2026-04-25T18:19:38.383Z</time></trkpt><trkpt lat="38.0413129" lon="12.6709107"><ele>129.66666666666669</ele><time>2026-04-25T18:19:39.383Z</time></trkpt><trkpt lat="38.0413048" lon="12.6706775"><ele>130.0</ele><time>2026-04-25T18:19:40.384Z</time></trkpt><trkpt lat="38.0412915" lon="12.6704495"><ele>129.66666666666669</ele><time>2026-04-25T18:19:41.383Z</time></trkpt><trkpt lat="38.0412508" lon="12.6702248"><ele>129.33333333333334</ele><time>2026-04-25T18:19:42.383Z</time></trkpt><trkpt lat="38.0411983" lon="12.669991"><ele>129.0</ele><time>2026-04-25T18:19:43.383Z</time></trkpt><trkpt lat="38.0411391" lon="12.6697354"><ele>129.0</ele><time>2026-04-25T18:19:44.383Z</time></trkpt><trkpt lat="38.0410727" lon="12.6694735"><ele>129.0</ele><time>2026-04-25T18:19:45.383Z</time></trkpt><trkpt lat="38.0410015" lon="12.6691997"><ele>129.0</ele><time>2026-04-25T18:19:46.383Z</time></trkpt><trkpt lat="38.0409243" lon="12.6689192"><ele>129.0</ele><time>2026-04-25T18:19:47.383Z</time></trkpt><trkpt lat="38.040835" lon="12.6686382"><ele>129.0</ele><time>2026-04-25T18:19:48.383Z</time></trkpt><trkpt lat="38.0407471" lon="12.6683575"><ele>129.5</ele><time>2026-04-25T18:19:49.383Z</time></trkpt><trkpt lat="38.0406641" lon="12.6680653"><ele>130.0</ele><time>2026-04-25T18:19:50.383Z</time></trkpt><trkpt lat="38.0405813" lon="12.6677567"><ele>130.0</ele><time>2026-04-25T18:19:51.383Z</time></trkpt><trkpt lat="38.040509" lon="12.6674539"><ele>130.0</ele><time>2026-04-25T18:19:52.383Z</time></trkpt><trkpt lat="38.0404563" lon="12.6671376"><ele>130.0</ele><time>2026-04-25T18:19:53.383Z</time></trkpt><trkpt lat="38.0404106" lon="12.666819"><ele>130.0</ele><time>2026-04-25T18:19:54.383Z</time></trkpt><trkpt lat="38.040385" lon="12.6665098"><ele>130.0</ele><time>2026-04-25T18:19:55.383Z</time></trkpt><trkpt lat="38.0403706" lon="12.6662054"><ele>130.0</ele><time>2026-04-25T18:19:56.382Z</time></trkpt><trkpt lat="38.040369" lon="12.6658974"><ele>131.0</ele><time>2026-04-25T18:19:57.384Z</time></trkpt><trkpt lat="38.0403731" lon="12.6655761"><ele>132.0</ele><time>2026-04-25T18:19:58.383Z</time></trkpt><trkpt lat="38.0403882" lon="12.6652614"><ele>132.5</ele><time>2026-04-25T18:19:59.383Z</time></trkpt><trkpt lat="38.0404024" lon="12.664951"><ele>133.0</ele><time>2026-04-25T18:20:00.383Z</time></trkpt><trkpt lat="38.0404183" lon="12.6646446"><ele>135.0</ele><time>2026-04-25T18:20:01.383Z</time></trkpt><trkpt lat="38.0404307" lon="12.6643337"><ele>137.0</ele><time>2026-04-25T18:20:02.383Z</time></trkpt><trkpt lat="38.0404454" lon="12.6640271"><ele>137.0</ele><time>2026-04-25T18:20:03.383Z</time></trkpt><trkpt lat="38.0404576" lon="12.663725"><ele>137.0</ele><time>2026-04-25T18:20:04.383Z</time></trkpt><trkpt lat="38.0404615" lon="12.6634235"><ele>139.5</ele><time>2026-04-25T18:20:05.383Z</time></trkpt><trkpt lat="38.0404501" lon="12.6631328"><ele>142.0</ele><time>2026-04-25T18:20:06.383Z</time></trkpt><trkpt lat="38.0404314" lon="12.6628356"><ele>143.0</ele><time>2026-04-25T18:20:07.384Z</time></trkpt><trkpt lat="38.0403839" lon="12.6625564"><ele>144.0</ele><time>2026-04-25T18:20:08.383Z</time></trkpt><trkpt lat="38.0403155" lon="12.6622786"><ele>144.0</ele><time>2026-04-25T18:20:09.384Z</time></trkpt><trkpt lat="38.0402277" lon="12.6620169"><ele>144.0</ele><time>2026-04-25T18:20:10.383Z</time></trkpt><trkpt lat="38.0401245" lon="12.6617673"><ele>144.0</ele><time>2026-04-25T18:20:11.383Z</time></trkpt><trkpt lat="38.0400045" lon="12.6615278"><ele>144.66666666666666</ele><time>2026-04-25T18:20:12.384Z</time></trkpt><trkpt lat="38.0398761" lon="12.6613061"><ele>145.33333333333331</ele><time>2026-04-25T18:20:13.383Z</time></trkpt><trkpt lat="38.0397354" lon="12.6611176"><ele>146.0</ele><time>2026-04-25T18:20:14.383Z</time></trkpt><trkpt lat="38.0395943" lon="12.6609495"><ele>146.0</ele><time>2026-04-25T18:20:15.383Z</time></trkpt><trkpt lat="38.0394529" lon="12.6608039"><ele>146.0</ele><time>2026-04-25T18:20:16.383Z</time></trkpt><trkpt lat="38.03931" lon="12.6606712"><ele>146.0</ele><time>2026-04-25T18:20:17.384Z</time></trkpt><trkpt lat="38.0391537" lon="12.6605406"><ele>148.0</ele><time>2026-04-25T18:20:18.383Z</time></trkpt><trkpt lat="38.0390093" lon="12.6604169"><ele>150.0</ele><time>2026-04-25T18:20:19.384Z</time></trkpt><trkpt lat="38.0388747" lon="12.6603091"><ele>152.0</ele><time>2026-04-25T18:20:20.384Z</time></trkpt><trkpt lat="38.0387427" lon="12.6602037"><ele>152.0</ele><time>2026-04-25T18:20:21.383Z</time></trkpt><trkpt lat="38.0386163" lon="12.6600971"><ele>152.0</ele><time>2026-04-25T18:20:22.384Z</time></trkpt><trkpt lat="38.0384973" lon="12.6600062"><ele>152.0</ele><time>2026-04-25T18:20:23.383Z</time></trkpt><trkpt lat="38.0383931" lon="12.6599041"><ele>152.0</ele><time>2026-04-25T18:20:24.383Z</time></trkpt><trkpt lat="38.0383006" lon="12.6597946"><ele>154.25</ele><time>2026-04-25T18:20:25.383Z</time></trkpt><trkpt lat="38.0382285" lon="12.659671"><ele>156.5</ele><time>2026-04-25T18:20:26.383Z</time></trkpt><trkpt lat="38.0381811" lon="12.6595362"><ele>158.75</ele><time>2026-04-25T18:20:27.383Z</time></trkpt><trkpt lat="38.0381552" lon="12.6593828"><ele>161.0</ele><time>2026-04-25T18:20:28.383Z</time></trkpt><trkpt lat="38.0381438" lon="12.6592141"><ele>161.75</ele><time>2026-04-25T18:20:29.383Z</time></trkpt><trkpt lat="38.0381477" lon="12.6590423"><ele>162.5</ele><time>2026-04-25T18:20:30.383Z</time></trkpt><trkpt lat="38.0381513" lon="12.6588669"><ele>163.25</ele><time>2026-04-25T18:20:31.384Z</time></trkpt><trkpt lat="38.0381567" lon="12.6586919"><ele>164.0</ele><time>2026-04-25T18:20:32.382Z</time></trkpt><trkpt lat="38.0381637" lon="12.6585163"><ele>165.25</ele><time>2026-04-25T18:20:33.383Z</time></trkpt><trkpt lat="38.0381605" lon="12.6583448"><ele>166.5</ele><time>2026-04-25T18:20:34.383Z</time></trkpt><trkpt lat="38.0381532" lon="12.6581674"><ele>167.75</ele><time>2026-04-25T18:20:35.383Z</time></trkpt><trkpt lat="38.0381364" lon="12.6579851"><ele>169.0</ele><time>2026-04-25T18:20:36.383Z</time></trkpt><trkpt lat="38.0380979" lon="12.6578089"><ele>169.75</ele><time>2026-04-25T18:20:37.383Z</time></trkpt><trkpt lat="38.0380622" lon="12.6576408"><ele>170.5</ele><time>2026-04-25T18:20:38.383Z</time></trkpt><trkpt lat="38.0380161" lon="12.6574636"><ele>171.25</ele><time>2026-04-25T18:20:39.384Z</time></trkpt><trkpt lat="38.0379726" lon="12.657293"><ele>172.0</ele><time>2026-04-25T18:20:40.382Z</time></trkpt><trkpt lat="38.03793" lon="12.6571209"><ele>171.75</ele><time>2026-04-25T18:20:41.383Z</time></trkpt><trkpt lat="38.0378865" lon="12.6569519"><ele>171.5</ele><time>2026-04-25T18:20:42.385Z</time></trkpt><trkpt lat="38.0378427" lon="12.6567811"><ele>171.25</ele><time>2026-04-25T18:20:43.384Z</time></trkpt><trkpt lat="38.0378036" lon="12.656607"><ele>171.0</ele><time>2026-04-25T18:20:44.384Z</time></trkpt><trkpt lat="38.0377754" lon="12.6564232"><ele>171.0</ele><time>2026-04-25T18:20:45.384Z</time></trkpt><trkpt lat="38.0377616" lon="12.6562217"><ele>171.0</ele><time>2026-04-25T18:20:46.383Z</time></trkpt><trkpt lat="38.0377595" lon="12.65602"><ele>171.0</ele><time>2026-04-25T18:20:47.383Z</time></trkpt><trkpt lat="38.0377712" lon="12.6558143"><ele>172.66666666666666</ele><time>2026-04-25T18:20:48.382Z</time></trkpt><trkpt lat="38.0377946" lon="12.6556137"><ele>174.33333333333331</ele><time>2026-04-25T18:20:49.384Z</time></trkpt><trkpt lat="38.0378214" lon="12.655412"><ele>176.0</ele><time>2026-04-25T18:20:50.383Z</time></trkpt><trkpt lat="38.0378487" lon="12.655215"><ele>178.0</ele><time>2026-04-25T18:20:51.383Z</time></trkpt><trkpt lat="38.0378746" lon="12.6550243"><ele>180.0</ele><time>2026-04-25T18:20:52.383Z</time></trkpt><trkpt lat="38.0379017" lon="12.6548262"><ele>182.0</ele><time>2026-04-25T18:20:53.383Z</time></trkpt><trkpt lat="38.0379271" lon="12.6546316"><ele>182.75</ele><time>2026-04-25T18:20:54.383Z</time></trkpt><trkpt lat="38.0379486" lon="12.6544439"><ele>183.5</ele><time>2026-04-25T18:20:55.384Z</time></trkpt><trkpt lat="38.0379645" lon="12.6542577"><ele>184.25</ele><time>2026-04-25T18:20:56.382Z</time></trkpt><trkpt lat="38.03797" lon="12.6540834"><ele>185.0</ele><time>2026-04-25T18:20:57.382Z</time></trkpt><trkpt lat="38.0379694" lon="12.6539176"><ele>185.0</ele><time>2026-04-25T18:20:58.383Z</time></trkpt><trkpt lat="38.0379626" lon="12.6537676"><ele>185.0</ele><time>2026-04-25T18:20:59.384Z</time></trkpt><trkpt lat="38.0379498" lon="12.6536226"><ele>185.0</ele><time>2026-04-25T18:21:00.383Z</time></trkpt><trkpt lat="38.0379405" lon="12.6535092"><ele>185.0</ele><time>2026-04-25T18:21:01.383Z</time></trkpt><trkpt lat="38.0379328" lon="12.6534269"><ele>185.0</ele><time>2026-04-25T18:21:02.383Z</time></trkpt><trkpt lat="38.0379353" lon="12.6533438"><ele>185.4</ele><time>2026-04-25T18:21:03.383Z</time></trkpt><trkpt lat="38.037936" lon="12.6532618"><ele>185.8</ele><time>2026-04-25T18:21:04.384Z</time></trkpt><trkpt lat="38.0379527" lon="12.6531637"><ele>186.2</ele><time>2026-04-25T18:21:05.384Z</time></trkpt><trkpt lat="38.0379819" lon="12.6530596"><ele>186.6</ele><time>2026-04-25T18:21:06.383Z</time></trkpt><trkpt lat="38.0380209" lon="12.6529404"><ele>187.0</ele><time>2026-04-25T18:21:07.383Z</time></trkpt><trkpt lat="38.0380673" lon="12.6528033"><ele>187.25</ele><time>2026-04-25T18:21:08.384Z</time></trkpt><trkpt lat="38.0381253" lon="12.6526592"><ele>187.5</ele><time>2026-04-25T18:21:09.384Z</time></trkpt><trkpt lat="38.0381872" lon="12.6525078"><ele>187.75</ele><time>2026-04-25T18:21:10.383Z</time></trkpt><trkpt lat="38.0382571" lon="12.6523456"><ele>188.0</ele><time>2026-04-25T18:21:11.384Z</time></trkpt><trkpt lat="38.0383318" lon="12.6521748"><ele>188.0</ele><time>2026-04-25T18:21:12.384Z</time></trkpt><trkpt lat="38.0384067" lon="12.6519958"><ele>188.0</ele><time>2026-04-25T18:21:13.384Z</time></trkpt><trkpt lat="38.0384896" lon="12.6518115"><ele>188.0</ele><time>2026-04-25T18:21:14.383Z</time></trkpt><trkpt lat="38.0385752" lon="12.6516266"><ele>190.5</ele><time>2026-04-25T18:21:15.384Z</time></trkpt><trkpt lat="38.0386578" lon="12.6514345"><ele>193.0</ele><time>2026-04-25T18:21:16.383Z</time></trkpt><trkpt lat="38.0388378" lon="12.6510412"><ele>193.66666666666666</ele><time>2026-04-25T18:21:18.383Z</time></trkpt><trkpt lat="38.0389275" lon="12.6508415"><ele>194.33333333333331</ele><time>2026-04-25T18:21:19.383Z</time></trkpt><trkpt lat="38.0390083" lon="12.6506481"><ele>195.0</ele><time>2026-04-25T18:21:20.383Z</time></trkpt><trkpt lat="38.0390764" lon="12.6504763"><ele>195.0</ele><time>2026-04-25T18:21:21.382Z</time></trkpt><trkpt lat="38.039131" lon="12.6503155"><ele>195.0</ele><time>2026-04-25T18:21:22.382Z</time></trkpt><trkpt lat="38.0391717" lon="12.6501447"><ele>195.0</ele><time>2026-04-25T18:21:23.382Z</time></trkpt><trkpt lat="38.0391804" lon="12.6499565"><ele>195.0</ele><time>2026-04-25T18:21:24.384Z</time></trkpt><trkpt lat="38.0391695" lon="12.6497641"><ele>197.0</ele><time>2026-04-25T18:21:25.383Z</time></trkpt><trkpt lat="38.0391413" lon="12.6495482"><ele>199.0</ele><time>2026-04-25T18:21:26.383Z</time></trkpt><trkpt lat="38.0391128" lon="12.6493267"><ele>201.0</ele><time>2026-04-25T18:21:27.385Z</time></trkpt><trkpt lat="38.0390752" lon="12.6490919"><ele>201.0</ele><time>2026-04-25T18:21:28.382Z</time></trkpt><trkpt lat="38.0390369" lon="12.6488348"><ele>201.0</ele><time>2026-04-25T18:21:29.383Z</time></trkpt><trkpt lat="38.0389874" lon="12.648554"><ele>201.0</ele><time>2026-04-25T18:21:30.383Z</time></trkpt><trkpt lat="38.0389485" lon="12.648273"><ele>202.33333333333331</ele><time>2026-04-25T18:21:31.382Z</time></trkpt><trkpt lat="38.0389152" lon="12.6480148"><ele>203.66666666666666</ele><time>2026-04-25T18:21:32.383Z</time></trkpt><trkpt lat="38.0388923" lon="12.6478064"><ele>205.0</ele><time>2026-04-25T18:21:33.382Z</time></trkpt><trkpt lat="38.0388724" lon="12.6476123"><ele>206.0</ele><time>2026-04-25T18:21:34.384Z</time></trkpt><trkpt lat="38.0388799" lon="12.6474517"><ele>207.0</ele><time>2026-04-25T18:21:35.382Z</time></trkpt><trkpt lat="38.038916" lon="12.6473063"><ele>208.0</ele><time>2026-04-25T18:21:36.384Z</time></trkpt><trkpt lat="38.038993" lon="12.6471811"><ele>209.0</ele><time>2026-04-25T18:21:37.384Z</time></trkpt><trkpt lat="38.0391016" lon="12.6470729"><ele>211.0</ele><time>2026-04-25T18:21:38.384Z</time></trkpt><trkpt lat="38.0392526" lon="12.6469885"><ele>213.0</ele><time>2026-04-25T18:21:39.383Z</time></trkpt><trkpt lat="38.0394537" lon="12.6468915"><ele>215.0</ele><time>2026-04-25T18:21:40.383Z</time></trkpt><trkpt lat="38.0396543" lon="12.6467704"><ele>217.0</ele><time>2026-04-25T18:21:41.384Z</time></trkpt><trkpt lat="38.039831" lon="12.6466765"><ele>219.0</ele><time>2026-04-25T18:21:42.384Z</time></trkpt><trkpt lat="38.0399949" lon="12.6466044"><ele>221.0</ele><time>2026-04-25T18:21:43.383Z</time></trkpt><trkpt lat="38.0401605" lon="12.6465541"><ele>222.0</ele><time>2026-04-25T18:21:44.384Z</time></trkpt><trkpt lat="38.04033" lon="12.6465394"><ele>223.0</ele><time>2026-04-25T18:21:45.383Z</time></trkpt><trkpt lat="38.0405123" lon="12.646548"><ele>224.0</ele><time>2026-04-25T18:21:46.384Z</time></trkpt><trkpt lat="38.0406985" lon="12.6465799"><ele>225.0</ele><time>2026-04-25T18:21:47.383Z</time></trkpt><trkpt lat="38.0408859" lon="12.6466174"><ele>226.0</ele><time>2026-04-25T18:21:48.384Z</time></trkpt><trkpt lat="38.0410752" lon="12.6466507"><ele>227.0</ele><time>2026-04-25T18:21:49.383Z</time></trkpt><trkpt lat="38.0412613" lon="12.646702"><ele>227.0</ele><time>2026-04-25T18:21:50.383Z</time></trkpt><trkpt lat="38.0414493" lon="12.6467454"><ele>227.0</ele><time>2026-04-25T18:21:51.383Z</time></trkpt><trkpt lat="38.0416265" lon="12.646793"><ele>227.0</ele><time>2026-04-25T18:21:52.384Z</time></trkpt><trkpt lat="38.0417842" lon="12.6468286"><ele>228.25</ele><time>2026-04-25T18:21:53.383Z</time></trkpt><trkpt lat="38.0419262" lon="12.6468397"><ele>229.5</ele><time>2026-04-25T18:21:54.384Z</time></trkpt><trkpt lat="38.0420694" lon="12.6468203"><ele>230.75</ele><time>2026-04-25T18:21:55.384Z</time></trkpt><trkpt lat="38.0422111" lon="12.6467553"><ele>232.0</ele><time>2026-04-25T18:21:56.384Z</time></trkpt><trkpt lat="38.0423384" lon="12.6466491"><ele>232.0</ele><time>2026-04-25T18:21:57.384Z</time></trkpt><trkpt lat="38.0424526" lon="12.6465332"><ele>232.0</ele><time>2026-04-25T18:21:58.383Z</time></trkpt><trkpt lat="38.0425656" lon="12.6464155"><ele>232.0</ele><time>2026-04-25T18:21:59.384Z</time></trkpt><trkpt lat="38.0426756" lon="12.6462974"><ele>232.0</ele><time>2026-04-25T18:22:00.384Z</time></trkpt><trkpt lat="38.0427823" lon="12.6461807"><ele>233.25</ele><time>2026-04-25T18:22:01.384Z</time></trkpt><trkpt lat="38.0428933" lon="12.6460692"><ele>234.5</ele><time>2026-04-25T18:22:02.383Z</time></trkpt><trkpt lat="38.0429961" lon="12.6459556"><ele>235.75</ele><time>2026-04-25T18:22:03.383Z</time></trkpt><trkpt lat="38.0431024" lon="12.6458394"><ele>237.0</ele><time>2026-04-25T18:22:04.382Z</time></trkpt><trkpt lat="38.0432107" lon="12.645723"><ele>239.25</ele><time>2026-04-25T18:22:05.384Z</time></trkpt><trkpt lat="38.0433162" lon="12.6456125"><ele>241.5</ele><time>2026-04-25T18:22:06.383Z</time></trkpt><trkpt lat="38.0434251" lon="12.6454921"><ele>243.75</ele><time>2026-04-25T18:22:07.384Z</time></trkpt><trkpt lat="38.0435277" lon="12.6453786"><ele>246.0</ele><time>2026-04-25T18:22:08.383Z</time></trkpt><trkpt lat="38.0436257" lon="12.6452722"><ele>246.0</ele><time>2026-04-25T18:22:09.383Z</time></trkpt><trkpt lat="38.0437207" lon="12.6451661"><ele>246.0</ele><time>2026-04-25T18:22:10.383Z</time></trkpt><trkpt lat="38.0438077" lon="12.6450521"><ele>246.0</ele><time>2026-04-25T18:22:11.383Z</time></trkpt><trkpt lat="38.0438849" lon="12.6449321"><ele>246.0</ele><time>2026-04-25T18:22:12.384Z</time></trkpt><trkpt lat="38.043953" lon="12.6447997"><ele>246.0</ele><time>2026-04-25T18:22:13.383Z</time></trkpt><trkpt lat="38.0440098" lon="12.6446547"><ele>246.0</ele><time>2026-04-25T18:22:14.384Z</time></trkpt><trkpt lat="38.044065" lon="12.6445073"><ele>246.0</ele><time>2026-04-25T18:22:15.384Z</time></trkpt><trkpt lat="38.0441228" lon="12.6443645"><ele>246.0</ele><time>2026-04-25T18:22:16.384Z</time></trkpt><trkpt lat="38.0441798" lon="12.6442038"><ele>246.5</ele><time>2026-04-25T18:22:17.384Z</time></trkpt><trkpt lat="38.0442358" lon="12.6440355"><ele>247.0</ele><time>2026-04-25T18:22:18.384Z</time></trkpt><trkpt lat="38.0442953" lon="12.6438604"><ele>247.5</ele><time>2026-04-25T18:22:19.383Z</time></trkpt><trkpt lat="38.0443532" lon="12.6436902"><ele>248.0</ele><time>2026-04-25T18:22:20.384Z</time></trkpt><trkpt lat="38.0444118" lon="12.6435158"><ele>248.75</ele><time>2026-04-25T18:22:21.384Z</time></trkpt><trkpt lat="38.044477" lon="12.6433422"><ele>249.5</ele><time>2026-04-25T18:22:22.384Z</time></trkpt><trkpt lat="38.0445304" lon="12.6431688"><ele>250.25</ele><time>2026-04-25T18:22:23.385Z</time></trkpt><trkpt lat="38.0445856" lon="12.642999"><ele>251.0</ele><time>2026-04-25T18:22:24.384Z</time></trkpt><trkpt lat="38.0446392" lon="12.6428289"><ele>252.25</ele><time>2026-04-25T18:22:25.384Z</time></trkpt><trkpt lat="38.0446939" lon="12.6426762"><ele>253.5</ele><time>2026-04-25T18:22:26.384Z</time></trkpt><trkpt lat="38.0447439" lon="12.6425267"><ele>254.75</ele><time>2026-04-25T18:22:27.384Z</time></trkpt><trkpt lat="38.0447935" lon="12.6423751"><ele>256.0</ele><time>2026-04-25T18:22:28.384Z</time></trkpt><trkpt lat="38.0448392" lon="12.642218"><ele>256.0</ele><time>2026-04-25T18:22:29.384Z</time></trkpt><trkpt lat="38.0448857" lon="12.6420508"><ele>256.0</ele><time>2026-04-25T18:22:30.384Z</time></trkpt><trkpt lat="38.0449304" lon="12.6418864"><ele>256.0</ele><time>2026-04-25T18:22:31.384Z</time></trkpt><trkpt lat="38.0449677" lon="12.6417157"><ele>256.0</ele><time>2026-04-25T18:22:32.383Z</time></trkpt><trkpt lat="38.044999" lon="12.6415406"><ele>256.0</ele><time>2026-04-25T18:22:33.383Z</time></trkpt><trkpt lat="38.0450281" lon="12.641366"><ele>256.0</ele><time>2026-04-25T18:22:34.384Z</time></trkpt><trkpt lat="38.0450595" lon="12.6411931"><ele>256.0</ele><time>2026-04-25T18:22:35.384Z</time></trkpt><trkpt lat="38.0450893" lon="12.641033"><ele>256.0</ele><time>2026-04-25T18:22:36.384Z</time></trkpt><trkpt lat="38.0451198" lon="12.6408772"><ele>256.0</ele><time>2026-04-25T18:22:37.384Z</time></trkpt><trkpt lat="38.0451461" lon="12.6407242"><ele>256.0</ele><time>2026-04-25T18:22:38.384Z</time></trkpt><trkpt lat="38.0451689" lon="12.6405728"><ele>256.0</ele><time>2026-04-25T18:22:39.383Z</time></trkpt><trkpt lat="38.0451828" lon="12.6404096"><ele>256.0</ele><time>2026-04-25T18:22:40.384Z</time></trkpt><trkpt lat="38.0451877" lon="12.6402468"><ele>256.25</ele><time>2026-04-25T18:22:41.384Z</time></trkpt><trkpt lat="38.045183" lon="12.6400889"><ele>256.5</ele><time>2026-04-25T18:22:42.384Z</time></trkpt><trkpt lat="38.0451751" lon="12.6399157"><ele>256.75</ele><time>2026-04-25T18:22:43.384Z</time></trkpt><trkpt lat="38.0451664" lon="12.6397462"><ele>257.0</ele><time>2026-04-25T18:22:44.384Z</time></trkpt><trkpt lat="38.0451688" lon="12.6395816"><ele>256.5</ele><time>2026-04-25T18:22:45.384Z</time></trkpt><trkpt lat="38.0451636" lon="12.6394134"><ele>256.0</ele><time>2026-04-25T18:22:46.384Z</time></trkpt><trkpt lat="38.0451648" lon="12.6392398"><ele>255.5</ele><time>2026-04-25T18:22:47.384Z</time></trkpt><trkpt lat="38.0451709" lon="12.639062"><ele>255.0</ele><time>2026-04-25T18:22:48.384Z</time></trkpt><trkpt lat="38.0451754" lon="12.6388867"><ele>255.0</ele><time>2026-04-25T18:22:49.384Z</time></trkpt><trkpt lat="38.045182" lon="12.6387238"><ele>255.0</ele><time>2026-04-25T18:22:50.383Z</time></trkpt><trkpt lat="38.0451795" lon="12.6385624"><ele>255.0</ele><time>2026-04-25T18:22:51.384Z</time></trkpt><trkpt lat="38.0451764" lon="12.6384064"><ele>255.0</ele><time>2026-04-25T18:22:52.384Z</time></trkpt><trkpt lat="38.0451622" lon="12.6382473"><ele>255.75</ele><time>2026-04-25T18:22:53.384Z</time></trkpt><trkpt lat="38.0451431" lon="12.6380878"><ele>256.5</ele><time>2026-04-25T18:22:54.383Z</time></trkpt><trkpt lat="38.0451168" lon="12.6379313"><ele>257.25</ele><time>2026-04-25T18:22:55.384Z</time></trkpt><trkpt lat="38.0450918" lon="12.6377805"><ele>258.0</ele><time>2026-04-25T18:22:56.384Z</time></trkpt><trkpt lat="38.0450676" lon="12.6376373"><ele>258.0</ele><time>2026-04-25T18:22:57.384Z</time></trkpt><trkpt lat="38.0450462" lon="12.637505"><ele>258.0</ele><time>2026-04-25T18:22:58.385Z</time></trkpt><trkpt lat="38.0450212" lon="12.6373777"><ele>258.0</ele><time>2026-04-25T18:22:59.384Z</time></trkpt><trkpt lat="38.0449959" lon="12.637248"><ele>258.0</ele><time>2026-04-25T18:23:00.384Z</time></trkpt><trkpt lat="38.0449764" lon="12.6371232"><ele>258.0</ele><time>2026-04-25T18:23:01.384Z</time></trkpt><trkpt lat="38.0449657" lon="12.6369938"><ele>258.2</ele><time>2026-04-25T18:23:02.384Z</time></trkpt><trkpt lat="38.044962" lon="12.6368618"><ele>258.4</ele><time>2026-04-25T18:23:03.384Z</time></trkpt><trkpt lat="38.0449636" lon="12.6367272"><ele>258.59999999999997</ele><time>2026-04-25T18:23:04.384Z</time></trkpt><trkpt lat="38.0449695" lon="12.636586"><ele>258.8</ele><time>2026-04-25T18:23:05.385Z</time></trkpt><trkpt lat="38.044988" lon="12.6364324"><ele>259.0</ele><time>2026-04-25T18:23:06.384Z</time></trkpt><trkpt lat="38.0450106" lon="12.6362778"><ele>260.0</ele><time>2026-04-25T18:23:07.384Z</time></trkpt><trkpt lat="38.0450339" lon="12.6361233"><ele>261.0</ele><time>2026-04-25T18:23:08.384Z</time></trkpt><trkpt lat="38.0450628" lon="12.6359707"><ele>262.0</ele><time>2026-04-25T18:23:09.384Z</time></trkpt><trkpt lat="38.0450855" lon="12.6358083"><ele>263.0</ele><time>2026-04-25T18:23:10.384Z</time></trkpt><trkpt lat="38.0451135" lon="12.635653"><ele>263.0</ele><time>2026-04-25T18:23:11.384Z</time></trkpt><trkpt lat="38.045142" lon="12.6354927"><ele>263.0</ele><time>2026-04-25T18:23:12.384Z</time></trkpt><trkpt lat="38.0451747" lon="12.6353339"><ele>263.0</ele><time>2026-04-25T18:23:13.383Z</time></trkpt><trkpt lat="38.0452021" lon="12.6351755"><ele>263.0</ele><time>2026-04-25T18:23:14.384Z</time></trkpt><trkpt lat="38.0452361" lon="12.6350274"><ele>263.2</ele><time>2026-04-25T18:23:15.384Z</time></trkpt><trkpt lat="38.0452678" lon="12.6348818"><ele>263.4</ele><time>2026-04-25T18:23:16.384Z</time></trkpt><trkpt lat="38.0452987" lon="12.6347508"><ele>263.59999999999997</ele><time>2026-04-25T18:23:17.384Z</time></trkpt><trkpt lat="38.04534" lon="12.6346266"><ele>263.8</ele><time>2026-04-25T18:23:18.384Z</time></trkpt><trkpt lat="38.0453772" lon="12.634499"><ele>264.0</ele><time>2026-04-25T18:23:19.384Z</time></trkpt><trkpt lat="38.0454158" lon="12.6343727"><ele>265.2</ele><time>2026-04-25T18:23:20.384Z</time></trkpt><trkpt lat="38.0454574" lon="12.6342502"><ele>266.4</ele><time>2026-04-25T18:23:21.384Z</time></trkpt><trkpt lat="38.0454919" lon="12.6341319"><ele>267.6</ele><time>2026-04-25T18:23:22.384Z</time></trkpt><trkpt lat="38.0455227" lon="12.6340061"><ele>268.8</ele><time>2026-04-25T18:23:23.384Z</time></trkpt><trkpt lat="38.0455493" lon="12.6338795"><ele>270.0</ele><time>2026-04-25T18:23:24.384Z</time></trkpt><trkpt lat="38.0455611" lon="12.6337429"><ele>270.0</ele><time>2026-04-25T18:23:25.384Z</time></trkpt><trkpt lat="38.0455616" lon="12.6336136"><ele>270.0</ele><time>2026-04-25T18:23:26.384Z</time></trkpt><trkpt lat="38.0455425" lon="12.6334757"><ele>270.0</ele><time>2026-04-25T18:23:27.383Z</time></trkpt><trkpt lat="38.0455025" lon="12.6333365"><ele>270.0</ele><time>2026-04-25T18:23:28.383Z</time></trkpt><trkpt lat="38.0454555" lon="12.6331851"><ele>270.0</ele><time>2026-04-25T18:23:29.385Z</time></trkpt><trkpt lat="38.0454054" lon="12.633023"><ele>270.0</ele><time>2026-04-25T18:23:30.385Z</time></trkpt><trkpt lat="38.0453508" lon="12.6328546"><ele>270.0</ele><time>2026-04-25T18:23:31.384Z</time></trkpt><trkpt lat="38.0453083" lon="12.6326841"><ele>270.0</ele><time>2026-04-25T18:23:32.384Z</time></trkpt><trkpt lat="38.0452417" lon="12.6325085"><ele>267.6666666666667</ele><time>2026-04-25T18:23:33.384Z</time></trkpt><trkpt lat="38.0451654" lon="12.6323391"><ele>265.33333333333337</ele><time>2026-04-25T18:23:34.384Z</time></trkpt><trkpt lat="38.0450918" lon="12.6321691"><ele>263.0</ele><time>2026-04-25T18:23:35.384Z</time></trkpt><trkpt lat="38.0450158" lon="12.6319977"><ele>263.75</ele><time>2026-04-25T18:23:36.384Z</time></trkpt><trkpt lat="38.04494" lon="12.6318295"><ele>264.5</ele><time>2026-04-25T18:23:37.383Z</time></trkpt><trkpt lat="38.0448767" lon="12.6316625"><ele>265.25</ele><time>2026-04-25T18:23:38.383Z</time></trkpt><trkpt lat="38.044829" lon="12.6315006"><ele>266.0</ele><time>2026-04-25T18:23:39.384Z</time></trkpt><trkpt lat="38.0447916" lon="12.631329"><ele>266.0</ele><time>2026-04-25T18:23:40.383Z</time></trkpt><trkpt lat="38.044756" lon="12.6311416"><ele>266.0</ele><time>2026-04-25T18:23:41.384Z</time></trkpt><trkpt lat="38.0447224" lon="12.6309511"><ele>266.0</ele><time>2026-04-25T18:23:42.384Z</time></trkpt><trkpt lat="38.0447006" lon="12.6307579"><ele>264.33333333333337</ele><time>2026-04-25T18:23:43.385Z</time></trkpt><trkpt lat="38.0446686" lon="12.6305566"><ele>262.6666666666667</ele><time>2026-04-25T18:23:44.384Z</time></trkpt><trkpt lat="38.0446391" lon="12.6303627"><ele>261.0</ele><time>2026-04-25T18:23:45.384Z</time></trkpt><trkpt lat="38.0446006" lon="12.6301667"><ele>259.3333333333333</ele><time>2026-04-25T18:23:46.384Z</time></trkpt><trkpt lat="38.0445545" lon="12.6299766"><ele>257.66666666666663</ele><time>2026-04-25T18:23:47.385Z</time></trkpt><trkpt lat="38.0445032" lon="12.6297943"><ele>256.0</ele><time>2026-04-25T18:23:48.384Z</time></trkpt><trkpt lat="38.0444472" lon="12.6296078"><ele>254.5</ele><time>2026-04-25T18:23:49.386Z</time></trkpt><trkpt lat="38.0443872" lon="12.6294328"><ele>253.0</ele><time>2026-04-25T18:23:50.383Z</time></trkpt><trkpt lat="38.0443249" lon="12.6292605"><ele>251.5</ele><time>2026-04-25T18:23:51.384Z</time></trkpt><trkpt lat="38.0442478" lon="12.6291007"><ele>250.0</ele><time>2026-04-25T18:23:52.384Z</time></trkpt><trkpt lat="38.0441612" lon="12.6289465"><ele>251.0</ele><time>2026-04-25T18:23:53.384Z</time></trkpt><trkpt lat="38.044068" lon="12.6287956"><ele>252.0</ele><time>2026-04-25T18:23:54.384Z</time></trkpt><trkpt lat="38.0439786" lon="12.6286419"><ele>253.0</ele><time>2026-04-25T18:23:55.384Z</time></trkpt><trkpt lat="38.0439041" lon="12.6284691"><ele>253.0</ele><time>2026-04-25T18:23:56.384Z</time></trkpt><trkpt lat="38.043839" lon="12.6282953"><ele>253.0</ele><time>2026-04-25T18:23:57.384Z</time></trkpt><trkpt lat="38.0437847" lon="12.6281169"><ele>253.0</ele><time>2026-04-25T18:23:58.384Z</time></trkpt><trkpt lat="38.0437343" lon="12.6279339"><ele>252.25</ele><time>2026-04-25T18:23:59.385Z</time></trkpt><trkpt lat="38.0436796" lon="12.6277596"><ele>251.5</ele><time>2026-04-25T18:24:00.385Z</time></trkpt><trkpt lat="38.0436326" lon="12.6275879"><ele>250.75</ele><time>2026-04-25T18:24:01.384Z</time></trkpt><trkpt lat="38.0435772" lon="12.6274262"><ele>250.0</ele><time>2026-04-25T18:24:02.385Z</time></trkpt><trkpt lat="38.043518" lon="12.6272519"><ele>250.0</ele><time>2026-04-25T18:24:03.384Z</time></trkpt><trkpt lat="38.0434705" lon="12.6270817"><ele>250.0</ele><time>2026-04-25T18:24:04.384Z</time></trkpt><trkpt lat="38.0434188" lon="12.6269046"><ele>250.0</ele><time>2026-04-25T18:24:05.384Z</time></trkpt><trkpt lat="38.0433743" lon="12.6267273"><ele>250.0</ele><time>2026-04-25T18:24:06.385Z</time></trkpt><trkpt lat="38.0433308" lon="12.6265551"><ele>250.75</ele><time>2026-04-25T18:24:07.385Z</time></trkpt><trkpt lat="38.043296" lon="12.6263946"><ele>251.5</ele><time>2026-04-25T18:24:08.384Z</time></trkpt><trkpt lat="38.0432524" lon="12.6262298"><ele>252.25</ele><time>2026-04-25T18:24:09.384Z</time></trkpt><trkpt lat="38.0432175" lon="12.626083"><ele>253.0</ele><time>2026-04-25T18:24:10.385Z</time></trkpt><trkpt lat="38.0431626" lon="12.625946"><ele>253.0</ele><time>2026-04-25T18:24:11.384Z</time></trkpt><trkpt lat="38.0431062" lon="12.6258109"><ele>253.0</ele><time>2026-04-25T18:24:12.386Z</time></trkpt><trkpt lat="38.0430497" lon="12.6256765"><ele>253.0</ele><time>2026-04-25T18:24:13.383Z</time></trkpt><trkpt lat="38.0429941" lon="12.6255454"><ele>253.0</ele><time>2026-04-25T18:24:14.385Z</time></trkpt><trkpt lat="38.042943" lon="12.6254103"><ele>252.4</ele><time>2026-04-25T18:24:15.384Z</time></trkpt><trkpt lat="38.0428889" lon="12.6253107"><ele>251.8</ele><time>2026-04-25T18:24:16.386Z</time></trkpt><trkpt lat="38.0428589" lon="12.6252029"><ele>251.2</ele><time>2026-04-25T18:24:17.384Z</time></trkpt><trkpt lat="38.0428051" lon="12.6250529"><ele>250.6</ele><time>2026-04-25T18:24:19.384Z</time></trkpt><trkpt lat="38.0427682" lon="12.6249355"><ele>250.0</ele><time>2026-04-25T18:24:21.384Z</time></trkpt><trkpt lat="38.0427099" lon="12.6247679"><ele>250.0</ele><time>2026-04-25T18:24:23.384Z</time></trkpt><trkpt lat="38.0426738" lon="12.624661"><ele>250.0</ele><time>2026-04-25T18:24:24.385Z</time></trkpt><trkpt lat="38.0426261" lon="12.6245425"><ele>250.0</ele><time>2026-04-25T18:24:25.384Z</time></trkpt><trkpt lat="38.0425867" lon="12.6244217"><ele>250.0</ele><time>2026-04-25T18:24:26.383Z</time></trkpt><trkpt lat="38.0425391" lon="12.6243012"><ele>250.0</ele><time>2026-04-25T18:24:27.385Z</time></trkpt><trkpt lat="38.042499" lon="12.6241849"><ele>250.4</ele><time>2026-04-25T18:24:28.384Z</time></trkpt><trkpt lat="38.042456" lon="12.6240654"><ele>250.8</ele><time>2026-04-25T18:24:29.385Z</time></trkpt><trkpt lat="38.042418" lon="12.6239434"><ele>251.2</ele><time>2026-04-25T18:24:30.385Z</time></trkpt><trkpt lat="38.0423802" lon="12.6238246"><ele>251.6</ele><time>2026-04-25T18:24:31.384Z</time></trkpt><trkpt lat="38.0423439" lon="12.6237064"><ele>252.0</ele><time>2026-04-25T18:24:32.385Z</time></trkpt><trkpt lat="38.0423023" lon="12.6235865"><ele>252.25</ele><time>2026-04-25T18:24:33.385Z</time></trkpt><trkpt lat="38.0422647" lon="12.6234549"><ele>252.5</ele><time>2026-04-25T18:24:34.384Z</time></trkpt><trkpt lat="38.0422229" lon="12.623301"><ele>252.75</ele><time>2026-04-25T18:24:35.385Z</time></trkpt><trkpt lat="38.0421857" lon="12.6231402"><ele>253.0</ele><time>2026-04-25T18:24:36.384Z</time></trkpt><trkpt lat="38.0421565" lon="12.6229647"><ele>252.5</ele><time>2026-04-25T18:24:37.384Z</time></trkpt><trkpt lat="38.0421234" lon="12.6227777"><ele>252.0</ele><time>2026-04-25T18:24:38.383Z</time></trkpt><trkpt lat="38.0420892" lon="12.6225955"><ele>251.5</ele><time>2026-04-25T18:24:39.385Z</time></trkpt><trkpt lat="38.042057" lon="12.6224244"><ele>251.0</ele><time>2026-04-25T18:24:40.384Z</time></trkpt><trkpt lat="38.0420281" lon="12.622255"><ele>251.0</ele><time>2026-04-25T18:24:41.385Z</time></trkpt><trkpt lat="38.0420003" lon="12.6220997"><ele>251.0</ele><time>2026-04-25T18:24:42.385Z</time></trkpt><trkpt lat="38.0419638" lon="12.6219349"><ele>251.0</ele><time>2026-04-25T18:24:43.384Z</time></trkpt><trkpt lat="38.0419363" lon="12.6217776"><ele>251.0</ele><time>2026-04-25T18:24:44.383Z</time></trkpt><trkpt lat="38.0419046" lon="12.6216381"><ele>250.4</ele><time>2026-04-25T18:24:45.383Z</time></trkpt><trkpt lat="38.0418773" lon="12.6215021"><ele>249.8</ele><time>2026-04-25T18:24:46.384Z</time></trkpt><trkpt lat="38.0418479" lon="12.6213795"><ele>249.20000000000002</ele><time>2026-04-25T18:24:47.385Z</time></trkpt><trkpt lat="38.0418144" lon="12.6212711"><ele>248.60000000000002</ele><time>2026-04-25T18:24:48.385Z</time></trkpt><trkpt lat="38.0417746" lon="12.6211581"><ele>248.0</ele><time>2026-04-25T18:24:49.385Z</time></trkpt><trkpt lat="38.0417258" lon="12.6210522"><ele>247.60000000000002</ele><time>2026-04-25T18:24:50.385Z</time></trkpt><trkpt lat="38.0416863" lon="12.6209491"><ele>247.20000000000002</ele><time>2026-04-25T18:24:51.385Z</time></trkpt><trkpt lat="38.0416404" lon="12.6208395"><ele>246.8</ele><time>2026-04-25T18:24:52.384Z</time></trkpt><trkpt lat="38.0415975" lon="12.6207252"><ele>246.4</ele><time>2026-04-25T18:24:53.385Z</time></trkpt><trkpt lat="38.0415495" lon="12.6206066"><ele>246.0</ele><time>2026-04-25T18:24:54.384Z</time></trkpt><trkpt lat="38.0414938" lon="12.6204907"><ele>248.0</ele><time>2026-04-25T18:24:55.385Z</time></trkpt><trkpt lat="38.0414399" lon="12.6203656"><ele>250.0</ele><time>2026-04-25T18:24:56.385Z</time></trkpt><trkpt lat="38.0413818" lon="12.6202273"><ele>252.0</ele><time>2026-04-25T18:24:57.385Z</time></trkpt><trkpt lat="38.0413129" lon="12.6200722"><ele>254.0</ele><time>2026-04-25T18:24:58.384Z</time></trkpt><trkpt lat="38.0412427" lon="12.6199112"><ele>254.0</ele><time>2026-04-25T18:24:59.384Z</time></trkpt><trkpt lat="38.0411716" lon="12.619737"><ele>254.0</ele><time>2026-04-25T18:25:00.385Z</time></trkpt><trkpt lat="38.041096" lon="12.619553"><ele>254.0</ele><time>2026-04-25T18:25:01.385Z</time></trkpt><trkpt lat="38.0410178" lon="12.6193681"><ele>253.66666666666669</ele><time>2026-04-25T18:25:02.385Z</time></trkpt><trkpt lat="38.0409396" lon="12.6191781"><ele>253.33333333333331</ele><time>2026-04-25T18:25:03.385Z</time></trkpt><trkpt lat="38.0408603" lon="12.6189819"><ele>253.0</ele><time>2026-04-25T18:25:04.384Z</time></trkpt><trkpt lat="38.0407842" lon="12.6187844"><ele>254.0</ele><time>2026-04-25T18:25:05.384Z</time></trkpt><trkpt lat="38.0406973" lon="12.6185972"><ele>255.0</ele><time>2026-04-25T18:25:06.384Z</time></trkpt><trkpt lat="38.0406314" lon="12.6184433"><ele>256.0</ele><time>2026-04-25T18:25:07.384Z</time></trkpt><trkpt lat="38.0405469" lon="12.6182491"><ele>256.0</ele><time>2026-04-25T18:25:08.384Z</time></trkpt><trkpt lat="38.0404645" lon="12.6180509"><ele>256.0</ele><time>2026-04-25T18:25:09.385Z</time></trkpt><trkpt lat="38.0403922" lon="12.6178613"><ele>256.0</ele><time>2026-04-25T18:25:10.384Z</time></trkpt><trkpt lat="38.0403117" lon="12.6176515"><ele>254.33333333333331</ele><time>2026-04-25T18:25:11.384Z</time></trkpt><trkpt lat="38.0402374" lon="12.6174584"><ele>252.66666666666669</ele><time>2026-04-25T18:25:12.385Z</time></trkpt><trkpt lat="38.0401668" lon="12.6172785"><ele>251.0</ele><time>2026-04-25T18:25:13.384Z</time></trkpt><trkpt lat="38.0400982" lon="12.6171031"><ele>250.5</ele><time>2026-04-25T18:25:14.384Z</time></trkpt><trkpt lat="38.0400331" lon="12.616941"><ele>250.0</ele><time>2026-04-25T18:25:15.384Z</time></trkpt><trkpt lat="38.0399559" lon="12.6167818"><ele>249.5</ele><time>2026-04-25T18:25:16.385Z</time></trkpt><trkpt lat="38.0398611" lon="12.6166356"><ele>249.0</ele><time>2026-04-25T18:25:17.384Z</time></trkpt><trkpt lat="38.0397652" lon="12.6165063"><ele>250.0</ele><time>2026-04-25T18:25:18.384Z</time></trkpt><trkpt lat="38.0396567" lon="12.6163696"><ele>251.0</ele><time>2026-04-25T18:25:19.385Z</time></trkpt><trkpt lat="38.0395642" lon="12.6162533"><ele>252.0</ele><time>2026-04-25T18:25:20.385Z</time></trkpt><trkpt lat="38.0394724" lon="12.6161305"><ele>253.0</ele><time>2026-04-25T18:25:21.385Z</time></trkpt><trkpt lat="38.039404" lon="12.6160425"><ele>253.0</ele><time>2026-04-25T18:25:22.386Z</time></trkpt><trkpt lat="38.0393262" lon="12.6159337"><ele>253.0</ele><time>2026-04-25T18:25:23.385Z</time></trkpt><trkpt lat="38.0392446" lon="12.6158127"><ele>253.0</ele><time>2026-04-25T18:25:24.386Z</time></trkpt><trkpt lat="38.0391668" lon="12.6157012"><ele>253.0</ele><time>2026-04-25T18:25:25.385Z</time></trkpt><trkpt lat="38.0390963" lon="12.61558"><ele>251.2</ele><time>2026-04-25T18:25:26.384Z</time></trkpt><trkpt lat="38.0390296" lon="12.615464"><ele>249.4</ele><time>2026-04-25T18:25:27.385Z</time></trkpt><trkpt lat="38.0389725" lon="12.615355"><ele>247.59999999999997</ele><time>2026-04-25T18:25:28.384Z</time></trkpt><trkpt lat="38.0389171" lon="12.6152532"><ele>245.79999999999998</ele><time>2026-04-25T18:25:29.385Z</time></trkpt><trkpt lat="38.0388626" lon="12.6151577"><ele>244.0</ele><time>2026-04-25T18:25:30.385Z</time></trkpt><trkpt lat="38.0388077" lon="12.6150619"><ele>244.0</ele><time>2026-04-25T18:25:31.384Z</time></trkpt><trkpt lat="38.0387456" lon="12.614972"><ele>243.99999999999997</ele><time>2026-04-25T18:25:32.386Z</time></trkpt><trkpt lat="38.0386855" lon="12.6148677"><ele>243.99999999999997</ele><time>2026-04-25T18:25:33.386Z</time></trkpt><trkpt lat="38.0386175" lon="12.6147461"><ele>244.0</ele><time>2026-04-25T18:25:34.385Z</time></trkpt><trkpt lat="38.0385466" lon="12.6146223"><ele>244.0</ele><time>2026-04-25T18:25:35.385Z</time></trkpt><trkpt lat="38.0384744" lon="12.6145013"><ele>243.0</ele><time>2026-04-25T18:25:36.383Z</time></trkpt><trkpt lat="38.038394" lon="12.6143689"><ele>242.0</ele><time>2026-04-25T18:25:37.385Z</time></trkpt><trkpt lat="38.0383265" lon="12.6142484"><ele>241.0</ele><time>2026-04-25T18:25:38.385Z</time></trkpt><trkpt lat="38.0382597" lon="12.6141422"><ele>240.0</ele><time>2026-04-25T18:25:39.385Z</time></trkpt><trkpt lat="38.0381834" lon="12.6140325"><ele>240.0</ele><time>2026-04-25T18:25:40.385Z</time></trkpt><trkpt lat="38.0381018" lon="12.6139121"><ele>240.0</ele><time>2026-04-25T18:25:41.384Z</time></trkpt><trkpt lat="38.0379042" lon="12.6136309"><ele>240.0</ele><time>2026-04-25T18:25:43.385Z</time></trkpt><trkpt lat="38.0377977" lon="12.6134847"><ele>241.33333333333331</ele><time>2026-04-25T18:25:44.384Z</time></trkpt><trkpt lat="38.0376696" lon="12.6133138"><ele>242.66666666666666</ele><time>2026-04-25T18:25:45.387Z</time></trkpt><trkpt lat="38.0375517" lon="12.6131612"><ele>244.0</ele><time>2026-04-25T18:25:46.384Z</time></trkpt><trkpt lat="38.0374418" lon="12.6130115"><ele>243.0</ele><time>2026-04-25T18:25:47.385Z</time></trkpt><trkpt lat="38.0373375" lon="12.6128731"><ele>242.0</ele><time>2026-04-25T18:25:48.384Z</time></trkpt><trkpt lat="38.0372404" lon="12.6127474"><ele>241.0</ele><time>2026-04-25T18:25:49.385Z</time></trkpt><trkpt lat="38.0371662" lon="12.6126326"><ele>240.0</ele><time>2026-04-25T18:25:50.385Z</time></trkpt><trkpt lat="38.0370928" lon="12.6125377"><ele>240.0</ele><time>2026-04-25T18:25:51.385Z</time></trkpt><trkpt lat="38.0370262" lon="12.6124465"><ele>240.0</ele><time>2026-04-25T18:25:52.385Z</time></trkpt><trkpt lat="38.0369582" lon="12.612342"><ele>240.0</ele><time>2026-04-25T18:25:53.384Z</time></trkpt><trkpt lat="38.0368645" lon="12.6122422"><ele>240.0</ele><time>2026-04-25T18:25:54.386Z</time></trkpt><trkpt lat="38.0367573" lon="12.6121311"><ele>239.33333333333331</ele><time>2026-04-25T18:25:55.385Z</time></trkpt><trkpt lat="38.0366275" lon="12.6120153"><ele>238.66666666666666</ele><time>2026-04-25T18:25:56.385Z</time></trkpt><trkpt lat="38.0364964" lon="12.6119011"><ele>238.0</ele><time>2026-04-25T18:25:57.385Z</time></trkpt><trkpt lat="38.0363707" lon="12.6117828"><ele>239.5</ele><time>2026-04-25T18:25:58.385Z</time></trkpt><trkpt lat="38.0362428" lon="12.6116701"><ele>241.0</ele><time>2026-04-25T18:25:59.384Z</time></trkpt><trkpt lat="38.0361231" lon="12.6115633"><ele>242.5</ele><time>2026-04-25T18:26:00.385Z</time></trkpt><trkpt lat="38.0360092" lon="12.6114542"><ele>244.0</ele><time>2026-04-25T18:26:01.384Z</time></trkpt><trkpt lat="38.0359042" lon="12.6113486"><ele>244.0</ele><time>2026-04-25T18:26:02.385Z</time></trkpt><trkpt lat="38.035809" lon="12.6112382"><ele>244.0</ele><time>2026-04-25T18:26:03.385Z</time></trkpt><trkpt lat="38.0357144" lon="12.6111112"><ele>244.0</ele><time>2026-04-25T18:26:04.384Z</time></trkpt><trkpt lat="38.0356275" lon="12.610967"><ele>244.0</ele><time>2026-04-25T18:26:05.384Z</time></trkpt><trkpt lat="38.0355403" lon="12.6108134"><ele>243.33333333333331</ele><time>2026-04-25T18:26:06.385Z</time></trkpt><trkpt lat="38.0354474" lon="12.6106583"><ele>242.66666666666669</ele><time>2026-04-25T18:26:07.384Z</time></trkpt><trkpt lat="38.0353574" lon="12.610493"><ele>242.0</ele><time>2026-04-25T18:26:08.385Z</time></trkpt><trkpt lat="38.0352624" lon="12.6103247"><ele>242.0</ele><time>2026-04-25T18:26:09.385Z</time></trkpt><trkpt lat="38.0351727" lon="12.6101521"><ele>242.0</ele><time>2026-04-25T18:26:10.385Z</time></trkpt><trkpt lat="38.0350848" lon="12.6099896"><ele>242.0</ele><time>2026-04-25T18:26:11.385Z</time></trkpt><trkpt lat="38.0349948" lon="12.6098133"><ele>243.0</ele><time>2026-04-25T18:26:12.384Z</time></trkpt><trkpt lat="38.0348968" lon="12.6096411"><ele>244.0</ele><time>2026-04-25T18:26:13.383Z</time></trkpt><trkpt lat="38.034808" lon="12.609481"><ele>245.0</ele><time>2026-04-25T18:26:14.384Z</time></trkpt><trkpt lat="38.0347304" lon="12.6093321"><ele>245.0</ele><time>2026-04-25T18:26:15.386Z</time></trkpt><trkpt lat="38.0346552" lon="12.609188"><ele>245.0</ele><time>2026-04-25T18:26:16.384Z</time></trkpt><trkpt lat="38.0345792" lon="12.6090488"><ele>245.0</ele><time>2026-04-25T18:26:17.385Z</time></trkpt><trkpt lat="38.0344962" lon="12.6089099"><ele>245.0</ele><time>2026-04-25T18:26:18.385Z</time></trkpt><trkpt lat="38.0344067" lon="12.6087768"><ele>245.0</ele><time>2026-04-25T18:26:19.384Z</time></trkpt><trkpt lat="38.0342958" lon="12.6086558"><ele>245.0</ele><time>2026-04-25T18:26:20.384Z</time></trkpt><trkpt lat="38.0341689" lon="12.6085439"><ele>245.0</ele><time>2026-04-25T18:26:21.385Z</time></trkpt><trkpt lat="38.0340481" lon="12.6084323"><ele>245.0</ele><time>2026-04-25T18:26:22.385Z</time></trkpt><trkpt lat="38.0339319" lon="12.6083315"><ele>245.0</ele><time>2026-04-25T18:26:23.385Z</time></trkpt><trkpt lat="38.0338167" lon="12.6082291"><ele>245.0</ele><time>2026-04-25T18:26:24.385Z</time></trkpt><trkpt lat="38.0337111" lon="12.608126"><ele>245.0</ele><time>2026-04-25T18:26:25.385Z</time></trkpt><trkpt lat="38.0336127" lon="12.6080414"><ele>245.0</ele><time>2026-04-25T18:26:26.384Z</time></trkpt><trkpt lat="38.0335174" lon="12.6079596"><ele>245.0</ele><time>2026-04-25T18:26:27.384Z</time></trkpt><trkpt lat="38.0334258" lon="12.6078807"><ele>245.0</ele><time>2026-04-25T18:26:28.384Z</time></trkpt><trkpt lat="38.0333227" lon="12.6078096"><ele>245.0</ele><time>2026-04-25T18:26:29.385Z</time></trkpt><trkpt lat="38.0332212" lon="12.6077244"><ele>245.5</ele><time>2026-04-25T18:26:30.385Z</time></trkpt><trkpt lat="38.0331087" lon="12.6076257"><ele>246.0</ele><time>2026-04-25T18:26:31.384Z</time></trkpt><trkpt lat="38.032986" lon="12.6075128"><ele>246.5</ele><time>2026-04-25T18:26:32.385Z</time></trkpt><trkpt lat="38.0328709" lon="12.6073793"><ele>247.0</ele><time>2026-04-25T18:26:33.385Z</time></trkpt><trkpt lat="38.032758" lon="12.6072297"><ele>247.0</ele><time>2026-04-25T18:26:34.385Z</time></trkpt><trkpt lat="38.0326444" lon="12.6070659"><ele>247.0</ele><time>2026-04-25T18:26:35.385Z</time></trkpt><trkpt lat="38.0325104" lon="12.6068997"><ele>247.0</ele><time>2026-04-25T18:26:36.384Z</time></trkpt><trkpt lat="38.032356" lon="12.6067132"><ele>248.5</ele><time>2026-04-25T18:26:37.385Z</time></trkpt><trkpt lat="38.0322017" lon="12.6065146"><ele>250.0</ele><time>2026-04-25T18:26:38.385Z</time></trkpt><trkpt lat="38.0320303" lon="12.6063103"><ele>253.0</ele><time>2026-04-25T18:26:39.386Z</time></trkpt><trkpt lat="38.0318553" lon="12.6061036"><ele>256.0</ele><time>2026-04-25T18:26:40.384Z</time></trkpt><trkpt lat="38.0316815" lon="12.6059053"><ele>253.66666666666666</ele><time>2026-04-25T18:26:41.385Z</time></trkpt><trkpt lat="38.0315247" lon="12.6057199"><ele>251.33333333333331</ele><time>2026-04-25T18:26:42.385Z</time></trkpt><trkpt lat="38.031386" lon="12.605553"><ele>249.0</ele><time>2026-04-25T18:26:43.385Z</time></trkpt><trkpt lat="38.0312589" lon="12.6053987"><ele>250.33333333333331</ele><time>2026-04-25T18:26:44.384Z</time></trkpt><trkpt lat="38.0311334" lon="12.6052565"><ele>251.66666666666666</ele><time>2026-04-25T18:26:45.385Z</time></trkpt><trkpt lat="38.0310169" lon="12.6051209"><ele>253.0</ele><time>2026-04-25T18:26:46.385Z</time></trkpt><trkpt lat="38.0309057" lon="12.6049894"><ele>250.75</ele><time>2026-04-25T18:26:47.385Z</time></trkpt><trkpt lat="38.0307957" lon="12.6048646"><ele>248.5</ele><time>2026-04-25T18:26:48.385Z</time></trkpt><trkpt lat="38.0306989" lon="12.6047529"><ele>246.25</ele><time>2026-04-25T18:26:49.385Z</time></trkpt><trkpt lat="38.0306012" lon="12.6046453"><ele>244.0</ele><time>2026-04-25T18:26:50.385Z</time></trkpt><trkpt lat="38.0305066" lon="12.6045395"><ele>244.75</ele><time>2026-04-25T18:26:51.384Z</time></trkpt><trkpt lat="38.0304125" lon="12.6044362"><ele>245.5</ele><time>2026-04-25T18:26:52.384Z</time></trkpt><trkpt lat="38.0303129" lon="12.6043472"><ele>246.25</ele><time>2026-04-25T18:26:53.385Z</time></trkpt><trkpt lat="38.0302116" lon="12.6042685"><ele>247.0</ele><time>2026-04-25T18:26:54.385Z</time></trkpt><trkpt lat="38.0300847" lon="12.6042226"><ele>245.25</ele><time>2026-04-25T18:26:55.385Z</time></trkpt><trkpt lat="38.0299665" lon="12.6041676"><ele>243.5</ele><time>2026-04-25T18:26:56.384Z</time></trkpt><trkpt lat="38.0298476" lon="12.6041137"><ele>241.75</ele><time>2026-04-25T18:26:57.386Z</time></trkpt><trkpt lat="38.0297197" lon="12.6040661"><ele>240.0</ele><time>2026-04-25T18:26:58.385Z</time></trkpt><trkpt lat="38.0295896" lon="12.6040149"><ele>240.0</ele><time>2026-04-25T18:26:59.385Z</time></trkpt><trkpt lat="38.0294709" lon="12.6039696"><ele>240.0</ele><time>2026-04-25T18:27:00.385Z</time></trkpt><trkpt lat="38.0293469" lon="12.6039122"><ele>240.0</ele><time>2026-04-25T18:27:01.385Z</time></trkpt><trkpt lat="38.0292184" lon="12.6038394"><ele>240.0</ele><time>2026-04-25T18:27:02.386Z</time></trkpt><trkpt lat="38.0290862" lon="12.6037365"><ele>237.66666666666669</ele><time>2026-04-25T18:27:03.386Z</time></trkpt><trkpt lat="38.0289371" lon="12.6035973"><ele>235.33333333333334</ele><time>2026-04-25T18:27:04.385Z</time></trkpt><trkpt lat="38.0287945" lon="12.6034205"><ele>233.0</ele><time>2026-04-25T18:27:05.385Z</time></trkpt><trkpt lat="38.0286682" lon="12.6032582"><ele>233.0</ele><time>2026-04-25T18:27:06.386Z</time></trkpt><trkpt lat="38.0285378" lon="12.6031147"><ele>233.0</ele><time>2026-04-25T18:27:07.386Z</time></trkpt><trkpt lat="38.0283857" lon="12.6029992"><ele>233.0</ele><time>2026-04-25T18:27:08.385Z</time></trkpt><trkpt lat="38.0281975" lon="12.6029109"><ele>232.66666666666669</ele><time>2026-04-25T18:27:09.385Z</time></trkpt><trkpt lat="38.0279938" lon="12.602852"><ele>232.33333333333331</ele><time>2026-04-25T18:27:10.384Z</time></trkpt><trkpt lat="38.0278116" lon="12.6028"><ele>232.0</ele><time>2026-04-25T18:27:11.386Z</time></trkpt><trkpt lat="38.0276448" lon="12.6027546"><ele>232.0</ele><time>2026-04-25T18:27:12.386Z</time></trkpt><trkpt lat="38.0275003" lon="12.6027111"><ele>232.0</ele><time>2026-04-25T18:27:13.385Z</time></trkpt><trkpt lat="38.0273814" lon="12.6026734"><ele>232.0</ele><time>2026-04-25T18:27:14.385Z</time></trkpt><trkpt lat="38.0272723" lon="12.6026369"><ele>232.0</ele><time>2026-04-25T18:27:15.385Z</time></trkpt><trkpt lat="38.0271811" lon="12.6025799"><ele>227.75</ele><time>2026-04-25T18:27:16.385Z</time></trkpt><trkpt lat="38.0271197" lon="12.6024966"><ele>223.5</ele><time>2026-04-25T18:27:17.386Z</time></trkpt><trkpt lat="38.0270839" lon="12.6023675"><ele>219.25</ele><time>2026-04-25T18:27:18.385Z</time></trkpt><trkpt lat="38.0270834" lon="12.6021992"><ele>215.0</ele><time>2026-04-25T18:27:19.384Z</time></trkpt><trkpt lat="38.0270934" lon="12.6020068"><ele>215.25</ele><time>2026-04-25T18:27:20.384Z</time></trkpt><trkpt lat="38.0270842" lon="12.601845"><ele>215.5</ele><time>2026-04-25T18:27:21.385Z</time></trkpt><trkpt lat="38.0270521" lon="12.6016935"><ele>215.75</ele><time>2026-04-25T18:27:22.384Z</time></trkpt><trkpt lat="38.0269916" lon="12.6015662"><ele>216.0</ele><time>2026-04-25T18:27:23.386Z</time></trkpt><trkpt lat="38.0268947" lon="12.6014512"><ele>216.0</ele><time>2026-04-25T18:27:24.385Z</time></trkpt><trkpt lat="38.0267735" lon="12.6013683"><ele>216.0</ele><time>2026-04-25T18:27:25.384Z</time></trkpt><trkpt lat="38.026644" lon="12.6013085"><ele>216.0</ele><time>2026-04-25T18:27:26.385Z</time></trkpt><trkpt lat="38.0265239" lon="12.6012595"><ele>216.0</ele><time>2026-04-25T18:27:27.386Z</time></trkpt><trkpt lat="38.0264082" lon="12.6012135"><ele>215.0</ele><time>2026-04-25T18:27:28.385Z</time></trkpt><trkpt lat="38.0263039" lon="12.601167"><ele>214.00000000000003</ele><time>2026-04-25T18:27:29.386Z</time></trkpt><trkpt lat="38.0261974" lon="12.6011239"><ele>213.0</ele><time>2026-04-25T18:27:30.385Z</time></trkpt><trkpt lat="38.0260911" lon="12.601079"><ele>212.0</ele><time>2026-04-25T18:27:31.386Z</time></trkpt><trkpt lat="38.0259846" lon="12.601028"><ele>211.0</ele><time>2026-04-25T18:27:32.385Z</time></trkpt><trkpt lat="38.0258797" lon="12.6009497"><ele>209.5</ele><time>2026-04-25T18:27:33.385Z</time></trkpt><trkpt lat="38.0257821" lon="12.6008428"><ele>208.0</ele><time>2026-04-25T18:27:34.385Z</time></trkpt><trkpt lat="38.0256849" lon="12.6007241"><ele>206.5</ele><time>2026-04-25T18:27:35.385Z</time></trkpt><trkpt lat="38.0255967" lon="12.6006106"><ele>205.0</ele><time>2026-04-25T18:27:36.386Z</time></trkpt><trkpt lat="38.0254922" lon="12.6004905"><ele>205.0</ele><time>2026-04-25T18:27:37.384Z</time></trkpt><trkpt lat="38.0253628" lon="12.6003637"><ele>205.0</ele><time>2026-04-25T18:27:38.385Z</time></trkpt><trkpt lat="38.0252122" lon="12.600234"><ele>205.0</ele><time>2026-04-25T18:27:39.386Z</time></trkpt><trkpt lat="38.0250283" lon="12.60009"><ele>204.0</ele><time>2026-04-25T18:27:40.386Z</time></trkpt><trkpt lat="38.0248379" lon="12.5999339"><ele>203.0</ele><time>2026-04-25T18:27:41.385Z</time></trkpt><trkpt lat="38.024635" lon="12.5997569"><ele>203.0</ele><time>2026-04-25T18:27:42.385Z</time></trkpt><trkpt lat="38.0244325" lon="12.5995634"><ele>203.0</ele><time>2026-04-25T18:27:43.385Z</time></trkpt><trkpt lat="38.0242356" lon="12.5993689"><ele>203.5</ele><time>2026-04-25T18:27:44.386Z</time></trkpt><trkpt lat="38.0240538" lon="12.5991776"><ele>204.0</ele><time>2026-04-25T18:27:45.385Z</time></trkpt><trkpt lat="38.0238811" lon="12.5989921"><ele>204.0</ele><time>2026-04-25T18:27:46.385Z</time></trkpt><trkpt lat="38.023709" lon="12.5988115"><ele>204.0</ele><time>2026-04-25T18:27:47.385Z</time></trkpt><trkpt lat="38.0235514" lon="12.5986311"><ele>204.0</ele><time>2026-04-25T18:27:48.386Z</time></trkpt><trkpt lat="38.023426" lon="12.5984726"><ele>204.33333333333331</ele><time>2026-04-25T18:27:49.386Z</time></trkpt><trkpt lat="38.0233189" lon="12.5982961"><ele>204.66666666666666</ele><time>2026-04-25T18:27:50.384Z</time></trkpt><trkpt lat="38.0232352" lon="12.5980896"><ele>205.0</ele><time>2026-04-25T18:27:51.385Z</time></trkpt><trkpt lat="38.0231558" lon="12.5978566"><ele>204.66666666666666</ele><time>2026-04-25T18:27:52.385Z</time></trkpt><trkpt lat="38.0230848" lon="12.5976071"><ele>204.33333333333331</ele><time>2026-04-25T18:27:53.385Z</time></trkpt><trkpt lat="38.0230189" lon="12.5973489"><ele>204.0</ele><time>2026-04-25T18:27:54.385Z</time></trkpt><trkpt lat="38.0229327" lon="12.5970875"><ele>206.0</ele><time>2026-04-25T18:27:55.384Z</time></trkpt><trkpt lat="38.0228269" lon="12.5968425"><ele>208.0</ele><time>2026-04-25T18:27:56.385Z</time></trkpt><trkpt lat="38.0227019" lon="12.5966277"><ele>210.0</ele><time>2026-04-25T18:27:57.385Z</time></trkpt><trkpt lat="38.0225828" lon="12.5964212"><ele>210.0</ele><time>2026-04-25T18:27:58.385Z</time></trkpt><trkpt lat="38.0224836" lon="12.5962121"><ele>210.0</ele><time>2026-04-25T18:27:59.386Z</time></trkpt><trkpt lat="38.0224096" lon="12.5959918"><ele>210.0</ele><time>2026-04-25T18:28:00.385Z</time></trkpt><trkpt lat="38.0223657" lon="12.5957439"><ele>209.66666666666669</ele><time>2026-04-25T18:28:01.385Z</time></trkpt><trkpt lat="38.0223403" lon="12.5954826"><ele>209.33333333333334</ele><time>2026-04-25T18:28:02.386Z</time></trkpt><trkpt lat="38.022342" lon="12.5951988"><ele>209.0</ele><time>2026-04-25T18:28:03.386Z</time></trkpt><trkpt lat="38.0223473" lon="12.5948762"><ele>208.5</ele><time>2026-04-25T18:28:04.385Z</time></trkpt><trkpt lat="38.0223586" lon="12.594555"><ele>208.0</ele><time>2026-04-25T18:28:05.386Z</time></trkpt><trkpt lat="38.0223791" lon="12.5942271"><ele>208.0</ele><time>2026-04-25T18:28:06.385Z</time></trkpt><trkpt lat="38.0224005" lon="12.5939127"><ele>208.0</ele><time>2026-04-25T18:28:07.385Z</time></trkpt><trkpt lat="38.0224178" lon="12.5936121"><ele>206.33333333333331</ele><time>2026-04-25T18:28:08.384Z</time></trkpt><trkpt lat="38.0224325" lon="12.5933326"><ele>204.66666666666669</ele><time>2026-04-25T18:28:09.385Z</time></trkpt><trkpt lat="38.0224453" lon="12.5930639"><ele>203.0</ele><time>2026-04-25T18:28:10.385Z</time></trkpt><trkpt lat="38.0224621" lon="12.5928054"><ele>202.66666666666669</ele><time>2026-04-25T18:28:11.385Z</time></trkpt><trkpt lat="38.0224735" lon="12.5925654"><ele>202.33333333333331</ele><time>2026-04-25T18:28:12.385Z</time></trkpt><trkpt lat="38.0224867" lon="12.5923487"><ele>202.0</ele><time>2026-04-25T18:28:13.386Z</time></trkpt><trkpt lat="38.0224946" lon="12.5921482"><ele>200.5</ele><time>2026-04-25T18:28:14.385Z</time></trkpt><trkpt lat="38.0224975" lon="12.5919632"><ele>199.0</ele><time>2026-04-25T18:28:15.386Z</time></trkpt><trkpt lat="38.0224796" lon="12.591786"><ele>197.5</ele><time>2026-04-25T18:28:16.386Z</time></trkpt><trkpt lat="38.0224378" lon="12.5916078"><ele>196.0</ele><time>2026-04-25T18:28:17.386Z</time></trkpt><trkpt lat="38.0223654" lon="12.5914301"><ele>193.0</ele><time>2026-04-25T18:28:18.385Z</time></trkpt><trkpt lat="38.0222752" lon="12.5912531"><ele>190.0</ele><time>2026-04-25T18:28:19.385Z</time></trkpt><trkpt lat="38.0221747" lon="12.5910698"><ele>187.0</ele><time>2026-04-25T18:28:20.384Z</time></trkpt><trkpt lat="38.0220773" lon="12.5908896"><ele>186.66666666666669</ele><time>2026-04-25T18:28:21.386Z</time></trkpt><trkpt lat="38.0219888" lon="12.5907213"><ele>186.33333333333334</ele><time>2026-04-25T18:28:22.386Z</time></trkpt><trkpt lat="38.0218983" lon="12.590562"><ele>186.0</ele><time>2026-04-25T18:28:23.386Z</time></trkpt><trkpt lat="38.0218271" lon="12.5903909"><ele>184.66666666666666</ele><time>2026-04-25T18:28:24.385Z</time></trkpt><trkpt lat="38.0217759" lon="12.5901989"><ele>183.33333333333331</ele><time>2026-04-25T18:28:25.386Z</time></trkpt><trkpt lat="38.0217418" lon="12.5899872"><ele>182.0</ele><time>2026-04-25T18:28:26.386Z</time></trkpt><trkpt lat="38.0217301" lon="12.5897516"><ele>181.0</ele><time>2026-04-25T18:28:27.385Z</time></trkpt><trkpt lat="38.0217481" lon="12.5895018"><ele>180.0</ele><time>2026-04-25T18:28:28.385Z</time></trkpt><trkpt lat="38.0217798" lon="12.5892471"><ele>179.0</ele><time>2026-04-25T18:28:29.384Z</time></trkpt><trkpt lat="38.0218174" lon="12.5889896"><ele>179.0</ele><time>2026-04-25T18:28:30.386Z</time></trkpt><trkpt lat="38.0218495" lon="12.5887332"><ele>179.0</ele><time>2026-04-25T18:28:31.384Z</time></trkpt><trkpt lat="38.0218858" lon="12.5884886"><ele>179.0</ele><time>2026-04-25T18:28:32.385Z</time></trkpt><trkpt lat="38.0219421" lon="12.5882522"><ele>177.66666666666666</ele><time>2026-04-25T18:28:33.386Z</time></trkpt><trkpt lat="38.0220243" lon="12.5880134"><ele>176.33333333333334</ele><time>2026-04-25T18:28:34.385Z</time></trkpt><trkpt lat="38.0221408" lon="12.5877489"><ele>175.0</ele><time>2026-04-25T18:28:35.386Z</time></trkpt><trkpt lat="38.0222736" lon="12.5874713"><ele>174.5</ele><time>2026-04-25T18:28:36.386Z</time></trkpt><trkpt lat="38.0224031" lon="12.5871977"><ele>174.0</ele><time>2026-04-25T18:28:37.384Z</time></trkpt><trkpt lat="38.0225201" lon="12.5869559"><ele>174.0</ele><time>2026-04-25T18:28:38.386Z</time></trkpt><trkpt lat="38.0226313" lon="12.5867247"><ele>174.0</ele><time>2026-04-25T18:28:39.385Z</time></trkpt><trkpt lat="38.0227365" lon="12.5864972"><ele>174.0</ele><time>2026-04-25T18:28:40.385Z</time></trkpt><trkpt lat="38.0228253" lon="12.5862571"><ele>172.33333333333334</ele><time>2026-04-25T18:28:41.385Z</time></trkpt><trkpt lat="38.0228832" lon="12.5859862"><ele>170.66666666666669</ele><time>2026-04-25T18:28:42.385Z</time></trkpt><trkpt lat="38.0229201" lon="12.5857149"><ele>169.0</ele><time>2026-04-25T18:28:43.386Z</time></trkpt><trkpt lat="38.0229579" lon="12.5854492"><ele>168.33333333333334</ele><time>2026-04-25T18:28:44.386Z</time></trkpt><trkpt lat="38.0229955" lon="12.58521"><ele>167.66666666666666</ele><time>2026-04-25T18:28:45.386Z</time></trkpt><trkpt lat="38.0230323" lon="12.5849926"><ele>167.0</ele><time>2026-04-25T18:28:46.385Z</time></trkpt><trkpt lat="38.0230731" lon="12.5847935"><ele>167.0</ele><time>2026-04-25T18:28:47.385Z</time></trkpt><trkpt lat="38.0231347" lon="12.5846064"><ele>167.0</ele><time>2026-04-25T18:28:48.385Z</time></trkpt><trkpt lat="38.023213" lon="12.5844267"><ele>167.0</ele><time>2026-04-25T18:28:49.386Z</time></trkpt><trkpt lat="38.0232931" lon="12.5842506"><ele>167.0</ele><time>2026-04-25T18:28:50.386Z</time></trkpt><trkpt lat="38.0233754" lon="12.5840937"><ele>167.0</ele><time>2026-04-25T18:28:51.386Z</time></trkpt><trkpt lat="38.0234553" lon="12.5839412"><ele>167.0</ele><time>2026-04-25T18:28:52.384Z</time></trkpt><trkpt lat="38.0235229" lon="12.583795"><ele>167.0</ele><time>2026-04-25T18:28:53.386Z</time></trkpt><trkpt lat="38.0235857" lon="12.583653"><ele>166.25</ele><time>2026-04-25T18:28:54.385Z</time></trkpt><trkpt lat="38.0236389" lon="12.5834925"><ele>165.5</ele><time>2026-04-25T18:28:55.386Z</time></trkpt><trkpt lat="38.0236788" lon="12.5833244"><ele>164.75</ele><time>2026-04-25T18:28:56.386Z</time></trkpt><trkpt lat="38.0237111" lon="12.5831523"><ele>164.0</ele><time>2026-04-25T18:28:57.385Z</time></trkpt><trkpt lat="38.0237467" lon="12.5829892"><ele>163.25</ele><time>2026-04-25T18:28:58.385Z</time></trkpt><trkpt lat="38.0237646" lon="12.5828263"><ele>162.5</ele><time>2026-04-25T18:28:59.385Z</time></trkpt><trkpt lat="38.0237779" lon="12.582672"><ele>161.75</ele><time>2026-04-25T18:29:00.385Z</time></trkpt><trkpt lat="38.0237934" lon="12.5825141"><ele>161.0</ele><time>2026-04-25T18:29:01.386Z</time></trkpt><trkpt lat="38.0238091" lon="12.5823679"><ele>161.0</ele><time>2026-04-25T18:29:02.386Z</time></trkpt><trkpt lat="38.0238223" lon="12.5822274"><ele>161.0</ele><time>2026-04-25T18:29:03.386Z</time></trkpt><trkpt lat="38.0238382" lon="12.5820878"><ele>161.0</ele><time>2026-04-25T18:29:04.386Z</time></trkpt><trkpt lat="38.023852" lon="12.5819375"><ele>161.0</ele><time>2026-04-25T18:29:05.386Z</time></trkpt><trkpt lat="38.0238741" lon="12.5817782"><ele>159.33333333333331</ele><time>2026-04-25T18:29:06.385Z</time></trkpt><trkpt lat="38.0238812" lon="12.5816005"><ele>157.66666666666666</ele><time>2026-04-25T18:29:07.385Z</time></trkpt><trkpt lat="38.0238921" lon="12.5814099"><ele>156.0</ele><time>2026-04-25T18:29:08.387Z</time></trkpt><trkpt lat="38.0238913" lon="12.5812027"><ele>154.33333333333334</ele><time>2026-04-25T18:29:09.386Z</time></trkpt><trkpt lat="38.023884" lon="12.5810013"><ele>152.66666666666669</ele><time>2026-04-25T18:29:10.384Z</time></trkpt><trkpt lat="38.0238652" lon="12.5808011"><ele>151.0</ele><time>2026-04-25T18:29:11.386Z</time></trkpt><trkpt lat="38.0238375" lon="12.5806078"><ele>151.0</ele><time>2026-04-25T18:29:12.385Z</time></trkpt><trkpt lat="38.0238034" lon="12.5804241"><ele>151.0</ele><time>2026-04-25T18:29:13.385Z</time></trkpt><trkpt lat="38.0237704" lon="12.5802477"><ele>151.0</ele><time>2026-04-25T18:29:14.386Z</time></trkpt><trkpt lat="38.023735" lon="12.5800844"><ele>151.0</ele><time>2026-04-25T18:29:15.386Z</time></trkpt><trkpt lat="38.0237049" lon="12.57993"><ele>150.6</ele><time>2026-04-25T18:29:16.386Z</time></trkpt><trkpt lat="38.0236706" lon="12.57978"><ele>150.2</ele><time>2026-04-25T18:29:17.385Z</time></trkpt><trkpt lat="38.0236353" lon="12.579642"><ele>149.8</ele><time>2026-04-25T18:29:18.386Z</time></trkpt><trkpt lat="38.0236108" lon="12.5795138"><ele>149.4</ele><time>2026-04-25T18:29:19.385Z</time></trkpt><trkpt lat="38.0235808" lon="12.5793934"><ele>149.0</ele><time>2026-04-25T18:29:20.386Z</time></trkpt><trkpt lat="38.0235554" lon="12.5792913"><ele>148.85714285714286</ele><time>2026-04-25T18:29:21.386Z</time></trkpt><trkpt lat="38.0235292" lon="12.5791942"><ele>148.7142857142857</ele><time>2026-04-25T18:29:22.385Z</time></trkpt><trkpt lat="38.023503" lon="12.5791047"><ele>148.57142857142856</ele><time>2026-04-25T18:29:23.386Z</time></trkpt><trkpt lat="38.0234817" lon="12.5790115"><ele>148.42857142857142</ele><time>2026-04-25T18:29:24.385Z</time></trkpt><trkpt lat="38.0234601" lon="12.5789236"><ele>148.28571428571428</ele><time>2026-04-25T18:29:25.386Z</time></trkpt><trkpt lat="38.0234324" lon="12.5788413"><ele>148.14285714285714</ele><time>2026-04-25T18:29:26.386Z</time></trkpt><trkpt lat="38.0233939" lon="12.5787755"><ele>148.0</ele><time>2026-04-25T18:29:27.386Z</time></trkpt><trkpt lat="38.0233376" lon="12.57873"><ele>146.0</ele><time>2026-04-25T18:29:28.386Z</time></trkpt><trkpt lat="38.0232653" lon="12.5787067"><ele>144.0</ele><time>2026-04-25T18:29:29.387Z</time></trkpt><trkpt lat="38.02319" lon="12.5787245"><ele>142.0</ele><time>2026-04-25T18:29:30.386Z</time></trkpt><trkpt lat="38.0231142" lon="12.5787854"><ele>140.0</ele><time>2026-04-25T18:29:31.386Z</time></trkpt><trkpt lat="38.0230266" lon="12.5788605"><ele>138.0</ele><time>2026-04-25T18:29:32.385Z</time></trkpt><trkpt lat="38.0229261" lon="12.578951"><ele>138.0</ele><time>2026-04-25T18:29:33.386Z</time></trkpt><trkpt lat="38.0228129" lon="12.5790645"><ele>138.0</ele><time>2026-04-25T18:29:34.386Z</time></trkpt><trkpt lat="38.0226919" lon="12.5791827"><ele>138.0</ele><time>2026-04-25T18:29:35.386Z</time></trkpt><trkpt lat="38.0225652" lon="12.579295"><ele>135.5</ele><time>2026-04-25T18:29:36.386Z</time></trkpt><trkpt lat="38.022445" lon="12.5794023"><ele>133.0</ele><time>2026-04-25T18:29:37.386Z</time></trkpt><trkpt lat="38.0223279" lon="12.5794902"><ele>130.5</ele><time>2026-04-25T18:29:38.386Z</time></trkpt><trkpt lat="38.0222085" lon="12.5795641"><ele>128.0</ele><time>2026-04-25T18:29:39.385Z</time></trkpt><trkpt lat="38.0220989" lon="12.5796091"><ele>128.0</ele><time>2026-04-25T18:29:40.386Z</time></trkpt><trkpt lat="38.0219758" lon="12.5796274"><ele>128.0</ele><time>2026-04-25T18:29:41.386Z</time></trkpt><trkpt lat="38.0218353" lon="12.5796163"><ele>128.0</ele><time>2026-04-25T18:29:42.387Z</time></trkpt><trkpt lat="38.0216981" lon="12.5795792"><ele>128.0</ele><time>2026-04-25T18:29:43.385Z</time></trkpt><trkpt lat="38.0215516" lon="12.5795238"><ele>126.25</ele><time>2026-04-25T18:29:44.386Z</time></trkpt><trkpt lat="38.0214117" lon="12.5794544"><ele>124.5</ele><time>2026-04-25T18:29:45.385Z</time></trkpt><trkpt lat="38.0212795" lon="12.5793867"><ele>122.75</ele><time>2026-04-25T18:29:46.386Z</time></trkpt><trkpt lat="38.021152" lon="12.5793217"><ele>121.0</ele><time>2026-04-25T18:29:47.386Z</time></trkpt><trkpt lat="38.0210418" lon="12.5792513"><ele>121.0</ele><time>2026-04-25T18:29:48.385Z</time></trkpt><trkpt lat="38.020943" lon="12.5791533"><ele>121.0</ele><time>2026-04-25T18:29:49.386Z</time></trkpt><trkpt lat="38.0208663" lon="12.5790207"><ele>121.0</ele><time>2026-04-25T18:29:50.386Z</time></trkpt><trkpt lat="38.0208202" lon="12.578853"><ele>121.0</ele><time>2026-04-25T18:29:51.386Z</time></trkpt><trkpt lat="38.0207975" lon="12.5786607"><ele>116.66666666666667</ele><time>2026-04-25T18:29:52.386Z</time></trkpt><trkpt lat="38.0208011" lon="12.5784402"><ele>112.33333333333334</ele><time>2026-04-25T18:29:53.386Z</time></trkpt><trkpt lat="38.0208036" lon="12.5782245"><ele>108.0</ele><time>2026-04-25T18:29:54.387Z</time></trkpt><trkpt lat="38.0208072" lon="12.5780158"><ele>106.75</ele><time>2026-04-25T18:29:55.385Z</time></trkpt><trkpt lat="38.0208071" lon="12.5778278"><ele>105.5</ele><time>2026-04-25T18:29:56.386Z</time></trkpt><trkpt lat="38.020804" lon="12.5776618"><ele>104.25</ele><time>2026-04-25T18:29:57.386Z</time></trkpt><trkpt lat="38.0207797" lon="12.5775021"><ele>103.0</ele><time>2026-04-25T18:29:58.386Z</time></trkpt><trkpt lat="38.0207253" lon="12.5773361"><ele>103.0</ele><time>2026-04-25T18:29:59.386Z</time></trkpt><trkpt lat="38.0206468" lon="12.5771647"><ele>103.0</ele><time>2026-04-25T18:30:00.386Z</time></trkpt><trkpt lat="38.0205585" lon="12.5769976"><ele>103.0</ele><time>2026-04-25T18:30:01.386Z</time></trkpt><trkpt lat="38.0204727" lon="12.5768437"><ele>103.0</ele><time>2026-04-25T18:30:02.386Z</time></trkpt><trkpt lat="38.0203944" lon="12.5767047"><ele>103.0</ele><time>2026-04-25T18:30:03.386Z</time></trkpt><trkpt lat="38.020332" lon="12.5765787"><ele>103.0</ele><time>2026-04-25T18:30:04.386Z</time></trkpt><trkpt lat="38.0202922" lon="12.5764377"><ele>103.0</ele><time>2026-04-25T18:30:05.386Z</time></trkpt><trkpt lat="38.0202684" lon="12.5762694"><ele>103.0</ele><time>2026-04-25T18:30:06.386Z</time></trkpt><trkpt lat="38.0202542" lon="12.5760723"><ele>103.0</ele><time>2026-04-25T18:30:07.386Z</time></trkpt><trkpt lat="38.0202462" lon="12.5758502"><ele>103.0</ele><time>2026-04-25T18:30:08.386Z</time></trkpt><trkpt lat="38.0202455" lon="12.5756298"><ele>103.0</ele><time>2026-04-25T18:30:09.385Z</time></trkpt><trkpt lat="38.0202438" lon="12.5754066"><ele>103.0</ele><time>2026-04-25T18:30:10.386Z</time></trkpt><trkpt lat="38.0202394" lon="12.5751968"><ele>103.0</ele><time>2026-04-25T18:30:11.386Z</time></trkpt><trkpt lat="38.0202368" lon="12.575012"><ele>102.0</ele><time>2026-04-25T18:30:12.386Z</time></trkpt><trkpt lat="38.0202255" lon="12.5748368"><ele>101.0</ele><time>2026-04-25T18:30:13.386Z</time></trkpt><trkpt lat="38.0201974" lon="12.5746649"><ele>100.0</ele><time>2026-04-25T18:30:14.386Z</time></trkpt><trkpt lat="38.020149" lon="12.5745007"><ele>99.0</ele><time>2026-04-25T18:30:15.386Z</time></trkpt><trkpt lat="38.0200715" lon="12.5743359"><ele>96.0</ele><time>2026-04-25T18:30:16.386Z</time></trkpt><trkpt lat="38.0199785" lon="12.5741565"><ele>93.0</ele><time>2026-04-25T18:30:17.385Z</time></trkpt><trkpt lat="38.0198761" lon="12.5739706"><ele>90.0</ele><time>2026-04-25T18:30:18.386Z</time></trkpt><trkpt lat="38.0197723" lon="12.5737866"><ele>87.66666666666667</ele><time>2026-04-25T18:30:19.386Z</time></trkpt><trkpt lat="38.0196665" lon="12.5735925"><ele>85.33333333333334</ele><time>2026-04-25T18:30:20.385Z</time></trkpt><trkpt lat="38.019563" lon="12.5734077"><ele>83.0</ele><time>2026-04-25T18:30:21.386Z</time></trkpt><trkpt lat="38.0194898" lon="12.5732218"><ele>83.0</ele><time>2026-04-25T18:30:22.387Z</time></trkpt><trkpt lat="38.0194303" lon="12.5730311"><ele>83.0</ele><time>2026-04-25T18:30:23.386Z</time></trkpt><trkpt lat="38.019383" lon="12.5728267"><ele>83.0</ele><time>2026-04-25T18:30:24.386Z</time></trkpt><trkpt lat="38.0193431" lon="12.5726188"><ele>82.66666666666667</ele><time>2026-04-25T18:30:25.386Z</time></trkpt><trkpt lat="38.0193051" lon="12.5724041"><ele>82.33333333333333</ele><time>2026-04-25T18:30:26.385Z</time></trkpt><trkpt lat="38.0192706" lon="12.5721878"><ele>82.0</ele><time>2026-04-25T18:30:27.386Z</time></trkpt><trkpt lat="38.0192298" lon="12.5719718"><ele>81.0</ele><time>2026-04-25T18:30:28.386Z</time></trkpt><trkpt lat="38.0192055" lon="12.5717731"><ele>80.0</ele><time>2026-04-25T18:30:29.385Z</time></trkpt><trkpt lat="38.0191871" lon="12.5715705"><ele>79.0</ele><time>2026-04-25T18:30:30.386Z</time></trkpt><trkpt lat="38.0191843" lon="12.5713601"><ele>78.0</ele><time>2026-04-25T18:30:31.386Z</time></trkpt><trkpt lat="38.0191905" lon="12.5711537"><ele>77.0</ele><time>2026-04-25T18:30:32.386Z</time></trkpt><trkpt lat="38.0191922" lon="12.5709533"><ele>76.0</ele><time>2026-04-25T18:30:33.386Z</time></trkpt><trkpt lat="38.0191943" lon="12.5707726"><ele>76.0</ele><time>2026-04-25T18:30:34.386Z</time></trkpt><trkpt lat="38.0192064" lon="12.5706021"><ele>76.0</ele><time>2026-04-25T18:30:35.386Z</time></trkpt><trkpt lat="38.0192076" lon="12.5704397"><ele>76.0</ele><time>2026-04-25T18:30:36.387Z</time></trkpt><trkpt lat="38.019193" lon="12.5702929"><ele>76.0</ele><time>2026-04-25T18:30:37.387Z</time></trkpt><trkpt lat="38.0191551" lon="12.5701518"><ele>72.5</ele><time>2026-04-25T18:30:38.386Z</time></trkpt><trkpt lat="38.0190934" lon="12.5700101"><ele>69.0</ele><time>2026-04-25T18:30:39.385Z</time></trkpt><trkpt lat="38.0190039" lon="12.5698745"><ele>65.5</ele><time>2026-04-25T18:30:40.386Z</time></trkpt><trkpt lat="38.0189058" lon="12.5697571"><ele>62.0</ele><time>2026-04-25T18:30:41.386Z</time></trkpt><trkpt lat="38.0188055" lon="12.5696482"><ele>62.0</ele><time>2026-04-25T18:30:42.386Z</time></trkpt><trkpt lat="38.0187129" lon="12.5695416"><ele>62.0</ele><time>2026-04-25T18:30:43.386Z</time></trkpt><trkpt lat="38.0186254" lon="12.5694464"><ele>62.0</ele><time>2026-04-25T18:30:44.385Z</time></trkpt><trkpt lat="38.0185472" lon="12.5693659"><ele>62.0</ele><time>2026-04-25T18:30:45.385Z</time></trkpt><trkpt lat="38.0184718" lon="12.5693081"><ele>62.0</ele><time>2026-04-25T18:30:46.386Z</time></trkpt><trkpt lat="38.0183968" lon="12.5692697"><ele>62.6</ele><time>2026-04-25T18:30:47.385Z</time></trkpt><trkpt lat="38.0183212" lon="12.5692551"><ele>63.2</ele><time>2026-04-25T18:30:48.386Z</time></trkpt><trkpt lat="38.0182368" lon="12.5692785"><ele>63.8</ele><time>2026-04-25T18:30:49.387Z</time></trkpt><trkpt lat="38.0181525" lon="12.5693345"><ele>64.4</ele><time>2026-04-25T18:30:50.386Z</time></trkpt><trkpt lat="38.0180678" lon="12.5694091"><ele>65.0</ele><time>2026-04-25T18:30:51.385Z</time></trkpt><trkpt lat="38.0179896" lon="12.569492"><ele>61.75</ele><time>2026-04-25T18:30:52.387Z</time></trkpt><trkpt lat="38.0179022" lon="12.5695747"><ele>58.5</ele><time>2026-04-25T18:30:53.385Z</time></trkpt><trkpt lat="38.0178082" lon="12.569666"><ele>55.25</ele><time>2026-04-25T18:30:54.387Z</time></trkpt><trkpt lat="38.0177222" lon="12.5697581"><ele>52.0</ele><time>2026-04-25T18:30:55.386Z</time></trkpt><trkpt lat="38.0176254" lon="12.5698686"><ele>52.0</ele><time>2026-04-25T18:30:56.386Z</time></trkpt><trkpt lat="38.0175311" lon="12.5699632"><ele>52.0</ele><time>2026-04-25T18:30:57.387Z</time></trkpt><trkpt lat="38.0174317" lon="12.5700366"><ele>52.0</ele><time>2026-04-25T18:30:58.386Z</time></trkpt><trkpt lat="38.0173248" lon="12.5700941"><ele>52.0</ele><time>2026-04-25T18:30:59.386Z</time></trkpt><trkpt lat="38.0172174" lon="12.5701285"><ele>49.25</ele><time>2026-04-25T18:31:00.387Z</time></trkpt><trkpt lat="38.017106" lon="12.5701273"><ele>46.5</ele><time>2026-04-25T18:31:01.387Z</time></trkpt><trkpt lat="38.0169869" lon="12.5701152"><ele>43.75</ele><time>2026-04-25T18:31:02.386Z</time></trkpt><trkpt lat="38.0168623" lon="12.5700924"><ele>41.0</ele><time>2026-04-25T18:31:03.386Z</time></trkpt><trkpt lat="38.0167329" lon="12.5700719"><ele>40.0</ele><time>2026-04-25T18:31:04.386Z</time></trkpt><trkpt lat="38.0166051" lon="12.5700441"><ele>39.0</ele><time>2026-04-25T18:31:05.387Z</time></trkpt><trkpt lat="38.0164717" lon="12.5700148"><ele>38.0</ele><time>2026-04-25T18:31:06.386Z</time></trkpt><trkpt lat="38.016338" lon="12.5699842"><ele>37.0</ele><time>2026-04-25T18:31:07.386Z</time></trkpt><trkpt lat="38.0162027" lon="12.5699552"><ele>37.0</ele><time>2026-04-25T18:31:08.387Z</time></trkpt><trkpt lat="38.0160678" lon="12.5699238"><ele>37.0</ele><time>2026-04-25T18:31:09.386Z</time></trkpt><trkpt lat="38.0159214" lon="12.5698869"><ele>37.0</ele><time>2026-04-25T18:31:10.386Z</time></trkpt><trkpt lat="38.0157797" lon="12.5698517"><ele>37.0</ele><time>2026-04-25T18:31:11.386Z</time></trkpt><trkpt lat="38.0156374" lon="12.5698197"><ele>36.5</ele><time>2026-04-25T18:31:12.386Z</time></trkpt><trkpt lat="38.0155027" lon="12.5697876"><ele>36.0</ele><time>2026-04-25T18:31:13.386Z</time></trkpt><trkpt lat="38.015374" lon="12.5697539"><ele>35.5</ele><time>2026-04-25T18:31:14.385Z</time></trkpt><trkpt lat="38.015251" lon="12.5697202"><ele>35.0</ele><time>2026-04-25T18:31:15.385Z</time></trkpt><trkpt lat="38.0151307" lon="12.5696921"><ele>35.0</ele><time>2026-04-25T18:31:16.386Z</time></trkpt><trkpt lat="38.0150153" lon="12.569665"><ele>35.0</ele><time>2026-04-25T18:31:17.386Z</time></trkpt><trkpt lat="38.0149067" lon="12.569639"><ele>35.0</ele><time>2026-04-25T18:31:18.386Z</time></trkpt><trkpt lat="38.0148122" lon="12.5696128"><ele>35.0</ele><time>2026-04-25T18:31:19.386Z</time></trkpt><trkpt lat="38.0147329" lon="12.569588"><ele>35.0</ele><time>2026-04-25T18:31:20.386Z</time></trkpt><trkpt lat="38.0146662" lon="12.5695618"><ele>34.8</ele><time>2026-04-25T18:31:21.386Z</time></trkpt><trkpt lat="38.014562" lon="12.5694846"><ele>34.6</ele><time>2026-04-25T18:31:23.387Z</time></trkpt><trkpt lat="38.01451" lon="12.5694342"><ele>34.4</ele><time>2026-04-25T18:31:24.387Z</time></trkpt><trkpt lat="38.0143929" lon="12.5693491"><ele>34.2</ele><time>2026-04-25T18:31:26.387Z</time></trkpt><trkpt lat="38.0143158" lon="12.5693365"><ele>34.0</ele><time>2026-04-25T18:31:27.388Z</time></trkpt><trkpt lat="38.0142365" lon="12.569347"><ele>33.8</ele><time>2026-04-25T18:31:28.386Z</time></trkpt><trkpt lat="38.0141454" lon="12.5693696"><ele>33.599999999999994</ele><time>2026-04-25T18:31:29.386Z</time></trkpt><trkpt lat="38.0140463" lon="12.5693824"><ele>33.4</ele><time>2026-04-25T18:31:30.386Z</time></trkpt><trkpt lat="38.0139332" lon="12.5693781"><ele>33.199999999999996</ele><time>2026-04-25T18:31:31.387Z</time></trkpt><trkpt lat="38.0138243" lon="12.5693588"><ele>33.0</ele><time>2026-04-25T18:31:32.385Z</time></trkpt><trkpt lat="38.0137161" lon="12.5693354"><ele>33.0</ele><time>2026-04-25T18:31:33.386Z</time></trkpt><trkpt lat="38.0135974" lon="12.5693127"><ele>33.0</ele><time>2026-04-25T18:31:34.386Z</time></trkpt><trkpt lat="38.0134792" lon="12.5692855"><ele>33.0</ele><time>2026-04-25T18:31:35.387Z</time></trkpt><trkpt lat="38.0133566" lon="12.569265"><ele>33.0</ele><time>2026-04-25T18:31:36.386Z</time></trkpt><trkpt lat="38.0132284" lon="12.5692312"><ele>33.0</ele><time>2026-04-25T18:31:37.387Z</time></trkpt><trkpt lat="38.0130956" lon="12.5691982"><ele>33.0</ele><time>2026-04-25T18:31:38.386Z</time></trkpt><trkpt lat="38.0129672" lon="12.5691671"><ele>33.0</ele><time>2026-04-25T18:31:39.387Z</time></trkpt><trkpt lat="38.0128346" lon="12.5691376"><ele>33.0</ele><time>2026-04-25T18:31:40.386Z</time></trkpt><trkpt lat="38.0127004" lon="12.5691085"><ele>33.0</ele><time>2026-04-25T18:31:41.387Z</time></trkpt><trkpt lat="38.0125646" lon="12.5690809"><ele>33.0</ele><time>2026-04-25T18:31:42.387Z</time></trkpt><trkpt lat="38.012423" lon="12.569052"><ele>33.0</ele><time>2026-04-25T18:31:43.386Z</time></trkpt><trkpt lat="38.0122879" lon="12.5690244"><ele>33.0</ele><time>2026-04-25T18:31:44.386Z</time></trkpt><trkpt lat="38.0121486" lon="12.5689983"><ele>33.0</ele><time>2026-04-25T18:31:45.387Z</time></trkpt><trkpt lat="38.0120016" lon="12.5689658"><ele>33.0</ele><time>2026-04-25T18:31:46.387Z</time></trkpt><trkpt lat="38.0118549" lon="12.5689333"><ele>33.0</ele><time>2026-04-25T18:31:47.386Z</time></trkpt><trkpt lat="38.0117145" lon="12.5688995"><ele>33.0</ele><time>2026-04-25T18:31:48.386Z</time></trkpt><trkpt lat="38.0115785" lon="12.5688689"><ele>32.0</ele><time>2026-04-25T18:31:49.387Z</time></trkpt><trkpt lat="38.0114454" lon="12.5688416"><ele>31.0</ele><time>2026-04-25T18:31:50.386Z</time></trkpt><trkpt lat="38.0113137" lon="12.5688093"><ele>30.0</ele><time>2026-04-25T18:31:51.387Z</time></trkpt><trkpt lat="38.0111828" lon="12.5687711"><ele>29.0</ele><time>2026-04-25T18:31:52.386Z</time></trkpt><trkpt lat="38.0110502" lon="12.5687377"><ele>29.0</ele><time>2026-04-25T18:31:53.387Z</time></trkpt><trkpt lat="38.0109264" lon="12.5687076"><ele>29.0</ele><time>2026-04-25T18:31:54.386Z</time></trkpt><trkpt lat="38.0108064" lon="12.5686752"><ele>29.0</ele><time>2026-04-25T18:31:55.386Z</time></trkpt><trkpt lat="38.0106902" lon="12.568648"><ele>29.0</ele><time>2026-04-25T18:31:56.387Z</time></trkpt><trkpt lat="38.0105834" lon="12.5686257"><ele>28.4</ele><time>2026-04-25T18:31:57.387Z</time></trkpt><trkpt lat="38.0104746" lon="12.5686017"><ele>27.799999999999997</ele><time>2026-04-25T18:31:58.385Z</time></trkpt><trkpt lat="38.0103696" lon="12.5685756"><ele>27.200000000000003</ele><time>2026-04-25T18:31:59.386Z</time></trkpt><trkpt lat="38.0102712" lon="12.5685427"><ele>26.6</ele><time>2026-04-25T18:32:00.386Z</time></trkpt><trkpt lat="38.010167" lon="12.5685142"><ele>26.0</ele><time>2026-04-25T18:32:01.387Z</time></trkpt><trkpt lat="38.0100824" lon="12.5684909"><ele>25.999999999999996</ele><time>2026-04-25T18:32:02.387Z</time></trkpt><trkpt lat="38.0100073" lon="12.5684616"><ele>26.0</ele><time>2026-04-25T18:32:03.386Z</time></trkpt><trkpt lat="38.0099455" lon="12.5684255"><ele>26.0</ele><time>2026-04-25T18:32:04.386Z</time></trkpt><trkpt lat="38.0098872" lon="12.5683914"><ele>26.0</ele><time>2026-04-25T18:32:05.386Z</time></trkpt><trkpt lat="38.0097972" lon="12.568336"><ele>25.999999999999996</ele><time>2026-04-25T18:32:07.387Z</time></trkpt><trkpt lat="38.0097309" lon="12.568291"><ele>26.0</ele><time>2026-04-25T18:32:09.386Z</time></trkpt><trkpt lat="38.0096691" lon="12.5682034"><ele>25.833333333333332</ele><time>2026-04-25T18:32:12.386Z</time></trkpt><trkpt lat="38.0096173" lon="12.5680929"><ele>25.666666666666664</ele><time>2026-04-25T18:32:14.387Z</time></trkpt><trkpt lat="38.0095846" lon="12.5680228"><ele>25.5</ele><time>2026-04-25T18:32:15.386Z</time></trkpt><trkpt lat="38.0095512" lon="12.5679444"><ele>25.333333333333336</ele><time>2026-04-25T18:32:16.388Z</time></trkpt><trkpt lat="38.0094954" lon="12.5678662"><ele>25.166666666666668</ele><time>2026-04-25T18:32:17.386Z</time></trkpt><trkpt lat="38.0094263" lon="12.5678043"><ele>25.0</ele><time>2026-04-25T18:32:18.386Z</time></trkpt><trkpt lat="38.0093421" lon="12.5677643"><ele>25.0</ele><time>2026-04-25T18:32:19.387Z</time></trkpt><trkpt lat="38.0092597" lon="12.5677462"><ele>25.0</ele><time>2026-04-25T18:32:20.387Z</time></trkpt><trkpt lat="38.0091771" lon="12.5677599"><ele>25.0</ele><time>2026-04-25T18:32:21.387Z</time></trkpt><trkpt lat="38.0090932" lon="12.5678005"><ele>25.0</ele><time>2026-04-25T18:32:22.386Z</time></trkpt><trkpt lat="38.0090111" lon="12.5678653"><ele>25.0</ele><time>2026-04-25T18:32:23.386Z</time></trkpt><trkpt lat="38.0089293" lon="12.5679462"><ele>25.8</ele><time>2026-04-25T18:32:24.387Z</time></trkpt><trkpt lat="38.0088458" lon="12.5680313"><ele>26.6</ele><time>2026-04-25T18:32:25.387Z</time></trkpt><trkpt lat="38.0087523" lon="12.568105"><ele>27.4</ele><time>2026-04-25T18:32:26.387Z</time></trkpt><trkpt lat="38.0086497" lon="12.5681495"><ele>28.2</ele><time>2026-04-25T18:32:27.386Z</time></trkpt><trkpt lat="38.0085366" lon="12.5681843"><ele>29.0</ele><time>2026-04-25T18:32:28.386Z</time></trkpt><trkpt lat="38.00843" lon="12.5682029"><ele>29.0</ele><time>2026-04-25T18:32:29.387Z</time></trkpt><trkpt lat="38.0083289" lon="12.5682091"><ele>29.0</ele><time>2026-04-25T18:32:30.386Z</time></trkpt><trkpt lat="38.0082355" lon="12.5682142"><ele>29.0</ele><time>2026-04-25T18:32:31.387Z</time></trkpt><trkpt lat="38.0081441" lon="12.5682164"><ele>29.0</ele><time>2026-04-25T18:32:32.386Z</time></trkpt><trkpt lat="38.0080565" lon="12.568218"><ele>29.0</ele><time>2026-04-25T18:32:33.387Z</time></trkpt><trkpt lat="38.0079733" lon="12.5682175"><ele>28.4</ele><time>2026-04-25T18:32:34.387Z</time></trkpt><trkpt lat="38.0078959" lon="12.5682128"><ele>27.799999999999997</ele><time>2026-04-25T18:32:35.387Z</time></trkpt><trkpt lat="38.0077821" lon="12.5682194"><ele>27.200000000000003</ele><time>2026-04-25T18:32:37.387Z</time></trkpt><trkpt lat="38.0076644" lon="12.5682086"><ele>26.6</ele><time>2026-04-25T18:32:39.386Z</time></trkpt><trkpt lat="38.0075524" lon="12.5682022"><ele>26.0</ele><time>2026-04-25T18:32:41.387Z</time></trkpt><trkpt lat="38.0074353" lon="12.5681902"><ele>26.0</ele><time>2026-04-25T18:32:43.386Z</time></trkpt><trkpt lat="38.0073716" lon="12.5681805"><ele>26.0</ele><time>2026-04-25T18:32:44.388Z</time></trkpt><trkpt lat="38.0073075" lon="12.5681742"><ele>26.0</ele><time>2026-04-25T18:32:45.386Z</time></trkpt><trkpt lat="38.0072418" lon="12.5681642"><ele>26.0</ele><time>2026-04-25T18:32:46.387Z</time></trkpt><trkpt lat="38.007171" lon="12.568156"><ele>26.0</ele><time>2026-04-25T18:32:47.386Z</time></trkpt><trkpt lat="38.0070935" lon="12.5681499"><ele>26.0</ele><time>2026-04-25T18:32:48.386Z</time></trkpt><trkpt lat="38.0070111" lon="12.568142"><ele>26.0</ele><time>2026-04-25T18:32:49.386Z</time></trkpt><trkpt lat="38.0069188" lon="12.5681361"><ele>26.0</ele><time>2026-04-25T18:32:50.387Z</time></trkpt><trkpt lat="38.0068129" lon="12.5681286"><ele>26.0</ele><time>2026-04-25T18:32:51.388Z</time></trkpt><trkpt lat="38.0067024" lon="12.5681178"><ele>26.0</ele><time>2026-04-25T18:32:52.387Z</time></trkpt><trkpt lat="38.0065849" lon="12.5681051"><ele>26.0</ele><time>2026-04-25T18:32:53.387Z</time></trkpt><trkpt lat="38.006467" lon="12.5680878"><ele>26.25</ele><time>2026-04-25T18:32:54.386Z</time></trkpt><trkpt lat="38.0063424" lon="12.5680687"><ele>26.5</ele><time>2026-04-25T18:32:55.386Z</time></trkpt><trkpt lat="38.0062101" lon="12.5680485"><ele>26.75</ele><time>2026-04-25T18:32:56.386Z</time></trkpt><trkpt lat="38.0060719" lon="12.5680205"><ele>27.0</ele><time>2026-04-25T18:32:57.387Z</time></trkpt><trkpt lat="38.0059372" lon="12.5679885"><ele>27.0</ele><time>2026-04-25T18:32:58.386Z</time></trkpt><trkpt lat="38.0058027" lon="12.5679639"><ele>27.0</ele><time>2026-04-25T18:32:59.387Z</time></trkpt><trkpt lat="38.0056687" lon="12.5679401"><ele>27.0</ele><time>2026-04-25T18:33:00.387Z</time></trkpt><trkpt lat="38.0055281" lon="12.5679173"><ele>27.0</ele><time>2026-04-25T18:33:01.387Z</time></trkpt><trkpt lat="38.0053874" lon="12.567891"><ele>27.0</ele><time>2026-04-25T18:33:02.387Z</time></trkpt><trkpt lat="38.0052344" lon="12.5678636"><ele>27.0</ele><time>2026-04-25T18:33:03.387Z</time></trkpt><trkpt lat="38.0050842" lon="12.5678357"><ele>27.0</ele><time>2026-04-25T18:33:04.387Z</time></trkpt><trkpt lat="38.0049453" lon="12.567808"><ele>27.0</ele><time>2026-04-25T18:33:05.386Z</time></trkpt><trkpt lat="38.0048044" lon="12.5677756"><ele>26.5</ele><time>2026-04-25T18:33:06.386Z</time></trkpt><trkpt lat="38.0046714" lon="12.5677513"><ele>26.0</ele><time>2026-04-25T18:33:07.386Z</time></trkpt><trkpt lat="38.0045387" lon="12.5677221"><ele>25.5</ele><time>2026-04-25T18:33:08.387Z</time></trkpt><trkpt lat="38.0044014" lon="12.5676958"><ele>25.0</ele><time>2026-04-25T18:33:09.387Z</time></trkpt><trkpt lat="38.0042599" lon="12.5676662"><ele>24.0</ele><time>2026-04-25T18:33:10.387Z</time></trkpt><trkpt lat="38.0041079" lon="12.5676377"><ele>23.0</ele><time>2026-04-25T18:33:11.387Z</time></trkpt><trkpt lat="38.0039472" lon="12.5676164"><ele>22.0</ele><time>2026-04-25T18:33:12.386Z</time></trkpt><trkpt lat="38.0037791" lon="12.5675993"><ele>22.0</ele><time>2026-04-25T18:33:13.387Z</time></trkpt><trkpt lat="38.0035999" lon="12.5675856"><ele>22.0</ele><time>2026-04-25T18:33:14.387Z</time></trkpt><trkpt lat="38.0034152" lon="12.5675656"><ele>22.0</ele><time>2026-04-25T18:33:15.387Z</time></trkpt><trkpt lat="38.0032242" lon="12.5675459"><ele>20.666666666666664</ele><time>2026-04-25T18:33:16.387Z</time></trkpt><trkpt lat="38.0030362" lon="12.5675176"><ele>19.333333333333332</ele><time>2026-04-25T18:33:17.387Z</time></trkpt><trkpt lat="38.0028231" lon="12.5674983"><ele>18.0</ele><time>2026-04-25T18:33:18.387Z</time></trkpt><trkpt lat="38.0026009" lon="12.5674708"><ele>17.0</ele><time>2026-04-25T18:33:19.386Z</time></trkpt><trkpt lat="38.0023779" lon="12.5674379"><ele>16.0</ele><time>2026-04-25T18:33:20.386Z</time></trkpt><trkpt lat="38.0021522" lon="12.5674102"><ele>16.0</ele><time>2026-04-25T18:33:21.387Z</time></trkpt><trkpt lat="38.0019434" lon="12.5673844"><ele>16.0</ele><time>2026-04-25T18:33:22.387Z</time></trkpt><trkpt lat="38.0017378" lon="12.5673439"><ele>16.0</ele><time>2026-04-25T18:33:23.387Z</time></trkpt><trkpt lat="38.0015347" lon="12.5672913"><ele>16.333333333333332</ele><time>2026-04-25T18:33:24.387Z</time></trkpt><trkpt lat="38.001327" lon="12.5672291"><ele>16.666666666666668</ele><time>2026-04-25T18:33:25.386Z</time></trkpt><trkpt lat="38.0011222" lon="12.5671362"><ele>17.0</ele><time>2026-04-25T18:33:26.387Z</time></trkpt><trkpt lat="38.0009116" lon="12.5670291"><ele>21.0</ele><time>2026-04-25T18:33:27.386Z</time></trkpt><trkpt lat="38.0006947" lon="12.5669142"><ele>25.0</ele><time>2026-04-25T18:33:28.387Z</time></trkpt><trkpt lat="38.0004625" lon="12.5668073"><ele>25.0</ele><time>2026-04-25T18:33:29.387Z</time></trkpt><trkpt lat="38.0002339" lon="12.5667097"><ele>25.0</ele><time>2026-04-25T18:33:30.386Z</time></trkpt><trkpt lat="38.0000123" lon="12.5666014"><ele>25.0</ele><time>2026-04-25T18:33:31.387Z</time></trkpt><trkpt lat="37.9998148" lon="12.566501"><ele>25.0</ele><time>2026-04-25T18:33:32.387Z</time></trkpt><trkpt lat="37.9996239" lon="12.5664112"><ele>25.0</ele><time>2026-04-25T18:33:33.387Z</time></trkpt><trkpt lat="37.9994467" lon="12.5663261"><ele>25.0</ele><time>2026-04-25T18:33:34.387Z</time></trkpt><trkpt lat="37.9992898" lon="12.5662432"><ele>25.0</ele><time>2026-04-25T18:33:35.386Z</time></trkpt><trkpt lat="37.999136" lon="12.5661588"><ele>25.0</ele><time>2026-04-25T18:33:36.387Z</time></trkpt><trkpt lat="37.9989993" lon="12.5660774"><ele>24.5</ele><time>2026-04-25T18:33:37.387Z</time></trkpt><trkpt lat="37.9988692" lon="12.5659882"><ele>24.0</ele><time>2026-04-25T18:33:38.387Z</time></trkpt><trkpt lat="37.9987543" lon="12.5659118"><ele>23.5</ele><time>2026-04-25T18:33:39.387Z</time></trkpt><trkpt lat="37.9986652" lon="12.5658373"><ele>23.0</ele><time>2026-04-25T18:33:40.387Z</time></trkpt><trkpt lat="37.9985954" lon="12.5657704"><ele>23.0</ele><time>2026-04-25T18:33:41.387Z</time></trkpt><trkpt lat="37.9985463" lon="12.5657014"><ele>23.0</ele><time>2026-04-25T18:33:42.387Z</time></trkpt><trkpt lat="37.9984959" lon="12.5656398"><ele>23.0</ele><time>2026-04-25T18:33:43.386Z</time></trkpt><trkpt lat="37.998408" lon="12.5655617"><ele>23.0</ele><time>2026-04-25T18:33:45.387Z</time></trkpt><trkpt lat="37.9982817" lon="12.5656486"><ele>23.0</ele><time>2026-04-25T18:33:47.387Z</time></trkpt><trkpt lat="37.9981856" lon="12.5657066"><ele>23.599999999999998</ele><time>2026-04-25T18:33:48.387Z</time></trkpt><trkpt lat="37.9980722" lon="12.5657533"><ele>24.2</ele><time>2026-04-25T18:33:49.387Z</time></trkpt><trkpt lat="37.9979575" lon="12.5657838"><ele>24.8</ele><time>2026-04-25T18:33:50.387Z</time></trkpt><trkpt lat="37.997859" lon="12.5658018"><ele>25.4</ele><time>2026-04-25T18:33:51.387Z</time></trkpt><trkpt lat="37.997768" lon="12.5657963"><ele>26.0</ele><time>2026-04-25T18:33:52.387Z</time></trkpt><trkpt lat="37.9976635" lon="12.5657561"><ele>26.0</ele><time>2026-04-25T18:33:53.387Z</time></trkpt><trkpt lat="37.9975482" lon="12.5656914"><ele>26.0</ele><time>2026-04-25T18:33:54.387Z</time></trkpt><trkpt lat="37.9974193" lon="12.565621"><ele>26.0</ele><time>2026-04-25T18:33:55.388Z</time></trkpt><trkpt lat="37.9972707" lon="12.5655349"><ele>26.0</ele><time>2026-04-25T18:33:56.386Z</time></trkpt><trkpt lat="37.9971196" lon="12.5654437"><ele>25.333333333333332</ele><time>2026-04-25T18:33:57.386Z</time></trkpt><trkpt lat="37.9969635" lon="12.5653491"><ele>24.666666666666664</ele><time>2026-04-25T18:33:58.387Z</time></trkpt><trkpt lat="37.9968054" lon="12.5652347"><ele>24.0</ele><time>2026-04-25T18:33:59.388Z</time></trkpt><trkpt lat="37.9966591" lon="12.5651217"><ele>24.0</ele><time>2026-04-25T18:34:00.387Z</time></trkpt><trkpt lat="37.9965063" lon="12.5649994"><ele>24.0</ele><time>2026-04-25T18:34:01.388Z</time></trkpt><trkpt lat="37.9963611" lon="12.5648733"><ele>24.0</ele><time>2026-04-25T18:34:02.387Z</time></trkpt><trkpt lat="37.9962244" lon="12.5647579"><ele>24.0</ele><time>2026-04-25T18:34:03.387Z</time></trkpt><trkpt lat="37.9960857" lon="12.5646444"><ele>24.0</ele><time>2026-04-25T18:34:04.387Z</time></trkpt><trkpt lat="37.9959372" lon="12.5645402"><ele>24.0</ele><time>2026-04-25T18:34:05.388Z</time></trkpt><trkpt lat="37.9957864" lon="12.5644463"><ele>24.333333333333336</ele><time>2026-04-25T18:34:06.387Z</time></trkpt><trkpt lat="37.9956253" lon="12.5643701"><ele>24.666666666666668</ele><time>2026-04-25T18:34:07.387Z</time></trkpt><trkpt lat="37.9954595" lon="12.5643044"><ele>25.0</ele><time>2026-04-25T18:34:08.387Z</time></trkpt><trkpt lat="37.9952887" lon="12.564242"><ele>25.0</ele><time>2026-04-25T18:34:09.386Z</time></trkpt><trkpt lat="37.9951198" lon="12.5641724"><ele>25.0</ele><time>2026-04-25T18:34:10.387Z</time></trkpt><trkpt lat="37.9949456" lon="12.5640991"><ele>25.0</ele><time>2026-04-25T18:34:11.387Z</time></trkpt><trkpt lat="37.994771" lon="12.5640316"><ele>26.333333333333336</ele><time>2026-04-25T18:34:12.387Z</time></trkpt><trkpt lat="37.9945857" lon="12.563961"><ele>27.666666666666664</ele><time>2026-04-25T18:34:13.387Z</time></trkpt><trkpt lat="37.9944053" lon="12.5638916"><ele>29.0</ele><time>2026-04-25T18:34:14.386Z</time></trkpt><trkpt lat="37.9942189" lon="12.5638395"><ele>28.333333333333332</ele><time>2026-04-25T18:34:15.386Z</time></trkpt><trkpt lat="37.9940378" lon="12.5637963"><ele>27.666666666666664</ele><time>2026-04-25T18:34:16.387Z</time></trkpt><trkpt lat="37.9938574" lon="12.5637643"><ele>27.0</ele><time>2026-04-25T18:34:17.387Z</time></trkpt><trkpt lat="37.9936784" lon="12.5637403"><ele>27.0</ele><time>2026-04-25T18:34:18.387Z</time></trkpt><trkpt lat="37.9935033" lon="12.5637211"><ele>27.0</ele><time>2026-04-25T18:34:19.387Z</time></trkpt><trkpt lat="37.9933416" lon="12.5637071"><ele>27.0</ele><time>2026-04-25T18:34:20.387Z</time></trkpt><trkpt lat="37.9931878" lon="12.5636887"><ele>26.5</ele><time>2026-04-25T18:34:21.388Z</time></trkpt><trkpt lat="37.9930426" lon="12.5636622"><ele>26.0</ele><time>2026-04-25T18:34:22.388Z</time></trkpt><trkpt lat="37.992901" lon="12.5636259"><ele>25.5</ele><time>2026-04-25T18:34:23.387Z</time></trkpt><trkpt lat="37.9927513" lon="12.5635814"><ele>25.0</ele><time>2026-04-25T18:34:24.386Z</time></trkpt><trkpt lat="37.9925933" lon="12.5635384"><ele>25.666666666666668</ele><time>2026-04-25T18:34:25.387Z</time></trkpt><trkpt lat="37.9924198" lon="12.5634986"><ele>26.333333333333336</ele><time>2026-04-25T18:34:26.386Z</time></trkpt><trkpt lat="37.9922414" lon="12.5634634"><ele>27.0</ele><time>2026-04-25T18:34:27.387Z</time></trkpt><trkpt lat="37.9920587" lon="12.5634221"><ele>27.0</ele><time>2026-04-25T18:34:28.387Z</time></trkpt><trkpt lat="37.9918821" lon="12.5633747"><ele>27.0</ele><time>2026-04-25T18:34:29.387Z</time></trkpt><trkpt lat="37.9917039" lon="12.5633395"><ele>27.0</ele><time>2026-04-25T18:34:30.387Z</time></trkpt><trkpt lat="37.9915287" lon="12.563318"><ele>28.666666666666664</ele><time>2026-04-25T18:34:31.387Z</time></trkpt><trkpt lat="37.9913612" lon="12.5632982"><ele>30.333333333333332</ele><time>2026-04-25T18:34:32.387Z</time></trkpt><trkpt lat="37.9911943" lon="12.5632795"><ele>32.0</ele><time>2026-04-25T18:34:33.388Z</time></trkpt><trkpt lat="37.9910338" lon="12.5632638"><ele>32.0</ele><time>2026-04-25T18:34:34.386Z</time></trkpt><trkpt lat="37.990871" lon="12.5632476"><ele>32.0</ele><time>2026-04-25T18:34:35.387Z</time></trkpt><trkpt lat="37.9907113" lon="12.5632335"><ele>32.0</ele><time>2026-04-25T18:34:36.387Z</time></trkpt><trkpt lat="37.990563" lon="12.5632213"><ele>31.75</ele><time>2026-04-25T18:34:37.387Z</time></trkpt><trkpt lat="37.9904223" lon="12.5632115"><ele>31.5</ele><time>2026-04-25T18:34:38.387Z</time></trkpt><trkpt lat="37.9902879" lon="12.5631994"><ele>31.25</ele><time>2026-04-25T18:34:39.387Z</time></trkpt><trkpt lat="37.9901535" lon="12.5632"><ele>31.0</ele><time>2026-04-25T18:34:40.388Z</time></trkpt><trkpt lat="37.9900292" lon="12.5631914"><ele>30.833333333333336</ele><time>2026-04-25T18:34:41.388Z</time></trkpt><trkpt lat="37.9899202" lon="12.563178"><ele>30.666666666666668</ele><time>2026-04-25T18:34:42.387Z</time></trkpt><trkpt lat="37.9898379" lon="12.563172"><ele>30.5</ele><time>2026-04-25T18:34:43.388Z</time></trkpt><trkpt lat="37.9897711" lon="12.563155"><ele>30.333333333333336</ele><time>2026-04-25T18:34:44.387Z</time></trkpt><trkpt lat="37.9897137" lon="12.5631212"><ele>30.166666666666668</ele><time>2026-04-25T18:34:45.387Z</time></trkpt><trkpt lat="37.9896571" lon="12.5629958"><ele>30.0</ele><time>2026-04-25T18:34:47.387Z</time></trkpt><trkpt lat="37.9896395" lon="12.5628928"><ele>29.8</ele><time>2026-04-25T18:34:48.388Z</time></trkpt><trkpt lat="37.9896423" lon="12.5627729"><ele>29.6</ele><time>2026-04-25T18:34:49.386Z</time></trkpt><trkpt lat="37.9896525" lon="12.5626421"><ele>29.4</ele><time>2026-04-25T18:34:50.387Z</time></trkpt><trkpt lat="37.989664" lon="12.5624996"><ele>29.2</ele><time>2026-04-25T18:34:51.387Z</time></trkpt><trkpt lat="37.9896789" lon="12.5623456"><ele>29.0</ele><time>2026-04-25T18:34:52.388Z</time></trkpt><trkpt lat="37.9896919" lon="12.5621831"><ele>27.75</ele><time>2026-04-25T18:34:53.388Z</time></trkpt><trkpt lat="37.9897015" lon="12.5620181"><ele>26.5</ele><time>2026-04-25T18:34:54.389Z</time></trkpt><trkpt lat="37.9897216" lon="12.5618406"><ele>25.25</ele><time>2026-04-25T18:34:55.387Z</time></trkpt><trkpt lat="37.9897147" lon="12.5616717"><ele>24.0</ele><time>2026-04-25T18:34:56.388Z</time></trkpt><trkpt lat="37.9896748" lon="12.5615084"><ele>24.0</ele><time>2026-04-25T18:34:57.388Z</time></trkpt><trkpt lat="37.9896074" lon="12.5613487"><ele>24.0</ele><time>2026-04-25T18:34:58.387Z</time></trkpt><trkpt lat="37.9895191" lon="12.5612087"><ele>24.0</ele><time>2026-04-25T18:34:59.387Z</time></trkpt><trkpt lat="37.9894178" lon="12.5610844"><ele>24.0</ele><time>2026-04-25T18:35:00.387Z</time></trkpt><trkpt lat="37.9893073" lon="12.5609679"><ele>23.333333333333332</ele><time>2026-04-25T18:35:01.387Z</time></trkpt><trkpt lat="37.9891853" lon="12.5608634"><ele>22.666666666666664</ele><time>2026-04-25T18:35:02.386Z</time></trkpt><trkpt lat="37.9890552" lon="12.5607579"><ele>22.0</ele><time>2026-04-25T18:35:03.387Z</time></trkpt><trkpt lat="37.9889247" lon="12.5606597"><ele>22.0</ele><time>2026-04-25T18:35:04.386Z</time></trkpt><trkpt lat="37.9887956" lon="12.5605662"><ele>22.0</ele><time>2026-04-25T18:35:05.388Z</time></trkpt><trkpt lat="37.9886663" lon="12.5604849"><ele>22.0</ele><time>2026-04-25T18:35:06.387Z</time></trkpt><trkpt lat="37.9885357" lon="12.560399"><ele>22.0</ele><time>2026-04-25T18:35:07.386Z</time></trkpt><trkpt lat="37.9883997" lon="12.5603035"><ele>20.666666666666664</ele><time>2026-04-25T18:35:08.387Z</time></trkpt><trkpt lat="37.9882563" lon="12.5602028"><ele>19.333333333333332</ele><time>2026-04-25T18:35:09.388Z</time></trkpt><trkpt lat="37.9881087" lon="12.5600945"><ele>18.0</ele><time>2026-04-25T18:35:10.387Z</time></trkpt><trkpt lat="37.9879541" lon="12.5599823"><ele>18.0</ele><time>2026-04-25T18:35:11.387Z</time></trkpt><trkpt lat="37.9877967" lon="12.5598567"><ele>18.0</ele><time>2026-04-25T18:35:12.387Z</time></trkpt><trkpt lat="37.987633" lon="12.5597315"><ele>18.0</ele><time>2026-04-25T18:35:13.387Z</time></trkpt><trkpt lat="37.9874659" lon="12.5596036"><ele>16.0</ele><time>2026-04-25T18:35:14.387Z</time></trkpt><trkpt lat="37.9873021" lon="12.5594868"><ele>14.0</ele><time>2026-04-25T18:35:15.388Z</time></trkpt><trkpt lat="37.9871459" lon="12.5593656"><ele>12.0</ele><time>2026-04-25T18:35:16.387Z</time></trkpt><trkpt lat="37.9869939" lon="12.5592489"><ele>12.0</ele><time>2026-04-25T18:35:17.388Z</time></trkpt><trkpt lat="37.9868508" lon="12.5591468"><ele>12.0</ele><time>2026-04-25T18:35:18.387Z</time></trkpt><trkpt lat="37.9867309" lon="12.5590514"><ele>12.0</ele><time>2026-04-25T18:35:19.388Z</time></trkpt><trkpt lat="37.9866213" lon="12.5589634"><ele>12.0</ele><time>2026-04-25T18:35:20.387Z</time></trkpt><trkpt lat="37.9865316" lon="12.5588961"><ele>12.0</ele><time>2026-04-25T18:35:21.388Z</time></trkpt><trkpt lat="37.9864476" lon="12.5588335"><ele>12.0</ele><time>2026-04-25T18:35:22.387Z</time></trkpt><trkpt lat="37.9863639" lon="12.5587501"><ele>12.0</ele><time>2026-04-25T18:35:23.387Z</time></trkpt><trkpt lat="37.9862864" lon="12.5586472"><ele>12.0</ele><time>2026-04-25T18:35:24.387Z</time></trkpt><trkpt lat="37.9862225" lon="12.5585222"><ele>12.0</ele><time>2026-04-25T18:35:25.387Z</time></trkpt><trkpt lat="37.9861685" lon="12.5583765"><ele>11.75</ele><time>2026-04-25T18:35:26.387Z</time></trkpt><trkpt lat="37.9861204" lon="12.5582133"><ele>11.5</ele><time>2026-04-25T18:35:27.387Z</time></trkpt><trkpt lat="37.9860704" lon="12.5580373"><ele>11.25</ele><time>2026-04-25T18:35:28.387Z</time></trkpt><trkpt lat="37.9860301" lon="12.5578554"><ele>11.0</ele><time>2026-04-25T18:35:29.387Z</time></trkpt><trkpt lat="37.9859927" lon="12.5576745"><ele>11.0</ele><time>2026-04-25T18:35:30.386Z</time></trkpt><trkpt lat="37.9859496" lon="12.5575075"><ele>11.0</ele><time>2026-04-25T18:35:31.387Z</time></trkpt><trkpt lat="37.9859128" lon="12.5573477"><ele>11.0</ele><time>2026-04-25T18:35:32.387Z</time></trkpt><trkpt lat="37.9858767" lon="12.5571957"><ele>11.0</ele><time>2026-04-25T18:35:33.388Z</time></trkpt><trkpt lat="37.985837" lon="12.5570435"><ele>11.200000000000001</ele><time>2026-04-25T18:35:34.387Z</time></trkpt><trkpt lat="37.9858032" lon="12.5569043"><ele>11.4</ele><time>2026-04-25T18:35:35.387Z</time></trkpt><trkpt lat="37.9857715" lon="12.5567657"><ele>11.6</ele><time>2026-04-25T18:35:36.388Z</time></trkpt><trkpt lat="37.9857437" lon="12.5566375"><ele>11.8</ele><time>2026-04-25T18:35:37.387Z</time></trkpt><trkpt lat="37.9857228" lon="12.5565125"><ele>12.0</ele><time>2026-04-25T18:35:38.388Z</time></trkpt><trkpt lat="37.9857019" lon="12.556407"><ele>12.0</ele><time>2026-04-25T18:35:39.387Z</time></trkpt><trkpt lat="37.9856881" lon="12.5563155"><ele>12.0</ele><time>2026-04-25T18:35:40.388Z</time></trkpt><trkpt lat="37.9856812" lon="12.5562289"><ele>12.0</ele><time>2026-04-25T18:35:41.388Z</time></trkpt><trkpt lat="37.9856474" lon="12.5560895"><ele>12.0</ele><time>2026-04-25T18:35:43.387Z</time></trkpt><trkpt lat="37.9855509" lon="12.5560127"><ele>12.0</ele><time>2026-04-25T18:35:45.386Z</time></trkpt><trkpt lat="37.9854788" lon="12.5560075"><ele>12.0</ele><time>2026-04-25T18:35:46.387Z</time></trkpt><trkpt lat="37.9853801" lon="12.5560124"><ele>12.25</ele><time>2026-04-25T18:35:47.386Z</time></trkpt><trkpt lat="37.9852654" lon="12.5560347"><ele>12.5</ele><time>2026-04-25T18:35:48.387Z</time></trkpt><trkpt lat="37.9851444" lon="12.5560565"><ele>12.75</ele><time>2026-04-25T18:35:49.387Z</time></trkpt><trkpt lat="37.9850205" lon="12.5560707"><ele>13.0</ele><time>2026-04-25T18:35:50.388Z</time></trkpt><trkpt lat="37.9848991" lon="12.5560801"><ele>13.8</ele><time>2026-04-25T18:35:51.388Z</time></trkpt><trkpt lat="37.9847852" lon="12.5560859"><ele>14.600000000000001</ele><time>2026-04-25T18:35:52.388Z</time></trkpt><trkpt lat="37.9846801" lon="12.5560884"><ele>15.399999999999999</ele><time>2026-04-25T18:35:53.387Z</time></trkpt><trkpt lat="37.9845756" lon="12.5560866"><ele>16.2</ele><time>2026-04-25T18:35:54.387Z</time></trkpt><trkpt lat="37.9844736" lon="12.5560918"><ele>17.0</ele><time>2026-04-25T18:35:55.388Z</time></trkpt><trkpt lat="37.9843752" lon="12.5560968"><ele>17.0</ele><time>2026-04-25T18:35:56.388Z</time></trkpt><trkpt lat="37.9842688" lon="12.5561014"><ele>17.0</ele><time>2026-04-25T18:35:57.388Z</time></trkpt><trkpt lat="37.9841673" lon="12.5561049"><ele>17.0</ele><time>2026-04-25T18:35:58.387Z</time></trkpt><trkpt lat="37.9840622" lon="12.5561093"><ele>17.0</ele><time>2026-04-25T18:35:59.389Z</time></trkpt><trkpt lat="37.9839551" lon="12.5561074"><ele>17.0</ele><time>2026-04-25T18:36:00.387Z</time></trkpt><trkpt lat="37.9838466" lon="12.5561144"><ele>17.8</ele><time>2026-04-25T18:36:01.388Z</time></trkpt><trkpt lat="37.9837431" lon="12.556116"><ele>18.6</ele><time>2026-04-25T18:36:02.387Z</time></trkpt><trkpt lat="37.9836434" lon="12.5561144"><ele>19.400000000000002</ele><time>2026-04-25T18:36:03.388Z</time></trkpt><trkpt lat="37.9835473" lon="12.5561196"><ele>20.2</ele><time>2026-04-25T18:36:04.388Z</time></trkpt><trkpt lat="37.9834522" lon="12.5561226"><ele>21.0</ele><time>2026-04-25T18:36:05.387Z</time></trkpt><trkpt lat="37.9833437" lon="12.5561213"><ele>22.0</ele><time>2026-04-25T18:36:06.389Z</time></trkpt><trkpt lat="37.9832335" lon="12.5561268"><ele>23.0</ele><time>2026-04-25T18:36:07.388Z</time></trkpt><trkpt lat="37.9831096" lon="12.5561368"><ele>24.0</ele><time>2026-04-25T18:36:08.388Z</time></trkpt><trkpt lat="37.9829787" lon="12.5561386"><ele>25.0</ele><time>2026-04-25T18:36:09.387Z</time></trkpt><trkpt lat="37.982844" lon="12.5561427"><ele>25.0</ele><time>2026-04-25T18:36:10.388Z</time></trkpt><trkpt lat="37.9826986" lon="12.5561406"><ele>25.0</ele><time>2026-04-25T18:36:11.389Z</time></trkpt><trkpt lat="37.982572" lon="12.5561399"><ele>25.0</ele><time>2026-04-25T18:36:12.386Z</time></trkpt><trkpt lat="37.9824629" lon="12.5561323"><ele>25.0</ele><time>2026-04-25T18:36:13.388Z</time></trkpt><trkpt lat="37.982368" lon="12.5561225"><ele>25.333333333333336</ele><time>2026-04-25T18:36:14.388Z</time></trkpt><trkpt lat="37.9822814" lon="12.5560876"><ele>25.666666666666668</ele><time>2026-04-25T18:36:15.388Z</time></trkpt><trkpt lat="37.9821999" lon="12.5560414"><ele>26.0</ele><time>2026-04-25T18:36:16.387Z</time></trkpt><trkpt lat="37.9821192" lon="12.5559704"><ele>26.333333333333336</ele><time>2026-04-25T18:36:17.389Z</time></trkpt><trkpt lat="37.9820514" lon="12.5559131"><ele>26.666666666666668</ele><time>2026-04-25T18:36:18.388Z</time></trkpt><trkpt lat="37.9819824" lon="12.5558496"><ele>27.0</ele><time>2026-04-25T18:36:20.387Z</time></trkpt><trkpt lat="37.9819035" lon="12.5557993"><ele>27.0</ele><time>2026-04-25T18:36:29.388Z</time></trkpt><trkpt lat="37.9818193" lon="12.5557595"><ele>27.0</ele><time>2026-04-25T18:36:31.387Z</time></trkpt><trkpt lat="37.9817627" lon="12.5557135"><ele>27.0</ele><time>2026-04-25T18:36:32.389Z</time></trkpt><trkpt lat="37.9817092" lon="12.5556693"><ele>27.0</ele><time>2026-04-25T18:36:33.388Z</time></trkpt><trkpt lat="37.9816301" lon="12.5556211"><ele>27.0</ele><time>2026-04-25T18:36:34.387Z</time></trkpt><trkpt lat="37.9815619" lon="12.5555673"><ele>27.0</ele><time>2026-04-25T18:36:35.387Z</time></trkpt><trkpt lat="37.9814895" lon="12.5555066"><ele>27.0</ele><time>2026-04-25T18:36:36.387Z</time></trkpt><trkpt lat="37.9814152" lon="12.5554476"><ele>27.000000000000004</ele><time>2026-04-25T18:36:37.387Z</time></trkpt><trkpt lat="37.9813397" lon="12.5553793"><ele>27.000000000000004</ele><time>2026-04-25T18:36:38.387Z</time></trkpt><trkpt lat="37.981265" lon="12.5553195"><ele>27.0</ele><time>2026-04-25T18:36:39.388Z</time></trkpt><trkpt lat="37.9811863" lon="12.5552585"><ele>27.0</ele><time>2026-04-25T18:36:40.387Z</time></trkpt><trkpt lat="37.9811049" lon="12.5552038"><ele>27.0</ele><time>2026-04-25T18:36:41.387Z</time></trkpt><trkpt lat="37.9810094" lon="12.5551427"><ele>27.0</ele><time>2026-04-25T18:36:42.389Z</time></trkpt><trkpt lat="37.9809141" lon="12.5550694"><ele>27.0</ele><time>2026-04-25T18:36:43.388Z</time></trkpt><trkpt lat="37.9807965" lon="12.5549713"><ele>27.0</ele><time>2026-04-25T18:36:44.388Z</time></trkpt><trkpt lat="37.9806777" lon="12.5548531"><ele>26.75</ele><time>2026-04-25T18:36:45.388Z</time></trkpt><trkpt lat="37.9805504" lon="12.5547618"><ele>26.5</ele><time>2026-04-25T18:36:46.387Z</time></trkpt><trkpt lat="37.9804348" lon="12.5546589"><ele>26.25</ele><time>2026-04-25T18:36:47.388Z</time></trkpt><trkpt lat="37.9803165" lon="12.5545648"><ele>26.0</ele><time>2026-04-25T18:36:48.388Z</time></trkpt><trkpt lat="37.980195" lon="12.5544671"><ele>26.0</ele><time>2026-04-25T18:36:49.388Z</time></trkpt><trkpt lat="37.9800715" lon="12.5543794"><ele>26.0</ele><time>2026-04-25T18:36:50.388Z</time></trkpt><trkpt lat="37.9799556" lon="12.5543377"><ele>26.0</ele><time>2026-04-25T18:36:51.387Z</time></trkpt><trkpt lat="37.9798213" lon="12.554307"><ele>26.0</ele><time>2026-04-25T18:36:52.387Z</time></trkpt><trkpt lat="37.9796773" lon="12.5543058"><ele>26.666666666666664</ele><time>2026-04-25T18:36:53.386Z</time></trkpt><trkpt lat="37.9795347" lon="12.5543388"><ele>27.333333333333336</ele><time>2026-04-25T18:36:54.388Z</time></trkpt><trkpt lat="37.9793744" lon="12.5544045"><ele>28.0</ele><time>2026-04-25T18:36:55.388Z</time></trkpt><trkpt lat="37.9792156" lon="12.5544892"><ele>29.333333333333336</ele><time>2026-04-25T18:36:56.388Z</time></trkpt><trkpt lat="37.9790204" lon="12.5546198"><ele>30.666666666666664</ele><time>2026-04-25T18:36:57.389Z</time></trkpt><trkpt lat="37.978832" lon="12.5547458"><ele>32.0</ele><time>2026-04-25T18:36:58.388Z</time></trkpt><trkpt lat="37.9786464" lon="12.5548705"><ele>32.0</ele><time>2026-04-25T18:36:59.388Z</time></trkpt><trkpt lat="37.9784714" lon="12.5549819"><ele>32.0</ele><time>2026-04-25T18:37:00.387Z</time></trkpt><trkpt lat="37.9783106" lon="12.5550838"><ele>32.0</ele><time>2026-04-25T18:37:01.388Z</time></trkpt><trkpt lat="37.9781616" lon="12.5551894"><ele>32.0</ele><time>2026-04-25T18:37:02.389Z</time></trkpt><trkpt lat="37.9780135" lon="12.5552877"><ele>32.0</ele><time>2026-04-25T18:37:03.388Z</time></trkpt><trkpt lat="37.9778545" lon="12.5553899"><ele>32.0</ele><time>2026-04-25T18:37:04.387Z</time></trkpt><trkpt lat="37.9776911" lon="12.555491"><ele>32.0</ele><time>2026-04-25T18:37:05.388Z</time></trkpt><trkpt lat="37.9775315" lon="12.5555918"><ele>32.0</ele><time>2026-04-25T18:37:06.387Z</time></trkpt><trkpt lat="37.9773707" lon="12.5556993"><ele>32.0</ele><time>2026-04-25T18:37:07.388Z</time></trkpt><trkpt lat="37.9772013" lon="12.5558031"><ele>31.333333333333332</ele><time>2026-04-25T18:37:08.388Z</time></trkpt><trkpt lat="37.9770315" lon="12.5559141"><ele>30.666666666666664</ele><time>2026-04-25T18:37:09.388Z</time></trkpt><trkpt lat="37.9768699" lon="12.5560142"><ele>30.0</ele><time>2026-04-25T18:37:10.388Z</time></trkpt><trkpt lat="37.9767062" lon="12.5561127"><ele>30.666666666666664</ele><time>2026-04-25T18:37:11.388Z</time></trkpt><trkpt lat="37.976547" lon="12.5562097"><ele>31.333333333333332</ele><time>2026-04-25T18:37:12.388Z</time></trkpt><trkpt lat="37.9763788" lon="12.5563202"><ele>32.0</ele><time>2026-04-25T18:37:13.387Z</time></trkpt><trkpt lat="37.9762195" lon="12.5564188"><ele>32.0</ele><time>2026-04-25T18:37:14.387Z</time></trkpt><trkpt lat="37.9760615" lon="12.5565198"><ele>32.0</ele><time>2026-04-25T18:37:15.387Z</time></trkpt><trkpt lat="37.975901" lon="12.5566346"><ele>32.0</ele><time>2026-04-25T18:37:16.388Z</time></trkpt><trkpt lat="37.9757392" lon="12.5567425"><ele>32.666666666666664</ele><time>2026-04-25T18:37:17.388Z</time></trkpt><trkpt lat="37.9755699" lon="12.5568554"><ele>33.333333333333336</ele><time>2026-04-25T18:37:18.386Z</time></trkpt><trkpt lat="37.975403" lon="12.5569622"><ele>34.0</ele><time>2026-04-25T18:37:19.388Z</time></trkpt><trkpt lat="37.9752332" lon="12.5570686"><ele>34.66666666666667</ele><time>2026-04-25T18:37:20.388Z</time></trkpt><trkpt lat="37.9750558" lon="12.5571793"><ele>35.333333333333336</ele><time>2026-04-25T18:37:21.388Z</time></trkpt><trkpt lat="37.9748841" lon="12.5572968"><ele>36.0</ele><time>2026-04-25T18:37:22.388Z</time></trkpt><trkpt lat="37.9747138" lon="12.5574023"><ele>37.0</ele><time>2026-04-25T18:37:23.388Z</time></trkpt><trkpt lat="37.9745465" lon="12.5575035"><ele>38.0</ele><time>2026-04-25T18:37:24.388Z</time></trkpt><trkpt lat="37.9743883" lon="12.5576036"><ele>39.0</ele><time>2026-04-25T18:37:25.388Z</time></trkpt><trkpt lat="37.9742266" lon="12.5577068"><ele>39.333333333333336</ele><time>2026-04-25T18:37:26.388Z</time></trkpt><trkpt lat="37.9740617" lon="12.557815"><ele>39.66666666666667</ele><time>2026-04-25T18:37:27.388Z</time></trkpt><trkpt lat="37.9738969" lon="12.5579206"><ele>40.0</ele><time>2026-04-25T18:37:28.387Z</time></trkpt><trkpt lat="37.9737274" lon="12.5580232"><ele>40.333333333333336</ele><time>2026-04-25T18:37:29.388Z</time></trkpt><trkpt lat="37.9735472" lon="12.5581137"><ele>40.666666666666664</ele><time>2026-04-25T18:37:30.388Z</time></trkpt><trkpt lat="37.9733614" lon="12.558182"><ele>41.0</ele><time>2026-04-25T18:37:31.387Z</time></trkpt><trkpt lat="37.9731726" lon="12.5582291"><ele>41.33333333333333</ele><time>2026-04-25T18:37:32.387Z</time></trkpt><trkpt lat="37.9729746" lon="12.55825"><ele>41.666666666666664</ele><time>2026-04-25T18:37:33.388Z</time></trkpt><trkpt lat="37.9727703" lon="12.5582463"><ele>42.0</ele><time>2026-04-25T18:37:34.388Z</time></trkpt><trkpt lat="37.9725716" lon="12.5582318"><ele>42.0</ele><time>2026-04-25T18:37:35.388Z</time></trkpt><trkpt lat="37.9723792" lon="12.5582041"><ele>42.0</ele><time>2026-04-25T18:37:36.388Z</time></trkpt><trkpt lat="37.9721757" lon="12.5581681"><ele>42.0</ele><time>2026-04-25T18:37:37.388Z</time></trkpt><trkpt lat="37.9719726" lon="12.5581366"><ele>42.0</ele><time>2026-04-25T18:37:38.388Z</time></trkpt><trkpt lat="37.9717655" lon="12.5581001"><ele>42.0</ele><time>2026-04-25T18:37:39.388Z</time></trkpt><trkpt lat="37.9715575" lon="12.5580544"><ele>42.0</ele><time>2026-04-25T18:37:40.388Z</time></trkpt><trkpt lat="37.9713498" lon="12.5580026"><ele>42.0</ele><time>2026-04-25T18:37:41.388Z</time></trkpt><trkpt lat="37.9711341" lon="12.5579587"><ele>42.0</ele><time>2026-04-25T18:37:42.389Z</time></trkpt><trkpt lat="37.9709111" lon="12.5579187"><ele>42.0</ele><time>2026-04-25T18:37:43.388Z</time></trkpt><trkpt lat="37.9706955" lon="12.5578718"><ele>43.0</ele><time>2026-04-25T18:37:44.387Z</time></trkpt><trkpt lat="37.9704764" lon="12.5578286"><ele>44.0</ele><time>2026-04-25T18:37:45.388Z</time></trkpt><trkpt lat="37.9702607" lon="12.5577813"><ele>45.0</ele><time>2026-04-25T18:37:46.388Z</time></trkpt><trkpt lat="37.9700331" lon="12.55774"><ele>43.0</ele><time>2026-04-25T18:37:47.388Z</time></trkpt><trkpt lat="37.9698058" lon="12.5576925"><ele>41.0</ele><time>2026-04-25T18:37:48.388Z</time></trkpt><trkpt lat="37.9695729" lon="12.5576442"><ele>41.0</ele><time>2026-04-25T18:37:49.388Z</time></trkpt><trkpt lat="37.9693403" lon="12.5575938"><ele>41.0</ele><time>2026-04-25T18:37:50.387Z</time></trkpt><trkpt lat="37.9691095" lon="12.5575488"><ele>40.666666666666664</ele><time>2026-04-25T18:37:51.389Z</time></trkpt><trkpt lat="37.9688919" lon="12.557502"><ele>40.333333333333336</ele><time>2026-04-25T18:37:52.388Z</time></trkpt><trkpt lat="37.9686869" lon="12.5574612"><ele>40.0</ele><time>2026-04-25T18:37:53.388Z</time></trkpt><trkpt lat="37.9684873" lon="12.5574236"><ele>41.0</ele><time>2026-04-25T18:37:54.389Z</time></trkpt><trkpt lat="37.9682925" lon="12.5573828"><ele>42.0</ele><time>2026-04-25T18:37:55.388Z</time></trkpt><trkpt lat="37.9680985" lon="12.5573423"><ele>43.0</ele><time>2026-04-25T18:37:56.388Z</time></trkpt><trkpt lat="37.9679066" lon="12.5573032"><ele>43.0</ele><time>2026-04-25T18:37:57.388Z</time></trkpt><trkpt lat="37.967721" lon="12.5572746"><ele>43.0</ele><time>2026-04-25T18:37:58.388Z</time></trkpt><trkpt lat="37.9675351" lon="12.5572395"><ele>43.0</ele><time>2026-04-25T18:37:59.388Z</time></trkpt><trkpt lat="37.9673473" lon="12.557208"><ele>43.0</ele><time>2026-04-25T18:38:00.388Z</time></trkpt><trkpt lat="37.9671575" lon="12.5571737"><ele>43.0</ele><time>2026-04-25T18:38:01.388Z</time></trkpt><trkpt lat="37.966968" lon="12.557137"><ele>43.0</ele><time>2026-04-25T18:38:02.388Z</time></trkpt><trkpt lat="37.9667736" lon="12.5571078"><ele>43.0</ele><time>2026-04-25T18:38:03.388Z</time></trkpt><trkpt lat="37.9665873" lon="12.5570646"><ele>43.0</ele><time>2026-04-25T18:38:04.388Z</time></trkpt><trkpt lat="37.9664126" lon="12.557025"><ele>43.0</ele><time>2026-04-25T18:38:05.389Z</time></trkpt><trkpt lat="37.9662401" lon="12.5569929"><ele>43.0</ele><time>2026-04-25T18:38:06.387Z</time></trkpt><trkpt lat="37.9660721" lon="12.5569569"><ele>43.0</ele><time>2026-04-25T18:38:07.388Z</time></trkpt><trkpt lat="37.9659015" lon="12.5569183"><ele>43.0</ele><time>2026-04-25T18:38:08.388Z</time></trkpt><trkpt lat="37.9657251" lon="12.5568813"><ele>43.0</ele><time>2026-04-25T18:38:09.388Z</time></trkpt><trkpt lat="37.9655482" lon="12.5568476"><ele>43.0</ele><time>2026-04-25T18:38:10.388Z</time></trkpt><trkpt lat="37.9653662" lon="12.5568173"><ele>43.0</ele><time>2026-04-25T18:38:11.387Z</time></trkpt><trkpt lat="37.9651869" lon="12.5567748"><ele>43.333333333333336</ele><time>2026-04-25T18:38:12.388Z</time></trkpt><trkpt lat="37.9650044" lon="12.5567469"><ele>43.666666666666664</ele><time>2026-04-25T18:38:13.387Z</time></trkpt><trkpt lat="37.9648185" lon="12.5567173"><ele>44.0</ele><time>2026-04-25T18:38:14.388Z</time></trkpt><trkpt lat="37.9646399" lon="12.556685"><ele>44.0</ele><time>2026-04-25T18:38:15.388Z</time></trkpt><trkpt lat="37.9644587" lon="12.5566524"><ele>44.0</ele><time>2026-04-25T18:38:16.387Z</time></trkpt><trkpt lat="37.964283" lon="12.5566207"><ele>44.0</ele><time>2026-04-25T18:38:17.388Z</time></trkpt><trkpt lat="37.9641107" lon="12.5565863"><ele>44.0</ele><time>2026-04-25T18:38:18.388Z</time></trkpt><trkpt lat="37.9639381" lon="12.5565604"><ele>44.0</ele><time>2026-04-25T18:38:19.388Z</time></trkpt><trkpt lat="37.9637647" lon="12.5565287"><ele>44.0</ele><time>2026-04-25T18:38:20.388Z</time></trkpt><trkpt lat="37.9635875" lon="12.5564984"><ele>44.0</ele><time>2026-04-25T18:38:21.388Z</time></trkpt><trkpt lat="37.9634114" lon="12.5564597"><ele>44.0</ele><time>2026-04-25T18:38:22.388Z</time></trkpt><trkpt lat="37.9632268" lon="12.5564254"><ele>44.0</ele><time>2026-04-25T18:38:23.388Z</time></trkpt><trkpt lat="37.9630325" lon="12.5563994"><ele>44.0</ele><time>2026-04-25T18:38:24.388Z</time></trkpt><trkpt lat="37.9628297" lon="12.5563728"><ele>44.0</ele><time>2026-04-25T18:38:25.388Z</time></trkpt><trkpt lat="37.9626137" lon="12.5563384"><ele>44.0</ele><time>2026-04-25T18:38:26.388Z</time></trkpt><trkpt lat="37.9623938" lon="12.5562998"><ele>44.0</ele><time>2026-04-25T18:38:27.389Z</time></trkpt><trkpt lat="37.9621706" lon="12.5562512"><ele>44.0</ele><time>2026-04-25T18:38:28.389Z</time></trkpt><trkpt lat="37.9619439" lon="12.5562076"><ele>43.5</ele><time>2026-04-25T18:38:29.388Z</time></trkpt><trkpt lat="37.9617162" lon="12.5561625"><ele>43.0</ele><time>2026-04-25T18:38:30.388Z</time></trkpt><trkpt lat="37.9614888" lon="12.5561125"><ele>43.0</ele><time>2026-04-25T18:38:31.388Z</time></trkpt><trkpt lat="37.9612594" lon="12.5560645"><ele>43.0</ele><time>2026-04-25T18:38:32.388Z</time></trkpt><trkpt lat="37.9610281" lon="12.5560251"><ele>42.5</ele><time>2026-04-25T18:38:33.388Z</time></trkpt><trkpt lat="37.9607967" lon="12.5559868"><ele>42.0</ele><time>2026-04-25T18:38:34.387Z</time></trkpt><trkpt lat="37.9605587" lon="12.5559538"><ele>42.0</ele><time>2026-04-25T18:38:35.388Z</time></trkpt><trkpt lat="37.9603222" lon="12.5559137"><ele>42.0</ele><time>2026-04-25T18:38:36.388Z</time></trkpt><trkpt lat="37.9600911" lon="12.5558742"><ele>43.0</ele><time>2026-04-25T18:38:37.387Z</time></trkpt><trkpt lat="37.9598643" lon="12.555835"><ele>44.0</ele><time>2026-04-25T18:38:38.388Z</time></trkpt><trkpt lat="37.9596454" lon="12.555795"><ele>44.0</ele><time>2026-04-25T18:38:39.389Z</time></trkpt><trkpt lat="37.9594327" lon="12.5557557"><ele>44.0</ele><time>2026-04-25T18:38:40.388Z</time></trkpt><trkpt lat="37.9592202" lon="12.5557197"><ele>44.0</ele><time>2026-04-25T18:38:41.388Z</time></trkpt><trkpt lat="37.9590065" lon="12.5556793"><ele>43.666666666666664</ele><time>2026-04-25T18:38:42.389Z</time></trkpt><trkpt lat="37.9587927" lon="12.5556415"><ele>43.333333333333336</ele><time>2026-04-25T18:38:43.388Z</time></trkpt><trkpt lat="37.9585779" lon="12.5556128"><ele>43.0</ele><time>2026-04-25T18:38:44.388Z</time></trkpt><trkpt lat="37.9583651" lon="12.5555848"><ele>42.333333333333336</ele><time>2026-04-25T18:38:45.388Z</time></trkpt><trkpt lat="37.9581445" lon="12.5555636"><ele>41.666666666666664</ele><time>2026-04-25T18:38:46.389Z</time></trkpt><trkpt lat="37.957931" lon="12.5555533"><ele>41.0</ele><time>2026-04-25T18:38:47.388Z</time></trkpt><trkpt lat="37.957718" lon="12.555542"><ele>39.0</ele><time>2026-04-25T18:38:48.389Z</time></trkpt><trkpt lat="37.9575072" lon="12.5555291"><ele>37.0</ele><time>2026-04-25T18:38:49.387Z</time></trkpt><trkpt lat="37.9572997" lon="12.5555217"><ele>35.0</ele><time>2026-04-25T18:38:50.388Z</time></trkpt><trkpt lat="37.9570938" lon="12.5555079"><ele>35.0</ele><time>2026-04-25T18:38:51.388Z</time></trkpt><trkpt lat="37.9568851" lon="12.555505"><ele>35.0</ele><time>2026-04-25T18:38:52.388Z</time></trkpt><trkpt lat="37.9566764" lon="12.5554961"><ele>35.0</ele><time>2026-04-25T18:38:53.388Z</time></trkpt><trkpt lat="37.9564649" lon="12.5554837"><ele>35.666666666666664</ele><time>2026-04-25T18:38:54.388Z</time></trkpt><trkpt lat="37.9562628" lon="12.55547"><ele>36.333333333333336</ele><time>2026-04-25T18:38:55.387Z</time></trkpt><trkpt lat="37.9560675" lon="12.555467"><ele>37.0</ele><time>2026-04-25T18:38:56.388Z</time></trkpt><trkpt lat="37.955875" lon="12.555452"><ele>39.66666666666667</ele><time>2026-04-25T18:38:57.387Z</time></trkpt><trkpt lat="37.9556841" lon="12.5554426"><ele>42.333333333333336</ele><time>2026-04-25T18:38:58.387Z</time></trkpt><trkpt lat="37.9554968" lon="12.5554317"><ele>45.0</ele><time>2026-04-25T18:38:59.388Z</time></trkpt><trkpt lat="37.9553113" lon="12.555424"><ele>45.0</ele><time>2026-04-25T18:39:00.387Z</time></trkpt><trkpt lat="37.955123" lon="12.5554191"><ele>45.0</ele><time>2026-04-25T18:39:01.389Z</time></trkpt><trkpt lat="37.9549339" lon="12.5554226"><ele>45.0</ele><time>2026-04-25T18:39:02.388Z</time></trkpt><trkpt lat="37.9547492" lon="12.555413"><ele>45.666666666666664</ele><time>2026-04-25T18:39:03.389Z</time></trkpt><trkpt lat="37.9545704" lon="12.5554037"><ele>46.33333333333333</ele><time>2026-04-25T18:39:04.387Z</time></trkpt><trkpt lat="37.9543915" lon="12.5553991"><ele>47.0</ele><time>2026-04-25T18:39:05.388Z</time></trkpt><trkpt lat="37.9542105" lon="12.5553912"><ele>48.0</ele><time>2026-04-25T18:39:06.389Z</time></trkpt><trkpt lat="37.9540361" lon="12.5553776"><ele>49.0</ele><time>2026-04-25T18:39:07.388Z</time></trkpt><trkpt lat="37.9538561" lon="12.5553635"><ele>50.0</ele><time>2026-04-25T18:39:08.388Z</time></trkpt><trkpt lat="37.9536764" lon="12.5553496"><ele>50.0</ele><time>2026-04-25T18:39:09.388Z</time></trkpt><trkpt lat="37.953496" lon="12.5553285"><ele>50.0</ele><time>2026-04-25T18:39:10.388Z</time></trkpt><trkpt lat="37.9533114" lon="12.5553187"><ele>50.0</ele><time>2026-04-25T18:39:11.389Z</time></trkpt><trkpt lat="37.9531255" lon="12.5553122"><ele>49.66666666666667</ele><time>2026-04-25T18:39:12.388Z</time></trkpt><trkpt lat="37.9529397" lon="12.5553008"><ele>49.33333333333333</ele><time>2026-04-25T18:39:13.39Z</time></trkpt><trkpt lat="37.9527494" lon="12.5552981"><ele>49.0</ele><time>2026-04-25T18:39:14.387Z</time></trkpt><trkpt lat="37.9525644" lon="12.5552794"><ele>48.666666666666664</ele><time>2026-04-25T18:39:15.389Z</time></trkpt><trkpt lat="37.9523773" lon="12.5552664"><ele>48.33333333333333</ele><time>2026-04-25T18:39:16.388Z</time></trkpt><trkpt lat="37.9521884" lon="12.5552584"><ele>48.0</ele><time>2026-04-25T18:39:17.389Z</time></trkpt><trkpt lat="37.9519995" lon="12.5552449"><ele>48.0</ele><time>2026-04-25T18:39:18.389Z</time></trkpt><trkpt lat="37.951805" lon="12.5552365"><ele>48.0</ele><time>2026-04-25T18:39:19.389Z</time></trkpt><trkpt lat="37.9516118" lon="12.5552163"><ele>48.0</ele><time>2026-04-25T18:39:20.387Z</time></trkpt><trkpt lat="37.9514173" lon="12.555202"><ele>49.0</ele><time>2026-04-25T18:39:21.389Z</time></trkpt><trkpt lat="37.9512136" lon="12.5551885"><ele>50.0</ele><time>2026-04-25T18:39:22.387Z</time></trkpt><trkpt lat="37.9509987" lon="12.555163"><ele>51.0</ele><time>2026-04-25T18:39:23.387Z</time></trkpt><trkpt lat="37.9507689" lon="12.5551325"><ele>51.0</ele><time>2026-04-25T18:39:24.389Z</time></trkpt><trkpt lat="37.9505291" lon="12.5550993"><ele>51.0</ele><time>2026-04-25T18:39:25.389Z</time></trkpt><trkpt lat="37.9502898" lon="12.5550654"><ele>51.0</ele><time>2026-04-25T18:39:26.388Z</time></trkpt><trkpt lat="37.9500498" lon="12.5550233"><ele>51.0</ele><time>2026-04-25T18:39:27.388Z</time></trkpt><trkpt lat="37.9498102" lon="12.5549808"><ele>51.0</ele><time>2026-04-25T18:39:28.388Z</time></trkpt><trkpt lat="37.9495794" lon="12.5549457"><ele>51.0</ele><time>2026-04-25T18:39:29.388Z</time></trkpt><trkpt lat="37.9493538" lon="12.5549027"><ele>51.0</ele><time>2026-04-25T18:39:30.389Z</time></trkpt><trkpt lat="37.9491383" lon="12.5548731"><ele>51.0</ele><time>2026-04-25T18:39:31.389Z</time></trkpt><trkpt lat="37.9489308" lon="12.5548437"><ele>51.0</ele><time>2026-04-25T18:39:32.389Z</time></trkpt><trkpt lat="37.9487287" lon="12.5548069"><ele>51.0</ele><time>2026-04-25T18:39:33.388Z</time></trkpt><trkpt lat="37.9485357" lon="12.5547767"><ele>51.0</ele><time>2026-04-25T18:39:34.389Z</time></trkpt><trkpt lat="37.948345" lon="12.5547454"><ele>51.0</ele><time>2026-04-25T18:39:35.388Z</time></trkpt><trkpt lat="37.9481573" lon="12.5547167"><ele>52.66666666666667</ele><time>2026-04-25T18:39:36.388Z</time></trkpt><trkpt lat="37.9479511" lon="12.554688"><ele>54.333333333333336</ele><time>2026-04-25T18:39:37.389Z</time></trkpt><trkpt lat="37.9477426" lon="12.5546523"><ele>56.0</ele><time>2026-04-25T18:39:38.39Z</time></trkpt><trkpt lat="37.947522" lon="12.5546199"><ele>55.5</ele><time>2026-04-25T18:39:39.389Z</time></trkpt><trkpt lat="37.9472928" lon="12.5545784"><ele>55.0</ele><time>2026-04-25T18:39:40.388Z</time></trkpt><trkpt lat="37.9470575" lon="12.5545326"><ele>55.0</ele><time>2026-04-25T18:39:41.388Z</time></trkpt><trkpt lat="37.9468226" lon="12.5544929"><ele>55.0</ele><time>2026-04-25T18:39:42.389Z</time></trkpt><trkpt lat="37.9465986" lon="12.5544574"><ele>55.33333333333333</ele><time>2026-04-25T18:39:43.389Z</time></trkpt><trkpt lat="37.9463838" lon="12.5544251"><ele>55.66666666666667</ele><time>2026-04-25T18:39:44.389Z</time></trkpt><trkpt lat="37.9461744" lon="12.5543999"><ele>56.0</ele><time>2026-04-25T18:39:45.39Z</time></trkpt><trkpt lat="37.9459755" lon="12.5543731"><ele>56.333333333333336</ele><time>2026-04-25T18:39:46.388Z</time></trkpt><trkpt lat="37.9457775" lon="12.5543473"><ele>56.66666666666667</ele><time>2026-04-25T18:39:47.388Z</time></trkpt><trkpt lat="37.9455856" lon="12.5543146"><ele>57.0</ele><time>2026-04-25T18:39:48.389Z</time></trkpt><trkpt lat="37.945402" lon="12.5542806"><ele>57.0</ele><time>2026-04-25T18:39:49.388Z</time></trkpt><trkpt lat="37.9452098" lon="12.5542519"><ele>57.0</ele><time>2026-04-25T18:39:50.389Z</time></trkpt><trkpt lat="37.9450144" lon="12.5542224"><ele>57.0</ele><time>2026-04-25T18:39:51.389Z</time></trkpt><trkpt lat="37.9448111" lon="12.5541919"><ele>57.33333333333333</ele><time>2026-04-25T18:39:52.389Z</time></trkpt><trkpt lat="37.9446018" lon="12.5541605"><ele>57.666666666666664</ele><time>2026-04-25T18:39:53.389Z</time></trkpt><trkpt lat="37.9443859" lon="12.5541354"><ele>58.0</ele><time>2026-04-25T18:39:54.388Z</time></trkpt><trkpt lat="37.9441672" lon="12.5541023"><ele>58.0</ele><time>2026-04-25T18:39:55.389Z</time></trkpt><trkpt lat="37.9439426" lon="12.5540657"><ele>58.0</ele><time>2026-04-25T18:39:56.389Z</time></trkpt><trkpt lat="37.9437181" lon="12.5540344"><ele>58.0</ele><time>2026-04-25T18:39:57.389Z</time></trkpt><trkpt lat="37.9435019" lon="12.5540064"><ele>58.0</ele><time>2026-04-25T18:39:58.389Z</time></trkpt><trkpt lat="37.9432896" lon="12.5539714"><ele>58.0</ele><time>2026-04-25T18:39:59.389Z</time></trkpt><trkpt lat="37.9430778" lon="12.5539406"><ele>58.0</ele><time>2026-04-25T18:40:00.388Z</time></trkpt><trkpt lat="37.9428629" lon="12.5539091"><ele>58.0</ele><time>2026-04-25T18:40:01.387Z</time></trkpt><trkpt lat="37.9426503" lon="12.5538726"><ele>58.0</ele><time>2026-04-25T18:40:02.388Z</time></trkpt><trkpt lat="37.9424357" lon="12.5538451"><ele>58.0</ele><time>2026-04-25T18:40:03.389Z</time></trkpt><trkpt lat="37.9422243" lon="12.5538129"><ele>58.0</ele><time>2026-04-25T18:40:04.388Z</time></trkpt><trkpt lat="37.9420187" lon="12.5537849"><ele>58.0</ele><time>2026-04-25T18:40:05.387Z</time></trkpt><trkpt lat="37.9418143" lon="12.5537525"><ele>57.666666666666664</ele><time>2026-04-25T18:40:06.389Z</time></trkpt><trkpt lat="37.9416139" lon="12.5537113"><ele>57.33333333333333</ele><time>2026-04-25T18:40:07.389Z</time></trkpt><trkpt lat="37.9414163" lon="12.5536708"><ele>57.0</ele><time>2026-04-25T18:40:08.388Z</time></trkpt><trkpt lat="37.9412284" lon="12.5536327"><ele>56.66666666666667</ele><time>2026-04-25T18:40:09.389Z</time></trkpt><trkpt lat="37.9410502" lon="12.5535962"><ele>56.333333333333336</ele><time>2026-04-25T18:40:10.389Z</time></trkpt><trkpt lat="37.9408741" lon="12.5535631"><ele>56.0</ele><time>2026-04-25T18:40:11.388Z</time></trkpt><trkpt lat="37.9406938" lon="12.55353"><ele>56.66666666666667</ele><time>2026-04-25T18:40:12.389Z</time></trkpt><trkpt lat="37.9405129" lon="12.5534943"><ele>57.33333333333333</ele><time>2026-04-25T18:40:13.388Z</time></trkpt><trkpt lat="37.9403325" lon="12.553462"><ele>58.0</ele><time>2026-04-25T18:40:14.389Z</time></trkpt><trkpt lat="37.9401569" lon="12.553435"><ele>57.0</ele><time>2026-04-25T18:40:15.389Z</time></trkpt><trkpt lat="37.939978" lon="12.5534085"><ele>56.0</ele><time>2026-04-25T18:40:16.389Z</time></trkpt><trkpt lat="37.9398025" lon="12.5533809"><ele>55.0</ele><time>2026-04-25T18:40:17.389Z</time></trkpt><trkpt lat="37.9396257" lon="12.5533526"><ele>55.0</ele><time>2026-04-25T18:40:18.389Z</time></trkpt><trkpt lat="37.939445" lon="12.5533262"><ele>55.0</ele><time>2026-04-25T18:40:19.389Z</time></trkpt><trkpt lat="37.9392669" lon="12.5532894"><ele>55.0</ele><time>2026-04-25T18:40:20.389Z</time></trkpt><trkpt lat="37.9390869" lon="12.5532552"><ele>55.666666666666664</ele><time>2026-04-25T18:40:21.388Z</time></trkpt><trkpt lat="37.9389124" lon="12.5532281"><ele>56.33333333333333</ele><time>2026-04-25T18:40:22.388Z</time></trkpt><trkpt lat="37.9387488" lon="12.553195"><ele>57.0</ele><time>2026-04-25T18:40:23.389Z</time></trkpt><trkpt lat="37.9385882" lon="12.5531691"><ele>57.0</ele><time>2026-04-25T18:40:24.389Z</time></trkpt><trkpt lat="37.9384224" lon="12.5531393"><ele>57.0</ele><time>2026-04-25T18:40:25.389Z</time></trkpt><trkpt lat="37.938247" lon="12.5531139"><ele>57.0</ele><time>2026-04-25T18:40:26.389Z</time></trkpt><trkpt lat="37.9380587" lon="12.5530916"><ele>57.0</ele><time>2026-04-25T18:40:27.389Z</time></trkpt><trkpt lat="37.9378669" lon="12.5530559"><ele>57.0</ele><time>2026-04-25T18:40:28.388Z</time></trkpt><trkpt lat="37.9376592" lon="12.553023"><ele>57.0</ele><time>2026-04-25T18:40:29.388Z</time></trkpt><trkpt lat="37.9374474" lon="12.5529928"><ele>58.0</ele><time>2026-04-25T18:40:30.389Z</time></trkpt><trkpt lat="37.9372254" lon="12.5529494"><ele>59.0</ele><time>2026-04-25T18:40:31.389Z</time></trkpt><trkpt lat="37.9370012" lon="12.5529079"><ele>58.66666666666667</ele><time>2026-04-25T18:40:32.389Z</time></trkpt><trkpt lat="37.9367755" lon="12.55287"><ele>58.33333333333333</ele><time>2026-04-25T18:40:33.389Z</time></trkpt><trkpt lat="37.9365699" lon="12.552816"><ele>58.0</ele><time>2026-04-25T18:40:34.388Z</time></trkpt><trkpt lat="37.9363542" lon="12.5527769"><ele>58.0</ele><time>2026-04-25T18:40:35.389Z</time></trkpt><trkpt lat="37.9361449" lon="12.5527269"><ele>58.0</ele><time>2026-04-25T18:40:36.389Z</time></trkpt><trkpt lat="37.935927" lon="12.5526793"><ele>58.0</ele><time>2026-04-25T18:40:37.389Z</time></trkpt><trkpt lat="37.9357449" lon="12.5526454"><ele>57.666666666666664</ele><time>2026-04-25T18:40:38.389Z</time></trkpt><trkpt lat="37.9355494" lon="12.5525903"><ele>57.33333333333333</ele><time>2026-04-25T18:40:39.388Z</time></trkpt><trkpt lat="37.9353837" lon="12.5525639"><ele>57.0</ele><time>2026-04-25T18:40:40.387Z</time></trkpt><trkpt lat="37.9352135" lon="12.5525391"><ele>57.0</ele><time>2026-04-25T18:40:41.388Z</time></trkpt><trkpt lat="37.9350589" lon="12.5525035"><ele>57.0</ele><time>2026-04-25T18:40:42.389Z</time></trkpt><trkpt lat="37.9349101" lon="12.5524813"><ele>57.0</ele><time>2026-04-25T18:40:43.389Z</time></trkpt><trkpt lat="37.9347627" lon="12.5524506"><ele>56.75</ele><time>2026-04-25T18:40:44.389Z</time></trkpt><trkpt lat="37.9346184" lon="12.5524152"><ele>56.5</ele><time>2026-04-25T18:40:45.389Z</time></trkpt><trkpt lat="37.9344768" lon="12.5523763"><ele>56.25</ele><time>2026-04-25T18:40:46.389Z</time></trkpt><trkpt lat="37.9343286" lon="12.552333"><ele>56.0</ele><time>2026-04-25T18:40:47.389Z</time></trkpt><trkpt lat="37.9341738" lon="12.5522855"><ele>56.0</ele><time>2026-04-25T18:40:48.389Z</time></trkpt><trkpt lat="37.9340082" lon="12.552237"><ele>56.0</ele><time>2026-04-25T18:40:49.389Z</time></trkpt><trkpt lat="37.9338354" lon="12.5521887"><ele>56.0</ele><time>2026-04-25T18:40:50.39Z</time></trkpt><trkpt lat="37.9336735" lon="12.5521372"><ele>56.0</ele><time>2026-04-25T18:40:51.388Z</time></trkpt><trkpt lat="37.9335363" lon="12.552087"><ele>56.0</ele><time>2026-04-25T18:40:52.389Z</time></trkpt><trkpt lat="37.9334209" lon="12.552049"><ele>56.0</ele><time>2026-04-25T18:40:53.389Z</time></trkpt><trkpt lat="37.933318" lon="12.552009"><ele>56.0</ele><time>2026-04-25T18:40:54.389Z</time></trkpt><trkpt lat="37.9332204" lon="12.5519644"><ele>56.199999999999996</ele><time>2026-04-25T18:40:55.389Z</time></trkpt><trkpt lat="37.933126" lon="12.5519112"><ele>56.39999999999999</ele><time>2026-04-25T18:40:56.389Z</time></trkpt><trkpt lat="37.9330337" lon="12.5518498"><ele>56.6</ele><time>2026-04-25T18:40:57.388Z</time></trkpt><trkpt lat="37.9329341" lon="12.5517799"><ele>56.8</ele><time>2026-04-25T18:40:58.388Z</time></trkpt><trkpt lat="37.9328365" lon="12.5516998"><ele>57.0</ele><time>2026-04-25T18:40:59.389Z</time></trkpt><trkpt lat="37.932734" lon="12.5516299"><ele>57.0</ele><time>2026-04-25T18:41:00.388Z</time></trkpt><trkpt lat="37.9326193" lon="12.5515508"><ele>57.0</ele><time>2026-04-25T18:41:01.389Z</time></trkpt><trkpt lat="37.9325103" lon="12.5514729"><ele>57.0</ele><time>2026-04-25T18:41:02.39Z</time></trkpt><trkpt lat="37.9323988" lon="12.5513954"><ele>57.0</ele><time>2026-04-25T18:41:03.389Z</time></trkpt><trkpt lat="37.9322789" lon="12.5513093"><ele>57.25</ele><time>2026-04-25T18:41:04.389Z</time></trkpt><trkpt lat="37.9321593" lon="12.5512194"><ele>57.5</ele><time>2026-04-25T18:41:05.389Z</time></trkpt><trkpt lat="37.93204" lon="12.5511345"><ele>57.75</ele><time>2026-04-25T18:41:06.388Z</time></trkpt><trkpt lat="37.9319282" lon="12.5510549"><ele>58.0</ele><time>2026-04-25T18:41:07.388Z</time></trkpt><trkpt lat="37.9318138" lon="12.5509669"><ele>58.5</ele><time>2026-04-25T18:41:08.389Z</time></trkpt><trkpt lat="37.9316932" lon="12.5508798"><ele>59.0</ele><time>2026-04-25T18:41:09.389Z</time></trkpt><trkpt lat="37.9315644" lon="12.5507908"><ele>59.5</ele><time>2026-04-25T18:41:10.389Z</time></trkpt><trkpt lat="37.9314335" lon="12.5507023"><ele>60.0</ele><time>2026-04-25T18:41:11.389Z</time></trkpt><trkpt lat="37.9312725" lon="12.5506048"><ele>60.0</ele><time>2026-04-25T18:41:12.39Z</time></trkpt><trkpt lat="37.9311151" lon="12.5504966"><ele>60.0</ele><time>2026-04-25T18:41:13.389Z</time></trkpt><trkpt lat="37.9309576" lon="12.5503794"><ele>60.0</ele><time>2026-04-25T18:41:14.389Z</time></trkpt><trkpt lat="37.930783" lon="12.5502622"><ele>60.0</ele><time>2026-04-25T18:41:15.389Z</time></trkpt><trkpt lat="37.9304156" lon="12.5499935"><ele>60.0</ele><time>2026-04-25T18:41:17.388Z</time></trkpt><trkpt lat="37.9302304" lon="12.5498539"><ele>59.66666666666667</ele><time>2026-04-25T18:41:18.389Z</time></trkpt><trkpt lat="37.9300428" lon="12.5497158"><ele>59.333333333333336</ele><time>2026-04-25T18:41:19.389Z</time></trkpt><trkpt lat="37.9298562" lon="12.5495897"><ele>59.0</ele><time>2026-04-25T18:41:20.388Z</time></trkpt><trkpt lat="37.9296775" lon="12.5494509"><ele>59.0</ele><time>2026-04-25T18:41:21.389Z</time></trkpt><trkpt lat="37.9294999" lon="12.5493121"><ele>59.0</ele><time>2026-04-25T18:41:22.389Z</time></trkpt><trkpt lat="37.9293232" lon="12.5491774"><ele>59.0</ele><time>2026-04-25T18:41:23.389Z</time></trkpt><trkpt lat="37.9289645" lon="12.5489104"><ele>59.333333333333336</ele><time>2026-04-25T18:41:25.389Z</time></trkpt><trkpt lat="37.9287834" lon="12.5487783"><ele>59.66666666666667</ele><time>2026-04-25T18:41:26.389Z</time></trkpt><trkpt lat="37.9285979" lon="12.5486531"><ele>60.0</ele><time>2026-04-25T18:41:27.389Z</time></trkpt><trkpt lat="37.9284272" lon="12.5485287"><ele>59.66666666666667</ele><time>2026-04-25T18:41:28.389Z</time></trkpt><trkpt lat="37.9282526" lon="12.5484046"><ele>59.333333333333336</ele><time>2026-04-25T18:41:29.389Z</time></trkpt><trkpt lat="37.928083" lon="12.5482818"><ele>59.0</ele><time>2026-04-25T18:41:30.389Z</time></trkpt><trkpt lat="37.927903" lon="12.5481549"><ele>59.0</ele><time>2026-04-25T18:41:31.389Z</time></trkpt><trkpt lat="37.9277232" lon="12.5480251"><ele>59.0</ele><time>2026-04-25T18:41:32.388Z</time></trkpt><trkpt lat="37.9275417" lon="12.5478944"><ele>59.0</ele><time>2026-04-25T18:41:33.39Z</time></trkpt><trkpt lat="37.9273659" lon="12.5477578"><ele>59.0</ele><time>2026-04-25T18:41:34.389Z</time></trkpt><trkpt lat="37.9271884" lon="12.5476249"><ele>59.0</ele><time>2026-04-25T18:41:35.389Z</time></trkpt><trkpt lat="37.9270081" lon="12.5474962"><ele>59.0</ele><time>2026-04-25T18:41:36.389Z</time></trkpt><trkpt lat="37.9268294" lon="12.5473678"><ele>59.0</ele><time>2026-04-25T18:41:37.389Z</time></trkpt><trkpt lat="37.9266485" lon="12.5472324"><ele>59.0</ele><time>2026-04-25T18:41:38.39Z</time></trkpt><trkpt lat="37.9264643" lon="12.5470891"><ele>59.0</ele><time>2026-04-25T18:41:39.39Z</time></trkpt><trkpt lat="37.9262761" lon="12.5469486"><ele>57.66666666666667</ele><time>2026-04-25T18:41:40.389Z</time></trkpt><trkpt lat="37.9260913" lon="12.5468087"><ele>56.33333333333333</ele><time>2026-04-25T18:41:41.389Z</time></trkpt><trkpt lat="37.9258991" lon="12.5466692"><ele>55.0</ele><time>2026-04-25T18:41:42.388Z</time></trkpt><trkpt lat="37.9257093" lon="12.54653"><ele>54.0</ele><time>2026-04-25T18:41:43.389Z</time></trkpt><trkpt lat="37.9255294" lon="12.5463894"><ele>53.0</ele><time>2026-04-25T18:41:44.389Z</time></trkpt><trkpt lat="37.9253544" lon="12.5462604"><ele>52.0</ele><time>2026-04-25T18:41:45.389Z</time></trkpt><trkpt lat="37.9250491" lon="12.5460173"><ele>51.33333333333333</ele><time>2026-04-25T18:41:47.389Z</time></trkpt><trkpt lat="37.9249234" lon="12.5459238"><ele>50.66666666666667</ele><time>2026-04-25T18:41:48.389Z</time></trkpt><trkpt lat="37.924736" lon="12.5457723"><ele>50.0</ele><time>2026-04-25T18:41:50.389Z</time></trkpt><trkpt lat="37.9246476" lon="12.5457088"><ele>50.0</ele><time>2026-04-25T18:41:51.39Z</time></trkpt><trkpt lat="37.9245601" lon="12.545652"><ele>50.0</ele><time>2026-04-25T18:41:52.388Z</time></trkpt><trkpt lat="37.9244759" lon="12.5455889"><ele>50.0</ele><time>2026-04-25T18:41:53.389Z</time></trkpt><trkpt lat="37.9243826" lon="12.5455202"><ele>50.0</ele><time>2026-04-25T18:41:54.389Z</time></trkpt><trkpt lat="37.9242842" lon="12.5454534"><ele>50.0</ele><time>2026-04-25T18:41:55.389Z</time></trkpt><trkpt lat="37.9241871" lon="12.5453851"><ele>51.2</ele><time>2026-04-25T18:41:56.389Z</time></trkpt><trkpt lat="37.924093" lon="12.5453105"><ele>52.4</ele><time>2026-04-25T18:41:57.391Z</time></trkpt><trkpt lat="37.9239961" lon="12.545236"><ele>53.599999999999994</ele><time>2026-04-25T18:41:58.389Z</time></trkpt><trkpt lat="37.9238996" lon="12.5451661"><ele>54.8</ele><time>2026-04-25T18:41:59.388Z</time></trkpt><trkpt lat="37.9238038" lon="12.5450971"><ele>56.0</ele><time>2026-04-25T18:42:00.389Z</time></trkpt><trkpt lat="37.923717" lon="12.5450279"><ele>56.00000000000001</ele><time>2026-04-25T18:42:01.389Z</time></trkpt><trkpt lat="37.9236379" lon="12.5449654"><ele>56.0</ele><time>2026-04-25T18:42:02.389Z</time></trkpt><trkpt lat="37.9235749" lon="12.544916"><ele>56.0</ele><time>2026-04-25T18:42:03.39Z</time></trkpt><trkpt lat="37.9235021" lon="12.5448509"><ele>56.0</ele><time>2026-04-25T18:42:05.389Z</time></trkpt><trkpt lat="37.9234217" lon="12.5448183"><ele>56.00000000000001</ele><time>2026-04-25T18:42:32.389Z</time></trkpt><trkpt lat="37.9233653" lon="12.5447779"><ele>56.0</ele><time>2026-04-25T18:42:33.389Z</time></trkpt><trkpt lat="37.9232869" lon="12.5447211"><ele>56.0</ele><time>2026-04-25T18:42:34.389Z</time></trkpt><trkpt lat="37.9231767" lon="12.5446448"><ele>56.0</ele><time>2026-04-25T18:42:35.39Z</time></trkpt><trkpt lat="37.9230425" lon="12.5445405"><ele>56.0</ele><time>2026-04-25T18:42:36.39Z</time></trkpt><trkpt lat="37.9228924" lon="12.5444202"><ele>56.0</ele><time>2026-04-25T18:42:37.39Z</time></trkpt><trkpt lat="37.9227124" lon="12.5442755"><ele>56.0</ele><time>2026-04-25T18:42:38.388Z</time></trkpt><trkpt lat="37.9225061" lon="12.5441068"><ele>55.5</ele><time>2026-04-25T18:42:39.389Z</time></trkpt><trkpt lat="37.9222956" lon="12.5439255"><ele>55.0</ele><time>2026-04-25T18:42:40.389Z</time></trkpt><trkpt lat="37.9220796" lon="12.5437438"><ele>55.5</ele><time>2026-04-25T18:42:41.389Z</time></trkpt><trkpt lat="37.9218725" lon="12.5435666"><ele>56.0</ele><time>2026-04-25T18:42:42.389Z</time></trkpt><trkpt lat="37.9216688" lon="12.5433901"><ele>57.0</ele><time>2026-04-25T18:42:43.389Z</time></trkpt><trkpt lat="37.9214725" lon="12.5432234"><ele>58.0</ele><time>2026-04-25T18:42:44.389Z</time></trkpt><trkpt lat="37.9212807" lon="12.5430572"><ele>58.0</ele><time>2026-04-25T18:42:45.39Z</time></trkpt><trkpt lat="37.9210937" lon="12.5428986"><ele>58.0</ele><time>2026-04-25T18:42:46.39Z</time></trkpt><trkpt lat="37.9209058" lon="12.5427353"><ele>57.666666666666664</ele><time>2026-04-25T18:42:47.39Z</time></trkpt><trkpt lat="37.9207268" lon="12.5425864"><ele>57.33333333333333</ele><time>2026-04-25T18:42:48.389Z</time></trkpt><trkpt lat="37.9205517" lon="12.5424424"><ele>57.0</ele><time>2026-04-25T18:42:49.39Z</time></trkpt><trkpt lat="37.9203774" lon="12.5422993"><ele>57.0</ele><time>2026-04-25T18:42:50.39Z</time></trkpt><trkpt lat="37.9201982" lon="12.5421444"><ele>57.0</ele><time>2026-04-25T18:42:51.39Z</time></trkpt><trkpt lat="37.9200226" lon="12.5419909"><ele>57.0</ele><time>2026-04-25T18:42:52.389Z</time></trkpt><trkpt lat="37.9198521" lon="12.5418466"><ele>56.66666666666667</ele><time>2026-04-25T18:42:53.389Z</time></trkpt><trkpt lat="37.919684" lon="12.5417117"><ele>56.333333333333336</ele><time>2026-04-25T18:42:54.389Z</time></trkpt><trkpt lat="37.9195253" lon="12.5415699"><ele>56.0</ele><time>2026-04-25T18:42:55.389Z</time></trkpt><trkpt lat="37.9193685" lon="12.541435"><ele>56.0</ele><time>2026-04-25T18:42:56.389Z</time></trkpt><trkpt lat="37.9192158" lon="12.5413078"><ele>56.0</ele><time>2026-04-25T18:42:57.388Z</time></trkpt><trkpt lat="37.919066" lon="12.5411802"><ele>56.0</ele><time>2026-04-25T18:42:58.389Z</time></trkpt><trkpt lat="37.9189164" lon="12.5410506"><ele>56.0</ele><time>2026-04-25T18:42:59.389Z</time></trkpt><trkpt lat="37.918762" lon="12.540923"><ele>56.0</ele><time>2026-04-25T18:43:00.389Z</time></trkpt><trkpt lat="37.9186093" lon="12.5407976"><ele>56.0</ele><time>2026-04-25T18:43:01.389Z</time></trkpt><trkpt lat="37.918464" lon="12.54066"><ele>56.0</ele><time>2026-04-25T18:43:02.389Z</time></trkpt><trkpt lat="37.9183102" lon="12.5405328"><ele>56.0</ele><time>2026-04-25T18:43:03.389Z</time></trkpt><trkpt lat="37.918159" lon="12.5404103"><ele>56.0</ele><time>2026-04-25T18:43:04.39Z</time></trkpt><trkpt lat="37.918003" lon="12.5402766"><ele>55.66666666666667</ele><time>2026-04-25T18:43:05.39Z</time></trkpt><trkpt lat="37.9178548" lon="12.5401512"><ele>55.33333333333333</ele><time>2026-04-25T18:43:06.389Z</time></trkpt><trkpt lat="37.917713" lon="12.5400265"><ele>55.0</ele><time>2026-04-25T18:43:07.39Z</time></trkpt><trkpt lat="37.9175675" lon="12.5399033"><ele>55.0</ele><time>2026-04-25T18:43:08.39Z</time></trkpt><trkpt lat="37.9174196" lon="12.5397849"><ele>55.0</ele><time>2026-04-25T18:43:09.39Z</time></trkpt><trkpt lat="37.9172713" lon="12.5396657"><ele>55.0</ele><time>2026-04-25T18:43:10.39Z</time></trkpt><trkpt lat="37.9171229" lon="12.5395389"><ele>54.0</ele><time>2026-04-25T18:43:11.39Z</time></trkpt><trkpt lat="37.9169694" lon="12.5394187"><ele>53.0</ele><time>2026-04-25T18:43:12.39Z</time></trkpt><trkpt lat="37.9168153" lon="12.5392926"><ele>52.0</ele><time>2026-04-25T18:43:13.39Z</time></trkpt><trkpt lat="37.9166679" lon="12.5391614"><ele>52.0</ele><time>2026-04-25T18:43:14.39Z</time></trkpt><trkpt lat="37.9165148" lon="12.539032"><ele>52.0</ele><time>2026-04-25T18:43:15.39Z</time></trkpt><trkpt lat="37.9163646" lon="12.5388842"><ele>52.0</ele><time>2026-04-25T18:43:16.39Z</time></trkpt><trkpt lat="37.916206" lon="12.5387511"><ele>51.666666666666664</ele><time>2026-04-25T18:43:17.39Z</time></trkpt><trkpt lat="37.9160445" lon="12.5386175"><ele>51.33333333333333</ele><time>2026-04-25T18:43:18.389Z</time></trkpt><trkpt lat="37.9158885" lon="12.5384859"><ele>51.0</ele><time>2026-04-25T18:43:19.39Z</time></trkpt><trkpt lat="37.9157301" lon="12.5383524"><ele>52.33333333333333</ele><time>2026-04-25T18:43:20.39Z</time></trkpt><trkpt lat="37.9155728" lon="12.538222"><ele>53.666666666666664</ele><time>2026-04-25T18:43:21.389Z</time></trkpt><trkpt lat="37.9154171" lon="12.5380923"><ele>55.0</ele><time>2026-04-25T18:43:22.391Z</time></trkpt><trkpt lat="37.9152603" lon="12.5379629"><ele>54.666666666666664</ele><time>2026-04-25T18:43:23.39Z</time></trkpt><trkpt lat="37.915108" lon="12.5378271"><ele>54.33333333333333</ele><time>2026-04-25T18:43:24.388Z</time></trkpt><trkpt lat="37.9149535" lon="12.5376954"><ele>54.0</ele><time>2026-04-25T18:43:25.39Z</time></trkpt><trkpt lat="37.9147968" lon="12.5375616"><ele>55.0</ele><time>2026-04-25T18:43:26.39Z</time></trkpt><trkpt lat="37.9146365" lon="12.5374327"><ele>56.0</ele><time>2026-04-25T18:43:27.39Z</time></trkpt><trkpt lat="37.9144724" lon="12.5373051"><ele>57.0</ele><time>2026-04-25T18:43:28.39Z</time></trkpt><trkpt lat="37.9143116" lon="12.5371679"><ele>55.66666666666667</ele><time>2026-04-25T18:43:29.389Z</time></trkpt><trkpt lat="37.9141506" lon="12.5370249"><ele>54.333333333333336</ele><time>2026-04-25T18:43:30.39Z</time></trkpt><trkpt lat="37.9139919" lon="12.5368835"><ele>53.0</ele><time>2026-04-25T18:43:31.389Z</time></trkpt><trkpt lat="37.9138352" lon="12.5367427"><ele>53.0</ele><time>2026-04-25T18:43:32.39Z</time></trkpt><trkpt lat="37.9136779" lon="12.5366061"><ele>53.0</ele><time>2026-04-25T18:43:33.39Z</time></trkpt><trkpt lat="37.9135262" lon="12.5364769"><ele>53.0</ele><time>2026-04-25T18:43:34.39Z</time></trkpt><trkpt lat="37.913234" lon="12.5362254"><ele>52.333333333333336</ele><time>2026-04-25T18:43:36.391Z</time></trkpt><trkpt lat="37.9130842" lon="12.536103"><ele>51.66666666666667</ele><time>2026-04-25T18:43:37.39Z</time></trkpt><trkpt lat="37.9129353" lon="12.5359792"><ele>51.0</ele><time>2026-04-25T18:43:38.39Z</time></trkpt><trkpt lat="37.9127863" lon="12.5358519"><ele>51.0</ele><time>2026-04-25T18:43:39.39Z</time></trkpt><trkpt lat="37.9126401" lon="12.5357329"><ele>51.0</ele><time>2026-04-25T18:43:40.39Z</time></trkpt><trkpt lat="37.9125079" lon="12.5356158"><ele>51.0</ele><time>2026-04-25T18:43:41.39Z</time></trkpt><trkpt lat="37.9123822" lon="12.5355138"><ele>51.5</ele><time>2026-04-25T18:43:42.389Z</time></trkpt><trkpt lat="37.9122615" lon="12.5354092"><ele>52.0</ele><time>2026-04-25T18:43:43.39Z</time></trkpt><trkpt lat="37.9121502" lon="12.5353089"><ele>52.5</ele><time>2026-04-25T18:43:44.391Z</time></trkpt><trkpt lat="37.9120377" lon="12.5352143"><ele>53.0</ele><time>2026-04-25T18:43:45.39Z</time></trkpt><trkpt lat="37.9119253" lon="12.5351177"><ele>52.25</ele><time>2026-04-25T18:43:46.39Z</time></trkpt><trkpt lat="37.9118095" lon="12.5350218"><ele>51.5</ele><time>2026-04-25T18:43:47.39Z</time></trkpt><trkpt lat="37.9116919" lon="12.5349227"><ele>50.75</ele><time>2026-04-25T18:43:48.39Z</time></trkpt><trkpt lat="37.911578" lon="12.534824"><ele>50.0</ele><time>2026-04-25T18:43:49.389Z</time></trkpt><trkpt lat="37.911461" lon="12.5347245"><ele>50.0</ele><time>2026-04-25T18:43:50.39Z</time></trkpt><trkpt lat="37.9113342" lon="12.5346155"><ele>50.0</ele><time>2026-04-25T18:43:51.39Z</time></trkpt><trkpt lat="37.911204" lon="12.534506"><ele>50.0</ele><time>2026-04-25T18:43:52.389Z</time></trkpt><trkpt lat="37.9110679" lon="12.5343909"><ele>49.66666666666667</ele><time>2026-04-25T18:43:53.389Z</time></trkpt><trkpt lat="37.9109371" lon="12.534279"><ele>49.33333333333333</ele><time>2026-04-25T18:43:54.389Z</time></trkpt><trkpt lat="37.9107935" lon="12.5341758"><ele>49.0</ele><time>2026-04-25T18:43:55.389Z</time></trkpt><trkpt lat="37.91067" lon="12.534082"><ele>49.0</ele><time>2026-04-25T18:43:56.39Z</time></trkpt><trkpt lat="37.9105434" lon="12.5339762"><ele>49.0</ele><time>2026-04-25T18:43:57.39Z</time></trkpt><trkpt lat="37.9104144" lon="12.5338776"><ele>49.0</ele><time>2026-04-25T18:43:58.39Z</time></trkpt><trkpt lat="37.9102815" lon="12.5337745"><ele>47.33333333333333</ele><time>2026-04-25T18:43:59.389Z</time></trkpt><trkpt lat="37.9101436" lon="12.5336757"><ele>45.666666666666664</ele><time>2026-04-25T18:44:00.39Z</time></trkpt><trkpt lat="37.9099947" lon="12.5335745"><ele>44.0</ele><time>2026-04-25T18:44:01.39Z</time></trkpt><trkpt lat="37.9098319" lon="12.5334704"><ele>43.0</ele><time>2026-04-25T18:44:02.39Z</time></trkpt><trkpt lat="37.9096622" lon="12.5333575"><ele>42.0</ele><time>2026-04-25T18:44:03.389Z</time></trkpt><trkpt lat="37.9093062" lon="12.5331251"><ele>41.666666666666664</ele><time>2026-04-25T18:44:05.39Z</time></trkpt><trkpt lat="37.9091291" lon="12.5330146"><ele>41.33333333333333</ele><time>2026-04-25T18:44:06.39Z</time></trkpt><trkpt lat="37.9089472" lon="12.5329132"><ele>41.0</ele><time>2026-04-25T18:44:07.39Z</time></trkpt><trkpt lat="37.9087688" lon="12.5328242"><ele>41.0</ele><time>2026-04-25T18:44:08.39Z</time></trkpt><trkpt lat="37.9085954" lon="12.5327415"><ele>41.0</ele><time>2026-04-25T18:44:09.39Z</time></trkpt><trkpt lat="37.9084309" lon="12.5326695"><ele>41.0</ele><time>2026-04-25T18:44:10.39Z</time></trkpt><trkpt lat="37.9082609" lon="12.5326013"><ele>42.666666666666664</ele><time>2026-04-25T18:44:11.39Z</time></trkpt><trkpt lat="37.9080825" lon="12.5325407"><ele>44.333333333333336</ele><time>2026-04-25T18:44:12.391Z</time></trkpt><trkpt lat="37.9079044" lon="12.5324844"><ele>46.0</ele><time>2026-04-25T18:44:13.39Z</time></trkpt><trkpt lat="37.9077211" lon="12.5324308"><ele>46.0</ele><time>2026-04-25T18:44:14.39Z</time></trkpt><trkpt lat="37.9075323" lon="12.532374"><ele>46.0</ele><time>2026-04-25T18:44:15.39Z</time></trkpt><trkpt lat="37.9073438" lon="12.5323121"><ele>46.0</ele><time>2026-04-25T18:44:16.389Z</time></trkpt><trkpt lat="37.9071575" lon="12.5322534"><ele>46.0</ele><time>2026-04-25T18:44:17.39Z</time></trkpt><trkpt lat="37.9069644" lon="12.5321894"><ele>46.0</ele><time>2026-04-25T18:44:18.39Z</time></trkpt><trkpt lat="37.9067684" lon="12.5321235"><ele>46.0</ele><time>2026-04-25T18:44:19.39Z</time></trkpt><trkpt lat="37.9065639" lon="12.532059"><ele>45.333333333333336</ele><time>2026-04-25T18:44:20.39Z</time></trkpt><trkpt lat="37.9063552" lon="12.5319938"><ele>44.666666666666664</ele><time>2026-04-25T18:44:21.39Z</time></trkpt><trkpt lat="37.9061433" lon="12.5319261"><ele>44.0</ele><time>2026-04-25T18:44:22.389Z</time></trkpt><trkpt lat="37.9059354" lon="12.5318517"><ele>44.5</ele><time>2026-04-25T18:44:23.39Z</time></trkpt><trkpt lat="37.9057181" lon="12.5317801"><ele>45.0</ele><time>2026-04-25T18:44:24.39Z</time></trkpt><trkpt lat="37.9054993" lon="12.5317028"><ele>45.0</ele><time>2026-04-25T18:44:25.39Z</time></trkpt><trkpt lat="37.9052739" lon="12.5316296"><ele>45.0</ele><time>2026-04-25T18:44:26.39Z</time></trkpt><trkpt lat="37.9050482" lon="12.5315508"><ele>45.5</ele><time>2026-04-25T18:44:27.39Z</time></trkpt><trkpt lat="37.9048185" lon="12.5314766"><ele>46.0</ele><time>2026-04-25T18:44:28.39Z</time></trkpt><trkpt lat="37.904593" lon="12.5313994"><ele>46.0</ele><time>2026-04-25T18:44:29.389Z</time></trkpt><trkpt lat="37.9043713" lon="12.5313253"><ele>46.0</ele><time>2026-04-25T18:44:30.388Z</time></trkpt><trkpt lat="37.9041532" lon="12.531259"><ele>45.0</ele><time>2026-04-25T18:44:31.39Z</time></trkpt><trkpt lat="37.9039407" lon="12.5311827"><ele>44.0</ele><time>2026-04-25T18:44:32.39Z</time></trkpt><trkpt lat="37.9037338" lon="12.5311166"><ele>43.0</ele><time>2026-04-25T18:44:33.389Z</time></trkpt><trkpt lat="37.9035406" lon="12.5310453"><ele>44.0</ele><time>2026-04-25T18:44:34.39Z</time></trkpt><trkpt lat="37.9033485" lon="12.530972"><ele>45.0</ele><time>2026-04-25T18:44:35.39Z</time></trkpt><trkpt lat="37.9031457" lon="12.530902"><ele>46.0</ele><time>2026-04-25T18:44:36.39Z</time></trkpt><trkpt lat="37.9029294" lon="12.5308315"><ele>46.0</ele><time>2026-04-25T18:44:37.39Z</time></trkpt><trkpt lat="37.9027071" lon="12.5307531"><ele>46.0</ele><time>2026-04-25T18:44:38.391Z</time></trkpt><trkpt lat="37.9024773" lon="12.5306737"><ele>45.0</ele><time>2026-04-25T18:44:39.39Z</time></trkpt><trkpt lat="37.902245" lon="12.5305834"><ele>44.0</ele><time>2026-04-25T18:44:40.39Z</time></trkpt><trkpt lat="37.902009" lon="12.5304884"><ele>44.0</ele><time>2026-04-25T18:44:41.39Z</time></trkpt><trkpt lat="37.9017723" lon="12.5304028"><ele>44.0</ele><time>2026-04-25T18:44:42.39Z</time></trkpt><trkpt lat="37.9015359" lon="12.5303225"><ele>44.0</ele><time>2026-04-25T18:44:43.391Z</time></trkpt><trkpt lat="37.9013002" lon="12.5302408"><ele>44.0</ele><time>2026-04-25T18:44:44.39Z</time></trkpt><trkpt lat="37.9010645" lon="12.5301623"><ele>43.5</ele><time>2026-04-25T18:44:45.39Z</time></trkpt><trkpt lat="37.9008376" lon="12.530075"><ele>43.0</ele><time>2026-04-25T18:44:46.39Z</time></trkpt><trkpt lat="37.9006134" lon="12.5299892"><ele>43.0</ele><time>2026-04-25T18:44:47.391Z</time></trkpt><trkpt lat="37.9003832" lon="12.5299104"><ele>43.0</ele><time>2026-04-25T18:44:48.39Z</time></trkpt><trkpt lat="37.9001574" lon="12.5298339"><ele>44.0</ele><time>2026-04-25T18:44:49.39Z</time></trkpt><trkpt lat="37.8999318" lon="12.5297562"><ele>45.0</ele><time>2026-04-25T18:44:50.39Z</time></trkpt><trkpt lat="37.8996969" lon="12.5296792"><ele>45.0</ele><time>2026-04-25T18:44:51.39Z</time></trkpt><trkpt lat="37.8994626" lon="12.5296046"><ele>45.0</ele><time>2026-04-25T18:44:52.39Z</time></trkpt><trkpt lat="37.899233" lon="12.5295218"><ele>44.0</ele><time>2026-04-25T18:44:53.39Z</time></trkpt><trkpt lat="37.8989998" lon="12.529438"><ele>43.0</ele><time>2026-04-25T18:44:54.39Z</time></trkpt><trkpt lat="37.8987659" lon="12.5293624"><ele>43.0</ele><time>2026-04-25T18:44:55.39Z</time></trkpt><trkpt lat="37.8985318" lon="12.5292868"><ele>43.0</ele><time>2026-04-25T18:44:56.391Z</time></trkpt><trkpt lat="37.898299" lon="12.5292106"><ele>44.0</ele><time>2026-04-25T18:44:57.39Z</time></trkpt><trkpt lat="37.8980651" lon="12.5291303"><ele>45.0</ele><time>2026-04-25T18:44:58.39Z</time></trkpt><trkpt lat="37.8978381" lon="12.5290547"><ele>45.0</ele><time>2026-04-25T18:44:59.39Z</time></trkpt><trkpt lat="37.8976121" lon="12.5289714"><ele>45.0</ele><time>2026-04-25T18:45:00.39Z</time></trkpt><trkpt lat="37.897383" lon="12.5288998"><ele>44.5</ele><time>2026-04-25T18:45:01.39Z</time></trkpt><trkpt lat="37.8971571" lon="12.528825"><ele>44.0</ele><time>2026-04-25T18:45:02.39Z</time></trkpt><trkpt lat="37.8969419" lon="12.5287518"><ele>44.33333333333333</ele><time>2026-04-25T18:45:03.39Z</time></trkpt><trkpt lat="37.8967317" lon="12.5286799"><ele>44.666666666666664</ele><time>2026-04-25T18:45:04.389Z</time></trkpt><trkpt lat="37.8965237" lon="12.528613"><ele>45.0</ele><time>2026-04-25T18:45:05.389Z</time></trkpt><trkpt lat="37.8963187" lon="12.5285378"><ele>45.0</ele><time>2026-04-25T18:45:06.39Z</time></trkpt><trkpt lat="37.8961101" lon="12.5284684"><ele>45.0</ele><time>2026-04-25T18:45:07.39Z</time></trkpt><trkpt lat="37.8958973" lon="12.528403"><ele>45.0</ele><time>2026-04-25T18:45:08.391Z</time></trkpt><trkpt lat="37.8956836" lon="12.5283373"><ele>45.0</ele><time>2026-04-25T18:45:09.389Z</time></trkpt><trkpt lat="37.8954709" lon="12.5282638"><ele>45.0</ele><time>2026-04-25T18:45:10.391Z</time></trkpt><trkpt lat="37.8952677" lon="12.5281919"><ele>45.0</ele><time>2026-04-25T18:45:11.389Z</time></trkpt><trkpt lat="37.8950664" lon="12.5281212"><ele>45.333333333333336</ele><time>2026-04-25T18:45:12.391Z</time></trkpt><trkpt lat="37.8948672" lon="12.5280555"><ele>45.66666666666667</ele><time>2026-04-25T18:45:13.39Z</time></trkpt><trkpt lat="37.8946684" lon="12.5279928"><ele>46.0</ele><time>2026-04-25T18:45:14.39Z</time></trkpt><trkpt lat="37.8944694" lon="12.527928"><ele>45.0</ele><time>2026-04-25T18:45:15.39Z</time></trkpt><trkpt lat="37.8942688" lon="12.5278614"><ele>44.0</ele><time>2026-04-25T18:45:16.39Z</time></trkpt><trkpt lat="37.894069" lon="12.5277949"><ele>43.0</ele><time>2026-04-25T18:45:17.39Z</time></trkpt><trkpt lat="37.8938601" lon="12.5277227"><ele>43.0</ele><time>2026-04-25T18:45:18.39Z</time></trkpt><trkpt lat="37.893656" lon="12.5276531"><ele>43.0</ele><time>2026-04-25T18:45:19.391Z</time></trkpt><trkpt lat="37.8934505" lon="12.5275867"><ele>43.0</ele><time>2026-04-25T18:45:20.389Z</time></trkpt><trkpt lat="37.8932408" lon="12.5275155"><ele>43.333333333333336</ele><time>2026-04-25T18:45:21.391Z</time></trkpt><trkpt lat="37.8930295" lon="12.5274487"><ele>43.666666666666664</ele><time>2026-04-25T18:45:22.389Z</time></trkpt><trkpt lat="37.8928149" lon="12.5273737"><ele>44.0</ele><time>2026-04-25T18:45:23.39Z</time></trkpt><trkpt lat="37.8926001" lon="12.5273031"><ele>45.0</ele><time>2026-04-25T18:45:24.39Z</time></trkpt><trkpt lat="37.8923799" lon="12.5272305"><ele>46.0</ele><time>2026-04-25T18:45:25.39Z</time></trkpt><trkpt lat="37.8921574" lon="12.5271552"><ele>46.0</ele><time>2026-04-25T18:45:26.39Z</time></trkpt><trkpt lat="37.8919349" lon="12.5270753"><ele>46.0</ele><time>2026-04-25T18:45:27.39Z</time></trkpt><trkpt lat="37.8917103" lon="12.5269974"><ele>45.5</ele><time>2026-04-25T18:45:28.39Z</time></trkpt><trkpt lat="37.8914856" lon="12.5269216"><ele>45.0</ele><time>2026-04-25T18:45:29.389Z</time></trkpt><trkpt lat="37.8912612" lon="12.5268458"><ele>45.0</ele><time>2026-04-25T18:45:30.39Z</time></trkpt><trkpt lat="37.8910371" lon="12.526766"><ele>45.0</ele><time>2026-04-25T18:45:31.39Z</time></trkpt><trkpt lat="37.8908106" lon="12.5266924"><ele>44.5</ele><time>2026-04-25T18:45:32.39Z</time></trkpt><trkpt lat="37.8905872" lon="12.5266257"><ele>44.0</ele><time>2026-04-25T18:45:33.39Z</time></trkpt><trkpt lat="37.8903616" lon="12.5265519"><ele>44.0</ele><time>2026-04-25T18:45:34.392Z</time></trkpt><trkpt lat="37.8901479" lon="12.5264797"><ele>44.0</ele><time>2026-04-25T18:45:35.39Z</time></trkpt><trkpt lat="37.8899312" lon="12.5264088"><ele>44.0</ele><time>2026-04-25T18:45:36.39Z</time></trkpt><trkpt lat="37.8897146" lon="12.5263403"><ele>44.0</ele><time>2026-04-25T18:45:37.39Z</time></trkpt><trkpt lat="37.889498" lon="12.5262766"><ele>44.0</ele><time>2026-04-25T18:45:38.39Z</time></trkpt><trkpt lat="37.889283" lon="12.5262172"><ele>44.0</ele><time>2026-04-25T18:45:39.39Z</time></trkpt><trkpt lat="37.8890564" lon="12.5261672"><ele>44.0</ele><time>2026-04-25T18:45:40.39Z</time></trkpt><trkpt lat="37.8888303" lon="12.5261241"><ele>44.0</ele><time>2026-04-25T18:45:41.39Z</time></trkpt><trkpt lat="37.888598" lon="12.526085"><ele>44.0</ele><time>2026-04-25T18:45:42.389Z</time></trkpt><trkpt lat="37.8883673" lon="12.5260469"><ele>44.0</ele><time>2026-04-25T18:45:43.39Z</time></trkpt><trkpt lat="37.8881335" lon="12.5260161"><ele>44.0</ele><time>2026-04-25T18:45:44.39Z</time></trkpt><trkpt lat="37.887895" lon="12.5259788"><ele>44.0</ele><time>2026-04-25T18:45:45.391Z</time></trkpt><trkpt lat="37.8876541" lon="12.5259507"><ele>44.0</ele><time>2026-04-25T18:45:46.39Z</time></trkpt><trkpt lat="37.8874112" lon="12.5259216"><ele>44.0</ele><time>2026-04-25T18:45:47.39Z</time></trkpt><trkpt lat="37.8871606" lon="12.5258887"><ele>44.0</ele><time>2026-04-25T18:45:48.389Z</time></trkpt><trkpt lat="37.8869016" lon="12.5258578"><ele>44.0</ele><time>2026-04-25T18:45:49.389Z</time></trkpt><trkpt lat="37.8866434" lon="12.5258233"><ele>42.5</ele><time>2026-04-25T18:45:50.391Z</time></trkpt><trkpt lat="37.8863844" lon="12.5257839"><ele>41.0</ele><time>2026-04-25T18:45:51.39Z</time></trkpt><trkpt lat="37.886122" lon="12.5257497"><ele>37.0</ele><time>2026-04-25T18:45:52.39Z</time></trkpt><trkpt lat="37.8858625" lon="12.5257046"><ele>33.0</ele><time>2026-04-25T18:45:53.39Z</time></trkpt><trkpt lat="37.8855991" lon="12.5256719"><ele>33.0</ele><time>2026-04-25T18:45:54.39Z</time></trkpt><trkpt lat="37.8853352" lon="12.5256318"><ele>33.0</ele><time>2026-04-25T18:45:55.39Z</time></trkpt><trkpt lat="37.8850719" lon="12.5255928"><ele>29.0</ele><time>2026-04-25T18:45:56.39Z</time></trkpt><trkpt lat="37.8848051" lon="12.5255531"><ele>25.0</ele><time>2026-04-25T18:45:57.391Z</time></trkpt><trkpt lat="37.8845423" lon="12.5255143"><ele>25.0</ele><time>2026-04-25T18:45:58.391Z</time></trkpt><trkpt lat="37.8842856" lon="12.5254708"><ele>25.0</ele><time>2026-04-25T18:45:59.39Z</time></trkpt><trkpt lat="37.8840348" lon="12.5254367"><ele>22.5</ele><time>2026-04-25T18:46:00.392Z</time></trkpt><trkpt lat="37.8837848" lon="12.5254088"><ele>20.0</ele><time>2026-04-25T18:46:01.39Z</time></trkpt><trkpt lat="37.8835341" lon="12.5253728"><ele>19.5</ele><time>2026-04-25T18:46:02.39Z</time></trkpt><trkpt lat="37.8832832" lon="12.5253333"><ele>19.0</ele><time>2026-04-25T18:46:03.391Z</time></trkpt><trkpt lat="37.8830362" lon="12.5252948"><ele>19.0</ele><time>2026-04-25T18:46:04.39Z</time></trkpt><trkpt lat="37.8827974" lon="12.5252558"><ele>19.0</ele><time>2026-04-25T18:46:05.392Z</time></trkpt><trkpt lat="37.8825706" lon="12.5251893"><ele>19.5</ele><time>2026-04-25T18:46:06.391Z</time></trkpt><trkpt lat="37.882352" lon="12.5250957"><ele>20.0</ele><time>2026-04-25T18:46:07.39Z</time></trkpt><trkpt lat="37.8821417" lon="12.5249766"><ele>20.0</ele><time>2026-04-25T18:46:08.39Z</time></trkpt><trkpt lat="37.8819326" lon="12.5248375"><ele>20.0</ele><time>2026-04-25T18:46:09.39Z</time></trkpt><trkpt lat="37.8817247" lon="12.5246819"><ele>21.0</ele><time>2026-04-25T18:46:10.391Z</time></trkpt><trkpt lat="37.8815214" lon="12.5245153"><ele>22.0</ele><time>2026-04-25T18:46:11.389Z</time></trkpt><trkpt lat="37.8813128" lon="12.5243517"><ele>22.0</ele><time>2026-04-25T18:46:12.39Z</time></trkpt><trkpt lat="37.8811084" lon="12.524179"><ele>22.0</ele><time>2026-04-25T18:46:13.39Z</time></trkpt><trkpt lat="37.8808984" lon="12.5240133"><ele>25.5</ele><time>2026-04-25T18:46:14.389Z</time></trkpt><trkpt lat="37.8806944" lon="12.5238385"><ele>29.0</ele><time>2026-04-25T18:46:15.39Z</time></trkpt><trkpt lat="37.8804889" lon="12.5236617"><ele>29.0</ele><time>2026-04-25T18:46:16.39Z</time></trkpt><trkpt lat="37.8802835" lon="12.5234849"><ele>29.0</ele><time>2026-04-25T18:46:17.39Z</time></trkpt><trkpt lat="37.8800844" lon="12.5233147"><ele>33.5</ele><time>2026-04-25T18:46:18.39Z</time></trkpt><trkpt lat="37.8798923" lon="12.5231421"><ele>38.0</ele><time>2026-04-25T18:46:19.39Z</time></trkpt><trkpt lat="37.8797065" lon="12.5229791"><ele>37.0</ele><time>2026-04-25T18:46:20.39Z</time></trkpt><trkpt lat="37.8795332" lon="12.5228297"><ele>36.0</ele><time>2026-04-25T18:46:21.39Z</time></trkpt><trkpt lat="37.8793567" lon="12.5226914"><ele>35.0</ele><time>2026-04-25T18:46:22.39Z</time></trkpt><trkpt lat="37.8790281" lon="12.5224783"><ele>37.666666666666664</ele><time>2026-04-25T18:46:24.39Z</time></trkpt><trkpt lat="37.878843" lon="12.5224148"><ele>40.333333333333336</ele><time>2026-04-25T18:46:25.39Z</time></trkpt><trkpt lat="37.8786476" lon="12.5223736"><ele>43.0</ele><time>2026-04-25T18:46:26.39Z</time></trkpt><trkpt lat="37.8784382" lon="12.5223429"><ele>44.66666666666667</ele><time>2026-04-25T18:46:27.391Z</time></trkpt><trkpt lat="37.8782241" lon="12.5223206"><ele>46.333333333333336</ele><time>2026-04-25T18:46:28.391Z</time></trkpt><trkpt lat="37.8780075" lon="12.5222999"><ele>48.0</ele><time>2026-04-25T18:46:29.39Z</time></trkpt><trkpt lat="37.8777928" lon="12.5222684"><ele>48.0</ele><time>2026-04-25T18:46:30.389Z</time></trkpt><trkpt lat="37.8775833" lon="12.5222396"><ele>48.0</ele><time>2026-04-25T18:46:31.391Z</time></trkpt><trkpt lat="37.877372" lon="12.5222105"><ele>48.0</ele><time>2026-04-25T18:46:32.39Z</time></trkpt><trkpt lat="37.8771601" lon="12.5221824"><ele>48.0</ele><time>2026-04-25T18:46:33.39Z</time></trkpt><trkpt lat="37.8769506" lon="12.5221583"><ele>48.0</ele><time>2026-04-25T18:46:34.389Z</time></trkpt><trkpt lat="37.8767484" lon="12.5221456"><ele>48.0</ele><time>2026-04-25T18:46:35.39Z</time></trkpt><trkpt lat="37.8765516" lon="12.5221321"><ele>47.0</ele><time>2026-04-25T18:46:36.39Z</time></trkpt><trkpt lat="37.8763616" lon="12.5221123"><ele>46.0</ele><time>2026-04-25T18:46:37.39Z</time></trkpt><trkpt lat="37.87617" lon="12.5220983"><ele>45.0</ele><time>2026-04-25T18:46:38.39Z</time></trkpt><trkpt lat="37.8759803" lon="12.5220678"><ele>42.666666666666664</ele><time>2026-04-25T18:46:39.39Z</time></trkpt><trkpt lat="37.8758012" lon="12.5219981"><ele>40.33333333333333</ele><time>2026-04-25T18:46:40.391Z</time></trkpt><trkpt lat="37.8756203" lon="12.521902"><ele>38.0</ele><time>2026-04-25T18:46:41.39Z</time></trkpt><trkpt lat="37.8754405" lon="12.5217844"><ele>38.0</ele><time>2026-04-25T18:46:42.391Z</time></trkpt><trkpt lat="37.8752713" lon="12.5216253"><ele>38.0</ele><time>2026-04-25T18:46:43.39Z</time></trkpt><trkpt lat="37.8751079" lon="12.5214394"><ele>38.0</ele><time>2026-04-25T18:46:44.391Z</time></trkpt><trkpt lat="37.8749505" lon="12.521244"><ele>38.666666666666664</ele><time>2026-04-25T18:46:45.391Z</time></trkpt><trkpt lat="37.8747897" lon="12.5210554"><ele>39.333333333333336</ele><time>2026-04-25T18:46:46.391Z</time></trkpt><trkpt lat="37.8746318" lon="12.5208797"><ele>40.0</ele><time>2026-04-25T18:46:47.391Z</time></trkpt><trkpt lat="37.8744588" lon="12.5207187"><ele>40.0</ele><time>2026-04-25T18:46:48.391Z</time></trkpt><trkpt lat="37.8742959" lon="12.5205618"><ele>40.0</ele><time>2026-04-25T18:46:49.39Z</time></trkpt><trkpt lat="37.8741266" lon="12.5204236"><ele>40.0</ele><time>2026-04-25T18:46:50.39Z</time></trkpt><trkpt lat="37.8739523" lon="12.5202953"><ele>41.333333333333336</ele><time>2026-04-25T18:46:51.39Z</time></trkpt><trkpt lat="37.8737704" lon="12.5201667"><ele>42.666666666666664</ele><time>2026-04-25T18:46:52.39Z</time></trkpt><trkpt lat="37.8735939" lon="12.5200422"><ele>44.0</ele><time>2026-04-25T18:46:53.391Z</time></trkpt><trkpt lat="37.8734169" lon="12.5199199"><ele>45.33333333333333</ele><time>2026-04-25T18:46:54.39Z</time></trkpt><trkpt lat="37.8732398" lon="12.5198046"><ele>46.666666666666664</ele><time>2026-04-25T18:46:55.391Z</time></trkpt><trkpt lat="37.8730652" lon="12.5196945"><ele>48.0</ele><time>2026-04-25T18:46:56.39Z</time></trkpt><trkpt lat="37.8728907" lon="12.5195843"><ele>47.333333333333336</ele><time>2026-04-25T18:46:57.39Z</time></trkpt><trkpt lat="37.8727136" lon="12.5194777"><ele>46.66666666666667</ele><time>2026-04-25T18:46:58.391Z</time></trkpt><trkpt lat="37.872524" lon="12.5193627"><ele>46.0</ele><time>2026-04-25T18:46:59.391Z</time></trkpt><trkpt lat="37.8723329" lon="12.5192467"><ele>46.0</ele><time>2026-04-25T18:47:00.39Z</time></trkpt><trkpt lat="37.8721329" lon="12.5191403"><ele>46.0</ele><time>2026-04-25T18:47:01.391Z</time></trkpt><trkpt lat="37.8719381" lon="12.5190285"><ele>46.0</ele><time>2026-04-25T18:47:02.391Z</time></trkpt><trkpt lat="37.8717318" lon="12.5189282"><ele>45.66666666666667</ele><time>2026-04-25T18:47:03.391Z</time></trkpt><trkpt lat="37.8715243" lon="12.518837"><ele>45.333333333333336</ele><time>2026-04-25T18:47:04.39Z</time></trkpt><trkpt lat="37.8713089" lon="12.5187479"><ele>45.0</ele><time>2026-04-25T18:47:05.39Z</time></trkpt><trkpt lat="37.87109" lon="12.5186647"><ele>45.0</ele><time>2026-04-25T18:47:06.39Z</time></trkpt><trkpt lat="37.8708734" lon="12.5185891"><ele>45.0</ele><time>2026-04-25T18:47:07.391Z</time></trkpt><trkpt lat="37.8706537" lon="12.5185152"><ele>45.0</ele><time>2026-04-25T18:47:08.391Z</time></trkpt><trkpt lat="37.870437" lon="12.51844"><ele>45.0</ele><time>2026-04-25T18:47:09.391Z</time></trkpt><trkpt lat="37.8702204" lon="12.5183652"><ele>45.0</ele><time>2026-04-25T18:47:10.391Z</time></trkpt><trkpt lat="37.87001" lon="12.5182899"><ele>45.0</ele><time>2026-04-25T18:47:11.391Z</time></trkpt><trkpt lat="37.8698002" lon="12.5182174"><ele>45.0</ele><time>2026-04-25T18:47:12.39Z</time></trkpt><trkpt lat="37.8695858" lon="12.5181555"><ele>45.0</ele><time>2026-04-25T18:47:13.391Z</time></trkpt><trkpt lat="37.8693727" lon="12.5180838"><ele>44.666666666666664</ele><time>2026-04-25T18:47:14.39Z</time></trkpt><trkpt lat="37.8691597" lon="12.5180097"><ele>44.33333333333333</ele><time>2026-04-25T18:47:15.391Z</time></trkpt><trkpt lat="37.8689458" lon="12.5179346"><ele>44.0</ele><time>2026-04-25T18:47:16.39Z</time></trkpt><trkpt lat="37.8687348" lon="12.5178535"><ele>44.0</ele><time>2026-04-25T18:47:17.39Z</time></trkpt><trkpt lat="37.8685324" lon="12.517781"><ele>44.0</ele><time>2026-04-25T18:47:18.39Z</time></trkpt><trkpt lat="37.8683318" lon="12.5177041"><ele>44.0</ele><time>2026-04-25T18:47:19.391Z</time></trkpt><trkpt lat="37.8681339" lon="12.5176344"><ele>44.666666666666664</ele><time>2026-04-25T18:47:20.391Z</time></trkpt><trkpt lat="37.8679386" lon="12.5175714"><ele>45.333333333333336</ele><time>2026-04-25T18:47:21.391Z</time></trkpt><trkpt lat="37.8677424" lon="12.51751"><ele>46.0</ele><time>2026-04-25T18:47:22.39Z</time></trkpt><trkpt lat="37.8675526" lon="12.5174459"><ele>46.0</ele><time>2026-04-25T18:47:23.39Z</time></trkpt><trkpt lat="37.8673579" lon="12.5173893"><ele>46.0</ele><time>2026-04-25T18:47:24.391Z</time></trkpt><trkpt lat="37.8671663" lon="12.5173306"><ele>46.0</ele><time>2026-04-25T18:47:25.391Z</time></trkpt><trkpt lat="37.8669733" lon="12.5172719"><ele>46.333333333333336</ele><time>2026-04-25T18:47:26.391Z</time></trkpt><trkpt lat="37.8667753" lon="12.51722"><ele>46.666666666666664</ele><time>2026-04-25T18:47:27.39Z</time></trkpt><trkpt lat="37.8665774" lon="12.5171663"><ele>47.0</ele><time>2026-04-25T18:47:28.391Z</time></trkpt><trkpt lat="37.8663732" lon="12.5171156"><ele>46.33333333333333</ele><time>2026-04-25T18:47:29.391Z</time></trkpt><trkpt lat="37.8661714" lon="12.5170657"><ele>45.666666666666664</ele><time>2026-04-25T18:47:30.391Z</time></trkpt><trkpt lat="37.8659662" lon="12.5170055"><ele>45.0</ele><time>2026-04-25T18:47:31.391Z</time></trkpt><trkpt lat="37.8657606" lon="12.5169478"><ele>45.0</ele><time>2026-04-25T18:47:32.391Z</time></trkpt><trkpt lat="37.8655518" lon="12.5168965"><ele>45.0</ele><time>2026-04-25T18:47:33.39Z</time></trkpt><trkpt lat="37.8653429" lon="12.5168435"><ele>45.0</ele><time>2026-04-25T18:47:34.39Z</time></trkpt><trkpt lat="37.865131" lon="12.5167885"><ele>45.666666666666664</ele><time>2026-04-25T18:47:35.39Z</time></trkpt><trkpt lat="37.8649196" lon="12.5167305"><ele>46.33333333333333</ele><time>2026-04-25T18:47:36.391Z</time></trkpt><trkpt lat="37.8647083" lon="12.5166768"><ele>47.0</ele><time>2026-04-25T18:47:37.39Z</time></trkpt><trkpt lat="37.8644953" lon="12.5166173"><ele>47.0</ele><time>2026-04-25T18:47:38.389Z</time></trkpt><trkpt lat="37.8642805" lon="12.5165642"><ele>47.0</ele><time>2026-04-25T18:47:39.39Z</time></trkpt><trkpt lat="37.8640666" lon="12.5165056"><ele>47.0</ele><time>2026-04-25T18:47:40.391Z</time></trkpt><trkpt lat="37.8638495" lon="12.5164426"><ele>47.33333333333333</ele><time>2026-04-25T18:47:41.39Z</time></trkpt><trkpt lat="37.8636381" lon="12.5163804"><ele>47.666666666666664</ele><time>2026-04-25T18:47:42.39Z</time></trkpt><trkpt lat="37.8634381" lon="12.5163253"><ele>48.0</ele><time>2026-04-25T18:47:43.391Z</time></trkpt><trkpt lat="37.8632391" lon="12.516271"><ele>46.666666666666664</ele><time>2026-04-25T18:47:44.39Z</time></trkpt><trkpt lat="37.8630394" lon="12.5162244"><ele>45.33333333333333</ele><time>2026-04-25T18:47:45.39Z</time></trkpt><trkpt lat="37.8628411" lon="12.5161795"><ele>44.0</ele><time>2026-04-25T18:47:46.391Z</time></trkpt><trkpt lat="37.8626421" lon="12.516129"><ele>44.33333333333333</ele><time>2026-04-25T18:47:47.39Z</time></trkpt><trkpt lat="37.8624393" lon="12.5160767"><ele>44.666666666666664</ele><time>2026-04-25T18:47:48.391Z</time></trkpt><trkpt lat="37.8622379" lon="12.5160227"><ele>45.0</ele><time>2026-04-25T18:47:49.391Z</time></trkpt><trkpt lat="37.8620357" lon="12.5159664"><ele>45.0</ele><time>2026-04-25T18:47:50.39Z</time></trkpt><trkpt lat="37.8618316" lon="12.5159173"><ele>45.0</ele><time>2026-04-25T18:47:51.391Z</time></trkpt><trkpt lat="37.8616286" lon="12.5158607"><ele>45.0</ele><time>2026-04-25T18:47:52.391Z</time></trkpt><trkpt lat="37.8614229" lon="12.5158043"><ele>45.333333333333336</ele><time>2026-04-25T18:47:53.391Z</time></trkpt><trkpt lat="37.8612136" lon="12.5157483"><ele>45.66666666666667</ele><time>2026-04-25T18:47:54.391Z</time></trkpt><trkpt lat="37.8610024" lon="12.5156871"><ele>46.0</ele><time>2026-04-25T18:47:55.391Z</time></trkpt><trkpt lat="37.860793" lon="12.5156204"><ele>46.66666666666667</ele><time>2026-04-25T18:47:56.391Z</time></trkpt><trkpt lat="37.8605804" lon="12.5155632"><ele>47.333333333333336</ele><time>2026-04-25T18:47:57.391Z</time></trkpt><trkpt lat="37.8603664" lon="12.5154997"><ele>48.0</ele><time>2026-04-25T18:47:58.39Z</time></trkpt><trkpt lat="37.8601502" lon="12.5154413"><ele>47.333333333333336</ele><time>2026-04-25T18:47:59.391Z</time></trkpt><trkpt lat="37.8599337" lon="12.5153843"><ele>46.66666666666667</ele><time>2026-04-25T18:48:00.391Z</time></trkpt><trkpt lat="37.8597218" lon="12.5153278"><ele>46.0</ele><time>2026-04-25T18:48:01.39Z</time></trkpt><trkpt lat="37.8595091" lon="12.5152664"><ele>46.0</ele><time>2026-04-25T18:48:02.391Z</time></trkpt><trkpt lat="37.8592925" lon="12.515199"><ele>46.0</ele><time>2026-04-25T18:48:03.391Z</time></trkpt><trkpt lat="37.8590774" lon="12.5151298"><ele>46.0</ele><time>2026-04-25T18:48:04.39Z</time></trkpt><trkpt lat="37.8588631" lon="12.5150734"><ele>46.333333333333336</ele><time>2026-04-25T18:48:05.391Z</time></trkpt><trkpt lat="37.858643" lon="12.5150125"><ele>46.666666666666664</ele><time>2026-04-25T18:48:06.39Z</time></trkpt><trkpt lat="37.8584286" lon="12.514954"><ele>47.0</ele><time>2026-04-25T18:48:07.39Z</time></trkpt><trkpt lat="37.858212" lon="12.5148949"><ele>48.5</ele><time>2026-04-25T18:48:08.391Z</time></trkpt><trkpt lat="37.8579887" lon="12.514837"><ele>50.0</ele><time>2026-04-25T18:48:09.391Z</time></trkpt><trkpt lat="37.8577665" lon="12.5147751"><ele>49.0</ele><time>2026-04-25T18:48:10.39Z</time></trkpt><trkpt lat="37.8575457" lon="12.5147102"><ele>48.0</ele><time>2026-04-25T18:48:11.391Z</time></trkpt><trkpt lat="37.8573253" lon="12.5146414"><ele>48.0</ele><time>2026-04-25T18:48:12.391Z</time></trkpt><trkpt lat="37.8571016" lon="12.5145825"><ele>48.0</ele><time>2026-04-25T18:48:13.39Z</time></trkpt><trkpt lat="37.8568775" lon="12.5145229"><ele>47.5</ele><time>2026-04-25T18:48:14.39Z</time></trkpt><trkpt lat="37.8566528" lon="12.5144632"><ele>47.0</ele><time>2026-04-25T18:48:15.39Z</time></trkpt><trkpt lat="37.8564285" lon="12.5144026"><ele>47.0</ele><time>2026-04-25T18:48:16.39Z</time></trkpt><trkpt lat="37.8562046" lon="12.5143426"><ele>47.0</ele><time>2026-04-25T18:48:17.391Z</time></trkpt><trkpt lat="37.855981" lon="12.5142847"><ele>46.5</ele><time>2026-04-25T18:48:18.391Z</time></trkpt><trkpt lat="37.8557554" lon="12.5142194"><ele>46.0</ele><time>2026-04-25T18:48:19.39Z</time></trkpt><trkpt lat="37.8555283" lon="12.5141571"><ele>46.0</ele><time>2026-04-25T18:48:20.39Z</time></trkpt><trkpt lat="37.8553057" lon="12.5140942"><ele>46.0</ele><time>2026-04-25T18:48:21.39Z</time></trkpt><trkpt lat="37.8550837" lon="12.5140339"><ele>46.0</ele><time>2026-04-25T18:48:22.391Z</time></trkpt><trkpt lat="37.8548629" lon="12.5139703"><ele>46.0</ele><time>2026-04-25T18:48:23.391Z</time></trkpt><trkpt lat="37.8546443" lon="12.5139127"><ele>46.0</ele><time>2026-04-25T18:48:24.391Z</time></trkpt><trkpt lat="37.8544279" lon="12.5138526"><ele>46.0</ele><time>2026-04-25T18:48:25.39Z</time></trkpt><trkpt lat="37.8542188" lon="12.513797"><ele>46.0</ele><time>2026-04-25T18:48:26.391Z</time></trkpt><trkpt lat="37.8540198" lon="12.513738"><ele>45.0</ele><time>2026-04-25T18:48:27.391Z</time></trkpt><trkpt lat="37.8538333" lon="12.5136838"><ele>44.0</ele><time>2026-04-25T18:48:28.391Z</time></trkpt><trkpt lat="37.8534879" lon="12.5135715"><ele>44.33333333333333</ele><time>2026-04-25T18:48:30.391Z</time></trkpt><trkpt lat="37.8533196" lon="12.5135179"><ele>44.666666666666664</ele><time>2026-04-25T18:48:31.392Z</time></trkpt><trkpt lat="37.8531508" lon="12.5134461"><ele>45.0</ele><time>2026-04-25T18:48:32.39Z</time></trkpt><trkpt lat="37.8529835" lon="12.5133692"><ele>45.0</ele><time>2026-04-25T18:48:33.391Z</time></trkpt><trkpt lat="37.8528311" lon="12.5132863"><ele>45.0</ele><time>2026-04-25T18:48:34.391Z</time></trkpt><trkpt lat="37.8526923" lon="12.5132127"><ele>45.0</ele><time>2026-04-25T18:48:35.39Z</time></trkpt><trkpt lat="37.8525785" lon="12.51314"><ele>45.0</ele><time>2026-04-25T18:48:36.392Z</time></trkpt><trkpt lat="37.8524794" lon="12.5130774"><ele>45.0</ele><time>2026-04-25T18:48:37.391Z</time></trkpt><trkpt lat="37.8523846" lon="12.5130043"><ele>45.0</ele><time>2026-04-25T18:48:38.391Z</time></trkpt><trkpt lat="37.8522942" lon="12.5129242"><ele>45.0</ele><time>2026-04-25T18:48:39.391Z</time></trkpt><trkpt lat="37.8521993" lon="12.5128324"><ele>45.0</ele><time>2026-04-25T18:48:40.39Z</time></trkpt><trkpt lat="37.8520989" lon="12.5127261"><ele>44.75</ele><time>2026-04-25T18:48:41.391Z</time></trkpt><trkpt lat="37.8519944" lon="12.5126214"><ele>44.5</ele><time>2026-04-25T18:48:42.391Z</time></trkpt><trkpt lat="37.8518903" lon="12.5125133"><ele>44.25</ele><time>2026-04-25T18:48:43.391Z</time></trkpt><trkpt lat="37.8517786" lon="12.5124117"><ele>44.0</ele><time>2026-04-25T18:48:44.39Z</time></trkpt><trkpt lat="37.8516676" lon="12.5123118"><ele>44.0</ele><time>2026-04-25T18:48:45.39Z</time></trkpt><trkpt lat="37.8515558" lon="12.5122096"><ele>44.0</ele><time>2026-04-25T18:48:46.391Z</time></trkpt><trkpt lat="37.8514476" lon="12.5121011"><ele>44.0</ele><time>2026-04-25T18:48:47.391Z</time></trkpt><trkpt lat="37.851339" lon="12.5119906"><ele>44.0</ele><time>2026-04-25T18:48:48.39Z</time></trkpt><trkpt lat="37.851223" lon="12.5118726"><ele>44.25</ele><time>2026-04-25T18:48:49.391Z</time></trkpt><trkpt lat="37.8511111" lon="12.5117595"><ele>44.5</ele><time>2026-04-25T18:48:50.391Z</time></trkpt><trkpt lat="37.8509931" lon="12.5116446"><ele>44.75</ele><time>2026-04-25T18:48:51.391Z</time></trkpt><trkpt lat="37.8508746" lon="12.5115303"><ele>45.0</ele><time>2026-04-25T18:48:52.391Z</time></trkpt><trkpt lat="37.850751" lon="12.5114085"><ele>45.0</ele><time>2026-04-25T18:48:53.391Z</time></trkpt><trkpt lat="37.8506242" lon="12.5112908"><ele>45.0</ele><time>2026-04-25T18:48:54.391Z</time></trkpt><trkpt lat="37.8505002" lon="12.5111747"><ele>45.0</ele><time>2026-04-25T18:48:55.391Z</time></trkpt><trkpt lat="37.850384" lon="12.5110595"><ele>44.5</ele><time>2026-04-25T18:48:56.391Z</time></trkpt><trkpt lat="37.8502735" lon="12.5109455"><ele>44.0</ele><time>2026-04-25T18:48:57.391Z</time></trkpt><trkpt lat="37.8501543" lon="12.5108404"><ele>43.5</ele><time>2026-04-25T18:48:58.391Z</time></trkpt><trkpt lat="37.8500408" lon="12.5107309"><ele>43.0</ele><time>2026-04-25T18:48:59.391Z</time></trkpt><trkpt lat="37.8499287" lon="12.5106254"><ele>43.0</ele><time>2026-04-25T18:49:00.39Z</time></trkpt><trkpt lat="37.8498155" lon="12.5105213"><ele>43.0</ele><time>2026-04-25T18:49:01.391Z</time></trkpt><trkpt lat="37.8497039" lon="12.5104152"><ele>43.0</ele><time>2026-04-25T18:49:02.39Z</time></trkpt><trkpt lat="37.849596" lon="12.5103114"><ele>43.0</ele><time>2026-04-25T18:49:03.392Z</time></trkpt><trkpt lat="37.8494935" lon="12.510213"><ele>42.833333333333336</ele><time>2026-04-25T18:49:04.391Z</time></trkpt><trkpt lat="37.8494043" lon="12.5101293"><ele>42.66666666666667</ele><time>2026-04-25T18:49:05.39Z</time></trkpt><trkpt lat="37.8493311" lon="12.5100528"><ele>42.5</ele><time>2026-04-25T18:49:06.39Z</time></trkpt><trkpt lat="37.8492703" lon="12.5099926"><ele>42.333333333333336</ele><time>2026-04-25T18:49:07.391Z</time></trkpt><trkpt lat="37.8492271" lon="12.5099286"><ele>42.166666666666664</ele><time>2026-04-25T18:49:08.392Z</time></trkpt><trkpt lat="37.8492123" lon="12.5098503"><ele>42.0</ele><time>2026-04-25T18:49:09.391Z</time></trkpt><trkpt lat="37.8492281" lon="12.5097563"><ele>41.75</ele><time>2026-04-25T18:49:10.391Z</time></trkpt><trkpt lat="37.8492694" lon="12.5096515"><ele>41.5</ele><time>2026-04-25T18:49:11.39Z</time></trkpt><trkpt lat="37.8493394" lon="12.5095358"><ele>41.25</ele><time>2026-04-25T18:49:12.391Z</time></trkpt><trkpt lat="37.8494192" lon="12.5093954"><ele>41.0</ele><time>2026-04-25T18:49:13.391Z</time></trkpt><trkpt lat="37.8495022" lon="12.5092586"><ele>40.599999999999994</ele><time>2026-04-25T18:49:14.391Z</time></trkpt><trkpt lat="37.8495757" lon="12.509129"><ele>40.199999999999996</ele><time>2026-04-25T18:49:15.391Z</time></trkpt><trkpt lat="37.8496318" lon="12.5090094"><ele>39.8</ele><time>2026-04-25T18:49:16.391Z</time></trkpt><trkpt lat="37.8496793" lon="12.50889"><ele>39.4</ele><time>2026-04-25T18:49:17.391Z</time></trkpt><trkpt lat="37.849685" lon="12.5087706"><ele>39.0</ele><time>2026-04-25T18:49:18.391Z</time></trkpt><trkpt lat="37.8496638" lon="12.5086461"><ele>39.0</ele><time>2026-04-25T18:49:19.392Z</time></trkpt><trkpt lat="37.8496079" lon="12.508519"><ele>39.0</ele><time>2026-04-25T18:49:20.391Z</time></trkpt><trkpt lat="37.8495327" lon="12.5083881"><ele>39.0</ele><time>2026-04-25T18:49:21.39Z</time></trkpt><trkpt lat="37.8494462" lon="12.5082583"><ele>39.0</ele><time>2026-04-25T18:49:22.391Z</time></trkpt><trkpt lat="37.8493585" lon="12.5081134"><ele>38.666666666666664</ele><time>2026-04-25T18:49:23.391Z</time></trkpt><trkpt lat="37.849269" lon="12.5079583"><ele>38.33333333333333</ele><time>2026-04-25T18:49:24.391Z</time></trkpt><trkpt lat="37.8491855" lon="12.5077917"><ele>38.0</ele><time>2026-04-25T18:49:25.392Z</time></trkpt><trkpt lat="37.8491029" lon="12.507619"><ele>37.75</ele><time>2026-04-25T18:49:26.391Z</time></trkpt><trkpt lat="37.8490301" lon="12.5074481"><ele>37.5</ele><time>2026-04-25T18:49:27.392Z</time></trkpt><trkpt lat="37.8489672" lon="12.5072824"><ele>37.25</ele><time>2026-04-25T18:49:28.391Z</time></trkpt><trkpt lat="37.8489165" lon="12.5071511"><ele>37.0</ele><time>2026-04-25T18:49:29.392Z</time></trkpt><trkpt lat="37.8488816" lon="12.50705"><ele>36.800000000000004</ele><time>2026-04-25T18:49:30.391Z</time></trkpt><trkpt lat="37.8488636" lon="12.506958"><ele>36.6</ele><time>2026-04-25T18:49:31.391Z</time></trkpt><trkpt lat="37.8488765" lon="12.5068783"><ele>36.400000000000006</ele><time>2026-04-25T18:49:32.391Z</time></trkpt><trkpt lat="37.8489255" lon="12.5067963"><ele>36.2</ele><time>2026-04-25T18:49:33.392Z</time></trkpt><trkpt lat="37.8490074" lon="12.5067072"><ele>36.0</ele><time>2026-04-25T18:49:34.391Z</time></trkpt><trkpt lat="37.8491101" lon="12.5065941"><ele>36.0</ele><time>2026-04-25T18:49:35.39Z</time></trkpt><trkpt lat="37.8492291" lon="12.5064782"><ele>36.0</ele><time>2026-04-25T18:49:36.391Z</time></trkpt><trkpt lat="37.8493574" lon="12.5063561"><ele>36.0</ele><time>2026-04-25T18:49:37.392Z</time></trkpt><trkpt lat="37.8494979" lon="12.5062256"><ele>36.0</ele><time>2026-04-25T18:49:38.391Z</time></trkpt><trkpt lat="37.8496354" lon="12.5060847"><ele>36.0</ele><time>2026-04-25T18:49:39.391Z</time></trkpt><trkpt lat="37.8497798" lon="12.5059382"><ele>36.0</ele><time>2026-04-25T18:49:40.392Z</time></trkpt><trkpt lat="37.8499297" lon="12.5057933"><ele>36.0</ele><time>2026-04-25T18:49:41.391Z</time></trkpt><trkpt lat="37.8500856" lon="12.5056404"><ele>36.0</ele><time>2026-04-25T18:49:42.391Z</time></trkpt><trkpt lat="37.8502418" lon="12.5054802"><ele>36.0</ele><time>2026-04-25T18:49:43.391Z</time></trkpt><trkpt lat="37.8504069" lon="12.5053116"><ele>35.666666666666664</ele><time>2026-04-25T18:49:44.392Z</time></trkpt><trkpt lat="37.8505756" lon="12.5051347"><ele>35.33333333333333</ele><time>2026-04-25T18:49:45.391Z</time></trkpt><trkpt lat="37.8507575" lon="12.5049555"><ele>35.0</ele><time>2026-04-25T18:49:46.391Z</time></trkpt><trkpt lat="37.8509352" lon="12.5047754"><ele>35.0</ele><time>2026-04-25T18:49:47.392Z</time></trkpt><trkpt lat="37.8510996" lon="12.5046125"><ele>35.0</ele><time>2026-04-25T18:49:48.391Z</time></trkpt><trkpt lat="37.8512611" lon="12.5044618"><ele>35.0</ele><time>2026-04-25T18:49:49.391Z</time></trkpt><trkpt lat="37.8514086" lon="12.5043155"><ele>35.0</ele><time>2026-04-25T18:49:50.392Z</time></trkpt><trkpt lat="37.8515435" lon="12.5041744"><ele>35.0</ele><time>2026-04-25T18:49:51.391Z</time></trkpt><trkpt lat="37.8516666" lon="12.5040451"><ele>35.0</ele><time>2026-04-25T18:49:52.391Z</time></trkpt><trkpt lat="37.8517869" lon="12.5039292"><ele>35.0</ele><time>2026-04-25T18:49:53.391Z</time></trkpt><trkpt lat="37.8519255" lon="12.5038355"><ele>35.0</ele><time>2026-04-25T18:49:54.391Z</time></trkpt><trkpt lat="37.8520791" lon="12.5037574"><ele>35.0</ele><time>2026-04-25T18:49:55.391Z</time></trkpt><trkpt lat="37.8522589" lon="12.5036559"><ele>35.0</ele><time>2026-04-25T18:49:56.391Z</time></trkpt><trkpt lat="37.8524474" lon="12.5035346"><ele>35.0</ele><time>2026-04-25T18:49:57.391Z</time></trkpt><trkpt lat="37.8526512" lon="12.5034069"><ele>35.0</ele><time>2026-04-25T18:49:58.391Z</time></trkpt><trkpt lat="37.8528258" lon="12.5032788"><ele>34.666666666666664</ele><time>2026-04-25T18:49:59.391Z</time></trkpt><trkpt lat="37.8529806" lon="12.5031679"><ele>34.333333333333336</ele><time>2026-04-25T18:50:00.391Z</time></trkpt><trkpt lat="37.8531113" lon="12.5030787"><ele>34.0</ele><time>2026-04-25T18:50:01.391Z</time></trkpt><trkpt lat="37.8532213" lon="12.5029931"><ele>34.0</ele><time>2026-04-25T18:50:02.392Z</time></trkpt><trkpt lat="37.853321" lon="12.5029289"><ele>34.0</ele><time>2026-04-25T18:50:03.391Z</time></trkpt><trkpt lat="37.853421" lon="12.5028922"><ele>34.0</ele><time>2026-04-25T18:50:04.392Z</time></trkpt><trkpt lat="37.8535303" lon="12.5028912"><ele>34.0</ele><time>2026-04-25T18:50:05.39Z</time></trkpt><trkpt lat="37.8536399" lon="12.5029164"><ele>34.0</ele><time>2026-04-25T18:50:06.391Z</time></trkpt><trkpt lat="37.8537465" lon="12.502921"><ele>33.25</ele><time>2026-04-25T18:50:07.391Z</time></trkpt><trkpt lat="37.8538533" lon="12.5028828"><ele>32.5</ele><time>2026-04-25T18:50:08.392Z</time></trkpt><trkpt lat="37.8539653" lon="12.5027901"><ele>31.75</ele><time>2026-04-25T18:50:09.391Z</time></trkpt><trkpt lat="37.8540878" lon="12.5026681"><ele>31.0</ele><time>2026-04-25T18:50:10.391Z</time></trkpt><trkpt lat="37.8542318" lon="12.5025018"><ele>31.333333333333336</ele><time>2026-04-25T18:50:11.391Z</time></trkpt><trkpt lat="37.8543883" lon="12.502315"><ele>31.666666666666664</ele><time>2026-04-25T18:50:12.391Z</time></trkpt><trkpt lat="37.8545533" lon="12.5021269"><ele>32.0</ele><time>2026-04-25T18:50:13.391Z</time></trkpt><trkpt lat="37.8547033" lon="12.5019518"><ele>32.0</ele><time>2026-04-25T18:50:14.392Z</time></trkpt><trkpt lat="37.8548406" lon="12.5017756"><ele>32.0</ele><time>2026-04-25T18:50:15.391Z</time></trkpt><trkpt lat="37.8549843" lon="12.5016104"><ele>32.0</ele><time>2026-04-25T18:50:16.392Z</time></trkpt><trkpt lat="37.8551247" lon="12.5014389"><ele>32.0</ele><time>2026-04-25T18:50:17.391Z</time></trkpt><trkpt lat="37.8552661" lon="12.5012713"><ele>32.0</ele><time>2026-04-25T18:50:18.391Z</time></trkpt><trkpt lat="37.8554072" lon="12.501098"><ele>32.0</ele><time>2026-04-25T18:50:19.391Z</time></trkpt><trkpt lat="37.8555518" lon="12.5009266"><ele>32.0</ele><time>2026-04-25T18:50:20.392Z</time></trkpt><trkpt lat="37.855687" lon="12.5007525"><ele>32.0</ele><time>2026-04-25T18:50:21.391Z</time></trkpt><trkpt lat="37.8558305" lon="12.5005768"><ele>32.0</ele><time>2026-04-25T18:50:22.391Z</time></trkpt><trkpt lat="37.8559694" lon="12.5004077"><ele>32.0</ele><time>2026-04-25T18:50:23.391Z</time></trkpt><trkpt lat="37.8560939" lon="12.5002524"><ele>32.0</ele><time>2026-04-25T18:50:24.391Z</time></trkpt><trkpt lat="37.8562028" lon="12.5001119"><ele>32.0</ele><time>2026-04-25T18:50:25.391Z</time></trkpt><trkpt lat="37.8562943" lon="12.4999908"><ele>32.0</ele><time>2026-04-25T18:50:26.391Z</time></trkpt><trkpt lat="37.8563709" lon="12.4998784"><ele>32.0</ele><time>2026-04-25T18:50:27.391Z</time></trkpt><trkpt lat="37.856412" lon="12.4997556"><ele>32.0</ele><time>2026-04-25T18:50:28.392Z</time></trkpt><trkpt lat="37.8564323" lon="12.4996232"><ele>32.0</ele><time>2026-04-25T18:50:29.392Z</time></trkpt><trkpt lat="37.8564301" lon="12.4994709"><ele>32.0</ele><time>2026-04-25T18:50:30.392Z</time></trkpt><trkpt lat="37.8564275" lon="12.499332"><ele>31.5</ele><time>2026-04-25T18:50:31.39Z</time></trkpt><trkpt lat="37.856434" lon="12.4991988"><ele>31.0</ele><time>2026-04-25T18:50:32.39Z</time></trkpt><trkpt lat="37.8564764" lon="12.4990727"><ele>30.5</ele><time>2026-04-25T18:50:33.392Z</time></trkpt><trkpt lat="37.8565434" lon="12.4989261"><ele>30.0</ele><time>2026-04-25T18:50:34.391Z</time></trkpt><trkpt lat="37.8566381" lon="12.4987787"><ele>29.333333333333336</ele><time>2026-04-25T18:50:35.39Z</time></trkpt><trkpt lat="37.8567392" lon="12.498613"><ele>28.666666666666668</ele><time>2026-04-25T18:50:36.392Z</time></trkpt><trkpt lat="37.8568562" lon="12.4984395"><ele>28.0</ele><time>2026-04-25T18:50:37.391Z</time></trkpt><trkpt lat="37.8569748" lon="12.4982467"><ele>27.666666666666668</ele><time>2026-04-25T18:50:38.392Z</time></trkpt><trkpt lat="37.8571023" lon="12.498044"><ele>27.333333333333336</ele><time>2026-04-25T18:50:39.393Z</time></trkpt><trkpt lat="37.8572418" lon="12.4978351"><ele>27.0</ele><time>2026-04-25T18:50:40.392Z</time></trkpt><trkpt lat="37.857389" lon="12.4976177"><ele>25.0</ele><time>2026-04-25T18:50:41.391Z</time></trkpt><trkpt lat="37.8575422" lon="12.4974006"><ele>23.0</ele><time>2026-04-25T18:50:42.39Z</time></trkpt><trkpt lat="37.857696" lon="12.49718"><ele>22.0</ele><time>2026-04-25T18:50:43.391Z</time></trkpt><trkpt lat="37.8578572" lon="12.4969629"><ele>21.0</ele><time>2026-04-25T18:50:44.392Z</time></trkpt><trkpt lat="37.8580118" lon="12.4967548"><ele>21.0</ele><time>2026-04-25T18:50:45.392Z</time></trkpt><trkpt lat="37.8581585" lon="12.4965458"><ele>21.0</ele><time>2026-04-25T18:50:46.391Z</time></trkpt><trkpt lat="37.8582974" lon="12.4963587"><ele>21.0</ele><time>2026-04-25T18:50:47.39Z</time></trkpt><trkpt lat="37.85843" lon="12.4961779"><ele>21.0</ele><time>2026-04-25T18:50:48.391Z</time></trkpt><trkpt lat="37.8585504" lon="12.4960076"><ele>21.0</ele><time>2026-04-25T18:50:49.391Z</time></trkpt><trkpt lat="37.8586703" lon="12.4958546"><ele>21.0</ele><time>2026-04-25T18:50:50.392Z</time></trkpt><trkpt lat="37.8587753" lon="12.4957054"><ele>21.0</ele><time>2026-04-25T18:50:51.391Z</time></trkpt><trkpt lat="37.8588712" lon="12.4955835"><ele>21.0</ele><time>2026-04-25T18:50:52.392Z</time></trkpt><trkpt lat="37.8589458" lon="12.495471"><ele>21.0</ele><time>2026-04-25T18:50:53.392Z</time></trkpt><trkpt lat="37.8590132" lon="12.4953797"><ele>21.0</ele><time>2026-04-25T18:50:54.391Z</time></trkpt><trkpt lat="37.8590645" lon="12.4953019"><ele>21.0</ele><time>2026-04-25T18:50:55.392Z</time></trkpt><trkpt lat="37.8591109" lon="12.4951886"><ele>20.6</ele><time>2026-04-25T18:50:57.391Z</time></trkpt><trkpt lat="37.8590502" lon="12.495106"><ele>20.200000000000003</ele><time>2026-04-25T18:50:59.392Z</time></trkpt><trkpt lat="37.8589863" lon="12.4950621"><ele>19.799999999999997</ele><time>2026-04-25T18:51:00.391Z</time></trkpt><trkpt lat="37.8589041" lon="12.4950101"><ele>19.4</ele><time>2026-04-25T18:51:01.392Z</time></trkpt><trkpt lat="37.8588122" lon="12.4949561"><ele>19.0</ele><time>2026-04-25T18:51:02.391Z</time></trkpt><trkpt lat="37.8587022" lon="12.4949008"><ele>19.0</ele><time>2026-04-25T18:51:03.391Z</time></trkpt><trkpt lat="37.8585704" lon="12.4948413"><ele>19.0</ele><time>2026-04-25T18:51:04.391Z</time></trkpt><trkpt lat="37.8584363" lon="12.4947825"><ele>19.0</ele><time>2026-04-25T18:51:05.393Z</time></trkpt><trkpt lat="37.858286" lon="12.4947224"><ele>19.0</ele><time>2026-04-25T18:51:06.391Z</time></trkpt><trkpt lat="37.8581256" lon="12.4946445"><ele>18.333333333333332</ele><time>2026-04-25T18:51:07.392Z</time></trkpt><trkpt lat="37.8579686" lon="12.4945611"><ele>17.666666666666668</ele><time>2026-04-25T18:51:08.392Z</time></trkpt><trkpt lat="37.8578029" lon="12.4944694"><ele>17.0</ele><time>2026-04-25T18:51:09.391Z</time></trkpt><trkpt lat="37.8576512" lon="12.4943863"><ele>17.0</ele><time>2026-04-25T18:51:10.391Z</time></trkpt><trkpt lat="37.8574891" lon="12.4942977"><ele>17.0</ele><time>2026-04-25T18:51:11.391Z</time></trkpt><trkpt lat="37.8573185" lon="12.4941983"><ele>17.0</ele><time>2026-04-25T18:51:12.391Z</time></trkpt><trkpt lat="37.8571471" lon="12.4940781"><ele>17.0</ele><time>2026-04-25T18:51:13.391Z</time></trkpt><trkpt lat="37.8569835" lon="12.4939568"><ele>17.0</ele><time>2026-04-25T18:51:14.392Z</time></trkpt><trkpt lat="37.8568198" lon="12.4938397"><ele>17.0</ele><time>2026-04-25T18:51:15.391Z</time></trkpt><trkpt lat="37.856662" lon="12.4937315"><ele>16.333333333333336</ele><time>2026-04-25T18:51:16.391Z</time></trkpt><trkpt lat="37.8565095" lon="12.4936245"><ele>15.666666666666668</ele><time>2026-04-25T18:51:17.392Z</time></trkpt><trkpt lat="37.8563571" lon="12.4935261"><ele>15.0</ele><time>2026-04-25T18:51:18.392Z</time></trkpt><trkpt lat="37.8562058" lon="12.4934336"><ele>15.0</ele><time>2026-04-25T18:51:19.391Z</time></trkpt><trkpt lat="37.8560603" lon="12.4933558"><ele>15.0</ele><time>2026-04-25T18:51:20.392Z</time></trkpt><trkpt lat="37.8559132" lon="12.4932902"><ele>15.0</ele><time>2026-04-25T18:51:21.392Z</time></trkpt><trkpt lat="37.8557522" lon="12.4932476"><ele>15.0</ele><time>2026-04-25T18:51:22.391Z</time></trkpt><trkpt lat="37.8555808" lon="12.493226"><ele>15.0</ele><time>2026-04-25T18:51:23.391Z</time></trkpt><trkpt lat="37.8554015" lon="12.4932163"><ele>15.0</ele><time>2026-04-25T18:51:24.392Z</time></trkpt><trkpt lat="37.855215" lon="12.4931957"><ele>15.333333333333332</ele><time>2026-04-25T18:51:25.391Z</time></trkpt><trkpt lat="37.8550187" lon="12.493177"><ele>15.666666666666666</ele><time>2026-04-25T18:51:26.392Z</time></trkpt><trkpt lat="37.8548165" lon="12.4931508"><ele>16.0</ele><time>2026-04-25T18:51:27.391Z</time></trkpt><trkpt lat="37.8546177" lon="12.4931254"><ele>16.0</ele><time>2026-04-25T18:51:28.392Z</time></trkpt><trkpt lat="37.8544254" lon="12.4931031"><ele>16.0</ele><time>2026-04-25T18:51:29.392Z</time></trkpt><trkpt lat="37.8542408" lon="12.49308"><ele>16.0</ele><time>2026-04-25T18:51:30.391Z</time></trkpt><trkpt lat="37.8540638" lon="12.4930539"><ele>16.333333333333332</ele><time>2026-04-25T18:51:31.392Z</time></trkpt><trkpt lat="37.8538859" lon="12.4930318"><ele>16.666666666666668</ele><time>2026-04-25T18:51:32.391Z</time></trkpt><trkpt lat="37.8537101" lon="12.4930111"><ele>17.0</ele><time>2026-04-25T18:51:33.392Z</time></trkpt><trkpt lat="37.8535358" lon="12.4929801"><ele>16.666666666666668</ele><time>2026-04-25T18:51:34.392Z</time></trkpt><trkpt lat="37.853358" lon="12.4929516"><ele>16.333333333333332</ele><time>2026-04-25T18:51:35.392Z</time></trkpt><trkpt lat="37.8531926" lon="12.4929205"><ele>16.0</ele><time>2026-04-25T18:51:36.393Z</time></trkpt><trkpt lat="37.8530385" lon="12.4928973"><ele>16.0</ele><time>2026-04-25T18:51:37.391Z</time></trkpt><trkpt lat="37.8528992" lon="12.4928828"><ele>16.0</ele><time>2026-04-25T18:51:38.39Z</time></trkpt><trkpt lat="37.8527759" lon="12.492876"><ele>16.0</ele><time>2026-04-25T18:51:39.391Z</time></trkpt><trkpt lat="37.852671" lon="12.4928808"><ele>16.0</ele><time>2026-04-25T18:51:40.391Z</time></trkpt><trkpt lat="37.852579" lon="12.4928822"><ele>16.5</ele><time>2026-04-25T18:51:41.392Z</time></trkpt><trkpt lat="37.8525018" lon="12.4928852"><ele>17.0</ele><time>2026-04-25T18:51:42.391Z</time></trkpt><trkpt lat="37.8524206" lon="12.4929002"><ele>17.5</ele><time>2026-04-25T18:51:43.391Z</time></trkpt><trkpt lat="37.8523359" lon="12.4929148"><ele>18.0</ele><time>2026-04-25T18:51:44.391Z</time></trkpt><trkpt lat="37.8522494" lon="12.4929206"><ele>18.5</ele><time>2026-04-25T18:51:45.391Z</time></trkpt><trkpt lat="37.8521696" lon="12.4929215"><ele>19.0</ele><time>2026-04-25T18:51:46.392Z</time></trkpt><trkpt lat="37.8521052" lon="12.4929206"><ele>19.0</ele><time>2026-04-25T18:51:47.392Z</time></trkpt><trkpt lat="37.852028" lon="12.4929011"><ele>19.0</ele><time>2026-04-25T18:51:49.391Z</time></trkpt><trkpt lat="37.8520213" lon="12.4928127"><ele>19.0</ele><time>2026-04-25T18:51:52.392Z</time></trkpt><trkpt lat="37.8520665" lon="12.4926864"><ele>19.0</ele><time>2026-04-25T18:51:54.391Z</time></trkpt><trkpt lat="37.8521029" lon="12.4926113"><ele>19.0</ele><time>2026-04-25T18:51:55.392Z</time></trkpt><trkpt lat="37.852146" lon="12.4925368"><ele>19.0</ele><time>2026-04-25T18:51:56.392Z</time></trkpt><trkpt lat="37.8522319" lon="12.4924332"><ele>19.0</ele><time>2026-04-25T18:51:58.392Z</time></trkpt><trkpt lat="37.8522938" lon="12.4923948"><ele>19.0</ele><time>2026-04-25T18:52:00.391Z</time></trkpt><trkpt lat="37.852365" lon="12.4924115"><ele>19.0</ele><time>2026-04-25T18:52:02.392Z</time></trkpt><trkpt lat="37.8524116" lon="12.4924661"><ele>19.0</ele><time>2026-04-25T18:52:05.685Z</time></trkpt><trkpt lat="37.8523876" lon="12.4925854"><ele>19.0</ele><time>2026-04-25T18:59:35.388Z</time></trkpt><trkpt lat="37.8524008" lon="12.4926646"><ele>19.0</ele><time>2026-04-25T19:00:24.281Z</time></trkpt><trkpt lat="37.8523849" lon="12.4925778"><ele>19.0</ele><time>2026-04-25T19:01:15.299Z</time></trkpt><trkpt lat="37.8522497" lon="12.4925742"><ele>19.0</ele><time>2026-04-25T19:17:47.395Z</time></trkpt><trkpt lat="37.8524131" lon="12.4925773"><ele>19.0</ele><time>2026-04-25T19:17:53.396Z</time></trkpt><trkpt lat="37.8523385" lon="12.4925561"><ele>19.0</ele><time>2026-04-25T19:18:25.789Z</time></trkpt><trkpt lat="37.8523228" lon="12.4924494"><ele>19.0</ele><time>2026-04-25T19:18:57.396Z</time></trkpt><trkpt lat="37.8523511" lon="12.4923668"><ele>19.0</ele><time>2026-04-25T19:19:07.397Z</time></trkpt><trkpt lat="37.8523961" lon="12.4922645"><ele>19.0</ele><time>2026-04-25T19:19:09.395Z</time></trkpt><trkpt lat="37.8524842" lon="12.4921641"><ele>19.0</ele><time>2026-04-25T19:19:11.396Z</time></trkpt><trkpt lat="37.8525429" lon="12.4921117"><ele>19.0</ele><time>2026-04-25T19:19:12.395Z</time></trkpt><trkpt lat="37.8526008" lon="12.4920521"><ele>19.0</ele><time>2026-04-25T19:19:13.396Z</time></trkpt><trkpt lat="37.8526606" lon="12.49198"><ele>19.0</ele><time>2026-04-25T19:19:14.396Z</time></trkpt><trkpt lat="37.8527208" lon="12.4919004"><ele>19.0</ele><time>2026-04-25T19:19:15.396Z</time></trkpt><trkpt lat="37.8527866" lon="12.4918268"><ele>18.2</ele><time>2026-04-25T19:19:16.396Z</time></trkpt><trkpt lat="37.8528579" lon="12.4917493"><ele>17.4</ele><time>2026-04-25T19:19:17.396Z</time></trkpt><trkpt lat="37.8529303" lon="12.4916732"><ele>16.6</ele><time>2026-04-25T19:19:18.396Z</time></trkpt><trkpt lat="37.852996" lon="12.4915816"><ele>15.8</ele><time>2026-04-25T19:19:19.396Z</time></trkpt><trkpt lat="37.8530687" lon="12.4915049"><ele>15.0</ele><time>2026-04-25T19:19:20.396Z</time></trkpt><trkpt lat="37.8531433" lon="12.4914207"><ele>15.0</ele><time>2026-04-25T19:19:21.396Z</time></trkpt><trkpt lat="37.8532204" lon="12.491345"><ele>15.0</ele><time>2026-04-25T19:19:22.396Z</time></trkpt><trkpt lat="37.8533002" lon="12.4912616"><ele>15.0</ele><time>2026-04-25T19:19:23.396Z</time></trkpt><trkpt lat="37.8533732" lon="12.4911761"><ele>15.0</ele><time>2026-04-25T19:19:24.395Z</time></trkpt><trkpt lat="37.853458" lon="12.4910788"><ele>15.0</ele><time>2026-04-25T19:19:25.396Z</time></trkpt><trkpt lat="37.85354" lon="12.4909963"><ele>15.4</ele><time>2026-04-25T19:19:26.396Z</time></trkpt><trkpt lat="37.8536217" lon="12.4909121"><ele>15.8</ele><time>2026-04-25T19:19:27.396Z</time></trkpt><trkpt lat="37.8536949" lon="12.4908172"><ele>16.2</ele><time>2026-04-25T19:19:28.396Z</time></trkpt><trkpt lat="37.8537627" lon="12.4907269"><ele>16.6</ele><time>2026-04-25T19:19:29.396Z</time></trkpt><trkpt lat="37.8538194" lon="12.4906513"><ele>17.0</ele><time>2026-04-25T19:19:30.396Z</time></trkpt><trkpt lat="37.85388" lon="12.4905701"><ele>17.0</ele><time>2026-04-25T19:19:31.397Z</time></trkpt><trkpt lat="37.85393" lon="12.4904781"><ele>17.0</ele><time>2026-04-25T19:19:32.396Z</time></trkpt><trkpt lat="37.8539816" lon="12.4903717"><ele>17.0</ele><time>2026-04-25T19:19:33.396Z</time></trkpt><trkpt lat="37.8540428" lon="12.4902522"><ele>17.0</ele><time>2026-04-25T19:19:34.396Z</time></trkpt><trkpt lat="37.8541071" lon="12.4901271"><ele>17.0</ele><time>2026-04-25T19:19:35.397Z</time></trkpt><trkpt lat="37.8541723" lon="12.4899953"><ele>16.5</ele><time>2026-04-25T19:19:36.396Z</time></trkpt><trkpt lat="37.8542355" lon="12.4898633"><ele>16.0</ele><time>2026-04-25T19:19:37.396Z</time></trkpt><trkpt lat="37.8543082" lon="12.4897254"><ele>15.5</ele><time>2026-04-25T19:19:38.396Z</time></trkpt><trkpt lat="37.8543772" lon="12.4895931"><ele>15.0</ele><time>2026-04-25T19:19:39.397Z</time></trkpt><trkpt lat="37.8544472" lon="12.4894569"><ele>14.25</ele><time>2026-04-25T19:19:40.397Z</time></trkpt><trkpt lat="37.8545138" lon="12.4893157"><ele>13.5</ele><time>2026-04-25T19:19:41.396Z</time></trkpt><trkpt lat="37.8545828" lon="12.4891702"><ele>12.75</ele><time>2026-04-25T19:19:42.396Z</time></trkpt><trkpt lat="37.854652" lon="12.4890196"><ele>12.0</ele><time>2026-04-25T19:19:43.396Z</time></trkpt><trkpt lat="37.8547272" lon="12.4888685"><ele>11.75</ele><time>2026-04-25T19:19:44.396Z</time></trkpt><trkpt lat="37.8547951" lon="12.4887249"><ele>11.5</ele><time>2026-04-25T19:19:45.396Z</time></trkpt><trkpt lat="37.8548689" lon="12.4885865"><ele>11.25</ele><time>2026-04-25T19:19:46.396Z</time></trkpt><trkpt lat="37.8549411" lon="12.4884387"><ele>11.0</ele><time>2026-04-25T19:19:47.396Z</time></trkpt><trkpt lat="37.8550137" lon="12.4882961"><ele>11.0</ele><time>2026-04-25T19:19:48.396Z</time></trkpt><trkpt lat="37.8550834" lon="12.4881553"><ele>11.0</ele><time>2026-04-25T19:19:49.396Z</time></trkpt><trkpt lat="37.8551527" lon="12.4880163"><ele>11.0</ele><time>2026-04-25T19:19:50.396Z</time></trkpt><trkpt lat="37.8552246" lon="12.4878851"><ele>11.0</ele><time>2026-04-25T19:19:51.396Z</time></trkpt><trkpt lat="37.8552946" lon="12.4877515"><ele>11.0</ele><time>2026-04-25T19:19:52.396Z</time></trkpt><trkpt lat="37.8553614" lon="12.4876367"><ele>11.0</ele><time>2026-04-25T19:19:53.395Z</time></trkpt><trkpt lat="37.8554206" lon="12.4875301"><ele>11.0</ele><time>2026-04-25T19:19:54.397Z</time></trkpt><trkpt lat="37.8554747" lon="12.4874385"><ele>11.0</ele><time>2026-04-25T19:19:55.396Z</time></trkpt><trkpt lat="37.8555194" lon="12.48736"><ele>11.0</ele><time>2026-04-25T19:19:56.396Z</time></trkpt><trkpt lat="37.8555716" lon="12.4872433"><ele>11.0</ele><time>2026-04-25T19:19:58.396Z</time></trkpt><trkpt lat="37.8556072" lon="12.4871531"><ele>11.0</ele><time>2026-04-25T19:20:00.396Z</time></trkpt><trkpt lat="37.8555979" lon="12.4870581"><ele>11.0</ele><time>2026-04-25T19:20:02.396Z</time></trkpt><trkpt lat="37.8555114" lon="12.4869487"><ele>11.0</ele><time>2026-04-25T19:20:04.396Z</time></trkpt><trkpt lat="37.8554455" lon="12.4869111"><ele>11.0</ele><time>2026-04-25T19:20:05.396Z</time></trkpt><trkpt lat="37.8553759" lon="12.4868588"><ele>11.0</ele><time>2026-04-25T19:20:06.396Z</time></trkpt><trkpt lat="37.8553003" lon="12.486804"><ele>11.0</ele><time>2026-04-25T19:20:07.396Z</time></trkpt><trkpt lat="37.8552146" lon="12.48674"><ele>11.0</ele><time>2026-04-25T19:20:08.396Z</time></trkpt><trkpt lat="37.8551287" lon="12.48667"><ele>11.0</ele><time>2026-04-25T19:20:09.395Z</time></trkpt><trkpt lat="37.8550349" lon="12.4866091"><ele>11.0</ele><time>2026-04-25T19:20:10.396Z</time></trkpt><trkpt lat="37.8549431" lon="12.4865535"><ele>11.0</ele><time>2026-04-25T19:20:11.395Z</time></trkpt><trkpt lat="37.8548402" lon="12.486485"><ele>10.75</ele><time>2026-04-25T19:20:12.396Z</time></trkpt><trkpt lat="37.8547416" lon="12.4864163"><ele>10.5</ele><time>2026-04-25T19:20:13.397Z</time></trkpt><trkpt lat="37.8546373" lon="12.4863432"><ele>10.25</ele><time>2026-04-25T19:20:14.395Z</time></trkpt><trkpt lat="37.8545319" lon="12.4862827"><ele>10.0</ele><time>2026-04-25T19:20:15.396Z</time></trkpt><trkpt lat="37.8544263" lon="12.4862096"><ele>9.5</ele><time>2026-04-25T19:20:16.396Z</time></trkpt><trkpt lat="37.8543198" lon="12.486135"><ele>9.0</ele><time>2026-04-25T19:20:17.396Z</time></trkpt><trkpt lat="37.8542113" lon="12.4860631"><ele>8.5</ele><time>2026-04-25T19:20:18.397Z</time></trkpt><trkpt lat="37.8541078" lon="12.4859988"><ele>8.0</ele><time>2026-04-25T19:20:19.396Z</time></trkpt><trkpt lat="37.8540002" lon="12.4859306"><ele>8.0</ele><time>2026-04-25T19:20:20.395Z</time></trkpt><trkpt lat="37.8538972" lon="12.4858541"><ele>8.0</ele><time>2026-04-25T19:20:21.396Z</time></trkpt><trkpt lat="37.8537936" lon="12.4857858"><ele>8.0</ele><time>2026-04-25T19:20:22.396Z</time></trkpt><trkpt lat="37.853692" lon="12.4857249"><ele>8.0</ele><time>2026-04-25T19:20:23.396Z</time></trkpt><trkpt lat="37.8535874" lon="12.4856525"><ele>8.0</ele><time>2026-04-25T19:20:24.396Z</time></trkpt><trkpt lat="37.8534783" lon="12.4855866"><ele>8.0</ele><time>2026-04-25T19:20:25.395Z</time></trkpt><trkpt lat="37.8533669" lon="12.4855211"><ele>8.0</ele><time>2026-04-25T19:20:26.396Z</time></trkpt><trkpt lat="37.8532507" lon="12.4854571"><ele>8.0</ele><time>2026-04-25T19:20:27.396Z</time></trkpt><trkpt lat="37.8531351" lon="12.4853941"><ele>8.25</ele><time>2026-04-25T19:20:28.396Z</time></trkpt><trkpt lat="37.8530214" lon="12.4853307"><ele>8.5</ele><time>2026-04-25T19:20:29.396Z</time></trkpt><trkpt lat="37.8529096" lon="12.4852589"><ele>8.75</ele><time>2026-04-25T19:20:30.396Z</time></trkpt><trkpt lat="37.852797" lon="12.4851911"><ele>9.0</ele><time>2026-04-25T19:20:31.396Z</time></trkpt><trkpt lat="37.8526846" lon="12.485121"><ele>8.5</ele><time>2026-04-25T19:20:32.395Z</time></trkpt><trkpt lat="37.8525642" lon="12.4850512"><ele>8.0</ele><time>2026-04-25T19:20:33.395Z</time></trkpt><trkpt lat="37.8524548" lon="12.4849736"><ele>7.5</ele><time>2026-04-25T19:20:34.396Z</time></trkpt><trkpt lat="37.8523387" lon="12.4849061"><ele>7.0</ele><time>2026-04-25T19:20:35.396Z</time></trkpt><trkpt lat="37.8522279" lon="12.4848367"><ele>7.0</ele><time>2026-04-25T19:20:36.396Z</time></trkpt><trkpt lat="37.8521126" lon="12.4847649"><ele>7.0</ele><time>2026-04-25T19:20:37.397Z</time></trkpt><trkpt lat="37.8519974" lon="12.4846955"><ele>7.0</ele><time>2026-04-25T19:20:38.396Z</time></trkpt><trkpt lat="37.8518812" lon="12.4846307"><ele>7.0</ele><time>2026-04-25T19:20:39.396Z</time></trkpt><trkpt lat="37.8517671" lon="12.4845755"><ele>7.25</ele><time>2026-04-25T19:20:40.396Z</time></trkpt><trkpt lat="37.8516523" lon="12.4845201"><ele>7.5</ele><time>2026-04-25T19:20:41.396Z</time></trkpt><trkpt lat="37.8515138" lon="12.4844691"><ele>7.75</ele><time>2026-04-25T19:20:42.395Z</time></trkpt><trkpt lat="37.8513725" lon="12.4844139"><ele>8.0</ele><time>2026-04-25T19:20:43.395Z</time></trkpt><trkpt lat="37.85124" lon="12.4843695"><ele>8.0</ele><time>2026-04-25T19:20:44.397Z</time></trkpt><trkpt lat="37.8510927" lon="12.4842961"><ele>8.0</ele><time>2026-04-25T19:20:45.395Z</time></trkpt><trkpt lat="37.8509544" lon="12.4842139"><ele>8.0</ele><time>2026-04-25T19:20:46.395Z</time></trkpt><trkpt lat="37.8508212" lon="12.4841373"><ele>8.25</ele><time>2026-04-25T19:20:47.396Z</time></trkpt><trkpt lat="37.8507011" lon="12.4840671"><ele>8.5</ele><time>2026-04-25T19:20:48.397Z</time></trkpt><trkpt lat="37.8505714" lon="12.4839841"><ele>8.75</ele><time>2026-04-25T19:20:49.395Z</time></trkpt><trkpt lat="37.8504439" lon="12.4839049"><ele>9.0</ele><time>2026-04-25T19:20:50.396Z</time></trkpt><trkpt lat="37.8503195" lon="12.4838325"><ele>9.0</ele><time>2026-04-25T19:20:51.397Z</time></trkpt><trkpt lat="37.8501893" lon="12.4837517"><ele>9.0</ele><time>2026-04-25T19:20:52.396Z</time></trkpt><trkpt lat="37.8500623" lon="12.4836811"><ele>9.0</ele><time>2026-04-25T19:20:53.396Z</time></trkpt><trkpt lat="37.8499334" lon="12.4836049"><ele>9.0</ele><time>2026-04-25T19:20:54.395Z</time></trkpt><trkpt lat="37.8498105" lon="12.4835341"><ele>9.0</ele><time>2026-04-25T19:20:55.397Z</time></trkpt><trkpt lat="37.8496873" lon="12.4834533"><ele>9.0</ele><time>2026-04-25T19:20:56.396Z</time></trkpt><trkpt lat="37.8495519" lon="12.4833742"><ele>9.0</ele><time>2026-04-25T19:20:57.395Z</time></trkpt><trkpt lat="37.8494318" lon="12.4832936"><ele>9.0</ele><time>2026-04-25T19:20:58.396Z</time></trkpt><trkpt lat="37.84931" lon="12.4832194"><ele>8.5</ele><time>2026-04-25T19:20:59.396Z</time></trkpt><trkpt lat="37.8491798" lon="12.4831472"><ele>8.0</ele><time>2026-04-25T19:21:00.394Z</time></trkpt><trkpt lat="37.8490497" lon="12.4830626"><ele>7.5</ele><time>2026-04-25T19:21:01.395Z</time></trkpt><trkpt lat="37.8489206" lon="12.4829912"><ele>7.0</ele><time>2026-04-25T19:21:02.396Z</time></trkpt><trkpt lat="37.8487827" lon="12.4829143"><ele>7.0</ele><time>2026-04-25T19:21:03.398Z</time></trkpt><trkpt lat="37.8486569" lon="12.482842"><ele>7.0</ele><time>2026-04-25T19:21:04.396Z</time></trkpt><trkpt lat="37.8485271" lon="12.4827749"><ele>7.0</ele><time>2026-04-25T19:21:05.395Z</time></trkpt><trkpt lat="37.8483997" lon="12.4827075"><ele>7.0</ele><time>2026-04-25T19:21:06.397Z</time></trkpt><trkpt lat="37.8482745" lon="12.4826452"><ele>7.0</ele><time>2026-04-25T19:21:07.396Z</time></trkpt><trkpt lat="37.8481516" lon="12.482587"><ele>7.0</ele><time>2026-04-25T19:21:08.394Z</time></trkpt><trkpt lat="37.8480361" lon="12.4825273"><ele>7.0</ele><time>2026-04-25T19:21:09.396Z</time></trkpt><trkpt lat="37.8479192" lon="12.4824748"><ele>7.0</ele><time>2026-04-25T19:21:10.396Z</time></trkpt><trkpt lat="37.8478042" lon="12.4824182"><ele>7.0</ele><time>2026-04-25T19:21:11.396Z</time></trkpt><trkpt lat="37.8476932" lon="12.4823659"><ele>7.0</ele><time>2026-04-25T19:21:12.396Z</time></trkpt><trkpt lat="37.8475911" lon="12.4823261"><ele>7.0</ele><time>2026-04-25T19:21:13.396Z</time></trkpt><trkpt lat="37.8474828" lon="12.4822834"><ele>7.0</ele><time>2026-04-25T19:21:14.395Z</time></trkpt><trkpt lat="37.847371" lon="12.4822486"><ele>7.3999999999999995</ele><time>2026-04-25T19:21:15.396Z</time></trkpt><trkpt lat="37.8472666" lon="12.4822182"><ele>7.799999999999999</ele><time>2026-04-25T19:21:16.396Z</time></trkpt><trkpt lat="37.8471595" lon="12.4821926"><ele>8.2</ele><time>2026-04-25T19:21:17.396Z</time></trkpt><trkpt lat="37.84706" lon="12.4821987"><ele>8.6</ele><time>2026-04-25T19:21:18.396Z</time></trkpt><trkpt lat="37.8469544" lon="12.4821859"><ele>9.0</ele><time>2026-04-25T19:21:19.396Z</time></trkpt><trkpt lat="37.8468459" lon="12.4821828"><ele>9.0</ele><time>2026-04-25T19:21:20.395Z</time></trkpt><trkpt lat="37.8467445" lon="12.4821845"><ele>9.0</ele><time>2026-04-25T19:21:21.397Z</time></trkpt><trkpt lat="37.8466512" lon="12.4821709"><ele>9.0</ele><time>2026-04-25T19:21:22.396Z</time></trkpt><trkpt lat="37.8465508" lon="12.4821506"><ele>9.0</ele><time>2026-04-25T19:21:23.395Z</time></trkpt><trkpt lat="37.8464719" lon="12.482135"><ele>9.0</ele><time>2026-04-25T19:21:24.396Z</time></trkpt><trkpt lat="37.8463884" lon="12.4821119"><ele>9.0</ele><time>2026-04-25T19:21:25.396Z</time></trkpt><trkpt lat="37.8463249" lon="12.4820872"><ele>9.0</ele><time>2026-04-25T19:21:26.396Z</time></trkpt><trkpt lat="37.8462177" lon="12.48204"><ele>9.0</ele><time>2026-04-25T19:21:28.396Z</time></trkpt><trkpt lat="37.846131" lon="12.4820011"><ele>9.0</ele><time>2026-04-25T19:21:30.397Z</time></trkpt><trkpt lat="37.8460298" lon="12.4819575"><ele>9.0</ele><time>2026-04-25T19:21:32.396Z</time></trkpt><trkpt lat="37.8459106" lon="12.4818703"><ele>9.0</ele><time>2026-04-25T19:21:34.396Z</time></trkpt><trkpt lat="37.8458348" lon="12.4818281"><ele>9.0</ele><time>2026-04-25T19:21:35.396Z</time></trkpt><trkpt lat="37.8457612" lon="12.4817884"><ele>9.0</ele><time>2026-04-25T19:21:36.395Z</time></trkpt><trkpt lat="37.8456709" lon="12.4817429"><ele>9.0</ele><time>2026-04-25T19:21:37.397Z</time></trkpt><trkpt lat="37.8455833" lon="12.4817016"><ele>9.0</ele><time>2026-04-25T19:21:38.395Z</time></trkpt><trkpt lat="37.8455008" lon="12.4816561"><ele>9.0</ele><time>2026-04-25T19:21:39.396Z</time></trkpt><trkpt lat="37.8454076" lon="12.4816024"><ele>9.0</ele><time>2026-04-25T19:21:40.396Z</time></trkpt><trkpt lat="37.8453086" lon="12.4815532"><ele>9.0</ele><time>2026-04-25T19:21:41.395Z</time></trkpt><trkpt lat="37.8452125" lon="12.4815094"><ele>9.0</ele><time>2026-04-25T19:21:42.396Z</time></trkpt><trkpt lat="37.8451221" lon="12.4814649"><ele>9.0</ele><time>2026-04-25T19:21:43.396Z</time></trkpt><trkpt lat="37.8450271" lon="12.4814192"><ele>9.0</ele><time>2026-04-25T19:21:44.396Z</time></trkpt><trkpt lat="37.8449274" lon="12.4813655"><ele>9.25</ele><time>2026-04-25T19:21:45.395Z</time></trkpt><trkpt lat="37.8448252" lon="12.4813148"><ele>9.5</ele><time>2026-04-25T19:21:46.395Z</time></trkpt><trkpt lat="37.8447078" lon="12.4812732"><ele>9.75</ele><time>2026-04-25T19:21:47.396Z</time></trkpt><trkpt lat="37.8446005" lon="12.4812232"><ele>10.0</ele><time>2026-04-25T19:21:48.396Z</time></trkpt><trkpt lat="37.8444808" lon="12.4811806"><ele>10.0</ele><time>2026-04-25T19:21:49.397Z</time></trkpt><trkpt lat="37.8443625" lon="12.4811293"><ele>10.0</ele><time>2026-04-25T19:21:50.396Z</time></trkpt><trkpt lat="37.8442523" lon="12.4810901"><ele>10.0</ele><time>2026-04-25T19:21:51.395Z</time></trkpt><trkpt lat="37.8441214" lon="12.4810233"><ele>10.0</ele><time>2026-04-25T19:21:52.396Z</time></trkpt><trkpt lat="37.8439933" lon="12.4809663"><ele>10.0</ele><time>2026-04-25T19:21:53.396Z</time></trkpt><trkpt lat="37.8438746" lon="12.4809018"><ele>10.0</ele><time>2026-04-25T19:21:54.396Z</time></trkpt><trkpt lat="37.8437553" lon="12.4808418"><ele>10.0</ele><time>2026-04-25T19:21:55.396Z</time></trkpt><trkpt lat="37.8436253" lon="12.4807677"><ele>10.0</ele><time>2026-04-25T19:21:56.397Z</time></trkpt><trkpt lat="37.8435151" lon="12.4807116"><ele>9.75</ele><time>2026-04-25T19:21:57.395Z</time></trkpt><trkpt lat="37.8434011" lon="12.4806524"><ele>9.5</ele><time>2026-04-25T19:21:58.397Z</time></trkpt><trkpt lat="37.843284" lon="12.480594"><ele>9.25</ele><time>2026-04-25T19:21:59.396Z</time></trkpt><trkpt lat="37.8431723" lon="12.480534"><ele>9.0</ele><time>2026-04-25T19:22:00.42Z</time></trkpt><trkpt lat="37.8429444" lon="12.4804199"><ele>9.0</ele><time>2026-04-25T19:22:02.396Z</time></trkpt><trkpt lat="37.8428412" lon="12.4803586"><ele>9.0</ele><time>2026-04-25T19:22:03.397Z</time></trkpt><trkpt lat="37.8427361" lon="12.4802893"><ele>9.0</ele><time>2026-04-25T19:22:04.396Z</time></trkpt><trkpt lat="37.8426319" lon="12.4802318"><ele>9.0</ele><time>2026-04-25T19:22:05.395Z</time></trkpt><trkpt lat="37.8425262" lon="12.4801671"><ele>8.8</ele><time>2026-04-25T19:22:06.395Z</time></trkpt><trkpt lat="37.8424265" lon="12.4801228"><ele>8.600000000000001</ele><time>2026-04-25T19:22:07.396Z</time></trkpt><trkpt lat="37.8423216" lon="12.4800629"><ele>8.4</ele><time>2026-04-25T19:22:08.396Z</time></trkpt><trkpt lat="37.84222" lon="12.480003"><ele>8.200000000000001</ele><time>2026-04-25T19:22:09.395Z</time></trkpt><trkpt lat="37.8421264" lon="12.4799487"><ele>8.0</ele><time>2026-04-25T19:22:10.395Z</time></trkpt><trkpt lat="37.8420372" lon="12.4799006"><ele>8.0</ele><time>2026-04-25T19:22:11.396Z</time></trkpt><trkpt lat="37.8419518" lon="12.4798546"><ele>8.0</ele><time>2026-04-25T19:22:12.396Z</time></trkpt><trkpt lat="37.8418713" lon="12.4798131"><ele>8.0</ele><time>2026-04-25T19:22:13.396Z</time></trkpt><trkpt lat="37.8418017" lon="12.4797814"><ele>8.0</ele><time>2026-04-25T19:22:14.396Z</time></trkpt><trkpt lat="37.8416986" lon="12.4797071"><ele>8.0</ele><time>2026-04-25T19:22:16.396Z</time></trkpt><trkpt lat="37.8415909" lon="12.4796441"><ele>7.999999999999999</ele><time>2026-04-25T19:22:18.396Z</time></trkpt><trkpt lat="37.8414946" lon="12.4795899"><ele>8.0</ele><time>2026-04-25T19:22:20.396Z</time></trkpt><trkpt lat="37.8413968" lon="12.4795353"><ele>8.0</ele><time>2026-04-25T19:22:22.396Z</time></trkpt><trkpt lat="37.8413369" lon="12.47951"><ele>8.0</ele><time>2026-04-25T19:22:23.395Z</time></trkpt><trkpt lat="37.8412775" lon="12.4794803"><ele>7.999999999999999</ele><time>2026-04-25T19:22:24.396Z</time></trkpt><trkpt lat="37.8412098" lon="12.4794489"><ele>8.0</ele><time>2026-04-25T19:22:25.396Z</time></trkpt><trkpt lat="37.8411329" lon="12.4794064"><ele>7.999999999999999</ele><time>2026-04-25T19:22:26.396Z</time></trkpt><trkpt lat="37.8410575" lon="12.4793646"><ele>8.0</ele><time>2026-04-25T19:22:27.395Z</time></trkpt><trkpt lat="37.8409764" lon="12.479327"><ele>8.0</ele><time>2026-04-25T19:22:28.397Z</time></trkpt><trkpt lat="37.8408999" lon="12.4792847"><ele>8.0</ele><time>2026-04-25T19:22:29.396Z</time></trkpt><trkpt lat="37.8408291" lon="12.4792348"><ele>7.999999999999999</ele><time>2026-04-25T19:22:30.396Z</time></trkpt><trkpt lat="37.8407529" lon="12.4791891"><ele>8.0</ele><time>2026-04-25T19:22:31.395Z</time></trkpt><trkpt lat="37.8406673" lon="12.4791396"><ele>7.999999999999999</ele><time>2026-04-25T19:22:32.396Z</time></trkpt><trkpt lat="37.8405925" lon="12.4790963"><ele>8.0</ele><time>2026-04-25T19:22:33.396Z</time></trkpt><trkpt lat="37.8405208" lon="12.4790602"><ele>8.0</ele><time>2026-04-25T19:22:34.396Z</time></trkpt><trkpt lat="37.8404441" lon="12.4790094"><ele>8.0</ele><time>2026-04-25T19:22:35.396Z</time></trkpt><trkpt lat="37.8403467" lon="12.4789617"><ele>7.999999999999999</ele><time>2026-04-25T19:22:36.396Z</time></trkpt><trkpt lat="37.8402665" lon="12.478917"><ele>8.0</ele><time>2026-04-25T19:22:37.397Z</time></trkpt><trkpt lat="37.8401885" lon="12.4788631"><ele>7.999999999999999</ele><time>2026-04-25T19:22:38.396Z</time></trkpt><trkpt lat="37.840109" lon="12.4788108"><ele>8.0</ele><time>2026-04-25T19:22:39.396Z</time></trkpt><trkpt lat="37.8400344" lon="12.4787618"><ele>8.0</ele><time>2026-04-25T19:22:40.396Z</time></trkpt><trkpt lat="37.8399579" lon="12.4787252"><ele>8.0</ele><time>2026-04-25T19:22:41.396Z</time></trkpt><trkpt lat="37.8398807" lon="12.4786677"><ele>7.999999999999999</ele><time>2026-04-25T19:22:42.395Z</time></trkpt><trkpt lat="37.8398024" lon="12.4786115"><ele>8.0</ele><time>2026-04-25T19:22:43.397Z</time></trkpt><trkpt lat="37.839722" lon="12.4785669"><ele>7.833333333333333</ele><time>2026-04-25T19:22:44.396Z</time></trkpt><trkpt lat="37.8396465" lon="12.4785175"><ele>7.666666666666666</ele><time>2026-04-25T19:22:45.396Z</time></trkpt><trkpt lat="37.839573" lon="12.4784686"><ele>7.5</ele><time>2026-04-25T19:22:46.396Z</time></trkpt><trkpt lat="37.8394981" lon="12.4784106"><ele>7.333333333333334</ele><time>2026-04-25T19:22:47.398Z</time></trkpt><trkpt lat="37.8394174" lon="12.4783578"><ele>7.166666666666667</ele><time>2026-04-25T19:22:48.396Z</time></trkpt><trkpt lat="37.8393315" lon="12.4783138"><ele>7.0</ele><time>2026-04-25T19:22:49.395Z</time></trkpt><trkpt lat="37.8392458" lon="12.4782652"><ele>7.3999999999999995</ele><time>2026-04-25T19:22:50.397Z</time></trkpt><trkpt lat="37.8391515" lon="12.4782032"><ele>7.799999999999999</ele><time>2026-04-25T19:22:51.396Z</time></trkpt><trkpt lat="37.8390378" lon="12.4781441"><ele>8.2</ele><time>2026-04-25T19:22:52.396Z</time></trkpt><trkpt lat="37.8389449" lon="12.4780812"><ele>8.6</ele><time>2026-04-25T19:22:53.395Z</time></trkpt><trkpt lat="37.8388429" lon="12.4780142"><ele>9.0</ele><time>2026-04-25T19:22:54.397Z</time></trkpt><trkpt lat="37.8387467" lon="12.477949"><ele>9.0</ele><time>2026-04-25T19:22:55.395Z</time></trkpt><trkpt lat="37.838654" lon="12.4778878"><ele>9.0</ele><time>2026-04-25T19:22:56.396Z</time></trkpt><trkpt lat="37.8385653" lon="12.4778232"><ele>9.0</ele><time>2026-04-25T19:22:57.396Z</time></trkpt><trkpt lat="37.8384746" lon="12.4777548"><ele>9.0</ele><time>2026-04-25T19:22:58.396Z</time></trkpt><trkpt lat="37.83838" lon="12.4776892"><ele>9.0</ele><time>2026-04-25T19:22:59.395Z</time></trkpt><trkpt lat="37.8382907" lon="12.477625"><ele>8.6</ele><time>2026-04-25T19:23:00.395Z</time></trkpt><trkpt lat="37.8381995" lon="12.4775661"><ele>8.2</ele><time>2026-04-25T19:23:01.397Z</time></trkpt><trkpt lat="37.8381121" lon="12.4775096"><ele>7.799999999999999</ele><time>2026-04-25T19:23:02.396Z</time></trkpt><trkpt lat="37.8380228" lon="12.4774358"><ele>7.3999999999999995</ele><time>2026-04-25T19:23:03.396Z</time></trkpt><trkpt lat="37.8379349" lon="12.4773672"><ele>7.0</ele><time>2026-04-25T19:23:04.396Z</time></trkpt><trkpt lat="37.8378409" lon="12.4772936"><ele>7.0</ele><time>2026-04-25T19:23:05.396Z</time></trkpt><trkpt lat="37.8377387" lon="12.4772226"><ele>6.999999999999999</ele><time>2026-04-25T19:23:06.395Z</time></trkpt><trkpt lat="37.837646" lon="12.4771514"><ele>6.999999999999999</ele><time>2026-04-25T19:23:07.396Z</time></trkpt><trkpt lat="37.8375571" lon="12.4770795"><ele>7.0</ele><time>2026-04-25T19:23:08.396Z</time></trkpt><trkpt lat="37.837463" lon="12.4770129"><ele>7.0</ele><time>2026-04-25T19:23:09.396Z</time></trkpt><trkpt lat="37.8373779" lon="12.4769501"><ele>6.8</ele><time>2026-04-25T19:23:10.396Z</time></trkpt><trkpt lat="37.8372931" lon="12.4768817"><ele>6.6</ele><time>2026-04-25T19:23:11.395Z</time></trkpt><trkpt lat="37.8372173" lon="12.4768318"><ele>6.3999999999999995</ele><time>2026-04-25T19:23:12.397Z</time></trkpt><trkpt lat="37.8371347" lon="12.4767611"><ele>6.199999999999999</ele><time>2026-04-25T19:23:13.397Z</time></trkpt><trkpt lat="37.8370526" lon="12.4766909"><ele>6.0</ele><time>2026-04-25T19:23:14.396Z</time></trkpt><trkpt lat="37.836979" lon="12.4766219"><ele>6.0</ele><time>2026-04-25T19:23:15.396Z</time></trkpt><trkpt lat="37.836905" lon="12.4765519"><ele>6.0</ele><time>2026-04-25T19:23:16.395Z</time></trkpt><trkpt lat="37.8368257" lon="12.4764784"><ele>6.0</ele><time>2026-04-25T19:23:17.397Z</time></trkpt><trkpt lat="37.8367523" lon="12.4764076"><ele>6.0</ele><time>2026-04-25T19:23:18.396Z</time></trkpt><trkpt lat="37.8366756" lon="12.4763354"><ele>6.0</ele><time>2026-04-25T19:23:19.396Z</time></trkpt><trkpt lat="37.8365926" lon="12.4762503"><ele>5.8</ele><time>2026-04-25T19:23:20.397Z</time></trkpt><trkpt lat="37.8365126" lon="12.4761764"><ele>5.6</ele><time>2026-04-25T19:23:21.396Z</time></trkpt><trkpt lat="37.8364327" lon="12.4760929"><ele>5.4</ele><time>2026-04-25T19:23:22.397Z</time></trkpt><trkpt lat="37.8363514" lon="12.4760136"><ele>5.2</ele><time>2026-04-25T19:23:23.396Z</time></trkpt><trkpt lat="37.8362702" lon="12.4759462"><ele>5.0</ele><time>2026-04-25T19:23:24.395Z</time></trkpt><trkpt lat="37.8361762" lon="12.4758903"><ele>5.0</ele><time>2026-04-25T19:23:25.396Z</time></trkpt><trkpt lat="37.8361041" lon="12.4758363"><ele>5.0</ele><time>2026-04-25T19:23:26.395Z</time></trkpt><trkpt lat="37.8360369" lon="12.475789"><ele>5.0</ele><time>2026-04-25T19:23:27.396Z</time></trkpt><trkpt lat="37.8359714" lon="12.4758209"><ele>5.0</ele><time>2026-04-25T19:23:28.397Z</time></trkpt><trkpt lat="37.8359083" lon="12.4758976"><ele>5.0</ele><time>2026-04-25T19:23:30.395Z</time></trkpt><trkpt lat="37.8358161" lon="12.4760412"><ele>5.8</ele><time>2026-04-25T19:23:39.396Z</time></trkpt><trkpt lat="37.8357281" lon="12.476191"><ele>6.6</ele><time>2026-04-25T19:23:41.397Z</time></trkpt><trkpt lat="37.8356793" lon="12.4762741"><ele>7.4</ele><time>2026-04-25T19:23:42.396Z</time></trkpt><trkpt lat="37.8356268" lon="12.4763513"><ele>8.2</ele><time>2026-04-25T19:23:43.395Z</time></trkpt><trkpt lat="37.835574" lon="12.4764182"><ele>9.0</ele><time>2026-04-25T19:23:44.396Z</time></trkpt><trkpt lat="37.8355225" lon="12.4764889"><ele>9.0</ele><time>2026-04-25T19:23:45.396Z</time></trkpt><trkpt lat="37.8354784" lon="12.4765705"><ele>9.0</ele><time>2026-04-25T19:23:46.396Z</time></trkpt><trkpt lat="37.8354315" lon="12.4766367"><ele>9.0</ele><time>2026-04-25T19:23:47.396Z</time></trkpt><trkpt lat="37.835398" lon="12.4767245"><ele>9.0</ele><time>2026-04-25T19:23:48.397Z</time></trkpt><trkpt lat="37.8353448" lon="12.4767926"><ele>9.0</ele><time>2026-04-25T19:23:49.396Z</time></trkpt><trkpt lat="37.8352845" lon="12.4768805"><ele>9.0</ele><time>2026-04-25T19:23:50.396Z</time></trkpt><trkpt lat="37.835213" lon="12.4769756"><ele>9.0</ele><time>2026-04-25T19:23:51.394Z</time></trkpt><trkpt lat="37.8351399" lon="12.4770684"><ele>9.0</ele><time>2026-04-25T19:23:52.395Z</time></trkpt><trkpt lat="37.8350652" lon="12.4771878"><ele>9.0</ele><time>2026-04-25T19:23:53.395Z</time></trkpt><trkpt lat="37.8349884" lon="12.4772968"><ele>9.0</ele><time>2026-04-25T19:23:54.396Z</time></trkpt><trkpt lat="37.8349079" lon="12.4774262"><ele>9.25</ele><time>2026-04-25T19:23:55.396Z</time></trkpt><trkpt lat="37.8348226" lon="12.4775434"><ele>9.5</ele><time>2026-04-25T19:23:56.396Z</time></trkpt><trkpt lat="37.8347474" lon="12.4776838"><ele>9.75</ele><time>2026-04-25T19:23:57.396Z</time></trkpt><trkpt lat="37.8346541" lon="12.4777974"><ele>10.0</ele><time>2026-04-25T19:23:58.397Z</time></trkpt><trkpt lat="37.8345601" lon="12.4779138"><ele>9.5</ele><time>2026-04-25T19:23:59.396Z</time></trkpt><trkpt lat="37.8344409" lon="12.4780177"><ele>9.0</ele><time>2026-04-25T19:24:00.397Z</time></trkpt><trkpt lat="37.8343284" lon="12.4781184"><ele>8.5</ele><time>2026-04-25T19:24:01.396Z</time></trkpt><trkpt lat="37.8342101" lon="12.4782167"><ele>8.0</ele><time>2026-04-25T19:24:02.396Z</time></trkpt><trkpt lat="37.8340915" lon="12.4783192"><ele>8.0</ele><time>2026-04-25T19:24:03.396Z</time></trkpt><trkpt lat="37.8339702" lon="12.4784151"><ele>8.0</ele><time>2026-04-25T19:24:04.396Z</time></trkpt><trkpt lat="37.8338526" lon="12.4785195"><ele>8.0</ele><time>2026-04-25T19:24:05.395Z</time></trkpt><trkpt lat="37.8337271" lon="12.4786122"><ele>8.0</ele><time>2026-04-25T19:24:06.397Z</time></trkpt><trkpt lat="37.8336132" lon="12.478709"><ele>7.75</ele><time>2026-04-25T19:24:07.396Z</time></trkpt><trkpt lat="37.8334962" lon="12.478818"><ele>7.5</ele><time>2026-04-25T19:24:08.396Z</time></trkpt><trkpt lat="37.8333796" lon="12.4789215"><ele>7.25</ele><time>2026-04-25T19:24:09.396Z</time></trkpt><trkpt lat="37.8332578" lon="12.4790277"><ele>7.0</ele><time>2026-04-25T19:24:10.396Z</time></trkpt><trkpt lat="37.8331396" lon="12.4791292"><ele>7.0</ele><time>2026-04-25T19:24:11.396Z</time></trkpt><trkpt lat="37.833011" lon="12.479226"><ele>7.0</ele><time>2026-04-25T19:24:12.396Z</time></trkpt><trkpt lat="37.832902" lon="12.4793243"><ele>7.0</ele><time>2026-04-25T19:24:13.396Z</time></trkpt><trkpt lat="37.8327951" lon="12.4794315"><ele>7.0</ele><time>2026-04-25T19:24:14.397Z</time></trkpt><trkpt lat="37.8326975" lon="12.4795526"><ele>7.25</ele><time>2026-04-25T19:24:15.397Z</time></trkpt><trkpt lat="37.8326011" lon="12.4796696"><ele>7.5</ele><time>2026-04-25T19:24:16.396Z</time></trkpt><trkpt lat="37.832511" lon="12.479811"><ele>7.75</ele><time>2026-04-25T19:24:17.395Z</time></trkpt><trkpt lat="37.8324009" lon="12.479932"><ele>8.0</ele><time>2026-04-25T19:24:18.396Z</time></trkpt><trkpt lat="37.8323104" lon="12.4800532"><ele>8.0</ele><time>2026-04-25T19:24:19.396Z</time></trkpt><trkpt lat="37.8322218" lon="12.4801633"><ele>8.0</ele><time>2026-04-25T19:24:20.396Z</time></trkpt><trkpt lat="37.832132" lon="12.4802752"><ele>8.0</ele><time>2026-04-25T19:24:21.396Z</time></trkpt><trkpt lat="37.8320483" lon="12.4803897"><ele>8.0</ele><time>2026-04-25T19:24:22.396Z</time></trkpt><trkpt lat="37.8319655" lon="12.4804905"><ele>8.200000000000001</ele><time>2026-04-25T19:24:23.395Z</time></trkpt><trkpt lat="37.8318848" lon="12.4805911"><ele>8.4</ele><time>2026-04-25T19:24:24.396Z</time></trkpt><trkpt lat="37.8318071" lon="12.4806829"><ele>8.600000000000001</ele><time>2026-04-25T19:24:25.395Z</time></trkpt><trkpt lat="37.8317251" lon="12.4807702"><ele>8.8</ele><time>2026-04-25T19:24:26.396Z</time></trkpt><trkpt lat="37.8316475" lon="12.4808571"><ele>9.0</ele><time>2026-04-25T19:24:27.396Z</time></trkpt><trkpt lat="37.8315785" lon="12.4809215"><ele>9.0</ele><time>2026-04-25T19:24:28.396Z</time></trkpt><trkpt lat="37.8315082" lon="12.4810074"><ele>9.0</ele><time>2026-04-25T19:24:29.397Z</time></trkpt><trkpt lat="37.8314335" lon="12.4810824"><ele>9.0</ele><time>2026-04-25T19:24:30.396Z</time></trkpt><trkpt lat="37.8313703" lon="12.4811628"><ele>9.0</ele><time>2026-04-25T19:24:31.396Z</time></trkpt><trkpt lat="37.8313011" lon="12.4812252"><ele>9.0</ele><time>2026-04-25T19:24:32.396Z</time></trkpt><trkpt lat="37.8312391" lon="12.4812914"><ele>9.0</ele><time>2026-04-25T19:24:33.396Z</time></trkpt><trkpt lat="37.8311804" lon="12.4813436"><ele>9.166666666666666</ele><time>2026-04-25T19:24:34.396Z</time></trkpt><trkpt lat="37.8310887" lon="12.4814331"><ele>9.333333333333334</ele><time>2026-04-25T19:24:36.396Z</time></trkpt><trkpt lat="37.8310247" lon="12.4815098"><ele>9.5</ele><time>2026-04-25T19:24:38.397Z</time></trkpt><trkpt lat="37.8309708" lon="12.4815554"><ele>9.666666666666668</ele><time>2026-04-25T19:24:42.396Z</time></trkpt><trkpt lat="37.8309072" lon="12.4816154"><ele>9.833333333333334</ele><time>2026-04-25T19:25:34.396Z</time></trkpt><trkpt lat="37.8308529" lon="12.4817077"><ele>10.0</ele><time>2026-04-25T19:25:37.396Z</time></trkpt><trkpt lat="37.8307953" lon="12.4817696"><ele>10.5</ele><time>2026-04-25T19:25:40.396Z</time></trkpt><trkpt lat="37.8307499" lon="12.4818363"><ele>11.0</ele><time>2026-04-25T19:27:05.396Z</time></trkpt><trkpt lat="37.8306907" lon="12.481925"><ele>11.5</ele><time>2026-04-25T19:27:07.397Z</time></trkpt><trkpt lat="37.8306034" lon="12.4820335"><ele>12.0</ele><time>2026-04-25T19:27:09.396Z</time></trkpt><trkpt lat="37.8305512" lon="12.4820962"><ele>12.499999999999998</ele><time>2026-04-25T19:27:10.396Z</time></trkpt><trkpt lat="37.8304933" lon="12.4821699"><ele>13.0</ele><time>2026-04-25T19:27:11.396Z</time></trkpt><trkpt lat="37.8304389" lon="12.4822401"><ele>13.0</ele><time>2026-04-25T19:27:12.396Z</time></trkpt><trkpt lat="37.8303871" lon="12.4823157"><ele>13.0</ele><time>2026-04-25T19:27:13.396Z</time></trkpt><trkpt lat="37.8303404" lon="12.4823817"><ele>13.0</ele><time>2026-04-25T19:27:14.396Z</time></trkpt><trkpt lat="37.8302893" lon="12.4824515"><ele>13.0</ele><time>2026-04-25T19:27:16.396Z</time></trkpt><trkpt lat="37.83028" lon="12.4825442"><ele>13.0</ele><time>2026-04-25T19:27:19.396Z</time></trkpt><trkpt lat="37.830311" lon="12.4826147"><ele>13.0</ele><time>2026-04-25T19:27:21.396Z</time></trkpt><trkpt lat="37.8303831" lon="12.4826508"><ele>13.0</ele><time>2026-04-25T19:27:22.395Z</time></trkpt><trkpt lat="37.8304503" lon="12.4826916"><ele>13.0</ele><time>2026-04-25T19:27:23.396Z</time></trkpt><trkpt lat="37.830522" lon="12.4827338"><ele>13.0</ele><time>2026-04-25T19:27:24.396Z</time></trkpt><trkpt lat="37.8306025" lon="12.4827796"><ele>13.0</ele><time>2026-04-25T19:27:25.396Z</time></trkpt><trkpt lat="37.8306924" lon="12.4828331"><ele>13.0</ele><time>2026-04-25T19:27:26.396Z</time></trkpt><trkpt lat="37.8307947" lon="12.4828951"><ele>13.0</ele><time>2026-04-25T19:27:27.396Z</time></trkpt><trkpt lat="37.8309033" lon="12.4829558"><ele>13.25</ele><time>2026-04-25T19:27:28.396Z</time></trkpt><trkpt lat="37.8310035" lon="12.4830236"><ele>13.5</ele><time>2026-04-25T19:27:29.396Z</time></trkpt><trkpt lat="37.8311102" lon="12.483089"><ele>13.75</ele><time>2026-04-25T19:27:30.396Z</time></trkpt><trkpt lat="37.8312175" lon="12.4831577"><ele>14.0</ele><time>2026-04-25T19:27:31.396Z</time></trkpt><trkpt lat="37.8313329" lon="12.483229"><ele>14.0</ele><time>2026-04-25T19:27:32.396Z</time></trkpt><trkpt lat="37.8314457" lon="12.4833014"><ele>14.0</ele><time>2026-04-25T19:27:33.396Z</time></trkpt><trkpt lat="37.8315636" lon="12.4833814"><ele>14.0</ele><time>2026-04-25T19:27:34.395Z</time></trkpt><trkpt lat="37.8316871" lon="12.483457"><ele>14.0</ele><time>2026-04-25T19:27:35.396Z</time></trkpt><trkpt lat="37.8318063" lon="12.4835316"><ele>13.5</ele><time>2026-04-25T19:27:36.396Z</time></trkpt><trkpt lat="37.8319275" lon="12.4836106"><ele>13.0</ele><time>2026-04-25T19:27:37.396Z</time></trkpt><trkpt lat="37.8320565" lon="12.4836874"><ele>12.5</ele><time>2026-04-25T19:27:38.395Z</time></trkpt><trkpt lat="37.8321853" lon="12.4837677"><ele>12.0</ele><time>2026-04-25T19:27:39.396Z</time></trkpt><trkpt lat="37.8323096" lon="12.4838466"><ele>12.0</ele><time>2026-04-25T19:27:40.396Z</time></trkpt><trkpt lat="37.8324354" lon="12.4839265"><ele>12.0</ele><time>2026-04-25T19:27:41.395Z</time></trkpt><trkpt lat="37.8325621" lon="12.4840062"><ele>12.0</ele><time>2026-04-25T19:27:42.396Z</time></trkpt><trkpt lat="37.8326919" lon="12.4840876"><ele>12.0</ele><time>2026-04-25T19:27:43.397Z</time></trkpt><trkpt lat="37.8328185" lon="12.4841715"><ele>11.75</ele><time>2026-04-25T19:27:44.396Z</time></trkpt><trkpt lat="37.8329497" lon="12.4842492"><ele>11.5</ele><time>2026-04-25T19:27:45.396Z</time></trkpt><trkpt lat="37.8330777" lon="12.4843351"><ele>11.25</ele><time>2026-04-25T19:27:46.396Z</time></trkpt><trkpt lat="37.8332063" lon="12.4844292"><ele>11.0</ele><time>2026-04-25T19:27:47.396Z</time></trkpt><trkpt lat="37.8333339" lon="12.48453"><ele>11.25</ele><time>2026-04-25T19:27:48.396Z</time></trkpt><trkpt lat="37.8334627" lon="12.4846273"><ele>11.5</ele><time>2026-04-25T19:27:49.395Z</time></trkpt><trkpt lat="37.833584" lon="12.4847273"><ele>11.75</ele><time>2026-04-25T19:27:50.396Z</time></trkpt><trkpt lat="37.8336992" lon="12.4848255"><ele>12.0</ele><time>2026-04-25T19:27:51.395Z</time></trkpt><trkpt lat="37.833812" lon="12.4849236"><ele>12.0</ele><time>2026-04-25T19:27:52.395Z</time></trkpt><trkpt lat="37.8339202" lon="12.485014"><ele>12.0</ele><time>2026-04-25T19:27:53.396Z</time></trkpt><trkpt lat="37.8340241" lon="12.4851015"><ele>12.0</ele><time>2026-04-25T19:27:54.397Z</time></trkpt><trkpt lat="37.8341311" lon="12.4851877"><ele>12.0</ele><time>2026-04-25T19:27:55.396Z</time></trkpt><trkpt lat="37.8342451" lon="12.485278"><ele>12.0</ele><time>2026-04-25T19:27:56.396Z</time></trkpt><trkpt lat="37.834367" lon="12.4853645"><ele>12.0</ele><time>2026-04-25T19:27:57.396Z</time></trkpt><trkpt lat="37.8344887" lon="12.4854549"><ele>12.0</ele><time>2026-04-25T19:27:58.395Z</time></trkpt><trkpt lat="37.8346168" lon="12.4855551"><ele>12.0</ele><time>2026-04-25T19:27:59.396Z</time></trkpt><trkpt lat="37.8347433" lon="12.4856543"><ele>12.0</ele><time>2026-04-25T19:28:00.395Z</time></trkpt><trkpt lat="37.834864" lon="12.4857484"><ele>12.0</ele><time>2026-04-25T19:28:01.396Z</time></trkpt><trkpt lat="37.8349831" lon="12.485845"><ele>12.0</ele><time>2026-04-25T19:28:02.396Z</time></trkpt><trkpt lat="37.8350961" lon="12.4859411"><ele>12.0</ele><time>2026-04-25T19:28:03.396Z</time></trkpt><trkpt lat="37.8352021" lon="12.4860508"><ele>11.75</ele><time>2026-04-25T19:28:04.396Z</time></trkpt><trkpt lat="37.8352976" lon="12.486175"><ele>11.5</ele><time>2026-04-25T19:28:05.396Z</time></trkpt><trkpt lat="37.8353893" lon="12.4863113"><ele>11.25</ele><time>2026-04-25T19:28:06.396Z</time></trkpt><trkpt lat="37.8354858" lon="12.4864535"><ele>11.0</ele><time>2026-04-25T19:28:07.395Z</time></trkpt><trkpt lat="37.83558" lon="12.4866013"><ele>11.0</ele><time>2026-04-25T19:28:08.396Z</time></trkpt><trkpt lat="37.8356768" lon="12.4867495"><ele>11.0</ele><time>2026-04-25T19:28:09.396Z</time></trkpt><trkpt lat="37.835769" lon="12.4868966"><ele>11.0</ele><time>2026-04-25T19:28:10.395Z</time></trkpt><trkpt lat="37.8358742" lon="12.487045"><ele>11.333333333333332</ele><time>2026-04-25T19:28:11.396Z</time></trkpt><trkpt lat="37.83597" lon="12.4871924"><ele>11.666666666666666</ele><time>2026-04-25T19:28:12.396Z</time></trkpt><trkpt lat="37.8360718" lon="12.4873454"><ele>12.0</ele><time>2026-04-25T19:28:13.396Z</time></trkpt><trkpt lat="37.8361772" lon="12.4875022"><ele>12.333333333333332</ele><time>2026-04-25T19:28:14.396Z</time></trkpt><trkpt lat="37.8362824" lon="12.4876613"><ele>12.666666666666666</ele><time>2026-04-25T19:28:15.397Z</time></trkpt><trkpt lat="37.8363899" lon="12.4878251"><ele>13.0</ele><time>2026-04-25T19:28:16.396Z</time></trkpt><trkpt lat="37.8364991" lon="12.4879867"><ele>13.0</ele><time>2026-04-25T19:28:17.396Z</time></trkpt><trkpt lat="37.8366012" lon="12.4881509"><ele>13.0</ele><time>2026-04-25T19:28:18.396Z</time></trkpt><trkpt lat="37.8367074" lon="12.4883171"><ele>13.0</ele><time>2026-04-25T19:28:19.396Z</time></trkpt><trkpt lat="37.8368161" lon="12.488483"><ele>13.0</ele><time>2026-04-25T19:28:20.397Z</time></trkpt><trkpt lat="37.8369233" lon="12.4886434"><ele>13.0</ele><time>2026-04-25T19:28:21.396Z</time></trkpt><trkpt lat="37.8370344" lon="12.4888063"><ele>13.0</ele><time>2026-04-25T19:28:22.396Z</time></trkpt><trkpt lat="37.837141" lon="12.4889665"><ele>13.666666666666666</ele><time>2026-04-25T19:28:23.395Z</time></trkpt><trkpt lat="37.8372458" lon="12.4891334"><ele>14.333333333333332</ele><time>2026-04-25T19:28:24.396Z</time></trkpt><trkpt lat="37.8373472" lon="12.4892945"><ele>15.0</ele><time>2026-04-25T19:28:25.396Z</time></trkpt><trkpt lat="37.837448" lon="12.4894557"><ele>15.0</ele><time>2026-04-25T19:28:26.397Z</time></trkpt><trkpt lat="37.8375529" lon="12.4896117"><ele>15.0</ele><time>2026-04-25T19:28:27.396Z</time></trkpt><trkpt lat="37.8376608" lon="12.4897648"><ele>15.0</ele><time>2026-04-25T19:28:28.397Z</time></trkpt><trkpt lat="37.8377772" lon="12.4899105"><ele>15.0</ele><time>2026-04-25T19:28:29.396Z</time></trkpt><trkpt lat="37.8379034" lon="12.4900442"><ele>15.0</ele><time>2026-04-25T19:28:30.396Z</time></trkpt><trkpt lat="37.8380354" lon="12.4901707"><ele>15.0</ele><time>2026-04-25T19:28:31.396Z</time></trkpt><trkpt lat="37.8381643" lon="12.4902986"><ele>15.333333333333332</ele><time>2026-04-25T19:28:32.396Z</time></trkpt><trkpt lat="37.8382897" lon="12.4904302"><ele>15.666666666666666</ele><time>2026-04-25T19:28:33.396Z</time></trkpt><trkpt lat="37.8384097" lon="12.4905762"><ele>16.0</ele><time>2026-04-25T19:28:34.396Z</time></trkpt><trkpt lat="37.8385209" lon="12.4907303"><ele>16.0</ele><time>2026-04-25T19:28:35.396Z</time></trkpt><trkpt lat="37.8386404" lon="12.490878"><ele>16.0</ele><time>2026-04-25T19:28:36.396Z</time></trkpt><trkpt lat="37.8387606" lon="12.4910377"><ele>16.0</ele><time>2026-04-25T19:28:37.396Z</time></trkpt><trkpt lat="37.8388738" lon="12.4911956"><ele>16.666666666666664</ele><time>2026-04-25T19:28:38.396Z</time></trkpt><trkpt lat="37.8389895" lon="12.4913587"><ele>17.333333333333332</ele><time>2026-04-25T19:28:39.396Z</time></trkpt><trkpt lat="37.839106" lon="12.4915175"><ele>18.0</ele><time>2026-04-25T19:28:40.396Z</time></trkpt><trkpt lat="37.8392256" lon="12.4916808"><ele>17.666666666666668</ele><time>2026-04-25T19:28:41.396Z</time></trkpt><trkpt lat="37.8393428" lon="12.4918382"><ele>17.333333333333336</ele><time>2026-04-25T19:28:42.396Z</time></trkpt><trkpt lat="37.8394602" lon="12.4919899"><ele>17.0</ele><time>2026-04-25T19:28:43.395Z</time></trkpt><trkpt lat="37.8395798" lon="12.492135"><ele>17.0</ele><time>2026-04-25T19:28:44.395Z</time></trkpt><trkpt lat="37.839701" lon="12.4922798"><ele>17.0</ele><time>2026-04-25T19:28:45.396Z</time></trkpt><trkpt lat="37.8398226" lon="12.4924231"><ele>17.0</ele><time>2026-04-25T19:28:46.396Z</time></trkpt><trkpt lat="37.8399424" lon="12.4925689"><ele>17.0</ele><time>2026-04-25T19:28:47.396Z</time></trkpt><trkpt lat="37.8400693" lon="12.4927099"><ele>17.0</ele><time>2026-04-25T19:28:48.396Z</time></trkpt><trkpt lat="37.840197" lon="12.4928493"><ele>17.0</ele><time>2026-04-25T19:28:49.396Z</time></trkpt><trkpt lat="37.8403288" lon="12.4929846"><ele>17.666666666666668</ele><time>2026-04-25T19:28:50.397Z</time></trkpt><trkpt lat="37.840466" lon="12.4931157"><ele>18.333333333333332</ele><time>2026-04-25T19:28:51.396Z</time></trkpt><trkpt lat="37.8406096" lon="12.4932367"><ele>19.0</ele><time>2026-04-25T19:28:52.396Z</time></trkpt><trkpt lat="37.8407528" lon="12.4933545"><ele>19.0</ele><time>2026-04-25T19:28:53.397Z</time></trkpt><trkpt lat="37.8408952" lon="12.4934761"><ele>19.0</ele><time>2026-04-25T19:28:54.396Z</time></trkpt><trkpt lat="37.841042" lon="12.4935893"><ele>19.0</ele><time>2026-04-25T19:28:55.395Z</time></trkpt><trkpt lat="37.8411831" lon="12.4937119"><ele>19.0</ele><time>2026-04-25T19:28:56.396Z</time></trkpt><trkpt lat="37.8413249" lon="12.4938336"><ele>19.0</ele><time>2026-04-25T19:28:57.396Z</time></trkpt><trkpt lat="37.841467" lon="12.4939531"><ele>19.0</ele><time>2026-04-25T19:28:58.396Z</time></trkpt><trkpt lat="37.8416136" lon="12.4940662"><ele>19.0</ele><time>2026-04-25T19:28:59.396Z</time></trkpt><trkpt lat="37.8417548" lon="12.4941866"><ele>19.0</ele><time>2026-04-25T19:29:00.395Z</time></trkpt><trkpt lat="37.8418885" lon="12.4943043"><ele>19.0</ele><time>2026-04-25T19:29:01.396Z</time></trkpt><trkpt lat="37.8420275" lon="12.4944126"><ele>19.25</ele><time>2026-04-25T19:29:02.396Z</time></trkpt><trkpt lat="37.8421515" lon="12.4945193"><ele>19.5</ele><time>2026-04-25T19:29:03.396Z</time></trkpt><trkpt lat="37.8422629" lon="12.4946309"><ele>19.75</ele><time>2026-04-25T19:29:04.396Z</time></trkpt><trkpt lat="37.8423606" lon="12.4947174"><ele>20.0</ele><time>2026-04-25T19:29:05.396Z</time></trkpt><trkpt lat="37.8424578" lon="12.4948001"><ele>20.0</ele><time>2026-04-25T19:29:06.396Z</time></trkpt><trkpt lat="37.8425646" lon="12.4948806"><ele>20.0</ele><time>2026-04-25T19:29:07.397Z</time></trkpt><trkpt lat="37.8426702" lon="12.4949607"><ele>20.0</ele><time>2026-04-25T19:29:08.396Z</time></trkpt><trkpt lat="37.8428024" lon="12.4950387"><ele>20.0</ele><time>2026-04-25T19:29:09.396Z</time></trkpt><trkpt lat="37.8429351" lon="12.4951097"><ele>19.666666666666668</ele><time>2026-04-25T19:29:10.396Z</time></trkpt><trkpt lat="37.8430738" lon="12.4951945"><ele>19.333333333333332</ele><time>2026-04-25T19:29:11.396Z</time></trkpt><trkpt lat="37.8432033" lon="12.4952866"><ele>19.0</ele><time>2026-04-25T19:29:12.395Z</time></trkpt><trkpt lat="37.8433404" lon="12.4953853"><ele>20.0</ele><time>2026-04-25T19:29:13.396Z</time></trkpt><trkpt lat="37.8434739" lon="12.4954873"><ele>21.0</ele><time>2026-04-25T19:29:14.396Z</time></trkpt><trkpt lat="37.8436117" lon="12.4956044"><ele>22.0</ele><time>2026-04-25T19:29:15.398Z</time></trkpt><trkpt lat="37.8437413" lon="12.4957169"><ele>22.0</ele><time>2026-04-25T19:29:16.395Z</time></trkpt><trkpt lat="37.8438751" lon="12.495843"><ele>22.0</ele><time>2026-04-25T19:29:17.397Z</time></trkpt><trkpt lat="37.8440056" lon="12.4959622"><ele>22.0</ele><time>2026-04-25T19:29:18.396Z</time></trkpt><trkpt lat="37.8441343" lon="12.4960806"><ele>22.0</ele><time>2026-04-25T19:29:19.396Z</time></trkpt><trkpt lat="37.8442495" lon="12.4961769"><ele>22.0</ele><time>2026-04-25T19:29:20.397Z</time></trkpt><trkpt lat="37.8443513" lon="12.4962956"><ele>22.0</ele><time>2026-04-25T19:29:21.395Z</time></trkpt><trkpt lat="37.8444261" lon="12.4964154"><ele>22.0</ele><time>2026-04-25T19:29:22.396Z</time></trkpt><trkpt lat="37.8445027" lon="12.4965266"><ele>22.8</ele><time>2026-04-25T19:29:23.396Z</time></trkpt><trkpt lat="37.8445887" lon="12.4966323"><ele>23.6</ele><time>2026-04-25T19:29:25.397Z</time></trkpt><trkpt lat="37.8447011" lon="12.4966738"><ele>24.400000000000002</ele><time>2026-04-25T19:29:27.396Z</time></trkpt><trkpt lat="37.8447873" lon="12.4967114"><ele>25.200000000000003</ele><time>2026-04-25T19:29:28.397Z</time></trkpt><trkpt lat="37.8448689" lon="12.4967774"><ele>26.0</ele><time>2026-04-25T19:29:29.396Z</time></trkpt><trkpt lat="37.8449434" lon="12.4968478"><ele>25.999999999999996</ele><time>2026-04-25T19:29:30.397Z</time></trkpt><trkpt lat="37.8450253" lon="12.4969289"><ele>26.0</ele><time>2026-04-25T19:29:31.396Z</time></trkpt><trkpt lat="37.8450967" lon="12.4969974"><ele>26.0</ele><time>2026-04-25T19:29:32.396Z</time></trkpt><trkpt lat="37.8451735" lon="12.4970515"><ele>26.0</ele><time>2026-04-25T19:29:33.395Z</time></trkpt><trkpt lat="37.8452471" lon="12.4970333"><ele>25.999999999999996</ele><time>2026-04-25T19:29:34.397Z</time></trkpt><trkpt lat="37.8453262" lon="12.4970195"><ele>26.0</ele><time>2026-04-25T19:29:35.396Z</time></trkpt><trkpt lat="37.8453934" lon="12.4969494"><ele>25.75</ele><time>2026-04-25T19:29:36.397Z</time></trkpt><trkpt lat="37.8454769" lon="12.4968369"><ele>25.5</ele><time>2026-04-25T19:29:37.397Z</time></trkpt><trkpt lat="37.8455518" lon="12.4967372"><ele>25.25</ele><time>2026-04-25T19:29:38.396Z</time></trkpt><trkpt lat="37.8456357" lon="12.4966238"><ele>25.0</ele><time>2026-04-25T19:29:39.397Z</time></trkpt><trkpt lat="37.8457203" lon="12.4965148"><ele>25.0</ele><time>2026-04-25T19:29:40.396Z</time></trkpt><trkpt lat="37.8458129" lon="12.4963972"><ele>25.0</ele><time>2026-04-25T19:29:41.396Z</time></trkpt><trkpt lat="37.8459119" lon="12.49627"><ele>25.0</ele><time>2026-04-25T19:29:42.396Z</time></trkpt><trkpt lat="37.8460108" lon="12.4961362"><ele>25.0</ele><time>2026-04-25T19:29:43.396Z</time></trkpt><trkpt lat="37.8461142" lon="12.4960031"><ele>24.5</ele><time>2026-04-25T19:29:44.396Z</time></trkpt><trkpt lat="37.8462125" lon="12.495867"><ele>24.0</ele><time>2026-04-25T19:29:45.396Z</time></trkpt><trkpt lat="37.8463149" lon="12.4957254"><ele>23.5</ele><time>2026-04-25T19:29:46.396Z</time></trkpt><trkpt lat="37.8464197" lon="12.4955898"><ele>23.0</ele><time>2026-04-25T19:29:47.396Z</time></trkpt><trkpt lat="37.8465234" lon="12.4954504"><ele>23.0</ele><time>2026-04-25T19:29:48.396Z</time></trkpt><trkpt lat="37.8466255" lon="12.4953131"><ele>23.0</ele><time>2026-04-25T19:29:49.396Z</time></trkpt><trkpt lat="37.8467329" lon="12.4951688"><ele>23.0</ele><time>2026-04-25T19:29:50.396Z</time></trkpt><trkpt lat="37.8468407" lon="12.4950261"><ele>22.666666666666668</ele><time>2026-04-25T19:29:51.395Z</time></trkpt><trkpt lat="37.8469509" lon="12.4948777"><ele>22.333333333333332</ele><time>2026-04-25T19:29:52.396Z</time></trkpt><trkpt lat="37.8470608" lon="12.4947383"><ele>22.0</ele><time>2026-04-25T19:29:53.396Z</time></trkpt><trkpt lat="37.8471659" lon="12.4945989"><ele>22.0</ele><time>2026-04-25T19:29:54.396Z</time></trkpt><trkpt lat="37.847278" lon="12.4944664"><ele>22.0</ele><time>2026-04-25T19:29:55.396Z</time></trkpt><trkpt lat="37.847388" lon="12.4943326"><ele>22.0</ele><time>2026-04-25T19:29:56.396Z</time></trkpt><trkpt lat="37.8474988" lon="12.4941941"><ele>22.0</ele><time>2026-04-25T19:29:57.396Z</time></trkpt><trkpt lat="37.847608" lon="12.4940622"><ele>22.0</ele><time>2026-04-25T19:29:58.396Z</time></trkpt><trkpt lat="37.8477151" lon="12.4939317"><ele>22.0</ele><time>2026-04-25T19:29:59.396Z</time></trkpt><trkpt lat="37.8478185" lon="12.4938034"><ele>22.0</ele><time>2026-04-25T19:30:00.396Z</time></trkpt><trkpt lat="37.8479219" lon="12.4936773"><ele>21.25</ele><time>2026-04-25T19:30:01.396Z</time></trkpt><trkpt lat="37.8480258" lon="12.4935566"><ele>20.5</ele><time>2026-04-25T19:30:02.396Z</time></trkpt><trkpt lat="37.8481136" lon="12.4934738"><ele>19.75</ele><time>2026-04-25T19:30:03.396Z</time></trkpt><trkpt lat="37.8482036" lon="12.4934"><ele>19.0</ele><time>2026-04-25T19:30:04.395Z</time></trkpt><trkpt lat="37.8482953" lon="12.493376"><ele>19.0</ele><time>2026-04-25T19:30:05.398Z</time></trkpt><trkpt lat="37.8483984" lon="12.4933792"><ele>19.0</ele><time>2026-04-25T19:30:06.396Z</time></trkpt><trkpt lat="37.8484992" lon="12.4934019"><ele>19.0</ele><time>2026-04-25T19:30:07.396Z</time></trkpt><trkpt lat="37.8486041" lon="12.4934407"><ele>19.0</ele><time>2026-04-25T19:30:08.395Z</time></trkpt><trkpt lat="37.8487014" lon="12.4934927"><ele>19.0</ele><time>2026-04-25T19:30:09.396Z</time></trkpt><trkpt lat="37.8488" lon="12.4935428"><ele>19.0</ele><time>2026-04-25T19:30:10.395Z</time></trkpt><trkpt lat="37.8489056" lon="12.4935793"><ele>19.0</ele><time>2026-04-25T19:30:11.396Z</time></trkpt><trkpt lat="37.8490125" lon="12.4935829"><ele>19.0</ele><time>2026-04-25T19:30:12.396Z</time></trkpt><trkpt lat="37.84912" lon="12.4935591"><ele>19.0</ele><time>2026-04-25T19:30:13.396Z</time></trkpt><trkpt lat="37.8492262" lon="12.4935237"><ele>19.0</ele><time>2026-04-25T19:30:14.396Z</time></trkpt><trkpt lat="37.8493277" lon="12.4934744"><ele>19.0</ele><time>2026-04-25T19:30:15.396Z</time></trkpt><trkpt lat="37.8494255" lon="12.4934168"><ele>19.0</ele><time>2026-04-25T19:30:16.396Z</time></trkpt><trkpt lat="37.8495189" lon="12.4933655"><ele>19.0</ele><time>2026-04-25T19:30:17.396Z</time></trkpt><trkpt lat="37.8496163" lon="12.4933094"><ele>19.0</ele><time>2026-04-25T19:30:18.396Z</time></trkpt><trkpt lat="37.8497145" lon="12.4932492"><ele>19.0</ele><time>2026-04-25T19:30:19.396Z</time></trkpt><trkpt lat="37.8498165" lon="12.4931929"><ele>19.0</ele><time>2026-04-25T19:30:20.396Z</time></trkpt><trkpt lat="37.8499167" lon="12.4931267"><ele>19.0</ele><time>2026-04-25T19:30:21.396Z</time></trkpt><trkpt lat="37.850015" lon="12.4930669"><ele>19.0</ele><time>2026-04-25T19:30:22.396Z</time></trkpt><trkpt lat="37.8501195" lon="12.4930084"><ele>19.0</ele><time>2026-04-25T19:30:23.396Z</time></trkpt><trkpt lat="37.8502199" lon="12.4929402"><ele>18.0</ele><time>2026-04-25T19:30:24.396Z</time></trkpt><trkpt lat="37.8503179" lon="12.4928824"><ele>17.0</ele><time>2026-04-25T19:30:25.396Z</time></trkpt><trkpt lat="37.8504012" lon="12.4928252"><ele>15.999999999999998</ele><time>2026-04-25T19:30:26.395Z</time></trkpt><trkpt lat="37.8504861" lon="12.4927779"><ele>15.0</ele><time>2026-04-25T19:30:27.395Z</time></trkpt><trkpt lat="37.8505864" lon="12.4927557"><ele>14.0</ele><time>2026-04-25T19:30:28.396Z</time></trkpt><trkpt lat="37.8506676" lon="12.492775"><ele>14.0</ele><time>2026-04-25T19:30:29.396Z</time></trkpt><trkpt lat="37.8507575" lon="12.4927925"><ele>13.999999999999998</ele><time>2026-04-25T19:30:30.396Z</time></trkpt><trkpt lat="37.8508526" lon="12.4928131"><ele>13.999999999999998</ele><time>2026-04-25T19:30:31.396Z</time></trkpt><trkpt lat="37.850945" lon="12.492833"><ele>14.0</ele><time>2026-04-25T19:30:32.396Z</time></trkpt><trkpt lat="37.8510437" lon="12.4928626"><ele>14.0</ele><time>2026-04-25T19:30:33.396Z</time></trkpt><trkpt lat="37.8511417" lon="12.4928813"><ele>14.799999999999999</ele><time>2026-04-25T19:30:34.396Z</time></trkpt><trkpt lat="37.8512382" lon="12.4929073"><ele>15.599999999999998</ele><time>2026-04-25T19:30:35.396Z</time></trkpt><trkpt lat="37.8513347" lon="12.4929311"><ele>16.4</ele><time>2026-04-25T19:30:36.396Z</time></trkpt><trkpt lat="37.8514251" lon="12.4929489"><ele>17.2</ele><time>2026-04-25T19:30:37.396Z</time></trkpt><trkpt lat="37.8515133" lon="12.492968"><ele>18.0</ele><time>2026-04-25T19:30:38.396Z</time></trkpt><trkpt lat="37.8515952" lon="12.4929818"><ele>18.0</ele><time>2026-04-25T19:30:39.396Z</time></trkpt><trkpt lat="37.8516631" lon="12.4929935"><ele>18.0</ele><time>2026-04-25T19:30:40.396Z</time></trkpt><trkpt lat="37.8517604" lon="12.493001"><ele>18.0</ele><time>2026-04-25T19:30:42.395Z</time></trkpt><trkpt lat="37.8518277" lon="12.4930017"><ele>18.0</ele><time>2026-04-25T19:30:44.397Z</time></trkpt><trkpt lat="37.8519195" lon="12.4929549"><ele>18.0</ele><time>2026-04-25T19:30:47.396Z</time></trkpt><trkpt lat="37.8519889" lon="12.4928659"><ele>18.0</ele><time>2026-04-25T19:30:49.396Z</time></trkpt><trkpt lat="37.8520217" lon="12.4927651"><ele>18.2</ele><time>2026-04-25T19:30:51.395Z</time></trkpt><trkpt lat="37.8520735" lon="12.4926609"><ele>18.4</ele><time>2026-04-25T19:30:53.396Z</time></trkpt><trkpt lat="37.8521344" lon="12.4925746"><ele>18.599999999999998</ele><time>2026-04-25T19:30:55.396Z</time></trkpt><trkpt lat="37.8522077" lon="12.4924857"><ele>18.8</ele><time>2026-04-25T19:30:57.397Z</time></trkpt><trkpt lat="37.8522704" lon="12.4924248"><ele>19.0</ele><time>2026-04-25T19:30:59.396Z</time></trkpt><trkpt lat="37.8523504" lon="12.4924764"><ele>19.0</ele><time>2026-04-25T19:31:01.396Z</time></trkpt><trkpt lat="37.8524024" lon="12.492527"><ele>19.0</ele><time>2026-04-25T19:31:03.397Z</time></trkpt></trkseg></trk></gpx>